<?xml version='1.0' encoding='UTF-8'?><gpx version="1.1" creator="JPX - https://github.com/jenetics/jpx" xmlns="http://www.topografix.com/GPX/1/1"><trk><trkseg><trkpt lat="43.344123542890415" lon="10.752873603072498"><ele>57.0</ele><time>2026-04-18T11:54:49Z</time></trkpt><trkpt lat="43.34419287686497" lon="10.752886284717038"><ele>56.99999999999999</ele><time>2026-04-18T11:55:20Z</time></trkpt><trkpt lat="43.34413877956498" lon="10.752832027847067"><ele>57.0</ele><time>2026-04-18T11:56:33Z</time></trkpt><trkpt lat="43.34407351377475" lon="10.752866532676938"><ele>57.0</ele><time>2026-04-18T11:56:45.001Z</time></trkpt><trkpt lat="43.34414699958643" lon="10.752798970229794"><ele>56.99999999999999</ele><time>2026-04-18T11:57:08Z</time></trkpt><trkpt lat="43.34416928345698" lon="10.752887769458667"><ele>57.0</ele><time>2026-04-18T11:57:32Z</time></trkpt><trkpt lat="43.344235605388036" lon="10.752868418431918"><ele>57.0</ele><time>2026-04-18T11:59:03.001Z</time></trkpt><trkpt lat="43.3441713047322" lon="10.752866784871793"><ele>57.0</ele><time>2026-04-18T11:59:36Z</time></trkpt><trkpt lat="43.34418361239027" lon="10.752959097418488"><ele>57.0</ele><time>2026-04-18T12:06:15Z</time></trkpt><trkpt lat="43.344242011062526" lon="10.753006983215796"><ele>57.0</ele><time>2026-04-18T12:06:19Z</time></trkpt><trkpt lat="43.34430577427086" lon="10.75309536279267"><ele>57.0</ele><time>2026-04-18T12:06:22Z</time></trkpt><trkpt lat="43.34435528375479" lon="10.753189597059247"><ele>57.0</ele><time>2026-04-18T12:06:25Z</time></trkpt><trkpt lat="43.34439873111411" lon="10.75327079971848"><ele>57.0</ele><time>2026-04-18T12:06:28Z</time></trkpt><trkpt lat="43.34444887781839" lon="10.753355339151014"><ele>57.0</ele><time>2026-04-18T12:06:32Z</time></trkpt><trkpt lat="43.34451087642054" lon="10.753440579108592"><ele>57.0</ele><time>2026-04-18T12:06:35Z</time></trkpt><trkpt lat="43.3445064452844" lon="10.75355757609158"><ele>57.0</ele><time>2026-04-18T12:06:39Z</time></trkpt><trkpt lat="43.344427413541865" lon="10.75356474769551"><ele>57.0</ele><time>2026-04-18T12:06:42Z</time></trkpt><trkpt lat="43.34435898246575" lon="10.75346947704704"><ele>57.0</ele><time>2026-04-18T12:06:44Z</time></trkpt><trkpt lat="43.3442894305293" lon="10.75335448435875"><ele>57.0</ele><time>2026-04-18T12:06:46Z</time></trkpt><trkpt lat="43.344200226813726" lon="10.753225415476466"><ele>57.0</ele><time>2026-04-18T12:06:48Z</time></trkpt><trkpt lat="43.34414172287333" lon="10.75314127288573"><ele>57.0</ele><time>2026-04-18T12:06:49Z</time></trkpt><trkpt lat="43.34407751348166" lon="10.753045633509277"><ele>57.0</ele><time>2026-04-18T12:06:50Z</time></trkpt><trkpt lat="43.34400709341108" lon="10.752940942640427"><ele>57.0</ele><time>2026-04-18T12:06:51Z</time></trkpt><trkpt lat="43.34393954582133" lon="10.752837661655972"><ele>57.0</ele><time>2026-04-18T12:06:52Z</time></trkpt><trkpt lat="43.34389023874108" lon="10.752709745731917"><ele>57.0</ele><time>2026-04-18T12:06:53Z</time></trkpt><trkpt lat="43.343814196038515" lon="10.752598300792606"><ele>57.0</ele><time>2026-04-18T12:06:54Z</time></trkpt><trkpt lat="43.343733485852695" lon="10.75248110087966"><ele>57.0</ele><time>2026-04-18T12:06:55Z</time></trkpt><trkpt lat="43.3436494427858" lon="10.752358897390721"><ele>57.0</ele><time>2026-04-18T12:06:56Z</time></trkpt><trkpt lat="43.34356194699226" lon="10.752232017000429"><ele>57.0</ele><time>2026-04-18T12:06:57Z</time></trkpt><trkpt lat="43.34347246527386" lon="10.752103990726672"><ele>57.0</ele><time>2026-04-18T12:06:58Z</time></trkpt><trkpt lat="43.34337874995631" lon="10.751969907704812"><ele>57.0</ele><time>2026-04-18T12:06:59Z</time></trkpt><trkpt lat="43.34328682807542" lon="10.751837020128743"><ele>57.0</ele><time>2026-04-18T12:07:00Z</time></trkpt><trkpt lat="43.343194357185595" lon="10.7517029873218"><ele>57.0</ele><time>2026-04-18T12:07:01Z</time></trkpt><trkpt lat="43.343099583658145" lon="10.751565616681619"><ele>57.0</ele><time>2026-04-18T12:07:02Z</time></trkpt><trkpt lat="43.34300380761544" lon="10.751426791841435"><ele>57.0</ele><time>2026-04-18T12:07:03Z</time></trkpt><trkpt lat="43.342906282005316" lon="10.751284409130532"><ele>56.75</ele><time>2026-04-18T12:07:04Z</time></trkpt><trkpt lat="43.34280675612185" lon="10.751139227963323"><ele>56.5</ele><time>2026-04-18T12:07:05Z</time></trkpt><trkpt lat="43.342708720681784" lon="10.750996220998882"><ele>56.25</ele><time>2026-04-18T12:07:06Z</time></trkpt><trkpt lat="43.34260592734708" lon="10.750846273345308"><ele>56.0</ele><time>2026-04-18T12:07:07Z</time></trkpt><trkpt lat="43.34250067646328" lon="10.750692740911061"><ele>56.0</ele><time>2026-04-18T12:07:08Z</time></trkpt><trkpt lat="43.34239462035648" lon="10.750538685737686"><ele>56.0</ele><time>2026-04-18T12:07:09Z</time></trkpt><trkpt lat="43.34228599184402" lon="10.750382513273985"><ele>56.0</ele><time>2026-04-18T12:07:10Z</time></trkpt><trkpt lat="43.34217685840255" lon="10.750225503034983"><ele>55.66666666666667</ele><time>2026-04-18T12:07:11Z</time></trkpt><trkpt lat="43.34206713153765" lon="10.750066858689989"><ele>55.33333333333333</ele><time>2026-04-18T12:07:12Z</time></trkpt><trkpt lat="43.3419563535612" lon="10.74990669463357"><ele>55.0</ele><time>2026-04-18T12:07:13Z</time></trkpt><trkpt lat="43.341846282218924" lon="10.749747471887728"><ele>55.0</ele><time>2026-04-18T12:07:14Z</time></trkpt><trkpt lat="43.341737273670994" lon="10.749586803066038"><ele>55.0</ele><time>2026-04-18T12:07:15Z</time></trkpt><trkpt lat="43.34162753964976" lon="10.749432970728543"><ele>55.0</ele><time>2026-04-18T12:07:16Z</time></trkpt><trkpt lat="43.34151478103943" lon="10.749289771845417"><ele>54.666666666666664</ele><time>2026-04-18T12:07:17Z</time></trkpt><trkpt lat="43.341399810687726" lon="10.749159334203663"><ele>54.33333333333333</ele><time>2026-04-18T12:07:18Z</time></trkpt><trkpt lat="43.341274113695135" lon="10.749039657203113"><ele>54.0</ele><time>2026-04-18T12:07:19Z</time></trkpt><trkpt lat="43.34114520241822" lon="10.748931932202405"><ele>54.0</ele><time>2026-04-18T12:07:20Z</time></trkpt><trkpt lat="43.341012941473636" lon="10.748825456464067"><ele>54.0</ele><time>2026-04-18T12:07:21Z</time></trkpt><trkpt lat="43.34088010194931" lon="10.748719662458331"><ele>54.0</ele><time>2026-04-18T12:07:22Z</time></trkpt><trkpt lat="43.34074569477492" lon="10.748616194655376"><ele>54.33333333333333</ele><time>2026-04-18T12:07:23Z</time></trkpt><trkpt lat="43.34060618954749" lon="10.748513007413447"><ele>54.666666666666664</ele><time>2026-04-18T12:07:24Z</time></trkpt><trkpt lat="43.34045943610555" lon="10.74842198396124"><ele>55.0</ele><time>2026-04-18T12:07:25Z</time></trkpt><trkpt lat="43.34030309193354" lon="10.74835991293448"><ele>55.0</ele><time>2026-04-18T12:07:26Z</time></trkpt><trkpt lat="43.34015430743585" lon="10.74828237029776"><ele>55.0</ele><time>2026-04-18T12:07:27Z</time></trkpt><trkpt lat="43.339999470053414" lon="10.748209020915482"><ele>55.0</ele><time>2026-04-18T12:07:28Z</time></trkpt><trkpt lat="43.33984337573284" lon="10.748140060851556"><ele>55.0</ele><time>2026-04-18T12:07:29Z</time></trkpt><trkpt lat="43.33968627573737" lon="10.748073774390289"><ele>55.0</ele><time>2026-04-18T12:07:30Z</time></trkpt><trkpt lat="43.33952946114344" lon="10.748008918129845"><ele>55.0</ele><time>2026-04-18T12:07:31Z</time></trkpt><trkpt lat="43.33937663449944" lon="10.747946103535229"><ele>55.0</ele><time>2026-04-18T12:07:31.998Z</time></trkpt><trkpt lat="43.33922547349253" lon="10.74788795966852"><ele>55.0</ele><time>2026-04-18T12:07:32.998Z</time></trkpt><trkpt lat="43.33907668913121" lon="10.747835065078442"><ele>55.0</ele><time>2026-04-18T12:07:33.998Z</time></trkpt><trkpt lat="43.33892902568957" lon="10.747802708875344"><ele>54.0</ele><time>2026-04-18T12:07:34.998Z</time></trkpt><trkpt lat="43.33877624440936" lon="10.7477937033067"><ele>53.0</ele><time>2026-04-18T12:07:35.998Z</time></trkpt><trkpt lat="43.33861880264917" lon="10.747792133800981"><ele>52.0</ele><time>2026-04-18T12:07:36.998Z</time></trkpt><trkpt lat="43.33846656399108" lon="10.747802513005368"><ele>52.0</ele><time>2026-04-18T12:07:37.998Z</time></trkpt><trkpt lat="43.338312045938466" lon="10.747816148619453"><ele>52.0</ele><time>2026-04-18T12:07:38.998Z</time></trkpt><trkpt lat="43.33815703022741" lon="10.747827622599491"><ele>52.0</ele><time>2026-04-18T12:07:39.998Z</time></trkpt><trkpt lat="43.33800054056178" lon="10.747835564637356"><ele>52.33333333333333</ele><time>2026-04-18T12:07:40.998Z</time></trkpt><trkpt lat="43.33784721897127" lon="10.747834076274922"><ele>52.66666666666667</ele><time>2026-04-18T12:07:41.998Z</time></trkpt><trkpt lat="43.337692270049715" lon="10.747818649439374"><ele>53.0</ele><time>2026-04-18T12:07:42.998Z</time></trkpt><trkpt lat="43.337542954283734" lon="10.747792856471063"><ele>53.0</ele><time>2026-04-18T12:07:43.998Z</time></trkpt><trkpt lat="43.33739994057043" lon="10.747740429363244"><ele>53.0</ele><time>2026-04-18T12:07:44.998Z</time></trkpt><trkpt lat="43.33726693013711" lon="10.747660911131712"><ele>53.0</ele><time>2026-04-18T12:07:45.999Z</time></trkpt><trkpt lat="43.337146351177005" lon="10.747562056097845"><ele>53.0</ele><time>2026-04-18T12:07:46.999Z</time></trkpt><trkpt lat="43.33704955736663" lon="10.747420868968698"><ele>53.75</ele><time>2026-04-18T12:07:47.999Z</time></trkpt><trkpt lat="43.336943488667785" lon="10.747288505844532"><ele>54.5</ele><time>2026-04-18T12:07:48.999Z</time></trkpt><trkpt lat="43.336834291707966" lon="10.747152482845525"><ele>55.25</ele><time>2026-04-18T12:07:49.999Z</time></trkpt><trkpt lat="43.336724688143335" lon="10.747013111884582"><ele>56.0</ele><time>2026-04-18T12:07:50.999Z</time></trkpt><trkpt lat="43.3366142447331" lon="10.74687267301201"><ele>55.5</ele><time>2026-04-18T12:07:51.999Z</time></trkpt><trkpt lat="43.33650775646549" lon="10.746731558007847"><ele>55.0</ele><time>2026-04-18T12:07:52.999Z</time></trkpt><trkpt lat="43.33640964506717" lon="10.746589151248413"><ele>54.5</ele><time>2026-04-18T12:07:53.999Z</time></trkpt><trkpt lat="43.33632658907802" lon="10.746442407642911"><ele>54.0</ele><time>2026-04-18T12:07:54.999Z</time></trkpt><trkpt lat="43.33626189347839" lon="10.746284350230162"><ele>54.0</ele><time>2026-04-18T12:07:55.999Z</time></trkpt><trkpt lat="43.33619677170734" lon="10.746128744184048"><ele>54.0</ele><time>2026-04-18T12:07:56.999Z</time></trkpt><trkpt lat="43.33616426112724" lon="10.745957796343347"><ele>54.0</ele><time>2026-04-18T12:07:57.999Z</time></trkpt><trkpt lat="43.3361161703331" lon="10.745811573165431"><ele>54.0</ele><time>2026-04-18T12:07:58.999Z</time></trkpt><trkpt lat="43.33606858129678" lon="10.745647615292572"><ele>54.25</ele><time>2026-04-18T12:07:59.999Z</time></trkpt><trkpt lat="43.3360205470604" lon="10.745482847933644"><ele>54.5</ele><time>2026-04-18T12:08:00.999Z</time></trkpt><trkpt lat="43.33598429316019" lon="10.74532598957509"><ele>54.75</ele><time>2026-04-18T12:08:01.999Z</time></trkpt><trkpt lat="43.33593593006932" lon="10.745165990941308"><ele>55.0</ele><time>2026-04-18T12:08:02.999Z</time></trkpt><trkpt lat="43.33588831606913" lon="10.745010474504598"><ele>55.75</ele><time>2026-04-18T12:08:03.999Z</time></trkpt><trkpt lat="43.33584289448637" lon="10.744853615324997"><ele>56.5</ele><time>2026-04-18T12:08:04.999Z</time></trkpt><trkpt lat="43.335800625901214" lon="10.744699320897977"><ele>57.25</ele><time>2026-04-18T12:08:05.999Z</time></trkpt><trkpt lat="43.33575366231048" lon="10.744539145826637"><ele>58.0</ele><time>2026-04-18T12:08:06.999Z</time></trkpt><trkpt lat="43.3357014247929" lon="10.744382720300834"><ele>57.2</ele><time>2026-04-18T12:08:07.999Z</time></trkpt><trkpt lat="43.33565689567071" lon="10.744225662746922"><ele>56.4</ele><time>2026-04-18T12:08:08.999Z</time></trkpt><trkpt lat="43.335616434481615" lon="10.744076294893155"><ele>55.60000000000001</ele><time>2026-04-18T12:08:09.999Z</time></trkpt><trkpt lat="43.335577438485196" lon="10.743939667649416"><ele>54.800000000000004</ele><time>2026-04-18T12:08:10.999Z</time></trkpt><trkpt lat="43.33554665583176" lon="10.74381871712448"><ele>54.0</ele><time>2026-04-18T12:08:11.999Z</time></trkpt><trkpt lat="43.33552149287324" lon="10.743726762600295"><ele>54.0</ele><time>2026-04-18T12:08:12.999Z</time></trkpt><trkpt lat="43.33549563946149" lon="10.743643498039418"><ele>54.0</ele><time>2026-04-18T12:08:13.999Z</time></trkpt><trkpt lat="43.33546902020419" lon="10.743563246131073"><ele>54.0</ele><time>2026-04-18T12:08:14.999Z</time></trkpt><trkpt lat="43.33544675994681" lon="10.743474067434194"><ele>54.0</ele><time>2026-04-18T12:08:15.999Z</time></trkpt><trkpt lat="43.33542115569089" lon="10.74337294634312"><ele>54.0</ele><time>2026-04-18T12:08:16.999Z</time></trkpt><trkpt lat="43.33540290810052" lon="10.743260388725135"><ele>54.0</ele><time>2026-04-18T12:08:17.999Z</time></trkpt><trkpt lat="43.33539597794235" lon="10.743148529344152"><ele>54.0</ele><time>2026-04-18T12:08:18.999Z</time></trkpt><trkpt lat="43.33539984746115" lon="10.743039193809878"><ele>54.0</ele><time>2026-04-18T12:08:19.999Z</time></trkpt><trkpt lat="43.335409704774335" lon="10.742931874990811"><ele>54.00000000000001</ele><time>2026-04-18T12:08:20.999Z</time></trkpt><trkpt lat="43.33542512537664" lon="10.742827197667228"><ele>54.00000000000001</ele><time>2026-04-18T12:08:21.999Z</time></trkpt><trkpt lat="43.335441167796446" lon="10.742731489645877"><ele>54.0</ele><time>2026-04-18T12:08:22.999Z</time></trkpt><trkpt lat="43.335467056486095" lon="10.742600246033458"><ele>54.0</ele><time>2026-04-18T12:08:24.999Z</time></trkpt><trkpt lat="43.335363955634854" lon="10.742489939874975"><ele>54.0</ele><time>2026-04-18T12:08:26.999Z</time></trkpt><trkpt lat="43.33526807140111" lon="10.742382239615056"><ele>54.0</ele><time>2026-04-18T12:08:28.999Z</time></trkpt><trkpt lat="43.33522553231122" lon="10.742310077844515"><ele>54.0</ele><time>2026-04-18T12:08:29.999Z</time></trkpt><trkpt lat="43.33518181925488" lon="10.742236063940183"><ele>54.0</ele><time>2026-04-18T12:08:30.999Z</time></trkpt><trkpt lat="43.3351362029891" lon="10.742159573771396"><ele>54.0</ele><time>2026-04-18T12:08:31.999Z</time></trkpt><trkpt lat="43.33509542403653" lon="10.742087512296914"><ele>54.0</ele><time>2026-04-18T12:08:32.999Z</time></trkpt><trkpt lat="43.33505385363511" lon="10.742019396582885"><ele>54.0</ele><time>2026-04-18T12:08:34Z</time></trkpt><trkpt lat="43.33498058918992" lon="10.741892417916075"><ele>54.00000000000001</ele><time>2026-04-18T12:08:36Z</time></trkpt><trkpt lat="43.33491215845889" lon="10.741780643597723"><ele>54.00000000000001</ele><time>2026-04-18T12:08:38Z</time></trkpt><trkpt lat="43.334853207448106" lon="10.74168523011904"><ele>54.0</ele><time>2026-04-18T12:08:40Z</time></trkpt><trkpt lat="43.33480421076328" lon="10.741603824319911"><ele>54.0</ele><time>2026-04-18T12:08:42Z</time></trkpt><trkpt lat="43.334762872918446" lon="10.741522831515882"><ele>53.666666666666664</ele><time>2026-04-18T12:08:44Z</time></trkpt><trkpt lat="43.3347290256584" lon="10.741446717926028"><ele>53.33333333333333</ele><time>2026-04-18T12:08:48Z</time></trkpt><trkpt lat="43.334683190309995" lon="10.741375504999143"><ele>53.0</ele><time>2026-04-18T12:08:55Z</time></trkpt><trkpt lat="43.334610878470336" lon="10.741272335439815"><ele>52.666666666666664</ele><time>2026-04-18T12:08:57Z</time></trkpt><trkpt lat="43.33453651121339" lon="10.741152778136911"><ele>52.33333333333333</ele><time>2026-04-18T12:08:59Z</time></trkpt><trkpt lat="43.3344928705674" lon="10.74107795314365"><ele>52.0</ele><time>2026-04-18T12:09:00Z</time></trkpt><trkpt lat="43.33444477711247" lon="10.740995608797366"><ele>51.8</ele><time>2026-04-18T12:09:01Z</time></trkpt><trkpt lat="43.33438931669539" lon="10.740898856219141"><ele>51.6</ele><time>2026-04-18T12:09:02Z</time></trkpt><trkpt lat="43.3343311463486" lon="10.740803254142536"><ele>51.4</ele><time>2026-04-18T12:09:03Z</time></trkpt><trkpt lat="43.334267209525066" lon="10.740709348817557"><ele>51.199999999999996</ele><time>2026-04-18T12:09:04Z</time></trkpt><trkpt lat="43.334212715438696" lon="10.74059762177005"><ele>51.0</ele><time>2026-04-18T12:09:05Z</time></trkpt><trkpt lat="43.334144757293174" lon="10.740484637291859"><ele>51.0</ele><time>2026-04-18T12:09:06Z</time></trkpt><trkpt lat="43.334072604243495" lon="10.740358389197555"><ele>51.0</ele><time>2026-04-18T12:09:07Z</time></trkpt><trkpt lat="43.333998419666955" lon="10.740230683468598"><ele>51.0</ele><time>2026-04-18T12:09:08Z</time></trkpt><trkpt lat="43.33392433277364" lon="10.740105144801735"><ele>51.0</ele><time>2026-04-18T12:09:09Z</time></trkpt><trkpt lat="43.33384920800409" lon="10.73997986727164"><ele>51.25</ele><time>2026-04-18T12:09:10Z</time></trkpt><trkpt lat="43.33377386462978" lon="10.739854960404017"><ele>51.5</ele><time>2026-04-18T12:09:11Z</time></trkpt><trkpt lat="43.33370898850743" lon="10.73972068060302"><ele>51.75</ele><time>2026-04-18T12:09:12Z</time></trkpt><trkpt lat="43.33363531087159" lon="10.739597562446743"><ele>52.0</ele><time>2026-04-18T12:09:13Z</time></trkpt><trkpt lat="43.333562976728324" lon="10.739479074956703"><ele>52.0</ele><time>2026-04-18T12:09:14Z</time></trkpt><trkpt lat="43.33349335148181" lon="10.739357576579097"><ele>52.0</ele><time>2026-04-18T12:09:15Z</time></trkpt><trkpt lat="43.33341805791025" lon="10.739233318320432"><ele>52.0</ele><time>2026-04-18T12:09:16Z</time></trkpt><trkpt lat="43.333343578585534" lon="10.739104859361007"><ele>52.0</ele><time>2026-04-18T12:09:17Z</time></trkpt><trkpt lat="43.33326366252769" lon="10.738981512794881"><ele>52.0</ele><time>2026-04-18T12:09:18Z</time></trkpt><trkpt lat="43.333179407991764" lon="10.738867241845597"><ele>52.0</ele><time>2026-04-18T12:09:19Z</time></trkpt><trkpt lat="43.333084932775634" lon="10.738765899609861"><ele>52.0</ele><time>2026-04-18T12:09:20Z</time></trkpt><trkpt lat="43.332978325986254" lon="10.738680862546836"><ele>52.0</ele><time>2026-04-18T12:09:21Z</time></trkpt><trkpt lat="43.33286390679556" lon="10.738609234132547"><ele>52.5</ele><time>2026-04-18T12:09:22Z</time></trkpt><trkpt lat="43.332742602078355" lon="10.738537626655882"><ele>53.0</ele><time>2026-04-18T12:09:23Z</time></trkpt><trkpt lat="43.3326201838435" lon="10.738465757436392"><ele>53.5</ele><time>2026-04-18T12:09:24Z</time></trkpt><trkpt lat="43.33248956020667" lon="10.738395309651935"><ele>54.0</ele><time>2026-04-18T12:09:25Z</time></trkpt><trkpt lat="43.3323573531202" lon="10.738321223926352"><ele>54.0</ele><time>2026-04-18T12:09:26Z</time></trkpt><trkpt lat="43.33222463304255" lon="10.738246992264692"><ele>54.0</ele><time>2026-04-18T12:09:27Z</time></trkpt><trkpt lat="43.33208977252664" lon="10.738169859455677"><ele>54.0</ele><time>2026-04-18T12:09:28Z</time></trkpt><trkpt lat="43.331958009047966" lon="10.738093017095222"><ele>54.0</ele><time>2026-04-18T12:09:29Z</time></trkpt><trkpt lat="43.33182779708317" lon="10.738018102720494"><ele>53.5</ele><time>2026-04-18T12:09:30Z</time></trkpt><trkpt lat="43.33170265062712" lon="10.737948636336057"><ele>53.0</ele><time>2026-04-18T12:09:31Z</time></trkpt><trkpt lat="43.33158203454578" lon="10.737880502285279"><ele>52.5</ele><time>2026-04-18T12:09:32Z</time></trkpt><trkpt lat="43.33147013373426" lon="10.737814224664866"><ele>52.0</ele><time>2026-04-18T12:09:33Z</time></trkpt><trkpt lat="43.3313638037467" lon="10.737744085047574"><ele>54.5</ele><time>2026-04-18T12:09:34Z</time></trkpt><trkpt lat="43.331263158377574" lon="10.737664990681738"><ele>57.0</ele><time>2026-04-18T12:09:35Z</time></trkpt><trkpt lat="43.33117219435702" lon="10.737574804537946"><ele>59.5</ele><time>2026-04-18T12:09:36Z</time></trkpt><trkpt lat="43.331087941071864" lon="10.73746740816184"><ele>62.0</ele><time>2026-04-18T12:09:37Z</time></trkpt><trkpt lat="43.331013648396315" lon="10.73734968557779"><ele>62.0</ele><time>2026-04-18T12:09:37.998Z</time></trkpt><trkpt lat="43.33095240734924" lon="10.737221157373416"><ele>62.0</ele><time>2026-04-18T12:09:38.998Z</time></trkpt><trkpt lat="43.33090390279202" lon="10.73708030147202"><ele>62.0</ele><time>2026-04-18T12:09:39.998Z</time></trkpt><trkpt lat="43.330863527426786" lon="10.73693157090891"><ele>62.0</ele><time>2026-04-18T12:09:40.998Z</time></trkpt><trkpt lat="43.33082310934544" lon="10.736785006894976"><ele>62.400000000000006</ele><time>2026-04-18T12:09:41.998Z</time></trkpt><trkpt lat="43.330781881828074" lon="10.736642810866453"><ele>62.800000000000004</ele><time>2026-04-18T12:09:42.998Z</time></trkpt><trkpt lat="43.33074690582301" lon="10.736509398398443"><ele>63.2</ele><time>2026-04-18T12:09:43.998Z</time></trkpt><trkpt lat="43.33071632850716" lon="10.736393703567595"><ele>63.6</ele><time>2026-04-18T12:09:44.998Z</time></trkpt><trkpt lat="43.33069170805744" lon="10.736299692943469"><ele>64.0</ele><time>2026-04-18T12:09:45.998Z</time></trkpt><trkpt lat="43.33065810431204" lon="10.736156913471369"><ele>65.33333333333333</ele><time>2026-04-18T12:09:47.998Z</time></trkpt><trkpt lat="43.33050893666059" lon="10.736137214957617"><ele>66.66666666666666</ele><time>2026-04-18T12:09:49.998Z</time></trkpt><trkpt lat="43.33043588712918" lon="10.73616362531749"><ele>68.0</ele><time>2026-04-18T12:09:50.998Z</time></trkpt><trkpt lat="43.33037265937998" lon="10.736198966063894"><ele>69.33333333333333</ele><time>2026-04-18T12:09:51.998Z</time></trkpt><trkpt lat="43.33030752493765" lon="10.736235394656035"><ele>70.66666666666667</ele><time>2026-04-18T12:09:52.998Z</time></trkpt><trkpt lat="43.33023573265539" lon="10.736273585046716"><ele>72.0</ele><time>2026-04-18T12:09:53.998Z</time></trkpt><trkpt lat="43.330158236586364" lon="10.736313134447604"><ele>72.0</ele><time>2026-04-18T12:09:54.998Z</time></trkpt><trkpt lat="43.330074619568215" lon="10.7363555995281"><ele>72.0</ele><time>2026-04-18T12:09:55.998Z</time></trkpt><trkpt lat="43.329987107792995" lon="10.736400838223261"><ele>72.0</ele><time>2026-04-18T12:09:56.998Z</time></trkpt><trkpt lat="43.32989546159618" lon="10.736449791723386"><ele>72.0</ele><time>2026-04-18T12:09:57.998Z</time></trkpt><trkpt lat="43.329790153680015" lon="10.736502183639384"><ele>72.0</ele><time>2026-04-18T12:09:58.999Z</time></trkpt><trkpt lat="43.329682901371484" lon="10.736561014035043"><ele>72.25</ele><time>2026-04-18T12:09:59.999Z</time></trkpt><trkpt lat="43.329574824674694" lon="10.736617158760936"><ele>72.5</ele><time>2026-04-18T12:10:00.999Z</time></trkpt><trkpt lat="43.32947660913266" lon="10.736671036541226"><ele>72.75</ele><time>2026-04-18T12:10:01.999Z</time></trkpt><trkpt lat="43.329368748426006" lon="10.736729889651091"><ele>73.0</ele><time>2026-04-18T12:10:02.999Z</time></trkpt><trkpt lat="43.329256630595275" lon="10.736790959016478"><ele>73.0</ele><time>2026-04-18T12:10:03.999Z</time></trkpt><trkpt lat="43.32914118878518" lon="10.736855795690614"><ele>73.0</ele><time>2026-04-18T12:10:04.999Z</time></trkpt><trkpt lat="43.329023562375454" lon="10.736922807741612"><ele>73.0</ele><time>2026-04-18T12:10:05.999Z</time></trkpt><trkpt lat="43.32889568812669" lon="10.73698766830515"><ele>73.0</ele><time>2026-04-18T12:10:06.999Z</time></trkpt><trkpt lat="43.32877290395495" lon="10.737056182566185"><ele>73.75</ele><time>2026-04-18T12:10:07.999Z</time></trkpt><trkpt lat="43.328646348064176" lon="10.737121722422598"><ele>74.5</ele><time>2026-04-18T12:10:08.999Z</time></trkpt><trkpt lat="43.328518000849954" lon="10.737192933703222"><ele>75.25</ele><time>2026-04-18T12:10:09.999Z</time></trkpt><trkpt lat="43.32839389586079" lon="10.737259875261923"><ele>76.0</ele><time>2026-04-18T12:10:10.999Z</time></trkpt><trkpt lat="43.328266116490944" lon="10.737329232739151"><ele>76.0</ele><time>2026-04-18T12:10:11.999Z</time></trkpt><trkpt lat="43.32814302964994" lon="10.737396330198685"><ele>76.0</ele><time>2026-04-18T12:10:12.999Z</time></trkpt><trkpt lat="43.3280180275394" lon="10.737464560611597"><ele>76.0</ele><time>2026-04-18T12:10:13.999Z</time></trkpt><trkpt lat="43.32789133722626" lon="10.737525338530515"><ele>76.0</ele><time>2026-04-18T12:10:14.999Z</time></trkpt><trkpt lat="43.32778038704491" lon="10.737591729085329"><ele>76.2</ele><time>2026-04-18T12:10:15.999Z</time></trkpt><trkpt lat="43.32766900530759" lon="10.737651467861685"><ele>76.39999999999999</ele><time>2026-04-18T12:10:16.999Z</time></trkpt><trkpt lat="43.32756478454097" lon="10.737710046468994"><ele>76.6</ele><time>2026-04-18T12:10:17.999Z</time></trkpt><trkpt lat="43.32746262768097" lon="10.737771290196655"><ele>76.8</ele><time>2026-04-18T12:10:18.999Z</time></trkpt><trkpt lat="43.32737409346877" lon="10.737838458945463"><ele>77.0</ele><time>2026-04-18T12:10:19.999Z</time></trkpt><trkpt lat="43.327292830689096" lon="10.737922404928536"><ele>77.2</ele><time>2026-04-18T12:10:20.999Z</time></trkpt><trkpt lat="43.32721508080465" lon="10.738014873907039"><ele>77.4</ele><time>2026-04-18T12:10:21.999Z</time></trkpt><trkpt lat="43.32713172542084" lon="10.738099021488074"><ele>77.6</ele><time>2026-04-18T12:10:22.999Z</time></trkpt><trkpt lat="43.3270375016013" lon="10.738175932975537"><ele>77.8</ele><time>2026-04-18T12:10:23.999Z</time></trkpt><trkpt lat="43.3269442890622" lon="10.738239740852082"><ele>78.0</ele><time>2026-04-18T12:10:24.999Z</time></trkpt><trkpt lat="43.326843953582554" lon="10.738292756318613"><ele>78.0</ele><time>2026-04-18T12:10:25.999Z</time></trkpt><trkpt lat="43.326741314437406" lon="10.738363674754693"><ele>78.0</ele><time>2026-04-18T12:10:26.999Z</time></trkpt><trkpt lat="43.32665197484111" lon="10.738448898707325"><ele>78.0</ele><time>2026-04-18T12:10:27.999Z</time></trkpt><trkpt lat="43.32657103397366" lon="10.738550867096652"><ele>78.0</ele><time>2026-04-18T12:10:28.999Z</time></trkpt><trkpt lat="43.32649867650944" lon="10.738660295493887"><ele>78.0</ele><time>2026-04-18T12:10:29.999Z</time></trkpt><trkpt lat="43.326432402166745" lon="10.738775661113475"><ele>78.16666666666667</ele><time>2026-04-18T12:10:30.999Z</time></trkpt><trkpt lat="43.326380218981086" lon="10.738875307463122"><ele>78.33333333333333</ele><time>2026-04-18T12:10:31.999Z</time></trkpt><trkpt lat="43.32635071215577" lon="10.738977065569065"><ele>78.5</ele><time>2026-04-18T12:10:32.999Z</time></trkpt><trkpt lat="43.326319171359664" lon="10.739089665227716"><ele>78.66666666666666</ele><time>2026-04-18T12:10:33.999Z</time></trkpt><trkpt lat="43.32630632899944" lon="10.739214692625415"><ele>78.83333333333333</ele><time>2026-04-18T12:10:34.999Z</time></trkpt><trkpt lat="43.32631384727732" lon="10.739342102651747"><ele>79.0</ele><time>2026-04-18T12:10:35.999Z</time></trkpt><trkpt lat="43.326322894805145" lon="10.739482763207958"><ele>77.33333333333333</ele><time>2026-04-18T12:10:36.999Z</time></trkpt><trkpt lat="43.32632887967667" lon="10.739617505412488"><ele>75.66666666666666</ele><time>2026-04-18T12:10:38Z</time></trkpt><trkpt lat="43.326330689688255" lon="10.739736410083713"><ele>74.0</ele><time>2026-04-18T12:10:39Z</time></trkpt><trkpt lat="43.326327368047444" lon="10.7398449389158"><ele>72.33333333333333</ele><time>2026-04-18T12:10:40Z</time></trkpt><trkpt lat="43.3263022973524" lon="10.739944072433628"><ele>70.66666666666667</ele><time>2026-04-18T12:10:41Z</time></trkpt><trkpt lat="43.32625577536261" lon="10.740031856350248"><ele>69.0</ele><time>2026-04-18T12:10:42Z</time></trkpt><trkpt lat="43.326204008504305" lon="10.740120772304094"><ele>69.0</ele><time>2026-04-18T12:10:43Z</time></trkpt><trkpt lat="43.32611347121066" lon="10.740172088056"><ele>69.0</ele><time>2026-04-18T12:10:44Z</time></trkpt><trkpt lat="43.32601220343667" lon="10.74022522263655"><ele>69.0</ele><time>2026-04-18T12:10:45Z</time></trkpt><trkpt lat="43.325905059332804" lon="10.740290330817704"><ele>69.0</ele><time>2026-04-18T12:10:46Z</time></trkpt><trkpt lat="43.32579216650487" lon="10.740366464321605"><ele>69.0</ele><time>2026-04-18T12:10:47Z</time></trkpt><trkpt lat="43.32566839417614" lon="10.740447108550315"><ele>68.0</ele><time>2026-04-18T12:10:48Z</time></trkpt><trkpt lat="43.32554408040413" lon="10.740531714286274"><ele>67.0</ele><time>2026-04-18T12:10:49Z</time></trkpt><trkpt lat="43.32541441677175" lon="10.740615642055499"><ele>66.0</ele><time>2026-04-18T12:10:50Z</time></trkpt><trkpt lat="43.32528819814184" lon="10.740708890282328"><ele>65.0</ele><time>2026-04-18T12:10:51Z</time></trkpt><trkpt lat="43.325162153472235" lon="10.740799186177517"><ele>65.0</ele><time>2026-04-18T12:10:52Z</time></trkpt><trkpt lat="43.32504775451251" lon="10.740909710548763"><ele>65.0</ele><time>2026-04-18T12:10:53Z</time></trkpt><trkpt lat="43.3249379633437" lon="10.7410307729428"><ele>65.0</ele><time>2026-04-18T12:10:54Z</time></trkpt><trkpt lat="43.324832128669534" lon="10.741172909149567"><ele>65.0</ele><time>2026-04-18T12:10:55Z</time></trkpt><trkpt lat="43.324730389829504" lon="10.74131720206344"><ele>64.0</ele><time>2026-04-18T12:10:56Z</time></trkpt><trkpt lat="43.32461908974259" lon="10.741463486140782"><ele>63.0</ele><time>2026-04-18T12:10:57Z</time></trkpt><trkpt lat="43.3245072049531" lon="10.74161998691788"><ele>62.0</ele><time>2026-04-18T12:10:58Z</time></trkpt><trkpt lat="43.32440151005687" lon="10.741775996129247"><ele>60.333333333333336</ele><time>2026-04-18T12:10:59Z</time></trkpt><trkpt lat="43.32429890866395" lon="10.74193049650351"><ele>58.66666666666667</ele><time>2026-04-18T12:11:00Z</time></trkpt><trkpt lat="43.32419394618307" lon="10.74209785920467"><ele>57.0</ele><time>2026-04-18T12:11:01Z</time></trkpt><trkpt lat="43.3240869820509" lon="10.74226437895505"><ele>57.0</ele><time>2026-04-18T12:11:02Z</time></trkpt><trkpt lat="43.32398042158316" lon="10.742432705296167"><ele>57.0</ele><time>2026-04-18T12:11:03Z</time></trkpt><trkpt lat="43.32387077013357" lon="10.742599563191309"><ele>57.0</ele><time>2026-04-18T12:11:04Z</time></trkpt><trkpt lat="43.323763021696415" lon="10.742772360748477"><ele>57.33333333333333</ele><time>2026-04-18T12:11:05Z</time></trkpt><trkpt lat="43.32365655073863" lon="10.742946262135279"><ele>57.666666666666664</ele><time>2026-04-18T12:11:06Z</time></trkpt><trkpt lat="43.323550948024376" lon="10.743121474132755"><ele>58.0</ele><time>2026-04-18T12:11:07Z</time></trkpt><trkpt lat="43.3234470941186" lon="10.743293455312129"><ele>58.0</ele><time>2026-04-18T12:11:08Z</time></trkpt><trkpt lat="43.32334115853986" lon="10.743464588653863"><ele>58.0</ele><time>2026-04-18T12:11:09Z</time></trkpt><trkpt lat="43.323236865147" lon="10.743638657090912"><ele>58.0</ele><time>2026-04-18T12:11:10Z</time></trkpt><trkpt lat="43.323128423879005" lon="10.743813967693011"><ele>60.0</ele><time>2026-04-18T12:11:11Z</time></trkpt><trkpt lat="43.32301941483219" lon="10.743993901840046"><ele>62.0</ele><time>2026-04-18T12:11:12Z</time></trkpt><trkpt lat="43.32290973680809" lon="10.744172664882573"><ele>64.0</ele><time>2026-04-18T12:11:13Z</time></trkpt><trkpt lat="43.32280018993461" lon="10.744350999963174"><ele>61.666666666666664</ele><time>2026-04-18T12:11:14Z</time></trkpt><trkpt lat="43.32269234018256" lon="10.74453041175441"><ele>59.33333333333333</ele><time>2026-04-18T12:11:15Z</time></trkpt><trkpt lat="43.32258084174535" lon="10.744709661915511"><ele>57.0</ele><time>2026-04-18T12:11:16Z</time></trkpt><trkpt lat="43.32246983591873" lon="10.744887038728184"><ele>57.0</ele><time>2026-04-18T12:11:17Z</time></trkpt><trkpt lat="43.32235942622727" lon="10.745063305821114"><ele>57.0</ele><time>2026-04-18T12:11:18Z</time></trkpt><trkpt lat="43.32224861102556" lon="10.745242051412484"><ele>57.0</ele><time>2026-04-18T12:11:19Z</time></trkpt><trkpt lat="43.322136857953495" lon="10.74542117912054"><ele>58.33333333333333</ele><time>2026-04-18T12:11:20Z</time></trkpt><trkpt lat="43.32202993314219" lon="10.745602588827577"><ele>59.666666666666664</ele><time>2026-04-18T12:11:21Z</time></trkpt><trkpt lat="43.3219301719552" lon="10.745790380064257"><ele>61.0</ele><time>2026-04-18T12:11:22Z</time></trkpt><trkpt lat="43.32183992039392" lon="10.745990455406895"><ele>59.33333333333333</ele><time>2026-04-18T12:11:23Z</time></trkpt><trkpt lat="43.321754415821154" lon="10.746192444629271"><ele>57.66666666666667</ele><time>2026-04-18T12:11:24Z</time></trkpt><trkpt lat="43.32166805187467" lon="10.746395681646453"><ele>56.0</ele><time>2026-04-18T12:11:25Z</time></trkpt><trkpt lat="43.321582470734405" lon="10.74660259262085"><ele>56.0</ele><time>2026-04-18T12:11:26Z</time></trkpt><trkpt lat="43.32149719466625" lon="10.74680908113098"><ele>56.0</ele><time>2026-04-18T12:11:27Z</time></trkpt><trkpt lat="43.32141336353353" lon="10.747015074402276"><ele>56.0</ele><time>2026-04-18T12:11:28Z</time></trkpt><trkpt lat="43.32132922772817" lon="10.747219914052287"><ele>57.66666666666667</ele><time>2026-04-18T12:11:29Z</time></trkpt><trkpt lat="43.3212432403085" lon="10.747424316541458"><ele>59.33333333333333</ele><time>2026-04-18T12:11:30Z</time></trkpt><trkpt lat="43.32115955637152" lon="10.747624171814303"><ele>61.0</ele><time>2026-04-18T12:11:31Z</time></trkpt><trkpt lat="43.32107557984598" lon="10.74783241747979"><ele>61.0</ele><time>2026-04-18T12:11:32Z</time></trkpt><trkpt lat="43.32099212453602" lon="10.748043715402922"><ele>61.0</ele><time>2026-04-18T12:11:33Z</time></trkpt><trkpt lat="43.32090365102187" lon="10.748246897226966"><ele>61.0</ele><time>2026-04-18T12:11:34Z</time></trkpt><trkpt lat="43.32081609233715" lon="10.748456263761229"><ele>59.666666666666664</ele><time>2026-04-18T12:11:35Z</time></trkpt><trkpt lat="43.32073150799112" lon="10.748663677899215"><ele>58.33333333333333</ele><time>2026-04-18T12:11:36Z</time></trkpt><trkpt lat="43.32064812507707" lon="10.748870106097305"><ele>57.0</ele><time>2026-04-18T12:11:37Z</time></trkpt><trkpt lat="43.320564545639904" lon="10.749075102574299"><ele>58.66666666666667</ele><time>2026-04-18T12:11:38Z</time></trkpt><trkpt lat="43.32048335411775" lon="10.749279878398914"><ele>60.333333333333336</ele><time>2026-04-18T12:11:39Z</time></trkpt><trkpt lat="43.320405328269565" lon="10.749481183963633"><ele>62.0</ele><time>2026-04-18T12:11:40Z</time></trkpt><trkpt lat="43.32032699695574" lon="10.749673064416736"><ele>62.0</ele><time>2026-04-18T12:11:41Z</time></trkpt><trkpt lat="43.32024667623547" lon="10.749859681945281"><ele>62.0</ele><time>2026-04-18T12:11:42Z</time></trkpt><trkpt lat="43.32015906240495" lon="10.750036658808117"><ele>62.0</ele><time>2026-04-18T12:11:43Z</time></trkpt><trkpt lat="43.32006092020669" lon="10.750194838179167"><ele>63.0</ele><time>2026-04-18T12:11:43.997Z</time></trkpt><trkpt lat="43.319949663876855" lon="10.750340307464109"><ele>64.0</ele><time>2026-04-18T12:11:44.997Z</time></trkpt><trkpt lat="43.3198315745087" lon="10.750477259112527"><ele>65.0</ele><time>2026-04-18T12:11:45.997Z</time></trkpt><trkpt lat="43.31971019840133" lon="10.750608239060924"><ele>65.0</ele><time>2026-04-18T12:11:46.998Z</time></trkpt><trkpt lat="43.319588827487145" lon="10.750742119046683"><ele>65.0</ele><time>2026-04-18T12:11:47.998Z</time></trkpt><trkpt lat="43.319467276931505" lon="10.750877028135225"><ele>65.0</ele><time>2026-04-18T12:11:48.998Z</time></trkpt><trkpt lat="43.319345556661155" lon="10.751007715231514"><ele>64.25</ele><time>2026-04-18T12:11:49.998Z</time></trkpt><trkpt lat="43.319232555187796" lon="10.751136631098799"><ele>63.5</ele><time>2026-04-18T12:11:50.998Z</time></trkpt><trkpt lat="43.319125817091106" lon="10.751271452582383"><ele>62.75</ele><time>2026-04-18T12:11:51.998Z</time></trkpt><trkpt lat="43.31903420537546" lon="10.751408887577572"><ele>62.0</ele><time>2026-04-18T12:11:52.998Z</time></trkpt><trkpt lat="43.318954529105284" lon="10.751568378899076"><ele>64.25</ele><time>2026-04-18T12:11:53.998Z</time></trkpt><trkpt lat="43.318887065627095" lon="10.751738135118499"><ele>66.5</ele><time>2026-04-18T12:11:54.998Z</time></trkpt><trkpt lat="43.318821036986876" lon="10.75191642949433"><ele>68.75</ele><time>2026-04-18T12:11:55.998Z</time></trkpt><trkpt lat="43.31875582668243" lon="10.752097233541152"><ele>71.0</ele><time>2026-04-18T12:11:56.998Z</time></trkpt><trkpt lat="43.31868639687887" lon="10.752283503264389"><ele>71.0</ele><time>2026-04-18T12:11:57.998Z</time></trkpt><trkpt lat="43.318618068368636" lon="10.752469861438716"><ele>71.0</ele><time>2026-04-18T12:11:58.998Z</time></trkpt><trkpt lat="43.31854710789772" lon="10.752662321607966"><ele>71.0</ele><time>2026-04-18T12:11:59.998Z</time></trkpt><trkpt lat="43.31847589051811" lon="10.752858998668472"><ele>70.66666666666667</ele><time>2026-04-18T12:12:00.998Z</time></trkpt><trkpt lat="43.31840351728906" lon="10.75305672042696"><ele>70.33333333333333</ele><time>2026-04-18T12:12:01.998Z</time></trkpt><trkpt lat="43.31833208562701" lon="10.753258441883164"><ele>70.0</ele><time>2026-04-18T12:12:02.998Z</time></trkpt><trkpt lat="43.31825954473369" lon="10.753458176943015"><ele>68.0</ele><time>2026-04-18T12:12:03.999Z</time></trkpt><trkpt lat="43.31818800590569" lon="10.753669348656949"><ele>66.0</ele><time>2026-04-18T12:12:04.999Z</time></trkpt><trkpt lat="43.31811357602529" lon="10.753867933819928"><ele>64.0</ele><time>2026-04-18T12:12:05.999Z</time></trkpt><trkpt lat="43.31803697790938" lon="10.754071818693683"><ele>65.0</ele><time>2026-04-18T12:12:06.999Z</time></trkpt><trkpt lat="43.3179617453497" lon="10.754272540107246"><ele>66.0</ele><time>2026-04-18T12:12:07.999Z</time></trkpt><trkpt lat="43.31788671339218" lon="10.754472893569304"><ele>67.0</ele><time>2026-04-18T12:12:08.999Z</time></trkpt><trkpt lat="43.31781499847909" lon="10.754672909384052"><ele>67.0</ele><time>2026-04-18T12:12:09.999Z</time></trkpt><trkpt lat="43.317748872299866" lon="10.754873698849483"><ele>67.0</ele><time>2026-04-18T12:12:10.999Z</time></trkpt><trkpt lat="43.31768839303189" lon="10.755077897568802"><ele>67.0</ele><time>2026-04-18T12:12:11.999Z</time></trkpt><trkpt lat="43.31762760179777" lon="10.755274395495661"><ele>66.66666666666666</ele><time>2026-04-18T12:12:12.999Z</time></trkpt><trkpt lat="43.31756841105404" lon="10.755471824070684"><ele>66.33333333333333</ele><time>2026-04-18T12:12:13.999Z</time></trkpt><trkpt lat="43.317509283922526" lon="10.755672692090004"><ele>66.0</ele><time>2026-04-18T12:12:14.999Z</time></trkpt><trkpt lat="43.317449801046166" lon="10.755874626114299"><ele>65.66666666666667</ele><time>2026-04-18T12:12:15.999Z</time></trkpt><trkpt lat="43.3173872746366" lon="10.756078365296615"><ele>65.33333333333334</ele><time>2026-04-18T12:12:16.999Z</time></trkpt><trkpt lat="43.317321538062416" lon="10.756287152157018"><ele>65.0</ele><time>2026-04-18T12:12:17.999Z</time></trkpt><trkpt lat="43.317251455579864" lon="10.756489322772998"><ele>69.66666666666667</ele><time>2026-04-18T12:12:18.999Z</time></trkpt><trkpt lat="43.317178099298125" lon="10.75669421862212"><ele>74.33333333333333</ele><time>2026-04-18T12:12:19.999Z</time></trkpt><trkpt lat="43.31710850882075" lon="10.756895078980799"><ele>79.0</ele><time>2026-04-18T12:12:20.999Z</time></trkpt><trkpt lat="43.31704604181906" lon="10.757108754904872"><ele>80.0</ele><time>2026-04-18T12:12:21.999Z</time></trkpt><trkpt lat="43.31698855887294" lon="10.757320815312493"><ele>81.0</ele><time>2026-04-18T12:12:22.999Z</time></trkpt><trkpt lat="43.31693917376834" lon="10.757535808825287"><ele>82.0</ele><time>2026-04-18T12:12:23.999Z</time></trkpt><trkpt lat="43.316897177618095" lon="10.757743802739784"><ele>79.33333333333333</ele><time>2026-04-18T12:12:24.999Z</time></trkpt><trkpt lat="43.31685515970573" lon="10.75795401811644"><ele>76.66666666666667</ele><time>2026-04-18T12:12:25.999Z</time></trkpt><trkpt lat="43.31681241197276" lon="10.758158865324173"><ele>74.0</ele><time>2026-04-18T12:12:27Z</time></trkpt><trkpt lat="43.31676989821027" lon="10.758367359179577"><ele>72.0</ele><time>2026-04-18T12:12:28Z</time></trkpt><trkpt lat="43.3167277660344" lon="10.758574788008039"><ele>70.0</ele><time>2026-04-18T12:12:29Z</time></trkpt><trkpt lat="43.316686233233455" lon="10.758783061577482"><ele>68.0</ele><time>2026-04-18T12:12:30Z</time></trkpt><trkpt lat="43.31664062010693" lon="10.758993377962625"><ele>68.0</ele><time>2026-04-18T12:12:31Z</time></trkpt><trkpt lat="43.316598237374784" lon="10.759204556294199"><ele>68.0</ele><time>2026-04-18T12:12:32Z</time></trkpt><trkpt lat="43.31655583913017" lon="10.759409492843687"><ele>68.0</ele><time>2026-04-18T12:12:33Z</time></trkpt><trkpt lat="43.316513368442244" lon="10.759617155861877"><ele>67.33333333333334</ele><time>2026-04-18T12:12:34Z</time></trkpt><trkpt lat="43.31646956186092" lon="10.759820329893266"><ele>66.66666666666667</ele><time>2026-04-18T12:12:35Z</time></trkpt><trkpt lat="43.316427602336894" lon="10.76002301587114"><ele>66.0</ele><time>2026-04-18T12:12:36Z</time></trkpt><trkpt lat="43.316391657674146" lon="10.760219472544318"><ele>67.75</ele><time>2026-04-18T12:12:37Z</time></trkpt><trkpt lat="43.316353802351216" lon="10.760395415852543"><ele>69.5</ele><time>2026-04-18T12:12:38Z</time></trkpt><trkpt lat="43.31632130878355" lon="10.760557582005037"><ele>71.25</ele><time>2026-04-18T12:12:39Z</time></trkpt><trkpt lat="43.316293975779175" lon="10.760701462433111"><ele>73.0</ele><time>2026-04-18T12:12:40Z</time></trkpt><trkpt lat="43.316270595903575" lon="10.7608176220953"><ele>73.0</ele><time>2026-04-18T12:12:41Z</time></trkpt><trkpt lat="43.31623075054753" lon="10.76090760362258"><ele>73.0</ele><time>2026-04-18T12:12:42Z</time></trkpt><trkpt lat="43.31617091022909" lon="10.760965054416008"><ele>73.0</ele><time>2026-04-18T12:12:43Z</time></trkpt><trkpt lat="43.3160933596689" lon="10.760994839936995"><ele>73.0</ele><time>2026-04-18T12:12:44Z</time></trkpt><trkpt lat="43.316005628429004" lon="10.761025971412796"><ele>73.0</ele><time>2026-04-18T12:12:45Z</time></trkpt><trkpt lat="43.3159031832449" lon="10.761065345417116"><ele>73.0</ele><time>2026-04-18T12:12:46Z</time></trkpt><trkpt lat="43.31579118013779" lon="10.761109226196453"><ele>71.75</ele><time>2026-04-18T12:12:47Z</time></trkpt><trkpt lat="43.315673948603724" lon="10.76115366693908"><ele>70.5</ele><time>2026-04-18T12:12:48Z</time></trkpt><trkpt lat="43.31555991638192" lon="10.761202619146838"><ele>69.25</ele><time>2026-04-18T12:12:49Z</time></trkpt><trkpt lat="43.31544468502678" lon="10.761269574312127"><ele>68.0</ele><time>2026-04-18T12:12:50Z</time></trkpt><trkpt lat="43.31533217914825" lon="10.761365900038223"><ele>67.75</ele><time>2026-04-18T12:12:51Z</time></trkpt><trkpt lat="43.31522745150073" lon="10.761480370865913"><ele>67.5</ele><time>2026-04-18T12:12:52Z</time></trkpt><trkpt lat="43.31513286867388" lon="10.761601636829766"><ele>67.25</ele><time>2026-04-18T12:12:53Z</time></trkpt><trkpt lat="43.31504072634292" lon="10.761730223393327"><ele>67.0</ele><time>2026-04-18T12:12:54Z</time></trkpt><trkpt lat="43.314951995861804" lon="10.7618558403631"><ele>66.75</ele><time>2026-04-18T12:12:55Z</time></trkpt><trkpt lat="43.31486546801963" lon="10.7619770758226"><ele>66.5</ele><time>2026-04-18T12:12:56Z</time></trkpt><trkpt lat="43.31477531365778" lon="10.762082559461938"><ele>66.25</ele><time>2026-04-18T12:12:57Z</time></trkpt><trkpt lat="43.31467597486094" lon="10.762178039503269"><ele>66.0</ele><time>2026-04-18T12:12:58Z</time></trkpt><trkpt lat="43.31456767788731" lon="10.762271258582297"><ele>67.0</ele><time>2026-04-18T12:12:59Z</time></trkpt><trkpt lat="43.314454519795376" lon="10.762352587377116"><ele>68.0</ele><time>2026-04-18T12:13:00Z</time></trkpt><trkpt lat="43.31434823633897" lon="10.7624413274183"><ele>69.0</ele><time>2026-04-18T12:13:01Z</time></trkpt><trkpt lat="43.314243283114656" lon="10.762549319861838"><ele>70.0</ele><time>2026-04-18T12:13:02Z</time></trkpt><trkpt lat="43.31414376949384" lon="10.762681710972617"><ele>69.75</ele><time>2026-04-18T12:13:03Z</time></trkpt><trkpt lat="43.31405287154009" lon="10.762830826952355"><ele>69.5</ele><time>2026-04-18T12:13:04Z</time></trkpt><trkpt lat="43.31396133465644" lon="10.762977614849136"><ele>69.25</ele><time>2026-04-18T12:13:05Z</time></trkpt><trkpt lat="43.31386711419371" lon="10.763133817274172"><ele>69.0</ele><time>2026-04-18T12:13:06Z</time></trkpt><trkpt lat="43.31377325642287" lon="10.76328765318109"><ele>70.5</ele><time>2026-04-18T12:13:07Z</time></trkpt><trkpt lat="43.31368026332467" lon="10.763437969487958"><ele>72.0</ele><time>2026-04-18T12:13:08Z</time></trkpt><trkpt lat="43.313596563971984" lon="10.763580475056473"><ele>73.5</ele><time>2026-04-18T12:13:09Z</time></trkpt><trkpt lat="43.31351002350771" lon="10.763718355150454"><ele>75.0</ele><time>2026-04-18T12:13:10Z</time></trkpt><trkpt lat="43.31342006360342" lon="10.763839339723628"><ele>75.0</ele><time>2026-04-18T12:13:11Z</time></trkpt><trkpt lat="43.31331882780998" lon="10.763945233933253"><ele>75.0</ele><time>2026-04-18T12:13:12Z</time></trkpt><trkpt lat="43.31321059901524" lon="10.764034073534283"><ele>75.0</ele><time>2026-04-18T12:13:13.001Z</time></trkpt><trkpt lat="43.313101552504584" lon="10.764101477586022"><ele>75.0</ele><time>2026-04-18T12:13:14.001Z</time></trkpt><trkpt lat="43.312983174966945" lon="10.764167641857243"><ele>78.0</ele><time>2026-04-18T12:13:15.001Z</time></trkpt><trkpt lat="43.31286938107018" lon="10.764238291144244"><ele>81.0</ele><time>2026-04-18T12:13:16.001Z</time></trkpt><trkpt lat="43.312758668692396" lon="10.764320272304259"><ele>84.0</ele><time>2026-04-18T12:13:17.001Z</time></trkpt><trkpt lat="43.312647772010465" lon="10.764415069555861"><ele>87.0</ele><time>2026-04-18T12:13:18.001Z</time></trkpt><trkpt lat="43.31252888426872" lon="10.764495641948347"><ele>87.0</ele><time>2026-04-18T12:13:19.001Z</time></trkpt><trkpt lat="43.31242608180708" lon="10.764596426593123"><ele>87.0</ele><time>2026-04-18T12:13:20.001Z</time></trkpt><trkpt lat="43.31232626675156" lon="10.764693100950382"><ele>87.0</ele><time>2026-04-18T12:13:21.001Z</time></trkpt><trkpt lat="43.31222891206502" lon="10.764786406527405"><ele>87.0</ele><time>2026-04-18T12:13:22.001Z</time></trkpt><trkpt lat="43.312135472176244" lon="10.764876389701854"><ele>89.8</ele><time>2026-04-18T12:13:23.001Z</time></trkpt><trkpt lat="43.31204874162907" lon="10.76496883343297"><ele>92.6</ele><time>2026-04-18T12:13:24.001Z</time></trkpt><trkpt lat="43.31197198455367" lon="10.765066220673264"><ele>95.39999999999999</ele><time>2026-04-18T12:13:25.001Z</time></trkpt><trkpt lat="43.31190757649737" lon="10.765175749713526"><ele>98.19999999999999</ele><time>2026-04-18T12:13:26.001Z</time></trkpt><trkpt lat="43.311844544898264" lon="10.765299755179665"><ele>101.0</ele><time>2026-04-18T12:13:27.001Z</time></trkpt><trkpt lat="43.31178773900562" lon="10.765429186535103"><ele>101.6</ele><time>2026-04-18T12:13:28.001Z</time></trkpt><trkpt lat="43.31173457257961" lon="10.765557181892115"><ele>102.19999999999999</ele><time>2026-04-18T12:13:29.001Z</time></trkpt><trkpt lat="43.311681510540716" lon="10.765686891536175"><ele>102.80000000000001</ele><time>2026-04-18T12:13:30.001Z</time></trkpt><trkpt lat="43.31162701578986" lon="10.765810033440648"><ele>103.4</ele><time>2026-04-18T12:13:31.001Z</time></trkpt><trkpt lat="43.3115645024418" lon="10.765931094015732"><ele>104.0</ele><time>2026-04-18T12:13:32.001Z</time></trkpt><trkpt lat="43.31149359618088" lon="10.766031639807023"><ele>104.66666666666666</ele><time>2026-04-18T12:13:33.001Z</time></trkpt><trkpt lat="43.311417539518665" lon="10.766096291325864"><ele>105.33333333333333</ele><time>2026-04-18T12:13:34.001Z</time></trkpt><trkpt lat="43.3113381915376" lon="10.766105579856669"><ele>106.0</ele><time>2026-04-18T12:13:35.001Z</time></trkpt><trkpt lat="43.31125558753774" lon="10.766093211340493"><ele>106.66666666666666</ele><time>2026-04-18T12:13:36.001Z</time></trkpt><trkpt lat="43.311169534509986" lon="10.76607713206092"><ele>107.33333333333333</ele><time>2026-04-18T12:13:37.001Z</time></trkpt><trkpt lat="43.3110922860661" lon="10.76605944481226"><ele>108.0</ele><time>2026-04-18T12:13:38.001Z</time></trkpt><trkpt lat="43.311010757454525" lon="10.766053600863957"><ele>109.0</ele><time>2026-04-18T12:13:39.001Z</time></trkpt><trkpt lat="43.31092777391617" lon="10.766027552046056"><ele>110.00000000000001</ele><time>2026-04-18T12:13:40.001Z</time></trkpt><trkpt lat="43.31084649453821" lon="10.766001394607901"><ele>111.00000000000001</ele><time>2026-04-18T12:13:41.001Z</time></trkpt><trkpt lat="43.310759086494286" lon="10.765972545851303"><ele>112.0</ele><time>2026-04-18T12:13:42.001Z</time></trkpt><trkpt lat="43.31066686232434" lon="10.765944973588015"><ele>113.0</ele><time>2026-04-18T12:13:43.001Z</time></trkpt><trkpt lat="43.31057661377454" lon="10.765887060544005"><ele>115.60000000000001</ele><time>2026-04-18T12:13:44.001Z</time></trkpt><trkpt lat="43.310483342965604" lon="10.765833803752633"><ele>118.20000000000002</ele><time>2026-04-18T12:13:45.001Z</time></trkpt><trkpt lat="43.3103820545054" lon="10.765784621813074"><ele>120.8</ele><time>2026-04-18T12:13:46.001Z</time></trkpt><trkpt lat="43.310295835696266" lon="10.76568423423206"><ele>123.4</ele><time>2026-04-18T12:13:47.001Z</time></trkpt><trkpt lat="43.31020653609013" lon="10.765585581633228"><ele>126.0</ele><time>2026-04-18T12:13:48.001Z</time></trkpt><trkpt lat="43.31011735469233" lon="10.765472279547161"><ele>126.0</ele><time>2026-04-18T12:13:49.001Z</time></trkpt><trkpt lat="43.31004221476237" lon="10.765345225152805"><ele>126.0</ele><time>2026-04-18T12:13:49.999Z</time></trkpt><trkpt lat="43.30997772374299" lon="10.765202939444134"><ele>126.0</ele><time>2026-04-18T12:13:50.999Z</time></trkpt><trkpt lat="43.30992174391644" lon="10.765046558273346"><ele>126.0</ele><time>2026-04-18T12:13:51.999Z</time></trkpt><trkpt lat="43.30987248403731" lon="10.764887934343339"><ele>126.25</ele><time>2026-04-18T12:13:52.999Z</time></trkpt><trkpt lat="43.30982920108082" lon="10.764729684371773"><ele>126.5</ele><time>2026-04-18T12:13:53.999Z</time></trkpt><trkpt lat="43.30978968577737" lon="10.76457373722186"><ele>126.75</ele><time>2026-04-18T12:13:54.999Z</time></trkpt><trkpt lat="43.309731751418006" lon="10.764437122923995"><ele>127.0</ele><time>2026-04-18T12:13:55.999Z</time></trkpt><trkpt lat="43.30968991430474" lon="10.764298894644574"><ele>128.33333333333334</ele><time>2026-04-18T12:13:56.999Z</time></trkpt><trkpt lat="43.30963634369887" lon="10.764188480178118"><ele>129.66666666666669</ele><time>2026-04-18T12:13:57.999Z</time></trkpt><trkpt lat="43.309585283284214" lon="10.764099487468552"><ele>131.0</ele><time>2026-04-18T12:13:58.999Z</time></trkpt><trkpt lat="43.309525225218465" lon="10.764038823055522"><ele>132.33333333333334</ele><time>2026-04-18T12:13:59.999Z</time></trkpt><trkpt lat="43.30944690920824" lon="10.7640337318512"><ele>133.66666666666666</ele><time>2026-04-18T12:14:00.999Z</time></trkpt><trkpt lat="43.30938158116923" lon="10.76410273823467"><ele>135.0</ele><time>2026-04-18T12:14:01.999Z</time></trkpt><trkpt lat="43.30932972365534" lon="10.764178998567004"><ele>135.0</ele><time>2026-04-18T12:14:02.999Z</time></trkpt><trkpt lat="43.30928037587592" lon="10.764270519464954"><ele>135.0</ele><time>2026-04-18T12:14:03.999Z</time></trkpt><trkpt lat="43.3092235281823" lon="10.764366433696628"><ele>135.0</ele><time>2026-04-18T12:14:04.999Z</time></trkpt><trkpt lat="43.3091561078094" lon="10.764457256226933"><ele>135.0</ele><time>2026-04-18T12:14:05.999Z</time></trkpt><trkpt lat="43.30907936003514" lon="10.764546474888444"><ele>135.0</ele><time>2026-04-18T12:14:06.999Z</time></trkpt><trkpt lat="43.308994468638225" lon="10.764626995503049"><ele>136.75</ele><time>2026-04-18T12:14:07.999Z</time></trkpt><trkpt lat="43.30890098954611" lon="10.76469822049543"><ele>138.5</ele><time>2026-04-18T12:14:08.999Z</time></trkpt><trkpt lat="43.30879761063495" lon="10.764765452431016"><ele>140.25</ele><time>2026-04-18T12:14:09.999Z</time></trkpt><trkpt lat="43.30869127968144" lon="10.764841150056562"><ele>142.0</ele><time>2026-04-18T12:14:10.999Z</time></trkpt><trkpt lat="43.30858742109604" lon="10.764925008325534"><ele>142.0</ele><time>2026-04-18T12:14:11.999Z</time></trkpt><trkpt lat="43.30848918341688" lon="10.765010534381856"><ele>142.0</ele><time>2026-04-18T12:14:12.999Z</time></trkpt><trkpt lat="43.30839286752973" lon="10.765093023640533"><ele>142.0</ele><time>2026-04-18T12:14:13.999Z</time></trkpt><trkpt lat="43.308290567322054" lon="10.765168845331434"><ele>142.0</ele><time>2026-04-18T12:14:15Z</time></trkpt><trkpt lat="43.3081838636245" lon="10.765242874494243"><ele>142.75</ele><time>2026-04-18T12:14:16Z</time></trkpt><trkpt lat="43.308074985696734" lon="10.765320986017807"><ele>143.5</ele><time>2026-04-18T12:14:17Z</time></trkpt><trkpt lat="43.307966074274546" lon="10.765401166441759"><ele>144.25</ele><time>2026-04-18T12:14:18Z</time></trkpt><trkpt lat="43.307858873175526" lon="10.765481131496342"><ele>145.0</ele><time>2026-04-18T12:14:19Z</time></trkpt><trkpt lat="43.307754885530414" lon="10.76556129938739"><ele>145.0</ele><time>2026-04-18T12:14:20Z</time></trkpt><trkpt lat="43.307663940093065" lon="10.765636979113003"><ele>145.0</ele><time>2026-04-18T12:14:21Z</time></trkpt><trkpt lat="43.30758255682803" lon="10.76572376698858"><ele>145.0</ele><time>2026-04-18T12:14:22Z</time></trkpt><trkpt lat="43.30750016627687" lon="10.765824862857588"><ele>145.0</ele><time>2026-04-18T12:14:23Z</time></trkpt><trkpt lat="43.30741881304391" lon="10.765930995770232"><ele>145.0</ele><time>2026-04-18T12:14:24Z</time></trkpt><trkpt lat="43.30733781354463" lon="10.766039160946056"><ele>144.0</ele><time>2026-04-18T12:14:25Z</time></trkpt><trkpt lat="43.307260114955135" lon="10.766159135670593"><ele>143.0</ele><time>2026-04-18T12:14:26Z</time></trkpt><trkpt lat="43.307193579362384" lon="10.766287740016608"><ele>142.0</ele><time>2026-04-18T12:14:27Z</time></trkpt><trkpt lat="43.3071328338349" lon="10.76642091723134"><ele>141.0</ele><time>2026-04-18T12:14:28Z</time></trkpt><trkpt lat="43.30707151720821" lon="10.766549614421942"><ele>141.0</ele><time>2026-04-18T12:14:29Z</time></trkpt><trkpt lat="43.30701240281728" lon="10.76666253334192"><ele>141.0</ele><time>2026-04-18T12:14:30Z</time></trkpt><trkpt lat="43.30694641416919" lon="10.76676001418757"><ele>141.0</ele><time>2026-04-18T12:14:31Z</time></trkpt><trkpt lat="43.30687227567047" lon="10.76683679969576"><ele>141.0</ele><time>2026-04-18T12:14:32Z</time></trkpt><trkpt lat="43.30678346235834" lon="10.766891634156408"><ele>141.0</ele><time>2026-04-18T12:14:33Z</time></trkpt><trkpt lat="43.306685116958974" lon="10.766930614415667"><ele>140.8</ele><time>2026-04-18T12:14:34Z</time></trkpt><trkpt lat="43.30658099695735" lon="10.766963016526619"><ele>140.6</ele><time>2026-04-18T12:14:35Z</time></trkpt><trkpt lat="43.30647467406292" lon="10.767002011597253"><ele>140.4</ele><time>2026-04-18T12:14:36Z</time></trkpt><trkpt lat="43.30637153297824" lon="10.767056412009314"><ele>140.2</ele><time>2026-04-18T12:14:37Z</time></trkpt><trkpt lat="43.30627265959335" lon="10.767122047115354"><ele>140.0</ele><time>2026-04-18T12:14:38Z</time></trkpt><trkpt lat="43.30617843245056" lon="10.767195146277546"><ele>140.8</ele><time>2026-04-18T12:14:39Z</time></trkpt><trkpt lat="43.30608953549656" lon="10.767260451903848"><ele>141.6</ele><time>2026-04-18T12:14:40Z</time></trkpt><trkpt lat="43.306004045395454" lon="10.767316783093035"><ele>142.4</ele><time>2026-04-18T12:14:41Z</time></trkpt><trkpt lat="43.30591770806437" lon="10.767357046538436"><ele>143.2</ele><time>2026-04-18T12:14:42Z</time></trkpt><trkpt lat="43.30582740810321" lon="10.767382316843362"><ele>144.0</ele><time>2026-04-18T12:14:43Z</time></trkpt><trkpt lat="43.305735892288865" lon="10.767390267274914"><ele>144.0</ele><time>2026-04-18T12:14:44Z</time></trkpt><trkpt lat="43.305637689485565" lon="10.76739105682165"><ele>144.0</ele><time>2026-04-18T12:14:45Z</time></trkpt><trkpt lat="43.30554411260152" lon="10.767385755859985"><ele>144.0</ele><time>2026-04-18T12:14:46Z</time></trkpt><trkpt lat="43.30546008737303" lon="10.767373520877427"><ele>144.0</ele><time>2026-04-18T12:14:47Z</time></trkpt><trkpt lat="43.30538120160841" lon="10.767364506303956"><ele>144.0</ele><time>2026-04-18T12:14:48Z</time></trkpt><trkpt lat="43.305309476060394" lon="10.767364159950349"><ele>144.0</ele><time>2026-04-18T12:14:49Z</time></trkpt><trkpt lat="43.305200622501914" lon="10.767387070937604"><ele>144.0</ele><time>2026-04-18T12:14:51.001Z</time></trkpt><trkpt lat="43.305173748539914" lon="10.767527252936496"><ele>144.0</ele><time>2026-04-18T12:14:55.001Z</time></trkpt><trkpt lat="43.3051582057962" lon="10.767655970812632"><ele>144.0</ele><time>2026-04-18T12:14:57.001Z</time></trkpt><trkpt lat="43.3051612590088" lon="10.767814118443152"><ele>144.0</ele><time>2026-04-18T12:14:59.001Z</time></trkpt><trkpt lat="43.305163520370016" lon="10.767904749242193"><ele>144.0</ele><time>2026-04-18T12:15:00.001Z</time></trkpt><trkpt lat="43.30516415789108" lon="10.767998969669277"><ele>144.00000000000003</ele><time>2026-04-18T12:15:01.001Z</time></trkpt><trkpt lat="43.30518999625907" lon="10.768093673694564"><ele>144.0</ele><time>2026-04-18T12:15:02.001Z</time></trkpt><trkpt lat="43.30519427291778" lon="10.768190189188903"><ele>144.0</ele><time>2026-04-18T12:15:03.001Z</time></trkpt><trkpt lat="43.3051997344212" lon="10.768286051256325"><ele>144.0</ele><time>2026-04-18T12:15:04.001Z</time></trkpt><trkpt lat="43.30520389424214" lon="10.76838467577698"><ele>144.0</ele><time>2026-04-18T12:15:05.001Z</time></trkpt><trkpt lat="43.305212318195615" lon="10.76848140571721"><ele>144.00000000000003</ele><time>2026-04-18T12:15:06.001Z</time></trkpt><trkpt lat="43.305238534670885" lon="10.768572310665599"><ele>144.0</ele><time>2026-04-18T12:15:07.001Z</time></trkpt><trkpt lat="43.30527578049584" lon="10.768662788448626"><ele>143.33333333333334</ele><time>2026-04-18T12:15:08.001Z</time></trkpt><trkpt lat="43.30531889359322" lon="10.768747798798278"><ele>142.66666666666666</ele><time>2026-04-18T12:15:09.001Z</time></trkpt><trkpt lat="43.30537107022837" lon="10.768829465203327"><ele>142.0</ele><time>2026-04-18T12:15:10.001Z</time></trkpt><trkpt lat="43.305423736811605" lon="10.768914512311852"><ele>141.33333333333331</ele><time>2026-04-18T12:15:11.001Z</time></trkpt><trkpt lat="43.305479031421754" lon="10.769001015113924"><ele>140.66666666666666</ele><time>2026-04-18T12:15:12.001Z</time></trkpt><trkpt lat="43.30553110177081" lon="10.769079887365782"><ele>140.0</ele><time>2026-04-18T12:15:13.001Z</time></trkpt><trkpt lat="43.30558094333872" lon="10.769158895765138"><ele>139.85714285714286</ele><time>2026-04-18T12:15:14.001Z</time></trkpt><trkpt lat="43.305630521867215" lon="10.769232608495859"><ele>139.71428571428572</ele><time>2026-04-18T12:15:15.001Z</time></trkpt><trkpt lat="43.30567840882587" lon="10.769307905431456"><ele>139.57142857142856</ele><time>2026-04-18T12:15:16.001Z</time></trkpt><trkpt lat="43.30570834911829" lon="10.769399171353403"><ele>139.42857142857144</ele><time>2026-04-18T12:15:17.001Z</time></trkpt><trkpt lat="43.30575019565988" lon="10.769481837522621"><ele>139.28571428571428</ele><time>2026-04-18T12:15:18.001Z</time></trkpt><trkpt lat="43.30576982640861" lon="10.769582810153539"><ele>139.14285714285714</ele><time>2026-04-18T12:15:19.001Z</time></trkpt><trkpt lat="43.305787440029526" lon="10.769682615484623"><ele>139.0</ele><time>2026-04-18T12:15:20.001Z</time></trkpt><trkpt lat="43.305809083604196" lon="10.769782912870841"><ele>138.57142857142856</ele><time>2026-04-18T12:15:21.001Z</time></trkpt><trkpt lat="43.30583883390965" lon="10.769876821827907"><ele>138.14285714285714</ele><time>2026-04-18T12:15:22.001Z</time></trkpt><trkpt lat="43.30586343399996" lon="10.7699695801665"><ele>137.71428571428572</ele><time>2026-04-18T12:15:23.001Z</time></trkpt><trkpt lat="43.30591546348275" lon="10.77004873740996"><ele>137.28571428571428</ele><time>2026-04-18T12:15:24.001Z</time></trkpt><trkpt lat="43.30595506810842" lon="10.770136954500547"><ele>136.85714285714286</ele><time>2026-04-18T12:15:25.001Z</time></trkpt><trkpt lat="43.30599246767769" lon="10.770224129709439"><ele>136.42857142857142</ele><time>2026-04-18T12:15:26.001Z</time></trkpt><trkpt lat="43.30602589024491" lon="10.770315893681902"><ele>136.0</ele><time>2026-04-18T12:15:27.001Z</time></trkpt><trkpt lat="43.306056929554565" lon="10.770410805190004"><ele>135.28571428571428</ele><time>2026-04-18T12:15:28.001Z</time></trkpt><trkpt lat="43.306083340445944" lon="10.770509764153127"><ele>134.57142857142856</ele><time>2026-04-18T12:15:29.001Z</time></trkpt><trkpt lat="43.30610195886576" lon="10.770608568271191"><ele>133.85714285714286</ele><time>2026-04-18T12:15:30.001Z</time></trkpt><trkpt lat="43.30610820957928" lon="10.77071005002556"><ele>133.14285714285714</ele><time>2026-04-18T12:15:31.001Z</time></trkpt><trkpt lat="43.30611128836243" lon="10.770809267083724"><ele>132.42857142857144</ele><time>2026-04-18T12:15:32.001Z</time></trkpt><trkpt lat="43.30612650960272" lon="10.77090981525846"><ele>131.71428571428572</ele><time>2026-04-18T12:15:33.001Z</time></trkpt><trkpt lat="43.306132850771284" lon="10.771008918327052"><ele>131.0</ele><time>2026-04-18T12:15:34.002Z</time></trkpt><trkpt lat="43.306137050741825" lon="10.771113834304385"><ele>129.83333333333331</ele><time>2026-04-18T12:15:35.002Z</time></trkpt><trkpt lat="43.30614179032214" lon="10.771220477372442"><ele>128.66666666666666</ele><time>2026-04-18T12:15:36.002Z</time></trkpt><trkpt lat="43.30614739485473" lon="10.771328507026288"><ele>127.5</ele><time>2026-04-18T12:15:37.002Z</time></trkpt><trkpt lat="43.30614597428803" lon="10.771439410844884"><ele>126.33333333333334</ele><time>2026-04-18T12:15:38.002Z</time></trkpt><trkpt lat="43.30616396307054" lon="10.771548638544129"><ele>125.16666666666667</ele><time>2026-04-18T12:15:39.002Z</time></trkpt><trkpt lat="43.306175098031154" lon="10.771657322333851"><ele>124.0</ele><time>2026-04-18T12:15:40.002Z</time></trkpt><trkpt lat="43.30617576017612" lon="10.771769741148898"><ele>122.83333333333334</ele><time>2026-04-18T12:15:41.002Z</time></trkpt><trkpt lat="43.30618758299917" lon="10.771877696069565"><ele>121.66666666666667</ele><time>2026-04-18T12:15:42.002Z</time></trkpt><trkpt lat="43.306216602840216" lon="10.771982866847882"><ele>120.5</ele><time>2026-04-18T12:15:43.002Z</time></trkpt><trkpt lat="43.30621379904149" lon="10.772091933185745"><ele>119.33333333333334</ele><time>2026-04-18T12:15:44.002Z</time></trkpt><trkpt lat="43.30624019125648" lon="10.772191442881963"><ele>118.16666666666667</ele><time>2026-04-18T12:15:45.002Z</time></trkpt><trkpt lat="43.30624694524684" lon="10.772292961621407"><ele>117.0</ele><time>2026-04-18T12:15:46.002Z</time></trkpt><trkpt lat="43.30625276423693" lon="10.772379308584828"><ele>117.0</ele><time>2026-04-18T12:15:47.002Z</time></trkpt><trkpt lat="43.30630331669092" lon="10.772520088919313"><ele>116.99999999999999</ele><time>2026-04-18T12:15:49.002Z</time></trkpt><trkpt lat="43.30640533805343" lon="10.77263351431484"><ele>116.99999999999999</ele><time>2026-04-18T12:15:51.002Z</time></trkpt><trkpt lat="43.30646079067654" lon="10.772676990646612"><ele>117.0</ele><time>2026-04-18T12:15:52.002Z</time></trkpt><trkpt lat="43.30653088505461" lon="10.772702828253523"><ele>117.0</ele><time>2026-04-18T12:15:53.002Z</time></trkpt><trkpt lat="43.30659910885924" lon="10.772709351716575"><ele>117.0</ele><time>2026-04-18T12:15:54.002Z</time></trkpt><trkpt lat="43.306676563125905" lon="10.7727063339244"><ele>117.00000000000001</ele><time>2026-04-18T12:15:55.002Z</time></trkpt><trkpt lat="43.30674806917486" lon="10.772727795472106"><ele>117.0</ele><time>2026-04-18T12:15:55.999Z</time></trkpt><trkpt lat="43.306822429249884" lon="10.772711003838904"><ele>117.0</ele><time>2026-04-18T12:15:56.999Z</time></trkpt><trkpt lat="43.30689718252929" lon="10.77273076290092"><ele>117.00000000000001</ele><time>2026-04-18T12:15:57.999Z</time></trkpt><trkpt lat="43.306971506734726" lon="10.772729674970929"><ele>117.0</ele><time>2026-04-18T12:15:58.999Z</time></trkpt><trkpt lat="43.3070440729541" lon="10.772728612769422"><ele>117.0</ele><time>2026-04-18T12:15:59.999Z</time></trkpt><trkpt lat="43.307112425704275" lon="10.772704840498406"><ele>117.0</ele><time>2026-04-18T12:16:00.999Z</time></trkpt><trkpt lat="43.307176260421194" lon="10.77271193073443"><ele>116.99999999999999</ele><time>2026-04-18T12:16:01.999Z</time></trkpt><trkpt lat="43.30730379469978" lon="10.772719685891225"><ele>116.99999999999999</ele><time>2026-04-18T12:16:03.999Z</time></trkpt><trkpt lat="43.30742207605857" lon="10.772734865087166"><ele>117.0</ele><time>2026-04-18T12:16:05.999Z</time></trkpt><trkpt lat="43.30752243501066" lon="10.772747219406437"><ele>117.0</ele><time>2026-04-18T12:16:07.999Z</time></trkpt><trkpt lat="43.30762403516552" lon="10.772777135687292"><ele>116.6</ele><time>2026-04-18T12:16:10Z</time></trkpt><trkpt lat="43.30770985878592" lon="10.772770391952635"><ele>116.19999999999999</ele><time>2026-04-18T12:16:12Z</time></trkpt><trkpt lat="43.30780750014838" lon="10.772768276358903"><ele>115.8</ele><time>2026-04-18T12:16:14Z</time></trkpt><trkpt lat="43.307908793773215" lon="10.772784990380847"><ele>115.4</ele><time>2026-04-18T12:16:16Z</time></trkpt><trkpt lat="43.307994347700514" lon="10.772818045047433"><ele>115.0</ele><time>2026-04-18T12:16:18Z</time></trkpt><trkpt lat="43.3080682167945" lon="10.772842425999196"><ele>115.0</ele><time>2026-04-18T12:16:21Z</time></trkpt><trkpt lat="43.308078308247254" lon="10.772931163531535"><ele>115.0</ele><time>2026-04-18T12:16:23Z</time></trkpt><trkpt lat="43.30800296784342" lon="10.773016344529754"><ele>115.0</ele><time>2026-04-18T12:16:25Z</time></trkpt><trkpt lat="43.3079099168314" lon="10.7730845209472"><ele>115.0</ele><time>2026-04-18T12:16:27Z</time></trkpt><trkpt lat="43.307811385419804" lon="10.77315128469317"><ele>115.0</ele><time>2026-04-18T12:16:29Z</time></trkpt><trkpt lat="43.307696031131954" lon="10.773186795491066"><ele>115.00000000000001</ele><time>2026-04-18T12:16:31Z</time></trkpt><trkpt lat="43.30759240749461" lon="10.773246526836601"><ele>115.0</ele><time>2026-04-18T12:16:33Z</time></trkpt><trkpt lat="43.30752802218998" lon="10.773289230193791"><ele>115.0</ele><time>2026-04-18T12:16:34Z</time></trkpt><trkpt lat="43.30746118785608" lon="10.773335531084353"><ele>115.0</ele><time>2026-04-18T12:16:35Z</time></trkpt><trkpt lat="43.307400048201025" lon="10.773403999756207"><ele>115.00000000000001</ele><time>2026-04-18T12:16:36Z</time></trkpt><trkpt lat="43.307337924554304" lon="10.773441883606742"><ele>115.0</ele><time>2026-04-18T12:16:37Z</time></trkpt><trkpt lat="43.30727103902075" lon="10.773481496359803"><ele>112.50000000000001</ele><time>2026-04-18T12:16:38Z</time></trkpt><trkpt lat="43.30716563424517" lon="10.773585467939759"><ele>110.0</ele><time>2026-04-18T12:16:40.001Z</time></trkpt><trkpt lat="43.30710545746706" lon="10.773632726275071"><ele>107.5</ele><time>2026-04-18T12:16:41.001Z</time></trkpt><trkpt lat="43.307038779710275" lon="10.773672280677339"><ele>105.0</ele><time>2026-04-18T12:16:42.001Z</time></trkpt><trkpt lat="43.30696430842229" lon="10.77370649176109"><ele>102.50000000000001</ele><time>2026-04-18T12:16:43.001Z</time></trkpt><trkpt lat="43.306894724059326" lon="10.77372092526143"><ele>100.0</ele><time>2026-04-18T12:16:44.001Z</time></trkpt><trkpt lat="43.30682695570122" lon="10.773747190847777"><ele>100.00000000000001</ele><time>2026-04-18T12:16:45.001Z</time></trkpt><trkpt lat="43.3067670661977" lon="10.773778585552158"><ele>100.0</ele><time>2026-04-18T12:16:46.001Z</time></trkpt><trkpt lat="43.30667048108084" lon="10.77383230549554"><ele>100.0</ele><time>2026-04-18T12:16:48.001Z</time></trkpt><trkpt lat="43.30659321788917" lon="10.773965356179021"><ele>100.0</ele><time>2026-04-18T12:16:50.001Z</time></trkpt><trkpt lat="43.30655966380606" lon="10.774050234929073"><ele>100.00000000000001</ele><time>2026-04-18T12:16:51.001Z</time></trkpt><trkpt lat="43.30653632822218" lon="10.774136011731198"><ele>100.0</ele><time>2026-04-18T12:16:52.001Z</time></trkpt><trkpt lat="43.30653924838396" lon="10.77430197389864"><ele>99.16666666666667</ele><time>2026-04-18T12:16:54.001Z</time></trkpt><trkpt lat="43.3065756847547" lon="10.774459140493654"><ele>98.33333333333334</ele><time>2026-04-18T12:16:56.001Z</time></trkpt><trkpt lat="43.30663820208936" lon="10.77452669809957"><ele>97.5</ele><time>2026-04-18T12:16:57.001Z</time></trkpt><trkpt lat="43.306676968500724" lon="10.774619790536203"><ele>96.66666666666667</ele><time>2026-04-18T12:16:58.001Z</time></trkpt><trkpt lat="43.306682871751356" lon="10.774707771044538"><ele>95.83333333333334</ele><time>2026-04-18T12:16:59.001Z</time></trkpt><trkpt lat="43.30667921513366" lon="10.774853856692717"><ele>95.0</ele><time>2026-04-18T12:17:01.001Z</time></trkpt><trkpt lat="43.306608514321915" lon="10.774985156091182"><ele>95.0</ele><time>2026-04-18T12:17:03.001Z</time></trkpt><trkpt lat="43.3065392501305" lon="10.775126917011834"><ele>95.0</ele><time>2026-04-18T12:17:05.001Z</time></trkpt><trkpt lat="43.30650014470877" lon="10.775198647454134"><ele>95.0</ele><time>2026-04-18T12:17:06.001Z</time></trkpt><trkpt lat="43.306451539562545" lon="10.775272524771369"><ele>95.0</ele><time>2026-04-18T12:17:07.001Z</time></trkpt><trkpt lat="43.306409808158115" lon="10.775357873984614"><ele>95.0</ele><time>2026-04-18T12:17:08.001Z</time></trkpt><trkpt lat="43.30635240515979" lon="10.775430371762418"><ele>95.0</ele><time>2026-04-18T12:17:09.001Z</time></trkpt><trkpt lat="43.30629591952781" lon="10.775494673590805"><ele>95.14285714285714</ele><time>2026-04-18T12:17:10.001Z</time></trkpt><trkpt lat="43.306241891922156" lon="10.775569235934613"><ele>95.28571428571429</ele><time>2026-04-18T12:17:11.001Z</time></trkpt><trkpt lat="43.30618811311358" lon="10.775621451196768"><ele>95.42857142857142</ele><time>2026-04-18T12:17:12.001Z</time></trkpt><trkpt lat="43.306132794495554" lon="10.775688641386061"><ele>95.57142857142857</ele><time>2026-04-18T12:17:13.001Z</time></trkpt><trkpt lat="43.306083585471974" lon="10.775749564347539"><ele>95.71428571428571</ele><time>2026-04-18T12:17:14.001Z</time></trkpt><trkpt lat="43.30602893592202" lon="10.775816509457526"><ele>95.85714285714285</ele><time>2026-04-18T12:17:15.001Z</time></trkpt><trkpt lat="43.30596240852152" lon="10.775862371753897"><ele>96.0</ele><time>2026-04-18T12:17:16.001Z</time></trkpt><trkpt lat="43.30590604680542" lon="10.77592368399802"><ele>96.0</ele><time>2026-04-18T12:17:17.001Z</time></trkpt><trkpt lat="43.30585441116979" lon="10.7759754548675"><ele>96.0</ele><time>2026-04-18T12:17:18.001Z</time></trkpt><trkpt lat="43.30579606810717" lon="10.776043635025047"><ele>96.0</ele><time>2026-04-18T12:17:19.001Z</time></trkpt><trkpt lat="43.30573496844032" lon="10.776103687413197"><ele>96.0</ele><time>2026-04-18T12:17:20.002Z</time></trkpt><trkpt lat="43.30568238873419" lon="10.776151321469927"><ele>96.0</ele><time>2026-04-18T12:17:21.002Z</time></trkpt><trkpt lat="43.30556317732524" lon="10.77624355936699"><ele>96.0</ele><time>2026-04-18T12:17:23.002Z</time></trkpt><trkpt lat="43.30550801372765" lon="10.776303739254578"><ele>98.19999999999999</ele><time>2026-04-18T12:17:24.002Z</time></trkpt><trkpt lat="43.30541707118472" lon="10.776427360986961"><ele>100.39999999999999</ele><time>2026-04-18T12:17:26.002Z</time></trkpt><trkpt lat="43.305384909397425" lon="10.776544273619278"><ele>102.6</ele><time>2026-04-18T12:17:28.002Z</time></trkpt><trkpt lat="43.30537824929084" lon="10.776636133048486"><ele>104.8</ele><time>2026-04-18T12:17:29.002Z</time></trkpt><trkpt lat="43.30540964804827" lon="10.776800862180608"><ele>107.0</ele><time>2026-04-18T12:17:31.002Z</time></trkpt><trkpt lat="43.30546676737534" lon="10.776948674895454"><ele>107.5</ele><time>2026-04-18T12:17:33.002Z</time></trkpt><trkpt lat="43.305552304808906" lon="10.777071273640841"><ele>108.0</ele><time>2026-04-18T12:17:35.002Z</time></trkpt><trkpt lat="43.30561407402937" lon="10.777207628442847"><ele>108.5</ele><time>2026-04-18T12:17:37.002Z</time></trkpt><trkpt lat="43.305636194798886" lon="10.777346707880714"><ele>109.0</ele><time>2026-04-18T12:17:39.002Z</time></trkpt><trkpt lat="43.30560093048523" lon="10.777498616094206"><ele>109.0</ele><time>2026-04-18T12:17:41.002Z</time></trkpt><trkpt lat="43.30556260792839" lon="10.777680835448738"><ele>109.0</ele><time>2026-04-18T12:17:43.002Z</time></trkpt><trkpt lat="43.305506566319806" lon="10.777826407321454"><ele>109.0</ele><time>2026-04-18T12:17:45.002Z</time></trkpt><trkpt lat="43.3054214832483" lon="10.777954820695925"><ele>109.0</ele><time>2026-04-18T12:17:47.002Z</time></trkpt><trkpt lat="43.305374111191206" lon="10.778018922861863"><ele>109.85714285714286</ele><time>2026-04-18T12:17:48.002Z</time></trkpt><trkpt lat="43.305326812434295" lon="10.77808859982097"><ele>110.71428571428572</ele><time>2026-04-18T12:17:49.002Z</time></trkpt><trkpt lat="43.30528358640978" lon="10.778157306369499"><ele>111.57142857142856</ele><time>2026-04-18T12:17:50.002Z</time></trkpt><trkpt lat="43.30524456564968" lon="10.778226750330417"><ele>112.42857142857142</ele><time>2026-04-18T12:17:51.002Z</time></trkpt><trkpt lat="43.30520775121207" lon="10.77829934278905"><ele>113.28571428571428</ele><time>2026-04-18T12:17:52.002Z</time></trkpt><trkpt lat="43.305168925479755" lon="10.778369117879896"><ele>114.14285714285712</ele><time>2026-04-18T12:17:53.002Z</time></trkpt><trkpt lat="43.305091302727675" lon="10.778497691084704"><ele>114.99999999999999</ele><time>2026-04-18T12:17:55.002Z</time></trkpt><trkpt lat="43.305009960821714" lon="10.778631558263104"><ele>115.66666666666667</ele><time>2026-04-18T12:17:57.002Z</time></trkpt><trkpt lat="43.30496740826013" lon="10.778703890661575"><ele>116.33333333333334</ele><time>2026-04-18T12:17:58.002Z</time></trkpt><trkpt lat="43.30490809072821" lon="10.778761658044804"><ele>117.0</ele><time>2026-04-18T12:17:59.002Z</time></trkpt><trkpt lat="43.30485648928594" lon="10.778826865219658"><ele>117.66666666666666</ele><time>2026-04-18T12:18:00.002Z</time></trkpt><trkpt lat="43.3048167970318" lon="10.778896490485161"><ele>118.33333333333333</ele><time>2026-04-18T12:18:01.002Z</time></trkpt><trkpt lat="43.30475615562584" lon="10.778935037529644"><ele>119.0</ele><time>2026-04-18T12:18:02Z</time></trkpt><trkpt lat="43.30466040119887" lon="10.779030035278781"><ele>119.0</ele><time>2026-04-18T12:18:04Z</time></trkpt><trkpt lat="43.304579210406565" lon="10.779110546106832"><ele>119.0</ele><time>2026-04-18T12:18:06Z</time></trkpt><trkpt lat="43.304685907701604" lon="10.779305124288383"><ele>119.0</ele><time>2026-04-18T12:18:14Z</time></trkpt><trkpt lat="43.304788998950926" lon="10.779367489905809"><ele>119.0</ele><time>2026-04-18T12:18:16Z</time></trkpt><trkpt lat="43.304848979762255" lon="10.77941042654011"><ele>119.0</ele><time>2026-04-18T12:18:17Z</time></trkpt><trkpt lat="43.30495567355707" lon="10.77950281417215"><ele>119.0</ele><time>2026-04-18T12:18:19Z</time></trkpt><trkpt lat="43.30500612752091" lon="10.779556467613608"><ele>119.0</ele><time>2026-04-18T12:18:20Z</time></trkpt><trkpt lat="43.305078146962" lon="10.779651252078898"><ele>119.0</ele><time>2026-04-18T12:18:22Z</time></trkpt><trkpt lat="43.30514561011083" lon="10.779739424244587"><ele>119.0</ele><time>2026-04-18T12:18:24Z</time></trkpt><trkpt lat="43.30522511143028" lon="10.779847136039265"><ele>119.0</ele><time>2026-04-18T12:18:26Z</time></trkpt><trkpt lat="43.305300008204206" lon="10.7799555257458"><ele>119.0</ele><time>2026-04-18T12:18:28Z</time></trkpt><trkpt lat="43.30535761627798" lon="10.780044266223355"><ele>119.0</ele><time>2026-04-18T12:18:30Z</time></trkpt><trkpt lat="43.305398500608725" lon="10.78012470273677"><ele>119.0</ele><time>2026-04-18T12:18:32Z</time></trkpt><trkpt lat="43.305449310695096" lon="10.780222703470491"><ele>119.0</ele><time>2026-04-18T12:18:34Z</time></trkpt><trkpt lat="43.305509202407166" lon="10.78033011306963"><ele>118.99999999999999</ele><time>2026-04-18T12:18:36.001Z</time></trkpt><trkpt lat="43.30556539865976" lon="10.780430030879508"><ele>119.0</ele><time>2026-04-18T12:18:38.001Z</time></trkpt><trkpt lat="43.30560467148807" lon="10.780510025245732"><ele>119.0</ele><time>2026-04-18T12:18:40.001Z</time></trkpt><trkpt lat="43.30564864510486" lon="10.780591210576988"><ele>119.0</ele><time>2026-04-18T12:18:42.001Z</time></trkpt><trkpt lat="43.30568831416768" lon="10.78068331430167"><ele>118.99999999999999</ele><time>2026-04-18T12:18:45.001Z</time></trkpt><trkpt lat="43.305729465405186" lon="10.780778810354276"><ele>119.0</ele><time>2026-04-18T12:18:48.001Z</time></trkpt><trkpt lat="43.30576264460052" lon="10.780875424344261"><ele>118.99999999999999</ele><time>2026-04-18T12:18:50.001Z</time></trkpt><trkpt lat="43.30580216124504" lon="10.78096868115078"><ele>119.0</ele><time>2026-04-18T12:18:52.001Z</time></trkpt><trkpt lat="43.305844194925804" lon="10.781072190664844"><ele>119.0</ele><time>2026-04-18T12:18:54.001Z</time></trkpt><trkpt lat="43.30588854059178" lon="10.781198071436439"><ele>119.0</ele><time>2026-04-18T12:18:56.001Z</time></trkpt><trkpt lat="43.30592735812576" lon="10.78130114965786"><ele>118.99999999999999</ele><time>2026-04-18T12:18:58.001Z</time></trkpt><trkpt lat="43.30596641074984" lon="10.781412839033807"><ele>119.0</ele><time>2026-04-18T12:19:00.001Z</time></trkpt><trkpt lat="43.30600806742537" lon="10.781520835572348"><ele>118.42857142857143</ele><time>2026-04-18T12:19:02.001Z</time></trkpt><trkpt lat="43.306037394536844" lon="10.7816056727083"><ele>117.85714285714286</ele><time>2026-04-18T12:19:04.001Z</time></trkpt><trkpt lat="43.30607620328804" lon="10.781703489318742"><ele>117.28571428571428</ele><time>2026-04-18T12:19:07.001Z</time></trkpt><trkpt lat="43.306116460448976" lon="10.781788716883383"><ele>116.71428571428571</ele><time>2026-04-18T12:19:11.001Z</time></trkpt><trkpt lat="43.30612878557944" lon="10.781882186921267"><ele>116.14285714285714</ele><time>2026-04-18T12:19:14.001Z</time></trkpt><trkpt lat="43.306156357832876" lon="10.781994977562363"><ele>115.57142857142856</ele><time>2026-04-18T12:19:17.002Z</time></trkpt><trkpt lat="43.3061963920188" lon="10.782067722191442"><ele>114.99999999999999</ele><time>2026-04-18T12:19:19.002Z</time></trkpt><trkpt lat="43.306251714415694" lon="10.782151887026915"><ele>114.42857142857142</ele><time>2026-04-18T12:19:21.002Z</time></trkpt><trkpt lat="43.30630430817919" lon="10.782242327172753"><ele>113.85714285714286</ele><time>2026-04-18T12:19:23.002Z</time></trkpt><trkpt lat="43.30635442641566" lon="10.782308944426656"><ele>113.28571428571428</ele><time>2026-04-18T12:19:25.002Z</time></trkpt><trkpt lat="43.306408077136034" lon="10.782384693343658"><ele>112.71428571428571</ele><time>2026-04-18T12:19:27.002Z</time></trkpt><trkpt lat="43.306463921824346" lon="10.782448252168306"><ele>112.14285714285714</ele><time>2026-04-18T12:19:29.002Z</time></trkpt><trkpt lat="43.30651712548031" lon="10.782500668628568"><ele>111.57142857142857</ele><time>2026-04-18T12:19:31.002Z</time></trkpt><trkpt lat="43.30656381363716" lon="10.78257303560847"><ele>111.0</ele><time>2026-04-18T12:19:33.002Z</time></trkpt><trkpt lat="43.30662638395314" lon="10.78266189392182"><ele>108.66666666666667</ele><time>2026-04-18T12:19:37.002Z</time></trkpt><trkpt lat="43.306690663118104" lon="10.782727371979846"><ele>106.33333333333334</ele><time>2026-04-18T12:19:40.002Z</time></trkpt><trkpt lat="43.306765953610295" lon="10.78279459268553"><ele>104.0</ele><time>2026-04-18T12:19:43.002Z</time></trkpt><trkpt lat="43.306846807441254" lon="10.782871822711549"><ele>101.66666666666667</ele><time>2026-04-18T12:19:46.002Z</time></trkpt><trkpt lat="43.30689427716821" lon="10.782929789835167"><ele>99.33333333333334</ele><time>2026-04-18T12:19:48.002Z</time></trkpt><trkpt lat="43.306956727877164" lon="10.783008309000177"><ele>97.0</ele><time>2026-04-18T12:19:51.002Z</time></trkpt><trkpt lat="43.30700459272469" lon="10.783067821431521"><ele>97.00000000000001</ele><time>2026-04-18T12:19:53.002Z</time></trkpt><trkpt lat="43.30707324202766" lon="10.783154824148127"><ele>97.0</ele><time>2026-04-18T12:19:56.002Z</time></trkpt><trkpt lat="43.30713294970952" lon="10.78321984108175"><ele>97.0</ele><time>2026-04-18T12:19:58.002Z</time></trkpt><trkpt lat="43.30719138757397" lon="10.783280396595314"><ele>97.0</ele><time>2026-04-18T12:20:00.003Z</time></trkpt><trkpt lat="43.3072729651444" lon="10.783325569529804"><ele>97.00000000000001</ele><time>2026-04-18T12:20:03.003Z</time></trkpt><trkpt lat="43.30730760728789" lon="10.783410060193276"><ele>97.0</ele><time>2026-04-18T12:20:05.003Z</time></trkpt><trkpt lat="43.30736214572753" lon="10.783469186497884"><ele>95.50000000000001</ele><time>2026-04-18T12:20:07.003Z</time></trkpt><trkpt lat="43.30741818605964" lon="10.783534740678043"><ele>94.0</ele><time>2026-04-18T12:20:09Z</time></trkpt><trkpt lat="43.30748053650854" lon="10.783596690406023"><ele>92.5</ele><time>2026-04-18T12:20:11Z</time></trkpt><trkpt lat="43.307552970939035" lon="10.783663426824802"><ele>91.0</ele><time>2026-04-18T12:20:14Z</time></trkpt><trkpt lat="43.30763489850575" lon="10.783675608940495"><ele>89.5</ele><time>2026-04-18T12:20:17Z</time></trkpt><trkpt lat="43.30773450868053" lon="10.783677189291371"><ele>88.0</ele><time>2026-04-18T12:20:21Z</time></trkpt><trkpt lat="43.30780274704795" lon="10.783687907895303"><ele>97.0</ele><time>2026-04-18T12:20:24Z</time></trkpt><trkpt lat="43.30707324202766" lon="10.783154824148127"><ele>97.00000000000001</ele><time>2026-04-18T12:19:56.002Z</time></trkpt><trkpt lat="43.30713294970952" lon="10.78321984108175"><ele>97.0</ele><time>2026-04-18T12:19:58.002Z</time></trkpt><trkpt lat="43.30719138757397" lon="10.783280396595314"><ele>97.0</ele><time>2026-04-18T12:20:00.003Z</time></trkpt><trkpt lat="43.3072729651444" lon="10.783325569529804"><ele>97.0</ele><time>2026-04-18T12:20:03.003Z</time></trkpt><trkpt lat="43.30730760728789" lon="10.783410060193276"><ele>97.00000000000001</ele><time>2026-04-18T12:20:05.003Z</time></trkpt><trkpt lat="43.30736214572753" lon="10.783469186497884"><ele>97.0</ele><time>2026-04-18T12:20:07.003Z</time></trkpt><trkpt lat="43.30741818605964" lon="10.783534740678043"><ele>95.50000000000001</ele><time>2026-04-18T12:20:09Z</time></trkpt><trkpt lat="43.30748053650854" lon="10.783596690406023"><ele>94.0</ele><time>2026-04-18T12:20:11Z</time></trkpt><trkpt lat="43.307552970939035" lon="10.783663426824802"><ele>92.5</ele><time>2026-04-18T12:20:14Z</time></trkpt><trkpt lat="43.30763489850575" lon="10.783675608940495"><ele>91.0</ele><time>2026-04-18T12:20:17Z</time></trkpt><trkpt lat="43.30773450868053" lon="10.783677189291371"><ele>89.5</ele><time>2026-04-18T12:20:21Z</time></trkpt><trkpt lat="43.30780274704795" lon="10.783687907895303"><ele>88.0</ele><time>2026-04-18T12:20:24Z</time></trkpt><trkpt lat="43.30787026761527" lon="10.783694811287424"><ele>88.0</ele><time>2026-04-18T12:20:26Z</time></trkpt><trkpt lat="43.307967104198354" lon="10.783679822214424"><ele>88.0</ele><time>2026-04-18T12:20:28Z</time></trkpt><trkpt lat="43.3080316509664" lon="10.78370616702383"><ele>88.0</ele><time>2026-04-18T12:20:30Z</time></trkpt><trkpt lat="43.3081032226971" lon="10.783723569290737"><ele>88.0</ele><time>2026-04-18T12:20:33Z</time></trkpt><trkpt lat="43.30819256608424" lon="10.78374902589941"><ele>88.0</ele><time>2026-04-18T12:20:35Z</time></trkpt><trkpt lat="43.30825962391055" lon="10.783799823646557"><ele>88.0</ele><time>2026-04-18T12:20:38Z</time></trkpt><trkpt lat="43.30834361473181" lon="10.783830178789595"><ele>88.0</ele><time>2026-04-18T12:20:40Z</time></trkpt><trkpt lat="43.3084295973812" lon="10.783839794490458"><ele>88.0</ele><time>2026-04-18T12:20:42.001Z</time></trkpt><trkpt lat="43.30850400475438" lon="10.783845805954382"><ele>88.0</ele><time>2026-04-18T12:20:44.001Z</time></trkpt><trkpt lat="43.30860766972717" lon="10.783866586619173"><ele>88.0</ele><time>2026-04-18T12:20:47.001Z</time></trkpt><trkpt lat="43.30867293251578" lon="10.783873430656527"><ele>88.0</ele><time>2026-04-18T12:20:49.001Z</time></trkpt><trkpt lat="43.30874621018974" lon="10.783869165798931"><ele>88.0</ele><time>2026-04-18T12:20:51.001Z</time></trkpt><trkpt lat="43.30887172827262" lon="10.783872252512204"><ele>87.2</ele><time>2026-04-18T12:20:53.001Z</time></trkpt><trkpt lat="43.30895332115419" lon="10.783873978234174"><ele>86.4</ele><time>2026-04-18T12:20:55.001Z</time></trkpt><trkpt lat="43.30907010740922" lon="10.783886335994909"><ele>85.60000000000001</ele><time>2026-04-18T12:20:57.001Z</time></trkpt><trkpt lat="43.309143181509825" lon="10.783879518095553"><ele>84.80000000000001</ele><time>2026-04-18T12:21:01.001Z</time></trkpt><trkpt lat="43.30924551130628" lon="10.783849985022615"><ele>84.0</ele><time>2026-04-18T12:21:03.001Z</time></trkpt><trkpt lat="43.30932804887553" lon="10.783825107135822"><ele>84.0</ele><time>2026-04-18T12:21:05.001Z</time></trkpt><trkpt lat="43.309411804041794" lon="10.783812206691513"><ele>84.0</ele><time>2026-04-18T12:21:07.001Z</time></trkpt><trkpt lat="43.30948698383105" lon="10.783775448695756"><ele>84.0</ele><time>2026-04-18T12:21:09.001Z</time></trkpt><trkpt lat="43.30955379833564" lon="10.783765978132418"><ele>84.0</ele><time>2026-04-18T12:21:11.001Z</time></trkpt><trkpt lat="43.309629712112695" lon="10.783845602869983"><ele>84.0</ele><time>2026-04-18T12:21:14.001Z</time></trkpt><trkpt lat="43.30970328494158" lon="10.783925412111516"><ele>84.0</ele><time>2026-04-18T12:21:16.001Z</time></trkpt><trkpt lat="43.30975066498362" lon="10.784018108033903"><ele>84.0</ele><time>2026-04-18T12:21:19.001Z</time></trkpt><trkpt lat="43.30974080490108" lon="10.784125039050684"><ele>84.0</ele><time>2026-04-18T12:21:22.001Z</time></trkpt><trkpt lat="43.309698096817236" lon="10.784228728409328"><ele>84.0</ele><time>2026-04-18T12:21:25.001Z</time></trkpt><trkpt lat="43.30965034742494" lon="10.784333654537866"><ele>84.0</ele><time>2026-04-18T12:21:28.002Z</time></trkpt><trkpt lat="43.309591107090014" lon="10.78440763965296"><ele>84.0</ele><time>2026-04-18T12:21:30.002Z</time></trkpt><trkpt lat="43.309536239518316" lon="10.784463384457357"><ele>84.0</ele><time>2026-04-18T12:21:32.002Z</time></trkpt><trkpt lat="43.30950333226981" lon="10.784549379489892"><ele>84.33333333333333</ele><time>2026-04-18T12:21:35.002Z</time></trkpt><trkpt lat="43.30953528372734" lon="10.784624383589643"><ele>84.66666666666667</ele><time>2026-04-18T12:21:37.002Z</time></trkpt><trkpt lat="43.309576283518496" lon="10.784698714249737"><ele>85.0</ele><time>2026-04-18T12:21:39.002Z</time></trkpt><trkpt lat="43.30961981840668" lon="10.78479021806271"><ele>85.33333333333334</ele><time>2026-04-18T12:21:41.002Z</time></trkpt><trkpt lat="43.30965731400152" lon="10.784899574059871"><ele>85.66666666666667</ele><time>2026-04-18T12:21:43.002Z</time></trkpt><trkpt lat="43.30967308267234" lon="10.785001974412163"><ele>86.0</ele><time>2026-04-18T12:21:45.002Z</time></trkpt><trkpt lat="43.30970349467302" lon="10.785121856977762"><ele>84.83333333333334</ele><time>2026-04-18T12:21:48.002Z</time></trkpt><trkpt lat="43.30974314882026" lon="10.785207248434102"><ele>83.66666666666667</ele><time>2026-04-18T12:21:50.002Z</time></trkpt><trkpt lat="43.30980412704725" lon="10.785291858382669"><ele>82.5</ele><time>2026-04-18T12:21:52.002Z</time></trkpt><trkpt lat="43.30986951153986" lon="10.785362616480333"><ele>81.33333333333333</ele><time>2026-04-18T12:21:54.002Z</time></trkpt><trkpt lat="43.30993201563866" lon="10.785417837682841"><ele>80.16666666666666</ele><time>2026-04-18T12:21:56.002Z</time></trkpt><trkpt lat="43.31000822197259" lon="10.78547361457605"><ele>79.0</ele><time>2026-04-18T12:21:59.002Z</time></trkpt><trkpt lat="43.31006638239468" lon="10.785525701066552"><ele>79.0</ele><time>2026-04-18T12:22:01.002Z</time></trkpt><trkpt lat="43.31012432673529" lon="10.785567981120243"><ele>79.0</ele><time>2026-04-18T12:22:03.002Z</time></trkpt><trkpt lat="43.3102090697782" lon="10.785624907221385"><ele>79.0</ele><time>2026-04-18T12:22:06.002Z</time></trkpt><trkpt lat="43.31028641849892" lon="10.785621123070301"><ele>79.0</ele><time>2026-04-18T12:22:08.002Z</time></trkpt><trkpt lat="43.31034986460473" lon="10.785618050649457"><ele>79.0</ele><time>2026-04-18T12:22:10.003Z</time></trkpt><trkpt lat="43.31043630192936" lon="10.78562614731025"><ele>79.0</ele><time>2026-04-18T12:22:13.003Z</time></trkpt><trkpt lat="43.310497373116384" lon="10.78569183060135"><ele>79.00000000000001</ele><time>2026-04-18T12:22:16Z</time></trkpt><trkpt lat="43.31056164166486" lon="10.785753397171671"><ele>79.0</ele><time>2026-04-18T12:22:20Z</time></trkpt><trkpt lat="43.3106165266723" lon="10.785796388693614"><ele>79.0</ele><time>2026-04-18T12:22:23Z</time></trkpt><trkpt lat="43.310673698278286" lon="10.785845147311504"><ele>79.0</ele><time>2026-04-18T12:22:26Z</time></trkpt><trkpt lat="43.31072686653093" lon="10.785794169910073"><ele>79.0</ele><time>2026-04-18T12:22:32Z</time></trkpt><trkpt lat="43.31076332780152" lon="10.785716605783426"><ele>79.00000000000001</ele><time>2026-04-18T12:22:35Z</time></trkpt><trkpt lat="43.31074224648686" lon="10.785628487226074"><ele>79.0</ele><time>2026-04-18T12:22:39Z</time></trkpt><trkpt lat="43.310658907617146" lon="10.78561968155632"><ele>79.00000000000001</ele><time>2026-04-18T12:22:43Z</time></trkpt><trkpt lat="43.31059558274184" lon="10.785621649927032"><ele>79.0</ele><time>2026-04-18T12:22:46Z</time></trkpt><trkpt lat="43.31053144957924" lon="10.785630809619141"><ele>79.0</ele><time>2026-04-18T12:22:49Z</time></trkpt><trkpt lat="43.31045593172379" lon="10.785649647069178"><ele>79.0</ele><time>2026-04-18T12:23:03.001Z</time></trkpt><trkpt lat="43.310503893992944" lon="10.785718020705138"><ele>79.0</ele><time>2026-04-18T12:23:38.002Z</time></trkpt><trkpt lat="43.31056697968745" lon="10.785765950975222"><ele>79.00000000000001</ele><time>2026-04-18T12:23:42.002Z</time></trkpt><trkpt lat="43.310637990785104" lon="10.785823431140352"><ele>79.0</ele><time>2026-04-18T12:23:46.002Z</time></trkpt><trkpt lat="43.31070735186745" lon="10.785869577547393"><ele>78.71428571428572</ele><time>2026-04-18T12:24:13.003Z</time></trkpt><trkpt lat="43.31076755827615" lon="10.785918521463978"><ele>78.42857142857143</ele><time>2026-04-18T12:24:19.003Z</time></trkpt><trkpt lat="43.31083383188721" lon="10.785934675857478"><ele>78.14285714285714</ele><time>2026-04-18T12:24:24Z</time></trkpt><trkpt lat="43.310907590100754" lon="10.78599413085559"><ele>77.85714285714286</ele><time>2026-04-18T12:24:29Z</time></trkpt><trkpt lat="43.310987004966655" lon="10.785991102521882"><ele>77.57142857142857</ele><time>2026-04-18T12:24:34Z</time></trkpt><trkpt lat="43.311049881468136" lon="10.785974157191465"><ele>77.28571428571429</ele><time>2026-04-18T12:24:39Z</time></trkpt><trkpt lat="43.3110861501911" lon="10.78587625164064"><ele>77.0</ele><time>2026-04-18T12:25:03.001Z</time></trkpt><trkpt lat="43.31114361477012" lon="10.785776875386668"><ele>77.0</ele><time>2026-04-18T12:25:06.001Z</time></trkpt><trkpt lat="43.31119747321942" lon="10.78569884280135"><ele>77.0</ele><time>2026-04-18T12:25:09.001Z</time></trkpt><trkpt lat="43.31122702023221" lon="10.78559821011697"><ele>77.0</ele><time>2026-04-18T12:25:12.001Z</time></trkpt><trkpt lat="43.31123785382641" lon="10.785487590902259"><ele>77.0</ele><time>2026-04-18T12:25:15.001Z</time></trkpt><trkpt lat="43.31123178240739" lon="10.785358203532928"><ele>77.0</ele><time>2026-04-18T12:25:18.001Z</time></trkpt><trkpt lat="43.311238506094526" lon="10.785267631375447"><ele>77.0</ele><time>2026-04-18T12:25:20.001Z</time></trkpt><trkpt lat="43.31125318967893" lon="10.785177964816635"><ele>77.16666666666667</ele><time>2026-04-18T12:25:22.001Z</time></trkpt><trkpt lat="43.311263649027005" lon="10.78509248704158"><ele>77.33333333333334</ele><time>2026-04-18T12:25:24.001Z</time></trkpt><trkpt lat="43.31128121339116" lon="10.784969597422299"><ele>77.5</ele><time>2026-04-18T12:25:27.002Z</time></trkpt><trkpt lat="43.31129658307419" lon="10.784878720106862"><ele>77.66666666666667</ele><time>2026-04-18T12:25:29.002Z</time></trkpt><trkpt lat="43.31131016576376" lon="10.784769503805881"><ele>77.83333333333333</ele><time>2026-04-18T12:25:31.002Z</time></trkpt><trkpt lat="43.31130741944456" lon="10.784656209829082"><ele>78.0</ele><time>2026-04-18T12:25:33.002Z</time></trkpt><trkpt lat="43.311291223333264" lon="10.784559611535414"><ele>78.0</ele><time>2026-04-18T12:25:35.002Z</time></trkpt><trkpt lat="43.31126314391751" lon="10.784446650230446"><ele>78.0</ele><time>2026-04-18T12:25:38.002Z</time></trkpt><trkpt lat="43.31123869891988" lon="10.78436294164576"><ele>78.0</ele><time>2026-04-18T12:25:41.002Z</time></trkpt><trkpt lat="43.31121724981287" lon="10.784266680543018"><ele>78.0</ele><time>2026-04-18T12:25:45.002Z</time></trkpt><trkpt lat="43.311241138545725" lon="10.784157913190034"><ele>78.0</ele><time>2026-04-18T12:25:49.002Z</time></trkpt><trkpt lat="43.31129044274741" lon="10.784079904103"><ele>78.0</ele><time>2026-04-18T12:25:52.002Z</time></trkpt><trkpt lat="43.31133478767602" lon="10.784010244167254"><ele>78.16666666666667</ele><time>2026-04-18T12:25:55.002Z</time></trkpt><trkpt lat="43.31138022676147" lon="10.783925729709079"><ele>78.33333333333333</ele><time>2026-04-18T12:25:58.002Z</time></trkpt><trkpt lat="43.31142651404685" lon="10.78385418744175"><ele>78.5</ele><time>2026-04-18T12:26:01.002Z</time></trkpt><trkpt lat="43.31143631419876" lon="10.783751044678066"><ele>78.66666666666666</ele><time>2026-04-18T12:26:05.002Z</time></trkpt><trkpt lat="43.31146739361655" lon="10.783643084173896"><ele>78.83333333333333</ele><time>2026-04-18T12:26:08.002Z</time></trkpt><trkpt lat="43.311501474110564" lon="10.78352988712161"><ele>79.0</ele><time>2026-04-18T12:26:11.003Z</time></trkpt><trkpt lat="43.311527957743564" lon="10.783447416515168"><ele>78.5</ele><time>2026-04-18T12:26:13.003Z</time></trkpt><trkpt lat="43.31155794297588" lon="10.783370102736662"><ele>78.0</ele><time>2026-04-18T12:26:15.003Z</time></trkpt><trkpt lat="43.31158940625664" lon="10.78326651443022"><ele>77.5</ele><time>2026-04-18T12:26:18.003Z</time></trkpt><trkpt lat="43.31163232424867" lon="10.783173891065557"><ele>77.0</ele><time>2026-04-18T12:26:21.003Z</time></trkpt><trkpt lat="43.31169046006327" lon="10.783122561086808"><ele>76.5</ele><time>2026-04-18T12:26:25.003Z</time></trkpt><trkpt lat="43.311795334294864" lon="10.783044822077638"><ele>76.0</ele><time>2026-04-18T12:26:53.001Z</time></trkpt><trkpt lat="43.31184368686332" lon="10.78294912578682"><ele>76.0</ele><time>2026-04-18T12:26:57.001Z</time></trkpt><trkpt lat="43.3118058916059" lon="10.782877610400234"><ele>76.0</ele><time>2026-04-18T12:27:03.001Z</time></trkpt><trkpt lat="43.311747943265686" lon="10.782819956894523"><ele>76.0</ele><time>2026-04-18T12:27:08.001Z</time></trkpt><trkpt lat="43.31169294721661" lon="10.782761894119824"><ele>76.0</ele><time>2026-04-18T12:27:13.001Z</time></trkpt><trkpt lat="43.3116615902311" lon="10.782686190819978"><ele>76.0</ele><time>2026-04-18T12:27:18.001Z</time></trkpt><trkpt lat="43.31166941439382" lon="10.782590827310782"><ele>76.0</ele><time>2026-04-18T12:27:27.001Z</time></trkpt><trkpt lat="43.31169315503359" lon="10.782501927819862"><ele>76.0</ele><time>2026-04-18T12:27:39.002Z</time></trkpt><trkpt lat="43.31168815111772" lon="10.782409907922903"><ele>76.28571428571428</ele><time>2026-04-18T12:28:34.001Z</time></trkpt><trkpt lat="43.31167577056387" lon="10.782318552968057"><ele>76.57142857142858</ele><time>2026-04-18T12:28:40.001Z</time></trkpt><trkpt lat="43.31167196602969" lon="10.78222059547921"><ele>76.85714285714286</ele><time>2026-04-18T12:28:45Z</time></trkpt><trkpt lat="43.31167278099703" lon="10.782118381702512"><ele>77.14285714285714</ele><time>2026-04-18T12:28:51.001Z</time></trkpt><trkpt lat="43.311640764640416" lon="10.782028481239761"><ele>77.42857142857142</ele><time>2026-04-18T12:28:57.001Z</time></trkpt><trkpt lat="43.31161091333737" lon="10.7819467151763"><ele>77.71428571428572</ele><time>2026-04-18T12:29:01.001Z</time></trkpt><trkpt lat="43.31163895566952" lon="10.781855498623509"><ele>78.0</ele><time>2026-04-18T12:29:05.001Z</time></trkpt><trkpt lat="43.31166692352447" lon="10.781768372146258"><ele>78.14285714285715</ele><time>2026-04-18T12:29:09.001Z</time></trkpt><trkpt lat="43.31167303603464" lon="10.78167392807784"><ele>78.28571428571428</ele><time>2026-04-18T12:29:13.001Z</time></trkpt><trkpt lat="43.311741571681544" lon="10.78161396522414"><ele>78.42857142857143</ele><time>2026-04-18T12:29:18.001Z</time></trkpt><trkpt lat="43.31180766450725" lon="10.781615580447488"><ele>78.57142857142858</ele><time>2026-04-18T12:29:22.001Z</time></trkpt><trkpt lat="43.31188306760024" lon="10.78162788570467"><ele>78.71428571428572</ele><time>2026-04-18T12:30:29.002Z</time></trkpt><trkpt lat="43.31195253994629" lon="10.781656849910304"><ele>78.85714285714286</ele><time>2026-04-18T12:30:35.002Z</time></trkpt><trkpt lat="43.312013789507866" lon="10.781698904592249"><ele>79.0</ele><time>2026-04-18T12:30:41Z</time></trkpt><trkpt lat="43.31206447229439" lon="10.781762938533957"><ele>79.00000000000001</ele><time>2026-04-18T12:30:47Z</time></trkpt><trkpt lat="43.31213072763761" lon="10.781726114452054"><ele>79.0</ele><time>2026-04-18T12:30:54Z</time></trkpt><trkpt lat="43.31217146576824" lon="10.781645834790659"><ele>79.0</ele><time>2026-04-18T12:31:01Z</time></trkpt><trkpt lat="43.31223739292862" lon="10.781624391908307"><ele>79.0</ele><time>2026-04-18T12:31:08.001Z</time></trkpt><trkpt lat="43.312287965183245" lon="10.781551700436745"><ele>79.0</ele><time>2026-04-18T12:31:13.001Z</time></trkpt><trkpt lat="43.31231868528192" lon="10.781465216252995"><ele>79.00000000000001</ele><time>2026-04-18T12:31:17.001Z</time></trkpt><trkpt lat="43.312335742755955" lon="10.781352006271526"><ele>79.0</ele><time>2026-04-18T12:31:21.001Z</time></trkpt><trkpt lat="43.312377980411824" lon="10.781267850652323"><ele>78.66666666666666</ele><time>2026-04-18T12:31:24.001Z</time></trkpt><trkpt lat="43.312412553677945" lon="10.781181736682665"><ele>78.33333333333333</ele><time>2026-04-18T12:31:27.001Z</time></trkpt><trkpt lat="43.312462579463784" lon="10.781108729669818"><ele>78.0</ele><time>2026-04-18T12:31:30.001Z</time></trkpt><trkpt lat="43.31252258594829" lon="10.781044239690269"><ele>77.66666666666667</ele><time>2026-04-18T12:31:33.001Z</time></trkpt><trkpt lat="43.3125998697487" lon="10.781009948366762"><ele>77.33333333333334</ele><time>2026-04-18T12:31:36.001Z</time></trkpt><trkpt lat="43.312672598621056" lon="10.780965662678085"><ele>77.0</ele><time>2026-04-18T12:31:39.001Z</time></trkpt><trkpt lat="43.312731576076025" lon="10.78090537429958"><ele>76.66666666666667</ele><time>2026-04-18T12:31:42.001Z</time></trkpt><trkpt lat="43.312778366330235" lon="10.780847269906962"><ele>76.33333333333334</ele><time>2026-04-18T12:31:45.001Z</time></trkpt><trkpt lat="43.31283831458266" lon="10.780780663363721"><ele>76.0</ele><time>2026-04-18T12:31:49.001Z</time></trkpt><trkpt lat="43.31288742228691" lon="10.780716782367007"><ele>75.66666666666667</ele><time>2026-04-18T12:31:53.001Z</time></trkpt><trkpt lat="43.31294250228499" lon="10.780638900263455"><ele>75.33333333333333</ele><time>2026-04-18T12:31:57.001Z</time></trkpt><trkpt lat="43.31300664835911" lon="10.780536625050496"><ele>75.0</ele><time>2026-04-18T12:32:02.002Z</time></trkpt><trkpt lat="43.31306355805336" lon="10.78047046374349"><ele>75.14285714285714</ele><time>2026-04-18T12:32:06.002Z</time></trkpt><trkpt lat="43.31311383270719" lon="10.7803981516812"><ele>75.28571428571428</ele><time>2026-04-18T12:32:11.002Z</time></trkpt><trkpt lat="43.313093320672635" lon="10.780303208178433"><ele>75.42857142857142</ele><time>2026-04-18T12:32:20.002Z</time></trkpt><trkpt lat="43.313107524338704" lon="10.780203536098258"><ele>75.57142857142857</ele><time>2026-04-18T12:32:27.002Z</time></trkpt><trkpt lat="43.313092324706325" lon="10.780115177959953"><ele>75.71428571428572</ele><time>2026-04-18T12:33:18Z</time></trkpt><trkpt lat="43.31313162635282" lon="10.77999851456685"><ele>75.85714285714285</ele><time>2026-04-18T12:34:27.002Z</time></trkpt><trkpt lat="43.31317135412624" lon="10.779928989457597"><ele>76.0</ele><time>2026-04-18T12:34:33.002Z</time></trkpt><trkpt lat="43.31323120973735" lon="10.779872320192549"><ele>76.0</ele><time>2026-04-18T12:34:38.002Z</time></trkpt><trkpt lat="43.31328137724846" lon="10.779804093083465"><ele>76.0</ele><time>2026-04-18T12:34:44.002Z</time></trkpt><trkpt lat="43.31332484848033" lon="10.779728866171824"><ele>76.0</ele><time>2026-04-18T12:36:04.001Z</time></trkpt><trkpt lat="43.31335166966497" lon="10.779634680376862"><ele>76.0</ele><time>2026-04-18T12:36:09.001Z</time></trkpt><trkpt lat="43.31336306484313" lon="10.779534658809363"><ele>76.0</ele><time>2026-04-18T12:36:14.001Z</time></trkpt><trkpt lat="43.31338381438398" lon="10.77944527215133"><ele>76.0</ele><time>2026-04-18T12:36:19.001Z</time></trkpt><trkpt lat="43.31340280896694" lon="10.77935645045682"><ele>76.0</ele><time>2026-04-18T12:36:25.001Z</time></trkpt><trkpt lat="43.31341401325581" lon="10.77926931579844"><ele>75.85714285714285</ele><time>2026-04-18T12:36:30.002Z</time></trkpt><trkpt lat="43.31342952279318" lon="10.779184477863938"><ele>75.71428571428572</ele><time>2026-04-18T12:36:35.002Z</time></trkpt><trkpt lat="43.31344418856929" lon="10.77909968043669"><ele>75.57142857142857</ele><time>2026-04-18T12:36:41.002Z</time></trkpt><trkpt lat="43.313481612882924" lon="10.779011805089516"><ele>75.42857142857142</ele><time>2026-04-18T12:36:47.002Z</time></trkpt><trkpt lat="43.313464739686374" lon="10.778908817208706"><ele>75.28571428571428</ele><time>2026-04-18T12:39:22Z</time></trkpt><trkpt lat="43.313504027384894" lon="10.778823933587141"><ele>75.14285714285714</ele><time>2026-04-18T12:39:34.001Z</time></trkpt><trkpt lat="43.313587147808185" lon="10.778804454305742"><ele>75.0</ele><time>2026-04-18T12:39:58.001Z</time></trkpt><trkpt lat="43.31366561756791" lon="10.778820706656568"><ele>74.99999999999999</ele><time>2026-04-18T12:40:02.001Z</time></trkpt><trkpt lat="43.313725181821056" lon="10.77884928469153"><ele>75.0</ele><time>2026-04-18T12:40:05.001Z</time></trkpt><trkpt lat="43.313813514640344" lon="10.778832884213083"><ele>75.0</ele><time>2026-04-18T12:40:09.001Z</time></trkpt><trkpt lat="43.31389745005841" lon="10.778819891816132"><ele>75.0</ele><time>2026-04-18T12:40:13.001Z</time></trkpt><trkpt lat="43.31395841810013" lon="10.778797041095913"><ele>75.0</ele><time>2026-04-18T12:40:17.001Z</time></trkpt><trkpt lat="43.31402164078796" lon="10.778764912966704"><ele>74.99999999999999</ele><time>2026-04-18T12:40:22.001Z</time></trkpt><trkpt lat="43.314082460683814" lon="10.778721388266451"><ele>75.0</ele><time>2026-04-18T12:40:27.001Z</time></trkpt><trkpt lat="43.31413355266174" lon="10.778791013567382"><ele>74.85714285714285</ele><time>2026-04-18T12:48:08.001Z</time></trkpt><trkpt lat="43.31417265392192" lon="10.7788655564455"><ele>74.71428571428571</ele><time>2026-04-18T12:48:15.001Z</time></trkpt><trkpt lat="43.31423134682014" lon="10.77892740026742"><ele>74.57142857142857</ele><time>2026-04-18T12:48:23.001Z</time></trkpt><trkpt lat="43.31428788500808" lon="10.77897089799691"><ele>74.42857142857142</ele><time>2026-04-18T12:48:32.001Z</time></trkpt><trkpt lat="43.31422843924065" lon="10.77891112639261"><ele>74.28571428571428</ele><time>2026-04-18T12:48:51.001Z</time></trkpt><trkpt lat="43.31418496588876" lon="10.778847442616959"><ele>74.14285714285714</ele><time>2026-04-18T12:48:57.001Z</time></trkpt><trkpt lat="43.31424553256766" lon="10.778888788648453"><ele>74.0</ele><time>2026-04-18T12:49:35Z</time></trkpt><trkpt lat="43.31429794082608" lon="10.778941338319928"><ele>74.0</ele><time>2026-04-18T12:49:41Z</time></trkpt><trkpt lat="43.31426650126234" lon="10.77886521068369"><ele>74.0</ele><time>2026-04-18T12:50:47.001Z</time></trkpt><trkpt lat="43.31419699155748" lon="10.778838806193125"><ele>74.0</ele><time>2026-04-18T12:50:53.001Z</time></trkpt><trkpt lat="43.31414223647733" lon="10.778794779706676"><ele>74.0</ele><time>2026-04-18T12:50:59.001Z</time></trkpt><trkpt lat="43.31416213960707" lon="10.778694738363907"><ele>74.0</ele><time>2026-04-18T12:57:45.002Z</time></trkpt><trkpt lat="43.31420592540207" lon="10.778761335615524"><ele>74.0</ele><time>2026-04-18T12:57:51.002Z</time></trkpt><trkpt lat="43.31416282782592" lon="10.778831335801197"><ele>74.0</ele><time>2026-04-18T12:57:57.001Z</time></trkpt><trkpt lat="43.31410726471774" lon="10.77887786228121"><ele>74.0</ele><time>2026-04-18T12:58:06.001Z</time></trkpt><trkpt lat="43.31405823725707" lon="10.7789423417965"><ele>74.0</ele><time>2026-04-18T12:58:12.001Z</time></trkpt><trkpt lat="43.31400445943727" lon="10.779009795394568"><ele>74.0</ele><time>2026-04-18T12:58:17.001Z</time></trkpt><trkpt lat="43.31393019524851" lon="10.779037445099247"><ele>74.0</ele><time>2026-04-18T12:58:22.001Z</time></trkpt><trkpt lat="43.313856510336365" lon="10.779031152630333"><ele>74.0</ele><time>2026-04-18T12:58:26.001Z</time></trkpt><trkpt lat="43.3138300409587" lon="10.77912393694348"><ele>74.0</ele><time>2026-04-18T12:58:30.001Z</time></trkpt><trkpt lat="43.31382319135829" lon="10.779218952268385"><ele>74.0</ele><time>2026-04-18T12:58:36.001Z</time></trkpt><trkpt lat="43.31378155539126" lon="10.77929686283118"><ele>74.14285714285714</ele><time>2026-04-18T12:58:41.001Z</time></trkpt><trkpt lat="43.31371196107451" lon="10.779318511870198"><ele>74.28571428571428</ele><time>2026-04-18T12:58:47.001Z</time></trkpt><trkpt lat="43.31364749307384" lon="10.779345158446663"><ele>74.42857142857142</ele><time>2026-04-18T12:58:53.001Z</time></trkpt><trkpt lat="43.31357926762858" lon="10.779372997641683"><ele>74.57142857142857</ele><time>2026-04-18T12:58:59.001Z</time></trkpt><trkpt lat="43.31353210163891" lon="10.779441253036772"><ele>74.71428571428571</ele><time>2026-04-18T12:59:05.001Z</time></trkpt><trkpt lat="43.31347495161023" lon="10.779492975988004"><ele>74.85714285714285</ele><time>2026-04-18T12:59:12.001Z</time></trkpt><trkpt lat="43.31343717136778" lon="10.779586051023283"><ele>75.0</ele><time>2026-04-18T12:59:19.001Z</time></trkpt><trkpt lat="43.31339441771449" lon="10.779651876863413"><ele>75.14285714285714</ele><time>2026-04-18T12:59:23.001Z</time></trkpt><trkpt lat="43.31333524192676" lon="10.779706999652252"><ele>75.28571428571428</ele><time>2026-04-18T12:59:28.001Z</time></trkpt><trkpt lat="43.31326943113231" lon="10.779750654558264"><ele>75.42857142857142</ele><time>2026-04-18T12:59:33.001Z</time></trkpt><trkpt lat="43.31319605746785" lon="10.779781318107398"><ele>75.57142857142857</ele><time>2026-04-18T12:59:38.001Z</time></trkpt><trkpt lat="43.31311955674102" lon="10.779797721825865"><ele>75.71428571428572</ele><time>2026-04-18T12:59:43.001Z</time></trkpt><trkpt lat="43.31306219573978" lon="10.779847949100368"><ele>75.85714285714285</ele><time>2026-04-18T12:59:48.002Z</time></trkpt><trkpt lat="43.313004514689545" lon="10.77989924797221"><ele>76.0</ele><time>2026-04-18T12:59:53.002Z</time></trkpt><trkpt lat="43.31295489318913" lon="10.779974756608066"><ele>76.0</ele><time>2026-04-18T13:00:11.999Z</time></trkpt><trkpt lat="43.31301463907743" lon="10.78003871354369"><ele>76.0</ele><time>2026-04-18T13:00:19Z</time></trkpt><trkpt lat="43.313089632573885" lon="10.780054490807384"><ele>76.0</ele><time>2026-04-18T13:00:23Z</time></trkpt><trkpt lat="43.31315719355491" lon="10.780075394164848"><ele>76.0</ele><time>2026-04-18T13:00:26Z</time></trkpt><trkpt lat="43.3132354373694" lon="10.780086657356696"><ele>76.0</ele><time>2026-04-18T13:00:29Z</time></trkpt><trkpt lat="43.31325439383426" lon="10.780174169973092"><ele>76.0</ele><time>2026-04-18T13:00:32Z</time></trkpt><trkpt lat="43.31319511234922" lon="10.780236863896492"><ele>76.0</ele><time>2026-04-18T13:00:46Z</time></trkpt><trkpt lat="43.3131363422761" lon="10.780292716584022"><ele>75.83333333333333</ele><time>2026-04-18T13:00:51Z</time></trkpt><trkpt lat="43.31307405091724" lon="10.78036495615266"><ele>75.66666666666666</ele><time>2026-04-18T13:00:56Z</time></trkpt><trkpt lat="43.313054329976126" lon="10.780450792551637"><ele>75.5</ele><time>2026-04-18T13:01:00Z</time></trkpt><trkpt lat="43.31301028792563" lon="10.780540558004752"><ele>75.33333333333333</ele><time>2026-04-18T13:01:28.001Z</time></trkpt><trkpt lat="43.31296014973495" lon="10.780613783958799"><ele>75.16666666666667</ele><time>2026-04-18T13:01:32.001Z</time></trkpt><trkpt lat="43.312900663638054" lon="10.780676094608278"><ele>75.0</ele><time>2026-04-18T13:01:36.001Z</time></trkpt><trkpt lat="43.31284287125872" lon="10.780758231230154"><ele>74.99999999999999</ele><time>2026-04-18T13:01:40.001Z</time></trkpt><trkpt lat="43.312799792663036" lon="10.780823179937993"><ele>75.0</ele><time>2026-04-18T13:01:43.001Z</time></trkpt><trkpt lat="43.312746319490834" lon="10.780909553741678"><ele>75.0</ele><time>2026-04-18T13:01:47.001Z</time></trkpt><trkpt lat="43.31269777160053" lon="10.780971062228923"><ele>75.0</ele><time>2026-04-18T13:01:50.001Z</time></trkpt><trkpt lat="43.312639266456" lon="10.781030902022032"><ele>75.0</ele><time>2026-04-18T13:01:53.001Z</time></trkpt><trkpt lat="43.31256478949684" lon="10.781070876395024"><ele>74.99999999999999</ele><time>2026-04-18T13:01:56.001Z</time></trkpt><trkpt lat="43.31249016419528" lon="10.781116048832967"><ele>75.0</ele><time>2026-04-18T13:01:59.001Z</time></trkpt><trkpt lat="43.312430562232294" lon="10.78119357763496"><ele>75.33333333333333</ele><time>2026-04-18T13:02:02.001Z</time></trkpt><trkpt lat="43.31238922972032" lon="10.7813116348406"><ele>75.66666666666667</ele><time>2026-04-18T13:02:05.001Z</time></trkpt><trkpt lat="43.31234888156873" lon="10.781420340900835"><ele>76.0</ele><time>2026-04-18T13:02:07.999Z</time></trkpt><trkpt lat="43.312308034946696" lon="10.781531005221012"><ele>76.33333333333334</ele><time>2026-04-18T13:02:10.999Z</time></trkpt><trkpt lat="43.312270631336105" lon="10.781611728212223"><ele>76.66666666666667</ele><time>2026-04-18T13:02:13.999Z</time></trkpt><trkpt lat="43.31221130776674" lon="10.78166240490197"><ele>77.0</ele><time>2026-04-18T13:02:16.999Z</time></trkpt><trkpt lat="43.31215223882499" lon="10.781720117811073"><ele>77.16666666666667</ele><time>2026-04-18T13:02:21.999Z</time></trkpt><trkpt lat="43.31209704129373" lon="10.781782563220379"><ele>77.33333333333334</ele><time>2026-04-18T13:02:27Z</time></trkpt><trkpt lat="43.31201954307156" lon="10.781780227943957"><ele>77.5</ele><time>2026-04-18T13:02:31Z</time></trkpt><trkpt lat="43.31195575233626" lon="10.781743520219072"><ele>77.66666666666667</ele><time>2026-04-18T13:02:34Z</time></trkpt><trkpt lat="43.31187059232545" lon="10.781729452455094"><ele>77.83333333333333</ele><time>2026-04-18T13:02:38Z</time></trkpt><trkpt lat="43.311803805829456" lon="10.78177715872266"><ele>78.0</ele><time>2026-04-18T13:02:43Z</time></trkpt><trkpt lat="43.31180109439001" lon="10.781884837102773"><ele>78.0</ele><time>2026-04-18T13:02:47Z</time></trkpt><trkpt lat="43.31179157113793" lon="10.781982533386904"><ele>78.0</ele><time>2026-04-18T13:02:51Z</time></trkpt><trkpt lat="43.31178763025202" lon="10.782079646715202"><ele>78.0</ele><time>2026-04-18T13:02:55Z</time></trkpt><trkpt lat="43.311807750149605" lon="10.782185434263296"><ele>78.0</ele><time>2026-04-18T13:03:00Z</time></trkpt><trkpt lat="43.311807144911256" lon="10.78228347977639"><ele>78.0</ele><time>2026-04-18T13:03:04Z</time></trkpt><trkpt lat="43.31178711510946" lon="10.782368209057395"><ele>78.0</ele><time>2026-04-18T13:03:08.001Z</time></trkpt><trkpt lat="43.311756647125854" lon="10.782451042481306"><ele>78.0</ele><time>2026-04-18T13:03:13.001Z</time></trkpt><trkpt lat="43.31172298805577" lon="10.782534861419977"><ele>78.0</ele><time>2026-04-18T13:03:19.001Z</time></trkpt><trkpt lat="43.311689424623204" lon="10.782615366874754"><ele>78.0</ele><time>2026-04-18T13:03:24.001Z</time></trkpt><trkpt lat="43.3117020266707" lon="10.782703204294819"><ele>78.0</ele><time>2026-04-18T13:05:05Z</time></trkpt><trkpt lat="43.31171130215686" lon="10.782790257591408"><ele>78.0</ele><time>2026-04-18T13:05:09.001Z</time></trkpt><trkpt lat="43.31174044470661" lon="10.78288307051684"><ele>78.0</ele><time>2026-04-18T13:05:13.001Z</time></trkpt><trkpt lat="43.31177562319599" lon="10.782956128192462"><ele>78.0</ele><time>2026-04-18T13:05:17.001Z</time></trkpt><trkpt lat="43.311804473010476" lon="10.783040854853596"><ele>78.0</ele><time>2026-04-18T13:05:23.001Z</time></trkpt><trkpt lat="43.311750484615615" lon="10.783103756852604"><ele>77.66666666666667</ele><time>2026-04-18T13:05:49.001Z</time></trkpt><trkpt lat="43.31167511206964" lon="10.783157384030222"><ele>77.33333333333333</ele><time>2026-04-18T13:05:53.001Z</time></trkpt><trkpt lat="43.31162790322676" lon="10.783223286576838"><ele>77.0</ele><time>2026-04-18T13:05:56.001Z</time></trkpt><trkpt lat="43.31159656246589" lon="10.783316312617439"><ele>76.66666666666666</ele><time>2026-04-18T13:05:59.002Z</time></trkpt><trkpt lat="43.311558356973045" lon="10.783421066775919"><ele>76.33333333333333</ele><time>2026-04-18T13:06:02.002Z</time></trkpt><trkpt lat="43.31151881667464" lon="10.78353132048928"><ele>76.0</ele><time>2026-04-18T13:06:05.002Z</time></trkpt><trkpt lat="43.31148718657665" lon="10.783642429054389"><ele>75.85714285714285</ele><time>2026-04-18T13:06:08.002Z</time></trkpt><trkpt lat="43.31146601451674" lon="10.783740456736075"><ele>75.71428571428572</ele><time>2026-04-18T13:06:11.002Z</time></trkpt><trkpt lat="43.31144787780442" lon="10.783837558709662"><ele>75.57142857142857</ele><time>2026-04-18T13:06:15.002Z</time></trkpt><trkpt lat="43.31140623679356" lon="10.783906332170652"><ele>75.42857142857142</ele><time>2026-04-18T13:06:19.002Z</time></trkpt><trkpt lat="43.31136251687925" lon="10.783989753979544"><ele>75.28571428571428</ele><time>2026-04-18T13:06:23Z</time></trkpt><trkpt lat="43.311313570334036" lon="10.784069322047857"><ele>75.14285714285714</ele><time>2026-04-18T13:06:26Z</time></trkpt><trkpt lat="43.31126347155849" lon="10.784144132005142"><ele>75.0</ele><time>2026-04-18T13:06:30Z</time></trkpt><trkpt lat="43.311238328861975" lon="10.784228940812719"><ele>75.42857142857142</ele><time>2026-04-18T13:06:33Z</time></trkpt><trkpt lat="43.31125511513921" lon="10.78431701911443"><ele>75.85714285714286</ele><time>2026-04-18T13:06:36Z</time></trkpt><trkpt lat="43.31127856774646" lon="10.78442049959729"><ele>76.28571428571428</ele><time>2026-04-18T13:06:40Z</time></trkpt><trkpt lat="43.311306074864284" lon="10.78452351511975"><ele>76.71428571428571</ele><time>2026-04-18T13:06:43Z</time></trkpt><trkpt lat="43.311326734145744" lon="10.784641827920488"><ele>77.14285714285714</ele><time>2026-04-18T13:06:46Z</time></trkpt><trkpt lat="43.311331976352385" lon="10.784734039677623"><ele>77.57142857142857</ele><time>2026-04-18T13:06:48Z</time></trkpt><trkpt lat="43.311328236289725" lon="10.784825876059367"><ele>78.0</ele><time>2026-04-18T13:06:50Z</time></trkpt><trkpt lat="43.31131141126707" lon="10.784916464169646"><ele>78.0</ele><time>2026-04-18T13:06:52Z</time></trkpt><trkpt lat="43.31129198307875" lon="10.78504220957444"><ele>78.0</ele><time>2026-04-18T13:06:55Z</time></trkpt><trkpt lat="43.31127765296867" lon="10.78515790986335"><ele>78.0</ele><time>2026-04-18T13:06:58Z</time></trkpt><trkpt lat="43.31126434639383" lon="10.7852436788346"><ele>78.0</ele><time>2026-04-18T13:07:00Z</time></trkpt><trkpt lat="43.31125221059866" lon="10.785335309064175"><ele>78.0</ele><time>2026-04-18T13:07:02Z</time></trkpt><trkpt lat="43.31125514645536" lon="10.785422704624782"><ele>78.0</ele><time>2026-04-18T13:07:04.001Z</time></trkpt><trkpt lat="43.31125092058172" lon="10.785545633502245"><ele>77.83333333333333</ele><time>2026-04-18T13:07:07.001Z</time></trkpt><trkpt lat="43.311228145143566" lon="10.785655108806063"><ele>77.66666666666667</ele><time>2026-04-18T13:07:10.001Z</time></trkpt><trkpt lat="43.31118331706105" lon="10.785755545277828"><ele>77.5</ele><time>2026-04-18T13:07:13.001Z</time></trkpt><trkpt lat="43.311135454361064" lon="10.7858166068844"><ele>77.33333333333334</ele><time>2026-04-18T13:07:15.001Z</time></trkpt><trkpt lat="43.311092874177355" lon="10.785898091413545"><ele>77.16666666666667</ele><time>2026-04-18T13:07:17.001Z</time></trkpt><trkpt lat="43.311052684627896" lon="10.785994742670733"><ele>77.0</ele><time>2026-04-18T13:07:20.001Z</time></trkpt><trkpt lat="43.31097902597651" lon="10.786007727975564"><ele>77.0</ele><time>2026-04-18T13:07:38.001Z</time></trkpt><trkpt lat="43.31091124310514" lon="10.786016962791546"><ele>77.0</ele><time>2026-04-18T13:07:42.001Z</time></trkpt><trkpt lat="43.310855780651636" lon="10.785974268213208"><ele>77.0</ele><time>2026-04-18T13:07:46.001Z</time></trkpt><trkpt lat="43.3107786839338" lon="10.785926080315589"><ele>77.0</ele><time>2026-04-18T13:07:50.001Z</time></trkpt><trkpt lat="43.31072297544932" lon="10.785883186700499"><ele>77.0</ele><time>2026-04-18T13:07:55.002Z</time></trkpt><trkpt lat="43.31066104004989" lon="10.785953367345702"><ele>77.0</ele><time>2026-04-18T13:08:01.002Z</time></trkpt><trkpt lat="43.31061926651718" lon="10.78603380535932"><ele>77.0</ele><time>2026-04-18T13:08:05.002Z</time></trkpt><trkpt lat="43.310624818804556" lon="10.786138226679011"><ele>77.14285714285714</ele><time>2026-04-18T13:08:08.002Z</time></trkpt><trkpt lat="43.310625691074065" lon="10.786240289319577"><ele>77.28571428571428</ele><time>2026-04-18T13:08:11.002Z</time></trkpt><trkpt lat="43.31065594130233" lon="10.786319427112513"><ele>77.42857142857143</ele><time>2026-04-18T13:08:13.002Z</time></trkpt><trkpt lat="43.31060633765619" lon="10.78641710271813"><ele>77.57142857142857</ele><time>2026-04-18T13:08:16.002Z</time></trkpt><trkpt lat="43.31059816025921" lon="10.786508866250072"><ele>77.71428571428571</ele><time>2026-04-18T13:08:19.002Z</time></trkpt><trkpt lat="43.31062296485212" lon="10.78659824323498"><ele>77.85714285714286</ele><time>2026-04-18T13:08:22.002Z</time></trkpt><trkpt lat="43.31063681527821" lon="10.786692112108412"><ele>78.0</ele><time>2026-04-18T13:08:25.002Z</time></trkpt><trkpt lat="43.31060889347764" lon="10.786772651385645"><ele>78.42857142857143</ele><time>2026-04-18T13:08:28Z</time></trkpt><trkpt lat="43.31056297893397" lon="10.786855036788156"><ele>78.85714285714285</ele><time>2026-04-18T13:08:32Z</time></trkpt><trkpt lat="43.310521236001904" lon="10.786953698643385"><ele>79.28571428571428</ele><time>2026-04-18T13:08:43Z</time></trkpt><trkpt lat="43.31049075549356" lon="10.787042792133613"><ele>79.71428571428572</ele><time>2026-04-18T13:08:46Z</time></trkpt><trkpt lat="43.31048706562714" lon="10.787132832725495"><ele>80.14285714285714</ele><time>2026-04-18T13:08:49Z</time></trkpt><trkpt lat="43.31047982534649" lon="10.787234811437939"><ele>80.57142857142857</ele><time>2026-04-18T13:08:53Z</time></trkpt><trkpt lat="43.310443817328256" lon="10.787318178819712"><ele>81.0</ele><time>2026-04-18T13:08:57Z</time></trkpt><trkpt lat="43.31038990385366" lon="10.78737819889687"><ele>81.0</ele><time>2026-04-18T13:09:00Z</time></trkpt><trkpt lat="43.31031549961766" lon="10.787419816217822"><ele>81.0</ele><time>2026-04-18T13:09:03Z</time></trkpt><trkpt lat="43.31025367719091" lon="10.787462474466121"><ele>81.0</ele><time>2026-04-18T13:09:06Z</time></trkpt><trkpt lat="43.310185852534744" lon="10.787494889385133"><ele>81.0</ele><time>2026-04-18T13:09:09Z</time></trkpt><trkpt lat="43.310116411940086" lon="10.787530408556607"><ele>81.0</ele><time>2026-04-18T13:09:12.001Z</time></trkpt><trkpt lat="43.31004946201815" lon="10.787563184328247"><ele>81.0</ele><time>2026-04-18T13:09:15.001Z</time></trkpt><trkpt lat="43.30999222060258" lon="10.787602999307598"><ele>81.0</ele><time>2026-04-18T13:09:18.001Z</time></trkpt><trkpt lat="43.30993412979529" lon="10.787649208967704"><ele>81.16666666666667</ele><time>2026-04-18T13:09:21.001Z</time></trkpt><trkpt lat="43.3098760382325" lon="10.787749519119117"><ele>81.33333333333333</ele><time>2026-04-18T13:09:25.001Z</time></trkpt><trkpt lat="43.30984345956113" lon="10.787844394736489"><ele>81.5</ele><time>2026-04-18T13:09:28.001Z</time></trkpt><trkpt lat="43.30980781916774" lon="10.787944017824392"><ele>81.66666666666666</ele><time>2026-04-18T13:09:31.001Z</time></trkpt><trkpt lat="43.30977598852423" lon="10.788043852310711"><ele>81.83333333333333</ele><time>2026-04-18T13:09:34.001Z</time></trkpt><trkpt lat="43.30975163173112" lon="10.788166379291722"><ele>82.0</ele><time>2026-04-18T13:09:43.001Z</time></trkpt><trkpt lat="43.30974073140781" lon="10.788260395322839"><ele>82.16666666666666</ele><time>2026-04-18T13:09:46.001Z</time></trkpt><trkpt lat="43.30973240246418" lon="10.788360244749526"><ele>82.33333333333333</ele><time>2026-04-18T13:09:49.001Z</time></trkpt><trkpt lat="43.30971686245325" lon="10.788463324710724"><ele>82.5</ele><time>2026-04-18T13:09:52.001Z</time></trkpt><trkpt lat="43.30966049884382" lon="10.788543067527321"><ele>82.66666666666667</ele><time>2026-04-18T13:09:55.001Z</time></trkpt><trkpt lat="43.309584104091414" lon="10.788585661382944"><ele>82.83333333333334</ele><time>2026-04-18T13:09:58.001Z</time></trkpt><trkpt lat="43.3095141508152" lon="10.788639200082464"><ele>83.0</ele><time>2026-04-18T13:10:01.002Z</time></trkpt><trkpt lat="43.309455102713954" lon="10.788705282303196"><ele>82.66666666666667</ele><time>2026-04-18T13:10:04.002Z</time></trkpt><trkpt lat="43.309396755393216" lon="10.78876937993014"><ele>82.33333333333334</ele><time>2026-04-18T13:10:07.002Z</time></trkpt><trkpt lat="43.309338254670706" lon="10.788835781535937"><ele>82.0</ele><time>2026-04-18T13:10:10.002Z</time></trkpt><trkpt lat="43.30927286942739" lon="10.788902564038278"><ele>81.66666666666667</ele><time>2026-04-18T13:10:13.002Z</time></trkpt><trkpt lat="43.30921171139009" lon="10.788973841239224"><ele>81.33333333333333</ele><time>2026-04-18T13:10:16.002Z</time></trkpt><trkpt lat="43.309152603259996" lon="10.789046827259694"><ele>81.0</ele><time>2026-04-18T13:10:19.002Z</time></trkpt><trkpt lat="43.30909176056184" lon="10.78912484536331"><ele>81.0</ele><time>2026-04-18T13:10:22.002Z</time></trkpt><trkpt lat="43.30903011550897" lon="10.789214441759626"><ele>81.0</ele><time>2026-04-18T13:10:25.002Z</time></trkpt><trkpt lat="43.30898660728464" lon="10.789283380547701"><ele>81.0</ele><time>2026-04-18T13:10:27.002Z</time></trkpt><trkpt lat="43.308922505458334" lon="10.789378819545624"><ele>81.0</ele><time>2026-04-18T13:10:30.002Z</time></trkpt><trkpt lat="43.30885556964652" lon="10.789465919680824"><ele>81.0</ele><time>2026-04-18T13:10:32.999Z</time></trkpt><trkpt lat="43.30879871446283" lon="10.789571380298394"><ele>81.0</ele><time>2026-04-18T13:10:35.999Z</time></trkpt><trkpt lat="43.308745716349556" lon="10.789667670791287"><ele>81.33333333333333</ele><time>2026-04-18T13:10:38.999Z</time></trkpt><trkpt lat="43.30870278041928" lon="10.789733089284082"><ele>81.66666666666667</ele><time>2026-04-18T13:10:40.999Z</time></trkpt><trkpt lat="43.30863391996198" lon="10.78981040112568"><ele>82.0</ele><time>2026-04-18T13:10:44Z</time></trkpt><trkpt lat="43.308558509379544" lon="10.789856263016128"><ele>82.33333333333334</ele><time>2026-04-18T13:10:47Z</time></trkpt><trkpt lat="43.308488507830376" lon="10.789898902058876"><ele>82.66666666666667</ele><time>2026-04-18T13:10:50Z</time></trkpt><trkpt lat="43.30855291576845" lon="10.78987450109559"><ele>83.0</ele><time>2026-04-18T13:16:00.002Z</time></trkpt><trkpt lat="43.30861762064557" lon="10.789824989470935"><ele>83.0</ele><time>2026-04-18T13:16:05.002Z</time></trkpt><trkpt lat="43.308671126267456" lon="10.789775698388558"><ele>83.0</ele><time>2026-04-18T13:16:08.002Z</time></trkpt><trkpt lat="43.30872821815321" lon="10.789698759640089"><ele>83.0</ele><time>2026-04-18T13:16:11.002Z</time></trkpt><trkpt lat="43.308780629629254" lon="10.789615728458635"><ele>83.0</ele><time>2026-04-18T13:16:14.002Z</time></trkpt><trkpt lat="43.30882196192437" lon="10.789523279242253"><ele>83.0</ele><time>2026-04-18T13:16:17.002Z</time></trkpt><trkpt lat="43.30887136963207" lon="10.789445262256288"><ele>83.0</ele><time>2026-04-18T13:16:20.002Z</time></trkpt><trkpt lat="43.30892638670516" lon="10.789371587906647"><ele>82.71428571428571</ele><time>2026-04-18T13:16:23.002Z</time></trkpt><trkpt lat="43.30897677163423" lon="10.789303776158672"><ele>82.42857142857143</ele><time>2026-04-18T13:16:26.002Z</time></trkpt><trkpt lat="43.309021827643406" lon="10.789231799955154"><ele>82.14285714285714</ele><time>2026-04-18T13:16:29.002Z</time></trkpt><trkpt lat="43.30907538056098" lon="10.789146094067691"><ele>81.85714285714286</ele><time>2026-04-18T13:16:32.002Z</time></trkpt><trkpt lat="43.309128765605905" lon="10.789063890497738"><ele>81.57142857142857</ele><time>2026-04-18T13:16:35.002Z</time></trkpt><trkpt lat="43.30918602765692" lon="10.788993793796033"><ele>81.28571428571429</ele><time>2026-04-18T13:16:38.003Z</time></trkpt><trkpt lat="43.30923605244982" lon="10.78893880525891"><ele>81.0</ele><time>2026-04-18T13:16:41.003Z</time></trkpt><trkpt lat="43.30929164982531" lon="10.788867986333072"><ele>81.0</ele><time>2026-04-18T13:16:44.003Z</time></trkpt><trkpt lat="43.30934747194012" lon="10.788802735457498"><ele>81.0</ele><time>2026-04-18T13:16:47.003Z</time></trkpt><trkpt lat="43.3094083081723" lon="10.788741090809738"><ele>81.0</ele><time>2026-04-18T13:16:50Z</time></trkpt><trkpt lat="43.3094692066575" lon="10.78866550041602"><ele>81.0</ele><time>2026-04-18T13:16:53Z</time></trkpt><trkpt lat="43.30953484656812" lon="10.788598153132135"><ele>81.0</ele><time>2026-04-18T13:16:56Z</time></trkpt><trkpt lat="43.3096094659143" lon="10.788545928723028"><ele>81.0</ele><time>2026-04-18T13:16:59Z</time></trkpt><trkpt lat="43.30967762848985" lon="10.78849522295256"><ele>81.16666666666667</ele><time>2026-04-18T13:17:02Z</time></trkpt><trkpt lat="43.30971887280777" lon="10.788427823294372"><ele>81.33333333333333</ele><time>2026-04-18T13:17:05Z</time></trkpt><trkpt lat="43.309729218283024" lon="10.788317817736743"><ele>81.5</ele><time>2026-04-18T13:17:08Z</time></trkpt><trkpt lat="43.30974171585385" lon="10.788221880932715"><ele>81.66666666666666</ele><time>2026-04-18T13:17:11Z</time></trkpt><trkpt lat="43.309751411289575" lon="10.788123065036991"><ele>81.83333333333333</ele><time>2026-04-18T13:17:14Z</time></trkpt><trkpt lat="43.3097745367207" lon="10.788010362779442"><ele>82.0</ele><time>2026-04-18T13:17:17Z</time></trkpt><trkpt lat="43.309804487002495" lon="10.787902788751529"><ele>82.0</ele><time>2026-04-18T13:17:20Z</time></trkpt><trkpt lat="43.30984016423215" lon="10.787794914786858"><ele>82.0</ele><time>2026-04-18T13:17:23.001Z</time></trkpt><trkpt lat="43.30988077761055" lon="10.787685747169524"><ele>82.0</ele><time>2026-04-18T13:17:26.001Z</time></trkpt><trkpt lat="43.309940066044085" lon="10.787600491747938"><ele>82.0</ele><time>2026-04-18T13:17:29.001Z</time></trkpt><trkpt lat="43.31001384792356" lon="10.78755243702856"><ele>82.0</ele><time>2026-04-18T13:17:32.001Z</time></trkpt><trkpt lat="43.31008202085815" lon="10.787506310815552"><ele>82.0</ele><time>2026-04-18T13:17:35.001Z</time></trkpt><trkpt lat="43.310148811114644" lon="10.787473831433847"><ele>81.83333333333333</ele><time>2026-04-18T13:17:38.001Z</time></trkpt><trkpt lat="43.310212352233634" lon="10.787440821544315"><ele>81.66666666666666</ele><time>2026-04-18T13:17:40.001Z</time></trkpt><trkpt lat="43.31027819306877" lon="10.78740588034998"><ele>81.5</ele><time>2026-04-18T13:17:42.001Z</time></trkpt><trkpt lat="43.31036392383193" lon="10.787354785086562"><ele>81.33333333333333</ele><time>2026-04-18T13:17:45.001Z</time></trkpt><trkpt lat="43.3104373046464" lon="10.787293038888077"><ele>81.16666666666667</ele><time>2026-04-18T13:17:48.001Z</time></trkpt><trkpt lat="43.31047409194639" lon="10.787206417020416"><ele>81.0</ele><time>2026-04-18T13:17:51.001Z</time></trkpt><trkpt lat="43.31047871462166" lon="10.78711065758778"><ele>81.0</ele><time>2026-04-18T13:17:54.001Z</time></trkpt><trkpt lat="43.310486104566216" lon="10.787009668640469"><ele>81.0</ele><time>2026-04-18T13:17:57.001Z</time></trkpt><trkpt lat="43.310522613493184" lon="10.786900321165257"><ele>81.0</ele><time>2026-04-18T13:18:00.001Z</time></trkpt><trkpt lat="43.310570821454874" lon="10.786800361329295"><ele>81.0</ele><time>2026-04-18T13:18:03.001Z</time></trkpt><trkpt lat="43.310613757710314" lon="10.786714122608261"><ele>81.0</ele><time>2026-04-18T13:18:06.001Z</time></trkpt><trkpt lat="43.31062987136521" lon="10.786618739745247"><ele>81.0</ele><time>2026-04-18T13:18:10.001Z</time></trkpt><trkpt lat="43.310655184728674" lon="10.786526355957882"><ele>80.57142857142857</ele><time>2026-04-18T13:18:14.002Z</time></trkpt><trkpt lat="43.31070768691139" lon="10.786447983079716"><ele>80.14285714285714</ele><time>2026-04-18T13:18:18.002Z</time></trkpt><trkpt lat="43.31075385898157" lon="10.786389031058016"><ele>79.71428571428572</ele><time>2026-04-18T13:18:21.002Z</time></trkpt><trkpt lat="43.3108172493882" lon="10.786320254154225"><ele>79.28571428571428</ele><time>2026-04-18T13:18:25.002Z</time></trkpt><trkpt lat="43.310890894812054" lon="10.78626951448206"><ele>78.85714285714285</ele><time>2026-04-18T13:18:29.002Z</time></trkpt><trkpt lat="43.310940870359225" lon="10.786181487189662"><ele>78.42857142857143</ele><time>2026-04-18T13:18:33.002Z</time></trkpt><trkpt lat="43.31096485641412" lon="10.786099439549456"><ele>78.0</ele><time>2026-04-18T13:18:36.002Z</time></trkpt><trkpt lat="43.31101896017448" lon="10.786020746900764"><ele>77.83333333333333</ele><time>2026-04-18T13:18:39.002Z</time></trkpt><trkpt lat="43.31105706145636" lon="10.785947388861812"><ele>77.66666666666667</ele><time>2026-04-18T13:18:42.002Z</time></trkpt><trkpt lat="43.31109861980078" lon="10.785845838468225"><ele>77.5</ele><time>2026-04-18T13:18:45.002Z</time></trkpt><trkpt lat="43.31116362215169" lon="10.785756066382595"><ele>77.33333333333334</ele><time>2026-04-18T13:18:48.002Z</time></trkpt><trkpt lat="43.31121240822067" lon="10.785657098535065"><ele>77.16666666666667</ele><time>2026-04-18T13:18:51.002Z</time></trkpt><trkpt lat="43.31123186540359" lon="10.785542047389246"><ele>77.0</ele><time>2026-04-18T13:18:54.002Z</time></trkpt><trkpt lat="43.311235865604225" lon="10.78544831443643"><ele>77.0</ele><time>2026-04-18T13:18:55.999Z</time></trkpt><trkpt lat="43.31123675377336" lon="10.78534176913936"><ele>77.0</ele><time>2026-04-18T13:18:57.999Z</time></trkpt><trkpt lat="43.311248603361584" lon="10.785223887656683"><ele>77.0</ele><time>2026-04-18T13:18:59.999Z</time></trkpt><trkpt lat="43.3112641685923" lon="10.78511646174239"><ele>77.0</ele><time>2026-04-18T13:19:01.999Z</time></trkpt><trkpt lat="43.31127995268559" lon="10.785015483203347"><ele>77.0</ele><time>2026-04-18T13:19:03.999Z</time></trkpt><trkpt lat="43.31129795512694" lon="10.784921177214242"><ele>77.0</ele><time>2026-04-18T13:19:05.999Z</time></trkpt><trkpt lat="43.31131163312615" lon="10.784831845391816"><ele>77.14285714285714</ele><time>2026-04-18T13:19:07.999Z</time></trkpt><trkpt lat="43.31131751592325" lon="10.784724132257606"><ele>77.28571428571428</ele><time>2026-04-18T13:19:09.999Z</time></trkpt><trkpt lat="43.31130744802632" lon="10.784631291690191"><ele>77.42857142857143</ele><time>2026-04-18T13:19:12Z</time></trkpt><trkpt lat="43.31131043638268" lon="10.784721424808776"><ele>77.57142857142857</ele><time>2026-04-18T13:20:06.001Z</time></trkpt><trkpt lat="43.31130187465841" lon="10.784830105322781"><ele>77.71428571428571</ele><time>2026-04-18T13:20:10.001Z</time></trkpt><trkpt lat="43.31128631965711" lon="10.784920689344139"><ele>77.85714285714286</ele><time>2026-04-18T13:20:13.001Z</time></trkpt><trkpt lat="43.31127544355753" lon="10.78501500343383"><ele>78.0</ele><time>2026-04-18T13:20:16.001Z</time></trkpt><trkpt lat="43.31126159814312" lon="10.785112501896748"><ele>77.83333333333333</ele><time>2026-04-18T13:20:19.001Z</time></trkpt><trkpt lat="43.311244501900774" lon="10.785246688993167"><ele>77.66666666666667</ele><time>2026-04-18T13:20:22.001Z</time></trkpt><trkpt lat="43.31123924983963" lon="10.78535563900744"><ele>77.5</ele><time>2026-04-18T13:20:25.001Z</time></trkpt><trkpt lat="43.31123836743875" lon="10.785458784980984"><ele>77.33333333333334</ele><time>2026-04-18T13:20:28.002Z</time></trkpt><trkpt lat="43.311233424343754" lon="10.785553914649778"><ele>77.16666666666667</ele><time>2026-04-18T13:20:31.002Z</time></trkpt><trkpt lat="43.31121724149171" lon="10.785646155177249"><ele>77.0</ele><time>2026-04-18T13:20:34.002Z</time></trkpt><trkpt lat="43.3111861177929" lon="10.785722250039084"><ele>77.0</ele><time>2026-04-18T13:20:37.002Z</time></trkpt><trkpt lat="43.3111408097936" lon="10.785784957784152"><ele>77.0</ele><time>2026-04-18T13:20:42.002Z</time></trkpt><trkpt lat="43.31109998115571" lon="10.785856210334938"><ele>77.0</ele><time>2026-04-18T13:20:50.002Z</time></trkpt><trkpt lat="43.311068262054505" lon="10.785960108177195"><ele>77.0</ele><time>2026-04-18T13:20:54.002Z</time></trkpt><trkpt lat="43.31101626801981" lon="10.78601102755208"><ele>77.0</ele><time>2026-04-18T13:21:12Z</time></trkpt><trkpt lat="43.31094730947389" lon="10.78600733580101"><ele>77.0</ele><time>2026-04-18T13:21:19Z</time></trkpt><trkpt lat="43.31088424821984" lon="10.786006287291396"><ele>77.0</ele><time>2026-04-18T13:21:25Z</time></trkpt><trkpt lat="43.31081922743954" lon="10.78595118215025"><ele>77.0</ele><time>2026-04-18T13:21:30Z</time></trkpt><trkpt lat="43.31075571881877" lon="10.78593049739703"><ele>77.0</ele><time>2026-04-18T13:21:34Z</time></trkpt><trkpt lat="43.310698499746245" lon="10.785872150942218"><ele>77.0</ele><time>2026-04-18T13:21:39Z</time></trkpt><trkpt lat="43.31063842030859" lon="10.785819470315985"><ele>77.0</ele><time>2026-04-18T13:21:43Z</time></trkpt><trkpt lat="43.31057450559125" lon="10.78576325533001"><ele>77.0</ele><time>2026-04-18T13:21:48.001Z</time></trkpt><trkpt lat="43.3105150797763" lon="10.785710216867695"><ele>77.0</ele><time>2026-04-18T13:21:51.001Z</time></trkpt><trkpt lat="43.31046024269062" lon="10.785652676187015"><ele>77.0</ele><time>2026-04-18T13:21:54.001Z</time></trkpt><trkpt lat="43.31039460720619" lon="10.785610419309359"><ele>77.33333333333334</ele><time>2026-04-18T13:21:57.001Z</time></trkpt><trkpt lat="43.310322430949455" lon="10.78563178353385"><ele>77.66666666666667</ele><time>2026-04-18T13:22:00.001Z</time></trkpt><trkpt lat="43.31023230440773" lon="10.78563775017335"><ele>78.0</ele><time>2026-04-18T13:22:03.001Z</time></trkpt><trkpt lat="43.31014924604515" lon="10.78559135620762"><ele>78.33333333333333</ele><time>2026-04-18T13:22:06.001Z</time></trkpt><trkpt lat="43.31007112655935" lon="10.78552790182301"><ele>78.66666666666666</ele><time>2026-04-18T13:22:09.001Z</time></trkpt><trkpt lat="43.30998668447502" lon="10.785461236003552"><ele>79.0</ele><time>2026-04-18T13:22:12.001Z</time></trkpt><trkpt lat="43.30990436885695" lon="10.785404353874913"><ele>79.00000000000001</ele><time>2026-04-18T13:22:15.001Z</time></trkpt><trkpt lat="43.30985023846679" lon="10.78535173060025"><ele>79.0</ele><time>2026-04-18T13:22:17.001Z</time></trkpt><trkpt lat="43.30978931602935" lon="10.78527881429285"><ele>79.0</ele><time>2026-04-18T13:22:19.001Z</time></trkpt><trkpt lat="43.30973817549995" lon="10.78519687518067"><ele>79.0</ele><time>2026-04-18T13:22:21.001Z</time></trkpt><trkpt lat="43.30970048449683" lon="10.785118356829532"><ele>79.0</ele><time>2026-04-18T13:22:23.001Z</time></trkpt><trkpt lat="43.30967772065989" lon="10.785034439407786"><ele>79.00000000000001</ele><time>2026-04-18T13:22:25.001Z</time></trkpt><trkpt lat="43.30966470346788" lon="10.784939712351978"><ele>79.0</ele><time>2026-04-18T13:22:27.002Z</time></trkpt><trkpt lat="43.30963948485733" lon="10.784835717967399"><ele>79.71428571428572</ele><time>2026-04-18T13:22:29.002Z</time></trkpt><trkpt lat="43.30959316645148" lon="10.784739838618705"><ele>80.42857142857143</ele><time>2026-04-18T13:22:31.002Z</time></trkpt><trkpt lat="43.30954795843713" lon="10.78465546655381"><ele>81.14285714285714</ele><time>2026-04-18T13:22:33.002Z</time></trkpt><trkpt lat="43.30951674810982" lon="10.784577084057368"><ele>81.85714285714286</ele><time>2026-04-18T13:22:35.002Z</time></trkpt><trkpt lat="43.30951811551685" lon="10.784478267184689"><ele>82.57142857142857</ele><time>2026-04-18T13:22:38.002Z</time></trkpt><trkpt lat="43.309580979033825" lon="10.78442396191588"><ele>83.28571428571429</ele><time>2026-04-18T13:22:41.002Z</time></trkpt><trkpt lat="43.3096362854774" lon="10.784351740213067"><ele>84.0</ele><time>2026-04-18T13:22:43.002Z</time></trkpt><trkpt lat="43.30966910259361" lon="10.7842745444985"><ele>84.0</ele><time>2026-04-18T13:22:45.002Z</time></trkpt><trkpt lat="43.30971058667189" lon="10.78416978306993"><ele>84.0</ele><time>2026-04-18T13:22:48.002Z</time></trkpt><trkpt lat="43.30973074406344" lon="10.784072963303037"><ele>84.0</ele><time>2026-04-18T13:22:51.002Z</time></trkpt><trkpt lat="43.30968489584675" lon="10.783970537821494"><ele>84.0</ele><time>2026-04-18T13:22:54.002Z</time></trkpt><trkpt lat="43.309630841962125" lon="10.783880191389368"><ele>84.0</ele><time>2026-04-18T13:22:57.002Z</time></trkpt><trkpt lat="43.30957296304246" lon="10.78380826427721"><ele>84.0</ele><time>2026-04-18T13:23:00.002Z</time></trkpt><trkpt lat="43.30948410801172" lon="10.783804051443513"><ele>84.0</ele><time>2026-04-18T13:23:03.002Z</time></trkpt><trkpt lat="43.30941194824214" lon="10.78383008877576"><ele>84.0</ele><time>2026-04-18T13:23:05.002Z</time></trkpt><trkpt lat="43.30933352539366" lon="10.783850718516712"><ele>84.0</ele><time>2026-04-18T13:23:07.002Z</time></trkpt><trkpt lat="43.30925289459655" lon="10.783867111956546"><ele>84.0</ele><time>2026-04-18T13:23:08.999Z</time></trkpt><trkpt lat="43.3091755723366" lon="10.783899257390914"><ele>84.0</ele><time>2026-04-18T13:23:10.999Z</time></trkpt><trkpt lat="43.30910657495866" lon="10.783913929072105"><ele>84.0</ele><time>2026-04-18T13:23:12.999Z</time></trkpt><trkpt lat="43.30904086733661" lon="10.783927214336146"><ele>84.0</ele><time>2026-04-18T13:23:16Z</time></trkpt><trkpt lat="43.30894389024906" lon="10.78391757906009"><ele>84.0</ele><time>2026-04-18T13:23:18Z</time></trkpt><trkpt lat="43.3088532473427" lon="10.78389988351864"><ele>84.0</ele><time>2026-04-18T13:23:20Z</time></trkpt><trkpt lat="43.30874832231587" lon="10.783908832002645"><ele>84.0</ele><time>2026-04-18T13:23:22Z</time></trkpt><trkpt lat="43.3086518090989" lon="10.783905634864354"><ele>84.0</ele><time>2026-04-18T13:23:24Z</time></trkpt><trkpt lat="43.3085699091762" lon="10.783888427762122"><ele>84.66666666666667</ele><time>2026-04-18T13:23:26Z</time></trkpt><trkpt lat="43.308502971801474" lon="10.783881970666052"><ele>85.33333333333333</ele><time>2026-04-18T13:23:29Z</time></trkpt><trkpt lat="43.30841999935776" lon="10.783899679825781"><ele>86.0</ele><time>2026-04-18T13:23:32Z</time></trkpt><trkpt lat="43.3083264625433" lon="10.783865501570713"><ele>86.66666666666666</ele><time>2026-04-18T13:23:34Z</time></trkpt><trkpt lat="43.308247262469614" lon="10.78384001203675"><ele>87.33333333333333</ele><time>2026-04-18T13:23:36Z</time></trkpt><trkpt lat="43.30816109454374" lon="10.783811908090222"><ele>88.0</ele><time>2026-04-18T13:23:39Z</time></trkpt><trkpt lat="43.308091800801364" lon="10.783782342011094"><ele>88.0</ele><time>2026-04-18T13:23:41Z</time></trkpt><trkpt lat="43.30799547555204" lon="10.783777892914259"><ele>88.0</ele><time>2026-04-18T13:23:44Z</time></trkpt><trkpt lat="43.307917285057336" lon="10.783759979911949"><ele>88.0</ele><time>2026-04-18T13:23:46Z</time></trkpt><trkpt lat="43.30784155243691" lon="10.78372773237352"><ele>88.0</ele><time>2026-04-18T13:23:49Z</time></trkpt><trkpt lat="43.30777753815308" lon="10.783744877596195"><ele>88.0</ele><time>2026-04-18T13:23:51.001Z</time></trkpt><trkpt lat="43.3077165344168" lon="10.783716992967475"><ele>88.0</ele><time>2026-04-18T13:23:53.001Z</time></trkpt><trkpt lat="43.30764076577948" lon="10.783711607955782"><ele>88.0</ele><time>2026-04-18T13:23:56.001Z</time></trkpt><trkpt lat="43.3075576428005" lon="10.783688519246484"><ele>88.0</ele><time>2026-04-18T13:23:59.001Z</time></trkpt><trkpt lat="43.30750064593339" lon="10.7836481503724"><ele>88.0</ele><time>2026-04-18T13:24:01.001Z</time></trkpt><trkpt lat="43.30742480185859" lon="10.783556014382318"><ele>88.0</ele><time>2026-04-18T13:24:04.001Z</time></trkpt><trkpt lat="43.30737361486916" lon="10.783493994791673"><ele>88.0</ele><time>2026-04-18T13:24:06.001Z</time></trkpt><trkpt lat="43.307319040131006" lon="10.78343368556794"><ele>88.0</ele><time>2026-04-18T13:24:08.001Z</time></trkpt><trkpt lat="43.307244646471325" lon="10.78336278824705"><ele>89.5</ele><time>2026-04-18T13:24:10.001Z</time></trkpt><trkpt lat="43.30716445644355" lon="10.783282095875817"><ele>91.0</ele><time>2026-04-18T13:24:13.001Z</time></trkpt><trkpt lat="43.307108975823624" lon="10.783222458383031"><ele>92.5</ele><time>2026-04-18T13:24:14.001Z</time></trkpt><trkpt lat="43.30702875657922" lon="10.78314366787089"><ele>94.0</ele><time>2026-04-18T13:24:17.001Z</time></trkpt><trkpt lat="43.30697101629574" lon="10.783054832043792"><ele>95.50000000000001</ele><time>2026-04-18T13:24:19.001Z</time></trkpt><trkpt lat="43.30691961767768" lon="10.782994819836313"><ele>97.0</ele><time>2026-04-18T13:24:21.001Z</time></trkpt><trkpt lat="43.30687837348204" lon="10.78292531057575"><ele>97.0</ele><time>2026-04-18T13:24:24.001Z</time></trkpt><trkpt lat="43.30682031488898" lon="10.782867068844043"><ele>97.0</ele><time>2026-04-18T13:24:26.001Z</time></trkpt><trkpt lat="43.30676495624207" lon="10.782812283794714"><ele>97.0</ele><time>2026-04-18T13:24:28.002Z</time></trkpt><trkpt lat="43.30671060739694" lon="10.782759769417357"><ele>97.0</ele><time>2026-04-18T13:24:30.002Z</time></trkpt><trkpt lat="43.30665624092337" lon="10.782706000071004"><ele>97.0</ele><time>2026-04-18T13:24:32.002Z</time></trkpt><trkpt lat="43.306601953513336" lon="10.78263044006213"><ele>97.0</ele><time>2026-04-18T13:24:34.002Z</time></trkpt><trkpt lat="43.306560361652025" lon="10.782559521251061"><ele>97.0</ele><time>2026-04-18T13:24:36.002Z</time></trkpt><trkpt lat="43.30650654181861" lon="10.78249030753699"><ele>98.66666666666667</ele><time>2026-04-18T13:24:39.002Z</time></trkpt><trkpt lat="43.30643676976194" lon="10.782423909920343"><ele>100.33333333333334</ele><time>2026-04-18T13:24:42.002Z</time></trkpt><trkpt lat="43.30637522558823" lon="10.782340425298441"><ele>102.0</ele><time>2026-04-18T13:24:43.002Z</time></trkpt><trkpt lat="43.306321196094615" lon="10.782240914101635"><ele>103.66666666666666</ele><time>2026-04-18T13:24:45.002Z</time></trkpt><trkpt lat="43.306265456186715" lon="10.782150518480217"><ele>105.33333333333333</ele><time>2026-04-18T13:24:47.002Z</time></trkpt><trkpt lat="43.306215758042256" lon="10.782057364414383"><ele>107.0</ele><time>2026-04-18T13:24:49.002Z</time></trkpt><trkpt lat="43.30617813244319" lon="10.78197480181742"><ele>106.99999999999999</ele><time>2026-04-18T13:24:51.002Z</time></trkpt><trkpt lat="43.306152208325045" lon="10.781868074487127"><ele>107.0</ele><time>2026-04-18T13:24:53.002Z</time></trkpt><trkpt lat="43.30613542359481" lon="10.781775256157648"><ele>107.0</ele><time>2026-04-18T13:24:55.002Z</time></trkpt><trkpt lat="43.306094048065766" lon="10.781681527648889"><ele>107.0</ele><time>2026-04-18T13:24:57.002Z</time></trkpt><trkpt lat="43.306062157290334" lon="10.781602275067932"><ele>106.99999999999999</ele><time>2026-04-18T13:24:59.002Z</time></trkpt><trkpt lat="43.30602056917443" lon="10.781485950526324"><ele>107.0</ele><time>2026-04-18T13:25:01.002Z</time></trkpt><trkpt lat="43.30596670358094" lon="10.781357087903407"><ele>108.6</ele><time>2026-04-18T13:25:03.002Z</time></trkpt><trkpt lat="43.30592653909236" lon="10.781231908436784"><ele>110.19999999999999</ele><time>2026-04-18T13:25:05.002Z</time></trkpt><trkpt lat="43.30588964771185" lon="10.781109735344998"><ele>111.8</ele><time>2026-04-18T13:25:07.003Z</time></trkpt><trkpt lat="43.30584889702687" lon="10.781018516234772"><ele>113.4</ele><time>2026-04-18T13:25:08.003Z</time></trkpt><trkpt lat="43.30578906530814" lon="10.780884536989648"><ele>115.0</ele><time>2026-04-18T13:25:10.003Z</time></trkpt><trkpt lat="43.30574236457583" lon="10.780760347907203"><ele>114.57142857142856</ele><time>2026-04-18T13:25:12.003Z</time></trkpt><trkpt lat="43.305712977718976" lon="10.780671423089384"><ele>114.14285714285714</ele><time>2026-04-18T13:25:13.999Z</time></trkpt><trkpt lat="43.305685727252204" lon="10.780589122041842"><ele>113.71428571428571</ele><time>2026-04-18T13:25:16.999Z</time></trkpt><trkpt lat="43.30563197016335" lon="10.780517201356645"><ele>113.28571428571428</ele><time>2026-04-18T13:25:19.999Z</time></trkpt><trkpt lat="43.305583166364414" lon="10.780426083775678"><ele>112.85714285714286</ele><time>2026-04-18T13:25:22.999Z</time></trkpt><trkpt lat="43.3055306099394" lon="10.780330895038341"><ele>112.42857142857143</ele><time>2026-04-18T13:25:26Z</time></trkpt><trkpt lat="43.30548789616706" lon="10.780258280080034"><ele>112.0</ele><time>2026-04-18T13:25:28Z</time></trkpt><trkpt lat="43.3054467248402" lon="10.780187557066503"><ele>113.0</ele><time>2026-04-18T13:25:30Z</time></trkpt><trkpt lat="43.305404844534394" lon="10.780115495107454"><ele>114.0</ele><time>2026-04-18T13:25:32Z</time></trkpt><trkpt lat="43.30536640710285" lon="10.780044648326164"><ele>115.0</ele><time>2026-04-18T13:25:34Z</time></trkpt><trkpt lat="43.30530913192787" lon="10.779951741988404"><ele>116.0</ele><time>2026-04-18T13:25:37Z</time></trkpt><trkpt lat="43.305264420989296" lon="10.779886945818454"><ele>117.0</ele><time>2026-04-18T13:25:39Z</time></trkpt><trkpt lat="43.30521076789934" lon="10.779815324269327"><ele>118.0</ele><time>2026-04-18T13:25:41Z</time></trkpt><trkpt lat="43.305150569754765" lon="10.77973014520124"><ele>119.0</ele><time>2026-04-18T13:25:43Z</time></trkpt><trkpt lat="43.30509344224359" lon="10.779654630299914"><ele>118.99999999999999</ele><time>2026-04-18T13:25:45Z</time></trkpt><trkpt lat="43.30504031991588" lon="10.779588696037187"><ele>119.0</ele><time>2026-04-18T13:25:47Z</time></trkpt><trkpt lat="43.30499124523387" lon="10.77953040626127"><ele>119.0</ele><time>2026-04-18T13:25:49Z</time></trkpt><trkpt lat="43.30493091952885" lon="10.779465679086892"><ele>119.0</ele><time>2026-04-18T13:25:51Z</time></trkpt><trkpt lat="43.304861952564025" lon="10.77940696341236"><ele>118.99999999999999</ele><time>2026-04-18T13:25:53.001Z</time></trkpt><trkpt lat="43.30478907171784" lon="10.779350073155463"><ele>119.0</ele><time>2026-04-18T13:25:55.001Z</time></trkpt><trkpt lat="43.30470495230446" lon="10.779292862992245"><ele>118.99999999999999</ele><time>2026-04-18T13:25:57.001Z</time></trkpt><trkpt lat="43.30462145254471" lon="10.779242094346305"><ele>119.0</ele><time>2026-04-18T13:25:59.001Z</time></trkpt><trkpt lat="43.30455237434147" lon="10.77919236739257"><ele>119.0</ele><time>2026-04-18T13:26:02.001Z</time></trkpt><trkpt lat="43.304566038238605" lon="10.779090856029946"><ele>119.0</ele><time>2026-04-18T13:26:05.001Z</time></trkpt><trkpt lat="43.304621964572874" lon="10.779032718977398"><ele>118.99999999999999</ele><time>2026-04-18T13:26:07.001Z</time></trkpt><trkpt lat="43.30469128550478" lon="10.778975899983323"><ele>119.0</ele><time>2026-04-18T13:26:09.001Z</time></trkpt><trkpt lat="43.30476448932814" lon="10.778907479196809"><ele>119.0</ele><time>2026-04-18T13:26:11.001Z</time></trkpt><trkpt lat="43.304846259372155" lon="10.77882402155511"><ele>119.0</ele><time>2026-04-18T13:26:13.001Z</time></trkpt><trkpt lat="43.304954117759735" lon="10.778761184889591"><ele>119.0</ele><time>2026-04-18T13:26:15.001Z</time></trkpt><trkpt lat="43.30502949016163" lon="10.778643104438864"><ele>119.0</ele><time>2026-04-18T13:26:17.001Z</time></trkpt><trkpt lat="43.30509874772014" lon="10.778529211581542"><ele>119.0</ele><time>2026-04-18T13:26:19.001Z</time></trkpt><trkpt lat="43.3051655467215" lon="10.778402671800743"><ele>118.0</ele><time>2026-04-18T13:26:21.001Z</time></trkpt><trkpt lat="43.305236865804645" lon="10.778288720450677"><ele>117.0</ele><time>2026-04-18T13:26:23.001Z</time></trkpt><trkpt lat="43.30530600976403" lon="10.778169242203235"><ele>116.0</ele><time>2026-04-18T13:26:25.001Z</time></trkpt><trkpt lat="43.30538280895823" lon="10.778051113377582"><ele>115.0</ele><time>2026-04-18T13:26:27.002Z</time></trkpt><trkpt lat="43.30544489096133" lon="10.77791903788917"><ele>115.0</ele><time>2026-04-18T13:26:29.002Z</time></trkpt><trkpt lat="43.305511628673514" lon="10.777814974277172"><ele>115.0</ele><time>2026-04-18T13:26:31.002Z</time></trkpt><trkpt lat="43.30556528340633" lon="10.777699383184848"><ele>115.0</ele><time>2026-04-18T13:26:33.002Z</time></trkpt><trkpt lat="43.3055993495815" lon="10.777567635685779"><ele>115.0</ele><time>2026-04-18T13:26:35.002Z</time></trkpt><trkpt lat="43.305623573769935" lon="10.777431465101664"><ele>115.0</ele><time>2026-04-18T13:26:37.002Z</time></trkpt><trkpt lat="43.305653923301485" lon="10.777306743845406"><ele>113.8</ele><time>2026-04-18T13:26:39.002Z</time></trkpt><trkpt lat="43.30563843596777" lon="10.777185212285923"><ele>112.6</ele><time>2026-04-18T13:26:41.002Z</time></trkpt><trkpt lat="43.30557908626099" lon="10.777079108763639"><ele>111.4</ele><time>2026-04-18T13:26:43.002Z</time></trkpt><trkpt lat="43.30551688249822" lon="10.776962290511351"><ele>110.2</ele><time>2026-04-18T13:26:45.002Z</time></trkpt><trkpt lat="43.30546204844132" lon="10.776848922493578"><ele>109.0</ele><time>2026-04-18T13:26:47.002Z</time></trkpt><trkpt lat="43.30542528477419" lon="10.776715120804125"><ele>108.6</ele><time>2026-04-18T13:26:49.002Z</time></trkpt><trkpt lat="43.30541423771324" lon="10.776577467042813"><ele>108.2</ele><time>2026-04-18T13:26:51.002Z</time></trkpt><trkpt lat="43.30543183866797" lon="10.776454123458382"><ele>107.79999999999998</ele><time>2026-04-18T13:26:53.002Z</time></trkpt><trkpt lat="43.305499250120484" lon="10.77635030596827"><ele>107.39999999999999</ele><time>2026-04-18T13:26:55.002Z</time></trkpt><trkpt lat="43.30559428998631" lon="10.776268207436365"><ele>107.0</ele><time>2026-04-18T13:26:57.002Z</time></trkpt><trkpt lat="43.30569772140734" lon="10.776173375277525"><ele>105.85714285714286</ele><time>2026-04-18T13:26:59.002Z</time></trkpt><trkpt lat="43.305751582344506" lon="10.776125145734001"><ele>104.71428571428572</ele><time>2026-04-18T13:27:00.002Z</time></trkpt><trkpt lat="43.30580568557545" lon="10.776076699298434"><ele>103.57142857142858</ele><time>2026-04-18T13:27:01.002Z</time></trkpt><trkpt lat="43.305858296627854" lon="10.776000036730325"><ele>102.42857142857143</ele><time>2026-04-18T13:27:02.002Z</time></trkpt><trkpt lat="43.30591995026866" lon="10.775947564928469"><ele>101.28571428571428</ele><time>2026-04-18T13:27:03.003Z</time></trkpt><trkpt lat="43.30597577247" lon="10.775893560437973"><ele>100.14285714285715</ele><time>2026-04-18T13:27:04.003Z</time></trkpt><trkpt lat="43.30602433303284" lon="10.775835828645922"><ele>99.0</ele><time>2026-04-18T13:27:05.003Z</time></trkpt><trkpt lat="43.30607315248407" lon="10.775777643473196"><ele>98.4</ele><time>2026-04-18T13:27:06.003Z</time></trkpt><trkpt lat="43.30612227527199" lon="10.775720292726586"><ele>97.80000000000001</ele><time>2026-04-18T13:27:07.003Z</time></trkpt><trkpt lat="43.306220003207265" lon="10.775627455184157"><ele>97.19999999999999</ele><time>2026-04-18T13:27:09.003Z</time></trkpt><trkpt lat="43.30630204029841" lon="10.775510709137196"><ele>96.6</ele><time>2026-04-18T13:27:11.003Z</time></trkpt><trkpt lat="43.306379943796486" lon="10.775411480532759"><ele>96.0</ele><time>2026-04-18T13:27:13.003Z</time></trkpt><trkpt lat="43.30645746276371" lon="10.775313011046117"><ele>95.8</ele><time>2026-04-18T13:27:15.003Z</time></trkpt><trkpt lat="43.3065367108612" lon="10.77522317512506"><ele>95.6</ele><time>2026-04-18T13:27:17.003Z</time></trkpt><trkpt lat="43.306602143332675" lon="10.775109273139755"><ele>95.4</ele><time>2026-04-18T13:27:19.003Z</time></trkpt><trkpt lat="43.30663648947268" lon="10.775032556347549"><ele>95.2</ele><time>2026-04-18T13:27:20Z</time></trkpt><trkpt lat="43.30669784038532" lon="10.774958394755108"><ele>95.0</ele><time>2026-04-18T13:27:21Z</time></trkpt><trkpt lat="43.3067111766859" lon="10.774817581101257"><ele>95.0</ele><time>2026-04-18T13:27:24Z</time></trkpt><trkpt lat="43.306715685256115" lon="10.77470971577061"><ele>95.0</ele><time>2026-04-18T13:27:26Z</time></trkpt><trkpt lat="43.30670478302418" lon="10.774594242804444"><ele>95.0</ele><time>2026-04-18T13:27:28Z</time></trkpt><trkpt lat="43.30664343127376" lon="10.774462120192485"><ele>95.0</ele><time>2026-04-18T13:27:30Z</time></trkpt><trkpt lat="43.3065816228768" lon="10.774339185955949"><ele>95.0</ele><time>2026-04-18T13:27:32Z</time></trkpt><trkpt lat="43.3065725516006" lon="10.774207918211603"><ele>96.25</ele><time>2026-04-18T13:27:34Z</time></trkpt><trkpt lat="43.30660117847413" lon="10.774056149610445"><ele>97.5</ele><time>2026-04-18T13:27:36Z</time></trkpt><trkpt lat="43.3066713508515" lon="10.773924365640468"><ele>98.75</ele><time>2026-04-18T13:27:38Z</time></trkpt><trkpt lat="43.306758075630995" lon="10.77382687760465"><ele>100.0</ele><time>2026-04-18T13:27:40Z</time></trkpt><trkpt lat="43.30685563982879" lon="10.773772227999746"><ele>100.00000000000001</ele><time>2026-04-18T13:27:42Z</time></trkpt><trkpt lat="43.3069198794086" lon="10.773755280055532"><ele>100.0</ele><time>2026-04-18T13:27:43Z</time></trkpt><trkpt lat="43.30698735452704" lon="10.773736049651056"><ele>100.0</ele><time>2026-04-18T13:27:44Z</time></trkpt><trkpt lat="43.30705590809779" lon="10.773711488326038"><ele>100.0</ele><time>2026-04-18T13:27:45Z</time></trkpt><trkpt lat="43.307115201017346" lon="10.773648665746977"><ele>100.0</ele><time>2026-04-18T13:27:46Z</time></trkpt><trkpt lat="43.30717251341328" lon="10.77360564608128"><ele>100.00000000000001</ele><time>2026-04-18T13:27:47Z</time></trkpt><trkpt lat="43.30722956878763" lon="10.77355473841182"><ele>100.0</ele><time>2026-04-18T13:27:48Z</time></trkpt><trkpt lat="43.30728451458856" lon="10.773506443671106"><ele>103.0</ele><time>2026-04-18T13:27:49Z</time></trkpt><trkpt lat="43.307343022560254" lon="10.773470018132421"><ele>106.0</ele><time>2026-04-18T13:27:50Z</time></trkpt><trkpt lat="43.30743786814646" lon="10.773384741614942"><ele>109.0</ele><time>2026-04-18T13:27:52Z</time></trkpt><trkpt lat="43.30755157836679" lon="10.773313521170463"><ele>112.0</ele><time>2026-04-18T13:27:54Z</time></trkpt><trkpt lat="43.30765103663793" lon="10.773243455568897"><ele>115.0</ele><time>2026-04-18T13:27:56.001Z</time></trkpt><trkpt lat="43.307727981149505" lon="10.77314490806286"><ele>115.0</ele><time>2026-04-18T13:27:58.001Z</time></trkpt><trkpt lat="43.307790640212865" lon="10.77318919811499"><ele>115.0</ele><time>2026-04-18T13:27:59.001Z</time></trkpt><trkpt lat="43.307903174856335" lon="10.773136181503379"><ele>115.0</ele><time>2026-04-18T13:28:01.001Z</time></trkpt><trkpt lat="43.307975343101695" lon="10.773033838952488"><ele>115.0</ele><time>2026-04-18T13:28:03.001Z</time></trkpt><trkpt lat="43.308051315840515" lon="10.77295805451477"><ele>115.0</ele><time>2026-04-18T13:28:05.001Z</time></trkpt><trkpt lat="43.30809585121565" lon="10.772885519857233"><ele>115.0</ele><time>2026-04-18T13:28:07.001Z</time></trkpt><trkpt lat="43.30803645970739" lon="10.772810056725294"><ele>115.0</ele><time>2026-04-18T13:28:09.001Z</time></trkpt><trkpt lat="43.30794500536061" lon="10.772808964035914"><ele>115.0</ele><time>2026-04-18T13:28:11.001Z</time></trkpt><trkpt lat="43.30784006652679" lon="10.77279250958142"><ele>115.0</ele><time>2026-04-18T13:28:13.001Z</time></trkpt><trkpt lat="43.30773324303147" lon="10.772782585653065"><ele>115.0</ele><time>2026-04-18T13:28:15.001Z</time></trkpt><trkpt lat="43.307614568265194" lon="10.77277012436415"><ele>115.00000000000001</ele><time>2026-04-18T13:28:17.001Z</time></trkpt><trkpt lat="43.30749893011111" lon="10.772757013355237"><ele>115.0</ele><time>2026-04-18T13:28:19.001Z</time></trkpt><trkpt lat="43.307431836744975" lon="10.772755371094574"><ele>115.0</ele><time>2026-04-18T13:28:20.001Z</time></trkpt><trkpt lat="43.30736672260523" lon="10.77274641158831"><ele>115.0</ele><time>2026-04-18T13:28:21.001Z</time></trkpt><trkpt lat="43.307299322037025" lon="10.772740998327324"><ele>115.00000000000001</ele><time>2026-04-18T13:28:22.001Z</time></trkpt><trkpt lat="43.30722706015027" lon="10.772726270569317"><ele>115.0</ele><time>2026-04-18T13:28:23.001Z</time></trkpt><trkpt lat="43.30715519040089" lon="10.772681703151118"><ele>115.28571428571428</ele><time>2026-04-18T13:28:24.001Z</time></trkpt><trkpt lat="43.307074627861944" lon="10.772682561972168"><ele>115.57142857142857</ele><time>2026-04-18T13:28:25.001Z</time></trkpt><trkpt lat="43.307003128882876" lon="10.772700103605617"><ele>115.85714285714286</ele><time>2026-04-18T13:28:26.001Z</time></trkpt><trkpt lat="43.306927902139115" lon="10.772703763777512"><ele>116.14285714285714</ele><time>2026-04-18T13:28:27.001Z</time></trkpt><trkpt lat="43.30685551548901" lon="10.772685413801195"><ele>116.42857142857144</ele><time>2026-04-18T13:28:28.001Z</time></trkpt><trkpt lat="43.30678511597477" lon="10.772684303898119"><ele>116.71428571428572</ele><time>2026-04-18T13:28:29.001Z</time></trkpt><trkpt lat="43.30671460054005" lon="10.772679897441597"><ele>117.0</ele><time>2026-04-18T13:28:30.001Z</time></trkpt><trkpt lat="43.30658289801592" lon="10.772660434661802"><ele>117.0</ele><time>2026-04-18T13:28:32.002Z</time></trkpt><trkpt lat="43.306467018230144" lon="10.77261403624894"><ele>116.99999999999999</ele><time>2026-04-18T13:28:34.002Z</time></trkpt><trkpt lat="43.30636637843053" lon="10.772535918309968"><ele>116.99999999999999</ele><time>2026-04-18T13:28:36.002Z</time></trkpt><trkpt lat="43.30630131800806" lon="10.772403900179603"><ele>117.0</ele><time>2026-04-18T13:28:38.002Z</time></trkpt><trkpt lat="43.30628477912364" lon="10.772319057619422"><ele>117.0</ele><time>2026-04-18T13:28:39.002Z</time></trkpt><trkpt lat="43.3062668613073" lon="10.772220085949746"><ele>117.0</ele><time>2026-04-18T13:28:40.002Z</time></trkpt><trkpt lat="43.30624996689495" lon="10.772111078345908"><ele>116.99999999999999</ele><time>2026-04-18T13:28:41.002Z</time></trkpt><trkpt lat="43.30622221316915" lon="10.771985731686605"><ele>116.99999999999999</ele><time>2026-04-18T13:28:42.002Z</time></trkpt><trkpt lat="43.30620550581999" lon="10.771861033642182"><ele>117.0</ele><time>2026-04-18T13:28:43.002Z</time></trkpt><trkpt lat="43.30620455659473" lon="10.771725190730356"><ele>117.0</ele><time>2026-04-18T13:28:44.002Z</time></trkpt><trkpt lat="43.30619027751342" lon="10.771594807669542"><ele>118.39999999999999</ele><time>2026-04-18T13:28:45.002Z</time></trkpt><trkpt lat="43.30617878788634" lon="10.771458605455098"><ele>119.79999999999998</ele><time>2026-04-18T13:28:46.002Z</time></trkpt><trkpt lat="43.30617124534313" lon="10.771329916415866"><ele>121.2</ele><time>2026-04-18T13:28:47.002Z</time></trkpt><trkpt lat="43.30616500813172" lon="10.77120770844927"><ele>122.6</ele><time>2026-04-18T13:28:48.002Z</time></trkpt><trkpt lat="43.30614250885368" lon="10.771086514142645"><ele>124.0</ele><time>2026-04-18T13:28:49.002Z</time></trkpt><trkpt lat="43.30613926319299" lon="10.770962207713056"><ele>125.16666666666667</ele><time>2026-04-18T13:28:50.002Z</time></trkpt><trkpt lat="43.30613332579587" lon="10.770841950406417"><ele>126.33333333333334</ele><time>2026-04-18T13:28:51.002Z</time></trkpt><trkpt lat="43.30612622721347" lon="10.770727243767322"><ele>127.5</ele><time>2026-04-18T13:28:52.002Z</time></trkpt><trkpt lat="43.306116556915164" lon="10.77061821744122"><ele>128.66666666666666</ele><time>2026-04-18T13:28:53.002Z</time></trkpt><trkpt lat="43.306098730177936" lon="10.770509006193471"><ele>129.83333333333331</ele><time>2026-04-18T13:28:54.002Z</time></trkpt><trkpt lat="43.306069348320385" lon="10.770402081499194"><ele>131.0</ele><time>2026-04-18T13:28:55.002Z</time></trkpt><trkpt lat="43.30603570983098" lon="10.770301038394887"><ele>131.83333333333331</ele><time>2026-04-18T13:28:56.002Z</time></trkpt><trkpt lat="43.30601148059859" lon="10.770187914415958"><ele>132.66666666666666</ele><time>2026-04-18T13:28:57.002Z</time></trkpt><trkpt lat="43.3059593139469" lon="10.770094302721784"><ele>133.5</ele><time>2026-04-18T13:28:58.002Z</time></trkpt><trkpt lat="43.30592447973692" lon="10.769982564410402"><ele>134.33333333333334</ele><time>2026-04-18T13:28:59.002Z</time></trkpt><trkpt lat="43.30586604791462" lon="10.76989550301519"><ele>135.16666666666669</ele><time>2026-04-18T13:29:00.002Z</time></trkpt><trkpt lat="43.305826022899296" lon="10.769793395956045"><ele>136.0</ele><time>2026-04-18T13:29:01.002Z</time></trkpt><trkpt lat="43.305793254232626" lon="10.769686555421982"><ele>135.99999999999997</ele><time>2026-04-18T13:29:02.002Z</time></trkpt><trkpt lat="43.305772932083364" lon="10.76958044573641"><ele>136.0</ele><time>2026-04-18T13:29:03.002Z</time></trkpt><trkpt lat="43.305756025776084" lon="10.769480462776235"><ele>136.0</ele><time>2026-04-18T13:29:04.002Z</time></trkpt><trkpt lat="43.30573179751376" lon="10.7693855717375"><ele>136.0</ele><time>2026-04-18T13:29:05.002Z</time></trkpt><trkpt lat="43.30569109511915" lon="10.769300755551283"><ele>136.0</ele><time>2026-04-18T13:29:06.003Z</time></trkpt><trkpt lat="43.30564244752189" lon="10.769228744293336"><ele>135.99999999999997</ele><time>2026-04-18T13:29:07.003Z</time></trkpt><trkpt lat="43.30559303428682" lon="10.769154994994242"><ele>136.0</ele><time>2026-04-18T13:29:08.003Z</time></trkpt><trkpt lat="43.3055430232946" lon="10.76907863005237"><ele>136.66666666666669</ele><time>2026-04-18T13:29:09.003Z</time></trkpt><trkpt lat="43.30549110794884" lon="10.768999806178238"><ele>137.33333333333334</ele><time>2026-04-18T13:29:10.003Z</time></trkpt><trkpt lat="43.305441187331716" lon="10.76892020399055"><ele>138.0</ele><time>2026-04-18T13:29:11.003Z</time></trkpt><trkpt lat="43.30539951371637" lon="10.768855147584274"><ele>138.66666666666666</ele><time>2026-04-18T13:29:12.003Z</time></trkpt><trkpt lat="43.305337094423834" lon="10.768752004433116"><ele>139.33333333333331</ele><time>2026-04-18T13:29:14.003Z</time></trkpt><trkpt lat="43.30529316270072" lon="10.768676393926404"><ele>140.0</ele><time>2026-04-18T13:29:23.003Z</time></trkpt><trkpt lat="43.30526172420315" lon="10.768581389109075"><ele>140.8</ele><time>2026-04-18T13:29:25.003Z</time></trkpt><trkpt lat="43.305231451629226" lon="10.768448312326056"><ele>141.6</ele><time>2026-04-18T13:29:27Z</time></trkpt><trkpt lat="43.30522258180674" lon="10.768310078812215"><ele>142.4</ele><time>2026-04-18T13:29:29Z</time></trkpt><trkpt lat="43.305200136516724" lon="10.768155527903293"><ele>143.2</ele><time>2026-04-18T13:29:31Z</time></trkpt><trkpt lat="43.305192046050756" lon="10.76797965426706"><ele>144.0</ele><time>2026-04-18T13:29:33Z</time></trkpt><trkpt lat="43.30520705147009" lon="10.767885814123042"><ele>144.0</ele><time>2026-04-18T13:29:34Z</time></trkpt><trkpt lat="43.305207051468564" lon="10.767791905574654"><ele>144.0</ele><time>2026-04-18T13:29:35Z</time></trkpt><trkpt lat="43.30520705146713" lon="10.767701074991129"><ele>144.0</ele><time>2026-04-18T13:29:36Z</time></trkpt><trkpt lat="43.30520705146411" lon="10.767552615179158"><ele>144.0</ele><time>2026-04-18T13:29:38Z</time></trkpt><trkpt lat="43.3051956197234" lon="10.767466315064492"><ele>144.0</ele><time>2026-04-18T13:29:41Z</time></trkpt><trkpt lat="43.305069115156215" lon="10.767394695278767"><ele>144.0</ele><time>2026-04-18T13:29:46Z</time></trkpt><trkpt lat="43.30499860352267" lon="10.767391707376897"><ele>144.66666666666666</ele><time>2026-04-18T13:29:47Z</time></trkpt><trkpt lat="43.30492264063523" lon="10.767385664531433"><ele>145.33333333333334</ele><time>2026-04-18T13:29:48Z</time></trkpt><trkpt lat="43.304856337470945" lon="10.767371117110011"><ele>146.0</ele><time>2026-04-18T13:29:49.001Z</time></trkpt><trkpt lat="43.30478195169346" lon="10.767349078081192"><ele>146.66666666666669</ele><time>2026-04-18T13:29:50.001Z</time></trkpt><trkpt lat="43.30470200369702" lon="10.767321653721005"><ele>147.33333333333334</ele><time>2026-04-18T13:29:51.001Z</time></trkpt><trkpt lat="43.30461215408506" lon="10.767288823696148"><ele>148.0</ele><time>2026-04-18T13:29:52.001Z</time></trkpt><trkpt lat="43.3045168959766" lon="10.767246772704008"><ele>148.6</ele><time>2026-04-18T13:29:53.001Z</time></trkpt><trkpt lat="43.30441688309277" lon="10.76720208034515"><ele>149.20000000000002</ele><time>2026-04-18T13:29:54.001Z</time></trkpt><trkpt lat="43.30432131831491" lon="10.76716174165631"><ele>149.8</ele><time>2026-04-18T13:29:55.001Z</time></trkpt><trkpt lat="43.30422163117064" lon="10.767124644359464"><ele>150.4</ele><time>2026-04-18T13:29:56.001Z</time></trkpt><trkpt lat="43.304116216788316" lon="10.767088728615342"><ele>151.0</ele><time>2026-04-18T13:29:57.001Z</time></trkpt><trkpt lat="43.304010413125305" lon="10.767066772571615"><ele>151.6</ele><time>2026-04-18T13:29:58.001Z</time></trkpt><trkpt lat="43.303904484549335" lon="10.767061657253958"><ele>152.2</ele><time>2026-04-18T13:29:59.001Z</time></trkpt><trkpt lat="43.30379627111929" lon="10.767066854668766"><ele>152.8</ele><time>2026-04-18T13:30:00.001Z</time></trkpt><trkpt lat="43.30368690272943" lon="10.767092644291624"><ele>153.4</ele><time>2026-04-18T13:30:01.001Z</time></trkpt><trkpt lat="43.30357457922895" lon="10.767127370547737"><ele>154.0</ele><time>2026-04-18T13:30:02.001Z</time></trkpt><trkpt lat="43.303459161802735" lon="10.767165711400938"><ele>154.0</ele><time>2026-04-18T13:30:03.001Z</time></trkpt><trkpt lat="43.30334064613459" lon="10.767205687752762"><ele>154.0</ele><time>2026-04-18T13:30:04.001Z</time></trkpt><trkpt lat="43.3032144830167" lon="10.767249375951478"><ele>154.0</ele><time>2026-04-18T13:30:05.001Z</time></trkpt><trkpt lat="43.30308385468136" lon="10.76729366849171"><ele>154.0</ele><time>2026-04-18T13:30:06.001Z</time></trkpt><trkpt lat="43.30295021943581" lon="10.76734075812866"><ele>154.25</ele><time>2026-04-18T13:30:07.001Z</time></trkpt><trkpt lat="43.30280862229362" lon="10.767391110512838"><ele>154.5</ele><time>2026-04-18T13:30:08.001Z</time></trkpt><trkpt lat="43.30266870642401" lon="10.767440994606755"><ele>154.75</ele><time>2026-04-18T13:30:09.001Z</time></trkpt><trkpt lat="43.30252885024619" lon="10.767491736207878"><ele>155.0</ele><time>2026-04-18T13:30:10.001Z</time></trkpt><trkpt lat="43.302390541957315" lon="10.767539416568424"><ele>155.0</ele><time>2026-04-18T13:30:11.001Z</time></trkpt><trkpt lat="43.302256057023605" lon="10.767589140739863"><ele>155.0</ele><time>2026-04-18T13:30:12.001Z</time></trkpt><trkpt lat="43.30212196924919" lon="10.76763971102115"><ele>155.0</ele><time>2026-04-18T13:30:13.001Z</time></trkpt><trkpt lat="43.301986856465945" lon="10.767691255511297"><ele>155.0</ele><time>2026-04-18T13:30:14.001Z</time></trkpt><trkpt lat="43.30185318781286" lon="10.767743645213798"><ele>154.75</ele><time>2026-04-18T13:30:15.001Z</time></trkpt><trkpt lat="43.301721186967995" lon="10.767797057329329"><ele>154.5</ele><time>2026-04-18T13:30:16.001Z</time></trkpt><trkpt lat="43.30159005672774" lon="10.767847659380925"><ele>154.25</ele><time>2026-04-18T13:30:17.001Z</time></trkpt><trkpt lat="43.3014590968539" lon="10.767896216872881"><ele>154.0</ele><time>2026-04-18T13:30:18.001Z</time></trkpt><trkpt lat="43.301328564148356" lon="10.76794641795412"><ele>154.75</ele><time>2026-04-18T13:30:19.001Z</time></trkpt><trkpt lat="43.30119557013801" lon="10.767998874013221"><ele>155.5</ele><time>2026-04-18T13:30:20.001Z</time></trkpt><trkpt lat="43.30106406101868" lon="10.768050361559993"><ele>156.25</ele><time>2026-04-18T13:30:21.001Z</time></trkpt><trkpt lat="43.30093510629712" lon="10.768099252763074"><ele>157.0</ele><time>2026-04-18T13:30:22.001Z</time></trkpt><trkpt lat="43.30080751857059" lon="10.768145853457224"><ele>157.0</ele><time>2026-04-18T13:30:23.001Z</time></trkpt><trkpt lat="43.30067881575887" lon="10.7681849075528"><ele>157.0</ele><time>2026-04-18T13:30:24.001Z</time></trkpt><trkpt lat="43.300549340148386" lon="10.768218134539612"><ele>157.0</ele><time>2026-04-18T13:30:25.001Z</time></trkpt><trkpt lat="43.30041529343437" lon="10.768240423171267"><ele>157.0</ele><time>2026-04-18T13:30:26.002Z</time></trkpt><trkpt lat="43.30027969288476" lon="10.768257942105818"><ele>158.75</ele><time>2026-04-18T13:30:27.002Z</time></trkpt><trkpt lat="43.30014127375012" lon="10.7682670948151"><ele>160.5</ele><time>2026-04-18T13:30:28.002Z</time></trkpt><trkpt lat="43.30000399884695" lon="10.768269478874528"><ele>162.25</ele><time>2026-04-18T13:30:29.002Z</time></trkpt><trkpt lat="43.29986574626289" lon="10.768265202716863"><ele>164.0</ele><time>2026-04-18T13:30:30.002Z</time></trkpt><trkpt lat="43.299728585978905" lon="10.768245097932686"><ele>165.5</ele><time>2026-04-18T13:30:31.002Z</time></trkpt><trkpt lat="43.29959264287728" lon="10.768208623291416"><ele>167.0</ele><time>2026-04-18T13:30:32.002Z</time></trkpt><trkpt lat="43.29945570134397" lon="10.768164376812548"><ele>168.5</ele><time>2026-04-18T13:30:33.002Z</time></trkpt><trkpt lat="43.2993216000052" lon="10.76811785424558"><ele>170.0</ele><time>2026-04-18T13:30:34.002Z</time></trkpt><trkpt lat="43.29918826767333" lon="10.768070134593186"><ele>170.0</ele><time>2026-04-18T13:30:35.002Z</time></trkpt><trkpt lat="43.29905486478478" lon="10.768021640009156"><ele>170.0</ele><time>2026-04-18T13:30:36.002Z</time></trkpt><trkpt lat="43.29892316826294" lon="10.76797252865153"><ele>170.0</ele><time>2026-04-18T13:30:37.002Z</time></trkpt><trkpt lat="43.29879191827442" lon="10.76792148135466"><ele>170.0</ele><time>2026-04-18T13:30:38.002Z</time></trkpt><trkpt lat="43.29866163822856" lon="10.767869221058906"><ele>172.5</ele><time>2026-04-18T13:30:39.002Z</time></trkpt><trkpt lat="43.29853106905127" lon="10.767810542210643"><ele>175.0</ele><time>2026-04-18T13:30:40.002Z</time></trkpt><trkpt lat="43.29840462865507" lon="10.767744551166443"><ele>177.5</ele><time>2026-04-18T13:30:41.002Z</time></trkpt><trkpt lat="43.298282713002735" lon="10.767687742118326"><ele>180.0</ele><time>2026-04-18T13:30:42.002Z</time></trkpt><trkpt lat="43.29816912907688" lon="10.7676258283283"><ele>181.6</ele><time>2026-04-18T13:30:43.002Z</time></trkpt><trkpt lat="43.29805128995573" lon="10.767635720574932"><ele>183.2</ele><time>2026-04-18T13:30:44.002Z</time></trkpt><trkpt lat="43.29794029619233" lon="10.76765030868573"><ele>184.8</ele><time>2026-04-18T13:30:45.002Z</time></trkpt><trkpt lat="43.29783359049257" lon="10.767681595378216"><ele>186.4</ele><time>2026-04-18T13:30:46.002Z</time></trkpt><trkpt lat="43.29773034767349" lon="10.767709216595657"><ele>188.0</ele><time>2026-04-18T13:30:47.002Z</time></trkpt><trkpt lat="43.297632020930195" lon="10.767738119064518"><ele>188.0</ele><time>2026-04-18T13:30:48.002Z</time></trkpt><trkpt lat="43.29754301958463" lon="10.767771487994997"><ele>188.0</ele><time>2026-04-18T13:30:49.002Z</time></trkpt><trkpt lat="43.29745010559722" lon="10.76781631447773"><ele>188.0</ele><time>2026-04-18T13:30:50.002Z</time></trkpt><trkpt lat="43.297360241733614" lon="10.76788375939433"><ele>188.0</ele><time>2026-04-18T13:30:51.002Z</time></trkpt><trkpt lat="43.29727663572972" lon="10.76796237220358"><ele>188.0</ele><time>2026-04-18T13:30:52.002Z</time></trkpt><trkpt lat="43.29719171645731" lon="10.768052236510536"><ele>190.4</ele><time>2026-04-18T13:30:53.002Z</time></trkpt><trkpt lat="43.29711022914689" lon="10.768139647505771"><ele>192.8</ele><time>2026-04-18T13:30:54.002Z</time></trkpt><trkpt lat="43.29704446814541" lon="10.768203140672"><ele>195.2</ele><time>2026-04-18T13:30:55.002Z</time></trkpt><trkpt lat="43.29698445852538" lon="10.768248407428304"><ele>197.6</ele><time>2026-04-18T13:30:56.002Z</time></trkpt><trkpt lat="43.29686841778668" lon="10.768319125016593"><ele>200.0</ele><time>2026-04-18T13:30:58.002Z</time></trkpt><trkpt lat="43.296798272808516" lon="10.768352106662016"><ele>200.00000000000003</ele><time>2026-04-18T13:30:59.002Z</time></trkpt><trkpt lat="43.29672589487759" lon="10.768397944393145"><ele>200.0</ele><time>2026-04-18T13:31:00.002Z</time></trkpt><trkpt lat="43.29664612965053" lon="10.768399838878207"><ele>200.0</ele><time>2026-04-18T13:31:01.002Z</time></trkpt><trkpt lat="43.29656208676402" lon="10.76841167562658"><ele>200.0</ele><time>2026-04-18T13:31:02.003Z</time></trkpt><trkpt lat="43.296473016215614" lon="10.768428241068136"><ele>200.00000000000003</ele><time>2026-04-18T13:31:03.003Z</time></trkpt><trkpt lat="43.29638080340333" lon="10.768420236895746"><ele>200.0</ele><time>2026-04-18T13:31:04.003Z</time></trkpt><trkpt lat="43.296290599981155" lon="10.76841661235669"><ele>200.8</ele><time>2026-04-18T13:31:05.003Z</time></trkpt><trkpt lat="43.29619432432248" lon="10.768412371764516"><ele>201.6</ele><time>2026-04-18T13:31:06.003Z</time></trkpt><trkpt lat="43.29609255779038" lon="10.768404978318083"><ele>202.39999999999998</ele><time>2026-04-18T13:31:07.003Z</time></trkpt><trkpt lat="43.295995308519444" lon="10.768402208144574"><ele>203.2</ele><time>2026-04-18T13:31:08.003Z</time></trkpt><trkpt lat="43.295893574984895" lon="10.768382778913294"><ele>204.0</ele><time>2026-04-18T13:31:09.003Z</time></trkpt><trkpt lat="43.295792438040074" lon="10.768373074393562"><ele>204.0</ele><time>2026-04-18T13:31:10.003Z</time></trkpt><trkpt lat="43.295689800607285" lon="10.768365119829472"><ele>204.0</ele><time>2026-04-18T13:31:11.003Z</time></trkpt><trkpt lat="43.295583167857814" lon="10.768371905490637"><ele>204.0</ele><time>2026-04-18T13:31:12.003Z</time></trkpt><trkpt lat="43.295477602776636" lon="10.768398866103277"><ele>204.0</ele><time>2026-04-18T13:31:13.003Z</time></trkpt><trkpt lat="43.29536354369144" lon="10.768431145318496"><ele>204.0</ele><time>2026-04-18T13:31:14.003Z</time></trkpt><trkpt lat="43.295244581678375" lon="10.768459382148196"><ele>205.25</ele><time>2026-04-18T13:31:15.003Z</time></trkpt><trkpt lat="43.295123521792725" lon="10.768484396676943"><ele>206.5</ele><time>2026-04-18T13:31:16.003Z</time></trkpt><trkpt lat="43.294999673939564" lon="10.768504102427165"><ele>207.75</ele><time>2026-04-18T13:31:17.003Z</time></trkpt><trkpt lat="43.294876323093014" lon="10.76851403601823"><ele>209.0</ele><time>2026-04-18T13:31:18.003Z</time></trkpt><trkpt lat="43.29475245685021" lon="10.768513305965461"><ele>210.25</ele><time>2026-04-18T13:31:19.003Z</time></trkpt><trkpt lat="43.294630534653436" lon="10.768496734046797"><ele>211.5</ele><time>2026-04-18T13:31:20.003Z</time></trkpt><trkpt lat="43.29451104533691" lon="10.768468670253545"><ele>212.75</ele><time>2026-04-18T13:31:21.003Z</time></trkpt><trkpt lat="43.29439711662129" lon="10.768449534412998"><ele>214.0</ele><time>2026-04-18T13:31:22.003Z</time></trkpt><trkpt lat="43.294284458716405" lon="10.768451640369406"><ele>214.0</ele><time>2026-04-18T13:31:23.003Z</time></trkpt><trkpt lat="43.294178699355605" lon="10.768490788895354"><ele>214.0</ele><time>2026-04-18T13:31:24.003Z</time></trkpt><trkpt lat="43.294062363695964" lon="10.768532562468502"><ele>214.0</ele><time>2026-04-18T13:31:25.003Z</time></trkpt><trkpt lat="43.29394532985521" lon="10.768563879949614"><ele>214.0</ele><time>2026-04-18T13:31:26.003Z</time></trkpt><trkpt lat="43.293828875328416" lon="10.768586755422515"><ele>209.5</ele><time>2026-04-18T13:31:27.003Z</time></trkpt><trkpt lat="43.29371499725041" lon="10.768571047489495"><ele>205.0</ele><time>2026-04-18T13:31:28.003Z</time></trkpt><trkpt lat="43.29359766169646" lon="10.76857526437649"><ele>200.5</ele><time>2026-04-18T13:31:29.003Z</time></trkpt><trkpt lat="43.293474792823694" lon="10.768590867564026"><ele>196.0</ele><time>2026-04-18T13:31:30.003Z</time></trkpt><trkpt lat="43.293362412557876" lon="10.768633994156334"><ele>196.0</ele><time>2026-04-18T13:31:31.003Z</time></trkpt><trkpt lat="43.293253760272606" lon="10.768635458837165"><ele>196.0</ele><time>2026-04-18T13:31:32.001Z</time></trkpt><trkpt lat="43.293145147693764" lon="10.768628970674426"><ele>196.0</ele><time>2026-04-18T13:31:33.001Z</time></trkpt><trkpt lat="43.29303532335837" lon="10.76860009525317"><ele>196.0</ele><time>2026-04-18T13:31:34.001Z</time></trkpt><trkpt lat="43.29291956805438" lon="10.768563891129952"><ele>196.0</ele><time>2026-04-18T13:31:35.001Z</time></trkpt><trkpt lat="43.29279143530352" lon="10.768515108382745"><ele>198.75</ele><time>2026-04-18T13:31:36.001Z</time></trkpt><trkpt lat="43.29267269138061" lon="10.768474613044297"><ele>201.5</ele><time>2026-04-18T13:31:37.001Z</time></trkpt><trkpt lat="43.29255172465561" lon="10.76843365576893"><ele>204.25</ele><time>2026-04-18T13:31:38.001Z</time></trkpt><trkpt lat="43.292437134515" lon="10.76839094073353"><ele>207.0</ele><time>2026-04-18T13:31:39Z</time></trkpt><trkpt lat="43.29231831546171" lon="10.768346999697803"><ele>207.0</ele><time>2026-04-18T13:31:40.001Z</time></trkpt><trkpt lat="43.292200894025285" lon="10.768298104770494"><ele>207.0</ele><time>2026-04-18T13:31:41Z</time></trkpt><trkpt lat="43.292085189943506" lon="10.76824586710489"><ele>207.0</ele><time>2026-04-18T13:31:42Z</time></trkpt><trkpt lat="43.2919653747935" lon="10.768203522131023"><ele>207.0</ele><time>2026-04-18T13:31:43Z</time></trkpt><trkpt lat="43.29184499464848" lon="10.768165040375916"><ele>207.0</ele><time>2026-04-18T13:31:44Z</time></trkpt><trkpt lat="43.291717759454635" lon="10.768141839069845"><ele>207.0</ele><time>2026-04-18T13:31:45Z</time></trkpt><trkpt lat="43.29158810371207" lon="10.768127624443862"><ele>207.0</ele><time>2026-04-18T13:31:46Z</time></trkpt><trkpt lat="43.29145319210839" lon="10.76812274742196"><ele>207.0</ele><time>2026-04-18T13:31:47Z</time></trkpt><trkpt lat="43.29130917720408" lon="10.768115612200353"><ele>208.0</ele><time>2026-04-18T13:31:48Z</time></trkpt><trkpt lat="43.29116257000189" lon="10.768112195922138"><ele>209.0</ele><time>2026-04-18T13:31:49Z</time></trkpt><trkpt lat="43.291015046202794" lon="10.768109262185112"><ele>210.0</ele><time>2026-04-18T13:31:50Z</time></trkpt><trkpt lat="43.29087079742775" lon="10.76810739535517"><ele>211.0</ele><time>2026-04-18T13:31:51.001Z</time></trkpt><trkpt lat="43.290725408776325" lon="10.768105449890555"><ele>213.5</ele><time>2026-04-18T13:31:52.001Z</time></trkpt><trkpt lat="43.290581354827935" lon="10.768102034773364"><ele>216.0</ele><time>2026-04-18T13:31:53.001Z</time></trkpt><trkpt lat="43.290440385480636" lon="10.768097027656554"><ele>218.5</ele><time>2026-04-18T13:31:54.001Z</time></trkpt><trkpt lat="43.29029656134828" lon="10.76809547828436"><ele>221.0</ele><time>2026-04-18T13:31:55.001Z</time></trkpt><trkpt lat="43.29015329350995" lon="10.768091235741966"><ele>221.0</ele><time>2026-04-18T13:31:56.001Z</time></trkpt><trkpt lat="43.29001170929097" lon="10.768087000794317"><ele>221.0</ele><time>2026-04-18T13:31:57.001Z</time></trkpt><trkpt lat="43.28987130672216" lon="10.768082254166941"><ele>221.0</ele><time>2026-04-18T13:31:58.001Z</time></trkpt><trkpt lat="43.28973075480604" lon="10.768080082304778"><ele>221.0</ele><time>2026-04-18T13:31:59.001Z</time></trkpt><trkpt lat="43.289590755666495" lon="10.768078617660839"><ele>223.5</ele><time>2026-04-18T13:32:00.001Z</time></trkpt><trkpt lat="43.289451203278745" lon="10.768073384001783"><ele>226.0</ele><time>2026-04-18T13:32:01.001Z</time></trkpt><trkpt lat="43.289310347755524" lon="10.768069643578933"><ele>228.5</ele><time>2026-04-18T13:32:02.001Z</time></trkpt><trkpt lat="43.28917338184738" lon="10.768066484309317"><ele>231.0</ele><time>2026-04-18T13:32:03.001Z</time></trkpt><trkpt lat="43.28904674787859" lon="10.76807105279523"><ele>231.0</ele><time>2026-04-18T13:32:04.001Z</time></trkpt><trkpt lat="43.28893171341422" lon="10.76807575564233"><ele>231.00000000000003</ele><time>2026-04-18T13:32:05.001Z</time></trkpt><trkpt lat="43.28882425211839" lon="10.768076325015025"><ele>231.00000000000003</ele><time>2026-04-18T13:32:06.001Z</time></trkpt><trkpt lat="43.28871984396951" lon="10.768056229664191"><ele>231.0</ele><time>2026-04-18T13:32:07.001Z</time></trkpt><trkpt lat="43.28861967888619" lon="10.768008302689392"><ele>231.0</ele><time>2026-04-18T13:32:08.001Z</time></trkpt><trkpt lat="43.288531052868" lon="10.76793543026163"><ele>232.20000000000002</ele><time>2026-04-18T13:32:09.001Z</time></trkpt><trkpt lat="43.28845518117952" lon="10.76784546924617"><ele>233.40000000000003</ele><time>2026-04-18T13:32:10.001Z</time></trkpt><trkpt lat="43.288382057664435" lon="10.767756563730082"><ele>234.6</ele><time>2026-04-18T13:32:11.001Z</time></trkpt><trkpt lat="43.28831010010511" lon="10.767673798766301"><ele>235.8</ele><time>2026-04-18T13:32:12.001Z</time></trkpt><trkpt lat="43.288242180904014" lon="10.767584651329106"><ele>237.0</ele><time>2026-04-18T13:32:13.001Z</time></trkpt><trkpt lat="43.2881823458956" lon="10.767488171871024"><ele>239.6</ele><time>2026-04-18T13:32:14.001Z</time></trkpt><trkpt lat="43.28812994342817" lon="10.767380675320373"><ele>242.2</ele><time>2026-04-18T13:32:15.001Z</time></trkpt><trkpt lat="43.28809056510354" lon="10.767271569439263"><ele>244.8</ele><time>2026-04-18T13:32:16.001Z</time></trkpt><trkpt lat="43.28806140364722" lon="10.767148980435596"><ele>247.4</ele><time>2026-04-18T13:32:17.001Z</time></trkpt><trkpt lat="43.288036065210754" lon="10.767011479860296"><ele>250.0</ele><time>2026-04-18T13:32:18.001Z</time></trkpt><trkpt lat="43.28801544841437" lon="10.766878598198343"><ele>253.0</ele><time>2026-04-18T13:32:19.001Z</time></trkpt><trkpt lat="43.28798222015159" lon="10.766745403364805"><ele>256.0</ele><time>2026-04-18T13:32:20.001Z</time></trkpt><trkpt lat="43.2879354909115" lon="10.76662006214548"><ele>259.0</ele><time>2026-04-18T13:32:21.001Z</time></trkpt><trkpt lat="43.28788220191172" lon="10.766500075542309"><ele>262.0</ele><time>2026-04-18T13:32:22.001Z</time></trkpt><trkpt lat="43.28781415162375" lon="10.766389477619846"><ele>265.0</ele><time>2026-04-18T13:32:23.001Z</time></trkpt><trkpt lat="43.287733304690114" lon="10.766287696316223"><ele>265.0</ele><time>2026-04-18T13:32:24.001Z</time></trkpt><trkpt lat="43.28763237864178" lon="10.766191249157743"><ele>265.0</ele><time>2026-04-18T13:32:25.001Z</time></trkpt><trkpt lat="43.28752596385537" lon="10.766103118779531"><ele>265.0</ele><time>2026-04-18T13:32:26.001Z</time></trkpt><trkpt lat="43.287419424265444" lon="10.766020004348706"><ele>265.0</ele><time>2026-04-18T13:32:27.001Z</time></trkpt><trkpt lat="43.28731137279988" lon="10.765933876694028"><ele>268.5</ele><time>2026-04-18T13:32:28.001Z</time></trkpt><trkpt lat="43.28720177612738" lon="10.76585105151838"><ele>272.0</ele><time>2026-04-18T13:32:29.001Z</time></trkpt><trkpt lat="43.28709535502301" lon="10.765778012828484"><ele>275.5</ele><time>2026-04-18T13:32:30.001Z</time></trkpt><trkpt lat="43.28698771167837" lon="10.765716818745624"><ele>279.0</ele><time>2026-04-18T13:32:31.001Z</time></trkpt><trkpt lat="43.286889976909464" lon="10.765688851124779"><ele>279.0</ele><time>2026-04-18T13:32:32.001Z</time></trkpt><trkpt lat="43.286778165072995" lon="10.765657848153245"><ele>279.0</ele><time>2026-04-18T13:32:33.001Z</time></trkpt><trkpt lat="43.28667132674998" lon="10.765628876143158"><ele>279.0</ele><time>2026-04-18T13:32:34.001Z</time></trkpt><trkpt lat="43.28655921813985" lon="10.765599386363656"><ele>279.0</ele><time>2026-04-18T13:32:35.002Z</time></trkpt><trkpt lat="43.28644485178338" lon="10.765568557414907"><ele>279.75</ele><time>2026-04-18T13:32:36.002Z</time></trkpt><trkpt lat="43.28633070085953" lon="10.765547844761931"><ele>280.5</ele><time>2026-04-18T13:32:37.002Z</time></trkpt><trkpt lat="43.286216668426675" lon="10.765552917331117"><ele>281.25</ele><time>2026-04-18T13:32:38.002Z</time></trkpt><trkpt lat="43.28611158159195" lon="10.765579817023237"><ele>282.0</ele><time>2026-04-18T13:32:39.002Z</time></trkpt><trkpt lat="43.28599191089557" lon="10.765594520132264"><ele>282.0</ele><time>2026-04-18T13:32:40.002Z</time></trkpt><trkpt lat="43.2858745538035" lon="10.765601850477113"><ele>282.0</ele><time>2026-04-18T13:32:41.002Z</time></trkpt><trkpt lat="43.28574967730449" lon="10.765600322217107"><ele>282.0</ele><time>2026-04-18T13:32:42.002Z</time></trkpt><trkpt lat="43.28562373489671" lon="10.765587947242668"><ele>282.0</ele><time>2026-04-18T13:32:43.002Z</time></trkpt><trkpt lat="43.28549529937299" lon="10.76555783295651"><ele>282.25</ele><time>2026-04-18T13:32:44.002Z</time></trkpt><trkpt lat="43.28536316386386" lon="10.765513341225162"><ele>282.5</ele><time>2026-04-18T13:32:45.002Z</time></trkpt><trkpt lat="43.285238538683735" lon="10.765470760354177"><ele>282.75</ele><time>2026-04-18T13:32:46.002Z</time></trkpt><trkpt lat="43.285115886896875" lon="10.76544027962782"><ele>283.0</ele><time>2026-04-18T13:32:47.002Z</time></trkpt><trkpt lat="43.2849920096648" lon="10.765404828361866"><ele>283.0</ele><time>2026-04-18T13:32:48.002Z</time></trkpt><trkpt lat="43.28486600181201" lon="10.765368415704591"><ele>283.0</ele><time>2026-04-18T13:32:49.002Z</time></trkpt><trkpt lat="43.28474171131088" lon="10.765326200323445"><ele>283.0</ele><time>2026-04-18T13:32:50.002Z</time></trkpt><trkpt lat="43.28462623610339" lon="10.765285796906042"><ele>283.0</ele><time>2026-04-18T13:32:51.002Z</time></trkpt><trkpt lat="43.28451387651036" lon="10.765246396326429"><ele>285.5</ele><time>2026-04-18T13:32:52.002Z</time></trkpt><trkpt lat="43.2844017740669" lon="10.76520614693744"><ele>288.0</ele><time>2026-04-18T13:32:53.002Z</time></trkpt><trkpt lat="43.28429014486439" lon="10.765158674095225"><ele>290.5</ele><time>2026-04-18T13:32:54.002Z</time></trkpt><trkpt lat="43.2841795752189" lon="10.765114751864573"><ele>293.0</ele><time>2026-04-18T13:32:55.002Z</time></trkpt><trkpt lat="43.284066858384946" lon="10.765092536478766"><ele>295.4</ele><time>2026-04-18T13:32:56.002Z</time></trkpt><trkpt lat="43.28394715396688" lon="10.765101606695055"><ele>297.8</ele><time>2026-04-18T13:32:57.002Z</time></trkpt><trkpt lat="43.283835960190345" lon="10.765126861121509"><ele>300.2</ele><time>2026-04-18T13:32:58.002Z</time></trkpt><trkpt lat="43.2837275505205" lon="10.765138666208793"><ele>302.6</ele><time>2026-04-18T13:32:59.002Z</time></trkpt><trkpt lat="43.28362701594434" lon="10.76514044472521"><ele>305.0</ele><time>2026-04-18T13:33:00.002Z</time></trkpt><trkpt lat="43.28353478163272" lon="10.765132584433157"><ele>305.5</ele><time>2026-04-18T13:33:01.002Z</time></trkpt><trkpt lat="43.2834565312111" lon="10.765127852647312"><ele>306.0</ele><time>2026-04-18T13:33:02.002Z</time></trkpt><trkpt lat="43.28338654715206" lon="10.765155256883647"><ele>306.5</ele><time>2026-04-18T13:33:03.002Z</time></trkpt><trkpt lat="43.283325928257064" lon="10.765197603904536"><ele>307.0</ele><time>2026-04-18T13:33:04.002Z</time></trkpt><trkpt lat="43.28328735579791" lon="10.765285000815663"><ele>307.5</ele><time>2026-04-18T13:33:05.002Z</time></trkpt><trkpt lat="43.283254993998774" lon="10.765378521752961"><ele>308.0</ele><time>2026-04-18T13:33:06.002Z</time></trkpt><trkpt lat="43.28324293090006" lon="10.765494214035902"><ele>308.0</ele><time>2026-04-18T13:33:07.002Z</time></trkpt><trkpt lat="43.28325130416757" lon="10.765616787930327"><ele>308.0</ele><time>2026-04-18T13:33:08.002Z</time></trkpt><trkpt lat="43.28327017582446" lon="10.765749729095317"><ele>308.0</ele><time>2026-04-18T13:33:09.002Z</time></trkpt><trkpt lat="43.28326889001706" lon="10.76588011353068"><ele>308.0</ele><time>2026-04-18T13:33:10.002Z</time></trkpt><trkpt lat="43.2832807811344" lon="10.76601474886457"><ele>308.0</ele><time>2026-04-18T13:33:11.002Z</time></trkpt><trkpt lat="43.28330872552826" lon="10.766153129224055"><ele>309.8</ele><time>2026-04-18T13:33:12.002Z</time></trkpt><trkpt lat="43.28334983069765" lon="10.766293339271057"><ele>311.6</ele><time>2026-04-18T13:33:13.003Z</time></trkpt><trkpt lat="43.283399127400514" lon="10.766430202072753"><ele>313.4</ele><time>2026-04-18T13:33:14.003Z</time></trkpt><trkpt lat="43.28346002810786" lon="10.766561125227339"><ele>315.2</ele><time>2026-04-18T13:33:15.003Z</time></trkpt><trkpt lat="43.28350919399714" lon="10.766686218277515"><ele>317.0</ele><time>2026-04-18T13:33:16.003Z</time></trkpt><trkpt lat="43.28354431603001" lon="10.766807444945444"><ele>317.0</ele><time>2026-04-18T13:33:17.003Z</time></trkpt><trkpt lat="43.28356539599521" lon="10.76694230473694"><ele>317.0</ele><time>2026-04-18T13:33:18.003Z</time></trkpt><trkpt lat="43.28355816759729" lon="10.767086567071438"><ele>317.0</ele><time>2026-04-18T13:33:19.003Z</time></trkpt><trkpt lat="43.283532212753606" lon="10.767236863720736"><ele>317.0</ele><time>2026-04-18T13:33:20.003Z</time></trkpt><trkpt lat="43.28351281352076" lon="10.767397610604217"><ele>317.0</ele><time>2026-04-18T13:33:21.003Z</time></trkpt><trkpt lat="43.28349800576754" lon="10.767571747450527"><ele>316.0</ele><time>2026-04-18T13:33:22.003Z</time></trkpt><trkpt lat="43.28347971133384" lon="10.767744115299763"><ele>315.0</ele><time>2026-04-18T13:33:23.003Z</time></trkpt><trkpt lat="43.283460792094935" lon="10.76790198844236"><ele>314.0</ele><time>2026-04-18T13:33:24.003Z</time></trkpt><trkpt lat="43.28343330164156" lon="10.76804409097197"><ele>313.0</ele><time>2026-04-18T13:33:25.003Z</time></trkpt><trkpt lat="43.28337665657844" lon="10.768177115288115"><ele>313.0</ele><time>2026-04-18T13:33:26.003Z</time></trkpt><trkpt lat="43.28330184844546" lon="10.768288244923225"><ele>313.0</ele><time>2026-04-18T13:33:27.003Z</time></trkpt><trkpt lat="43.28321820127426" lon="10.768385278209541"><ele>313.0</ele><time>2026-04-18T13:33:28.003Z</time></trkpt><trkpt lat="43.2831221253863" lon="10.768463897730879"><ele>313.0</ele><time>2026-04-18T13:33:29.003Z</time></trkpt><trkpt lat="43.28301684282942" lon="10.768517290971603"><ele>313.0</ele><time>2026-04-18T13:33:30.003Z</time></trkpt><trkpt lat="43.28290892596851" lon="10.768558273214726"><ele>313.8</ele><time>2026-04-18T13:33:31.003Z</time></trkpt><trkpt lat="43.28279884686988" lon="10.768584848990425"><ele>314.6</ele><time>2026-04-18T13:33:32.003Z</time></trkpt><trkpt lat="43.28268760916013" lon="10.768611341578124"><ele>315.4</ele><time>2026-04-18T13:33:33.003Z</time></trkpt><trkpt lat="43.28257847321917" lon="10.76864190505023"><ele>316.2</ele><time>2026-04-18T13:33:34.003Z</time></trkpt><trkpt lat="43.28247155010003" lon="10.76867554502505"><ele>317.0</ele><time>2026-04-18T13:33:35.003Z</time></trkpt><trkpt lat="43.2823744826658" lon="10.768723516291582"><ele>317.0</ele><time>2026-04-18T13:33:36.003Z</time></trkpt><trkpt lat="43.282280627932124" lon="10.768795690441584"><ele>317.0</ele><time>2026-04-18T13:33:37.003Z</time></trkpt><trkpt lat="43.28219590473808" lon="10.76889591357922"><ele>317.0</ele><time>2026-04-18T13:33:38.001Z</time></trkpt><trkpt lat="43.28211906414653" lon="10.769005007663685"><ele>317.0</ele><time>2026-04-18T13:33:39Z</time></trkpt><trkpt lat="43.282045506817425" lon="10.769118772587971"><ele>317.0</ele><time>2026-04-18T13:33:40.001Z</time></trkpt><trkpt lat="43.28196512778912" lon="10.769228358414248"><ele>317.8</ele><time>2026-04-18T13:33:41.001Z</time></trkpt><trkpt lat="43.281881465222945" lon="10.769333942698777"><ele>318.6</ele><time>2026-04-18T13:33:42Z</time></trkpt><trkpt lat="43.28179604628488" lon="10.769425912570423"><ele>319.40000000000003</ele><time>2026-04-18T13:33:43Z</time></trkpt><trkpt lat="43.28170520741313" lon="10.769493655348246"><ele>320.2</ele><time>2026-04-18T13:33:44Z</time></trkpt><trkpt lat="43.281602788880484" lon="10.769537604414735"><ele>321.0</ele><time>2026-04-18T13:33:45Z</time></trkpt><trkpt lat="43.2814905140761" lon="10.769558903510454"><ele>325.0</ele><time>2026-04-18T13:33:46Z</time></trkpt><trkpt lat="43.28137099001057" lon="10.769581846101316"><ele>329.0</ele><time>2026-04-18T13:33:47Z</time></trkpt><trkpt lat="43.28124736226069" lon="10.769612144634058"><ele>333.0</ele><time>2026-04-18T13:33:48Z</time></trkpt><trkpt lat="43.28112811085293" lon="10.769648236148818"><ele>337.0</ele><time>2026-04-18T13:33:49Z</time></trkpt><trkpt lat="43.28102163681422" lon="10.76969222482796"><ele>337.0</ele><time>2026-04-18T13:33:50Z</time></trkpt><trkpt lat="43.28092577286067" lon="10.769761607167435"><ele>337.0</ele><time>2026-04-18T13:33:51Z</time></trkpt><trkpt lat="43.280844047610955" lon="10.769853323947089"><ele>337.0</ele><time>2026-04-18T13:33:52Z</time></trkpt><trkpt lat="43.28077989783775" lon="10.769961748110061"><ele>337.0</ele><time>2026-04-18T13:33:53Z</time></trkpt><trkpt lat="43.28073095869113" lon="10.770082712921031"><ele>337.0</ele><time>2026-04-18T13:33:54Z</time></trkpt><trkpt lat="43.280696319486104" lon="10.770203133454062"><ele>336.0</ele><time>2026-04-18T13:33:55Z</time></trkpt><trkpt lat="43.28067574630969" lon="10.770327055733361"><ele>335.0</ele><time>2026-04-18T13:33:56Z</time></trkpt><trkpt lat="43.28066927000913" lon="10.77045251977567"><ele>334.0</ele><time>2026-04-18T13:33:57Z</time></trkpt><trkpt lat="43.28068369548197" lon="10.770583258180263"><ele>333.0</ele><time>2026-04-18T13:33:58.001Z</time></trkpt><trkpt lat="43.28070254994357" lon="10.770716641199053"><ele>332.0</ele><time>2026-04-18T13:33:59.001Z</time></trkpt><trkpt lat="43.28071034229262" lon="10.770862308837227"><ele>332.0</ele><time>2026-04-18T13:34:00.001Z</time></trkpt><trkpt lat="43.280715110880564" lon="10.771017095542888"><ele>332.0</ele><time>2026-04-18T13:34:01.001Z</time></trkpt><trkpt lat="43.28071834879931" lon="10.771173642423316"><ele>332.0</ele><time>2026-04-18T13:34:02.001Z</time></trkpt><trkpt lat="43.28071934948791" lon="10.771322450171503"><ele>332.0</ele><time>2026-04-18T13:34:03.001Z</time></trkpt><trkpt lat="43.280725175910824" lon="10.771460624519339"><ele>332.0</ele><time>2026-04-18T13:34:04.001Z</time></trkpt><trkpt lat="43.280741580179495" lon="10.771586828999236"><ele>332.40000000000003</ele><time>2026-04-18T13:34:05.001Z</time></trkpt><trkpt lat="43.28078171259206" lon="10.77170237257743"><ele>332.8</ele><time>2026-04-18T13:34:06.001Z</time></trkpt><trkpt lat="43.28084327447262" lon="10.771809766122932"><ele>333.2</ele><time>2026-04-18T13:34:07.001Z</time></trkpt><trkpt lat="43.28092319501001" lon="10.77191334385042"><ele>333.6</ele><time>2026-04-18T13:34:08.001Z</time></trkpt><trkpt lat="43.28101110794262" lon="10.772004668791388"><ele>334.0</ele><time>2026-04-18T13:34:09.001Z</time></trkpt><trkpt lat="43.28109703964573" lon="10.772085898058178"><ele>337.0</ele><time>2026-04-18T13:34:10.001Z</time></trkpt><trkpt lat="43.28117599516037" lon="10.772187370248488"><ele>340.0</ele><time>2026-04-18T13:34:11.001Z</time></trkpt><trkpt lat="43.28124211706195" lon="10.772300525771842"><ele>343.0</ele><time>2026-04-18T13:34:12.001Z</time></trkpt><trkpt lat="43.281297490409834" lon="10.772420949778367"><ele>346.0</ele><time>2026-04-18T13:34:13.001Z</time></trkpt><trkpt lat="43.28134626171464" lon="10.772555185566137"><ele>349.0</ele><time>2026-04-18T13:34:14.001Z</time></trkpt><trkpt lat="43.281380289152054" lon="10.772687760022453"><ele>352.0</ele><time>2026-04-18T13:34:15.001Z</time></trkpt><trkpt lat="43.28140209978849" lon="10.772805466671327"><ele>355.0</ele><time>2026-04-18T13:34:16.001Z</time></trkpt><trkpt lat="43.2814152783814" lon="10.772928176353407"><ele>358.0</ele><time>2026-04-18T13:34:17.001Z</time></trkpt><trkpt lat="43.28140160509548" lon="10.773052396276302"><ele>361.0</ele><time>2026-04-18T13:34:18.001Z</time></trkpt><trkpt lat="43.28136852387837" lon="10.77316934798738"><ele>364.0</ele><time>2026-04-18T13:34:19.001Z</time></trkpt><trkpt lat="43.28134083247762" lon="10.773286762986011"><ele>364.0</ele><time>2026-04-18T13:34:20.001Z</time></trkpt><trkpt lat="43.281337562253015" lon="10.773411723833723"><ele>364.0</ele><time>2026-04-18T13:34:21.001Z</time></trkpt><trkpt lat="43.28135464157504" lon="10.773543837933802"><ele>364.0</ele><time>2026-04-18T13:34:22.001Z</time></trkpt><trkpt lat="43.28140090884728" lon="10.773667648539696"><ele>364.0</ele><time>2026-04-18T13:34:23.001Z</time></trkpt><trkpt lat="43.281450351484764" lon="10.773784573971199"><ele>364.0</ele><time>2026-04-18T13:34:24.001Z</time></trkpt><trkpt lat="43.28148961596412" lon="10.773894142642682"><ele>365.2</ele><time>2026-04-18T13:34:25.001Z</time></trkpt><trkpt lat="43.28150600346504" lon="10.774018564252083"><ele>366.4</ele><time>2026-04-18T13:34:26.001Z</time></trkpt><trkpt lat="43.281497969105814" lon="10.774147657931426"><ele>367.6</ele><time>2026-04-18T13:34:27.001Z</time></trkpt><trkpt lat="43.2814647954367" lon="10.774268483399739"><ele>368.8</ele><time>2026-04-18T13:34:28.001Z</time></trkpt><trkpt lat="43.28142122665318" lon="10.77438707194905"><ele>370.0</ele><time>2026-04-18T13:34:29.001Z</time></trkpt><trkpt lat="43.28137865489787" lon="10.774520596758432"><ele>370.0</ele><time>2026-04-18T13:34:30.001Z</time></trkpt><trkpt lat="43.281359009711636" lon="10.774656125804686"><ele>370.0</ele><time>2026-04-18T13:34:31.001Z</time></trkpt><trkpt lat="43.28132889185604" lon="10.774798592463751"><ele>370.0</ele><time>2026-04-18T13:34:32.001Z</time></trkpt><trkpt lat="43.28129869047682" lon="10.774947155898094"><ele>370.0</ele><time>2026-04-18T13:34:33.001Z</time></trkpt><trkpt lat="43.28126540396094" lon="10.7750974195388"><ele>370.0</ele><time>2026-04-18T13:34:34.001Z</time></trkpt><trkpt lat="43.2812332464635" lon="10.775255794394905"><ele>370.0</ele><time>2026-04-18T13:34:35.001Z</time></trkpt><trkpt lat="43.28119797005286" lon="10.77541561472674"><ele>370.0</ele><time>2026-04-18T13:34:36.001Z</time></trkpt><trkpt lat="43.2811591140929" lon="10.775562940088061"><ele>370.0</ele><time>2026-04-18T13:34:37.001Z</time></trkpt><trkpt lat="43.281122114346836" lon="10.775697765779382"><ele>370.0</ele><time>2026-04-18T13:34:38.001Z</time></trkpt><trkpt lat="43.281096049452394" lon="10.775840027511794"><ele>370.0</ele><time>2026-04-18T13:34:39.001Z</time></trkpt><trkpt lat="43.281083525313555" lon="10.775990817595183"><ele>371.25</ele><time>2026-04-18T13:34:40.001Z</time></trkpt><trkpt lat="43.281081897021316" lon="10.776150685127254"><ele>372.5</ele><time>2026-04-18T13:34:41.002Z</time></trkpt><trkpt lat="43.28107370735041" lon="10.776315811415719"><ele>373.75</ele><time>2026-04-18T13:34:42.002Z</time></trkpt><trkpt lat="43.28105804280792" lon="10.776477375307442"><ele>375.0</ele><time>2026-04-18T13:34:43.002Z</time></trkpt><trkpt lat="43.28104141404201" lon="10.776647279722527"><ele>375.0</ele><time>2026-04-18T13:34:44.002Z</time></trkpt><trkpt lat="43.28102354461461" lon="10.776823673792961"><ele>375.0</ele><time>2026-04-18T13:34:45.002Z</time></trkpt><trkpt lat="43.28101197687893" lon="10.777002775153587"><ele>375.0</ele><time>2026-04-18T13:34:46.002Z</time></trkpt><trkpt lat="43.28101464661485" lon="10.777176468050365"><ele>375.0</ele><time>2026-04-18T13:34:47.002Z</time></trkpt><trkpt lat="43.281018482583285" lon="10.77734441070658"><ele>377.25</ele><time>2026-04-18T13:34:48.002Z</time></trkpt><trkpt lat="43.28102925695811" lon="10.777513387763229"><ele>379.5</ele><time>2026-04-18T13:34:49.002Z</time></trkpt><trkpt lat="43.28105162135943" lon="10.777672292364763"><ele>381.75</ele><time>2026-04-18T13:34:50.002Z</time></trkpt><trkpt lat="43.281090885847824" lon="10.777842805116563"><ele>384.0</ele><time>2026-04-18T13:34:51.002Z</time></trkpt><trkpt lat="43.28113297321119" lon="10.778018491407748"><ele>386.25</ele><time>2026-04-18T13:34:52.002Z</time></trkpt><trkpt lat="43.28117304833838" lon="10.778200794663114"><ele>388.5</ele><time>2026-04-18T13:34:53.002Z</time></trkpt><trkpt lat="43.2812090115231" lon="10.778383235662298"><ele>390.75</ele><time>2026-04-18T13:34:54.002Z</time></trkpt><trkpt lat="43.28124416285783" lon="10.778567158864805"><ele>393.0</ele><time>2026-04-18T13:34:55.002Z</time></trkpt><trkpt lat="43.2812733035085" lon="10.778746144289718"><ele>392.5</ele><time>2026-04-18T13:34:56.002Z</time></trkpt><trkpt lat="43.28129051761914" lon="10.778927437663741"><ele>392.0</ele><time>2026-04-18T13:34:57.002Z</time></trkpt><trkpt lat="43.28129374378709" lon="10.77910948343337"><ele>391.5</ele><time>2026-04-18T13:34:58.002Z</time></trkpt><trkpt lat="43.28130278504299" lon="10.779288056370211"><ele>391.0</ele><time>2026-04-18T13:34:59.002Z</time></trkpt><trkpt lat="43.28131780339048" lon="10.779462837854785"><ele>391.0</ele><time>2026-04-18T13:35:00.002Z</time></trkpt><trkpt lat="43.281338162528016" lon="10.779630003121309"><ele>391.0</ele><time>2026-04-18T13:35:01.002Z</time></trkpt><trkpt lat="43.28136805760471" lon="10.779789508606656"><ele>391.0</ele><time>2026-04-18T13:35:02.002Z</time></trkpt><trkpt lat="43.28140429899598" lon="10.77993990466884"><ele>391.0</ele><time>2026-04-18T13:35:03.002Z</time></trkpt><trkpt lat="43.28144443829299" lon="10.78007790188987"><ele>391.8</ele><time>2026-04-18T13:35:04.002Z</time></trkpt><trkpt lat="43.28149206683706" lon="10.780204206568103"><ele>392.6</ele><time>2026-04-18T13:35:05.002Z</time></trkpt><trkpt lat="43.281550742309875" lon="10.78031583193584"><ele>393.4</ele><time>2026-04-18T13:35:06.002Z</time></trkpt><trkpt lat="43.28161207636602" lon="10.780410658879491"><ele>394.2</ele><time>2026-04-18T13:35:07.002Z</time></trkpt><trkpt lat="43.281672429035744" lon="10.780503463271945"><ele>395.0</ele><time>2026-04-18T13:35:08.002Z</time></trkpt><trkpt lat="43.28171620886048" lon="10.7806150995775"><ele>394.99999999999994</ele><time>2026-04-18T13:35:09.002Z</time></trkpt><trkpt lat="43.281754498057275" lon="10.78073834709693"><ele>395.0</ele><time>2026-04-18T13:35:10.002Z</time></trkpt><trkpt lat="43.281790087254564" lon="10.780873557064652"><ele>395.0</ele><time>2026-04-18T13:35:11.002Z</time></trkpt><trkpt lat="43.281823756207004" lon="10.780985033989895"><ele>395.0</ele><time>2026-04-18T13:35:12.002Z</time></trkpt><trkpt lat="43.281851427945945" lon="10.781075412722187"><ele>394.99999999999994</ele><time>2026-04-18T13:35:13.002Z</time></trkpt><trkpt lat="43.28190031362706" lon="10.781133103113747"><ele>395.0</ele><time>2026-04-18T13:35:16.002Z</time></trkpt><trkpt lat="43.28196306558484" lon="10.781144850277968"><ele>394.66666666666663</ele><time>2026-04-18T13:35:20.002Z</time></trkpt><trkpt lat="43.282021875077" lon="10.781262367001412"><ele>394.3333333333333</ele><time>2026-04-18T13:35:23.003Z</time></trkpt><trkpt lat="43.28207757250665" lon="10.781360240544096"><ele>394.0</ele><time>2026-04-18T13:35:25.003Z</time></trkpt><trkpt lat="43.282156248758255" lon="10.781424050793435"><ele>393.66666666666663</ele><time>2026-04-18T13:35:27.003Z</time></trkpt><trkpt lat="43.28222201343044" lon="10.781461850696921"><ele>393.3333333333333</ele><time>2026-04-18T13:35:29.003Z</time></trkpt><trkpt lat="43.28229160621911" lon="10.781439340649598"><ele>393.0</ele><time>2026-04-18T13:35:31.003Z</time></trkpt><trkpt lat="43.2823382673693" lon="10.781355306887585"><ele>394.0</ele><time>2026-04-18T13:35:33.003Z</time></trkpt><trkpt lat="43.28237772244966" lon="10.781217477658465"><ele>395.0</ele><time>2026-04-18T13:35:35.003Z</time></trkpt><trkpt lat="43.28240801389181" lon="10.78106294223163"><ele>396.0</ele><time>2026-04-18T13:35:37.003Z</time></trkpt><trkpt lat="43.2824607584358" lon="10.780926003101655"><ele>397.0</ele><time>2026-04-18T13:35:39.003Z</time></trkpt><trkpt lat="43.28250592875119" lon="10.780863875009363"><ele>398.0</ele><time>2026-04-18T13:35:40.003Z</time></trkpt><trkpt lat="43.28261848482178" lon="10.780767885613578"><ele>396.3333333333333</ele><time>2026-04-18T13:35:42.003Z</time></trkpt><trkpt lat="43.28268397540394" lon="10.78073685869541"><ele>394.66666666666663</ele><time>2026-04-18T13:35:43.003Z</time></trkpt><trkpt lat="43.282759616868546" lon="10.780697251448698"><ele>393.0</ele><time>2026-04-18T13:35:44Z</time></trkpt><trkpt lat="43.282842979806986" lon="10.780672693944192"><ele>391.33333333333337</ele><time>2026-04-18T13:35:45Z</time></trkpt><trkpt lat="43.28292854952772" lon="10.780685757689012"><ele>389.6666666666667</ele><time>2026-04-18T13:35:46Z</time></trkpt><trkpt lat="43.282991878582294" lon="10.780674171062122"><ele>388.0</ele><time>2026-04-18T13:35:47Z</time></trkpt><trkpt lat="43.28306141778938" lon="10.780676238475529"><ele>386.2857142857143</ele><time>2026-04-18T13:35:48Z</time></trkpt><trkpt lat="43.28313043294053" lon="10.780680025869165"><ele>384.5714285714286</ele><time>2026-04-18T13:35:49Z</time></trkpt><trkpt lat="43.283203020574746" lon="10.780688727189654"><ele>382.8571428571429</ele><time>2026-04-18T13:35:50Z</time></trkpt><trkpt lat="43.283281808856096" lon="10.7806896485557"><ele>381.1428571428571</ele><time>2026-04-18T13:35:51Z</time></trkpt><trkpt lat="43.28335382130185" lon="10.780688242916058"><ele>379.42857142857144</ele><time>2026-04-18T13:35:52Z</time></trkpt><trkpt lat="43.283424049762104" lon="10.780675587723534"><ele>377.7142857142857</ele><time>2026-04-18T13:35:53Z</time></trkpt><trkpt lat="43.28349150452961" lon="10.780663471629317"><ele>376.0</ele><time>2026-04-18T13:35:54Z</time></trkpt><trkpt lat="43.2835561259722" lon="10.780651387356691"><ele>376.0</ele><time>2026-04-18T13:35:55Z</time></trkpt><trkpt lat="43.2836785234947" lon="10.780682072975567"><ele>376.0</ele><time>2026-04-18T13:35:57Z</time></trkpt><trkpt lat="43.28380411881638" lon="10.780709890228605"><ele>376.0</ele><time>2026-04-18T13:35:59Z</time></trkpt><trkpt lat="43.283861029998675" lon="10.780776497557769"><ele>376.0</ele><time>2026-04-18T13:36:00Z</time></trkpt><trkpt lat="43.283981567210276" lon="10.78079231224264"><ele>376.0</ele><time>2026-04-18T13:36:02Z</time></trkpt><trkpt lat="43.28405012283239" lon="10.78077688995463"><ele>374.5</ele><time>2026-04-18T13:36:03Z</time></trkpt><trkpt lat="43.28411024596678" lon="10.78074395848437"><ele>373.0</ele><time>2026-04-18T13:36:04Z</time></trkpt><trkpt lat="43.28417911325887" lon="10.780679634439686"><ele>371.5</ele><time>2026-04-18T13:36:05Z</time></trkpt><trkpt lat="43.28425020254861" lon="10.780573695331292"><ele>370.0</ele><time>2026-04-18T13:36:06Z</time></trkpt><trkpt lat="43.28429717792268" lon="10.780512850774523"><ele>368.5</ele><time>2026-04-18T13:36:07Z</time></trkpt><trkpt lat="43.28436480632586" lon="10.780464464554358"><ele>367.0</ele><time>2026-04-18T13:36:08Z</time></trkpt><trkpt lat="43.284422061505275" lon="10.780411349071223"><ele>367.0</ele><time>2026-04-18T13:36:09Z</time></trkpt><trkpt lat="43.28449441851916" lon="10.780418297571204"><ele>367.0</ele><time>2026-04-18T13:36:10.001Z</time></trkpt><trkpt lat="43.28456145501142" lon="10.780441383688794"><ele>367.0</ele><time>2026-04-18T13:36:11.001Z</time></trkpt><trkpt lat="43.284672900524384" lon="10.780476459558122"><ele>367.0</ele><time>2026-04-18T13:36:13.001Z</time></trkpt><trkpt lat="43.284739300784096" lon="10.780569675996583"><ele>367.0</ele><time>2026-04-18T13:36:14.001Z</time></trkpt><trkpt lat="43.284774774479075" lon="10.780697402322504"><ele>367.20000000000005</ele><time>2026-04-18T13:36:15.001Z</time></trkpt><trkpt lat="43.284804081788444" lon="10.78082521542538"><ele>367.4</ele><time>2026-04-18T13:36:16.001Z</time></trkpt><trkpt lat="43.284830762215975" lon="10.780946698706154"><ele>367.6</ele><time>2026-04-18T13:36:17.001Z</time></trkpt><trkpt lat="43.284871514417674" lon="10.781061781529546"><ele>367.79999999999995</ele><time>2026-04-18T13:36:18.001Z</time></trkpt><trkpt lat="43.2849112824766" lon="10.781169663875522"><ele>368.0</ele><time>2026-04-18T13:36:19.001Z</time></trkpt><trkpt lat="43.284950536142304" lon="10.781271792214225"><ele>368.0</ele><time>2026-04-18T13:36:20.001Z</time></trkpt><trkpt lat="43.28498798693962" lon="10.781359534182515"><ele>368.0</ele><time>2026-04-18T13:36:21.001Z</time></trkpt><trkpt lat="43.28504061240988" lon="10.781480690660194"><ele>368.0</ele><time>2026-04-18T13:36:23.001Z</time></trkpt><trkpt lat="43.28515926620125" lon="10.781470719230194"><ele>368.0</ele><time>2026-04-18T13:36:25.001Z</time></trkpt><trkpt lat="43.28522551160126" lon="10.781403488435556"><ele>368.0</ele><time>2026-04-18T13:36:26.001Z</time></trkpt><trkpt lat="43.285292564911146" lon="10.781305356321198"><ele>368.0</ele><time>2026-04-18T13:36:27.001Z</time></trkpt><trkpt lat="43.28537168532029" lon="10.78120174687358"><ele>368.0</ele><time>2026-04-18T13:36:28.001Z</time></trkpt><trkpt lat="43.28545878970733" lon="10.781100148790912"><ele>368.0</ele><time>2026-04-18T13:36:29.001Z</time></trkpt><trkpt lat="43.285544369605134" lon="10.781020171965267"><ele>368.0</ele><time>2026-04-18T13:36:30.001Z</time></trkpt><trkpt lat="43.28564363392044" lon="10.780919446903912"><ele>365.0</ele><time>2026-04-18T13:36:31.001Z</time></trkpt><trkpt lat="43.2857292103722" lon="10.780831336077462"><ele>362.0</ele><time>2026-04-18T13:36:32.001Z</time></trkpt><trkpt lat="43.28582044334389" lon="10.780760223892083"><ele>359.0</ele><time>2026-04-18T13:36:33.001Z</time></trkpt><trkpt lat="43.285922395257444" lon="10.780686657612963"><ele>356.0</ele><time>2026-04-18T13:36:34.001Z</time></trkpt><trkpt lat="43.28603613063531" lon="10.780594417775578"><ele>356.0</ele><time>2026-04-18T13:36:35.001Z</time></trkpt><trkpt lat="43.2861326717788" lon="10.780529122056526"><ele>356.0</ele><time>2026-04-18T13:36:36.001Z</time></trkpt><trkpt lat="43.28622476315621" lon="10.780472555934665"><ele>356.0</ele><time>2026-04-18T13:36:37.001Z</time></trkpt><trkpt lat="43.286313978464676" lon="10.78042465341732"><ele>356.0</ele><time>2026-04-18T13:36:38.001Z</time></trkpt><trkpt lat="43.286390788671184" lon="10.780366529494376"><ele>356.0</ele><time>2026-04-18T13:36:39.001Z</time></trkpt><trkpt lat="43.28644917617254" lon="10.780294682157805"><ele>352.6</ele><time>2026-04-18T13:36:40.001Z</time></trkpt><trkpt lat="43.28650818834619" lon="10.780176904608574"><ele>349.20000000000005</ele><time>2026-04-18T13:36:41.001Z</time></trkpt><trkpt lat="43.286554033338376" lon="10.78006393673738"><ele>345.79999999999995</ele><time>2026-04-18T13:36:42.001Z</time></trkpt><trkpt lat="43.28659656845044" lon="10.779934899083631"><ele>342.4</ele><time>2026-04-18T13:36:43.001Z</time></trkpt><trkpt lat="43.28664192261053" lon="10.779805740526486"><ele>339.0</ele><time>2026-04-18T13:36:44.001Z</time></trkpt><trkpt lat="43.28668866211724" lon="10.779681833418888"><ele>339.0</ele><time>2026-04-18T13:36:45.001Z</time></trkpt><trkpt lat="43.28673542238571" lon="10.779558159098174"><ele>339.0</ele><time>2026-04-18T13:36:46.001Z</time></trkpt><trkpt lat="43.28678524024894" lon="10.779445579036445"><ele>339.0</ele><time>2026-04-18T13:36:47.001Z</time></trkpt><trkpt lat="43.28683552944989" lon="10.779334339768843"><ele>339.0</ele><time>2026-04-18T13:36:48.001Z</time></trkpt><trkpt lat="43.286885079710565" lon="10.779227837516606"><ele>339.0</ele><time>2026-04-18T13:36:49.001Z</time></trkpt><trkpt lat="43.28693175885352" lon="10.779131391763716"><ele>337.3333333333333</ele><time>2026-04-18T13:36:50.001Z</time></trkpt><trkpt lat="43.2869724813199" lon="10.77904003051474"><ele>335.6666666666667</ele><time>2026-04-18T13:36:51.001Z</time></trkpt><trkpt lat="43.28700726565614" lon="10.778946565368301"><ele>334.0</ele><time>2026-04-18T13:36:52.001Z</time></trkpt><trkpt lat="43.28704376345521" lon="10.7788552510452"><ele>332.33333333333337</ele><time>2026-04-18T13:36:53.001Z</time></trkpt><trkpt lat="43.287084898847105" lon="10.778773106108535"><ele>330.6666666666667</ele><time>2026-04-18T13:36:54.002Z</time></trkpt><trkpt lat="43.287117511832996" lon="10.778679959154196"><ele>329.0</ele><time>2026-04-18T13:36:55.002Z</time></trkpt><trkpt lat="43.28714534151025" lon="10.778580362163785"><ele>327.1666666666667</ele><time>2026-04-18T13:36:56.002Z</time></trkpt><trkpt lat="43.28716257998732" lon="10.77846171903668"><ele>325.33333333333337</ele><time>2026-04-18T13:36:57.002Z</time></trkpt><trkpt lat="43.287178036151765" lon="10.778351414349643"><ele>323.5</ele><time>2026-04-18T13:36:58.002Z</time></trkpt><trkpt lat="43.28719611477009" lon="10.778251370853175"><ele>321.6666666666667</ele><time>2026-04-18T13:36:59.002Z</time></trkpt><trkpt lat="43.28720879333589" lon="10.778151040805483"><ele>319.8333333333333</ele><time>2026-04-18T13:37:00.002Z</time></trkpt><trkpt lat="43.287211241726546" lon="10.77804703379238"><ele>318.0</ele><time>2026-04-18T13:37:01.002Z</time></trkpt><trkpt lat="43.28721696202142" lon="10.777955742151638"><ele>318.0</ele><time>2026-04-18T13:37:02.002Z</time></trkpt><trkpt lat="43.287233785103254" lon="10.777809699055242"><ele>318.0</ele><time>2026-04-18T13:37:04.002Z</time></trkpt><trkpt lat="43.287262111494904" lon="10.777676457776137"><ele>318.0</ele><time>2026-04-18T13:37:06.002Z</time></trkpt><trkpt lat="43.28731504820668" lon="10.777562045364697"><ele>318.0</ele><time>2026-04-18T13:37:08.002Z</time></trkpt><trkpt lat="43.287409378663995" lon="10.777481189477665"><ele>318.0</ele><time>2026-04-18T13:37:10.002Z</time></trkpt><trkpt lat="43.28753297548459" lon="10.77746170414796"><ele>317.5</ele><time>2026-04-18T13:37:12.002Z</time></trkpt><trkpt lat="43.28764961126992" lon="10.777495303818277"><ele>317.0</ele><time>2026-04-18T13:37:14.002Z</time></trkpt><trkpt lat="43.28770950878445" lon="10.777545539468884"><ele>316.5</ele><time>2026-04-18T13:37:15.002Z</time></trkpt><trkpt lat="43.287768812033775" lon="10.777611478243399"><ele>316.0</ele><time>2026-04-18T13:37:16.002Z</time></trkpt><trkpt lat="43.28783629126571" lon="10.777685271323437"><ele>315.5</ele><time>2026-04-18T13:37:17.002Z</time></trkpt><trkpt lat="43.28790631132678" lon="10.777750317993906"><ele>315.0</ele><time>2026-04-18T13:37:18.002Z</time></trkpt><trkpt lat="43.2879614472597" lon="10.77780909746087"><ele>315.0</ele><time>2026-04-18T13:37:19.002Z</time></trkpt><trkpt lat="43.28807027660876" lon="10.777895557477654"><ele>315.0</ele><time>2026-04-18T13:37:21.002Z</time></trkpt><trkpt lat="43.28819199320868" lon="10.777906778647486"><ele>315.0</ele><time>2026-04-18T13:37:23.002Z</time></trkpt><trkpt lat="43.288274500951665" lon="10.777901386307313"><ele>315.0</ele><time>2026-04-18T13:37:25.002Z</time></trkpt><trkpt lat="43.28834003281914" lon="10.777915519454712"><ele>315.0</ele><time>2026-04-18T13:37:26.002Z</time></trkpt><trkpt lat="43.28843075045047" lon="10.777978026394345"><ele>313.0</ele><time>2026-04-18T13:37:28.002Z</time></trkpt><trkpt lat="43.28857280680554" lon="10.77807570346507"><ele>311.0</ele><time>2026-04-18T13:37:30.002Z</time></trkpt><trkpt lat="43.28864839499515" lon="10.77811356557398"><ele>309.0</ele><time>2026-04-18T13:37:31.002Z</time></trkpt><trkpt lat="43.288712055810876" lon="10.778160336188174"><ele>307.0</ele><time>2026-04-18T13:37:32.002Z</time></trkpt><trkpt lat="43.28877772200162" lon="10.778196141691762"><ele>305.0</ele><time>2026-04-18T13:37:33.002Z</time></trkpt><trkpt lat="43.288865962269846" lon="10.778236414265722"><ele>306.1666666666667</ele><time>2026-04-18T13:37:34.002Z</time></trkpt><trkpt lat="43.28898148847792" lon="10.778321589846344"><ele>307.33333333333337</ele><time>2026-04-18T13:37:36.003Z</time></trkpt><trkpt lat="43.289072738926144" lon="10.778347665719295"><ele>308.5</ele><time>2026-04-18T13:37:37.003Z</time></trkpt><trkpt lat="43.289152124534816" lon="10.778375660010663"><ele>309.6666666666667</ele><time>2026-04-18T13:37:38.003Z</time></trkpt><trkpt lat="43.289210254025114" lon="10.7784228242232"><ele>310.8333333333333</ele><time>2026-04-18T13:37:39.003Z</time></trkpt><trkpt lat="43.28926006729149" lon="10.778479644036778"><ele>312.0</ele><time>2026-04-18T13:37:40.003Z</time></trkpt><trkpt lat="43.28931385271965" lon="10.77855482654756"><ele>312.0</ele><time>2026-04-18T13:37:41.003Z</time></trkpt><trkpt lat="43.28937308148442" lon="10.778641168881338"><ele>312.0</ele><time>2026-04-18T13:37:42.003Z</time></trkpt><trkpt lat="43.28942441350318" lon="10.778715838721878"><ele>312.0</ele><time>2026-04-18T13:37:43.003Z</time></trkpt><trkpt lat="43.28947648011114" lon="10.778776389277802"><ele>312.0</ele><time>2026-04-18T13:37:44.003Z</time></trkpt><trkpt lat="43.28959010503381" lon="10.778826615324943"><ele>312.0</ele><time>2026-04-18T13:37:46.003Z</time></trkpt><trkpt lat="43.289660992268416" lon="10.778803321431672"><ele>312.0</ele><time>2026-04-18T13:37:47.003Z</time></trkpt><trkpt lat="43.28976312311428" lon="10.778802774675482"><ele>311.3333333333333</ele><time>2026-04-18T13:37:48.003Z</time></trkpt><trkpt lat="43.28982962912511" lon="10.77877360991158"><ele>310.6666666666667</ele><time>2026-04-18T13:37:49.003Z</time></trkpt><trkpt lat="43.28990351681662" lon="10.77878198360923"><ele>310.0</ele><time>2026-04-18T13:37:50Z</time></trkpt><trkpt lat="43.289980991527756" lon="10.77879082036001"><ele>309.33333333333337</ele><time>2026-04-18T13:37:51Z</time></trkpt><trkpt lat="43.29006553300408" lon="10.77882935652404"><ele>308.6666666666667</ele><time>2026-04-18T13:37:52Z</time></trkpt><trkpt lat="43.290130695626644" lon="10.778896734686981"><ele>308.0</ele><time>2026-04-18T13:37:53Z</time></trkpt><trkpt lat="43.2901865400184" lon="10.778958837183074"><ele>308.0</ele><time>2026-04-18T13:37:54Z</time></trkpt><trkpt lat="43.29027436157178" lon="10.779025217467218"><ele>308.0</ele><time>2026-04-18T13:37:55Z</time></trkpt><trkpt lat="43.29036377137409" lon="10.779162827273947"><ele>308.0</ele><time>2026-04-18T13:37:57Z</time></trkpt><trkpt lat="43.29043842631174" lon="10.779287855218584"><ele>308.0</ele><time>2026-04-18T13:37:58Z</time></trkpt><trkpt lat="43.29050637081884" lon="10.77947094390975"><ele>307.83333333333337</ele><time>2026-04-18T13:38:00Z</time></trkpt><trkpt lat="43.290572652086475" lon="10.779547984458281"><ele>307.6666666666667</ele><time>2026-04-18T13:38:01Z</time></trkpt><trkpt lat="43.29064266158818" lon="10.77962592684569"><ele>307.5</ele><time>2026-04-18T13:38:02Z</time></trkpt><trkpt lat="43.29072679331959" lon="10.77969316458727"><ele>307.3333333333333</ele><time>2026-04-18T13:38:03Z</time></trkpt><trkpt lat="43.29079785344603" lon="10.77975931074307"><ele>307.16666666666663</ele><time>2026-04-18T13:38:04Z</time></trkpt><trkpt lat="43.29085816687127" lon="10.779841150258942"><ele>307.0</ele><time>2026-04-18T13:38:05Z</time></trkpt><trkpt lat="43.29090905992779" lon="10.779909262080077"><ele>307.0</ele><time>2026-04-18T13:38:06Z</time></trkpt><trkpt lat="43.29095011084679" lon="10.77998034779038"><ele>307.0</ele><time>2026-04-18T13:38:07Z</time></trkpt><trkpt lat="43.29101465167971" lon="10.780018207633994"><ele>307.0</ele><time>2026-04-18T13:38:08Z</time></trkpt><trkpt lat="43.291073460454975" lon="10.780060603511906"><ele>307.0</ele><time>2026-04-18T13:38:09Z</time></trkpt><trkpt lat="43.29117291030529" lon="10.780168224290415"><ele>307.0</ele><time>2026-04-18T13:38:11Z</time></trkpt><trkpt lat="43.2912559796832" lon="10.780261912257123"><ele>307.0</ele><time>2026-04-18T13:38:13Z</time></trkpt><trkpt lat="43.29136917582623" lon="10.780322879453836"><ele>304.4</ele><time>2026-04-18T13:38:15Z</time></trkpt><trkpt lat="43.29149127161804" lon="10.780306518705105"><ele>301.79999999999995</ele><time>2026-04-18T13:38:17Z</time></trkpt><trkpt lat="43.2915534688243" lon="10.78027433917836"><ele>299.2</ele><time>2026-04-18T13:38:18Z</time></trkpt><trkpt lat="43.29166780756769" lon="10.780233953001694"><ele>296.59999999999997</ele><time>2026-04-18T13:38:20.001Z</time></trkpt><trkpt lat="43.291779918807755" lon="10.78031157125345"><ele>294.0</ele><time>2026-04-18T13:38:22.001Z</time></trkpt><trkpt lat="43.291833388894624" lon="10.780392244620293"><ele>294.0</ele><time>2026-04-18T13:38:23.001Z</time></trkpt><trkpt lat="43.29188160535322" lon="10.78049780662676"><ele>294.0</ele><time>2026-04-18T13:38:24.001Z</time></trkpt><trkpt lat="43.29191081254799" lon="10.78061399570906"><ele>294.0</ele><time>2026-04-18T13:38:25.001Z</time></trkpt><trkpt lat="43.291933748454774" lon="10.780737497766502"><ele>294.0</ele><time>2026-04-18T13:38:26.001Z</time></trkpt><trkpt lat="43.291949321209444" lon="10.780864323131064"><ele>294.0</ele><time>2026-04-18T13:38:27.001Z</time></trkpt><trkpt lat="43.29196915496064" lon="10.780998580347777"><ele>294.6666666666667</ele><time>2026-04-18T13:38:28.001Z</time></trkpt><trkpt lat="43.29197218010244" lon="10.781118655045367"><ele>295.3333333333333</ele><time>2026-04-18T13:38:29.001Z</time></trkpt><trkpt lat="43.29197387679261" lon="10.781227627212372"><ele>296.0</ele><time>2026-04-18T13:38:30.001Z</time></trkpt><trkpt lat="43.29198457515672" lon="10.781331894244861"><ele>296.66666666666663</ele><time>2026-04-18T13:38:31.001Z</time></trkpt><trkpt lat="43.29198002237627" lon="10.7814531740825"><ele>297.3333333333333</ele><time>2026-04-18T13:38:32.001Z</time></trkpt><trkpt lat="43.29201270898477" lon="10.781532608149197"><ele>298.0</ele><time>2026-04-18T13:38:33.001Z</time></trkpt><trkpt lat="43.29204377639142" lon="10.781633674810188"><ele>298.0</ele><time>2026-04-18T13:38:34.001Z</time></trkpt><trkpt lat="43.29207421594041" lon="10.781726249124882"><ele>298.0</ele><time>2026-04-18T13:38:35.001Z</time></trkpt><trkpt lat="43.292123964592555" lon="10.78181610502836"><ele>298.0</ele><time>2026-04-18T13:38:36.001Z</time></trkpt><trkpt lat="43.29215956253948" lon="10.781926120477479"><ele>298.0</ele><time>2026-04-18T13:38:37.001Z</time></trkpt><trkpt lat="43.29217890113109" lon="10.78203673737504"><ele>298.0</ele><time>2026-04-18T13:38:38.001Z</time></trkpt><trkpt lat="43.292197556612045" lon="10.782127579479724"><ele>298.0</ele><time>2026-04-18T13:38:39.001Z</time></trkpt><trkpt lat="43.29219770461951" lon="10.78222965126517"><ele>298.5</ele><time>2026-04-18T13:38:40.001Z</time></trkpt><trkpt lat="43.29216834890307" lon="10.782324397742736"><ele>299.0</ele><time>2026-04-18T13:38:41.001Z</time></trkpt><trkpt lat="43.29213137679299" lon="10.782416871846722"><ele>299.5</ele><time>2026-04-18T13:38:42.001Z</time></trkpt><trkpt lat="43.292097089159476" lon="10.782525113911724"><ele>300.0</ele><time>2026-04-18T13:38:43.001Z</time></trkpt><trkpt lat="43.292062649650184" lon="10.78263181576324"><ele>300.5</ele><time>2026-04-18T13:38:44.001Z</time></trkpt><trkpt lat="43.292030140495775" lon="10.782732160685503"><ele>301.0</ele><time>2026-04-18T13:38:45.001Z</time></trkpt><trkpt lat="43.29199285264618" lon="10.7828250442292"><ele>301.8</ele><time>2026-04-18T13:38:46.001Z</time></trkpt><trkpt lat="43.291946491269954" lon="10.782904102595902"><ele>302.6</ele><time>2026-04-18T13:38:47.001Z</time></trkpt><trkpt lat="43.29190052765101" lon="10.783059241796982"><ele>303.4</ele><time>2026-04-18T13:38:49.001Z</time></trkpt><trkpt lat="43.2919188834603" lon="10.78321681248721"><ele>304.2</ele><time>2026-04-18T13:38:51.001Z</time></trkpt><trkpt lat="43.291952053279175" lon="10.783377662677308"><ele>305.0</ele><time>2026-04-18T13:38:53.001Z</time></trkpt><trkpt lat="43.29196287884126" lon="10.783467706872692"><ele>304.2857142857143</ele><time>2026-04-18T13:38:54.001Z</time></trkpt><trkpt lat="43.291983268915274" lon="10.783565891108713"><ele>303.57142857142856</ele><time>2026-04-18T13:38:55.001Z</time></trkpt><trkpt lat="43.29200316060634" lon="10.78366414466191"><ele>302.85714285714283</ele><time>2026-04-18T13:38:56.001Z</time></trkpt><trkpt lat="43.29201920748257" lon="10.783756587318976"><ele>302.1428571428571</ele><time>2026-04-18T13:38:57.001Z</time></trkpt><trkpt lat="43.292027196557505" lon="10.783846889745693"><ele>301.42857142857144</ele><time>2026-04-18T13:38:58.001Z</time></trkpt><trkpt lat="43.29201770297308" lon="10.783936647587035"><ele>300.71428571428567</ele><time>2026-04-18T13:38:59.001Z</time></trkpt><trkpt lat="43.291991657331394" lon="10.78402504043399"><ele>300.0</ele><time>2026-04-18T13:39:00.001Z</time></trkpt><trkpt lat="43.291949841976425" lon="10.784099608949758"><ele>300.0</ele><time>2026-04-18T13:39:01.002Z</time></trkpt><trkpt lat="43.2919007368351" lon="10.784241873767744"><ele>300.0</ele><time>2026-04-18T13:39:03.002Z</time></trkpt><trkpt lat="43.29185961321493" lon="10.784318105855315"><ele>300.0</ele><time>2026-04-18T13:39:04.002Z</time></trkpt><trkpt lat="43.29191118565845" lon="10.78448917132427"><ele>300.0</ele><time>2026-04-18T13:39:06.002Z</time></trkpt><trkpt lat="43.2919755781164" lon="10.784553629418921"><ele>300.0</ele><time>2026-04-18T13:39:07.002Z</time></trkpt><trkpt lat="43.29204995517017" lon="10.78460481939619"><ele>298.4285714285714</ele><time>2026-04-18T13:39:08.002Z</time></trkpt><trkpt lat="43.292125196229875" lon="10.784651626658958"><ele>296.85714285714283</ele><time>2026-04-18T13:39:09.002Z</time></trkpt><trkpt lat="43.29219815730125" lon="10.784697371432898"><ele>295.2857142857143</ele><time>2026-04-18T13:39:10.002Z</time></trkpt><trkpt lat="43.292264313582805" lon="10.784739243254448"><ele>293.71428571428567</ele><time>2026-04-18T13:39:11.002Z</time></trkpt><trkpt lat="43.2923241419058" lon="10.784773428395662"><ele>292.1428571428571</ele><time>2026-04-18T13:39:12.002Z</time></trkpt><trkpt lat="43.292388107024436" lon="10.784797657082116"><ele>290.57142857142856</ele><time>2026-04-18T13:39:13.002Z</time></trkpt><trkpt lat="43.292451028799334" lon="10.784805258072076"><ele>289.0</ele><time>2026-04-18T13:39:14.002Z</time></trkpt><trkpt lat="43.292576614362645" lon="10.784821292197453"><ele>287.4</ele><time>2026-04-18T13:39:16.002Z</time></trkpt><trkpt lat="43.292695080231255" lon="10.784839651219308"><ele>285.79999999999995</ele><time>2026-04-18T13:39:18.002Z</time></trkpt><trkpt lat="43.29275945663555" lon="10.784853297514578"><ele>284.20000000000005</ele><time>2026-04-18T13:39:19.002Z</time></trkpt><trkpt lat="43.292858866668226" lon="10.784906039772693"><ele>282.6</ele><time>2026-04-18T13:39:21.002Z</time></trkpt><trkpt lat="43.29290963197381" lon="10.784989039252375"><ele>281.0</ele><time>2026-04-18T13:39:23.002Z</time></trkpt><trkpt lat="43.29296092984644" lon="10.785116572820298"><ele>280.1666666666667</ele><time>2026-04-18T13:39:25.002Z</time></trkpt><trkpt lat="43.29299447718181" lon="10.785201363996686"><ele>279.33333333333337</ele><time>2026-04-18T13:39:26.002Z</time></trkpt><trkpt lat="43.29300025566607" lon="10.78528877371125"><ele>278.5</ele><time>2026-04-18T13:39:27.002Z</time></trkpt><trkpt lat="43.29300880571327" lon="10.78538548071017"><ele>277.6666666666667</ele><time>2026-04-18T13:39:28.002Z</time></trkpt><trkpt lat="43.2930208717335" lon="10.785493651583879"><ele>276.8333333333333</ele><time>2026-04-18T13:39:29.002Z</time></trkpt><trkpt lat="43.293032445768816" lon="10.785608307338725"><ele>276.0</ele><time>2026-04-18T13:39:30.002Z</time></trkpt><trkpt lat="43.29304506795388" lon="10.785728116463352"><ele>276.0</ele><time>2026-04-18T13:39:31.002Z</time></trkpt><trkpt lat="43.293054743397995" lon="10.785851267402794"><ele>276.0</ele><time>2026-04-18T13:39:32.002Z</time></trkpt><trkpt lat="43.29306707503873" lon="10.785966590038091"><ele>276.0</ele><time>2026-04-18T13:39:33.002Z</time></trkpt><trkpt lat="43.29308654847091" lon="10.786065402254668"><ele>276.0</ele><time>2026-04-18T13:39:34.002Z</time></trkpt><trkpt lat="43.29311716787137" lon="10.786153760413276"><ele>276.0</ele><time>2026-04-18T13:39:35.002Z</time></trkpt><trkpt lat="43.29316006899508" lon="10.78622807579009"><ele>276.0</ele><time>2026-04-18T13:39:36.002Z</time></trkpt><trkpt lat="43.29320762106614" lon="10.786308192957746"><ele>272.8333333333333</ele><time>2026-04-18T13:39:37.002Z</time></trkpt><trkpt lat="43.29326046533114" lon="10.786388945012806"><ele>269.6666666666667</ele><time>2026-04-18T13:39:38.002Z</time></trkpt><trkpt lat="43.29331286579546" lon="10.786472892171025"><ele>266.5</ele><time>2026-04-18T13:39:39.002Z</time></trkpt><trkpt lat="43.2933734752384" lon="10.786559333811525"><ele>263.33333333333337</ele><time>2026-04-18T13:39:40.002Z</time></trkpt><trkpt lat="43.29343864211187" lon="10.786640663178932"><ele>260.1666666666667</ele><time>2026-04-18T13:39:41.002Z</time></trkpt><trkpt lat="43.29352582439233" lon="10.78672279327974"><ele>257.0</ele><time>2026-04-18T13:39:42.002Z</time></trkpt><trkpt lat="43.29361458006483" lon="10.78680266296881"><ele>256.1666666666667</ele><time>2026-04-18T13:39:43.003Z</time></trkpt><trkpt lat="43.2936965917485" lon="10.786873462077038"><ele>255.33333333333334</ele><time>2026-04-18T13:39:44.003Z</time></trkpt><trkpt lat="43.29376542048805" lon="10.786945533133274"><ele>254.5</ele><time>2026-04-18T13:39:45.003Z</time></trkpt><trkpt lat="43.29384628302187" lon="10.787008397647993"><ele>253.66666666666669</ele><time>2026-04-18T13:39:46.003Z</time></trkpt><trkpt lat="43.2939103354712" lon="10.78706866127331"><ele>252.83333333333334</ele><time>2026-04-18T13:39:47.003Z</time></trkpt><trkpt lat="43.29396739342882" lon="10.787122610168677"><ele>252.0</ele><time>2026-04-18T13:39:48.003Z</time></trkpt><trkpt lat="43.294053212760176" lon="10.787221403226127"><ele>252.0</ele><time>2026-04-18T13:39:50.003Z</time></trkpt><trkpt lat="43.29404034302337" lon="10.787329696050776"><ele>252.0</ele><time>2026-04-18T13:39:52.003Z</time></trkpt><trkpt lat="43.29394941326885" lon="10.787433238846761"><ele>252.0</ele><time>2026-04-18T13:39:54.003Z</time></trkpt><trkpt lat="43.29385106781694" lon="10.78755241159679"><ele>252.0</ele><time>2026-04-18T13:39:56Z</time></trkpt><trkpt lat="43.29379540550623" lon="10.787628229559987"><ele>252.0</ele><time>2026-04-18T13:39:57Z</time></trkpt><trkpt lat="43.29373813836193" lon="10.787701917037724"><ele>251.39999999999998</ele><time>2026-04-18T13:39:58Z</time></trkpt><trkpt lat="43.293673831007894" lon="10.787787261272603"><ele>250.79999999999998</ele><time>2026-04-18T13:39:59Z</time></trkpt><trkpt lat="43.29360661022647" lon="10.787873172768123"><ele>250.2</ele><time>2026-04-18T13:40:00Z</time></trkpt><trkpt lat="43.29354321428497" lon="10.78796197617667"><ele>249.6</ele><time>2026-04-18T13:40:01Z</time></trkpt><trkpt lat="43.29348346594808" lon="10.788062743161717"><ele>249.0</ele><time>2026-04-18T13:40:02Z</time></trkpt><trkpt lat="43.293434337991386" lon="10.7881768433627"><ele>249.0</ele><time>2026-04-18T13:40:03Z</time></trkpt><trkpt lat="43.29339492797623" lon="10.78830121990639"><ele>248.99999999999997</ele><time>2026-04-18T13:40:04Z</time></trkpt><trkpt lat="43.29335711604676" lon="10.788433009122876"><ele>248.99999999999997</ele><time>2026-04-18T13:40:05Z</time></trkpt><trkpt lat="43.29330914395315" lon="10.788553230661096"><ele>249.0</ele><time>2026-04-18T13:40:06Z</time></trkpt><trkpt lat="43.29325309755461" lon="10.788665179020905"><ele>249.0</ele><time>2026-04-18T13:40:07Z</time></trkpt><trkpt lat="43.293207831575685" lon="10.788770468070913"><ele>248.5</ele><time>2026-04-18T13:40:08Z</time></trkpt><trkpt lat="43.293177375150144" lon="10.7888637804618"><ele>248.0</ele><time>2026-04-18T13:40:09Z</time></trkpt><trkpt lat="43.29312928046166" lon="10.789016464754942"><ele>247.5</ele><time>2026-04-18T13:40:11Z</time></trkpt><trkpt lat="43.2931053048376" lon="10.789102846376666"><ele>247.0</ele><time>2026-04-18T13:40:12Z</time></trkpt><trkpt lat="43.293080712127995" lon="10.789198007710565"><ele>246.5</ele><time>2026-04-18T13:40:13Z</time></trkpt><trkpt lat="43.29305623390493" lon="10.789297693233774"><ele>246.0</ele><time>2026-04-18T13:40:14Z</time></trkpt><trkpt lat="43.29303083630566" lon="10.789397974651804"><ele>248.83333333333334</ele><time>2026-04-18T13:40:15Z</time></trkpt><trkpt lat="43.29300571967546" lon="10.789502816765967"><ele>251.66666666666669</ele><time>2026-04-18T13:40:16Z</time></trkpt><trkpt lat="43.292980545195206" lon="10.789599145829785"><ele>254.5</ele><time>2026-04-18T13:40:17Z</time></trkpt><trkpt lat="43.292952312642676" lon="10.78969138663491"><ele>257.33333333333337</ele><time>2026-04-18T13:40:18Z</time></trkpt><trkpt lat="43.29290888496144" lon="10.789777773345026"><ele>260.1666666666667</ele><time>2026-04-18T13:40:19Z</time></trkpt><trkpt lat="43.29285083206387" lon="10.789849541116512"><ele>263.0</ele><time>2026-04-18T13:40:20Z</time></trkpt><trkpt lat="43.2927809050184" lon="10.78990456999025"><ele>263.0</ele><time>2026-04-18T13:40:21Z</time></trkpt><trkpt lat="43.29271271375931" lon="10.789956787699769"><ele>263.0</ele><time>2026-04-18T13:40:22Z</time></trkpt><trkpt lat="43.292653281397364" lon="10.790012104670357"><ele>263.0</ele><time>2026-04-18T13:40:23Z</time></trkpt><trkpt lat="43.29260264517833" lon="10.790077060997092"><ele>263.0</ele><time>2026-04-18T13:40:24Z</time></trkpt><trkpt lat="43.29255613422583" lon="10.79014190108808"><ele>263.0</ele><time>2026-04-18T13:40:25Z</time></trkpt><trkpt lat="43.29251228093131" lon="10.790206044123982"><ele>263.0</ele><time>2026-04-18T13:40:26.001Z</time></trkpt><trkpt lat="43.29243285532389" lon="10.790326711188834"><ele>261.83333333333337</ele><time>2026-04-18T13:40:28.001Z</time></trkpt><trkpt lat="43.29238280142973" lon="10.790386710460226"><ele>260.6666666666667</ele><time>2026-04-18T13:40:29.001Z</time></trkpt><trkpt lat="43.29233806013592" lon="10.79045622519872"><ele>259.5</ele><time>2026-04-18T13:40:30.001Z</time></trkpt><trkpt lat="43.29228797329671" lon="10.790519058549863"><ele>258.3333333333333</ele><time>2026-04-18T13:40:31.001Z</time></trkpt><trkpt lat="43.29220939204122" lon="10.790630521341878"><ele>257.16666666666663</ele><time>2026-04-18T13:40:33.001Z</time></trkpt><trkpt lat="43.292190741168056" lon="10.790780257134314"><ele>256.0</ele><time>2026-04-18T13:40:35.001Z</time></trkpt><trkpt lat="43.29219731734669" lon="10.790866666360595"><ele>255.42857142857142</ele><time>2026-04-18T13:40:36.001Z</time></trkpt><trkpt lat="43.29221630662386" lon="10.790954766060226"><ele>254.85714285714283</ele><time>2026-04-18T13:40:37.001Z</time></trkpt><trkpt lat="43.29223329937495" lon="10.791049775275724"><ele>254.28571428571428</ele><time>2026-04-18T13:40:38.001Z</time></trkpt><trkpt lat="43.29225223280976" lon="10.791146451244556"><ele>253.71428571428572</ele><time>2026-04-18T13:40:39.001Z</time></trkpt><trkpt lat="43.29227410671933" lon="10.791243745139624"><ele>253.14285714285714</ele><time>2026-04-18T13:40:40.001Z</time></trkpt><trkpt lat="43.292292199611765" lon="10.791335924264933"><ele>252.57142857142856</ele><time>2026-04-18T13:40:41.001Z</time></trkpt><trkpt lat="43.29230470880912" lon="10.791424216375153"><ele>252.0</ele><time>2026-04-18T13:40:42.001Z</time></trkpt><trkpt lat="43.29230980052996" lon="10.791587588147676"><ele>252.0</ele><time>2026-04-18T13:40:44.001Z</time></trkpt><trkpt lat="43.29229852692156" lon="10.791677384699668"><ele>252.0</ele><time>2026-04-18T13:40:45.001Z</time></trkpt><trkpt lat="43.292275118875025" lon="10.791773903739301"><ele>252.0</ele><time>2026-04-18T13:40:46.001Z</time></trkpt><trkpt lat="43.292238188987" lon="10.791865171415528"><ele>252.0</ele><time>2026-04-18T13:40:47.001Z</time></trkpt><trkpt lat="43.29220183201391" lon="10.791955581843702"><ele>252.0</ele><time>2026-04-18T13:40:48.001Z</time></trkpt><trkpt lat="43.292155208846154" lon="10.792031967572466"><ele>252.0</ele><time>2026-04-18T13:40:49.001Z</time></trkpt><trkpt lat="43.29208618625935" lon="10.7921435845841"><ele>251.0</ele><time>2026-04-18T13:40:51.001Z</time></trkpt><trkpt lat="43.29205893446009" lon="10.792242331079207"><ele>250.0</ele><time>2026-04-18T13:40:53.001Z</time></trkpt><trkpt lat="43.29203915644638" lon="10.792329995113345"><ele>249.0</ele><time>2026-04-18T13:40:55.001Z</time></trkpt><trkpt lat="43.29201008480822" lon="10.79245366236264"><ele>248.0</ele><time>2026-04-18T13:40:58.001Z</time></trkpt><trkpt lat="43.29199066947762" lon="10.792537365653882"><ele>247.0</ele><time>2026-04-18T13:41:00.001Z</time></trkpt><trkpt lat="43.291969849257484" lon="10.792622308301606"><ele>246.0</ele><time>2026-04-18T13:41:02.001Z</time></trkpt><trkpt lat="43.29196154628826" lon="10.7927315388979"><ele>245.0</ele><time>2026-04-18T13:41:07.001Z</time></trkpt><trkpt lat="43.292006117522554" lon="10.792817376683926"><ele>245.00000000000003</ele><time>2026-04-18T13:41:09.002Z</time></trkpt><trkpt lat="43.29209313990123" lon="10.792939567697962"><ele>245.0</ele><time>2026-04-18T13:41:11.002Z</time></trkpt><trkpt lat="43.292139727215186" lon="10.793010766210534"><ele>245.0</ele><time>2026-04-18T13:41:12.002Z</time></trkpt><trkpt lat="43.292186420321286" lon="10.793096774704551"><ele>245.0</ele><time>2026-04-18T13:41:13.002Z</time></trkpt><trkpt lat="43.292240741387694" lon="10.79318035933129"><ele>245.00000000000003</ele><time>2026-04-18T13:41:14.002Z</time></trkpt><trkpt lat="43.29229712978048" lon="10.793269063293842"><ele>245.0</ele><time>2026-04-18T13:41:15.002Z</time></trkpt><trkpt lat="43.29235396417792" lon="10.793361931309102"><ele>245.33333333333334</ele><time>2026-04-18T13:41:16.002Z</time></trkpt><trkpt lat="43.29240757777041" lon="10.79345580660337"><ele>245.66666666666669</ele><time>2026-04-18T13:41:17.002Z</time></trkpt><trkpt lat="43.29245585996562" lon="10.793554825350148"><ele>246.0</ele><time>2026-04-18T13:41:18.002Z</time></trkpt><trkpt lat="43.29249096206567" lon="10.793646727707662"><ele>246.33333333333331</ele><time>2026-04-18T13:41:19.002Z</time></trkpt><trkpt lat="43.29252363092467" lon="10.793728781099134"><ele>246.66666666666666</ele><time>2026-04-18T13:41:20.002Z</time></trkpt><trkpt lat="43.29256457030362" lon="10.793798516522267"><ele>247.0</ele><time>2026-04-18T13:41:21.002Z</time></trkpt><trkpt lat="43.292666505575376" lon="10.793881325519305"><ele>246.0</ele><time>2026-04-18T13:41:23.002Z</time></trkpt><trkpt lat="43.2927539813468" lon="10.793958830359486"><ele>245.0</ele><time>2026-04-18T13:41:25.002Z</time></trkpt><trkpt lat="43.2927431775769" lon="10.79410358922765"><ele>244.0</ele><time>2026-04-18T13:41:27.002Z</time></trkpt><trkpt lat="43.292628089560196" lon="10.794168571798767"><ele>243.0</ele><time>2026-04-18T13:41:29.002Z</time></trkpt><trkpt lat="43.292552430105935" lon="10.794157644925425"><ele>242.0</ele><time>2026-04-18T13:41:30.002Z</time></trkpt><trkpt lat="43.29246240064503" lon="10.794152667500088"><ele>242.0</ele><time>2026-04-18T13:41:31.002Z</time></trkpt><trkpt lat="43.29236180634684" lon="10.794151001773942"><ele>242.0</ele><time>2026-04-18T13:41:32.002Z</time></trkpt><trkpt lat="43.29225692481" lon="10.79414239638165"><ele>242.0</ele><time>2026-04-18T13:41:33.002Z</time></trkpt><trkpt lat="43.29215358922568" lon="10.794109218228092"><ele>242.0</ele><time>2026-04-18T13:41:34.002Z</time></trkpt><trkpt lat="43.29205154815805" lon="10.79405504147904"><ele>242.0</ele><time>2026-04-18T13:41:35.002Z</time></trkpt><trkpt lat="43.29196077679865" lon="10.793984688675222"><ele>240.83333333333334</ele><time>2026-04-18T13:41:36.002Z</time></trkpt><trkpt lat="43.291877648520575" lon="10.793916599432519"><ele>239.66666666666669</ele><time>2026-04-18T13:41:37.002Z</time></trkpt><trkpt lat="43.29179075776975" lon="10.793869945172265"><ele>238.5</ele><time>2026-04-18T13:41:38.002Z</time></trkpt><trkpt lat="43.29169994802395" lon="10.793840941035352"><ele>237.33333333333331</ele><time>2026-04-18T13:41:39.002Z</time></trkpt><trkpt lat="43.291614239706796" lon="10.793821443123171"><ele>236.16666666666666</ele><time>2026-04-18T13:41:40.002Z</time></trkpt><trkpt lat="43.29154064413412" lon="10.793804876834532"><ele>235.0</ele><time>2026-04-18T13:41:41.002Z</time></trkpt><trkpt lat="43.29144341845256" lon="10.793823852501491"><ele>234.99999999999997</ele><time>2026-04-18T13:41:43.002Z</time></trkpt><trkpt lat="43.29143976203128" lon="10.793948040198382"><ele>235.0</ele><time>2026-04-18T13:41:45.002Z</time></trkpt><trkpt lat="43.29148912012051" lon="10.794017829910837"><ele>235.0</ele><time>2026-04-18T13:41:46.002Z</time></trkpt><trkpt lat="43.291563429559325" lon="10.794062089759676"><ele>235.0</ele><time>2026-04-18T13:41:47.002Z</time></trkpt><trkpt lat="43.291635409177175" lon="10.794120934612154"><ele>234.99999999999997</ele><time>2026-04-18T13:41:48.002Z</time></trkpt><trkpt lat="43.29169962288643" lon="10.794216567361376"><ele>235.0</ele><time>2026-04-18T13:41:49.002Z</time></trkpt><trkpt lat="43.2917514637932" lon="10.794336657312204"><ele>232.2</ele><time>2026-04-18T13:41:50.002Z</time></trkpt><trkpt lat="43.29179447251474" lon="10.794470011690361"><ele>229.4</ele><time>2026-04-18T13:41:51.003Z</time></trkpt><trkpt lat="43.29184894342386" lon="10.794593595914465"><ele>226.60000000000002</ele><time>2026-04-18T13:41:52.003Z</time></trkpt><trkpt lat="43.29190718304306" lon="10.794708479764923"><ele>223.8</ele><time>2026-04-18T13:41:53.003Z</time></trkpt><trkpt lat="43.29197919817817" lon="10.794813401491794"><ele>221.0</ele><time>2026-04-18T13:41:54.003Z</time></trkpt><trkpt lat="43.292069632662745" lon="10.794897002181509"><ele>221.0</ele><time>2026-04-18T13:41:55.003Z</time></trkpt><trkpt lat="43.29217165649051" lon="10.79497095511715"><ele>221.0</ele><time>2026-04-18T13:41:56.003Z</time></trkpt><trkpt lat="43.29227983439123" lon="10.795044033541458"><ele>221.0</ele><time>2026-04-18T13:41:57.003Z</time></trkpt><trkpt lat="43.29238814470034" lon="10.79511572069888"><ele>221.0</ele><time>2026-04-18T13:41:58.003Z</time></trkpt><trkpt lat="43.29249344331877" lon="10.795187360187418"><ele>218.25</ele><time>2026-04-18T13:41:59.003Z</time></trkpt><trkpt lat="43.292593591528345" lon="10.795261765786874"><ele>215.5</ele><time>2026-04-18T13:42:00.003Z</time></trkpt><trkpt lat="43.292680457929755" lon="10.79535759701437"><ele>212.75</ele><time>2026-04-18T13:42:01.003Z</time></trkpt><trkpt lat="43.29274967384543" lon="10.79547904774536"><ele>210.0</ele><time>2026-04-18T13:42:02Z</time></trkpt><trkpt lat="43.292816231810356" lon="10.795608097841685"><ele>210.0</ele><time>2026-04-18T13:42:03Z</time></trkpt><trkpt lat="43.29287855391572" lon="10.795737835146193"><ele>210.0</ele><time>2026-04-18T13:42:04Z</time></trkpt><trkpt lat="43.29294321258419" lon="10.795851798712475"><ele>210.0</ele><time>2026-04-18T13:42:05Z</time></trkpt><trkpt lat="43.29300706435367" lon="10.795942296224734"><ele>210.0</ele><time>2026-04-18T13:42:06Z</time></trkpt><trkpt lat="43.29307739059184" lon="10.796001398254287"><ele>210.0</ele><time>2026-04-18T13:42:07Z</time></trkpt><trkpt lat="43.29315490067409" lon="10.796036123378363"><ele>210.33333333333334</ele><time>2026-04-18T13:42:08Z</time></trkpt><trkpt lat="43.29323557381179" lon="10.79604143155422"><ele>210.66666666666669</ele><time>2026-04-18T13:42:09Z</time></trkpt><trkpt lat="43.29331811566514" lon="10.796017383230886"><ele>211.0</ele><time>2026-04-18T13:42:10Z</time></trkpt><trkpt lat="43.29340140826495" lon="10.795970092236841"><ele>211.33333333333334</ele><time>2026-04-18T13:42:11Z</time></trkpt><trkpt lat="43.29348250747111" lon="10.795894050068483"><ele>211.66666666666669</ele><time>2026-04-18T13:42:12Z</time></trkpt><trkpt lat="43.29355595329285" lon="10.795817149834424"><ele>212.0</ele><time>2026-04-18T13:42:13Z</time></trkpt><trkpt lat="43.29362590618357" lon="10.795756652431075"><ele>212.00000000000003</ele><time>2026-04-18T13:42:14Z</time></trkpt><trkpt lat="43.293710252755154" lon="10.795733386922741"><ele>212.0</ele><time>2026-04-18T13:42:15Z</time></trkpt><trkpt lat="43.29378118331165" lon="10.795754939122318"><ele>212.0</ele><time>2026-04-18T13:42:16Z</time></trkpt><trkpt lat="43.29384405807309" lon="10.795801577955158"><ele>212.0</ele><time>2026-04-18T13:42:17Z</time></trkpt><trkpt lat="43.293888050920586" lon="10.795897283155169"><ele>212.00000000000003</ele><time>2026-04-18T13:42:18Z</time></trkpt><trkpt lat="43.29393319774561" lon="10.79600521018786"><ele>212.0</ele><time>2026-04-18T13:42:19Z</time></trkpt><trkpt lat="43.29397164950691" lon="10.796108430538037"><ele>209.6</ele><time>2026-04-18T13:42:20Z</time></trkpt><trkpt lat="43.29401549003205" lon="10.796208484620847"><ele>207.2</ele><time>2026-04-18T13:42:21Z</time></trkpt><trkpt lat="43.29406615609164" lon="10.796303733276389"><ele>204.8</ele><time>2026-04-18T13:42:22Z</time></trkpt><trkpt lat="43.294128513279524" lon="10.796395108882262"><ele>202.4</ele><time>2026-04-18T13:42:23Z</time></trkpt><trkpt lat="43.29420426003131" lon="10.796483920389647"><ele>200.0</ele><time>2026-04-18T13:42:24Z</time></trkpt><trkpt lat="43.294284549223235" lon="10.796559571777797"><ele>200.0</ele><time>2026-04-18T13:42:25Z</time></trkpt><trkpt lat="43.29437188412088" lon="10.796618405827832"><ele>200.0</ele><time>2026-04-18T13:42:26Z</time></trkpt><trkpt lat="43.29446578652395" lon="10.796656375168768"><ele>200.0</ele><time>2026-04-18T13:42:27Z</time></trkpt><trkpt lat="43.29456712655695" lon="10.796665150726678"><ele>200.0</ele><time>2026-04-18T13:42:28Z</time></trkpt><trkpt lat="43.29467013337442" lon="10.796652000202837"><ele>200.0</ele><time>2026-04-18T13:42:29Z</time></trkpt><trkpt lat="43.29477360579136" lon="10.796634055083405"><ele>198.6</ele><time>2026-04-18T13:42:30Z</time></trkpt><trkpt lat="43.29487675009732" lon="10.796641702900459"><ele>197.2</ele><time>2026-04-18T13:42:31Z</time></trkpt><trkpt lat="43.29496891306193" lon="10.796682380557689"><ele>195.8</ele><time>2026-04-18T13:42:32Z</time></trkpt><trkpt lat="43.29505022533737" lon="10.796724874106438"><ele>194.4</ele><time>2026-04-18T13:42:33Z</time></trkpt><trkpt lat="43.295135958447666" lon="10.796736651491232"><ele>193.0</ele><time>2026-04-18T13:42:34.001Z</time></trkpt><trkpt lat="43.295221464839166" lon="10.796708293102451"><ele>193.0</ele><time>2026-04-18T13:42:35.001Z</time></trkpt><trkpt lat="43.295296504903476" lon="10.796645078937154"><ele>193.0</ele><time>2026-04-18T13:42:36.001Z</time></trkpt><trkpt lat="43.29537101282313" lon="10.79656029569205"><ele>193.0</ele><time>2026-04-18T13:42:37.001Z</time></trkpt><trkpt lat="43.29544368264081" lon="10.796463766290366"><ele>193.0</ele><time>2026-04-18T13:42:38.001Z</time></trkpt><trkpt lat="43.29549741977838" lon="10.79635118084037"><ele>193.0</ele><time>2026-04-18T13:42:39.001Z</time></trkpt><trkpt lat="43.29552559518205" lon="10.796232850811592"><ele>192.99999999999997</ele><time>2026-04-18T13:42:40.001Z</time></trkpt><trkpt lat="43.29554237397254" lon="10.79613017672738"><ele>193.0</ele><time>2026-04-18T13:42:41.001Z</time></trkpt><trkpt lat="43.29558503964213" lon="10.796047901618058"><ele>193.0</ele><time>2026-04-18T13:42:42.001Z</time></trkpt><trkpt lat="43.29565453381039" lon="10.795993273421713"><ele>193.0</ele><time>2026-04-18T13:42:43.001Z</time></trkpt><trkpt lat="43.29573997197587" lon="10.795991134353972"><ele>192.99999999999997</ele><time>2026-04-18T13:42:44.001Z</time></trkpt><trkpt lat="43.29582544009144" lon="10.796031910844711"><ele>193.0</ele><time>2026-04-18T13:42:45.001Z</time></trkpt><trkpt lat="43.29591784988428" lon="10.796040071471758"><ele>191.0</ele><time>2026-04-18T13:42:46.001Z</time></trkpt><trkpt lat="43.29601968286141" lon="10.795989572378074"><ele>189.0</ele><time>2026-04-18T13:42:47.001Z</time></trkpt><trkpt lat="43.2961222340071" lon="10.795925726740334"><ele>187.0</ele><time>2026-04-18T13:42:48.001Z</time></trkpt><trkpt lat="43.296234618067984" lon="10.79589268485467"><ele>185.0</ele><time>2026-04-18T13:42:49.001Z</time></trkpt><trkpt lat="43.29634849656203" lon="10.795870463912726"><ele>182.4</ele><time>2026-04-18T13:42:50.001Z</time></trkpt><trkpt lat="43.296459101262876" lon="10.79587231808054"><ele>179.8</ele><time>2026-04-18T13:42:51.001Z</time></trkpt><trkpt lat="43.29655154564433" lon="10.795860844057666"><ele>177.2</ele><time>2026-04-18T13:42:52.001Z</time></trkpt><trkpt lat="43.29663328613285" lon="10.795816174877805"><ele>174.6</ele><time>2026-04-18T13:42:53.001Z</time></trkpt><trkpt lat="43.29670062839552" lon="10.795739795825925"><ele>172.0</ele><time>2026-04-18T13:42:54.001Z</time></trkpt><trkpt lat="43.29674872488149" lon="10.795628955011203"><ele>172.0</ele><time>2026-04-18T13:42:55.001Z</time></trkpt><trkpt lat="43.29679157700892" lon="10.795504715169898"><ele>172.0</ele><time>2026-04-18T13:42:56.001Z</time></trkpt><trkpt lat="43.29683202358838" lon="10.795381397953868"><ele>172.0</ele><time>2026-04-18T13:42:57.001Z</time></trkpt><trkpt lat="43.29688498513737" lon="10.795282589032057"><ele>172.0</ele><time>2026-04-18T13:42:58.001Z</time></trkpt><trkpt lat="43.29695736336263" lon="10.795218337146611"><ele>172.0</ele><time>2026-04-18T13:42:59.001Z</time></trkpt><trkpt lat="43.29704236626931" lon="10.795186511834547"><ele>172.0</ele><time>2026-04-18T13:43:00.001Z</time></trkpt><trkpt lat="43.29714142874344" lon="10.79519715671105"><ele>172.0</ele><time>2026-04-18T13:43:01.001Z</time></trkpt><trkpt lat="43.29724699544127" lon="10.79523378254755"><ele>172.0</ele><time>2026-04-18T13:43:02.001Z</time></trkpt><trkpt lat="43.297364106427636" lon="10.795260508248662"><ele>172.0</ele><time>2026-04-18T13:43:03.001Z</time></trkpt><trkpt lat="43.297496190258414" lon="10.795266781479008"><ele>169.0</ele><time>2026-04-18T13:43:04.001Z</time></trkpt><trkpt lat="43.297634221389806" lon="10.795260610913815"><ele>166.0</ele><time>2026-04-18T13:43:05.001Z</time></trkpt><trkpt lat="43.2977656376471" lon="10.795247613131554"><ele>163.0</ele><time>2026-04-18T13:43:06.001Z</time></trkpt><trkpt lat="43.29788748438771" lon="10.795235821295817"><ele>160.0</ele><time>2026-04-18T13:43:07.001Z</time></trkpt><trkpt lat="43.29799389114791" lon="10.795240542342087"><ele>160.4</ele><time>2026-04-18T13:43:08.001Z</time></trkpt><trkpt lat="43.298089214751" lon="10.79527752649149"><ele>160.8</ele><time>2026-04-18T13:43:09.001Z</time></trkpt><trkpt lat="43.29817739009234" lon="10.795352433697383"><ele>161.2</ele><time>2026-04-18T13:43:10.001Z</time></trkpt><trkpt lat="43.298252493527265" lon="10.79545789591789"><ele>161.6</ele><time>2026-04-18T13:43:11.001Z</time></trkpt><trkpt lat="43.2983202551561" lon="10.795576410872151"><ele>162.0</ele><time>2026-04-18T13:43:12.001Z</time></trkpt><trkpt lat="43.29837637937506" lon="10.795699778986355"><ele>162.0</ele><time>2026-04-18T13:43:13.001Z</time></trkpt><trkpt lat="43.29841420109562" lon="10.795832503536847"><ele>162.0</ele><time>2026-04-18T13:43:14.001Z</time></trkpt><trkpt lat="43.298421773002985" lon="10.795980619856795"><ele>162.0</ele><time>2026-04-18T13:43:15.001Z</time></trkpt><trkpt lat="43.29841404425177" lon="10.796127185597916"><ele>162.0</ele><time>2026-04-18T13:43:16.002Z</time></trkpt><trkpt lat="43.29840405570832" lon="10.796280083704342"><ele>162.0</ele><time>2026-04-18T13:43:17.002Z</time></trkpt><trkpt lat="43.29839699981605" lon="10.79643163982747"><ele>160.79999999999998</ele><time>2026-04-18T13:43:18.002Z</time></trkpt><trkpt lat="43.298392925492045" lon="10.796580353619584"><ele>159.6</ele><time>2026-04-18T13:43:19.002Z</time></trkpt><trkpt lat="43.29839131576955" lon="10.796718706000837"><ele>158.39999999999998</ele><time>2026-04-18T13:43:20.002Z</time></trkpt><trkpt lat="43.29839437378019" lon="10.796849920482481"><ele>157.2</ele><time>2026-04-18T13:43:21.002Z</time></trkpt><trkpt lat="43.298423766721406" lon="10.796972317781051"><ele>156.0</ele><time>2026-04-18T13:43:22.002Z</time></trkpt><trkpt lat="43.29847453980463" lon="10.797085437678174"><ele>154.0</ele><time>2026-04-18T13:43:23.002Z</time></trkpt><trkpt lat="43.29854123480582" lon="10.797200916106657"><ele>152.0</ele><time>2026-04-18T13:43:24.002Z</time></trkpt><trkpt lat="43.29861882568326" lon="10.797320938561285"><ele>150.0</ele><time>2026-04-18T13:43:25.002Z</time></trkpt><trkpt lat="43.29869819945494" lon="10.797434121394478"><ele>148.0</ele><time>2026-04-18T13:43:26.002Z</time></trkpt><trkpt lat="43.29877168904955" lon="10.797543893439654"><ele>146.0</ele><time>2026-04-18T13:43:27.002Z</time></trkpt><trkpt lat="43.29883287033368" lon="10.797664417602443"><ele>147.4</ele><time>2026-04-18T13:43:28.002Z</time></trkpt><trkpt lat="43.29887127258075" lon="10.797795018294652"><ele>148.8</ele><time>2026-04-18T13:43:29.002Z</time></trkpt><trkpt lat="43.29888675783912" lon="10.797937481134234"><ele>150.20000000000002</ele><time>2026-04-18T13:43:30.002Z</time></trkpt><trkpt lat="43.29889503251748" lon="10.798076607411328"><ele>151.6</ele><time>2026-04-18T13:43:31.002Z</time></trkpt><trkpt lat="43.29892774859926" lon="10.798201060682615"><ele>153.0</ele><time>2026-04-18T13:43:32.002Z</time></trkpt><trkpt lat="43.29898449649266" lon="10.798319837529748"><ele>153.0</ele><time>2026-04-18T13:43:33.002Z</time></trkpt><trkpt lat="43.29904857959589" lon="10.798438336895154"><ele>153.0</ele><time>2026-04-18T13:43:34.002Z</time></trkpt><trkpt lat="43.29911530096971" lon="10.798560357779344"><ele>153.0</ele><time>2026-04-18T13:43:35.002Z</time></trkpt><trkpt lat="43.2991819614513" lon="10.79869146808595"><ele>153.0</ele><time>2026-04-18T13:43:36.002Z</time></trkpt><trkpt lat="43.29924757889686" lon="10.798823892826574"><ele>151.6</ele><time>2026-04-18T13:43:37.002Z</time></trkpt><trkpt lat="43.299310224057464" lon="10.798954403062506"><ele>150.20000000000002</ele><time>2026-04-18T13:43:38.002Z</time></trkpt><trkpt lat="43.29936256926859" lon="10.799085635031409"><ele>148.8</ele><time>2026-04-18T13:43:39.002Z</time></trkpt><trkpt lat="43.299401612597" lon="10.799216898595938"><ele>147.4</ele><time>2026-04-18T13:43:40.002Z</time></trkpt><trkpt lat="43.299420014302" lon="10.799354771466545"><ele>146.0</ele><time>2026-04-18T13:43:41.002Z</time></trkpt><trkpt lat="43.29942146647429" lon="10.799497105249726"><ele>144.8</ele><time>2026-04-18T13:43:42.002Z</time></trkpt><trkpt lat="43.29941945092955" lon="10.799642227933441"><ele>143.6</ele><time>2026-04-18T13:43:43.002Z</time></trkpt><trkpt lat="43.29942882904445" lon="10.799790244327122"><ele>142.4</ele><time>2026-04-18T13:43:44.002Z</time></trkpt><trkpt lat="43.29944601208971" lon="10.799934805584561"><ele>141.2</ele><time>2026-04-18T13:43:45.002Z</time></trkpt><trkpt lat="43.29945924260631" lon="10.800073205075556"><ele>140.0</ele><time>2026-04-18T13:43:46.002Z</time></trkpt><trkpt lat="43.299458127995806" lon="10.80020741185039"><ele>139.66666666666666</ele><time>2026-04-18T13:43:47.002Z</time></trkpt><trkpt lat="43.29943377724199" lon="10.800329317616217"><ele>139.33333333333331</ele><time>2026-04-18T13:43:48.002Z</time></trkpt><trkpt lat="43.29938754800511" lon="10.80043589797055"><ele>139.0</ele><time>2026-04-18T13:43:49.002Z</time></trkpt><trkpt lat="43.299335081460654" lon="10.80052843434595"><ele>138.66666666666666</ele><time>2026-04-18T13:43:50.002Z</time></trkpt><trkpt lat="43.29929970484411" lon="10.800624678328196"><ele>138.33333333333334</ele><time>2026-04-18T13:43:51.002Z</time></trkpt><trkpt lat="43.2992899085103" lon="10.800728498686121"><ele>138.0</ele><time>2026-04-18T13:43:52.002Z</time></trkpt><trkpt lat="43.29930424372678" lon="10.800831395618497"><ele>138.0</ele><time>2026-04-18T13:43:53.002Z</time></trkpt><trkpt lat="43.29934288763588" lon="10.800929295514587"><ele>138.0</ele><time>2026-04-18T13:43:54.002Z</time></trkpt><trkpt lat="43.29939862934669" lon="10.801016276045216"><ele>138.0</ele><time>2026-04-18T13:43:55.002Z</time></trkpt><trkpt lat="43.29947064518659" lon="10.801085463861876"><ele>138.0</ele><time>2026-04-18T13:43:56.002Z</time></trkpt><trkpt lat="43.29955305453902" lon="10.801134801779927"><ele>138.0</ele><time>2026-04-18T13:43:57.002Z</time></trkpt><trkpt lat="43.299647451742956" lon="10.80117596036962"><ele>138.0</ele><time>2026-04-18T13:43:58.003Z</time></trkpt><trkpt lat="43.299746061017935" lon="10.80121557054924"><ele>139.5</ele><time>2026-04-18T13:43:59.003Z</time></trkpt><trkpt lat="43.29985095008845" lon="10.801255395901098"><ele>141.0</ele><time>2026-04-18T13:44:00.003Z</time></trkpt><trkpt lat="43.29996092801846" lon="10.801291630693383"><ele>142.5</ele><time>2026-04-18T13:44:01.003Z</time></trkpt><trkpt lat="43.30007572639761" lon="10.801319145565754"><ele>144.0</ele><time>2026-04-18T13:44:02.003Z</time></trkpt><trkpt lat="43.300191403929276" lon="10.801332040461126"><ele>144.0</ele><time>2026-04-18T13:44:03.003Z</time></trkpt><trkpt lat="43.30030570822878" lon="10.801327123230761"><ele>144.0</ele><time>2026-04-18T13:44:04.003Z</time></trkpt><trkpt lat="43.30041626796393" lon="10.8013070294161"><ele>144.0</ele><time>2026-04-18T13:44:05.003Z</time></trkpt><trkpt lat="43.30052405921474" lon="10.801298965129936"><ele>144.0</ele><time>2026-04-18T13:44:06.003Z</time></trkpt><trkpt lat="43.3006243816967" lon="10.801310253314599"><ele>144.0</ele><time>2026-04-18T13:44:07.003Z</time></trkpt><trkpt lat="43.30072109665425" lon="10.801350770900038"><ele>143.75</ele><time>2026-04-18T13:44:08Z</time></trkpt><trkpt lat="43.30081130724266" lon="10.801423319501906"><ele>143.5</ele><time>2026-04-18T13:44:09Z</time></trkpt><trkpt lat="43.30089868167911" lon="10.801520199618324"><ele>143.25</ele><time>2026-04-18T13:44:10Z</time></trkpt><trkpt lat="43.300991720071124" lon="10.80162500191824"><ele>143.0</ele><time>2026-04-18T13:44:11Z</time></trkpt><trkpt lat="43.301088145424714" lon="10.801726861383765"><ele>143.0</ele><time>2026-04-18T13:44:12Z</time></trkpt><trkpt lat="43.30118708711526" lon="10.801828731941638"><ele>143.0</ele><time>2026-04-18T13:44:13Z</time></trkpt><trkpt lat="43.30129067489228" lon="10.801934979635307"><ele>143.0</ele><time>2026-04-18T13:44:14Z</time></trkpt><trkpt lat="43.30140186496322" lon="10.802045264867848"><ele>143.0</ele><time>2026-04-18T13:44:15Z</time></trkpt><trkpt lat="43.30151629924324" lon="10.802158594552266"><ele>142.25</ele><time>2026-04-18T13:44:16Z</time></trkpt><trkpt lat="43.30163271693213" lon="10.80227277140377"><ele>141.5</ele><time>2026-04-18T13:44:17Z</time></trkpt><trkpt lat="43.301751101149456" lon="10.802382311943346"><ele>140.75</ele><time>2026-04-18T13:44:18Z</time></trkpt><trkpt lat="43.30186488217086" lon="10.802487638192815"><ele>140.0</ele><time>2026-04-18T13:44:19Z</time></trkpt><trkpt lat="43.30197635915957" lon="10.802586191417282"><ele>138.8</ele><time>2026-04-18T13:44:20Z</time></trkpt><trkpt lat="43.302078279040295" lon="10.802680153286385"><ele>137.6</ele><time>2026-04-18T13:44:21Z</time></trkpt><trkpt lat="43.302172557265735" lon="10.802767294422065"><ele>136.4</ele><time>2026-04-18T13:44:22Z</time></trkpt><trkpt lat="43.30226547156313" lon="10.802842699680745"><ele>135.2</ele><time>2026-04-18T13:44:23Z</time></trkpt><trkpt lat="43.30235898295498" lon="10.802908264095027"><ele>134.0</ele><time>2026-04-18T13:44:24Z</time></trkpt><trkpt lat="43.30245776834264" lon="10.80295067719116"><ele>134.0</ele><time>2026-04-18T13:44:25Z</time></trkpt><trkpt lat="43.302561687677525" lon="10.80296937185107"><ele>134.0</ele><time>2026-04-18T13:44:26Z</time></trkpt><trkpt lat="43.30266852761409" lon="10.802961784787533"><ele>134.0</ele><time>2026-04-18T13:44:27Z</time></trkpt><trkpt lat="43.30277210195246" lon="10.802921843508845"><ele>134.0</ele><time>2026-04-18T13:44:28Z</time></trkpt><trkpt lat="43.30286743301603" lon="10.802853660559842"><ele>134.0</ele><time>2026-04-18T13:44:29Z</time></trkpt><trkpt lat="43.30294849223189" lon="10.802773208059113"><ele>134.0</ele><time>2026-04-18T13:44:30Z</time></trkpt><trkpt lat="43.303033387196905" lon="10.80270451742086"><ele>134.0</ele><time>2026-04-18T13:44:31Z</time></trkpt><trkpt lat="43.30312504145141" lon="10.802657705977248"><ele>134.0</ele><time>2026-04-18T13:44:32Z</time></trkpt><trkpt lat="43.30322463369818" lon="10.80263151099415"><ele>134.0</ele><time>2026-04-18T13:44:33Z</time></trkpt><trkpt lat="43.303327275212254" lon="10.802629665481618"><ele>134.0</ele><time>2026-04-18T13:44:34Z</time></trkpt><trkpt lat="43.3034268547285" lon="10.802649727587639"><ele>133.2</ele><time>2026-04-18T13:44:35Z</time></trkpt><trkpt lat="43.30352000965974" lon="10.802702418849783"><ele>132.4</ele><time>2026-04-18T13:44:36Z</time></trkpt><trkpt lat="43.30360026231443" lon="10.802776511146318"><ele>131.6</ele><time>2026-04-18T13:44:37Z</time></trkpt><trkpt lat="43.30365091975613" lon="10.802897699284882"><ele>130.8</ele><time>2026-04-18T13:44:38Z</time></trkpt><trkpt lat="43.30368502237419" lon="10.803040950066396"><ele>130.0</ele><time>2026-04-18T13:44:39.001Z</time></trkpt><trkpt lat="43.30370887507532" lon="10.803195971237386"><ele>130.0</ele><time>2026-04-18T13:44:40.001Z</time></trkpt><trkpt lat="43.30373265340616" lon="10.803364534654154"><ele>130.0</ele><time>2026-04-18T13:44:41.001Z</time></trkpt><trkpt lat="43.303764699233476" lon="10.803535367201679"><ele>130.0</ele><time>2026-04-18T13:44:42.001Z</time></trkpt><trkpt lat="43.30379828927334" lon="10.803716343484721"><ele>130.0</ele><time>2026-04-18T13:44:43.001Z</time></trkpt><trkpt lat="43.303832442474835" lon="10.803906840324768"><ele>127.66666666666667</ele><time>2026-04-18T13:44:44.001Z</time></trkpt><trkpt lat="43.30386975124665" lon="10.804107364244722"><ele>125.33333333333334</ele><time>2026-04-18T13:44:45.001Z</time></trkpt><trkpt lat="43.30390616425726" lon="10.804314423141324"><ele>123.0</ele><time>2026-04-18T13:44:46.001Z</time></trkpt><trkpt lat="43.30394764677062" lon="10.804519438968441"><ele>118.0</ele><time>2026-04-18T13:44:47.001Z</time></trkpt><trkpt lat="43.30398690327308" lon="10.804709707313718"><ele>113.0</ele><time>2026-04-18T13:44:48.001Z</time></trkpt><trkpt lat="43.30402781593619" lon="10.804891431091763"><ele>108.0</ele><time>2026-04-18T13:44:49.001Z</time></trkpt><trkpt lat="43.30405935189804" lon="10.80507121533928"><ele>103.0</ele><time>2026-04-18T13:44:50.001Z</time></trkpt><trkpt lat="43.30407800100362" lon="10.805261026473824"><ele>102.25</ele><time>2026-04-18T13:44:51.001Z</time></trkpt><trkpt lat="43.304085824362076" lon="10.805439890442134"><ele>101.5</ele><time>2026-04-18T13:44:52.001Z</time></trkpt><trkpt lat="43.30408669811299" lon="10.805612487382684"><ele>100.75</ele><time>2026-04-18T13:44:53.001Z</time></trkpt><trkpt lat="43.30407293054483" lon="10.805775228644933"><ele>100.0</ele><time>2026-04-18T13:44:54.001Z</time></trkpt><trkpt lat="43.304034394070484" lon="10.80592856120807"><ele>100.0</ele><time>2026-04-18T13:44:55.001Z</time></trkpt><trkpt lat="43.30397215389734" lon="10.806079325875135"><ele>100.0</ele><time>2026-04-18T13:44:56.001Z</time></trkpt><trkpt lat="43.30388460844821" lon="10.806217051097622"><ele>100.0</ele><time>2026-04-18T13:44:57.001Z</time></trkpt><trkpt lat="43.303784450522315" lon="10.806341839147798"><ele>100.0</ele><time>2026-04-18T13:44:58.001Z</time></trkpt><trkpt lat="43.303685147312784" lon="10.806478689611136"><ele>100.0</ele><time>2026-04-18T13:44:59.001Z</time></trkpt><trkpt lat="43.30358391072007" lon="10.806621026293266"><ele>100.0</ele><time>2026-04-18T13:45:00.001Z</time></trkpt><trkpt lat="43.30348109367981" lon="10.806766114693305"><ele>100.0</ele><time>2026-04-18T13:45:01.001Z</time></trkpt><trkpt lat="43.30337249569081" lon="10.80691114428663"><ele>100.0</ele><time>2026-04-18T13:45:02.001Z</time></trkpt><trkpt lat="43.30326960944782" lon="10.807050955276496"><ele>99.75</ele><time>2026-04-18T13:45:03.001Z</time></trkpt><trkpt lat="43.303170087082414" lon="10.80718391424897"><ele>99.5</ele><time>2026-04-18T13:45:04.001Z</time></trkpt><trkpt lat="43.303074703387026" lon="10.807312206217185"><ele>99.25</ele><time>2026-04-18T13:45:05.001Z</time></trkpt><trkpt lat="43.30298248891336" lon="10.807434019641326"><ele>99.0</ele><time>2026-04-18T13:45:06.001Z</time></trkpt><trkpt lat="43.302894042112605" lon="10.807558517621542"><ele>99.75</ele><time>2026-04-18T13:45:07.001Z</time></trkpt><trkpt lat="43.30281472752345" lon="10.807686923324853"><ele>100.5</ele><time>2026-04-18T13:45:08.001Z</time></trkpt><trkpt lat="43.30274591587583" lon="10.807822976262372"><ele>101.25</ele><time>2026-04-18T13:45:09.001Z</time></trkpt><trkpt lat="43.30269152512522" lon="10.807965958368209"><ele>102.0</ele><time>2026-04-18T13:45:10.001Z</time></trkpt><trkpt lat="43.30264465966551" lon="10.80811188447904"><ele>102.0</ele><time>2026-04-18T13:45:11.001Z</time></trkpt><trkpt lat="43.302593526435075" lon="10.808264266341359"><ele>102.0</ele><time>2026-04-18T13:45:12.001Z</time></trkpt><trkpt lat="43.30254457890911" lon="10.808419448286218"><ele>102.0</ele><time>2026-04-18T13:45:13.001Z</time></trkpt><trkpt lat="43.30249553099175" lon="10.808561602794107"><ele>102.0</ele><time>2026-04-18T13:45:14.001Z</time></trkpt><trkpt lat="43.30245045407481" lon="10.808702367005257"><ele>102.0</ele><time>2026-04-18T13:45:15.001Z</time></trkpt><trkpt lat="43.302411245340565" lon="10.808823926042072"><ele>102.0</ele><time>2026-04-18T13:45:16.001Z</time></trkpt><trkpt lat="43.302374922866704" lon="10.80892486373"><ele>102.0</ele><time>2026-04-18T13:45:17.001Z</time></trkpt><trkpt lat="43.30234531667996" lon="10.809001628014588"><ele>102.0</ele><time>2026-04-18T13:45:18.001Z</time></trkpt><trkpt lat="43.30229273563309" lon="10.809115741467274"><ele>102.0</ele><time>2026-04-18T13:45:20.001Z</time></trkpt><trkpt lat="43.30223829965309" lon="10.80922219000191"><ele>102.0</ele><time>2026-04-18T13:45:22.001Z</time></trkpt><trkpt lat="43.30213497373284" lon="10.809239746898601"><ele>103.0</ele><time>2026-04-18T13:45:24.002Z</time></trkpt><trkpt lat="43.30208337415694" lon="10.809188444156067"><ele>104.0</ele><time>2026-04-18T13:45:25.002Z</time></trkpt><trkpt lat="43.30204253857667" lon="10.80911748900765"><ele>105.0</ele><time>2026-04-18T13:45:26.002Z</time></trkpt><trkpt lat="43.30199905061811" lon="10.809053648211613"><ele>106.0</ele><time>2026-04-18T13:45:27.002Z</time></trkpt><trkpt lat="43.30194469782205" lon="10.808989154873503"><ele>107.0</ele><time>2026-04-18T13:45:28.002Z</time></trkpt><trkpt lat="43.30189071513186" lon="10.808923147181957"><ele>108.0</ele><time>2026-04-18T13:45:29.002Z</time></trkpt><trkpt lat="43.30183480019835" lon="10.808855004161389"><ele>109.0</ele><time>2026-04-18T13:45:30.002Z</time></trkpt><trkpt lat="43.301773004927675" lon="10.80878256254445"><ele>109.0</ele><time>2026-04-18T13:45:31.002Z</time></trkpt><trkpt lat="43.30170557672329" lon="10.808707849410004"><ele>109.0</ele><time>2026-04-18T13:45:32.002Z</time></trkpt><trkpt lat="43.301632808630195" lon="10.808630926033365"><ele>109.0</ele><time>2026-04-18T13:45:33.002Z</time></trkpt><trkpt lat="43.30155598803439" lon="10.808548705717797"><ele>109.0</ele><time>2026-04-18T13:45:34.002Z</time></trkpt><trkpt lat="43.301478717045136" lon="10.808469977841378"><ele>109.0</ele><time>2026-04-18T13:45:35.002Z</time></trkpt><trkpt lat="43.3014088131605" lon="10.808392721324315"><ele>109.80000000000001</ele><time>2026-04-18T13:45:36.002Z</time></trkpt><trkpt lat="43.30135027528383" lon="10.808326036963855"><ele>110.60000000000001</ele><time>2026-04-18T13:45:37.002Z</time></trkpt><trkpt lat="43.30129548456466" lon="10.808277535139645"><ele>111.4</ele><time>2026-04-18T13:45:38.002Z</time></trkpt><trkpt lat="43.301184246236744" lon="10.8082713617544"><ele>112.2</ele><time>2026-04-18T13:45:40.002Z</time></trkpt><trkpt lat="43.301130237850955" lon="10.808368629326923"><ele>113.0</ele><time>2026-04-18T13:45:42.002Z</time></trkpt><trkpt lat="43.30116567000662" lon="10.808540400761135"><ele>114.33333333333333</ele><time>2026-04-18T13:45:44.002Z</time></trkpt><trkpt lat="43.30119691348155" lon="10.808651740563498"><ele>115.66666666666666</ele><time>2026-04-18T13:45:45.002Z</time></trkpt><trkpt lat="43.301220221653175" lon="10.808752536131873"><ele>117.0</ele><time>2026-04-18T13:45:46.002Z</time></trkpt><trkpt lat="43.301221711935696" lon="10.80886232247126"><ele>118.33333333333334</ele><time>2026-04-18T13:45:47.002Z</time></trkpt><trkpt lat="43.301202221500766" lon="10.808961162779894"><ele>119.66666666666667</ele><time>2026-04-18T13:45:48.002Z</time></trkpt><trkpt lat="43.301161384903835" lon="10.80904870380972"><ele>121.0</ele><time>2026-04-18T13:45:49.002Z</time></trkpt><trkpt lat="43.301095848890576" lon="10.809121285399415"><ele>121.0</ele><time>2026-04-18T13:45:50.002Z</time></trkpt><trkpt lat="43.301021227179" lon="10.809196628616723"><ele>121.0</ele><time>2026-04-18T13:45:51.002Z</time></trkpt><trkpt lat="43.3009415780317" lon="10.809270994961649"><ele>121.0</ele><time>2026-04-18T13:45:52.002Z</time></trkpt><trkpt lat="43.30085909552747" lon="10.809349768931208"><ele>121.0</ele><time>2026-04-18T13:45:53.002Z</time></trkpt><trkpt lat="43.30077661168222" lon="10.809443729831134"><ele>121.0</ele><time>2026-04-18T13:45:54.002Z</time></trkpt><trkpt lat="43.30070365239919" lon="10.809539292042258"><ele>120.19999999999999</ele><time>2026-04-18T13:45:55.002Z</time></trkpt><trkpt lat="43.30063526490489" lon="10.809627970679633"><ele>119.39999999999999</ele><time>2026-04-18T13:45:56.002Z</time></trkpt><trkpt lat="43.30057151702227" lon="10.809714954815956"><ele>118.6</ele><time>2026-04-18T13:45:57.002Z</time></trkpt><trkpt lat="43.300515450994936" lon="10.809802605216305"><ele>117.8</ele><time>2026-04-18T13:45:58.002Z</time></trkpt><trkpt lat="43.30047570373669" lon="10.809912561592082"><ele>117.0</ele><time>2026-04-18T13:45:59.002Z</time></trkpt><trkpt lat="43.30044752345423" lon="10.810035034003803"><ele>120.0</ele><time>2026-04-18T13:46:00.002Z</time></trkpt><trkpt lat="43.300429444598066" lon="10.810163527193435"><ele>123.0</ele><time>2026-04-18T13:46:01.002Z</time></trkpt><trkpt lat="43.300426603194154" lon="10.810298059264179"><ele>126.0</ele><time>2026-04-18T13:46:02.002Z</time></trkpt><trkpt lat="43.3004311033057" lon="10.810428188230336"><ele>129.0</ele><time>2026-04-18T13:46:03.002Z</time></trkpt><trkpt lat="43.300436253795965" lon="10.810539077327935"><ele>132.0</ele><time>2026-04-18T13:46:04.002Z</time></trkpt><trkpt lat="43.30043141446485" lon="10.810632460403369"><ele>135.0</ele><time>2026-04-18T13:46:05.002Z</time></trkpt><trkpt lat="43.300401313857385" lon="10.81071404637387"><ele>135.0</ele><time>2026-04-18T13:46:06.003Z</time></trkpt><trkpt lat="43.30034330817837" lon="10.810764423280753"><ele>135.0</ele><time>2026-04-18T13:46:07.003Z</time></trkpt><trkpt lat="43.30021318233696" lon="10.810737744682385"><ele>135.0</ele><time>2026-04-18T13:46:09.003Z</time></trkpt><trkpt lat="43.3001297419893" lon="10.8105997525061"><ele>135.0</ele><time>2026-04-18T13:46:11.003Z</time></trkpt><trkpt lat="43.3000803586588" lon="10.810515321338613"><ele>135.0</ele><time>2026-04-18T13:46:12.003Z</time></trkpt><trkpt lat="43.300033475206" lon="10.810414781874284"><ele>135.0</ele><time>2026-04-18T13:46:13.003Z</time></trkpt><trkpt lat="43.29999073898065" lon="10.810300337163563"><ele>135.0</ele><time>2026-04-18T13:46:14Z</time></trkpt><trkpt lat="43.2999607273804" lon="10.810176478693378"><ele>135.0</ele><time>2026-04-18T13:46:15Z</time></trkpt><trkpt lat="43.299901097690295" lon="10.810073304386309"><ele>135.0</ele><time>2026-04-18T13:46:16Z</time></trkpt><trkpt lat="43.29983614310388" lon="10.809975799703597"><ele>135.0</ele><time>2026-04-18T13:46:17Z</time></trkpt><trkpt lat="43.29978351074213" lon="10.809874240291634"><ele>135.16666666666666</ele><time>2026-04-18T13:46:18Z</time></trkpt><trkpt lat="43.29974850937091" lon="10.809757448253835"><ele>135.33333333333334</ele><time>2026-04-18T13:46:19Z</time></trkpt><trkpt lat="43.299722348595566" lon="10.809641975191381"><ele>135.5</ele><time>2026-04-18T13:46:20Z</time></trkpt><trkpt lat="43.2996886496787" lon="10.80953918645154"><ele>135.66666666666669</ele><time>2026-04-18T13:46:21Z</time></trkpt><trkpt lat="43.29965254053169" lon="10.809443774872763"><ele>135.83333333333334</ele><time>2026-04-18T13:46:22Z</time></trkpt><trkpt lat="43.299603369587494" lon="10.809369045465372"><ele>136.0</ele><time>2026-04-18T13:46:23Z</time></trkpt><trkpt lat="43.29953948227465" lon="10.809321006770995"><ele>136.0</ele><time>2026-04-18T13:46:24Z</time></trkpt><trkpt lat="43.29946610914992" lon="10.809305442580872"><ele>136.0</ele><time>2026-04-18T13:46:25Z</time></trkpt><trkpt lat="43.29938425881565" lon="10.809320248774338"><ele>136.0</ele><time>2026-04-18T13:46:26Z</time></trkpt><trkpt lat="43.2992961490036" lon="10.809352816387735"><ele>136.0</ele><time>2026-04-18T13:46:27Z</time></trkpt><trkpt lat="43.29920037521173" lon="10.80938835211663"><ele>136.0</ele><time>2026-04-18T13:46:28Z</time></trkpt><trkpt lat="43.29909965662867" lon="10.80942011040468"><ele>137.5</ele><time>2026-04-18T13:46:29Z</time></trkpt><trkpt lat="43.29899432387244" lon="10.80945769084364"><ele>139.0</ele><time>2026-04-18T13:46:30Z</time></trkpt><trkpt lat="43.29888639319256" lon="10.809499582302955"><ele>140.5</ele><time>2026-04-18T13:46:31Z</time></trkpt><trkpt lat="43.29877564378104" lon="10.809542936491601"><ele>142.0</ele><time>2026-04-18T13:46:32Z</time></trkpt><trkpt lat="43.29865894329445" lon="10.809589302027645"><ele>142.25</ele><time>2026-04-18T13:46:33Z</time></trkpt><trkpt lat="43.29853880682441" lon="10.809632756490922"><ele>142.5</ele><time>2026-04-18T13:46:34Z</time></trkpt><trkpt lat="43.29841857105083" lon="10.809681020609275"><ele>142.75</ele><time>2026-04-18T13:46:35Z</time></trkpt><trkpt lat="43.298301094450835" lon="10.809736435342508"><ele>143.0</ele><time>2026-04-18T13:46:36Z</time></trkpt><trkpt lat="43.29818437637524" lon="10.809797987932827"><ele>142.75</ele><time>2026-04-18T13:46:37Z</time></trkpt><trkpt lat="43.2980673977552" lon="10.809860131655107"><ele>142.5</ele><time>2026-04-18T13:46:38Z</time></trkpt><trkpt lat="43.29794850460767" lon="10.809922514408186"><ele>142.25</ele><time>2026-04-18T13:46:39Z</time></trkpt><trkpt lat="43.29782596512612" lon="10.809984475834566"><ele>142.0</ele><time>2026-04-18T13:46:40Z</time></trkpt><trkpt lat="43.297700703306944" lon="10.810050640097522"><ele>142.0</ele><time>2026-04-18T13:46:41Z</time></trkpt><trkpt lat="43.297578372033904" lon="10.810114736887222"><ele>142.0</ele><time>2026-04-18T13:46:42Z</time></trkpt><trkpt lat="43.29745734186801" lon="10.810178657694774"><ele>142.0</ele><time>2026-04-18T13:46:43Z</time></trkpt><trkpt lat="43.29733692703854" lon="10.810242520510227"><ele>142.0</ele><time>2026-04-18T13:46:44Z</time></trkpt><trkpt lat="43.29721657314649" lon="10.810304580659817"><ele>143.75</ele><time>2026-04-18T13:46:45Z</time></trkpt><trkpt lat="43.2970986905617" lon="10.81036368858081"><ele>145.5</ele><time>2026-04-18T13:46:46Z</time></trkpt><trkpt lat="43.29697965095187" lon="10.81042553199087"><ele>147.25</ele><time>2026-04-18T13:46:47Z</time></trkpt><trkpt lat="43.29686560993317" lon="10.810489683045276"><ele>149.0</ele><time>2026-04-18T13:46:48Z</time></trkpt><trkpt lat="43.296752355786786" lon="10.810549111226678"><ele>149.0</ele><time>2026-04-18T13:46:49Z</time></trkpt><trkpt lat="43.296638987635006" lon="10.810610471660059"><ele>149.0</ele><time>2026-04-18T13:46:50Z</time></trkpt><trkpt lat="43.29652773080209" lon="10.810672925016394"><ele>149.0</ele><time>2026-04-18T13:46:51.001Z</time></trkpt><trkpt lat="43.296418707717656" lon="10.81073122779077"><ele>149.0</ele><time>2026-04-18T13:46:52.001Z</time></trkpt><trkpt lat="43.29631006352224" lon="10.81078436410601"><ele>149.0</ele><time>2026-04-18T13:46:53.001Z</time></trkpt><trkpt lat="43.29620421910299" lon="10.81083843023064"><ele>149.0</ele><time>2026-04-18T13:46:54.001Z</time></trkpt><trkpt lat="43.296102230308335" lon="10.810897078555652"><ele>149.0</ele><time>2026-04-18T13:46:55.001Z</time></trkpt><trkpt lat="43.2959954779956" lon="10.810945935510766"><ele>149.0</ele><time>2026-04-18T13:46:56.001Z</time></trkpt><trkpt lat="43.29588288425375" lon="10.810986286006376"><ele>149.25</ele><time>2026-04-18T13:46:57.001Z</time></trkpt><trkpt lat="43.295768042808206" lon="10.811010655023415"><ele>149.5</ele><time>2026-04-18T13:46:58.001Z</time></trkpt><trkpt lat="43.295649468275975" lon="10.811020864717262"><ele>149.75</ele><time>2026-04-18T13:46:59.001Z</time></trkpt><trkpt lat="43.29553030590776" lon="10.811015827745317"><ele>150.0</ele><time>2026-04-18T13:47:00.001Z</time></trkpt><trkpt lat="43.29540731797641" lon="10.81100914107463"><ele>150.0</ele><time>2026-04-18T13:47:01.001Z</time></trkpt><trkpt lat="43.29528578385436" lon="10.810998773860808"><ele>150.0</ele><time>2026-04-18T13:47:02.001Z</time></trkpt><trkpt lat="43.29516260136291" lon="10.810990433352126"><ele>150.0</ele><time>2026-04-18T13:47:03.001Z</time></trkpt><trkpt lat="43.295038754130445" lon="10.810982405090453"><ele>150.0</ele><time>2026-04-18T13:47:04.001Z</time></trkpt><trkpt lat="43.29491439199437" lon="10.810969891583593"><ele>150.25</ele><time>2026-04-18T13:47:05.001Z</time></trkpt><trkpt lat="43.29478818828609" lon="10.810956422468573"><ele>150.5</ele><time>2026-04-18T13:47:06.001Z</time></trkpt><trkpt lat="43.29466181255883" lon="10.810943893720248"><ele>150.75</ele><time>2026-04-18T13:47:07.001Z</time></trkpt><trkpt lat="43.29453995048925" lon="10.810930659657444"><ele>151.0</ele><time>2026-04-18T13:47:08.001Z</time></trkpt><trkpt lat="43.29442307281902" lon="10.810920630516804"><ele>151.0</ele><time>2026-04-18T13:47:09.001Z</time></trkpt><trkpt lat="43.2943092304121" lon="10.810923420978563"><ele>151.0</ele><time>2026-04-18T13:47:10.001Z</time></trkpt><trkpt lat="43.2941951789441" lon="10.810952005593812"><ele>151.0</ele><time>2026-04-18T13:47:11.001Z</time></trkpt><trkpt lat="43.294089358867346" lon="10.811009077286469"><ele>151.0</ele><time>2026-04-18T13:47:12.001Z</time></trkpt><trkpt lat="43.293995875379984" lon="10.811098084752143"><ele>152.6</ele><time>2026-04-18T13:47:13.001Z</time></trkpt><trkpt lat="43.293916188332666" lon="10.811196125184408"><ele>154.2</ele><time>2026-04-18T13:47:14.001Z</time></trkpt><trkpt lat="43.29383450318347" lon="10.811277944237723"><ele>155.8</ele><time>2026-04-18T13:47:15.001Z</time></trkpt><trkpt lat="43.2937483748872" lon="10.811318583004699"><ele>157.4</ele><time>2026-04-18T13:47:16.001Z</time></trkpt><trkpt lat="43.2936582739949" lon="10.811325777109964"><ele>159.0</ele><time>2026-04-18T13:47:17.001Z</time></trkpt><trkpt lat="43.29356827878591" lon="10.811300331748251"><ele>159.0</ele><time>2026-04-18T13:47:18.001Z</time></trkpt><trkpt lat="43.29348264871985" lon="10.811235270115773"><ele>159.0</ele><time>2026-04-18T13:47:19.001Z</time></trkpt><trkpt lat="43.29339684243767" lon="10.81116140855042"><ele>159.0</ele><time>2026-04-18T13:47:20.001Z</time></trkpt><trkpt lat="43.29330363849402" lon="10.811094455559926"><ele>159.0</ele><time>2026-04-18T13:47:21.001Z</time></trkpt><trkpt lat="43.29319844543586" lon="10.811041742416464"><ele>159.0</ele><time>2026-04-18T13:47:22.001Z</time></trkpt><trkpt lat="43.293085566512545" lon="10.810998551257995"><ele>161.2</ele><time>2026-04-18T13:47:23.001Z</time></trkpt><trkpt lat="43.29297035644887" lon="10.810956396843052"><ele>163.4</ele><time>2026-04-18T13:47:24.001Z</time></trkpt><trkpt lat="43.292862440105" lon="10.810912037525322"><ele>165.6</ele><time>2026-04-18T13:47:25.001Z</time></trkpt><trkpt lat="43.292765414922265" lon="10.810872065546762"><ele>167.8</ele><time>2026-04-18T13:47:26.001Z</time></trkpt><trkpt lat="43.292675424145465" lon="10.810833933383035"><ele>170.0</ele><time>2026-04-18T13:47:27.001Z</time></trkpt><trkpt lat="43.292589278612205" lon="10.810802104576819"><ele>170.0</ele><time>2026-04-18T13:47:28.001Z</time></trkpt><trkpt lat="43.29249248157295" lon="10.81077979858706"><ele>170.0</ele><time>2026-04-18T13:47:29.001Z</time></trkpt><trkpt lat="43.29238740860402" lon="10.810769573723388"><ele>170.0</ele><time>2026-04-18T13:47:30.001Z</time></trkpt><trkpt lat="43.292276341712785" lon="10.810766872650879"><ele>170.0</ele><time>2026-04-18T13:47:31.001Z</time></trkpt><trkpt lat="43.29216424424714" lon="10.810768511714343"><ele>170.0</ele><time>2026-04-18T13:47:32.001Z</time></trkpt><trkpt lat="43.29205450690777" lon="10.810775403395848"><ele>172.0</ele><time>2026-04-18T13:47:33.001Z</time></trkpt><trkpt lat="43.29195351711322" lon="10.810780027128516"><ele>174.0</ele><time>2026-04-18T13:47:34.002Z</time></trkpt><trkpt lat="43.29185709549875" lon="10.81078020896977"><ele>176.0</ele><time>2026-04-18T13:47:35.002Z</time></trkpt><trkpt lat="43.291771811266074" lon="10.81075592507978"><ele>178.0</ele><time>2026-04-18T13:47:36.002Z</time></trkpt><trkpt lat="43.29168809811147" lon="10.810711439358258"><ele>180.0</ele><time>2026-04-18T13:47:37.002Z</time></trkpt><trkpt lat="43.29160659036937" lon="10.810644770085544"><ele>180.0</ele><time>2026-04-18T13:47:38.002Z</time></trkpt><trkpt lat="43.29154603135468" lon="10.810551900088425"><ele>180.0</ele><time>2026-04-18T13:47:39.002Z</time></trkpt><trkpt lat="43.291500240167096" lon="10.810456601781617"><ele>180.0</ele><time>2026-04-18T13:47:40.002Z</time></trkpt><trkpt lat="43.29146190740556" lon="10.810371479691046"><ele>180.0</ele><time>2026-04-18T13:47:41.002Z</time></trkpt><trkpt lat="43.29140419948941" lon="10.810238844000308"><ele>180.0</ele><time>2026-04-18T13:47:43.002Z</time></trkpt><trkpt lat="43.29133663081656" lon="10.810119070138338"><ele>181.66666666666666</ele><time>2026-04-18T13:47:45.002Z</time></trkpt><trkpt lat="43.291290730724334" lon="10.81004467224355"><ele>183.33333333333334</ele><time>2026-04-18T13:47:46.002Z</time></trkpt><trkpt lat="43.29123889894403" lon="10.80996257556728"><ele>185.0</ele><time>2026-04-18T13:47:47.002Z</time></trkpt><trkpt lat="43.29117849720663" lon="10.809884629117722"><ele>186.66666666666669</ele><time>2026-04-18T13:47:48.002Z</time></trkpt><trkpt lat="43.291126121818124" lon="10.809805029446661"><ele>188.33333333333334</ele><time>2026-04-18T13:47:49.002Z</time></trkpt><trkpt lat="43.29109517998651" lon="10.809699894824984"><ele>190.0</ele><time>2026-04-18T13:47:50.002Z</time></trkpt><trkpt lat="43.29107973956531" lon="10.809583409135087"><ele>190.0</ele><time>2026-04-18T13:47:51.002Z</time></trkpt><trkpt lat="43.29106452078365" lon="10.809462446639925"><ele>190.0</ele><time>2026-04-18T13:47:52.002Z</time></trkpt><trkpt lat="43.29104962868193" lon="10.80933998447"><ele>190.0</ele><time>2026-04-18T13:47:53.002Z</time></trkpt><trkpt lat="43.29103967672292" lon="10.809222852819742"><ele>190.0</ele><time>2026-04-18T13:47:54.002Z</time></trkpt><trkpt lat="43.29105015784559" lon="10.809105418652585"><ele>190.0</ele><time>2026-04-18T13:47:55.002Z</time></trkpt><trkpt lat="43.29107089870772" lon="10.808985002502201"><ele>190.0</ele><time>2026-04-18T13:47:56.002Z</time></trkpt><trkpt lat="43.29110036396253" lon="10.808859783654135"><ele>190.16666666666669</ele><time>2026-04-18T13:47:57.002Z</time></trkpt><trkpt lat="43.29113307094981" lon="10.80873987122989"><ele>190.33333333333334</ele><time>2026-04-18T13:47:58.002Z</time></trkpt><trkpt lat="43.29116861673229" lon="10.808628699180304"><ele>190.5</ele><time>2026-04-18T13:47:59.002Z</time></trkpt><trkpt lat="43.291221072707096" lon="10.808532954107404"><ele>190.66666666666666</ele><time>2026-04-18T13:48:00.002Z</time></trkpt><trkpt lat="43.29128299979918" lon="10.80845930500759"><ele>190.83333333333331</ele><time>2026-04-18T13:48:01.002Z</time></trkpt><trkpt lat="43.29133356554071" lon="10.808393728536982"><ele>191.0</ele><time>2026-04-18T13:48:02.002Z</time></trkpt><trkpt lat="43.29135818135876" lon="10.80830538327502"><ele>191.83333333333331</ele><time>2026-04-18T13:48:03.002Z</time></trkpt><trkpt lat="43.291351179044966" lon="10.808198751805824"><ele>192.66666666666666</ele><time>2026-04-18T13:48:04.002Z</time></trkpt><trkpt lat="43.29131816189354" lon="10.808089380086797"><ele>193.5</ele><time>2026-04-18T13:48:05.002Z</time></trkpt><trkpt lat="43.29128023601189" lon="10.807971353917408"><ele>194.33333333333331</ele><time>2026-04-18T13:48:06.002Z</time></trkpt><trkpt lat="43.29124894232466" lon="10.807856301681134"><ele>195.16666666666666</ele><time>2026-04-18T13:48:07.002Z</time></trkpt><trkpt lat="43.29122123501082" lon="10.807728480061941"><ele>196.0</ele><time>2026-04-18T13:48:08.002Z</time></trkpt><trkpt lat="43.29120122273584" lon="10.807590712185378"><ele>196.8</ele><time>2026-04-18T13:48:09.002Z</time></trkpt><trkpt lat="43.29117825229412" lon="10.807448911861817"><ele>197.60000000000002</ele><time>2026-04-18T13:48:10.002Z</time></trkpt><trkpt lat="43.29115524925745" lon="10.807297617788102"><ele>198.4</ele><time>2026-04-18T13:48:11.002Z</time></trkpt><trkpt lat="43.291130764022405" lon="10.807149162661252"><ele>199.2</ele><time>2026-04-18T13:48:12.002Z</time></trkpt><trkpt lat="43.29111102402884" lon="10.807007449373762"><ele>200.0</ele><time>2026-04-18T13:48:13.002Z</time></trkpt><trkpt lat="43.29107808654865" lon="10.80687187029759"><ele>199.66666666666669</ele><time>2026-04-18T13:48:14.002Z</time></trkpt><trkpt lat="43.291031860405205" lon="10.806750882057532"><ele>199.33333333333334</ele><time>2026-04-18T13:48:15.002Z</time></trkpt><trkpt lat="43.29097505425181" lon="10.806644028045778"><ele>199.0</ele><time>2026-04-18T13:48:16.002Z</time></trkpt><trkpt lat="43.290912917553165" lon="10.806549182623181"><ele>198.66666666666669</ele><time>2026-04-18T13:48:17.003Z</time></trkpt><trkpt lat="43.290848478209256" lon="10.806481070856394"><ele>198.33333333333334</ele><time>2026-04-18T13:48:18.003Z</time></trkpt><trkpt lat="43.2907870804494" lon="10.80644737742118"><ele>198.0</ele><time>2026-04-18T13:48:19.003Z</time></trkpt><trkpt lat="43.29068336010237" lon="10.806496544858614"><ele>198.0</ele><time>2026-04-18T13:48:21Z</time></trkpt><trkpt lat="43.29064346712928" lon="10.80665324647075"><ele>198.0</ele><time>2026-04-18T13:48:23Z</time></trkpt><trkpt lat="43.2906563139828" lon="10.806747559245146"><ele>198.0</ele><time>2026-04-18T13:48:24Z</time></trkpt><trkpt lat="43.29067240922027" lon="10.80684963181023"><ele>198.0</ele><time>2026-04-18T13:48:25Z</time></trkpt><trkpt lat="43.29068340532575" lon="10.806961708162163"><ele>198.0</ele><time>2026-04-18T13:48:26Z</time></trkpt><trkpt lat="43.29068681115289" lon="10.807085201098303"><ele>198.0</ele><time>2026-04-18T13:48:27Z</time></trkpt><trkpt lat="43.29067570878275" lon="10.807220783062036"><ele>198.5</ele><time>2026-04-18T13:48:28Z</time></trkpt><trkpt lat="43.29065573208301" lon="10.807365294967582"><ele>199.0</ele><time>2026-04-18T13:48:29Z</time></trkpt><trkpt lat="43.29063033613758" lon="10.807517138269004"><ele>199.5</ele><time>2026-04-18T13:48:30Z</time></trkpt><trkpt lat="43.290604887640875" lon="10.807677074514075"><ele>200.0</ele><time>2026-04-18T13:48:31Z</time></trkpt><trkpt lat="43.290572968769716" lon="10.80783365403006"><ele>202.8</ele><time>2026-04-18T13:48:32Z</time></trkpt><trkpt lat="43.29053366293642" lon="10.807979175618122"><ele>205.6</ele><time>2026-04-18T13:48:33Z</time></trkpt><trkpt lat="43.29047861369434" lon="10.808109798193097"><ele>208.39999999999998</ele><time>2026-04-18T13:48:34Z</time></trkpt><trkpt lat="43.29040668671131" lon="10.808226467368106"><ele>211.2</ele><time>2026-04-18T13:48:35Z</time></trkpt><trkpt lat="43.290326597686395" lon="10.808323731597273"><ele>214.0</ele><time>2026-04-18T13:48:36Z</time></trkpt><trkpt lat="43.29024499017805" lon="10.808410548005057"><ele>213.79999999999998</ele><time>2026-04-18T13:48:37Z</time></trkpt><trkpt lat="43.290172084827816" lon="10.808501482921129"><ele>213.59999999999997</ele><time>2026-04-18T13:48:38Z</time></trkpt><trkpt lat="43.29011498888641" lon="10.80861459422801"><ele>213.4</ele><time>2026-04-18T13:48:39Z</time></trkpt><trkpt lat="43.29006999277385" lon="10.808740585896858"><ele>213.2</ele><time>2026-04-18T13:48:40Z</time></trkpt><trkpt lat="43.29003785278357" lon="10.808880465263963"><ele>213.0</ele><time>2026-04-18T13:48:41Z</time></trkpt><trkpt lat="43.290018829739765" lon="10.809028338600143"><ele>213.0</ele><time>2026-04-18T13:48:42Z</time></trkpt><trkpt lat="43.29000437272265" lon="10.80917309498924"><ele>213.0</ele><time>2026-04-18T13:48:43Z</time></trkpt><trkpt lat="43.28998329430226" lon="10.809298809209304"><ele>213.0</ele><time>2026-04-18T13:48:44Z</time></trkpt><trkpt lat="43.28995333888369" lon="10.80940542031587"><ele>213.0</ele><time>2026-04-18T13:48:45Z</time></trkpt><trkpt lat="43.28990286174282" lon="10.809491072790264"><ele>213.0</ele><time>2026-04-18T13:48:46Z</time></trkpt><trkpt lat="43.2898303102763" lon="10.809553238912311"><ele>213.0</ele><time>2026-04-18T13:48:47Z</time></trkpt><trkpt lat="43.28973781193065" lon="10.809574867249374"><ele>215.8</ele><time>2026-04-18T13:48:48Z</time></trkpt><trkpt lat="43.289664168584146" lon="10.809614560697138"><ele>218.60000000000002</ele><time>2026-04-18T13:48:49Z</time></trkpt><trkpt lat="43.28959927178229" lon="10.809690300043346"><ele>221.39999999999998</ele><time>2026-04-18T13:48:50Z</time></trkpt><trkpt lat="43.28953668275412" lon="10.809793601130373"><ele>224.2</ele><time>2026-04-18T13:48:51Z</time></trkpt><trkpt lat="43.289473301776" lon="10.80990779931162"><ele>227.0</ele><time>2026-04-18T13:48:52Z</time></trkpt><trkpt lat="43.289410546703415" lon="10.810022140140926"><ele>227.00000000000003</ele><time>2026-04-18T13:48:53.001Z</time></trkpt><trkpt lat="43.289354425304914" lon="10.810122359622387"><ele>227.0</ele><time>2026-04-18T13:48:54.001Z</time></trkpt><trkpt lat="43.28931477798106" lon="10.810215342768474"><ele>227.0</ele><time>2026-04-18T13:48:55.001Z</time></trkpt><trkpt lat="43.28930770029486" lon="10.810315573537695"><ele>227.0</ele><time>2026-04-18T13:48:56.001Z</time></trkpt><trkpt lat="43.289325834535916" lon="10.810427868177412"><ele>227.00000000000003</ele><time>2026-04-18T13:48:57.001Z</time></trkpt><trkpt lat="43.28936154814917" lon="10.810534712859006"><ele>227.0</ele><time>2026-04-18T13:48:58.001Z</time></trkpt><trkpt lat="43.28938329440828" lon="10.810644483699438"><ele>227.0</ele><time>2026-04-18T13:48:59.001Z</time></trkpt><trkpt lat="43.28938432031122" lon="10.810761052021832"><ele>227.0</ele><time>2026-04-18T13:49:00.001Z</time></trkpt><trkpt lat="43.28935600834814" lon="10.81088147214287"><ele>227.0</ele><time>2026-04-18T13:49:01.001Z</time></trkpt><trkpt lat="43.289306603647574" lon="10.810999707922365"><ele>227.0</ele><time>2026-04-18T13:49:02.001Z</time></trkpt><trkpt lat="43.28925710124618" lon="10.811124241029711"><ele>227.0</ele><time>2026-04-18T13:49:03.001Z</time></trkpt><trkpt lat="43.28920759110531" lon="10.811255819496017"><ele>226.83333333333334</ele><time>2026-04-18T13:49:04.001Z</time></trkpt><trkpt lat="43.28915917199877" lon="10.811394615395516"><ele>226.66666666666669</ele><time>2026-04-18T13:49:05.001Z</time></trkpt><trkpt lat="43.28911556087183" lon="10.81151596292774"><ele>226.5</ele><time>2026-04-18T13:49:06.001Z</time></trkpt><trkpt lat="43.289078361475234" lon="10.811626298743443"><ele>226.33333333333331</ele><time>2026-04-18T13:49:07.001Z</time></trkpt><trkpt lat="43.28903948543293" lon="10.811712430420338"><ele>226.16666666666666</ele><time>2026-04-18T13:49:08.001Z</time></trkpt><trkpt lat="43.288987816337354" lon="10.811770691018394"><ele>226.0</ele><time>2026-04-18T13:49:09.001Z</time></trkpt><trkpt lat="43.28892403651765" lon="10.81178580006539"><ele>227.83333333333331</ele><time>2026-04-18T13:49:10.001Z</time></trkpt><trkpt lat="43.28883214428492" lon="10.811666190513858"><ele>229.66666666666666</ele><time>2026-04-18T13:49:12.001Z</time></trkpt><trkpt lat="43.288850148109866" lon="10.811561340121484"><ele>231.5</ele><time>2026-04-18T13:49:13.001Z</time></trkpt><trkpt lat="43.28887698093493" lon="10.811468558099346"><ele>233.33333333333331</ele><time>2026-04-18T13:49:14.001Z</time></trkpt><trkpt lat="43.288898754671585" lon="10.81136493979242"><ele>235.16666666666666</ele><time>2026-04-18T13:49:15.001Z</time></trkpt><trkpt lat="43.2889144322943" lon="10.811247719272837"><ele>237.0</ele><time>2026-04-18T13:49:16.001Z</time></trkpt><trkpt lat="43.28891822807771" lon="10.811122888868358"><ele>237.0</ele><time>2026-04-18T13:49:17.001Z</time></trkpt><trkpt lat="43.28890401339179" lon="10.810995769518371"><ele>237.0</ele><time>2026-04-18T13:49:18.001Z</time></trkpt><trkpt lat="43.28887235671825" lon="10.810866409424943"><ele>237.0</ele><time>2026-04-18T13:49:19.001Z</time></trkpt><trkpt lat="43.288835218153444" lon="10.81072859164119"><ele>237.0</ele><time>2026-04-18T13:49:20.001Z</time></trkpt><trkpt lat="43.28879883068827" lon="10.810582084737113"><ele>237.0</ele><time>2026-04-18T13:49:21.001Z</time></trkpt><trkpt lat="43.28876167780331" lon="10.810430501973737"><ele>238.0</ele><time>2026-04-18T13:49:22.001Z</time></trkpt><trkpt lat="43.288725208276986" lon="10.81028989301987"><ele>239.0</ele><time>2026-04-18T13:49:23.001Z</time></trkpt><trkpt lat="43.28869783893049" lon="10.810147771842924"><ele>240.0</ele><time>2026-04-18T13:49:24.001Z</time></trkpt><trkpt lat="43.28869159865447" lon="10.810006776987313"><ele>241.0</ele><time>2026-04-18T13:49:25.001Z</time></trkpt><trkpt lat="43.288704450857615" lon="10.809861420882534"><ele>242.0</ele><time>2026-04-18T13:49:26.001Z</time></trkpt><trkpt lat="43.28873442375798" lon="10.809720607901607"><ele>243.0</ele><time>2026-04-18T13:49:27.001Z</time></trkpt><trkpt lat="43.28876065757672" lon="10.809579509197798"><ele>244.0</ele><time>2026-04-18T13:49:28.001Z</time></trkpt><trkpt lat="43.28877321918242" lon="10.809432827177154"><ele>245.0</ele><time>2026-04-18T13:49:29.001Z</time></trkpt><trkpt lat="43.28877868608824" lon="10.809298448875793"><ele>246.0</ele><time>2026-04-18T13:49:30.001Z</time></trkpt><trkpt lat="43.28877339928203" lon="10.809177981997767"><ele>247.0</ele><time>2026-04-18T13:49:31.001Z</time></trkpt><trkpt lat="43.28875751004282" lon="10.809073863204704"><ele>246.99999999999997</ele><time>2026-04-18T13:49:32.001Z</time></trkpt><trkpt lat="43.28871877395693" lon="10.80899983831103"><ele>247.0</ele><time>2026-04-18T13:49:33.001Z</time></trkpt><trkpt lat="43.28861651655605" lon="10.808963081679435"><ele>247.0</ele><time>2026-04-18T13:49:35.001Z</time></trkpt><trkpt lat="43.288536599307605" lon="10.80908438060946"><ele>247.0</ele><time>2026-04-18T13:49:37.002Z</time></trkpt><trkpt lat="43.28851695139797" lon="10.809182327351502"><ele>246.99999999999997</ele><time>2026-04-18T13:49:38.002Z</time></trkpt><trkpt lat="43.288497727889556" lon="10.809286738892036"><ele>247.0</ele><time>2026-04-18T13:49:39.002Z</time></trkpt><trkpt lat="43.288467218345666" lon="10.809400396032915"><ele>247.0</ele><time>2026-04-18T13:49:40.002Z</time></trkpt><trkpt lat="43.28843621714266" lon="10.809523162324027"><ele>247.0</ele><time>2026-04-18T13:49:41.002Z</time></trkpt><trkpt lat="43.28840198846172" lon="10.809658337506491"><ele>247.0</ele><time>2026-04-18T13:49:42.002Z</time></trkpt><trkpt lat="43.2883689667213" lon="10.809803713009456"><ele>247.0</ele><time>2026-04-18T13:49:43.002Z</time></trkpt><trkpt lat="43.288338577478136" lon="10.809961673685672"><ele>247.0</ele><time>2026-04-18T13:49:44.002Z</time></trkpt><trkpt lat="43.288312740788676" lon="10.810131186153553"><ele>245.75</ele><time>2026-04-18T13:49:45.002Z</time></trkpt><trkpt lat="43.28829915205478" lon="10.810295341872848"><ele>244.5</ele><time>2026-04-18T13:49:46.002Z</time></trkpt><trkpt lat="43.28829111554422" lon="10.810452501381702"><ele>243.25</ele><time>2026-04-18T13:49:47.002Z</time></trkpt><trkpt lat="43.288288845527845" lon="10.810606188504039"><ele>242.0</ele><time>2026-04-18T13:49:48.002Z</time></trkpt><trkpt lat="43.288282841779726" lon="10.810749672024635"><ele>242.0</ele><time>2026-04-18T13:49:49.002Z</time></trkpt><trkpt lat="43.288268293979414" lon="10.810880812695322"><ele>242.0</ele><time>2026-04-18T13:49:50.002Z</time></trkpt><trkpt lat="43.288235461327645" lon="10.811006268839247"><ele>242.0</ele><time>2026-04-18T13:49:51.002Z</time></trkpt><trkpt lat="43.28818798265064" lon="10.811124034731627"><ele>242.0</ele><time>2026-04-18T13:49:52.002Z</time></trkpt><trkpt lat="43.28813245210397" lon="10.811234909523758"><ele>242.0</ele><time>2026-04-18T13:49:53.002Z</time></trkpt><trkpt lat="43.28805951289203" lon="10.811332597541133"><ele>243.6</ele><time>2026-04-18T13:49:54.002Z</time></trkpt><trkpt lat="43.28797036522958" lon="10.811417460408775"><ele>245.2</ele><time>2026-04-18T13:49:55.002Z</time></trkpt><trkpt lat="43.287874636021634" lon="10.811501369476176"><ele>246.8</ele><time>2026-04-18T13:49:56.002Z</time></trkpt><trkpt lat="43.28777704804455" lon="10.811583808335447"><ele>248.4</ele><time>2026-04-18T13:49:57.002Z</time></trkpt><trkpt lat="43.287686789567935" lon="10.811661393717996"><ele>250.0</ele><time>2026-04-18T13:49:58.002Z</time></trkpt><trkpt lat="43.28759398816936" lon="10.811717351352511"><ele>250.0</ele><time>2026-04-18T13:49:59.002Z</time></trkpt><trkpt lat="43.287493332893874" lon="10.811744341654505"><ele>250.0</ele><time>2026-04-18T13:50:00.002Z</time></trkpt><trkpt lat="43.287395376480326" lon="10.81175957875071"><ele>250.0</ele><time>2026-04-18T13:50:01.002Z</time></trkpt><trkpt lat="43.287306522989674" lon="10.811788659688853"><ele>250.0</ele><time>2026-04-18T13:50:02.002Z</time></trkpt><trkpt lat="43.28722287618043" lon="10.811841539422192"><ele>250.0</ele><time>2026-04-18T13:50:03.002Z</time></trkpt><trkpt lat="43.287134491403066" lon="10.811916407815701"><ele>252.33333333333331</ele><time>2026-04-18T13:50:04.002Z</time></trkpt><trkpt lat="43.28705523023643" lon="10.811988915830883"><ele>254.66666666666666</ele><time>2026-04-18T13:50:05.002Z</time></trkpt><trkpt lat="43.286981666394134" lon="10.812074469637102"><ele>257.0</ele><time>2026-04-18T13:50:06.002Z</time></trkpt><trkpt lat="43.286923180369506" lon="10.812162510578494"><ele>259.3333333333333</ele><time>2026-04-18T13:50:07.002Z</time></trkpt><trkpt lat="43.28688343076351" lon="10.812267328259376"><ele>261.6666666666667</ele><time>2026-04-18T13:50:08.002Z</time></trkpt><trkpt lat="43.2868591592911" lon="10.812372639651533"><ele>264.0</ele><time>2026-04-18T13:50:09.002Z</time></trkpt><trkpt lat="43.2868603573137" lon="10.812489196372695"><ele>264.0</ele><time>2026-04-18T13:50:10.002Z</time></trkpt><trkpt lat="43.28688575805687" lon="10.81260984865827"><ele>264.0</ele><time>2026-04-18T13:50:11.002Z</time></trkpt><trkpt lat="43.28690519511383" lon="10.812740928627294"><ele>264.0</ele><time>2026-04-18T13:50:12.002Z</time></trkpt><trkpt lat="43.28693769177224" lon="10.812879493076498"><ele>264.0</ele><time>2026-04-18T13:50:13.002Z</time></trkpt><trkpt lat="43.28697368397707" lon="10.812999051399292"><ele>264.0</ele><time>2026-04-18T13:50:14.002Z</time></trkpt><trkpt lat="43.2870009982335" lon="10.81311019105764"><ele>263.5</ele><time>2026-04-18T13:50:15.002Z</time></trkpt><trkpt lat="43.287011471788205" lon="10.813215686956797"><ele>263.0</ele><time>2026-04-18T13:50:16.002Z</time></trkpt><trkpt lat="43.28699141157526" lon="10.813319760280923"><ele>262.5</ele><time>2026-04-18T13:50:17.002Z</time></trkpt><trkpt lat="43.28694974333823" lon="10.81341557050692"><ele>262.0</ele><time>2026-04-18T13:50:18.002Z</time></trkpt><trkpt lat="43.28688108131745" lon="10.813497211189475"><ele>261.5</ele><time>2026-04-18T13:50:19.002Z</time></trkpt><trkpt lat="43.28681275456446" lon="10.813580466030954"><ele>261.0</ele><time>2026-04-18T13:50:20.002Z</time></trkpt><trkpt lat="43.28673963440173" lon="10.813668852874901"><ele>259.8</ele><time>2026-04-18T13:50:21.003Z</time></trkpt><trkpt lat="43.28665645158748" lon="10.813757744994948"><ele>258.6</ele><time>2026-04-18T13:50:22.003Z</time></trkpt><trkpt lat="43.28656534767263" lon="10.81384548581159"><ele>257.4</ele><time>2026-04-18T13:50:23.003Z</time></trkpt><trkpt lat="43.286473161321126" lon="10.813924232987597"><ele>256.2</ele><time>2026-04-18T13:50:24.003Z</time></trkpt><trkpt lat="43.286388307351025" lon="10.813991147380477"><ele>255.0</ele><time>2026-04-18T13:50:25.003Z</time></trkpt><trkpt lat="43.286321249343075" lon="10.814076716682425"><ele>257.2</ele><time>2026-04-18T13:50:26Z</time></trkpt><trkpt lat="43.286269922544676" lon="10.81419985568304"><ele>259.4</ele><time>2026-04-18T13:50:27Z</time></trkpt><trkpt lat="43.286234509616435" lon="10.814338306687013"><ele>261.6</ele><time>2026-04-18T13:50:28Z</time></trkpt><trkpt lat="43.28620096534398" lon="10.814470201710245"><ele>263.8</ele><time>2026-04-18T13:50:29Z</time></trkpt><trkpt lat="43.28615977862576" lon="10.814578674765956"><ele>266.0</ele><time>2026-04-18T13:50:30Z</time></trkpt><trkpt lat="43.28610074407963" lon="10.81465991930142"><ele>266.0</ele><time>2026-04-18T13:50:31Z</time></trkpt><trkpt lat="43.286026863623285" lon="10.814716863755878"><ele>266.0</ele><time>2026-04-18T13:50:32Z</time></trkpt><trkpt lat="43.28593984909105" lon="10.814753074746497"><ele>266.0</ele><time>2026-04-18T13:50:33Z</time></trkpt><trkpt lat="43.28584874519001" lon="10.814787920531604"><ele>266.0</ele><time>2026-04-18T13:50:34Z</time></trkpt><trkpt lat="43.28574833097252" lon="10.814819209969176"><ele>266.0</ele><time>2026-04-18T13:50:35Z</time></trkpt><trkpt lat="43.28565008130849" lon="10.814854077119922"><ele>267.2</ele><time>2026-04-18T13:50:36Z</time></trkpt><trkpt lat="43.28554329416224" lon="10.814884982088492"><ele>268.40000000000003</ele><time>2026-04-18T13:50:37Z</time></trkpt><trkpt lat="43.285449553780694" lon="10.814927163108653"><ele>269.6</ele><time>2026-04-18T13:50:38Z</time></trkpt><trkpt lat="43.28536271709276" lon="10.81499600588305"><ele>270.8</ele><time>2026-04-18T13:50:39Z</time></trkpt><trkpt lat="43.2852800619234" lon="10.815085191902394"><ele>272.0</ele><time>2026-04-18T13:50:40Z</time></trkpt><trkpt lat="43.28519672965499" lon="10.815188009515191"><ele>272.0</ele><time>2026-04-18T13:50:41Z</time></trkpt><trkpt lat="43.285106583338845" lon="10.815291941678437"><ele>272.0</ele><time>2026-04-18T13:50:42Z</time></trkpt><trkpt lat="43.28501482121091" lon="10.815400207965913"><ele>272.0</ele><time>2026-04-18T13:50:43Z</time></trkpt><trkpt lat="43.284925126983175" lon="10.815506448470277"><ele>272.0</ele><time>2026-04-18T13:50:44Z</time></trkpt><trkpt lat="43.28484976873072" lon="10.81560970505794"><ele>272.0</ele><time>2026-04-18T13:50:45Z</time></trkpt><trkpt lat="43.28477219397853" lon="10.815695352431165"><ele>272.0</ele><time>2026-04-18T13:50:46Z</time></trkpt><trkpt lat="43.284705157436164" lon="10.815768661133886"><ele>272.0</ele><time>2026-04-18T13:50:47Z</time></trkpt><trkpt lat="43.28463889129583" lon="10.815834556015753"><ele>272.0</ele><time>2026-04-18T13:50:48Z</time></trkpt><trkpt lat="43.28456928684271" lon="10.81589355727014"><ele>272.0</ele><time>2026-04-18T13:50:49Z</time></trkpt><trkpt lat="43.284503844008185" lon="10.815943700135017"><ele>272.0</ele><time>2026-04-18T13:50:50.001Z</time></trkpt><trkpt lat="43.284436325631056" lon="10.815954130055552"><ele>273.5</ele><time>2026-04-18T13:50:51.001Z</time></trkpt><trkpt lat="43.28436637141184" lon="10.815930544182734"><ele>275.0</ele><time>2026-04-18T13:50:52.001Z</time></trkpt><trkpt lat="43.284307565151444" lon="10.81584885936395"><ele>276.5</ele><time>2026-04-18T13:50:53.001Z</time></trkpt><trkpt lat="43.28426043792024" lon="10.81575763468969"><ele>278.0</ele><time>2026-04-18T13:50:54.001Z</time></trkpt><trkpt lat="43.28420620870365" lon="10.815671087565859"><ele>279.5</ele><time>2026-04-18T13:50:55.001Z</time></trkpt><trkpt lat="43.28414067034454" lon="10.815580339879668"><ele>281.0</ele><time>2026-04-18T13:50:56.001Z</time></trkpt><trkpt lat="43.28407307356818" lon="10.815481389098036"><ele>281.0</ele><time>2026-04-18T13:50:57.001Z</time></trkpt><trkpt lat="43.2840048233154" lon="10.815381397800683"><ele>281.0</ele><time>2026-04-18T13:50:58.001Z</time></trkpt><trkpt lat="43.283935092200046" lon="10.815288632431708"><ele>281.0</ele><time>2026-04-18T13:50:59.001Z</time></trkpt><trkpt lat="43.28385914152052" lon="10.81521570818749"><ele>281.0</ele><time>2026-04-18T13:51:00.001Z</time></trkpt><trkpt lat="43.28377041077434" lon="10.815175625504526"><ele>281.0</ele><time>2026-04-18T13:51:01.001Z</time></trkpt><trkpt lat="43.283673813121204" lon="10.815173697858873"><ele>280.6</ele><time>2026-04-18T13:51:02.001Z</time></trkpt><trkpt lat="43.283571994054384" lon="10.815200104635325"><ele>280.20000000000005</ele><time>2026-04-18T13:51:03.001Z</time></trkpt><trkpt lat="43.28348056646853" lon="10.81524825624157"><ele>279.79999999999995</ele><time>2026-04-18T13:51:04.001Z</time></trkpt><trkpt lat="43.28338867032856" lon="10.815294298317049"><ele>279.4</ele><time>2026-04-18T13:51:05.001Z</time></trkpt><trkpt lat="43.28330898900032" lon="10.815317720281723"><ele>279.0</ele><time>2026-04-18T13:51:06.001Z</time></trkpt><trkpt lat="43.28323681467518" lon="10.81532857078713"><ele>279.0</ele><time>2026-04-18T13:51:07.001Z</time></trkpt><trkpt lat="43.28317418702812" lon="10.815304177341211"><ele>279.0</ele><time>2026-04-18T13:51:08.001Z</time></trkpt><trkpt lat="43.2831196816116" lon="10.815157168857985"><ele>279.0</ele><time>2026-04-18T13:51:10.001Z</time></trkpt><trkpt lat="43.28314587485911" lon="10.81507644936481"><ele>279.0</ele><time>2026-04-18T13:51:11.001Z</time></trkpt><trkpt lat="43.28320341483594" lon="10.815020673701337"><ele>279.0</ele><time>2026-04-18T13:51:12.001Z</time></trkpt><trkpt lat="43.28326229856343" lon="10.81497537356819"><ele>279.0</ele><time>2026-04-18T13:51:13.001Z</time></trkpt><trkpt lat="43.28332143719294" lon="10.81492381234309"><ele>281.59999999999997</ele><time>2026-04-18T13:51:14.001Z</time></trkpt><trkpt lat="43.283384949838826" lon="10.814862948344608"><ele>284.2</ele><time>2026-04-18T13:51:15.001Z</time></trkpt><trkpt lat="43.28345231875977" lon="10.814794444323265"><ele>286.79999999999995</ele><time>2026-04-18T13:51:16.001Z</time></trkpt><trkpt lat="43.2835243416654" lon="10.814715109660266"><ele>289.4</ele><time>2026-04-18T13:51:17.001Z</time></trkpt><trkpt lat="43.283603667985055" lon="10.814630487872181"><ele>292.0</ele><time>2026-04-18T13:51:18.001Z</time></trkpt><trkpt lat="43.2836887808701" lon="10.814544955288738"><ele>292.0</ele><time>2026-04-18T13:51:19.001Z</time></trkpt><trkpt lat="43.283776636262836" lon="10.814460738874159"><ele>292.0</ele><time>2026-04-18T13:51:20.001Z</time></trkpt><trkpt lat="43.2838666560117" lon="10.81438990454999"><ele>292.0</ele><time>2026-04-18T13:51:21.001Z</time></trkpt><trkpt lat="43.28395585608721" lon="10.8143349670564"><ele>292.0</ele><time>2026-04-18T13:51:22.001Z</time></trkpt><trkpt lat="43.28403946955519" lon="10.814282803750013"><ele>292.0</ele><time>2026-04-18T13:51:23.001Z</time></trkpt><trkpt lat="43.284111213796535" lon="10.814218526339257"><ele>293.0</ele><time>2026-04-18T13:51:24.001Z</time></trkpt><trkpt lat="43.284172710242245" lon="10.81412985482159"><ele>294.0</ele><time>2026-04-18T13:51:25.001Z</time></trkpt><trkpt lat="43.28422566980559" lon="10.8140202965714"><ele>295.0</ele><time>2026-04-18T13:51:26.001Z</time></trkpt><trkpt lat="43.284282273818" lon="10.813903269453874"><ele>296.0</ele><time>2026-04-18T13:51:27.001Z</time></trkpt><trkpt lat="43.28433186648355" lon="10.813784497446095"><ele>297.0</ele><time>2026-04-18T13:51:28.001Z</time></trkpt><trkpt lat="43.28436747278864" lon="10.813658379846249"><ele>297.0</ele><time>2026-04-18T13:51:29.001Z</time></trkpt><trkpt lat="43.28438740639887" lon="10.813530731428843"><ele>297.0</ele><time>2026-04-18T13:51:30.001Z</time></trkpt><trkpt lat="43.28439400068447" lon="10.81340055654944"><ele>297.0</ele><time>2026-04-18T13:51:31.001Z</time></trkpt><trkpt lat="43.284390067301665" lon="10.81327035855827"><ele>297.0</ele><time>2026-04-18T13:51:32.001Z</time></trkpt><trkpt lat="43.28438253830394" lon="10.813142507658101"><ele>297.0</ele><time>2026-04-18T13:51:33.001Z</time></trkpt><trkpt lat="43.2843771822707" lon="10.813020140351448"><ele>298.6666666666667</ele><time>2026-04-18T13:51:34.001Z</time></trkpt><trkpt lat="43.28437243478488" lon="10.812902252627488"><ele>300.3333333333333</ele><time>2026-04-18T13:51:35.001Z</time></trkpt><trkpt lat="43.284374692451635" lon="10.81278839127576"><ele>302.0</ele><time>2026-04-18T13:51:36.001Z</time></trkpt><trkpt lat="43.28439084898705" lon="10.812681142695492"><ele>303.66666666666663</ele><time>2026-04-18T13:51:37.002Z</time></trkpt><trkpt lat="43.28442154802682" lon="10.812575766214"><ele>305.3333333333333</ele><time>2026-04-18T13:51:38.002Z</time></trkpt><trkpt lat="43.28446663986221" lon="10.812476756183372"><ele>307.0</ele><time>2026-04-18T13:51:39.002Z</time></trkpt><trkpt lat="43.28451377141032" lon="10.812377866663567"><ele>310.0</ele><time>2026-04-18T13:51:40.002Z</time></trkpt><trkpt lat="43.284561316901005" lon="10.81228500176181"><ele>313.0</ele><time>2026-04-18T13:51:41.002Z</time></trkpt><trkpt lat="43.28459103307001" lon="10.812187938373796"><ele>316.0</ele><time>2026-04-18T13:51:42.002Z</time></trkpt><trkpt lat="43.28460207116394" lon="10.812089191806928"><ele>319.0</ele><time>2026-04-18T13:51:43.002Z</time></trkpt><trkpt lat="43.28460421666656" lon="10.811977190403063"><ele>322.0</ele><time>2026-04-18T13:51:44.002Z</time></trkpt><trkpt lat="43.28459815390292" lon="10.811835336130478"><ele>325.0</ele><time>2026-04-18T13:51:45.002Z</time></trkpt><trkpt lat="43.284610205503895" lon="10.811705314483179"><ele>329.6</ele><time>2026-04-18T13:51:46.002Z</time></trkpt><trkpt lat="43.28463646867146" lon="10.811590066045204"><ele>334.2</ele><time>2026-04-18T13:51:47.002Z</time></trkpt><trkpt lat="43.28466553013084" lon="10.811475391673438"><ele>338.79999999999995</ele><time>2026-04-18T13:51:48.002Z</time></trkpt><trkpt lat="43.28469565033248" lon="10.811356494292138"><ele>343.4</ele><time>2026-04-18T13:51:49.002Z</time></trkpt><trkpt lat="43.28472494957788" lon="10.811237132394387"><ele>348.0</ele><time>2026-04-18T13:51:50.002Z</time></trkpt><trkpt lat="43.284752125800885" lon="10.8111109691663"><ele>341.79999999999995</ele><time>2026-04-18T13:51:51.002Z</time></trkpt><trkpt lat="43.28477765498546" lon="10.810984074643947"><ele>335.59999999999997</ele><time>2026-04-18T13:51:52.002Z</time></trkpt><trkpt lat="43.28480263833656" lon="10.81086030898093"><ele>329.4</ele><time>2026-04-18T13:51:53.002Z</time></trkpt><trkpt lat="43.28484371749723" lon="10.810746240721203"><ele>323.2</ele><time>2026-04-18T13:51:54.002Z</time></trkpt><trkpt lat="43.28489366464695" lon="10.810640265020671"><ele>317.0</ele><time>2026-04-18T13:51:55.002Z</time></trkpt><trkpt lat="43.28495368659169" lon="10.810543540396973"><ele>317.0</ele><time>2026-04-18T13:51:56.002Z</time></trkpt><trkpt lat="43.28501140014942" lon="10.810448214852286"><ele>317.0</ele><time>2026-04-18T13:51:57.002Z</time></trkpt><trkpt lat="43.28505974343819" lon="10.810344673723947"><ele>317.0</ele><time>2026-04-18T13:51:58.002Z</time></trkpt><trkpt lat="43.28509247895877" lon="10.810232144808463"><ele>317.0</ele><time>2026-04-18T13:51:59.002Z</time></trkpt><trkpt lat="43.285120008022986" lon="10.810113667000186"><ele>317.0</ele><time>2026-04-18T13:52:00.002Z</time></trkpt><trkpt lat="43.28514755401211" lon="10.809990486416394"><ele>320.2</ele><time>2026-04-18T13:52:01.002Z</time></trkpt><trkpt lat="43.28516186824176" lon="10.809858256920137"><ele>323.4</ele><time>2026-04-18T13:52:02.002Z</time></trkpt><trkpt lat="43.285167208936535" lon="10.809732526931038"><ele>326.59999999999997</ele><time>2026-04-18T13:52:03.002Z</time></trkpt><trkpt lat="43.28515399143135" lon="10.809605359690051"><ele>329.79999999999995</ele><time>2026-04-18T13:52:04.002Z</time></trkpt><trkpt lat="43.28513464869457" lon="10.809478623811671"><ele>333.0</ele><time>2026-04-18T13:52:05.002Z</time></trkpt><trkpt lat="43.285104713683644" lon="10.809346746581776"><ele>332.79999999999995</ele><time>2026-04-18T13:52:06.002Z</time></trkpt><trkpt lat="43.285075535375974" lon="10.809215919440224"><ele>332.6</ele><time>2026-04-18T13:52:07.002Z</time></trkpt><trkpt lat="43.28504053751185" lon="10.809081616708887"><ele>332.4</ele><time>2026-04-18T13:52:08.002Z</time></trkpt><trkpt lat="43.28498407465567" lon="10.808964577351942"><ele>332.20000000000005</ele><time>2026-04-18T13:52:09.002Z</time></trkpt><trkpt lat="43.28494053458141" lon="10.80884318438977"><ele>332.0</ele><time>2026-04-18T13:52:10.002Z</time></trkpt><trkpt lat="43.28488643755207" lon="10.808736055692606"><ele>332.0</ele><time>2026-04-18T13:52:11.002Z</time></trkpt><trkpt lat="43.284834931353004" lon="10.80863206149088"><ele>332.0</ele><time>2026-04-18T13:52:12.002Z</time></trkpt><trkpt lat="43.284780365293955" lon="10.808535011727564"><ele>332.0</ele><time>2026-04-18T13:52:13.002Z</time></trkpt><trkpt lat="43.28474957532176" lon="10.80843260698321"><ele>332.0</ele><time>2026-04-18T13:52:14.002Z</time></trkpt><trkpt lat="43.28471642095743" lon="10.808337736245168"><ele>332.0</ele><time>2026-04-18T13:52:15.002Z</time></trkpt><trkpt lat="43.28470353977913" lon="10.808228463065156"><ele>332.0</ele><time>2026-04-18T13:52:16.002Z</time></trkpt><trkpt lat="43.28471640953983" lon="10.808116318277005"><ele>330.8</ele><time>2026-04-18T13:52:17.002Z</time></trkpt><trkpt lat="43.28475036449976" lon="10.8079952111418"><ele>329.6</ele><time>2026-04-18T13:52:18.002Z</time></trkpt><trkpt lat="43.28478783859314" lon="10.80787176179786"><ele>328.40000000000003</ele><time>2026-04-18T13:52:19.002Z</time></trkpt><trkpt lat="43.28480780601247" lon="10.807730897923054"><ele>327.20000000000005</ele><time>2026-04-18T13:52:20.002Z</time></trkpt><trkpt lat="43.28483163591728" lon="10.807589936775749"><ele>326.0</ele><time>2026-04-18T13:52:21.002Z</time></trkpt><trkpt lat="43.284860527032606" lon="10.807476302143906"><ele>326.0</ele><time>2026-04-18T13:52:22.002Z</time></trkpt><trkpt lat="43.28487657715571" lon="10.807375327381695"><ele>326.0</ele><time>2026-04-18T13:52:23.003Z</time></trkpt><trkpt lat="43.28485429677621" lon="10.807259825463191"><ele>326.0</ele><time>2026-04-18T13:52:24.003Z</time></trkpt><trkpt lat="43.284818302944146" lon="10.807151674098854"><ele>326.0</ele><time>2026-04-18T13:52:25.003Z</time></trkpt><trkpt lat="43.284783427364445" lon="10.80701235483824"><ele>326.0</ele><time>2026-04-18T13:52:26.003Z</time></trkpt><trkpt lat="43.28474298925865" lon="10.80688711904968"><ele>333.0</ele><time>2026-04-18T13:52:27.003Z</time></trkpt><trkpt lat="43.28469551477791" lon="10.806772572208919"><ele>340.0</ele><time>2026-04-18T13:52:28.003Z</time></trkpt><trkpt lat="43.28466596377146" lon="10.806637024724177"><ele>347.0</ele><time>2026-04-18T13:52:29.003Z</time></trkpt><trkpt lat="43.28465924267596" lon="10.806511942116696"><ele>354.0</ele><time>2026-04-18T13:52:30.003Z</time></trkpt><trkpt lat="43.28468331785241" lon="10.80638662612191"><ele>361.0</ele><time>2026-04-18T13:52:31.003Z</time></trkpt><trkpt lat="43.28473380802033" lon="10.80625227630871"><ele>355.20000000000005</ele><time>2026-04-18T13:52:32.001Z</time></trkpt><trkpt lat="43.28477080878893" lon="10.806110252737982"><ele>349.40000000000003</ele><time>2026-04-18T13:52:33.001Z</time></trkpt><trkpt lat="43.28481093832982" lon="10.805967777200097"><ele>343.6</ele><time>2026-04-18T13:52:34.001Z</time></trkpt><trkpt lat="43.284836410676796" lon="10.805839150422704"><ele>337.8</ele><time>2026-04-18T13:52:35.001Z</time></trkpt><trkpt lat="43.28483952810659" lon="10.805700380739822"><ele>332.0</ele><time>2026-04-18T13:52:36.001Z</time></trkpt><trkpt lat="43.2848297390079" lon="10.805565756318916"><ele>332.0</ele><time>2026-04-18T13:52:37.001Z</time></trkpt><trkpt lat="43.28481787579454" lon="10.805445389841283"><ele>332.0</ele><time>2026-04-18T13:52:38.001Z</time></trkpt><trkpt lat="43.28480128748295" lon="10.805302821302043"><ele>332.0</ele><time>2026-04-18T13:52:39Z</time></trkpt><trkpt lat="43.28481627871218" lon="10.80515907568089"><ele>332.0</ele><time>2026-04-18T13:52:40Z</time></trkpt><trkpt lat="43.284837329600094" lon="10.805021487640285"><ele>332.0</ele><time>2026-04-18T13:52:41Z</time></trkpt><trkpt lat="43.28484644895312" lon="10.804881417850948"><ele>333.20000000000005</ele><time>2026-04-18T13:52:42Z</time></trkpt><trkpt lat="43.28484082564068" lon="10.804737667961565"><ele>334.4</ele><time>2026-04-18T13:52:43Z</time></trkpt><trkpt lat="43.284845863345716" lon="10.804598768892841"><ele>335.6</ele><time>2026-04-18T13:52:44Z</time></trkpt><trkpt lat="43.28486260920031" lon="10.804462836082026"><ele>336.79999999999995</ele><time>2026-04-18T13:52:45Z</time></trkpt><trkpt lat="43.28490039018073" lon="10.804336971286741"><ele>338.0</ele><time>2026-04-18T13:52:46Z</time></trkpt><trkpt lat="43.28496379412045" lon="10.804232983483313"><ele>339.0</ele><time>2026-04-18T13:52:47Z</time></trkpt><trkpt lat="43.285020479792216" lon="10.804139790010455"><ele>340.0</ele><time>2026-04-18T13:52:48Z</time></trkpt><trkpt lat="43.28505670507044" lon="10.804043185975827"><ele>341.0</ele><time>2026-04-18T13:52:49Z</time></trkpt><trkpt lat="43.28507106565222" lon="10.803955927471526"><ele>342.0</ele><time>2026-04-18T13:52:50Z</time></trkpt><trkpt lat="43.28503155020925" lon="10.803791475123644"><ele>343.0</ele><time>2026-04-18T13:52:52Z</time></trkpt><trkpt lat="43.28498089343856" lon="10.803718594920662"><ele>344.0</ele><time>2026-04-18T13:52:53Z</time></trkpt><trkpt lat="43.28492563909474" lon="10.803654169999417"><ele>344.0</ele><time>2026-04-18T13:52:54Z</time></trkpt><trkpt lat="43.28486590148722" lon="10.803592345155074"><ele>344.0</ele><time>2026-04-18T13:52:55.001Z</time></trkpt><trkpt lat="43.28481016471916" lon="10.80351536938747"><ele>344.0</ele><time>2026-04-18T13:52:56.001Z</time></trkpt><trkpt lat="43.28476599192305" lon="10.803436491678479"><ele>344.0</ele><time>2026-04-18T13:52:57.001Z</time></trkpt><trkpt lat="43.284716057461914" lon="10.803383045168545"><ele>344.0</ele><time>2026-04-18T13:52:58.001Z</time></trkpt><trkpt lat="43.28465497386621" lon="10.803348331077249"><ele>344.0</ele><time>2026-04-18T13:52:59.001Z</time></trkpt><trkpt lat="43.28454295120555" lon="10.803377692990848"><ele>344.0</ele><time>2026-04-18T13:53:01.001Z</time></trkpt><trkpt lat="43.28454354827269" lon="10.803519007495732"><ele>344.0</ele><time>2026-04-18T13:53:03.001Z</time></trkpt><trkpt lat="43.28464724145089" lon="10.803595636162923"><ele>344.0</ele><time>2026-04-18T13:53:05.001Z</time></trkpt><trkpt lat="43.28470868936154" lon="10.803635311429009"><ele>344.0</ele><time>2026-04-18T13:53:06.001Z</time></trkpt><trkpt lat="43.284757791853075" lon="10.80371089138007"><ele>344.0</ele><time>2026-04-18T13:53:07.001Z</time></trkpt><trkpt lat="43.28477658069387" lon="10.803796494760586"><ele>344.0</ele><time>2026-04-18T13:53:08.001Z</time></trkpt><trkpt lat="43.28477517863557" lon="10.80388505187909"><ele>348.1666666666667</ele><time>2026-04-18T13:53:09.001Z</time></trkpt><trkpt lat="43.284703357461495" lon="10.804030364800038"><ele>352.33333333333337</ele><time>2026-04-18T13:53:11.001Z</time></trkpt><trkpt lat="43.284662044279244" lon="10.804107712582226"><ele>356.5</ele><time>2026-04-18T13:53:12.001Z</time></trkpt><trkpt lat="43.28462609288963" lon="10.804195469981487"><ele>360.6666666666667</ele><time>2026-04-18T13:53:13.001Z</time></trkpt><trkpt lat="43.28459407317677" lon="10.804297457457174"><ele>364.8333333333333</ele><time>2026-04-18T13:53:14.001Z</time></trkpt><trkpt lat="43.28454924896619" lon="10.804385157885912"><ele>369.0</ele><time>2026-04-18T13:53:15.001Z</time></trkpt><trkpt lat="43.284514522326816" lon="10.804500550344748"><ele>369.0</ele><time>2026-04-18T13:53:16.001Z</time></trkpt><trkpt lat="43.284494589619236" lon="10.804636041034204"><ele>369.0</ele><time>2026-04-18T13:53:17.001Z</time></trkpt><trkpt lat="43.28444518730832" lon="10.804745684415268"><ele>369.0</ele><time>2026-04-18T13:53:18.001Z</time></trkpt><trkpt lat="43.284384821456825" lon="10.804837727576055"><ele>369.0</ele><time>2026-04-18T13:53:19.001Z</time></trkpt><trkpt lat="43.28431227996781" lon="10.804904548133486"><ele>369.0</ele><time>2026-04-18T13:53:20.001Z</time></trkpt><trkpt lat="43.28423325691778" lon="10.804963196324682"><ele>369.0</ele><time>2026-04-18T13:53:21.001Z</time></trkpt><trkpt lat="43.28415650486065" lon="10.805031153937916"><ele>369.0</ele><time>2026-04-18T13:53:22.001Z</time></trkpt><trkpt lat="43.284099018979134" lon="10.805115975729649"><ele>369.0</ele><time>2026-04-18T13:53:23.001Z</time></trkpt><trkpt lat="43.284058359977536" lon="10.80523467780756"><ele>369.0</ele><time>2026-04-18T13:53:24.001Z</time></trkpt><trkpt lat="43.284033327631164" lon="10.805353850312043"><ele>369.0</ele><time>2026-04-18T13:53:25.001Z</time></trkpt><trkpt lat="43.28399756676002" lon="10.805457604237382"><ele>369.0</ele><time>2026-04-18T13:53:26.001Z</time></trkpt><trkpt lat="43.283935947940336" lon="10.805555206324769"><ele>372.2</ele><time>2026-04-18T13:53:27.001Z</time></trkpt><trkpt lat="43.28385885641656" lon="10.80563846925604"><ele>375.4</ele><time>2026-04-18T13:53:28.001Z</time></trkpt><trkpt lat="43.28378076717779" lon="10.805722532966692"><ele>378.6</ele><time>2026-04-18T13:53:29.001Z</time></trkpt><trkpt lat="43.2837044873928" lon="10.805801181157694"><ele>381.8</ele><time>2026-04-18T13:53:30.001Z</time></trkpt><trkpt lat="43.28364338642741" lon="10.805880940335344"><ele>385.0</ele><time>2026-04-18T13:53:31.001Z</time></trkpt><trkpt lat="43.28359401665087" lon="10.805982753543786"><ele>386.33333333333337</ele><time>2026-04-18T13:53:32.001Z</time></trkpt><trkpt lat="43.28356116768334" lon="10.806093224891232"><ele>387.6666666666667</ele><time>2026-04-18T13:53:33.001Z</time></trkpt><trkpt lat="43.283549139586945" lon="10.806198131646275"><ele>389.0</ele><time>2026-04-18T13:53:34.001Z</time></trkpt><trkpt lat="43.283563728120036" lon="10.806309315537984"><ele>390.33333333333337</ele><time>2026-04-18T13:53:35.001Z</time></trkpt><trkpt lat="43.28359960753573" lon="10.80640866849271"><ele>391.6666666666667</ele><time>2026-04-18T13:53:36.001Z</time></trkpt><trkpt lat="43.283656411083115" lon="10.806499166500727"><ele>393.0</ele><time>2026-04-18T13:53:37.001Z</time></trkpt><trkpt lat="43.2837236739614" lon="10.806582237934698"><ele>393.0</ele><time>2026-04-18T13:53:38.001Z</time></trkpt><trkpt lat="43.283782277734836" lon="10.806681639064898"><ele>393.0</ele><time>2026-04-18T13:53:39.001Z</time></trkpt><trkpt lat="43.28383875400092" lon="10.806793519005117"><ele>393.0</ele><time>2026-04-18T13:53:40.001Z</time></trkpt><trkpt lat="43.283891192891886" lon="10.806914515074919"><ele>393.0</ele><time>2026-04-18T13:53:41.001Z</time></trkpt><trkpt lat="43.283937848570034" lon="10.80702349029904"><ele>393.0</ele><time>2026-04-18T13:53:42.001Z</time></trkpt><trkpt lat="43.28397792457794" lon="10.80712986215911"><ele>393.7142857142857</ele><time>2026-04-18T13:53:43.001Z</time></trkpt><trkpt lat="43.28401324281084" lon="10.807233290060791"><ele>394.42857142857144</ele><time>2026-04-18T13:53:44.001Z</time></trkpt><trkpt lat="43.28401768579566" lon="10.807335666572788"><ele>395.1428571428571</ele><time>2026-04-18T13:53:45.001Z</time></trkpt><trkpt lat="43.28399892773311" lon="10.807425475203384"><ele>395.8571428571429</ele><time>2026-04-18T13:53:46.001Z</time></trkpt><trkpt lat="43.28394604803251" lon="10.807486499804536"><ele>396.57142857142856</ele><time>2026-04-18T13:53:47.001Z</time></trkpt><trkpt lat="43.283875728677295" lon="10.807509420397178"><ele>397.2857142857143</ele><time>2026-04-18T13:53:48.001Z</time></trkpt><trkpt lat="43.283810271045695" lon="10.807500887319362"><ele>398.0</ele><time>2026-04-18T13:53:49.002Z</time></trkpt><trkpt lat="43.28374050935907" lon="10.807475496645012"><ele>397.99999999999994</ele><time>2026-04-18T13:53:50.002Z</time></trkpt><trkpt lat="43.28366298482315" lon="10.807458732804065"><ele>398.0</ele><time>2026-04-18T13:53:51.002Z</time></trkpt><trkpt lat="43.28357615562121" lon="10.807440141190552"><ele>398.0</ele><time>2026-04-18T13:53:52.002Z</time></trkpt><trkpt lat="43.283499456681504" lon="10.807432023173627"><ele>398.0</ele><time>2026-04-18T13:53:53.002Z</time></trkpt><trkpt lat="43.283435544517666" lon="10.807456427396792"><ele>398.0</ele><time>2026-04-18T13:53:54.002Z</time></trkpt><trkpt lat="43.28338299284531" lon="10.807513637019634"><ele>397.99999999999994</ele><time>2026-04-18T13:53:55.002Z</time></trkpt><trkpt lat="43.283363722697025" lon="10.807599754661082"><ele>398.0</ele><time>2026-04-18T13:53:56.002Z</time></trkpt><trkpt lat="43.28338173572975" lon="10.807696845209948"><ele>399.66666666666663</ele><time>2026-04-18T13:53:57.002Z</time></trkpt><trkpt lat="43.28342256734516" lon="10.807789371576463"><ele>401.3333333333333</ele><time>2026-04-18T13:53:58.002Z</time></trkpt><trkpt lat="43.28348009816778" lon="10.807869931742381"><ele>403.0</ele><time>2026-04-18T13:53:59.002Z</time></trkpt><trkpt lat="43.283540249225624" lon="10.80795378679164"><ele>404.66666666666663</ele><time>2026-04-18T13:54:00.002Z</time></trkpt><trkpt lat="43.28359299621806" lon="10.80805714457428"><ele>406.3333333333333</ele><time>2026-04-18T13:54:01.002Z</time></trkpt><trkpt lat="43.28364381141738" lon="10.808166231387975"><ele>408.0</ele><time>2026-04-18T13:54:02.002Z</time></trkpt><trkpt lat="43.283692183991036" lon="10.808287368333165"><ele>408.0</ele><time>2026-04-18T13:54:03.002Z</time></trkpt><trkpt lat="43.28373608551062" lon="10.80840432758924"><ele>408.0</ele><time>2026-04-18T13:54:04.002Z</time></trkpt><trkpt lat="43.283765901706836" lon="10.808513703473333"><ele>408.0</ele><time>2026-04-18T13:54:05.002Z</time></trkpt><trkpt lat="43.28378192512348" lon="10.808622902503123"><ele>408.0</ele><time>2026-04-18T13:54:06.002Z</time></trkpt><trkpt lat="43.28376954027106" lon="10.808727730056921"><ele>408.0</ele><time>2026-04-18T13:54:07.002Z</time></trkpt><trkpt lat="43.28374174099647" lon="10.808836707886076"><ele>408.0</ele><time>2026-04-18T13:54:08.002Z</time></trkpt><trkpt lat="43.28371044922855" lon="10.808951077496493"><ele>408.59999999999997</ele><time>2026-04-18T13:54:09.002Z</time></trkpt><trkpt lat="43.28369513748264" lon="10.809069018686387"><ele>409.2</ele><time>2026-04-18T13:54:10.002Z</time></trkpt><trkpt lat="43.28370265445336" lon="10.809188170061708"><ele>409.8</ele><time>2026-04-18T13:54:11.002Z</time></trkpt><trkpt lat="43.28373823445929" lon="10.809303803702841"><ele>410.4</ele><time>2026-04-18T13:54:12.002Z</time></trkpt><trkpt lat="43.28380339236638" lon="10.809406385206163"><ele>411.0</ele><time>2026-04-18T13:54:13.002Z</time></trkpt><trkpt lat="43.28386998279789" lon="10.80950319061338"><ele>407.5</ele><time>2026-04-18T13:54:14.002Z</time></trkpt><trkpt lat="43.28394205399368" lon="10.809599256754796"><ele>404.0</ele><time>2026-04-18T13:54:15.002Z</time></trkpt><trkpt lat="43.283991905512906" lon="10.809682420720856"><ele>400.5</ele><time>2026-04-18T13:54:16.002Z</time></trkpt><trkpt lat="43.28400386859505" lon="10.809768973863305"><ele>397.0</ele><time>2026-04-18T13:54:17.002Z</time></trkpt><trkpt lat="43.28400901084046" lon="10.809870085547159"><ele>393.5</ele><time>2026-04-18T13:54:18.002Z</time></trkpt><trkpt lat="43.28398490252877" lon="10.80997821194309"><ele>390.0</ele><time>2026-04-18T13:54:19.002Z</time></trkpt><trkpt lat="43.28395475012483" lon="10.810079052511593"><ele>391.1666666666667</ele><time>2026-04-18T13:54:20.002Z</time></trkpt><trkpt lat="43.28391131245328" lon="10.81016827180407"><ele>392.33333333333337</ele><time>2026-04-18T13:54:21.002Z</time></trkpt><trkpt lat="43.28385114043282" lon="10.810237776632327"><ele>393.5</ele><time>2026-04-18T13:54:22.002Z</time></trkpt><trkpt lat="43.28377617479546" lon="10.810274998393837"><ele>394.6666666666667</ele><time>2026-04-18T13:54:23.002Z</time></trkpt><trkpt lat="43.28369403924782" lon="10.810294690504433"><ele>395.83333333333337</ele><time>2026-04-18T13:54:24.002Z</time></trkpt><trkpt lat="43.283596152012606" lon="10.810316754662052"><ele>397.0</ele><time>2026-04-18T13:54:25.002Z</time></trkpt><trkpt lat="43.28350453434559" lon="10.810344285869457"><ele>397.0</ele><time>2026-04-18T13:54:26.002Z</time></trkpt><trkpt lat="43.283414017368564" lon="10.810380936251898"><ele>397.0</ele><time>2026-04-18T13:54:27.002Z</time></trkpt><trkpt lat="43.28332356536973" lon="10.810406659205102"><ele>397.0</ele><time>2026-04-18T13:54:28.002Z</time></trkpt><trkpt lat="43.28322801289553" lon="10.810398000306183"><ele>397.0</ele><time>2026-04-18T13:54:29.002Z</time></trkpt><trkpt lat="43.283147022661474" lon="10.810355583281856"><ele>397.0</ele><time>2026-04-18T13:54:30.002Z</time></trkpt><trkpt lat="43.28307159008812" lon="10.810286734091619"><ele>394.8</ele><time>2026-04-18T13:54:31.002Z</time></trkpt><trkpt lat="43.28298736128551" lon="10.810219098322108"><ele>392.6</ele><time>2026-04-18T13:54:32.002Z</time></trkpt><trkpt lat="43.282936347876834" lon="10.810121795062088"><ele>390.40000000000003</ele><time>2026-04-18T13:54:33.002Z</time></trkpt><trkpt lat="43.28287117603863" lon="10.810007387675201"><ele>388.20000000000005</ele><time>2026-04-18T13:54:34.002Z</time></trkpt><trkpt lat="43.28281698822689" lon="10.809916224830703"><ele>386.0</ele><time>2026-04-18T13:54:35.002Z</time></trkpt><trkpt lat="43.28277508530742" lon="10.80982613836303"><ele>389.8333333333333</ele><time>2026-04-18T13:54:36.002Z</time></trkpt><trkpt lat="43.282706951858195" lon="10.809741560433391"><ele>393.66666666666663</ele><time>2026-04-18T13:54:37.002Z</time></trkpt><trkpt lat="43.2826462568861" lon="10.809685003609419"><ele>397.5</ele><time>2026-04-18T13:54:38Z</time></trkpt><trkpt lat="43.282569684669426" lon="10.809643547499235"><ele>401.33333333333337</ele><time>2026-04-18T13:54:39Z</time></trkpt><trkpt lat="43.28248799702602" lon="10.809640937731988"><ele>405.1666666666667</ele><time>2026-04-18T13:54:40Z</time></trkpt><trkpt lat="43.28240986473971" lon="10.809652562249457"><ele>409.0</ele><time>2026-04-18T13:54:41Z</time></trkpt><trkpt lat="43.28233913698297" lon="10.809691513332211"><ele>409.00000000000006</ele><time>2026-04-18T13:54:42Z</time></trkpt><trkpt lat="43.282265442316316" lon="10.80973135275733"><ele>409.0</ele><time>2026-04-18T13:54:43Z</time></trkpt><trkpt lat="43.28220094860322" lon="10.809754364164693"><ele>409.0</ele><time>2026-04-18T13:54:44Z</time></trkpt><trkpt lat="43.28212325753697" lon="10.80969580074622"><ele>409.0</ele><time>2026-04-18T13:54:46Z</time></trkpt><trkpt lat="43.28215664008201" lon="10.809574897576617"><ele>409.00000000000006</ele><time>2026-04-18T13:54:48Z</time></trkpt><trkpt lat="43.28224237505322" lon="10.80953160579233"><ele>409.0</ele><time>2026-04-18T13:54:50Z</time></trkpt><trkpt lat="43.282349156955476" lon="10.809454119960161"><ele>409.0</ele><time>2026-04-18T13:54:52Z</time></trkpt><trkpt lat="43.2824075514882" lon="10.809416560924479"><ele>409.0</ele><time>2026-04-18T13:54:53Z</time></trkpt><trkpt lat="43.282474453807986" lon="10.809398413264589"><ele>409.0</ele><time>2026-04-18T13:54:54Z</time></trkpt><trkpt lat="43.28254484554555" lon="10.80939963224138"><ele>409.0</ele><time>2026-04-18T13:54:55Z</time></trkpt><trkpt lat="43.282610325064425" lon="10.809441072748726"><ele>409.0</ele><time>2026-04-18T13:54:56Z</time></trkpt><trkpt lat="43.28268505405606" lon="10.809482534855807"><ele>409.0</ele><time>2026-04-18T13:54:57Z</time></trkpt><trkpt lat="43.28276875372737" lon="10.809505547343711"><ele>409.0</ele><time>2026-04-18T13:54:58Z</time></trkpt><trkpt lat="43.28285521431924" lon="10.809522384850284"><ele>409.00000000000006</ele><time>2026-04-18T13:54:59Z</time></trkpt><trkpt lat="43.2829486758776" lon="10.809540120765416"><ele>409.0</ele><time>2026-04-18T13:55:00Z</time></trkpt><trkpt lat="43.28302157083081" lon="10.809558672712473"><ele>409.0</ele><time>2026-04-18T13:55:01Z</time></trkpt><trkpt lat="43.283087541548205" lon="10.809575313719886"><ele>409.0</ele><time>2026-04-18T13:55:02.001Z</time></trkpt><trkpt lat="43.28315450391378" lon="10.809554154104232"><ele>409.00000000000006</ele><time>2026-04-18T13:55:03.001Z</time></trkpt><trkpt lat="43.283190375639116" lon="10.809418466784445"><ele>409.0</ele><time>2026-04-18T13:55:05.001Z</time></trkpt><trkpt lat="43.28313250385083" lon="10.809291096872064"><ele>411.85714285714283</ele><time>2026-04-18T13:55:07.001Z</time></trkpt><trkpt lat="43.28309689613535" lon="10.80920730483238"><ele>414.7142857142857</ele><time>2026-04-18T13:55:08.001Z</time></trkpt><trkpt lat="43.283068085346756" lon="10.809119996093674"><ele>417.57142857142856</ele><time>2026-04-18T13:55:09.001Z</time></trkpt><trkpt lat="43.283041397834666" lon="10.809029391812272"><ele>420.42857142857144</ele><time>2026-04-18T13:55:10.001Z</time></trkpt><trkpt lat="43.28300525141039" lon="10.808937764171999"><ele>423.28571428571433</ele><time>2026-04-18T13:55:11.001Z</time></trkpt><trkpt lat="43.282966823526536" lon="10.80885044117932"><ele>426.14285714285717</ele><time>2026-04-18T13:55:12.001Z</time></trkpt><trkpt lat="43.28291528812004" lon="10.80877894626024"><ele>429.0</ele><time>2026-04-18T13:55:13.001Z</time></trkpt><trkpt lat="43.28281721412521" lon="10.808717217566642"><ele>429.0</ele><time>2026-04-18T13:55:15.001Z</time></trkpt><trkpt lat="43.28275156327996" lon="10.808733002939293"><ele>429.0</ele><time>2026-04-18T13:55:16.001Z</time></trkpt><trkpt lat="43.28269087842778" lon="10.808758737736856"><ele>429.0</ele><time>2026-04-18T13:55:17.001Z</time></trkpt><trkpt lat="43.28262844009163" lon="10.808805584511656"><ele>429.0</ele><time>2026-04-18T13:55:18.001Z</time></trkpt><trkpt lat="43.2825539210454" lon="10.808831272322273"><ele>429.0</ele><time>2026-04-18T13:55:19.001Z</time></trkpt><trkpt lat="43.2824716654144" lon="10.80884976003827"><ele>429.0</ele><time>2026-04-18T13:55:20.001Z</time></trkpt><trkpt lat="43.28238840856516" lon="10.808857929517476"><ele>429.0</ele><time>2026-04-18T13:55:21.001Z</time></trkpt><trkpt lat="43.28230478974717" lon="10.808860517996305"><ele>428.8333333333333</ele><time>2026-04-18T13:55:22.001Z</time></trkpt><trkpt lat="43.28222488426727" lon="10.8088566060098"><ele>428.66666666666663</ele><time>2026-04-18T13:55:23.001Z</time></trkpt><trkpt lat="43.2821452566922" lon="10.808830315572415"><ele>428.5</ele><time>2026-04-18T13:55:24.001Z</time></trkpt><trkpt lat="43.282067994099684" lon="10.808807976379901"><ele>428.3333333333333</ele><time>2026-04-18T13:55:25.001Z</time></trkpt><trkpt lat="43.281995497088474" lon="10.80879197525221"><ele>428.16666666666663</ele><time>2026-04-18T13:55:26.001Z</time></trkpt><trkpt lat="43.28192791139968" lon="10.80877653408775"><ele>428.0</ele><time>2026-04-18T13:55:27.001Z</time></trkpt><trkpt lat="43.28181787412744" lon="10.808772048660336"><ele>428.0</ele><time>2026-04-18T13:55:29.001Z</time></trkpt><trkpt lat="43.281729627355105" lon="10.808802152113232"><ele>427.99999999999994</ele><time>2026-04-18T13:55:31.001Z</time></trkpt><trkpt lat="43.28165260234422" lon="10.808753003245425"><ele>427.99999999999994</ele><time>2026-04-18T13:55:33.001Z</time></trkpt><trkpt lat="43.28158895277869" lon="10.808635353439835"><ele>428.0</ele><time>2026-04-18T13:55:35.001Z</time></trkpt><trkpt lat="43.28150296901821" lon="10.808529560396359"><ele>428.0</ele><time>2026-04-18T13:55:37.001Z</time></trkpt><trkpt lat="43.281449748209525" lon="10.80848059529898"><ele>429.16666666666663</ele><time>2026-04-18T13:55:38.001Z</time></trkpt><trkpt lat="43.28139661327548" lon="10.808432137324534"><ele>430.3333333333333</ele><time>2026-04-18T13:55:39.001Z</time></trkpt><trkpt lat="43.28134132892553" lon="10.808383812991641"><ele>431.5</ele><time>2026-04-18T13:55:40.001Z</time></trkpt><trkpt lat="43.28128391041557" lon="10.808343630871498"><ele>432.66666666666663</ele><time>2026-04-18T13:55:41.001Z</time></trkpt><trkpt lat="43.28121870056838" lon="10.808316951558561"><ele>433.8333333333333</ele><time>2026-04-18T13:55:42.001Z</time></trkpt><trkpt lat="43.28109530623238" lon="10.808281437335024"><ele>435.0</ele><time>2026-04-18T13:55:44.001Z</time></trkpt><trkpt lat="43.28097563152963" lon="10.808289824750172"><ele>435.0</ele><time>2026-04-18T13:55:46.001Z</time></trkpt><trkpt lat="43.280852664094255" lon="10.808311348541237"><ele>435.0</ele><time>2026-04-18T13:55:48.001Z</time></trkpt><trkpt lat="43.28073029297731" lon="10.808290861787876"><ele>435.0</ele><time>2026-04-18T13:55:50.001Z</time></trkpt><trkpt lat="43.28066611168745" lon="10.808281859357013"><ele>435.0</ele><time>2026-04-18T13:55:51.001Z</time></trkpt><trkpt lat="43.280598860125494" lon="10.808276622102973"><ele>435.0</ele><time>2026-04-18T13:55:52.001Z</time></trkpt><trkpt lat="43.28053258191545" lon="10.80828868090529"><ele>435.0</ele><time>2026-04-18T13:55:53.001Z</time></trkpt><trkpt lat="43.2804629981067" lon="10.808298686778"><ele>435.5</ele><time>2026-04-18T13:55:54.001Z</time></trkpt><trkpt lat="43.28035680040038" lon="10.80837547816642"><ele>436.0</ele><time>2026-04-18T13:55:56.002Z</time></trkpt><trkpt lat="43.28030242520504" lon="10.808439564094344"><ele>436.5</ele><time>2026-04-18T13:55:57.002Z</time></trkpt><trkpt lat="43.280234052264404" lon="10.808496804833311"><ele>437.0</ele><time>2026-04-18T13:55:58.002Z</time></trkpt><trkpt lat="43.28015246773814" lon="10.808500104438346"><ele>437.5</ele><time>2026-04-18T13:55:59.002Z</time></trkpt><trkpt lat="43.280080177235654" lon="10.808498782462863"><ele>438.0</ele><time>2026-04-18T13:56:00.002Z</time></trkpt><trkpt lat="43.28001607688659" lon="10.808508688924297"><ele>436.59999999999997</ele><time>2026-04-18T13:56:01.002Z</time></trkpt><trkpt lat="43.279952315711135" lon="10.808514986841327"><ele>435.19999999999993</ele><time>2026-04-18T13:56:02.002Z</time></trkpt><trkpt lat="43.279845619127165" lon="10.80854816586649"><ele>433.8</ele><time>2026-04-18T13:56:04.002Z</time></trkpt><trkpt lat="43.279757152725644" lon="10.808612152755673"><ele>432.4</ele><time>2026-04-18T13:56:06.002Z</time></trkpt><trkpt lat="43.279681520529905" lon="10.808719115920052"><ele>431.0</ele><time>2026-04-18T13:56:08.002Z</time></trkpt><trkpt lat="43.27959648760277" lon="10.808830088482392"><ele>434.4</ele><time>2026-04-18T13:56:10.002Z</time></trkpt><trkpt lat="43.279544006031735" lon="10.808880993221587"><ele>437.8</ele><time>2026-04-18T13:56:11.002Z</time></trkpt><trkpt lat="43.27945043792589" lon="10.808983619168666"><ele>441.19999999999993</ele><time>2026-04-18T13:56:13.002Z</time></trkpt><trkpt lat="43.27936356981869" lon="10.809086647408085"><ele>444.59999999999997</ele><time>2026-04-18T13:56:15.002Z</time></trkpt><trkpt lat="43.27926617065975" lon="10.80911117864121"><ele>448.0</ele><time>2026-04-18T13:56:17.002Z</time></trkpt><trkpt lat="43.279168269576594" lon="10.809056772561497"><ele>448.0</ele><time>2026-04-18T13:56:19.002Z</time></trkpt><trkpt lat="43.27908265383895" lon="10.808965389830757"><ele>447.99999999999994</ele><time>2026-04-18T13:56:21.002Z</time></trkpt><trkpt lat="43.279033920689685" lon="10.808854850858701"><ele>447.99999999999994</ele><time>2026-04-18T13:56:23.002Z</time></trkpt><trkpt lat="43.27901450793975" lon="10.808729142621052"><ele>448.0</ele><time>2026-04-18T13:56:25.002Z</time></trkpt><trkpt lat="43.279003223056534" lon="10.80858840519329"><ele>448.0</ele><time>2026-04-18T13:56:27.002Z</time></trkpt><trkpt lat="43.279008991834814" lon="10.808433354257948"><ele>448.00000000000006</ele><time>2026-04-18T13:56:29.002Z</time></trkpt><trkpt lat="43.279029658686746" lon="10.808264582468057"><ele>448.0</ele><time>2026-04-18T13:56:31.002Z</time></trkpt><trkpt lat="43.27901074147169" lon="10.808168832077993"><ele>448.0</ele><time>2026-04-18T13:56:32.002Z</time></trkpt><trkpt lat="43.27898081522112" lon="10.80807753855321"><ele>448.0</ele><time>2026-04-18T13:56:33.002Z</time></trkpt><trkpt lat="43.27894470419309" lon="10.807992283209467"><ele>448.00000000000006</ele><time>2026-04-18T13:56:34.002Z</time></trkpt><trkpt lat="43.27890751212318" lon="10.807905275073086"><ele>448.0</ele><time>2026-04-18T13:56:35.002Z</time></trkpt><trkpt lat="43.278792549294366" lon="10.807810684010796"><ele>448.00000000000006</ele><time>2026-04-18T13:56:37.002Z</time></trkpt><trkpt lat="43.27869933820403" lon="10.80776218330783"><ele>448.0</ele><time>2026-04-18T13:56:39.002Z</time></trkpt><trkpt lat="43.27861430455462" lon="10.807752848765388"><ele>448.0</ele><time>2026-04-18T13:56:41.002Z</time></trkpt><trkpt lat="43.27853469461071" lon="10.807718622171759"><ele>448.0</ele><time>2026-04-18T13:56:44Z</time></trkpt><trkpt lat="43.27847173139712" lon="10.807654790494441"><ele>448.00000000000006</ele><time>2026-04-18T13:56:46Z</time></trkpt><trkpt lat="43.27841490143198" lon="10.807602826410283"><ele>448.0</ele><time>2026-04-18T13:56:48Z</time></trkpt><trkpt lat="43.27835710262151" lon="10.807485029359235"><ele>450.0</ele><time>2026-04-18T13:56:51Z</time></trkpt><trkpt lat="43.27831822346247" lon="10.807397756406743"><ele>452.0</ele><time>2026-04-18T13:56:53Z</time></trkpt><trkpt lat="43.27829299856235" lon="10.807309104550871"><ele>454.0</ele><time>2026-04-18T13:56:55Z</time></trkpt><trkpt lat="43.27827375133892" lon="10.807221167293342"><ele>456.0</ele><time>2026-04-18T13:56:57Z</time></trkpt><trkpt lat="43.27824694579503" lon="10.80712766566108"><ele>458.0</ele><time>2026-04-18T13:56:59Z</time></trkpt><trkpt lat="43.27821581306723" lon="10.807033541031064"><ele>460.0</ele><time>2026-04-18T13:57:01Z</time></trkpt><trkpt lat="43.27817384107062" lon="10.806958784244623"><ele>462.0</ele><time>2026-04-18T13:57:03Z</time></trkpt><trkpt lat="43.27812129709501" lon="10.80688050206991"><ele>462.8333333333333</ele><time>2026-04-18T13:57:06Z</time></trkpt><trkpt lat="43.278045339800876" lon="10.806836497632482"><ele>463.66666666666663</ele><time>2026-04-18T13:57:09Z</time></trkpt><trkpt lat="43.277978546587576" lon="10.806826900920221"><ele>464.5</ele><time>2026-04-18T13:57:11Z</time></trkpt><trkpt lat="43.27791493321394" lon="10.80682629540749"><ele>465.3333333333333</ele><time>2026-04-18T13:57:13Z</time></trkpt><trkpt lat="43.27784258536887" lon="10.806827565880564"><ele>466.16666666666663</ele><time>2026-04-18T13:57:15Z</time></trkpt><trkpt lat="43.277750396073905" lon="10.806822382331676"><ele>467.0</ele><time>2026-04-18T13:57:17.001Z</time></trkpt><trkpt lat="43.27764890747596" lon="10.806782951334768"><ele>467.0</ele><time>2026-04-18T13:57:19.001Z</time></trkpt><trkpt lat="43.27758650783249" lon="10.806707410534958"><ele>467.00000000000006</ele><time>2026-04-18T13:57:21.001Z</time></trkpt><trkpt lat="43.27754995730557" lon="10.806619326397646"><ele>467.00000000000006</ele><time>2026-04-18T13:57:23.001Z</time></trkpt><trkpt lat="43.27750006267959" lon="10.806522037755451"><ele>467.0</ele><time>2026-04-18T13:57:25.001Z</time></trkpt><trkpt lat="43.277394903269084" lon="10.806453882684497"><ele>467.0</ele><time>2026-04-18T13:57:27.001Z</time></trkpt><trkpt lat="43.27731129874298" lon="10.806340903201965"><ele>466.99999999999994</ele><time>2026-04-18T13:57:29.001Z</time></trkpt><trkpt lat="43.2772739058143" lon="10.806256450071787"><ele>467.0</ele><time>2026-04-18T13:57:30.001Z</time></trkpt><trkpt lat="43.27724490949164" lon="10.80617040158999"><ele>467.0</ele><time>2026-04-18T13:57:31.001Z</time></trkpt><trkpt lat="43.27719116746953" lon="10.806016936766815"><ele>467.0</ele><time>2026-04-18T13:57:33.001Z</time></trkpt><trkpt lat="43.27714983723977" lon="10.805940266936224"><ele>466.99999999999994</ele><time>2026-04-18T13:57:34.001Z</time></trkpt><trkpt lat="43.277113514794486" lon="10.805859341237671"><ele>467.0</ele><time>2026-04-18T13:57:35.001Z</time></trkpt><trkpt lat="43.277081090294914" lon="10.805780314883425"><ele>467.49999999999994</ele><time>2026-04-18T13:57:36.001Z</time></trkpt><trkpt lat="43.27702295569239" lon="10.805667036729096"><ele>468.0</ele><time>2026-04-18T13:57:38.001Z</time></trkpt><trkpt lat="43.27697860645612" lon="10.805600462239003"><ele>468.5</ele><time>2026-04-18T13:57:39.001Z</time></trkpt><trkpt lat="43.27692436773988" lon="10.805534944362238"><ele>469.0</ele><time>2026-04-18T13:57:40.001Z</time></trkpt><trkpt lat="43.276822871706884" lon="10.805505537549458"><ele>469.49999999999994</ele><time>2026-04-18T13:57:42.001Z</time></trkpt><trkpt lat="43.276727941092915" lon="10.80554648776648"><ele>470.0</ele><time>2026-04-18T13:57:44.001Z</time></trkpt><trkpt lat="43.2766584190848" lon="10.805587751660175"><ele>469.99999999999994</ele><time>2026-04-18T13:57:45.001Z</time></trkpt><trkpt lat="43.276577526185335" lon="10.805641296583234"><ele>470.0</ele><time>2026-04-18T13:57:46.001Z</time></trkpt><trkpt lat="43.27649756147497" lon="10.805680131635873"><ele>470.0</ele><time>2026-04-18T13:57:47.001Z</time></trkpt><trkpt lat="43.276416078342734" lon="10.805705418468676"><ele>470.0</ele><time>2026-04-18T13:57:48.001Z</time></trkpt><trkpt lat="43.27633587755763" lon="10.805707318259522"><ele>469.99999999999994</ele><time>2026-04-18T13:57:49.001Z</time></trkpt><trkpt lat="43.27625698718808" lon="10.805690202971332"><ele>470.0</ele><time>2026-04-18T13:57:50.001Z</time></trkpt><trkpt lat="43.27619421703107" lon="10.805662541701398"><ele>469.0</ele><time>2026-04-18T13:57:51.001Z</time></trkpt><trkpt lat="43.27609894375545" lon="10.805589862804467"><ele>468.0</ele><time>2026-04-18T13:57:53.001Z</time></trkpt><trkpt lat="43.27600560796888" lon="10.805534556621357"><ele>467.0</ele><time>2026-04-18T13:57:55.001Z</time></trkpt><trkpt lat="43.27590878226419" lon="10.80544044622663"><ele>466.0</ele><time>2026-04-18T13:57:57.001Z</time></trkpt><trkpt lat="43.27584085831256" lon="10.805308510573727"><ele>465.0</ele><time>2026-04-18T13:57:59.001Z</time></trkpt><trkpt lat="43.275785221091425" lon="10.805168199473526"><ele>465.0</ele><time>2026-04-18T13:58:01.001Z</time></trkpt><trkpt lat="43.27569809623508" lon="10.80502988543344"><ele>465.0</ele><time>2026-04-18T13:58:03.001Z</time></trkpt><trkpt lat="43.27561843981282" lon="10.804961159843895"><ele>465.0</ele><time>2026-04-18T13:58:05.001Z</time></trkpt><trkpt lat="43.275549489417415" lon="10.804940382753777"><ele>465.0</ele><time>2026-04-18T13:58:06.001Z</time></trkpt><trkpt lat="43.275487164322065" lon="10.804902631955187"><ele>465.0</ele><time>2026-04-18T13:58:07.001Z</time></trkpt><trkpt lat="43.27541021282656" lon="10.804886684226567"><ele>465.0</ele><time>2026-04-18T13:58:08.001Z</time></trkpt><trkpt lat="43.27534705983678" lon="10.804867578026629"><ele>465.0</ele><time>2026-04-18T13:58:09.001Z</time></trkpt><trkpt lat="43.2752741848155" lon="10.804866957566485"><ele>465.0</ele><time>2026-04-18T13:58:10.001Z</time></trkpt><trkpt lat="43.27519785802992" lon="10.804883064324446"><ele>465.0</ele><time>2026-04-18T13:58:11.002Z</time></trkpt><trkpt lat="43.27507752096064" lon="10.804914563764736"><ele>465.0</ele><time>2026-04-18T13:58:13.002Z</time></trkpt><trkpt lat="43.2750058320991" lon="10.804939839999737"><ele>465.0</ele><time>2026-04-18T13:58:14.002Z</time></trkpt><trkpt lat="43.27491981737979" lon="10.80496376058418"><ele>465.0</ele><time>2026-04-18T13:58:15.002Z</time></trkpt><trkpt lat="43.274848718016614" lon="10.804987440199636"><ele>465.0</ele><time>2026-04-18T13:58:16.002Z</time></trkpt><trkpt lat="43.274785092187095" lon="10.805021142252256"><ele>465.0</ele><time>2026-04-18T13:58:17.002Z</time></trkpt><trkpt lat="43.2747168143281" lon="10.80504831870408"><ele>465.0</ele><time>2026-04-18T13:58:18.002Z</time></trkpt><trkpt lat="43.27463865329228" lon="10.805059667482418"><ele>465.0</ele><time>2026-04-18T13:58:19.002Z</time></trkpt><trkpt lat="43.27457654785339" lon="10.805083868145728"><ele>465.0</ele><time>2026-04-18T13:58:20.002Z</time></trkpt><trkpt lat="43.27449880090305" lon="10.805116901714138"><ele>465.0</ele><time>2026-04-18T13:58:21.002Z</time></trkpt><trkpt lat="43.27441457796062" lon="10.805146859783667"><ele>462.0</ele><time>2026-04-18T13:58:22.002Z</time></trkpt><trkpt lat="43.27432832479971" lon="10.805167947938209"><ele>459.0</ele><time>2026-04-18T13:58:23.002Z</time></trkpt><trkpt lat="43.27424206856075" lon="10.805193590849214"><ele>456.0</ele><time>2026-04-18T13:58:24.002Z</time></trkpt><trkpt lat="43.27414937625494" lon="10.805210864924426"><ele>453.0</ele><time>2026-04-18T13:58:25.002Z</time></trkpt><trkpt lat="43.27405922572326" lon="10.805224863127696"><ele>450.0</ele><time>2026-04-18T13:58:26.002Z</time></trkpt><trkpt lat="43.273965636853475" lon="10.805236417237824"><ele>450.2</ele><time>2026-04-18T13:58:27.002Z</time></trkpt><trkpt lat="43.27386504568115" lon="10.805250751844042"><ele>450.4</ele><time>2026-04-18T13:58:28.002Z</time></trkpt><trkpt lat="43.27375832271305" lon="10.805268704603504"><ele>450.6</ele><time>2026-04-18T13:58:29.002Z</time></trkpt><trkpt lat="43.273648395699304" lon="10.805283771250178"><ele>450.8</ele><time>2026-04-18T13:58:30.002Z</time></trkpt><trkpt lat="43.27354556640361" lon="10.805291144911507"><ele>451.0</ele><time>2026-04-18T13:58:31.002Z</time></trkpt><trkpt lat="43.27344505930887" lon="10.805303743788258"><ele>451.0</ele><time>2026-04-18T13:58:32.002Z</time></trkpt><trkpt lat="43.27334373876638" lon="10.805316566029347"><ele>451.0</ele><time>2026-04-18T13:58:33.002Z</time></trkpt><trkpt lat="43.27324165750656" lon="10.805325224796984"><ele>451.0</ele><time>2026-04-18T13:58:34.002Z</time></trkpt><trkpt lat="43.27314022150436" lon="10.80533329934682"><ele>451.0</ele><time>2026-04-18T13:58:35.002Z</time></trkpt><trkpt lat="43.2730424328049" lon="10.805335182000976"><ele>451.0</ele><time>2026-04-18T13:58:36.002Z</time></trkpt><trkpt lat="43.272944565469665" lon="10.8053450844103"><ele>450.8</ele><time>2026-04-18T13:58:37.002Z</time></trkpt><trkpt lat="43.27285024126194" lon="10.80535623405327"><ele>450.6</ele><time>2026-04-18T13:58:38.002Z</time></trkpt><trkpt lat="43.27275252803908" lon="10.805371421669664"><ele>450.4</ele><time>2026-04-18T13:58:39.002Z</time></trkpt><trkpt lat="43.2726547830528" lon="10.805393098110473"><ele>450.2</ele><time>2026-04-18T13:58:40.002Z</time></trkpt><trkpt lat="43.27255872647955" lon="10.805417691964646"><ele>450.0</ele><time>2026-04-18T13:58:41.002Z</time></trkpt><trkpt lat="43.27246376095999" lon="10.805448596195982"><ele>450.0</ele><time>2026-04-18T13:58:42.002Z</time></trkpt><trkpt lat="43.27237097521733" lon="10.805483201024307"><ele>450.0</ele><time>2026-04-18T13:58:43.002Z</time></trkpt><trkpt lat="43.27227845754664" lon="10.8055225184838"><ele>450.0</ele><time>2026-04-18T13:58:44.002Z</time></trkpt><trkpt lat="43.27218297172199" lon="10.805562057143545"><ele>450.0</ele><time>2026-04-18T13:58:45.002Z</time></trkpt><trkpt lat="43.272097945083274" lon="10.805614096346943"><ele>450.0</ele><time>2026-04-18T13:58:46.002Z</time></trkpt><trkpt lat="43.27200757927796" lon="10.805659747957224"><ele>450.0</ele><time>2026-04-18T13:58:47.002Z</time></trkpt><trkpt lat="43.271910354818615" lon="10.805707741745733"><ele>450.0</ele><time>2026-04-18T13:58:48.002Z</time></trkpt><trkpt lat="43.271814849628015" lon="10.805755255141873"><ele>450.0</ele><time>2026-04-18T13:58:49.002Z</time></trkpt><trkpt lat="43.27171580879698" lon="10.805781794019543"><ele>450.0</ele><time>2026-04-18T13:58:50Z</time></trkpt><trkpt lat="43.27161466881053" lon="10.805796995148736"><ele>450.0</ele><time>2026-04-18T13:58:51Z</time></trkpt><trkpt lat="43.271510382758706" lon="10.80580947110889"><ele>450.2</ele><time>2026-04-18T13:58:52Z</time></trkpt><trkpt lat="43.271403619966016" lon="10.805816391534593"><ele>450.4</ele><time>2026-04-18T13:58:53Z</time></trkpt><trkpt lat="43.27130193321171" lon="10.805821515652765"><ele>450.6</ele><time>2026-04-18T13:58:54Z</time></trkpt><trkpt lat="43.27120198717771" lon="10.805824406176583"><ele>450.8</ele><time>2026-04-18T13:58:55Z</time></trkpt><trkpt lat="43.271104045925824" lon="10.805823916062762"><ele>451.0</ele><time>2026-04-18T13:58:56Z</time></trkpt><trkpt lat="43.27100513591821" lon="10.805826632815254"><ele>451.0</ele><time>2026-04-18T13:58:57Z</time></trkpt><trkpt lat="43.27090521873144" lon="10.805851686071652"><ele>451.0</ele><time>2026-04-18T13:58:58Z</time></trkpt><trkpt lat="43.27079500990645" lon="10.805883151896076"><ele>451.0</ele><time>2026-04-18T13:58:59Z</time></trkpt><trkpt lat="43.270684239384074" lon="10.805902774625247"><ele>451.0</ele><time>2026-04-18T13:59:00Z</time></trkpt><trkpt lat="43.270564510113886" lon="10.805908986806964"><ele>451.0</ele><time>2026-04-18T13:59:01Z</time></trkpt><trkpt lat="43.270454747388776" lon="10.805910154546021"><ele>451.20000000000005</ele><time>2026-04-18T13:59:02Z</time></trkpt><trkpt lat="43.270341878641666" lon="10.80591444719454"><ele>451.40000000000003</ele><time>2026-04-18T13:59:03Z</time></trkpt><trkpt lat="43.2702328617525" lon="10.805926123677319"><ele>451.6</ele><time>2026-04-18T13:59:04Z</time></trkpt><trkpt lat="43.27012442484133" lon="10.805956860667541"><ele>451.8</ele><time>2026-04-18T13:59:05Z</time></trkpt><trkpt lat="43.27002567163394" lon="10.805967223918286"><ele>452.0</ele><time>2026-04-18T13:59:06Z</time></trkpt><trkpt lat="43.2699233542889" lon="10.805981076397753"><ele>452.0</ele><time>2026-04-18T13:59:07Z</time></trkpt><trkpt lat="43.26981982230895" lon="10.805990552540274"><ele>452.00000000000006</ele><time>2026-04-18T13:59:08Z</time></trkpt><trkpt lat="43.269722602742455" lon="10.806005781876232"><ele>452.00000000000006</ele><time>2026-04-18T13:59:09Z</time></trkpt><trkpt lat="43.26962509796324" lon="10.806004768071132"><ele>452.0</ele><time>2026-04-18T13:59:10Z</time></trkpt><trkpt lat="43.26955070801099" lon="10.805976481462988"><ele>452.0</ele><time>2026-04-18T13:59:11Z</time></trkpt><trkpt lat="43.26944489203389" lon="10.805947937048526"><ele>453.0</ele><time>2026-04-18T13:59:12Z</time></trkpt><trkpt lat="43.26936490270585" lon="10.805906261484626"><ele>454.00000000000006</ele><time>2026-04-18T13:59:13Z</time></trkpt><trkpt lat="43.26928353351486" lon="10.80584198015932"><ele>455.00000000000006</ele><time>2026-04-18T13:59:14Z</time></trkpt><trkpt lat="43.26920447748743" lon="10.805770125013806"><ele>456.0</ele><time>2026-04-18T13:59:15Z</time></trkpt><trkpt lat="43.269124494434735" lon="10.805708731426291"><ele>457.0</ele><time>2026-04-18T13:59:16Z</time></trkpt><trkpt lat="43.26904480753237" lon="10.80566617586337"><ele>457.0</ele><time>2026-04-18T13:59:17Z</time></trkpt><trkpt lat="43.268944949849576" lon="10.805625500312825"><ele>457.00000000000006</ele><time>2026-04-18T13:59:18Z</time></trkpt><trkpt lat="43.26885084125463" lon="10.805617477289488"><ele>457.00000000000006</ele><time>2026-04-18T13:59:19Z</time></trkpt><trkpt lat="43.26874842358083" lon="10.805648403223113"><ele>457.0</ele><time>2026-04-18T13:59:20Z</time></trkpt><trkpt lat="43.26865244363925" lon="10.805652572486736"><ele>457.0</ele><time>2026-04-18T13:59:21Z</time></trkpt><trkpt lat="43.26854864866945" lon="10.80568602259103"><ele>457.0</ele><time>2026-04-18T13:59:22Z</time></trkpt><trkpt lat="43.268431921988295" lon="10.805709392561518"><ele>457.00000000000006</ele><time>2026-04-18T13:59:23Z</time></trkpt><trkpt lat="43.268341677877956" lon="10.805708039006673"><ele>457.00000000000006</ele><time>2026-04-18T13:59:24Z</time></trkpt><trkpt lat="43.26824481440531" lon="10.805718410321605"><ele>457.0</ele><time>2026-04-18T13:59:25Z</time></trkpt><trkpt lat="43.268140695153704" lon="10.805715793964133"><ele>457.0</ele><time>2026-04-18T13:59:26Z</time></trkpt><trkpt lat="43.26803684910375" lon="10.80570176533603"><ele>457.20000000000005</ele><time>2026-04-18T13:59:27Z</time></trkpt><trkpt lat="43.26793299360468" lon="10.805672231202765"><ele>457.40000000000003</ele><time>2026-04-18T13:59:28Z</time></trkpt><trkpt lat="43.26782763185427" lon="10.805637991587297"><ele>457.59999999999997</ele><time>2026-04-18T13:59:29.001Z</time></trkpt><trkpt lat="43.26772663309483" lon="10.80559141089523"><ele>457.79999999999995</ele><time>2026-04-18T13:59:30.001Z</time></trkpt><trkpt lat="43.26763123043366" lon="10.805541992047992"><ele>458.0</ele><time>2026-04-18T13:59:31.001Z</time></trkpt><trkpt lat="43.26754325849323" lon="10.80549127648361"><ele>458.0</ele><time>2026-04-18T13:59:32.001Z</time></trkpt><trkpt lat="43.2674567901243" lon="10.8054437479979"><ele>457.99999999999994</ele><time>2026-04-18T13:59:33.001Z</time></trkpt><trkpt lat="43.267376605009765" lon="10.805421968958447"><ele>457.99999999999994</ele><time>2026-04-18T13:59:34.001Z</time></trkpt><trkpt lat="43.26728153416714" lon="10.80536501115039"><ele>458.0</ele><time>2026-04-18T13:59:35.001Z</time></trkpt><trkpt lat="43.2671988013914" lon="10.805325413039562"><ele>458.0</ele><time>2026-04-18T13:59:36.001Z</time></trkpt><trkpt lat="43.26710011704932" lon="10.805307339877201"><ele>457.4</ele><time>2026-04-18T13:59:37.001Z</time></trkpt><trkpt lat="43.26700250832755" lon="10.805283381239336"><ele>456.79999999999995</ele><time>2026-04-18T13:59:38.001Z</time></trkpt><trkpt lat="43.266900112610536" lon="10.805261305173254"><ele>456.2</ele><time>2026-04-18T13:59:39.001Z</time></trkpt><trkpt lat="43.26680515475291" lon="10.805218872626426"><ele>455.6</ele><time>2026-04-18T13:59:40.001Z</time></trkpt><trkpt lat="43.266701071877975" lon="10.805151526440905"><ele>455.0</ele><time>2026-04-18T13:59:41.001Z</time></trkpt><trkpt lat="43.26661275400638" lon="10.805093007771296"><ele>455.0</ele><time>2026-04-18T13:59:42.001Z</time></trkpt><trkpt lat="43.26651549417278" lon="10.80501682754225"><ele>455.0</ele><time>2026-04-18T13:59:43.001Z</time></trkpt><trkpt lat="43.26642411723937" lon="10.804935883128213"><ele>455.0</ele><time>2026-04-18T13:59:44.001Z</time></trkpt><trkpt lat="43.26632741823357" lon="10.804854094639879"><ele>455.0</ele><time>2026-04-18T13:59:45.001Z</time></trkpt><trkpt lat="43.26623208205274" lon="10.80477060082597"><ele>455.0</ele><time>2026-04-18T13:59:46.001Z</time></trkpt><trkpt lat="43.26614847137788" lon="10.804675694629054"><ele>456.0</ele><time>2026-04-18T13:59:47.001Z</time></trkpt><trkpt lat="43.266062377548636" lon="10.80458474286899"><ele>457.0</ele><time>2026-04-18T13:59:48.001Z</time></trkpt><trkpt lat="43.26596288443006" lon="10.80451998997424"><ele>458.0</ele><time>2026-04-18T13:59:49.001Z</time></trkpt><trkpt lat="43.265895738336056" lon="10.804413698684925"><ele>459.0</ele><time>2026-04-18T13:59:50.001Z</time></trkpt><trkpt lat="43.26581227331151" lon="10.804339563172999"><ele>460.0</ele><time>2026-04-18T13:59:51.001Z</time></trkpt><trkpt lat="43.26573158737873" lon="10.804273280643836"><ele>460.0</ele><time>2026-04-18T13:59:52.001Z</time></trkpt><trkpt lat="43.265648608727" lon="10.804210887463238"><ele>460.0</ele><time>2026-04-18T13:59:53.001Z</time></trkpt><trkpt lat="43.26557446845179" lon="10.804158993748684"><ele>460.0</ele><time>2026-04-18T13:59:54.001Z</time></trkpt><trkpt lat="43.265492645266214" lon="10.804092780104536"><ele>460.0</ele><time>2026-04-18T13:59:55.001Z</time></trkpt><trkpt lat="43.26542394166253" lon="10.804012758376869"><ele>460.0</ele><time>2026-04-18T13:59:56.001Z</time></trkpt><trkpt lat="43.26538852792298" lon="10.80389531278782"><ele>462.6</ele><time>2026-04-18T13:59:57.001Z</time></trkpt><trkpt lat="43.26536487980569" lon="10.80377730231879"><ele>465.2</ele><time>2026-04-18T13:59:58.001Z</time></trkpt><trkpt lat="43.26535271707543" lon="10.803674023905225"><ele>467.79999999999995</ele><time>2026-04-18T13:59:59.001Z</time></trkpt><trkpt lat="43.26527060258838" lon="10.803541540004339"><ele>470.4</ele><time>2026-04-18T14:00:01.001Z</time></trkpt><trkpt lat="43.26512332134157" lon="10.803520402059476"><ele>473.0</ele><time>2026-04-18T14:00:03.001Z</time></trkpt><trkpt lat="43.26503931943692" lon="10.803524243939602"><ele>473.0</ele><time>2026-04-18T14:00:04.001Z</time></trkpt><trkpt lat="43.264955866155155" lon="10.803513572458142"><ele>472.99999999999994</ele><time>2026-04-18T14:00:05.001Z</time></trkpt><trkpt lat="43.26485353673189" lon="10.803516958267119"><ele>472.99999999999994</ele><time>2026-04-18T14:00:06.001Z</time></trkpt><trkpt lat="43.26475202066075" lon="10.803516670093737"><ele>473.0</ele><time>2026-04-18T14:00:07.001Z</time></trkpt><trkpt lat="43.26465030598481" lon="10.803515730225607"><ele>473.0</ele><time>2026-04-18T14:00:08.001Z</time></trkpt><trkpt lat="43.264553194618365" lon="10.803526090660197"><ele>474.0</ele><time>2026-04-18T14:00:09.001Z</time></trkpt><trkpt lat="43.264436802397306" lon="10.803547659821275"><ele>474.99999999999994</ele><time>2026-04-18T14:00:10.001Z</time></trkpt><trkpt lat="43.264328049897216" lon="10.803581107369297"><ele>475.99999999999994</ele><time>2026-04-18T14:00:11.001Z</time></trkpt><trkpt lat="43.26424010958169" lon="10.803587675363875"><ele>477.0</ele><time>2026-04-18T14:00:12.001Z</time></trkpt><trkpt lat="43.26414228053406" lon="10.803600158152515"><ele>478.0</ele><time>2026-04-18T14:00:13.001Z</time></trkpt><trkpt lat="43.264053736177026" lon="10.803552341798078"><ele>475.4</ele><time>2026-04-18T14:00:14.001Z</time></trkpt><trkpt lat="43.26397651317053" lon="10.803475287803828"><ele>472.79999999999995</ele><time>2026-04-18T14:00:15.001Z</time></trkpt><trkpt lat="43.26391457710649" lon="10.803377556518772"><ele>470.2</ele><time>2026-04-18T14:00:16.001Z</time></trkpt><trkpt lat="43.26385373116946" lon="10.803296648945736"><ele>467.6</ele><time>2026-04-18T14:00:17.001Z</time></trkpt><trkpt lat="43.26378097355431" lon="10.803219491478467"><ele>465.0</ele><time>2026-04-18T14:00:18.001Z</time></trkpt><trkpt lat="43.2637041881519" lon="10.803150738483042"><ele>465.0</ele><time>2026-04-18T14:00:19.001Z</time></trkpt><trkpt lat="43.263656768776215" lon="10.803056894293785"><ele>465.0</ele><time>2026-04-18T14:00:20.001Z</time></trkpt><trkpt lat="43.26360580592348" lon="10.802947851466108"><ele>465.0</ele><time>2026-04-18T14:00:21.002Z</time></trkpt><trkpt lat="43.26356491741422" lon="10.802829300547424"><ele>465.0</ele><time>2026-04-18T14:00:22.002Z</time></trkpt><trkpt lat="43.263535227581116" lon="10.802693710571132"><ele>465.0</ele><time>2026-04-18T14:00:23.002Z</time></trkpt><trkpt lat="43.26351742887908" lon="10.802549646893361"><ele>465.25</ele><time>2026-04-18T14:00:24.002Z</time></trkpt><trkpt lat="43.263526042522905" lon="10.802401396240656"><ele>465.5</ele><time>2026-04-18T14:00:25.002Z</time></trkpt><trkpt lat="43.263550015701675" lon="10.802254848606859"><ele>465.75</ele><time>2026-04-18T14:00:26.002Z</time></trkpt><trkpt lat="43.263599315330396" lon="10.802107842797913"><ele>466.0</ele><time>2026-04-18T14:00:27.002Z</time></trkpt><trkpt lat="43.2636397486268" lon="10.801955914974048"><ele>466.0</ele><time>2026-04-18T14:00:28.002Z</time></trkpt><trkpt lat="43.263661452410574" lon="10.801804601177574"><ele>466.0</ele><time>2026-04-18T14:00:29.002Z</time></trkpt><trkpt lat="43.2636750054366" lon="10.801681211094836"><ele>466.0</ele><time>2026-04-18T14:00:30.002Z</time></trkpt><trkpt lat="43.26370193588858" lon="10.8015526669004"><ele>466.0</ele><time>2026-04-18T14:00:31.002Z</time></trkpt><trkpt lat="43.263741031878496" lon="10.801428375808406"><ele>466.0</ele><time>2026-04-18T14:00:32.002Z</time></trkpt><trkpt lat="43.263788016037125" lon="10.80132177756587"><ele>466.00000000000006</ele><time>2026-04-18T14:00:33.002Z</time></trkpt><trkpt lat="43.263834132347384" lon="10.801214848581271"><ele>466.0</ele><time>2026-04-18T14:00:34.002Z</time></trkpt><trkpt lat="43.263863125942976" lon="10.801106139335998"><ele>466.0</ele><time>2026-04-18T14:00:35.002Z</time></trkpt><trkpt lat="43.263877046754985" lon="10.800999273919338"><ele>466.0</ele><time>2026-04-18T14:00:36.002Z</time></trkpt><trkpt lat="43.26386607255314" lon="10.800898647943278"><ele>466.00000000000006</ele><time>2026-04-18T14:00:37.002Z</time></trkpt><trkpt lat="43.263836776676946" lon="10.800801975161178"><ele>466.0</ele><time>2026-04-18T14:00:38.002Z</time></trkpt><trkpt lat="43.26378722572357" lon="10.80072733315782"><ele>465.4</ele><time>2026-04-18T14:00:39.002Z</time></trkpt><trkpt lat="43.263720110409956" lon="10.800656450717451"><ele>464.8</ele><time>2026-04-18T14:00:40.002Z</time></trkpt><trkpt lat="43.26364597392984" lon="10.80057894861023"><ele>464.19999999999993</ele><time>2026-04-18T14:00:41.002Z</time></trkpt><trkpt lat="43.2635656927825" lon="10.800523034971707"><ele>463.59999999999997</ele><time>2026-04-18T14:00:42.002Z</time></trkpt><trkpt lat="43.263483708018605" lon="10.80044784804947"><ele>463.0</ele><time>2026-04-18T14:00:43.002Z</time></trkpt><trkpt lat="43.263399417413986" lon="10.800378311035706"><ele>463.0</ele><time>2026-04-18T14:00:44.002Z</time></trkpt><trkpt lat="43.263317746287655" lon="10.800298185167044"><ele>462.99999999999994</ele><time>2026-04-18T14:00:45.002Z</time></trkpt><trkpt lat="43.26323298831845" lon="10.800208440777448"><ele>462.99999999999994</ele><time>2026-04-18T14:00:46.002Z</time></trkpt><trkpt lat="43.26314452885533" lon="10.800114211505417"><ele>463.0</ele><time>2026-04-18T14:00:47.002Z</time></trkpt><trkpt lat="43.26304894584317" lon="10.800017182470384"><ele>463.0</ele><time>2026-04-18T14:00:48.002Z</time></trkpt><trkpt lat="43.262955359396656" lon="10.799916778974325"><ele>464.5</ele><time>2026-04-18T14:00:49.002Z</time></trkpt><trkpt lat="43.26285633511866" lon="10.799817420519146"><ele>466.0</ele><time>2026-04-18T14:00:50.002Z</time></trkpt><trkpt lat="43.2627602173976" lon="10.799721387365556"><ele>467.5</ele><time>2026-04-18T14:00:51.002Z</time></trkpt><trkpt lat="43.26266580074923" lon="10.79962836715515"><ele>469.0</ele><time>2026-04-18T14:00:52.002Z</time></trkpt><trkpt lat="43.26257272254265" lon="10.799552160412617"><ele>469.00000000000006</ele><time>2026-04-18T14:00:53.002Z</time></trkpt><trkpt lat="43.26249361691461" lon="10.799480822058554"><ele>469.0</ele><time>2026-04-18T14:00:54.002Z</time></trkpt><trkpt lat="43.26242488588918" lon="10.7994181663708"><ele>469.0</ele><time>2026-04-18T14:00:55.002Z</time></trkpt><trkpt lat="43.26236601632333" lon="10.7993407318719"><ele>469.0</ele><time>2026-04-18T14:00:56Z</time></trkpt><trkpt lat="43.26231595091502" lon="10.79923879670299"><ele>469.00000000000006</ele><time>2026-04-18T14:00:57Z</time></trkpt><trkpt lat="43.262279378397956" lon="10.799116122124945"><ele>469.0</ele><time>2026-04-18T14:00:58Z</time></trkpt><trkpt lat="43.2622462857463" lon="10.798980340463364"><ele>471.79999999999995</ele><time>2026-04-18T14:00:59Z</time></trkpt><trkpt lat="43.262213288355056" lon="10.798839502542345"><ele>474.59999999999997</ele><time>2026-04-18T14:01:00Z</time></trkpt><trkpt lat="43.26218244990118" lon="10.798677820253536"><ele>477.4</ele><time>2026-04-18T14:01:01Z</time></trkpt><trkpt lat="43.26214724760618" lon="10.798538809424421"><ele>480.2</ele><time>2026-04-18T14:01:02Z</time></trkpt><trkpt lat="43.2621151259248" lon="10.798396824476727"><ele>483.0</ele><time>2026-04-18T14:01:03Z</time></trkpt><trkpt lat="43.26207968935937" lon="10.798246903837741"><ele>483.79999999999995</ele><time>2026-04-18T14:01:04Z</time></trkpt><trkpt lat="43.26201657461778" lon="10.798100456056304"><ele>484.59999999999997</ele><time>2026-04-18T14:01:05Z</time></trkpt><trkpt lat="43.26197586729879" lon="10.79795072746184"><ele>485.40000000000003</ele><time>2026-04-18T14:01:06Z</time></trkpt><trkpt lat="43.26197967761792" lon="10.797827101066236"><ele>486.20000000000005</ele><time>2026-04-18T14:01:07Z</time></trkpt><trkpt lat="43.26194878177398" lon="10.79769405441454"><ele>487.0</ele><time>2026-04-18T14:01:08Z</time></trkpt><trkpt lat="43.26191493181535" lon="10.797561438587847"><ele>487.0</ele><time>2026-04-18T14:01:09Z</time></trkpt><trkpt lat="43.261878574347406" lon="10.797430763064682"><ele>487.00000000000006</ele><time>2026-04-18T14:01:10Z</time></trkpt><trkpt lat="43.26181053135668" lon="10.797288045928099"><ele>487.00000000000006</ele><time>2026-04-18T14:01:11Z</time></trkpt><trkpt lat="43.26178189080843" lon="10.797158155179867"><ele>487.0</ele><time>2026-04-18T14:01:12Z</time></trkpt><trkpt lat="43.261759193677776" lon="10.797028709329457"><ele>487.0</ele><time>2026-04-18T14:01:13Z</time></trkpt><trkpt lat="43.26174179464789" lon="10.796894959024796"><ele>485.6</ele><time>2026-04-18T14:01:14Z</time></trkpt><trkpt lat="43.261719995522114" lon="10.796800951495085"><ele>484.20000000000005</ele><time>2026-04-18T14:01:15Z</time></trkpt><trkpt lat="43.26169316356126" lon="10.796706053531866"><ele>482.8</ele><time>2026-04-18T14:01:16Z</time></trkpt><trkpt lat="43.261627830080315" lon="10.796550389448646"><ele>481.4</ele><time>2026-04-18T14:01:17Z</time></trkpt><trkpt lat="43.261586848005855" lon="10.796431628266356"><ele>480.0</ele><time>2026-04-18T14:01:18Z</time></trkpt><trkpt lat="43.26155348084633" lon="10.7963088790773"><ele>480.0</ele><time>2026-04-18T14:01:19Z</time></trkpt><trkpt lat="43.26151714678829" lon="10.796197060492545"><ele>480.0</ele><time>2026-04-18T14:01:20Z</time></trkpt><trkpt lat="43.261482376858424" lon="10.796068413410833"><ele>480.0</ele><time>2026-04-18T14:01:21Z</time></trkpt><trkpt lat="43.26141995524245" lon="10.795900418632565"><ele>480.0</ele><time>2026-04-18T14:01:22Z</time></trkpt><trkpt lat="43.26138608066362" lon="10.795768455215457"><ele>480.0</ele><time>2026-04-18T14:01:23Z</time></trkpt><trkpt lat="43.26133250076546" lon="10.79564486538611"><ele>479.4</ele><time>2026-04-18T14:01:24Z</time></trkpt><trkpt lat="43.26128506203419" lon="10.795511844190555"><ele>478.8</ele><time>2026-04-18T14:01:25Z</time></trkpt><trkpt lat="43.261230125938795" lon="10.795379514078848"><ele>478.20000000000005</ele><time>2026-04-18T14:01:26Z</time></trkpt><trkpt lat="43.261165370301114" lon="10.79525590991134"><ele>477.6</ele><time>2026-04-18T14:01:27Z</time></trkpt><trkpt lat="43.26109775859221" lon="10.79513174835815"><ele>477.0</ele><time>2026-04-18T14:01:28Z</time></trkpt><trkpt lat="43.26103151286308" lon="10.794997435002099"><ele>475.0</ele><time>2026-04-18T14:01:29Z</time></trkpt><trkpt lat="43.260955867979085" lon="10.794862119329464"><ele>473.0</ele><time>2026-04-18T14:01:30Z</time></trkpt><trkpt lat="43.26088603488887" lon="10.794726260532457"><ele>471.0</ele><time>2026-04-18T14:01:31Z</time></trkpt><trkpt lat="43.26081620561446" lon="10.79458902960811"><ele>469.0</ele><time>2026-04-18T14:01:32Z</time></trkpt><trkpt lat="43.26074662509691" lon="10.794450143533938"><ele>467.5</ele><time>2026-04-18T14:01:33Z</time></trkpt><trkpt lat="43.260674764057896" lon="10.794313360050495"><ele>466.0</ele><time>2026-04-18T14:01:34.001Z</time></trkpt><trkpt lat="43.260600441556825" lon="10.79418558819379"><ele>464.5</ele><time>2026-04-18T14:01:35.001Z</time></trkpt><trkpt lat="43.26053532420208" lon="10.794049707068991"><ele>463.0</ele><time>2026-04-18T14:01:36.001Z</time></trkpt><trkpt lat="43.26048324101854" lon="10.793903904925156"><ele>462.0</ele><time>2026-04-18T14:01:37.001Z</time></trkpt><trkpt lat="43.260443369545875" lon="10.793752616098292"><ele>461.0</ele><time>2026-04-18T14:01:38.001Z</time></trkpt><trkpt lat="43.26041098115542" lon="10.793596450012458"><ele>460.0</ele><time>2026-04-18T14:01:39.001Z</time></trkpt><trkpt lat="43.26037709017815" lon="10.793437772805467"><ele>459.0</ele><time>2026-04-18T14:01:40.001Z</time></trkpt><trkpt lat="43.260333269273794" lon="10.793291429563178"><ele>459.0</ele><time>2026-04-18T14:01:41.001Z</time></trkpt><trkpt lat="43.260277262279" lon="10.793140694637033"><ele>459.0</ele><time>2026-04-18T14:01:42.001Z</time></trkpt><trkpt lat="43.260215670720854" lon="10.792996847606588"><ele>459.0</ele><time>2026-04-18T14:01:43.001Z</time></trkpt><trkpt lat="43.26015458028043" lon="10.792850009411904"><ele>459.0</ele><time>2026-04-18T14:01:44.001Z</time></trkpt><trkpt lat="43.26008707616003" lon="10.792713275690456"><ele>459.75</ele><time>2026-04-18T14:01:45.001Z</time></trkpt><trkpt lat="43.26002222576171" lon="10.792582608320474"><ele>460.5</ele><time>2026-04-18T14:01:46.001Z</time></trkpt><trkpt lat="43.25995406544174" lon="10.792446622595701"><ele>461.25</ele><time>2026-04-18T14:01:47.001Z</time></trkpt><trkpt lat="43.25987800904513" lon="10.792309835689803"><ele>462.0</ele><time>2026-04-18T14:01:48.001Z</time></trkpt><trkpt lat="43.25979752130907" lon="10.792169280134605"><ele>461.0</ele><time>2026-04-18T14:01:49.001Z</time></trkpt><trkpt lat="43.25971812009985" lon="10.792033724872908"><ele>460.0</ele><time>2026-04-18T14:01:50.001Z</time></trkpt><trkpt lat="43.25963674179188" lon="10.791898836635772"><ele>459.0</ele><time>2026-04-18T14:01:51.001Z</time></trkpt><trkpt lat="43.25954791396833" lon="10.791768250875162"><ele>458.0</ele><time>2026-04-18T14:01:52.001Z</time></trkpt><trkpt lat="43.25945201810302" lon="10.791636370751817"><ele>458.0</ele><time>2026-04-18T14:01:53.001Z</time></trkpt><trkpt lat="43.25936362068179" lon="10.791501442051043"><ele>458.0</ele><time>2026-04-18T14:01:54.001Z</time></trkpt><trkpt lat="43.259280954922914" lon="10.791359504527602"><ele>458.0</ele><time>2026-04-18T14:01:55.001Z</time></trkpt><trkpt lat="43.25920965072606" lon="10.791217963426789"><ele>458.0</ele><time>2026-04-18T14:01:56.001Z</time></trkpt><trkpt lat="43.25913618273859" lon="10.791077126907512"><ele>458.0</ele><time>2026-04-18T14:01:57.001Z</time></trkpt><trkpt lat="43.25907283276269" lon="10.790935238146536"><ele>458.0</ele><time>2026-04-18T14:01:58.001Z</time></trkpt><trkpt lat="43.25901258415651" lon="10.790794734916325"><ele>458.0</ele><time>2026-04-18T14:01:59.001Z</time></trkpt><trkpt lat="43.25895314523608" lon="10.790654332463346"><ele>458.0</ele><time>2026-04-18T14:02:00.001Z</time></trkpt><trkpt lat="43.25889287926804" lon="10.790517274475473"><ele>457.79999999999995</ele><time>2026-04-18T14:02:01.001Z</time></trkpt><trkpt lat="43.258838896926065" lon="10.790388218769937"><ele>457.59999999999997</ele><time>2026-04-18T14:02:02.001Z</time></trkpt><trkpt lat="43.258782804269515" lon="10.790254707438296"><ele>457.40000000000003</ele><time>2026-04-18T14:02:03.001Z</time></trkpt><trkpt lat="43.25872846861273" lon="10.790119710750476"><ele>457.20000000000005</ele><time>2026-04-18T14:02:04.001Z</time></trkpt><trkpt lat="43.258674130723975" lon="10.789990117539007"><ele>457.0</ele><time>2026-04-18T14:02:05.001Z</time></trkpt><trkpt lat="43.258620033257685" lon="10.78985536822211"><ele>457.0</ele><time>2026-04-18T14:02:06.001Z</time></trkpt><trkpt lat="43.258581852635025" lon="10.78971415127659"><ele>457.00000000000006</ele><time>2026-04-18T14:02:07.001Z</time></trkpt><trkpt lat="43.258555854214315" lon="10.789568503460751"><ele>457.00000000000006</ele><time>2026-04-18T14:02:08.001Z</time></trkpt><trkpt lat="43.25852349070299" lon="10.7894233654109"><ele>457.0</ele><time>2026-04-18T14:02:09.001Z</time></trkpt><trkpt lat="43.258488160736846" lon="10.789281093980517"><ele>457.0</ele><time>2026-04-18T14:02:10.001Z</time></trkpt><trkpt lat="43.25845061926139" lon="10.789131087942152"><ele>456.6</ele><time>2026-04-18T14:02:11.001Z</time></trkpt><trkpt lat="43.25842584891547" lon="10.788978776038354"><ele>456.20000000000005</ele><time>2026-04-18T14:02:12.001Z</time></trkpt><trkpt lat="43.25840886986445" lon="10.788825247696739"><ele>455.8</ele><time>2026-04-18T14:02:13.001Z</time></trkpt><trkpt lat="43.25839657814826" lon="10.788675962098017"><ele>455.4</ele><time>2026-04-18T14:02:14.001Z</time></trkpt><trkpt lat="43.258388814978524" lon="10.788525856714774"><ele>455.0</ele><time>2026-04-18T14:02:15.001Z</time></trkpt><trkpt lat="43.25838382875905" lon="10.788379713178442"><ele>455.0</ele><time>2026-04-18T14:02:16.001Z</time></trkpt><trkpt lat="43.25837720096247" lon="10.788231184685365"><ele>455.0</ele><time>2026-04-18T14:02:17.001Z</time></trkpt><trkpt lat="43.2583775083974" lon="10.788086196348488"><ele>455.0</ele><time>2026-04-18T14:02:18.001Z</time></trkpt><trkpt lat="43.258377267933916" lon="10.787937607726233"><ele>455.0</ele><time>2026-04-18T14:02:19.001Z</time></trkpt><trkpt lat="43.25837364712109" lon="10.787791879088184"><ele>455.0</ele><time>2026-04-18T14:02:20.001Z</time></trkpt><trkpt lat="43.25837661619877" lon="10.78766165923111"><ele>455.3333333333333</ele><time>2026-04-18T14:02:21.001Z</time></trkpt><trkpt lat="43.25836949862772" lon="10.787543500110031"><ele>455.66666666666663</ele><time>2026-04-18T14:02:22.001Z</time></trkpt><trkpt lat="43.25835030670097" lon="10.78743385107223"><ele>456.0</ele><time>2026-04-18T14:02:23.001Z</time></trkpt><trkpt lat="43.25831029563394" lon="10.78733064175593"><ele>456.33333333333337</ele><time>2026-04-18T14:02:24.001Z</time></trkpt><trkpt lat="43.25824634614927" lon="10.78725632141753"><ele>456.6666666666667</ele><time>2026-04-18T14:02:25.001Z</time></trkpt><trkpt lat="43.2581714545661" lon="10.787196493109011"><ele>457.0</ele><time>2026-04-18T14:02:26.002Z</time></trkpt><trkpt lat="43.25809718064278" lon="10.787139819480947"><ele>455.20000000000005</ele><time>2026-04-18T14:02:27.002Z</time></trkpt><trkpt lat="43.25801516037135" lon="10.787073549256744"><ele>453.40000000000003</ele><time>2026-04-18T14:02:28.002Z</time></trkpt><trkpt lat="43.25793214850727" lon="10.786993401291426"><ele>451.59999999999997</ele><time>2026-04-18T14:02:29.002Z</time></trkpt><trkpt lat="43.257848267217675" lon="10.786918282816277"><ele>449.79999999999995</ele><time>2026-04-18T14:02:30.002Z</time></trkpt><trkpt lat="43.257763300568875" lon="10.786838661321747"><ele>448.0</ele><time>2026-04-18T14:02:31.002Z</time></trkpt><trkpt lat="43.2576831559348" lon="10.786754248160175"><ele>448.0</ele><time>2026-04-18T14:02:32.002Z</time></trkpt><trkpt lat="43.25760079215928" lon="10.786666713810181"><ele>447.99999999999994</ele><time>2026-04-18T14:02:33.002Z</time></trkpt><trkpt lat="43.2575232097432" lon="10.786569998754976"><ele>447.99999999999994</ele><time>2026-04-18T14:02:34.002Z</time></trkpt><trkpt lat="43.257445362003025" lon="10.786470085096848"><ele>448.0</ele><time>2026-04-18T14:02:35.002Z</time></trkpt><trkpt lat="43.25736862929059" lon="10.786376301707431"><ele>448.0</ele><time>2026-04-18T14:02:36.002Z</time></trkpt><trkpt lat="43.25729108980242" lon="10.786281627403838"><ele>445.59999999999997</ele><time>2026-04-18T14:02:37.002Z</time></trkpt><trkpt lat="43.257223015246666" lon="10.786178336596231"><ele>443.19999999999993</ele><time>2026-04-18T14:02:38.002Z</time></trkpt><trkpt lat="43.257168519220514" lon="10.786079483502922"><ele>440.8</ele><time>2026-04-18T14:02:39.002Z</time></trkpt><trkpt lat="43.25713748905852" lon="10.785970897696282"><ele>438.4</ele><time>2026-04-18T14:02:40.002Z</time></trkpt><trkpt lat="43.257125817284766" lon="10.785856137074612"><ele>436.0</ele><time>2026-04-18T14:02:41.002Z</time></trkpt><trkpt lat="43.257136065233" lon="10.78573032729416"><ele>436.00000000000006</ele><time>2026-04-18T14:02:42.002Z</time></trkpt><trkpt lat="43.25715833881064" lon="10.78560641398244"><ele>436.0</ele><time>2026-04-18T14:02:43.002Z</time></trkpt><trkpt lat="43.25717074817377" lon="10.78547937113828"><ele>436.0</ele><time>2026-04-18T14:02:44.002Z</time></trkpt><trkpt lat="43.25716607326997" lon="10.785358790161059"><ele>436.0</ele><time>2026-04-18T14:02:45.002Z</time></trkpt><trkpt lat="43.25714116115037" lon="10.785250424508641"><ele>436.00000000000006</ele><time>2026-04-18T14:02:46.002Z</time></trkpt><trkpt lat="43.2570967571692" lon="10.785146914155264"><ele>436.0</ele><time>2026-04-18T14:02:47.002Z</time></trkpt><trkpt lat="43.25704119379929" lon="10.785051997476408"><ele>436.6666666666667</ele><time>2026-04-18T14:02:48.002Z</time></trkpt><trkpt lat="43.25698300503992" lon="10.784959203017685"><ele>437.33333333333337</ele><time>2026-04-18T14:02:49.002Z</time></trkpt><trkpt lat="43.25693417427309" lon="10.784873598205833"><ele>438.0</ele><time>2026-04-18T14:02:50.002Z</time></trkpt><trkpt lat="43.25689503592533" lon="10.784784657173487"><ele>438.66666666666663</ele><time>2026-04-18T14:02:51.002Z</time></trkpt><trkpt lat="43.25686983949156" lon="10.784679220516272"><ele>439.3333333333333</ele><time>2026-04-18T14:02:52.002Z</time></trkpt><trkpt lat="43.2568519786546" lon="10.784560332840949"><ele>440.0</ele><time>2026-04-18T14:02:53.002Z</time></trkpt><trkpt lat="43.25682971234531" lon="10.784430533223135"><ele>440.8</ele><time>2026-04-18T14:02:54.002Z</time></trkpt><trkpt lat="43.25680947428998" lon="10.784292607649144"><ele>441.6</ele><time>2026-04-18T14:02:55.002Z</time></trkpt><trkpt lat="43.25678333135131" lon="10.784151410074749"><ele>442.4</ele><time>2026-04-18T14:02:56.002Z</time></trkpt><trkpt lat="43.25675308109724" lon="10.78401044680603"><ele>443.2</ele><time>2026-04-18T14:02:57.002Z</time></trkpt><trkpt lat="43.2567271812672" lon="10.783875677462982"><ele>444.0</ele><time>2026-04-18T14:02:58.002Z</time></trkpt><trkpt lat="43.25671633918949" lon="10.783735840559785"><ele>444.0</ele><time>2026-04-18T14:02:59.002Z</time></trkpt><trkpt lat="43.25671064619395" lon="10.783594593830289"><ele>444.0</ele><time>2026-04-18T14:03:00.002Z</time></trkpt><trkpt lat="43.256705938929485" lon="10.7834689345256"><ele>444.0</ele><time>2026-04-18T14:03:01.002Z</time></trkpt><trkpt lat="43.25668488772487" lon="10.783355836881475"><ele>444.0</ele><time>2026-04-18T14:03:02Z</time></trkpt><trkpt lat="43.25664661053481" lon="10.783255484488237"><ele>444.0</ele><time>2026-04-18T14:03:03Z</time></trkpt><trkpt lat="43.25660068963067" lon="10.783170288438972"><ele>444.0</ele><time>2026-04-18T14:03:04Z</time></trkpt><trkpt lat="43.25654022242769" lon="10.783120173813597"><ele>444.8333333333333</ele><time>2026-04-18T14:03:05Z</time></trkpt><trkpt lat="43.256469206792396" lon="10.78309417376038"><ele>445.66666666666663</ele><time>2026-04-18T14:03:06Z</time></trkpt><trkpt lat="43.25639775363516" lon="10.78308129357796"><ele>446.5</ele><time>2026-04-18T14:03:07Z</time></trkpt><trkpt lat="43.25631509067137" lon="10.78306775058674"><ele>447.3333333333333</ele><time>2026-04-18T14:03:08Z</time></trkpt><trkpt lat="43.256232754852896" lon="10.783074832884296"><ele>448.16666666666663</ele><time>2026-04-18T14:03:09Z</time></trkpt><trkpt lat="43.256145478615736" lon="10.783083513880102"><ele>449.0</ele><time>2026-04-18T14:03:10Z</time></trkpt><trkpt lat="43.2560509977303" lon="10.783092197873273"><ele>449.3333333333333</ele><time>2026-04-18T14:03:11Z</time></trkpt><trkpt lat="43.25595540559908" lon="10.78309403336446"><ele>449.66666666666663</ele><time>2026-04-18T14:03:12Z</time></trkpt><trkpt lat="43.255865559914376" lon="10.783084809078012"><ele>450.0</ele><time>2026-04-18T14:03:13Z</time></trkpt><trkpt lat="43.255789661403725" lon="10.783036730350439"><ele>450.33333333333337</ele><time>2026-04-18T14:03:14Z</time></trkpt><trkpt lat="43.255717032680366" lon="10.782968348008385"><ele>450.6666666666667</ele><time>2026-04-18T14:03:15Z</time></trkpt><trkpt lat="43.25565480924552" lon="10.78288238679412"><ele>451.0</ele><time>2026-04-18T14:03:16Z</time></trkpt><trkpt lat="43.255601371658024" lon="10.782782311921288"><ele>451.00000000000006</ele><time>2026-04-18T14:03:17Z</time></trkpt><trkpt lat="43.25554024296765" lon="10.782682684185971"><ele>451.0</ele><time>2026-04-18T14:03:18Z</time></trkpt><trkpt lat="43.25547167591831" lon="10.782588675353795"><ele>451.0</ele><time>2026-04-18T14:03:19Z</time></trkpt><trkpt lat="43.25540682263162" lon="10.782523485501994"><ele>451.0</ele><time>2026-04-18T14:03:20Z</time></trkpt><trkpt lat="43.25534831495911" lon="10.782447050800817"><ele>451.00000000000006</ele><time>2026-04-18T14:03:21Z</time></trkpt><trkpt lat="43.25531408388943" lon="10.78235344625351"><ele>451.0</ele><time>2026-04-18T14:03:22Z</time></trkpt><trkpt lat="43.25530138826112" lon="10.782234103528918"><ele>451.00000000000006</ele><time>2026-04-18T14:03:23Z</time></trkpt><trkpt lat="43.25531308764268" lon="10.782141739527457"><ele>451.0</ele><time>2026-04-18T14:03:24Z</time></trkpt><trkpt lat="43.25531851453567" lon="10.782034716987846"><ele>451.0</ele><time>2026-04-18T14:03:25Z</time></trkpt><trkpt lat="43.255307632161106" lon="10.781924068026655"><ele>451.0</ele><time>2026-04-18T14:03:26Z</time></trkpt><trkpt lat="43.255271195446774" lon="10.781806207893927"><ele>451.00000000000006</ele><time>2026-04-18T14:03:27Z</time></trkpt><trkpt lat="43.25523133391515" lon="10.781697002032825"><ele>451.0</ele><time>2026-04-18T14:03:28Z</time></trkpt><trkpt lat="43.25518100354524" lon="10.781595682562154"><ele>453.4</ele><time>2026-04-18T14:03:29Z</time></trkpt><trkpt lat="43.2551253354676" lon="10.781498215328646"><ele>455.8</ele><time>2026-04-18T14:03:30Z</time></trkpt><trkpt lat="43.255067941280345" lon="10.78140745385"><ele>458.19999999999993</ele><time>2026-04-18T14:03:31Z</time></trkpt><trkpt lat="43.25499136184628" lon="10.781317354589639"><ele>460.59999999999997</ele><time>2026-04-18T14:03:32Z</time></trkpt><trkpt lat="43.254915999475955" lon="10.781232944731805"><ele>463.0</ele><time>2026-04-18T14:03:33Z</time></trkpt><trkpt lat="43.254842180567486" lon="10.781157883361507"><ele>462.1666666666667</ele><time>2026-04-18T14:03:34Z</time></trkpt><trkpt lat="43.25476725181309" lon="10.78110826140309"><ele>461.33333333333337</ele><time>2026-04-18T14:03:35Z</time></trkpt><trkpt lat="43.25468452919377" lon="10.781090808831086"><ele>460.5</ele><time>2026-04-18T14:03:36Z</time></trkpt><trkpt lat="43.25460405043854" lon="10.781104281434606"><ele>459.66666666666663</ele><time>2026-04-18T14:03:37.001Z</time></trkpt><trkpt lat="43.254531457616096" lon="10.781146704458711"><ele>458.8333333333333</ele><time>2026-04-18T14:03:38.001Z</time></trkpt><trkpt lat="43.25445563645127" lon="10.781203229486541"><ele>458.0</ele><time>2026-04-18T14:03:39.001Z</time></trkpt><trkpt lat="43.25437434842522" lon="10.781262485952213"><ele>457.99999999999994</ele><time>2026-04-18T14:03:40.001Z</time></trkpt><trkpt lat="43.25429539909549" lon="10.781285573993879"><ele>458.0</ele><time>2026-04-18T14:03:41.001Z</time></trkpt><trkpt lat="43.254212564547935" lon="10.78128490688694"><ele>458.0</ele><time>2026-04-18T14:03:42.001Z</time></trkpt><trkpt lat="43.25412659406463" lon="10.781257386299242"><ele>458.0</ele><time>2026-04-18T14:03:43.001Z</time></trkpt><trkpt lat="43.25404840494858" lon="10.781197781162144"><ele>457.99999999999994</ele><time>2026-04-18T14:03:44.001Z</time></trkpt><trkpt lat="43.253971693019146" lon="10.78111982668389"><ele>458.0</ele><time>2026-04-18T14:03:45.001Z</time></trkpt><trkpt lat="43.253889650870356" lon="10.781050661935348"><ele>458.79999999999995</ele><time>2026-04-18T14:03:46.001Z</time></trkpt><trkpt lat="43.25381118642133" lon="10.780964477241342"><ele>459.59999999999997</ele><time>2026-04-18T14:03:47.001Z</time></trkpt><trkpt lat="43.253730302220774" lon="10.780883631931902"><ele>460.40000000000003</ele><time>2026-04-18T14:03:48.001Z</time></trkpt><trkpt lat="43.253659683068754" lon="10.780802284797117"><ele>461.20000000000005</ele><time>2026-04-18T14:03:49.001Z</time></trkpt><trkpt lat="43.25359958471803" lon="10.780707634171772"><ele>462.0</ele><time>2026-04-18T14:03:50.001Z</time></trkpt><trkpt lat="43.2535600952492" lon="10.780595403069494"><ele>462.0</ele><time>2026-04-18T14:03:51.001Z</time></trkpt><trkpt lat="43.25353256366535" lon="10.780463632162727"><ele>462.00000000000006</ele><time>2026-04-18T14:03:52.001Z</time></trkpt><trkpt lat="43.253497272933195" lon="10.780333237683626"><ele>462.00000000000006</ele><time>2026-04-18T14:03:53.001Z</time></trkpt><trkpt lat="43.25344206584393" lon="10.78020419312445"><ele>462.0</ele><time>2026-04-18T14:03:54.001Z</time></trkpt><trkpt lat="43.25337797431275" lon="10.780086422510509"><ele>462.0</ele><time>2026-04-18T14:03:55.001Z</time></trkpt><trkpt lat="43.25330261497735" lon="10.77998139257372"><ele>461.5</ele><time>2026-04-18T14:03:56.001Z</time></trkpt><trkpt lat="43.25321829047806" lon="10.779878034793652"><ele>461.0</ele><time>2026-04-18T14:03:57.001Z</time></trkpt><trkpt lat="43.25312515397872" lon="10.779775929720557"><ele>460.5</ele><time>2026-04-18T14:03:58.001Z</time></trkpt><trkpt lat="43.25303672798191" lon="10.779676425902881"><ele>460.0</ele><time>2026-04-18T14:03:59.001Z</time></trkpt><trkpt lat="43.25294372665659" lon="10.77956742291246"><ele>460.0</ele><time>2026-04-18T14:04:00.001Z</time></trkpt><trkpt lat="43.25284751675272" lon="10.779466681083964"><ele>460.0</ele><time>2026-04-18T14:04:01.001Z</time></trkpt><trkpt lat="43.25275444616004" lon="10.779372089456372"><ele>460.0</ele><time>2026-04-18T14:04:02.001Z</time></trkpt><trkpt lat="43.2526564204119" lon="10.779293493539216"><ele>460.0</ele><time>2026-04-18T14:04:03.001Z</time></trkpt><trkpt lat="43.25255827572446" lon="10.779219179966251"><ele>461.5</ele><time>2026-04-18T14:04:04.001Z</time></trkpt><trkpt lat="43.25246116688686" lon="10.779146642278869"><ele>463.0</ele><time>2026-04-18T14:04:05.001Z</time></trkpt><trkpt lat="43.25236585570213" lon="10.779056569882854"><ele>464.5</ele><time>2026-04-18T14:04:06.001Z</time></trkpt><trkpt lat="43.25226570261572" lon="10.778965750186943"><ele>466.0</ele><time>2026-04-18T14:04:07.001Z</time></trkpt><trkpt lat="43.25215942797547" lon="10.77887370546979"><ele>466.0</ele><time>2026-04-18T14:04:08.001Z</time></trkpt><trkpt lat="43.252053919073326" lon="10.778786854637847"><ele>466.0</ele><time>2026-04-18T14:04:09.001Z</time></trkpt><trkpt lat="43.25193996435958" lon="10.778696175817412"><ele>466.0</ele><time>2026-04-18T14:04:10.001Z</time></trkpt><trkpt lat="43.25182046042259" lon="10.778605655640469"><ele>466.0</ele><time>2026-04-18T14:04:11.001Z</time></trkpt><trkpt lat="43.25169897110973" lon="10.778515184157634"><ele>467.0</ele><time>2026-04-18T14:04:12.001Z</time></trkpt><trkpt lat="43.25158113892816" lon="10.778426489097567"><ele>468.0</ele><time>2026-04-18T14:04:13.001Z</time></trkpt><trkpt lat="43.25146209034125" lon="10.778343378075025"><ele>469.0</ele><time>2026-04-18T14:04:14.001Z</time></trkpt><trkpt lat="43.25134720668808" lon="10.778264773991348"><ele>470.0</ele><time>2026-04-18T14:04:15.001Z</time></trkpt><trkpt lat="43.25123537566909" lon="10.7781932318177"><ele>470.4</ele><time>2026-04-18T14:04:16.001Z</time></trkpt><trkpt lat="43.251128616353625" lon="10.778125355666118"><ele>470.8</ele><time>2026-04-18T14:04:17.001Z</time></trkpt><trkpt lat="43.25103329610608" lon="10.77807024143686"><ele>471.20000000000005</ele><time>2026-04-18T14:04:18.001Z</time></trkpt><trkpt lat="43.25095194528934" lon="10.778021882829748"><ele>471.6</ele><time>2026-04-18T14:04:19.001Z</time></trkpt><trkpt lat="43.25087604205774" lon="10.77798519855181"><ele>472.0</ele><time>2026-04-18T14:04:20.001Z</time></trkpt><trkpt lat="43.25081228446513" lon="10.777971338957949"><ele>472.0</ele><time>2026-04-18T14:04:21.001Z</time></trkpt><trkpt lat="43.25074312742912" lon="10.777990365317418"><ele>472.00000000000006</ele><time>2026-04-18T14:04:22.001Z</time></trkpt><trkpt lat="43.250664576668285" lon="10.77803289844762"><ele>472.00000000000006</ele><time>2026-04-18T14:04:23.001Z</time></trkpt><trkpt lat="43.25057317891207" lon="10.778066526398767"><ele>472.0</ele><time>2026-04-18T14:04:24.001Z</time></trkpt><trkpt lat="43.25047639312812" lon="10.778158714219874"><ele>472.0</ele><time>2026-04-18T14:04:25.001Z</time></trkpt><trkpt lat="43.25037366437765" lon="10.778150298348645"><ele>472.6666666666667</ele><time>2026-04-18T14:04:26.001Z</time></trkpt><trkpt lat="43.25027507377692" lon="10.778142440039364"><ele>473.33333333333337</ele><time>2026-04-18T14:04:27.001Z</time></trkpt><trkpt lat="43.250178812512345" lon="10.778117393974325"><ele>474.0</ele><time>2026-04-18T14:04:28.001Z</time></trkpt><trkpt lat="43.25008922509653" lon="10.77809534376079"><ele>474.66666666666663</ele><time>2026-04-18T14:04:29.001Z</time></trkpt><trkpt lat="43.25001378461627" lon="10.77810899593842"><ele>475.3333333333333</ele><time>2026-04-18T14:04:30.001Z</time></trkpt><trkpt lat="43.249942481855115" lon="10.778118061982104"><ele>476.0</ele><time>2026-04-18T14:04:31.001Z</time></trkpt><trkpt lat="43.24986561441426" lon="10.778109458027211"><ele>475.99999999999994</ele><time>2026-04-18T14:04:32.002Z</time></trkpt><trkpt lat="43.249813261630074" lon="10.778058959088812"><ele>476.0</ele><time>2026-04-18T14:04:33.002Z</time></trkpt><trkpt lat="43.24976247086807" lon="10.777999816580214"><ele>476.0</ele><time>2026-04-18T14:04:34.002Z</time></trkpt><trkpt lat="43.24971559743575" lon="10.777938659956146"><ele>476.0</ele><time>2026-04-18T14:04:35.002Z</time></trkpt><trkpt lat="43.24967442677703" lon="10.777867327776566"><ele>475.99999999999994</ele><time>2026-04-18T14:04:36.002Z</time></trkpt><trkpt lat="43.24962446710914" lon="10.777801025821702"><ele>476.0</ele><time>2026-04-18T14:04:37.002Z</time></trkpt><trkpt lat="43.24952153332867" lon="10.77769042657775"><ele>479.66666666666663</ele><time>2026-04-18T14:04:39.002Z</time></trkpt><trkpt lat="43.24946745256962" lon="10.777635951758912"><ele>483.3333333333333</ele><time>2026-04-18T14:04:40.002Z</time></trkpt><trkpt lat="43.24942151023635" lon="10.77756765208329"><ele>487.0</ele><time>2026-04-18T14:04:41.002Z</time></trkpt><trkpt lat="43.2493614392853" lon="10.777498870356707"><ele>490.66666666666663</ele><time>2026-04-18T14:04:42.002Z</time></trkpt><trkpt lat="43.24930022228127" lon="10.777428778001807"><ele>494.3333333333333</ele><time>2026-04-18T14:04:43.002Z</time></trkpt><trkpt lat="43.2492400597029" lon="10.777336272185355"><ele>498.0</ele><time>2026-04-18T14:04:44.002Z</time></trkpt><trkpt lat="43.24919276156287" lon="10.777242843304263"><ele>498.0</ele><time>2026-04-18T14:04:45.002Z</time></trkpt><trkpt lat="43.24915275002911" lon="10.77713529209533"><ele>498.0</ele><time>2026-04-18T14:04:46.002Z</time></trkpt><trkpt lat="43.249130428067325" lon="10.777015076399627"><ele>498.0</ele><time>2026-04-18T14:04:47.002Z</time></trkpt><trkpt lat="43.24911612080524" lon="10.77689962009197"><ele>498.0</ele><time>2026-04-18T14:04:48.002Z</time></trkpt><trkpt lat="43.24910822581102" lon="10.776783726681364"><ele>498.0</ele><time>2026-04-18T14:04:49.002Z</time></trkpt><trkpt lat="43.249088591019046" lon="10.776673325144824"><ele>498.0</ele><time>2026-04-18T14:04:50.002Z</time></trkpt><trkpt lat="43.249051793591605" lon="10.776584251181147"><ele>497.1666666666667</ele><time>2026-04-18T14:04:51.002Z</time></trkpt><trkpt lat="43.24899898336105" lon="10.776505801812085"><ele>496.33333333333337</ele><time>2026-04-18T14:04:52.002Z</time></trkpt><trkpt lat="43.248928635147266" lon="10.776444756545722"><ele>495.5</ele><time>2026-04-18T14:04:53.002Z</time></trkpt><trkpt lat="43.248853995859285" lon="10.776384707945594"><ele>494.6666666666667</ele><time>2026-04-18T14:04:54.002Z</time></trkpt><trkpt lat="43.24878535348523" lon="10.776322447491808"><ele>493.83333333333337</ele><time>2026-04-18T14:04:55.002Z</time></trkpt><trkpt lat="43.24872563167175" lon="10.776241993359541"><ele>493.0</ele><time>2026-04-18T14:04:56.002Z</time></trkpt><trkpt lat="43.248674289772865" lon="10.776155451575802"><ele>495.0</ele><time>2026-04-18T14:04:57.002Z</time></trkpt><trkpt lat="43.248633989769026" lon="10.776044835358768"><ele>496.99999999999994</ele><time>2026-04-18T14:04:58.002Z</time></trkpt><trkpt lat="43.24862890966223" lon="10.775927090508143"><ele>498.99999999999994</ele><time>2026-04-18T14:04:59.002Z</time></trkpt><trkpt lat="43.24860026605607" lon="10.775844379894298"><ele>501.0</ele><time>2026-04-18T14:05:00.002Z</time></trkpt><trkpt lat="43.24854221534054" lon="10.7757786817904"><ele>503.0</ele><time>2026-04-18T14:05:01.002Z</time></trkpt><trkpt lat="43.248393927349575" lon="10.775744436075621"><ele>502.99999999999994</ele><time>2026-04-18T14:05:03.002Z</time></trkpt><trkpt lat="43.24831662250023" lon="10.775780446845735"><ele>503.0</ele><time>2026-04-18T14:05:04.002Z</time></trkpt><trkpt lat="43.248256503912295" lon="10.775860335366243"><ele>503.0</ele><time>2026-04-18T14:05:05.002Z</time></trkpt><trkpt lat="43.24819865259413" lon="10.775928632041076"><ele>503.0</ele><time>2026-04-18T14:05:06.002Z</time></trkpt><trkpt lat="43.24813476178946" lon="10.775967962688718"><ele>502.99999999999994</ele><time>2026-04-18T14:05:07.002Z</time></trkpt><trkpt lat="43.248049992369516" lon="10.776002200243248"><ele>503.0</ele><time>2026-04-18T14:05:08Z</time></trkpt><trkpt lat="43.247964765647026" lon="10.775996235772075"><ele>503.3333333333333</ele><time>2026-04-18T14:05:09Z</time></trkpt><trkpt lat="43.24787218674824" lon="10.775967141710046"><ele>503.66666666666663</ele><time>2026-04-18T14:05:10Z</time></trkpt><trkpt lat="43.247807659026236" lon="10.775946395219608"><ele>504.0</ele><time>2026-04-18T14:05:11Z</time></trkpt><trkpt lat="43.24773463087336" lon="10.775929173664833"><ele>504.33333333333337</ele><time>2026-04-18T14:05:12Z</time></trkpt><trkpt lat="43.24765419966252" lon="10.775942394101166"><ele>504.6666666666667</ele><time>2026-04-18T14:05:13Z</time></trkpt><trkpt lat="43.2475599284072" lon="10.775944662658445"><ele>505.0</ele><time>2026-04-18T14:05:14Z</time></trkpt><trkpt lat="43.24745302095816" lon="10.775989071802728"><ele>509.2</ele><time>2026-04-18T14:05:15Z</time></trkpt><trkpt lat="43.24736754546047" lon="10.776033433872836"><ele>513.4</ele><time>2026-04-18T14:05:16Z</time></trkpt><trkpt lat="43.2472799953064" lon="10.776074550854593"><ele>517.6</ele><time>2026-04-18T14:05:17Z</time></trkpt><trkpt lat="43.247172600233675" lon="10.776140519500553"><ele>521.8</ele><time>2026-04-18T14:05:18Z</time></trkpt><trkpt lat="43.24709779553465" lon="10.776220878659817"><ele>526.0</ele><time>2026-04-18T14:05:19Z</time></trkpt><trkpt lat="43.247015511166836" lon="10.776288261813528"><ele>526.0</ele><time>2026-04-18T14:05:20Z</time></trkpt><trkpt lat="43.2469199603342" lon="10.776271312054753"><ele>526.0</ele><time>2026-04-18T14:05:21Z</time></trkpt><trkpt lat="43.24682025555998" lon="10.776249251194551"><ele>526.0</ele><time>2026-04-18T14:05:22Z</time></trkpt><trkpt lat="43.24673062120674" lon="10.776202325518115"><ele>526.0</ele><time>2026-04-18T14:05:23Z</time></trkpt><trkpt lat="43.24666107174142" lon="10.776056758794258"><ele>526.0</ele><time>2026-04-18T14:05:24Z</time></trkpt><trkpt lat="43.246600081299455" lon="10.775953424151933"><ele>523.6</ele><time>2026-04-18T14:05:25Z</time></trkpt><trkpt lat="43.24652038489415" lon="10.775840936151084"><ele>521.2</ele><time>2026-04-18T14:05:26Z</time></trkpt><trkpt lat="43.24644017738644" lon="10.775743832368118"><ele>518.8</ele><time>2026-04-18T14:05:27Z</time></trkpt><trkpt lat="43.246354415439086" lon="10.775665989630992"><ele>516.4</ele><time>2026-04-18T14:05:28Z</time></trkpt><trkpt lat="43.24628335036362" lon="10.775583006071544"><ele>514.0</ele><time>2026-04-18T14:05:29Z</time></trkpt><trkpt lat="43.246232076504846" lon="10.77547774958128"><ele>514.0</ele><time>2026-04-18T14:05:30Z</time></trkpt><trkpt lat="43.246188735793226" lon="10.775374780036078"><ele>514.0</ele><time>2026-04-18T14:05:31Z</time></trkpt><trkpt lat="43.2461542863927" lon="10.775234312063516"><ele>514.0</ele><time>2026-04-18T14:05:32Z</time></trkpt><trkpt lat="43.24611678343585" lon="10.775133549967011"><ele>514.0</ele><time>2026-04-18T14:05:33Z</time></trkpt><trkpt lat="43.246075694218476" lon="10.77504126027664"><ele>514.0</ele><time>2026-04-18T14:05:34Z</time></trkpt><trkpt lat="43.24602643943262" lon="10.7749858755676"><ele>514.0</ele><time>2026-04-18T14:05:35Z</time></trkpt><trkpt lat="43.24596486021393" lon="10.774946535630269"><ele>512.5</ele><time>2026-04-18T14:05:36Z</time></trkpt><trkpt lat="43.245893891633465" lon="10.774944574600552"><ele>511.0</ele><time>2026-04-18T14:05:37Z</time></trkpt><trkpt lat="43.24582386005813" lon="10.77497821832819"><ele>509.5</ele><time>2026-04-18T14:05:38Z</time></trkpt><trkpt lat="43.24574696540526" lon="10.775023829404995"><ele>508.0</ele><time>2026-04-18T14:05:39Z</time></trkpt><trkpt lat="43.2456700150353" lon="10.775068430790842"><ele>506.50000000000006</ele><time>2026-04-18T14:05:40Z</time></trkpt><trkpt lat="43.24560734834433" lon="10.775103836675795"><ele>505.0</ele><time>2026-04-18T14:05:41Z</time></trkpt><trkpt lat="43.2455428548845" lon="10.775148687052624"><ele>504.6</ele><time>2026-04-18T14:05:42Z</time></trkpt><trkpt lat="43.245455262617305" lon="10.775168609218799"><ele>504.2</ele><time>2026-04-18T14:05:44Z</time></trkpt><trkpt lat="43.24532177189238" lon="10.775098829016535"><ele>503.79999999999995</ele><time>2026-04-18T14:05:46Z</time></trkpt><trkpt lat="43.245261834018486" lon="10.77503450083786"><ele>503.4</ele><time>2026-04-18T14:05:47.001Z</time></trkpt><trkpt lat="43.24518256202156" lon="10.77498944346033"><ele>503.0</ele><time>2026-04-18T14:05:48.001Z</time></trkpt><trkpt lat="43.24509836454964" lon="10.774934023972184"><ele>503.0</ele><time>2026-04-18T14:05:49.001Z</time></trkpt><trkpt lat="43.24500635986599" lon="10.77487326215997"><ele>502.99999999999994</ele><time>2026-04-18T14:05:50.001Z</time></trkpt><trkpt lat="43.24491292389729" lon="10.77479254111924"><ele>502.99999999999994</ele><time>2026-04-18T14:05:51.001Z</time></trkpt><trkpt lat="43.24481275403281" lon="10.774720809959373"><ele>503.0</ele><time>2026-04-18T14:05:52.001Z</time></trkpt><trkpt lat="43.24471514589348" lon="10.774632225508613"><ele>503.0</ele><time>2026-04-18T14:05:53.001Z</time></trkpt><trkpt lat="43.24460859856955" lon="10.774545063529537"><ele>502.59999999999997</ele><time>2026-04-18T14:05:54.001Z</time></trkpt><trkpt lat="43.2444963946431" lon="10.774469159250021"><ele>502.19999999999993</ele><time>2026-04-18T14:05:55.001Z</time></trkpt><trkpt lat="43.24439890145631" lon="10.774401838069506"><ele>501.8</ele><time>2026-04-18T14:05:56.001Z</time></trkpt><trkpt lat="43.244302437907464" lon="10.774328400172886"><ele>501.4</ele><time>2026-04-18T14:05:57.001Z</time></trkpt><trkpt lat="43.244214934412696" lon="10.774267357171128"><ele>501.0</ele><time>2026-04-18T14:05:58.001Z</time></trkpt><trkpt lat="43.244137791765404" lon="10.774196364139696"><ele>501.0</ele><time>2026-04-18T14:05:59.001Z</time></trkpt><trkpt lat="43.24406683870172" lon="10.774096800123532"><ele>501.0</ele><time>2026-04-18T14:06:00.001Z</time></trkpt><trkpt lat="43.244017309246104" lon="10.773977035532518"><ele>501.0</ele><time>2026-04-18T14:06:01.001Z</time></trkpt><trkpt lat="43.24398681317914" lon="10.773830056643067"><ele>501.0</ele><time>2026-04-18T14:06:02.001Z</time></trkpt><trkpt lat="43.24397963898267" lon="10.773683166028102"><ele>501.0</ele><time>2026-04-18T14:06:03.001Z</time></trkpt><trkpt lat="43.24396872347972" lon="10.773544071420686"><ele>501.4</ele><time>2026-04-18T14:06:04.001Z</time></trkpt><trkpt lat="43.24394179964029" lon="10.773419792250744"><ele>501.8</ele><time>2026-04-18T14:06:05.001Z</time></trkpt><trkpt lat="43.243896103725504" lon="10.773312343109197"><ele>502.19999999999993</ele><time>2026-04-18T14:06:06.001Z</time></trkpt><trkpt lat="43.243824383622375" lon="10.7732302111041"><ele>502.59999999999997</ele><time>2026-04-18T14:06:07.001Z</time></trkpt><trkpt lat="43.243747255618295" lon="10.773152333507976"><ele>503.0</ele><time>2026-04-18T14:06:08.001Z</time></trkpt><trkpt lat="43.243667733902186" lon="10.773076972303876"><ele>503.0</ele><time>2026-04-18T14:06:09.001Z</time></trkpt><trkpt lat="43.24359947300202" lon="10.772965110796891"><ele>502.99999999999994</ele><time>2026-04-18T14:06:10.001Z</time></trkpt><trkpt lat="43.24355828273579" lon="10.77284315335724"><ele>502.99999999999994</ele><time>2026-04-18T14:06:11.001Z</time></trkpt><trkpt lat="43.243579033641836" lon="10.772688565084417"><ele>503.0</ele><time>2026-04-18T14:06:12.001Z</time></trkpt><trkpt lat="43.2435841214284" lon="10.772528533308579"><ele>503.0</ele><time>2026-04-18T14:06:13.001Z</time></trkpt><trkpt lat="43.24359575397737" lon="10.772370184649766"><ele>503.0</ele><time>2026-04-18T14:06:14.001Z</time></trkpt><trkpt lat="43.243610227148814" lon="10.772212148411151"><ele>502.99999999999994</ele><time>2026-04-18T14:06:15.001Z</time></trkpt><trkpt lat="43.243622136520194" lon="10.772058036586886"><ele>502.99999999999994</ele><time>2026-04-18T14:06:16.001Z</time></trkpt><trkpt lat="43.24363948615923" lon="10.771918864350418"><ele>503.0</ele><time>2026-04-18T14:06:17.001Z</time></trkpt><trkpt lat="43.24364585356065" lon="10.771792746829075"><ele>503.0</ele><time>2026-04-18T14:06:18.001Z</time></trkpt><trkpt lat="43.24364209517256" lon="10.771694326913494"><ele>503.0</ele><time>2026-04-18T14:06:19.001Z</time></trkpt><trkpt lat="43.24362261919208" lon="10.771597008932567"><ele>502.99999999999994</ele><time>2026-04-18T14:06:20.001Z</time></trkpt><trkpt lat="43.24352615282144" lon="10.771499411381518"><ele>502.99999999999994</ele><time>2026-04-18T14:06:22.001Z</time></trkpt><trkpt lat="43.24342685984831" lon="10.771473117983675"><ele>503.0</ele><time>2026-04-18T14:06:23.001Z</time></trkpt><trkpt lat="43.243332136300644" lon="10.771481441237011"><ele>503.0</ele><time>2026-04-18T14:06:24.001Z</time></trkpt><trkpt lat="43.24324694720653" lon="10.771497915016893"><ele>503.0</ele><time>2026-04-18T14:06:25.001Z</time></trkpt><trkpt lat="43.24316310319328" lon="10.771481015000631"><ele>502.99999999999994</ele><time>2026-04-18T14:06:26.001Z</time></trkpt><trkpt lat="43.243088778390664" lon="10.771410115526303"><ele>502.99999999999994</ele><time>2026-04-18T14:06:27.001Z</time></trkpt><trkpt lat="43.24303923172038" lon="10.771293296908512"><ele>503.0</ele><time>2026-04-18T14:06:28.001Z</time></trkpt><trkpt lat="43.24301800658013" lon="10.771155458623205"><ele>503.0</ele><time>2026-04-18T14:06:29.001Z</time></trkpt><trkpt lat="43.24300164508058" lon="10.77102540945441"><ele>503.59999999999997</ele><time>2026-04-18T14:06:30.001Z</time></trkpt><trkpt lat="43.2429801455834" lon="10.770893636156455"><ele>504.19999999999993</ele><time>2026-04-18T14:06:31.001Z</time></trkpt><trkpt lat="43.2429623046275" lon="10.770765457220113"><ele>504.8</ele><time>2026-04-18T14:06:32.001Z</time></trkpt><trkpt lat="43.24294979623342" lon="10.770637028278978"><ele>505.4</ele><time>2026-04-18T14:06:33.001Z</time></trkpt><trkpt lat="43.24293035307448" lon="10.770517611405312"><ele>506.0</ele><time>2026-04-18T14:06:34.001Z</time></trkpt><trkpt lat="43.24288488731327" lon="10.770407019210255"><ele>506.0</ele><time>2026-04-18T14:06:35.001Z</time></trkpt><trkpt lat="43.24282839710835" lon="10.770310351509501"><ele>506.0</ele><time>2026-04-18T14:06:36.001Z</time></trkpt><trkpt lat="43.24276784419127" lon="10.770198242831048"><ele>506.0</ele><time>2026-04-18T14:06:37.001Z</time></trkpt><trkpt lat="43.242722810673634" lon="10.770083124319667"><ele>506.0</ele><time>2026-04-18T14:06:38.001Z</time></trkpt><trkpt lat="43.24268725294006" lon="10.769967320787282"><ele>506.0</ele><time>2026-04-18T14:06:39.001Z</time></trkpt><trkpt lat="43.24264965002181" lon="10.769853832167163"><ele>503.66666666666663</ele><time>2026-04-18T14:06:40.001Z</time></trkpt><trkpt lat="43.2426216128894" lon="10.769725263910953"><ele>501.3333333333333</ele><time>2026-04-18T14:06:41.002Z</time></trkpt><trkpt lat="43.242608893718746" lon="10.769610863503832"><ele>499.0</ele><time>2026-04-18T14:06:42.002Z</time></trkpt><trkpt lat="43.24260268537611" lon="10.769501613528696"><ele>496.66666666666663</ele><time>2026-04-18T14:06:43.002Z</time></trkpt><trkpt lat="43.24258943717323" lon="10.769388568967255"><ele>494.3333333333333</ele><time>2026-04-18T14:06:44.002Z</time></trkpt><trkpt lat="43.24256902067305" lon="10.76928429427644"><ele>492.0</ele><time>2026-04-18T14:06:45.002Z</time></trkpt><trkpt lat="43.242536585580105" lon="10.769199779687828"><ele>489.8</ele><time>2026-04-18T14:06:46.002Z</time></trkpt><trkpt lat="43.24243241391297" lon="10.76910805831627"><ele>487.6</ele><time>2026-04-18T14:06:48.002Z</time></trkpt><trkpt lat="43.24236214181374" lon="10.769085100869873"><ele>485.40000000000003</ele><time>2026-04-18T14:06:49.002Z</time></trkpt><trkpt lat="43.24223608675909" lon="10.769040242169181"><ele>483.20000000000005</ele><time>2026-04-18T14:06:51.002Z</time></trkpt><trkpt lat="43.24217153799115" lon="10.769018384790817"><ele>481.0</ele><time>2026-04-18T14:06:52.002Z</time></trkpt><trkpt lat="43.24210448104734" lon="10.76899541524247"><ele>481.00000000000006</ele><time>2026-04-18T14:06:53.002Z</time></trkpt><trkpt lat="43.242039742387185" lon="10.768970210084005"><ele>481.0</ele><time>2026-04-18T14:06:54.002Z</time></trkpt><trkpt lat="43.241968782211124" lon="10.768941203412236"><ele>481.0</ele><time>2026-04-18T14:06:55.002Z</time></trkpt><trkpt lat="43.24190412699046" lon="10.768903462193265"><ele>481.0</ele><time>2026-04-18T14:06:56.002Z</time></trkpt><trkpt lat="43.24182523314258" lon="10.76886876475615"><ele>481.00000000000006</ele><time>2026-04-18T14:06:57.002Z</time></trkpt><trkpt lat="43.24174806163486" lon="10.768834230378983"><ele>481.0</ele><time>2026-04-18T14:06:58.002Z</time></trkpt><trkpt lat="43.241676058677115" lon="10.768810707999734"><ele>480.99999999999994</ele><time>2026-04-18T14:06:59.002Z</time></trkpt><trkpt lat="43.24160069857104" lon="10.768797972979899"><ele>481.0</ele><time>2026-04-18T14:07:00.002Z</time></trkpt><trkpt lat="43.24152324778453" lon="10.768799751258623"><ele>480.99999999999994</ele><time>2026-04-18T14:07:01.002Z</time></trkpt><trkpt lat="43.24145063763181" lon="10.768810652349181"><ele>480.99999999999994</ele><time>2026-04-18T14:07:02.002Z</time></trkpt><trkpt lat="43.24138637215861" lon="10.768817296721487"><ele>481.0</ele><time>2026-04-18T14:07:03.002Z</time></trkpt><trkpt lat="43.241314743888495" lon="10.768813173173164"><ele>480.99999999999994</ele><time>2026-04-18T14:07:04.002Z</time></trkpt><trkpt lat="43.24124936491077" lon="10.768799519831315"><ele>480.99999999999994</ele><time>2026-04-18T14:07:05.002Z</time></trkpt><trkpt lat="43.241180309713634" lon="10.768777791304792"><ele>479.50000000000006</ele><time>2026-04-18T14:07:06.002Z</time></trkpt><trkpt lat="43.24111402775154" lon="10.7687318834525"><ele>478.0</ele><time>2026-04-18T14:07:07.002Z</time></trkpt><trkpt lat="43.24105506501151" lon="10.768688513179617"><ele>476.5</ele><time>2026-04-18T14:07:08.002Z</time></trkpt><trkpt lat="43.240973297957495" lon="10.768645525691696"><ele>475.0</ele><time>2026-04-18T14:07:09.002Z</time></trkpt><trkpt lat="43.240903857074365" lon="10.768608287982625"><ele>473.50000000000006</ele><time>2026-04-18T14:07:10.002Z</time></trkpt><trkpt lat="43.240830877207316" lon="10.768574360389646"><ele>472.0</ele><time>2026-04-18T14:07:11.002Z</time></trkpt><trkpt lat="43.24074894849543" lon="10.768552302591921"><ele>470.0</ele><time>2026-04-18T14:07:12.002Z</time></trkpt><trkpt lat="43.24067403507001" lon="10.768490881221178"><ele>468.00000000000006</ele><time>2026-04-18T14:07:14Z</time></trkpt><trkpt lat="43.24059666974389" lon="10.768434622547781"><ele>466.00000000000006</ele><time>2026-04-18T14:07:18Z</time></trkpt><trkpt lat="43.2406151253545" lon="10.768307895687496"><ele>464.0</ele><time>2026-04-18T14:07:21Z</time></trkpt><trkpt lat="43.240666350249256" lon="10.76819258731625"><ele>462.0</ele><time>2026-04-18T14:07:23Z</time></trkpt><trkpt lat="43.24065014802905" lon="10.768029039300188"><ele>462.0</ele><time>2026-04-18T14:07:25Z</time></trkpt><trkpt lat="43.24065452281576" lon="10.767937407082306"><ele>462.00000000000006</ele><time>2026-04-18T14:07:26Z</time></trkpt><trkpt lat="43.2406667085426" lon="10.767778731562446"><ele>462.00000000000006</ele><time>2026-04-18T14:07:28Z</time></trkpt><trkpt lat="43.24068195730055" lon="10.767659357453448"><ele>462.0</ele><time>2026-04-18T14:07:30Z</time></trkpt><trkpt lat="43.240699289218185" lon="10.767540471714238"><ele>462.0</ele><time>2026-04-18T14:07:32Z</time></trkpt><trkpt lat="43.24071782646508" lon="10.767411378396037"><ele>461.75</ele><time>2026-04-18T14:07:34Z</time></trkpt><trkpt lat="43.240747394418726" lon="10.767285839312247"><ele>461.5</ele><time>2026-04-18T14:07:36Z</time></trkpt><trkpt lat="43.2407750838687" lon="10.767130008206914"><ele>461.25</ele><time>2026-04-18T14:07:38Z</time></trkpt><trkpt lat="43.240782385941905" lon="10.766966835066281"><ele>461.0</ele><time>2026-04-18T14:07:40Z</time></trkpt><trkpt lat="43.2407858338206" lon="10.76680314884516"><ele>461.0</ele><time>2026-04-18T14:07:42Z</time></trkpt><trkpt lat="43.24080599630952" lon="10.766642711366632"><ele>461.0</ele><time>2026-04-18T14:07:44Z</time></trkpt><trkpt lat="43.24084126845341" lon="10.76649744564632"><ele>461.0</ele><time>2026-04-18T14:07:46Z</time></trkpt><trkpt lat="43.24087876040126" lon="10.766372319801777"><ele>461.0</ele><time>2026-04-18T14:07:48Z</time></trkpt><trkpt lat="43.24091197105812" lon="10.766242911953027"><ele>461.0</ele><time>2026-04-18T14:07:50Z</time></trkpt><trkpt lat="43.24094919248544" lon="10.76611540392361"><ele>461.8</ele><time>2026-04-18T14:07:52Z</time></trkpt><trkpt lat="43.24098486402521" lon="10.7659780417816"><ele>462.6</ele><time>2026-04-18T14:07:54.001Z</time></trkpt><trkpt lat="43.24100695009791" lon="10.765824363851754"><ele>463.4</ele><time>2026-04-18T14:07:56.001Z</time></trkpt><trkpt lat="43.24100187307228" lon="10.765666995826686"><ele>464.2</ele><time>2026-04-18T14:07:58.001Z</time></trkpt><trkpt lat="43.24097959857336" lon="10.7655138891714"><ele>465.0</ele><time>2026-04-18T14:08:00.001Z</time></trkpt><trkpt lat="43.24092934292919" lon="10.765376167009443"><ele>465.0</ele><time>2026-04-18T14:08:02.001Z</time></trkpt><trkpt lat="43.24091869588436" lon="10.765277040598672"><ele>465.0</ele><time>2026-04-18T14:08:04.001Z</time></trkpt><trkpt lat="43.240892566888355" lon="10.765165603860726"><ele>465.0</ele><time>2026-04-18T14:08:05.001Z</time></trkpt><trkpt lat="43.240905497892854" lon="10.765009058785974"><ele>465.0</ele><time>2026-04-18T14:08:07.001Z</time></trkpt><trkpt lat="43.24087796261929" lon="10.764853251067375"><ele>465.0</ele><time>2026-04-18T14:08:09.001Z</time></trkpt><trkpt lat="43.24082680115292" lon="10.764691210834558"><ele>463.8333333333333</ele><time>2026-04-18T14:08:11.001Z</time></trkpt><trkpt lat="43.2407979011245" lon="10.76460464595413"><ele>462.66666666666663</ele><time>2026-04-18T14:08:12.001Z</time></trkpt><trkpt lat="43.240749435006386" lon="10.764530735479285"><ele>461.5</ele><time>2026-04-18T14:08:13.001Z</time></trkpt><trkpt lat="43.24069860593657" lon="10.764463245694278"><ele>460.3333333333333</ele><time>2026-04-18T14:08:14.001Z</time></trkpt><trkpt lat="43.24064673923657" lon="10.764393032478836"><ele>459.16666666666663</ele><time>2026-04-18T14:08:15.001Z</time></trkpt><trkpt lat="43.240567674841216" lon="10.764262169928122"><ele>458.0</ele><time>2026-04-18T14:08:17.001Z</time></trkpt><trkpt lat="43.240544943547064" lon="10.76413680039759"><ele>461.0</ele><time>2026-04-18T14:08:19.001Z</time></trkpt><trkpt lat="43.24049455792414" lon="10.76406305588215"><ele>463.99999999999994</ele><time>2026-04-18T14:08:21.001Z</time></trkpt><trkpt lat="43.240403638451866" lon="10.763976118924901"><ele>466.99999999999994</ele><time>2026-04-18T14:08:23.001Z</time></trkpt><trkpt lat="43.24029902553412" lon="10.763908227601483"><ele>470.0</ele><time>2026-04-18T14:08:25.001Z</time></trkpt><trkpt lat="43.240192109034815" lon="10.763849695007623"><ele>473.0</ele><time>2026-04-18T14:08:27.001Z</time></trkpt><trkpt lat="43.24011859389491" lon="10.76371923095582"><ele>473.0</ele><time>2026-04-18T14:08:29.001Z</time></trkpt><trkpt lat="43.240143367261375" lon="10.763590876813032"><ele>472.99999999999994</ele><time>2026-04-18T14:08:31.001Z</time></trkpt><trkpt lat="43.24023450862714" lon="10.763534005927172"><ele>472.99999999999994</ele><time>2026-04-18T14:08:33.001Z</time></trkpt><trkpt lat="43.24033611224222" lon="10.763452818365254"><ele>473.0</ele><time>2026-04-18T14:08:35.001Z</time></trkpt><trkpt lat="43.24043421885792" lon="10.763385330121954"><ele>473.0</ele><time>2026-04-18T14:08:37.001Z</time></trkpt><trkpt lat="43.24051857506163" lon="10.763299606380182"><ele>472.3333333333333</ele><time>2026-04-18T14:08:39.001Z</time></trkpt><trkpt lat="43.24057465767518" lon="10.763238803514003"><ele>471.66666666666663</ele><time>2026-04-18T14:08:40.001Z</time></trkpt><trkpt lat="43.24063965155424" lon="10.763182077840636"><ele>471.0</ele><time>2026-04-18T14:08:41.001Z</time></trkpt><trkpt lat="43.24070353540163" lon="10.763155038552243"><ele>470.33333333333337</ele><time>2026-04-18T14:08:42.001Z</time></trkpt><trkpt lat="43.2407651113076" lon="10.763136769536688"><ele>469.6666666666667</ele><time>2026-04-18T14:08:43.001Z</time></trkpt><trkpt lat="43.24087413598442" lon="10.763031633957672"><ele>469.0</ele><time>2026-04-18T14:08:45.001Z</time></trkpt><trkpt lat="43.24091261902569" lon="10.762927838766679"><ele>468.2</ele><time>2026-04-18T14:08:46.002Z</time></trkpt><trkpt lat="43.240951680530166" lon="10.762833455314047"><ele>467.4</ele><time>2026-04-18T14:08:47.002Z</time></trkpt><trkpt lat="43.24100270964346" lon="10.762762284593512"><ele>466.6</ele><time>2026-04-18T14:08:48.002Z</time></trkpt><trkpt lat="43.241062057051465" lon="10.762705172111446"><ele>465.8</ele><time>2026-04-18T14:08:49.002Z</time></trkpt><trkpt lat="43.24114139246175" lon="10.762594767668839"><ele>465.0</ele><time>2026-04-18T14:08:51.002Z</time></trkpt><trkpt lat="43.241150369682856" lon="10.762426791824861"><ele>465.0</ele><time>2026-04-18T14:08:53.002Z</time></trkpt><trkpt lat="43.24114687038683" lon="10.762332090352915"><ele>465.0</ele><time>2026-04-18T14:08:54.002Z</time></trkpt><trkpt lat="43.24113720376356" lon="10.762222966020094"><ele>465.0</ele><time>2026-04-18T14:08:55.002Z</time></trkpt><trkpt lat="43.24113141725169" lon="10.762099199742133"><ele>465.0</ele><time>2026-04-18T14:08:56.002Z</time></trkpt><trkpt lat="43.241141546893175" lon="10.761980958190623"><ele>465.0</ele><time>2026-04-18T14:08:57.002Z</time></trkpt><trkpt lat="43.24118137812943" lon="10.761861831279061"><ele>465.0</ele><time>2026-04-18T14:08:58.002Z</time></trkpt><trkpt lat="43.2412314099762" lon="10.761767233903257"><ele>465.71428571428567</ele><time>2026-04-18T14:08:59.002Z</time></trkpt><trkpt lat="43.24128324243112" lon="10.761673864322798"><ele>466.42857142857144</ele><time>2026-04-18T14:09:00.002Z</time></trkpt><trkpt lat="43.24132940736638" lon="10.761584428019983"><ele>467.1428571428571</ele><time>2026-04-18T14:09:01.002Z</time></trkpt><trkpt lat="43.24137613083015" lon="10.761513282836642"><ele>467.85714285714283</ele><time>2026-04-18T14:09:02.002Z</time></trkpt><trkpt lat="43.24143225018897" lon="10.76147052635663"><ele>468.57142857142856</ele><time>2026-04-18T14:09:03.002Z</time></trkpt><trkpt lat="43.241498911963404" lon="10.761429738084178"><ele>469.2857142857143</ele><time>2026-04-18T14:09:05.002Z</time></trkpt><trkpt lat="43.24152945970341" lon="10.761353926161114"><ele>470.0</ele><time>2026-04-18T14:09:07.002Z</time></trkpt><trkpt lat="43.24151015040827" lon="10.761211787419187"><ele>469.99999999999994</ele><time>2026-04-18T14:09:09.002Z</time></trkpt><trkpt lat="43.24146442092943" lon="10.761149512810649"><ele>470.0</ele><time>2026-04-18T14:09:10.002Z</time></trkpt><trkpt lat="43.2414108185885" lon="10.761086241214944"><ele>470.0</ele><time>2026-04-18T14:09:11.002Z</time></trkpt><trkpt lat="43.24136236932348" lon="10.761010473465689"><ele>470.0</ele><time>2026-04-18T14:09:12.002Z</time></trkpt><trkpt lat="43.241341815591746" lon="10.760907900888327"><ele>469.99999999999994</ele><time>2026-04-18T14:09:13.002Z</time></trkpt><trkpt lat="43.24124854496437" lon="10.76078393495552"><ele>470.0</ele><time>2026-04-18T14:09:15.002Z</time></trkpt><trkpt lat="43.24121220176572" lon="10.760682123190797"><ele>469.6</ele><time>2026-04-18T14:09:16.002Z</time></trkpt><trkpt lat="43.241194412290454" lon="10.7605650969817"><ele>469.2</ele><time>2026-04-18T14:09:17.002Z</time></trkpt><trkpt lat="43.241178560041355" lon="10.760445655003076"><ele>468.79999999999995</ele><time>2026-04-18T14:09:18.002Z</time></trkpt><trkpt lat="43.24116211763497" lon="10.760316095549971"><ele>468.4</ele><time>2026-04-18T14:09:19.002Z</time></trkpt><trkpt lat="43.241165238348714" lon="10.76018474340936"><ele>468.0</ele><time>2026-04-18T14:09:20Z</time></trkpt><trkpt lat="43.241182347611065" lon="10.760067478136595"><ele>465.6666666666667</ele><time>2026-04-18T14:09:21Z</time></trkpt><trkpt lat="43.24118818490985" lon="10.759958088714987"><ele>463.33333333333337</ele><time>2026-04-18T14:09:22Z</time></trkpt><trkpt lat="43.24118053041903" lon="10.75984470222498"><ele>461.0</ele><time>2026-04-18T14:09:23Z</time></trkpt><trkpt lat="43.241186346028414" lon="10.7597344277464"><ele>458.6666666666667</ele><time>2026-04-18T14:09:24Z</time></trkpt><trkpt lat="43.2412097248138" lon="10.759639482911481"><ele>456.33333333333337</ele><time>2026-04-18T14:09:25Z</time></trkpt><trkpt lat="43.241233824730266" lon="10.759535250181637"><ele>454.0</ele><time>2026-04-18T14:09:26Z</time></trkpt><trkpt lat="43.24123498557853" lon="10.759425893268812"><ele>451.6</ele><time>2026-04-18T14:09:27Z</time></trkpt><trkpt lat="43.24121443429006" lon="10.759318868276921"><ele>449.2</ele><time>2026-04-18T14:09:28Z</time></trkpt><trkpt lat="43.24118275795819" lon="10.759220413843984"><ele>446.80000000000007</ele><time>2026-04-18T14:09:29Z</time></trkpt><trkpt lat="43.24111372888847" lon="10.759093453187406"><ele>444.40000000000003</ele><time>2026-04-18T14:09:31Z</time></trkpt><trkpt lat="43.241120433707536" lon="10.758959652324098"><ele>442.0</ele><time>2026-04-18T14:09:33Z</time></trkpt><trkpt lat="43.24122407985626" lon="10.758917986718544"><ele>442.00000000000006</ele><time>2026-04-18T14:09:35Z</time></trkpt><trkpt lat="43.241309517180376" lon="10.75905557767668"><ele>442.0</ele><time>2026-04-18T14:09:37Z</time></trkpt><trkpt lat="43.241324776903745" lon="10.759157561694337"><ele>442.0</ele><time>2026-04-18T14:09:38Z</time></trkpt><trkpt lat="43.24133752538468" lon="10.759259868113563"><ele>442.0</ele><time>2026-04-18T14:09:39Z</time></trkpt><trkpt lat="43.24136139732557" lon="10.759363701269342"><ele>442.00000000000006</ele><time>2026-04-18T14:09:40Z</time></trkpt><trkpt lat="43.24139818166015" lon="10.759469299880001"><ele>442.0</ele><time>2026-04-18T14:09:41Z</time></trkpt><trkpt lat="43.241423305835305" lon="10.759579232206951"><ele>441.0</ele><time>2026-04-18T14:09:42Z</time></trkpt><trkpt lat="43.2414574600569" lon="10.75970241991094"><ele>440.00000000000006</ele><time>2026-04-18T14:09:43Z</time></trkpt><trkpt lat="43.24149883413911" lon="10.759840738597722"><ele>439.00000000000006</ele><time>2026-04-18T14:09:44Z</time></trkpt><trkpt lat="43.24154122412215" lon="10.759943511976171"><ele>438.0</ele><time>2026-04-18T14:09:45Z</time></trkpt><trkpt lat="43.24157411153854" lon="10.76004894285949"><ele>437.0</ele><time>2026-04-18T14:09:46Z</time></trkpt><trkpt lat="43.24159996135594" lon="10.76014599886132"><ele>437.0</ele><time>2026-04-18T14:09:47Z</time></trkpt><trkpt lat="43.24166366211131" lon="10.76026488020126"><ele>437.00000000000006</ele><time>2026-04-18T14:09:49Z</time></trkpt><trkpt lat="43.24172816415498" lon="10.760282837126889"><ele>437.00000000000006</ele><time>2026-04-18T14:09:50Z</time></trkpt><trkpt lat="43.241793464900525" lon="10.760252021320527"><ele>437.0</ele><time>2026-04-18T14:09:51Z</time></trkpt><trkpt lat="43.241923449063556" lon="10.76019297370868"><ele>437.0</ele><time>2026-04-18T14:09:53Z</time></trkpt><trkpt lat="43.24200421657747" lon="10.760162238043423"><ele>436.99999999999994</ele><time>2026-04-18T14:09:54Z</time></trkpt><trkpt lat="43.242076202123876" lon="10.76010346721511"><ele>437.0</ele><time>2026-04-18T14:09:55Z</time></trkpt><trkpt lat="43.242141059332354" lon="10.760011925472872"><ele>437.0</ele><time>2026-04-18T14:09:56Z</time></trkpt><trkpt lat="43.24221439091217" lon="10.759913189419954"><ele>437.0</ele><time>2026-04-18T14:09:57Z</time></trkpt><trkpt lat="43.242275622562644" lon="10.759841758417474"><ele>436.99999999999994</ele><time>2026-04-18T14:09:58Z</time></trkpt><trkpt lat="43.242317717844706" lon="10.759769093902056"><ele>437.0</ele><time>2026-04-18T14:09:59Z</time></trkpt><trkpt lat="43.24237590388294" lon="10.759702835594563"><ele>437.4285714285714</ele><time>2026-04-18T14:10:00Z</time></trkpt><trkpt lat="43.24244243257841" lon="10.759652724688003"><ele>437.8571428571429</ele><time>2026-04-18T14:10:01.001Z</time></trkpt><trkpt lat="43.242512966315715" lon="10.759608801634812"><ele>438.2857142857143</ele><time>2026-04-18T14:10:02.001Z</time></trkpt><trkpt lat="43.24258312169064" lon="10.759578514061834"><ele>438.71428571428567</ele><time>2026-04-18T14:10:03.001Z</time></trkpt><trkpt lat="43.24264568888576" lon="10.759548863967849"><ele>439.1428571428571</ele><time>2026-04-18T14:10:04.001Z</time></trkpt><trkpt lat="43.24271178368656" lon="10.759548570437936"><ele>439.57142857142856</ele><time>2026-04-18T14:10:05.001Z</time></trkpt><trkpt lat="43.24279501180789" lon="10.759564036328369"><ele>440.0</ele><time>2026-04-18T14:10:06.001Z</time></trkpt><trkpt lat="43.242875014475736" lon="10.759592331084313"><ele>440.0</ele><time>2026-04-18T14:10:07.001Z</time></trkpt><trkpt lat="43.24295046263925" lon="10.759640628930882"><ele>440.0</ele><time>2026-04-18T14:10:08.001Z</time></trkpt><trkpt lat="43.24303291355553" lon="10.7597056649169"><ele>440.0</ele><time>2026-04-18T14:10:09.001Z</time></trkpt><trkpt lat="43.243115527186326" lon="10.75976445717641"><ele>440.0</ele><time>2026-04-18T14:10:10.001Z</time></trkpt><trkpt lat="43.243194399311705" lon="10.759851040311288"><ele>440.0</ele><time>2026-04-18T14:10:11.001Z</time></trkpt><trkpt lat="43.243280594374895" lon="10.759904743294856"><ele>438.16666666666663</ele><time>2026-04-18T14:10:12.001Z</time></trkpt><trkpt lat="43.24336970924739" lon="10.759943617985043"><ele>436.3333333333333</ele><time>2026-04-18T14:10:13.001Z</time></trkpt><trkpt lat="43.24346270020707" lon="10.759976195968289"><ele>434.5</ele><time>2026-04-18T14:10:14.001Z</time></trkpt><trkpt lat="43.24355163259704" lon="10.760006254740206"><ele>432.66666666666663</ele><time>2026-04-18T14:10:15.001Z</time></trkpt><trkpt lat="43.24362942420857" lon="10.760040327101327"><ele>430.8333333333333</ele><time>2026-04-18T14:10:16.001Z</time></trkpt><trkpt lat="43.24368908399257" lon="10.760106824777838"><ele>429.0</ele><time>2026-04-18T14:10:17.001Z</time></trkpt><trkpt lat="43.24377161444247" lon="10.760178956094844"><ele>429.6</ele><time>2026-04-18T14:10:18.001Z</time></trkpt><trkpt lat="43.24386485606873" lon="10.760248711047815"><ele>430.2</ele><time>2026-04-18T14:10:19.001Z</time></trkpt><trkpt lat="43.243953056412785" lon="10.760310493599375"><ele>430.80000000000007</ele><time>2026-04-18T14:10:20.001Z</time></trkpt><trkpt lat="43.24403790691828" lon="10.760369093859337"><ele>431.40000000000003</ele><time>2026-04-18T14:10:21.001Z</time></trkpt><trkpt lat="43.244122252736524" lon="10.760416477508706"><ele>432.0</ele><time>2026-04-18T14:10:22.001Z</time></trkpt><trkpt lat="43.24420903355949" lon="10.760446832272983"><ele>429.6666666666667</ele><time>2026-04-18T14:10:23.001Z</time></trkpt><trkpt lat="43.24429037070508" lon="10.760458161900885"><ele>427.33333333333337</ele><time>2026-04-18T14:10:24.001Z</time></trkpt><trkpt lat="43.24436951241806" lon="10.760454891894712"><ele>425.0</ele><time>2026-04-18T14:10:25.001Z</time></trkpt><trkpt lat="43.244442654961325" lon="10.760435118858728"><ele>422.6666666666667</ele><time>2026-04-18T14:10:26.001Z</time></trkpt><trkpt lat="43.244513955087065" lon="10.760402608387102"><ele>420.33333333333337</ele><time>2026-04-18T14:10:27.001Z</time></trkpt><trkpt lat="43.24458612010369" lon="10.760387456257122"><ele>418.0</ele><time>2026-04-18T14:10:28.001Z</time></trkpt><trkpt lat="43.244700635654475" lon="10.760362381853357"><ele>418.0</ele><time>2026-04-18T14:10:30.001Z</time></trkpt><trkpt lat="43.24475530157886" lon="10.760314275206357"><ele>418.0</ele><time>2026-04-18T14:10:31.001Z</time></trkpt><trkpt lat="43.244791697766374" lon="10.760236753352105"><ele>418.0</ele><time>2026-04-18T14:10:32.001Z</time></trkpt><trkpt lat="43.24483366596353" lon="10.760147866544505"><ele>418.0</ele><time>2026-04-18T14:10:33.001Z</time></trkpt><trkpt lat="43.244874208633085" lon="10.760067298021172"><ele>418.0</ele><time>2026-04-18T14:10:34.001Z</time></trkpt><trkpt lat="43.24487913893635" lon="10.75996779041609"><ele>418.0</ele><time>2026-04-18T14:10:35.001Z</time></trkpt><trkpt lat="43.24488933734722" lon="10.759863885139174"><ele>418.0</ele><time>2026-04-18T14:10:36.001Z</time></trkpt><trkpt lat="43.244900524380164" lon="10.759743780233453"><ele>420.50000000000006</ele><time>2026-04-18T14:10:37.001Z</time></trkpt><trkpt lat="43.24492328914199" lon="10.759621411108952"><ele>423.0</ele><time>2026-04-18T14:10:38.001Z</time></trkpt><trkpt lat="43.24493779024299" lon="10.759505351127014"><ele>425.5</ele><time>2026-04-18T14:10:39.001Z</time></trkpt><trkpt lat="43.244959969146" lon="10.759397571309467"><ele>428.0</ele><time>2026-04-18T14:10:40.001Z</time></trkpt><trkpt lat="43.24497735176115" lon="10.75929548974943"><ele>430.50000000000006</ele><time>2026-04-18T14:10:41.001Z</time></trkpt><trkpt lat="43.24500512281416" lon="10.759196436625432"><ele>433.0</ele><time>2026-04-18T14:10:42.001Z</time></trkpt><trkpt lat="43.24503799934088" lon="10.759102558461782"><ele>433.4285714285714</ele><time>2026-04-18T14:10:43.001Z</time></trkpt><trkpt lat="43.24509519363202" lon="10.759023680287443"><ele>433.85714285714283</ele><time>2026-04-18T14:10:44.001Z</time></trkpt><trkpt lat="43.24513840746091" lon="10.758950391525634"><ele>434.2857142857143</ele><time>2026-04-18T14:10:45.001Z</time></trkpt><trkpt lat="43.24519070358738" lon="10.758882430442743"><ele>434.71428571428567</ele><time>2026-04-18T14:10:46.001Z</time></trkpt><trkpt lat="43.24524310008901" lon="10.75881519340117"><ele>435.14285714285717</ele><time>2026-04-18T14:10:47.001Z</time></trkpt><trkpt lat="43.245295891911425" lon="10.758746823409666"><ele>435.57142857142856</ele><time>2026-04-18T14:10:48.001Z</time></trkpt><trkpt lat="43.245346517567604" lon="10.758682641862093"><ele>436.0</ele><time>2026-04-18T14:10:49.001Z</time></trkpt><trkpt lat="43.24540556062663" lon="10.75862650281549"><ele>434.8</ele><time>2026-04-18T14:10:50.001Z</time></trkpt><trkpt lat="43.24552481004026" lon="10.758523293695038"><ele>433.6</ele><time>2026-04-18T14:10:52.001Z</time></trkpt><trkpt lat="43.24558008219345" lon="10.758459790519908"><ele>432.4</ele><time>2026-04-18T14:10:53.001Z</time></trkpt><trkpt lat="43.24560807638567" lon="10.758358416251358"><ele>431.2</ele><time>2026-04-18T14:10:54.001Z</time></trkpt><trkpt lat="43.24560906635563" lon="10.758179350576933"><ele>430.0</ele><time>2026-04-18T14:10:56.002Z</time></trkpt><trkpt lat="43.245612164319" lon="10.75803986715162"><ele>433.33333333333337</ele><time>2026-04-18T14:10:58.002Z</time></trkpt><trkpt lat="43.2456415402846" lon="10.757889716654175"><ele>436.6666666666667</ele><time>2026-04-18T14:11:00.002Z</time></trkpt><trkpt lat="43.24566929769622" lon="10.7578109908199"><ele>440.0</ele><time>2026-04-18T14:11:01.002Z</time></trkpt><trkpt lat="43.24573204975126" lon="10.757652725260874"><ele>443.33333333333337</ele><time>2026-04-18T14:11:03.002Z</time></trkpt><trkpt lat="43.24575633684399" lon="10.757567302123778"><ele>446.6666666666667</ele><time>2026-04-18T14:11:04.002Z</time></trkpt><trkpt lat="43.24578976400367" lon="10.757489427370235"><ele>450.0</ele><time>2026-04-18T14:11:05.002Z</time></trkpt><trkpt lat="43.2458338770927" lon="10.757419245378442"><ele>450.7142857142858</ele><time>2026-04-18T14:11:06.002Z</time></trkpt><trkpt lat="43.2458822427209" lon="10.757342310436018"><ele>451.42857142857144</ele><time>2026-04-18T14:11:07.002Z</time></trkpt><trkpt lat="43.245932649741455" lon="10.757265733919237"><ele>452.14285714285717</ele><time>2026-04-18T14:11:08.002Z</time></trkpt><trkpt lat="43.245987263189825" lon="10.757194691352941"><ele>452.8571428571429</ele><time>2026-04-18T14:11:09.002Z</time></trkpt><trkpt lat="43.24604460952801" lon="10.757130084967839"><ele>453.57142857142856</ele><time>2026-04-18T14:11:10.002Z</time></trkpt><trkpt lat="43.24610144678235" lon="10.757062695694492"><ele>454.2857142857143</ele><time>2026-04-18T14:11:11.002Z</time></trkpt><trkpt lat="43.24615549172351" lon="10.757009074512203"><ele>455.0</ele><time>2026-04-18T14:11:12.002Z</time></trkpt><trkpt lat="43.24627548177622" lon="10.75693174944461"><ele>455.0</ele><time>2026-04-18T14:11:14.002Z</time></trkpt><trkpt lat="43.246405125629046" lon="10.756884935046521"><ele>455.0</ele><time>2026-04-18T14:11:16.002Z</time></trkpt><trkpt lat="43.24647966048362" lon="10.756878140442089"><ele>455.0</ele><time>2026-04-18T14:11:17.002Z</time></trkpt><trkpt lat="43.24655690392372" lon="10.756865256706451"><ele>455.0</ele><time>2026-04-18T14:11:18.002Z</time></trkpt><trkpt lat="43.2466975232142" lon="10.756842651059332"><ele>455.0</ele><time>2026-04-18T14:11:20.002Z</time></trkpt><trkpt lat="43.246834702385456" lon="10.756784436298405"><ele>456.16666666666663</ele><time>2026-04-18T14:11:22.002Z</time></trkpt><trkpt lat="43.246905567940736" lon="10.756754479475067"><ele>457.3333333333333</ele><time>2026-04-18T14:11:23.002Z</time></trkpt><trkpt lat="43.246982602150965" lon="10.75673378172646"><ele>458.5</ele><time>2026-04-18T14:11:24.002Z</time></trkpt><trkpt lat="43.247062464820786" lon="10.75670922685963"><ele>459.66666666666663</ele><time>2026-04-18T14:11:25.002Z</time></trkpt><trkpt lat="43.247131759165555" lon="10.756685859454814"><ele>460.8333333333333</ele><time>2026-04-18T14:11:26Z</time></trkpt><trkpt lat="43.24721997369343" lon="10.756613094360247"><ele>462.0</ele><time>2026-04-18T14:11:28Z</time></trkpt><trkpt lat="43.24727005784099" lon="10.756487776100915"><ele>462.0</ele><time>2026-04-18T14:11:30Z</time></trkpt><trkpt lat="43.24723597579071" lon="10.756345797345777"><ele>462.00000000000006</ele><time>2026-04-18T14:11:32Z</time></trkpt><trkpt lat="43.24716119555479" lon="10.756237257592668"><ele>462.00000000000006</ele><time>2026-04-18T14:11:34Z</time></trkpt><trkpt lat="43.247091957714005" lon="10.75609853283319"><ele>462.0</ele><time>2026-04-18T14:11:36Z</time></trkpt><trkpt lat="43.24706558529546" lon="10.755962031883596"><ele>462.0</ele><time>2026-04-18T14:11:38Z</time></trkpt><trkpt lat="43.24711485570135" lon="10.755829208551978"><ele>460.8</ele><time>2026-04-18T14:11:40Z</time></trkpt><trkpt lat="43.247204473128086" lon="10.755741900933455"><ele>459.6</ele><time>2026-04-18T14:11:42Z</time></trkpt><trkpt lat="43.24725970296651" lon="10.755698591943847"><ele>458.40000000000003</ele><time>2026-04-18T14:11:43Z</time></trkpt><trkpt lat="43.24736077807388" lon="10.75557361194811"><ele>457.20000000000005</ele><time>2026-04-18T14:11:45Z</time></trkpt><trkpt lat="43.24741835396521" lon="10.755513733044937"><ele>456.0</ele><time>2026-04-18T14:11:46Z</time></trkpt><trkpt lat="43.24748193352706" lon="10.75543542945804"><ele>458.20000000000005</ele><time>2026-04-18T14:11:47Z</time></trkpt><trkpt lat="43.24756474789402" lon="10.75535978584598"><ele>460.40000000000003</ele><time>2026-04-18T14:11:48Z</time></trkpt><trkpt lat="43.247643802796354" lon="10.755283744152631"><ele>462.6</ele><time>2026-04-18T14:11:49Z</time></trkpt><trkpt lat="43.24772200653209" lon="10.755225664208375"><ele>464.8</ele><time>2026-04-18T14:11:50Z</time></trkpt><trkpt lat="43.24779451417864" lon="10.75515948059496"><ele>467.0</ele><time>2026-04-18T14:11:51Z</time></trkpt><trkpt lat="43.24785015189043" lon="10.75506446064108"><ele>467.0</ele><time>2026-04-18T14:11:52Z</time></trkpt><trkpt lat="43.24789432447824" lon="10.754934913578152"><ele>467.00000000000006</ele><time>2026-04-18T14:11:53Z</time></trkpt><trkpt lat="43.24795112340025" lon="10.754823432756465"><ele>467.00000000000006</ele><time>2026-04-18T14:11:54Z</time></trkpt><trkpt lat="43.24801745260886" lon="10.754714154379277"><ele>467.0</ele><time>2026-04-18T14:11:55Z</time></trkpt><trkpt lat="43.248077685012916" lon="10.75460402823983"><ele>467.0</ele><time>2026-04-18T14:11:56Z</time></trkpt><trkpt lat="43.2481258093366" lon="10.75449609499478"><ele>467.6</ele><time>2026-04-18T14:11:57Z</time></trkpt><trkpt lat="43.2481715042967" lon="10.754368275923447"><ele>468.20000000000005</ele><time>2026-04-18T14:11:58Z</time></trkpt><trkpt lat="43.2482116369235" lon="10.754242212094658"><ele>468.8</ele><time>2026-04-18T14:11:59Z</time></trkpt><trkpt lat="43.24824827271764" lon="10.75411972403205"><ele>469.4</ele><time>2026-04-18T14:12:00Z</time></trkpt><trkpt lat="43.24827024288094" lon="10.753990561934039"><ele>470.0</ele><time>2026-04-18T14:12:01Z</time></trkpt><trkpt lat="43.248286199115796" lon="10.753864314236345"><ele>470.0</ele><time>2026-04-18T14:12:02Z</time></trkpt><trkpt lat="43.24830947971657" lon="10.753735805052708"><ele>470.0</ele><time>2026-04-18T14:12:03Z</time></trkpt><trkpt lat="43.248334677827636" lon="10.753616472889824"><ele>470.0</ele><time>2026-04-18T14:12:04Z</time></trkpt><trkpt lat="43.24836428629269" lon="10.753494327988063"><ele>470.0</ele><time>2026-04-18T14:12:05Z</time></trkpt><trkpt lat="43.24840435255516" lon="10.753408367289373"><ele>470.0</ele><time>2026-04-18T14:12:06Z</time></trkpt><trkpt lat="43.24844405894707" lon="10.753286905301342"><ele>471.8333333333333</ele><time>2026-04-18T14:12:07Z</time></trkpt><trkpt lat="43.24848091172605" lon="10.75317483420017"><ele>473.66666666666663</ele><time>2026-04-18T14:12:08Z</time></trkpt><trkpt lat="43.248508431452755" lon="10.753065950186075"><ele>475.5</ele><time>2026-04-18T14:12:09Z</time></trkpt><trkpt lat="43.24852575572441" lon="10.75295405227191"><ele>477.33333333333337</ele><time>2026-04-18T14:12:10.001Z</time></trkpt><trkpt lat="43.24853422672365" lon="10.752829007220521"><ele>479.1666666666667</ele><time>2026-04-18T14:12:11.001Z</time></trkpt><trkpt lat="43.248541756799575" lon="10.752709053781164"><ele>481.0</ele><time>2026-04-18T14:12:12.001Z</time></trkpt><trkpt lat="43.24855890537662" lon="10.752571771824565"><ele>481.6666666666667</ele><time>2026-04-18T14:12:13.001Z</time></trkpt><trkpt lat="43.248566101811655" lon="10.752439444395161"><ele>482.33333333333337</ele><time>2026-04-18T14:12:14.001Z</time></trkpt><trkpt lat="43.24855816746577" lon="10.752313636384809"><ele>483.0</ele><time>2026-04-18T14:12:15.001Z</time></trkpt><trkpt lat="43.248565271153474" lon="10.75219827137209"><ele>483.66666666666663</ele><time>2026-04-18T14:12:16.001Z</time></trkpt><trkpt lat="43.248569481770836" lon="10.752094052234579"><ele>484.3333333333333</ele><time>2026-04-18T14:12:17.001Z</time></trkpt><trkpt lat="43.24856823468018" lon="10.751980281160696"><ele>485.0</ele><time>2026-04-18T14:12:18.001Z</time></trkpt><trkpt lat="43.248563613335754" lon="10.751860983873451"><ele>484.99999999999994</ele><time>2026-04-18T14:12:19.001Z</time></trkpt><trkpt lat="43.24853960672812" lon="10.75174429126974"><ele>485.0</ele><time>2026-04-18T14:12:20.001Z</time></trkpt><trkpt lat="43.248500271357535" lon="10.751623396498085"><ele>485.0</ele><time>2026-04-18T14:12:21.001Z</time></trkpt><trkpt lat="43.24848034285682" lon="10.751512557088834"><ele>485.0</ele><time>2026-04-18T14:12:22.001Z</time></trkpt><trkpt lat="43.2484912997233" lon="10.751390707120386"><ele>484.99999999999994</ele><time>2026-04-18T14:12:23.001Z</time></trkpt><trkpt lat="43.248514033979895" lon="10.751281240817246"><ele>485.0</ele><time>2026-04-18T14:12:24.001Z</time></trkpt><trkpt lat="43.248544065426145" lon="10.751165434906865"><ele>485.0</ele><time>2026-04-18T14:12:25.001Z</time></trkpt><trkpt lat="43.24857065376749" lon="10.751045029561995"><ele>485.0</ele><time>2026-04-18T14:12:26.001Z</time></trkpt><trkpt lat="43.248597797982306" lon="10.750927184132742"><ele>485.0</ele><time>2026-04-18T14:12:27.001Z</time></trkpt><trkpt lat="43.24862000328031" lon="10.750798484114869"><ele>485.0</ele><time>2026-04-18T14:12:28.001Z</time></trkpt><trkpt lat="43.2486441081914" lon="10.75067361017824"><ele>485.0</ele><time>2026-04-18T14:12:29.001Z</time></trkpt><trkpt lat="43.24865937818689" lon="10.750534960768372"><ele>485.0</ele><time>2026-04-18T14:12:30.001Z</time></trkpt><trkpt lat="43.248669184413885" lon="10.750398630581426"><ele>485.0</ele><time>2026-04-18T14:12:31.001Z</time></trkpt><trkpt lat="43.24867210725041" lon="10.750266423471688"><ele>485.0</ele><time>2026-04-18T14:12:32.001Z</time></trkpt><trkpt lat="43.24866409693195" lon="10.75013850140904"><ele>485.0</ele><time>2026-04-18T14:12:33.001Z</time></trkpt><trkpt lat="43.24866351444285" lon="10.750018040200906"><ele>485.0</ele><time>2026-04-18T14:12:34.001Z</time></trkpt><trkpt lat="43.24865971680319" lon="10.749895432062356"><ele>484.99999999999994</ele><time>2026-04-18T14:12:35.001Z</time></trkpt><trkpt lat="43.24866555674879" lon="10.749780310159688"><ele>485.0</ele><time>2026-04-18T14:12:36.001Z</time></trkpt><trkpt lat="43.24866223316361" lon="10.7496616190137"><ele>485.0</ele><time>2026-04-18T14:12:37.001Z</time></trkpt><trkpt lat="43.24866545751428" lon="10.749552081822726"><ele>485.0</ele><time>2026-04-18T14:12:38.001Z</time></trkpt><trkpt lat="43.248658624327796" lon="10.749434625711356"><ele>484.99999999999994</ele><time>2026-04-18T14:12:39.001Z</time></trkpt><trkpt lat="43.24864135001994" lon="10.749308791002738"><ele>485.0</ele><time>2026-04-18T14:12:40.001Z</time></trkpt><trkpt lat="43.24861298769208" lon="10.749177552433595"><ele>485.2</ele><time>2026-04-18T14:12:41.001Z</time></trkpt><trkpt lat="43.24858506262328" lon="10.749048770919789"><ele>485.4</ele><time>2026-04-18T14:12:42.001Z</time></trkpt><trkpt lat="43.24856121930537" lon="10.748922122633113"><ele>485.6</ele><time>2026-04-18T14:12:43.001Z</time></trkpt><trkpt lat="43.24853867995588" lon="10.7487865324312"><ele>485.8</ele><time>2026-04-18T14:12:44.001Z</time></trkpt><trkpt lat="43.2485061938827" lon="10.748664412449477"><ele>486.0</ele><time>2026-04-18T14:12:45.001Z</time></trkpt><trkpt lat="43.248463240616815" lon="10.748564023727312"><ele>486.57142857142856</ele><time>2026-04-18T14:12:46.001Z</time></trkpt><trkpt lat="43.24841274443437" lon="10.748467902927404"><ele>487.14285714285717</ele><time>2026-04-18T14:12:47.001Z</time></trkpt><trkpt lat="43.248383003723504" lon="10.748382288316087"><ele>487.7142857142857</ele><time>2026-04-18T14:12:48.001Z</time></trkpt><trkpt lat="43.24837761933739" lon="10.748289306974485"><ele>488.2857142857143</ele><time>2026-04-18T14:12:49.001Z</time></trkpt><trkpt lat="43.24840085455972" lon="10.74820610020284"><ele>488.8571428571429</ele><time>2026-04-18T14:12:50.001Z</time></trkpt><trkpt lat="43.248453736823926" lon="10.748153082539398"><ele>489.42857142857144</ele><time>2026-04-18T14:12:51.001Z</time></trkpt><trkpt lat="43.24851952651403" lon="10.74814854465929"><ele>490.0</ele><time>2026-04-18T14:12:52.001Z</time></trkpt><trkpt lat="43.2486319788566" lon="10.748210062071594"><ele>490.0</ele><time>2026-04-18T14:12:54.001Z</time></trkpt><trkpt lat="43.24873931763745" lon="10.748293180495134"><ele>490.0</ele><time>2026-04-18T14:12:56.001Z</time></trkpt><trkpt lat="43.248812867065986" lon="10.748338734389428"><ele>490.0</ele><time>2026-04-18T14:12:57.001Z</time></trkpt><trkpt lat="43.24888697927653" lon="10.748387217572697"><ele>490.0</ele><time>2026-04-18T14:12:58.001Z</time></trkpt><trkpt lat="43.24896233726858" lon="10.748445632740943"><ele>490.0</ele><time>2026-04-18T14:12:59.002Z</time></trkpt><trkpt lat="43.24902531142695" lon="10.748511778263007"><ele>490.83333333333337</ele><time>2026-04-18T14:13:00.002Z</time></trkpt><trkpt lat="43.249087926194015" lon="10.74857827722781"><ele>491.6666666666667</ele><time>2026-04-18T14:13:01.002Z</time></trkpt><trkpt lat="43.24914819167088" lon="10.748639230859421"><ele>492.5</ele><time>2026-04-18T14:13:02.002Z</time></trkpt><trkpt lat="43.249214276526914" lon="10.748691443029825"><ele>493.33333333333337</ele><time>2026-04-18T14:13:03.002Z</time></trkpt><trkpt lat="43.24928362733905" lon="10.748759997630724"><ele>494.1666666666667</ele><time>2026-04-18T14:13:04.002Z</time></trkpt><trkpt lat="43.249349827239556" lon="10.748785465201111"><ele>495.0</ele><time>2026-04-18T14:13:05.002Z</time></trkpt><trkpt lat="43.24943088434019" lon="10.748795796957063"><ele>495.0</ele><time>2026-04-18T14:13:06.002Z</time></trkpt><trkpt lat="43.24950810253945" lon="10.74878366216496"><ele>495.0</ele><time>2026-04-18T14:13:07.002Z</time></trkpt><trkpt lat="43.249654473290086" lon="10.74879241138016"><ele>495.0</ele><time>2026-04-18T14:13:09.002Z</time></trkpt><trkpt lat="43.2497354565182" lon="10.74876176885815"><ele>495.0</ele><time>2026-04-18T14:13:10.002Z</time></trkpt><trkpt lat="43.2498142926144" lon="10.74873398086995"><ele>495.0</ele><time>2026-04-18T14:13:11.002Z</time></trkpt><trkpt lat="43.24990017186503" lon="10.748712148685328"><ele>494.5714285714285</ele><time>2026-04-18T14:13:12.002Z</time></trkpt><trkpt lat="43.24997872809462" lon="10.748684610251336"><ele>494.1428571428571</ele><time>2026-04-18T14:13:13.002Z</time></trkpt><trkpt lat="43.250056304180596" lon="10.748667271577807"><ele>493.7142857142857</ele><time>2026-04-18T14:13:14.002Z</time></trkpt><trkpt lat="43.25012337472712" lon="10.74863167219754"><ele>493.2857142857143</ele><time>2026-04-18T14:13:15.002Z</time></trkpt><trkpt lat="43.25018128447949" lon="10.748586809790945"><ele>492.8571428571429</ele><time>2026-04-18T14:13:16.002Z</time></trkpt><trkpt lat="43.25023438312689" lon="10.74853826838833"><ele>492.4285714285715</ele><time>2026-04-18T14:13:17.002Z</time></trkpt><trkpt lat="43.25028995874987" lon="10.748475956023873"><ele>492.00000000000006</ele><time>2026-04-18T14:13:18.002Z</time></trkpt><trkpt lat="43.25034415146604" lon="10.748417624567528"><ele>492.0</ele><time>2026-04-18T14:13:19.002Z</time></trkpt><trkpt lat="43.25040620461333" lon="10.748372824383262"><ele>492.0</ele><time>2026-04-18T14:13:20.002Z</time></trkpt><trkpt lat="43.250479214662406" lon="10.748342599019514"><ele>492.0</ele><time>2026-04-18T14:13:21.002Z</time></trkpt><trkpt lat="43.25055092123937" lon="10.748308117775998"><ele>492.0</ele><time>2026-04-18T14:13:22.002Z</time></trkpt><trkpt lat="43.2506125963791" lon="10.748261632397302"><ele>492.0</ele><time>2026-04-18T14:13:23.002Z</time></trkpt><trkpt lat="43.2506759949637" lon="10.748141844557802"><ele>492.0</ele><time>2026-04-18T14:13:25.002Z</time></trkpt><trkpt lat="43.25072759575496" lon="10.748055092827535"><ele>492.0</ele><time>2026-04-18T14:13:26.002Z</time></trkpt><trkpt lat="43.250758304842186" lon="10.747963919072074"><ele>492.0</ele><time>2026-04-18T14:13:27.002Z</time></trkpt><trkpt lat="43.25078441653633" lon="10.747850049824173"><ele>492.0</ele><time>2026-04-18T14:13:28.002Z</time></trkpt><trkpt lat="43.250790330311254" lon="10.747748363773903"><ele>492.0</ele><time>2026-04-18T14:13:29.002Z</time></trkpt><trkpt lat="43.2508325567659" lon="10.747644722423045"><ele>492.0</ele><time>2026-04-18T14:13:30.002Z</time></trkpt><trkpt lat="43.250865313990644" lon="10.747539489973589"><ele>492.0</ele><time>2026-04-18T14:13:31.002Z</time></trkpt><trkpt lat="43.25091756335289" lon="10.747434535304853"><ele>492.00000000000006</ele><time>2026-04-18T14:13:32Z</time></trkpt><trkpt lat="43.25096846824461" lon="10.747354571251318"><ele>492.0</ele><time>2026-04-18T14:13:33Z</time></trkpt><trkpt lat="43.25101467642771" lon="10.747272792406049"><ele>492.00000000000006</ele><time>2026-04-18T14:13:34Z</time></trkpt><trkpt lat="43.251064680437665" lon="10.747205319818843"><ele>492.00000000000006</ele><time>2026-04-18T14:13:35Z</time></trkpt><trkpt lat="43.25110768764107" lon="10.747131350047187"><ele>492.0</ele><time>2026-04-18T14:13:36Z</time></trkpt><trkpt lat="43.25116403332572" lon="10.747066021894925"><ele>492.00000000000006</ele><time>2026-04-18T14:13:37Z</time></trkpt><trkpt lat="43.25121543433733" lon="10.746984218260373"><ele>492.00000000000006</ele><time>2026-04-18T14:13:38Z</time></trkpt><trkpt lat="43.25126316612669" lon="10.746914024936174"><ele>492.40000000000003</ele><time>2026-04-18T14:13:39Z</time></trkpt><trkpt lat="43.25131860676517" lon="10.746842329883243"><ele>492.80000000000007</ele><time>2026-04-18T14:13:40Z</time></trkpt><trkpt lat="43.251371284945364" lon="10.746753401670524"><ele>493.2</ele><time>2026-04-18T14:13:41Z</time></trkpt><trkpt lat="43.251412542377224" lon="10.746654527070973"><ele>493.6</ele><time>2026-04-18T14:13:42Z</time></trkpt><trkpt lat="43.25148387632725" lon="10.746488214922183"><ele>494.0</ele><time>2026-04-18T14:13:44Z</time></trkpt><trkpt lat="43.25153571678981" lon="10.746399243355476"><ele>493.99999999999994</ele><time>2026-04-18T14:13:45Z</time></trkpt><trkpt lat="43.25159994258619" lon="10.746335087202352"><ele>494.0</ele><time>2026-04-18T14:13:46Z</time></trkpt><trkpt lat="43.251698578528824" lon="10.746322147515247"><ele>494.0</ele><time>2026-04-18T14:13:48Z</time></trkpt><trkpt lat="43.251754070525706" lon="10.74636480970177"><ele>494.0</ele><time>2026-04-18T14:13:49Z</time></trkpt><trkpt lat="43.25184106080081" lon="10.746474389882042"><ele>493.99999999999994</ele><time>2026-04-18T14:13:51Z</time></trkpt><trkpt lat="43.251877245020715" lon="10.746553374354818"><ele>494.0</ele><time>2026-04-18T14:13:52Z</time></trkpt><trkpt lat="43.25192410729886" lon="10.746625326584693"><ele>494.0</ele><time>2026-04-18T14:13:53Z</time></trkpt><trkpt lat="43.25198103210884" lon="10.746685209230057"><ele>494.0</ele><time>2026-04-18T14:13:54Z</time></trkpt><trkpt lat="43.252022014848464" lon="10.746753605656554"><ele>494.0</ele><time>2026-04-18T14:13:55Z</time></trkpt><trkpt lat="43.252062392364444" lon="10.746848791053957"><ele>494.0</ele><time>2026-04-18T14:13:56Z</time></trkpt><trkpt lat="43.25209452439503" lon="10.74693897328202"><ele>494.0</ele><time>2026-04-18T14:13:57Z</time></trkpt><trkpt lat="43.25215221500858" lon="10.747015289429752"><ele>494.0</ele><time>2026-04-18T14:13:58Z</time></trkpt><trkpt lat="43.25221528324577" lon="10.747074011694256"><ele>494.0</ele><time>2026-04-18T14:13:59Z</time></trkpt><trkpt lat="43.25230010654539" lon="10.747129642937358"><ele>494.66666666666663</ele><time>2026-04-18T14:14:00Z</time></trkpt><trkpt lat="43.25237475439098" lon="10.747167575785516"><ele>495.3333333333333</ele><time>2026-04-18T14:14:01Z</time></trkpt><trkpt lat="43.25244939638551" lon="10.747222784844887"><ele>496.0</ele><time>2026-04-18T14:14:02Z</time></trkpt><trkpt lat="43.252523540195305" lon="10.747245177541252"><ele>496.66666666666663</ele><time>2026-04-18T14:14:03Z</time></trkpt><trkpt lat="43.252592952687955" lon="10.747261076956567"><ele>497.3333333333333</ele><time>2026-04-18T14:14:04Z</time></trkpt><trkpt lat="43.25266834787079" lon="10.747230648490707"><ele>498.0</ele><time>2026-04-18T14:14:05Z</time></trkpt><trkpt lat="43.2527352192359" lon="10.747200176833923"><ele>498.0</ele><time>2026-04-18T14:14:06Z</time></trkpt><trkpt lat="43.252799022955834" lon="10.747177794190737"><ele>497.99999999999994</ele><time>2026-04-18T14:14:07Z</time></trkpt><trkpt lat="43.25290904994567" lon="10.747157659232686"><ele>497.99999999999994</ele><time>2026-04-18T14:14:09Z</time></trkpt><trkpt lat="43.252995646308236" lon="10.747274044363532"><ele>498.0</ele><time>2026-04-18T14:14:11Z</time></trkpt><trkpt lat="43.253034284353454" lon="10.747425842238242"><ele>498.0</ele><time>2026-04-18T14:14:13Z</time></trkpt><trkpt lat="43.25305303752414" lon="10.747509988013503"><ele>498.0</ele><time>2026-04-18T14:14:14Z</time></trkpt><trkpt lat="43.253073717610285" lon="10.747605392780882"><ele>497.99999999999994</ele><time>2026-04-18T14:14:15Z</time></trkpt><trkpt lat="43.25309773705403" lon="10.747695205285048"><ele>498.0</ele><time>2026-04-18T14:14:16Z</time></trkpt><trkpt lat="43.253116587790885" lon="10.747792876446841"><ele>498.0</ele><time>2026-04-18T14:14:17.001Z</time></trkpt><trkpt lat="43.25314091677587" lon="10.747891146013549"><ele>497.99999999999994</ele><time>2026-04-18T14:14:18.001Z</time></trkpt><trkpt lat="43.25317171953442" lon="10.747989136524335"><ele>498.0</ele><time>2026-04-18T14:14:19.001Z</time></trkpt><trkpt lat="43.2532087329617" lon="10.748065862728227"><ele>498.0</ele><time>2026-04-18T14:14:20.001Z</time></trkpt><trkpt lat="43.25326147081642" lon="10.748130454347207"><ele>495.6666666666667</ele><time>2026-04-18T14:14:21.001Z</time></trkpt><trkpt lat="43.253375027506806" lon="10.748219117355966"><ele>493.33333333333337</ele><time>2026-04-18T14:14:23.001Z</time></trkpt><trkpt lat="43.25344312759274" lon="10.748252086841083"><ele>491.0</ele><time>2026-04-18T14:14:24.001Z</time></trkpt><trkpt lat="43.2535133126826" lon="10.748286200979463"><ele>488.6666666666667</ele><time>2026-04-18T14:14:25.001Z</time></trkpt><trkpt lat="43.25358381771601" lon="10.748319634695656"><ele>486.33333333333337</ele><time>2026-04-18T14:14:26.001Z</time></trkpt><trkpt lat="43.2536467860667" lon="10.748350430321503"><ele>484.0</ele><time>2026-04-18T14:14:27.001Z</time></trkpt><trkpt lat="43.25369920154521" lon="10.748401387792246"><ele>484.0</ele><time>2026-04-18T14:14:28.001Z</time></trkpt><trkpt lat="43.25372537298998" lon="10.748480364674974"><ele>483.99999999999994</ele><time>2026-04-18T14:14:29.001Z</time></trkpt><trkpt lat="43.25374304957989" lon="10.748566404299716"><ele>484.0</ele><time>2026-04-18T14:14:30.001Z</time></trkpt><trkpt lat="43.25375450489768" lon="10.74866239751801"><ele>484.0</ele><time>2026-04-18T14:14:31.001Z</time></trkpt><trkpt lat="43.25374961528652" lon="10.748759905509628"><ele>483.99999999999994</ele><time>2026-04-18T14:14:32.001Z</time></trkpt><trkpt lat="43.25375632823773" lon="10.748849602872186"><ele>484.0</ele><time>2026-04-18T14:14:33.001Z</time></trkpt><trkpt lat="43.25376050792562" lon="10.748956067699691"><ele>484.0</ele><time>2026-04-18T14:14:34.001Z</time></trkpt><trkpt lat="43.253769539941594" lon="10.7490555006992"><ele>484.1666666666667</ele><time>2026-04-18T14:14:35.001Z</time></trkpt><trkpt lat="43.25378840051707" lon="10.749156235114366"><ele>484.33333333333337</ele><time>2026-04-18T14:14:36.001Z</time></trkpt><trkpt lat="43.25382002981231" lon="10.749243463526264"><ele>484.5</ele><time>2026-04-18T14:14:37.001Z</time></trkpt><trkpt lat="43.253866377725195" lon="10.74933895619034"><ele>484.66666666666663</ele><time>2026-04-18T14:14:38.001Z</time></trkpt><trkpt lat="43.253919882025485" lon="10.74939988244818"><ele>484.8333333333333</ele><time>2026-04-18T14:14:39.001Z</time></trkpt><trkpt lat="43.25402853469385" lon="10.749503397191292"><ele>485.0</ele><time>2026-04-18T14:14:41.001Z</time></trkpt><trkpt lat="43.25408704940991" lon="10.749536087922417"><ele>485.2</ele><time>2026-04-18T14:14:42.001Z</time></trkpt><trkpt lat="43.25418747919602" lon="10.749614572798237"><ele>485.4</ele><time>2026-04-18T14:14:44.001Z</time></trkpt><trkpt lat="43.25425094632078" lon="10.749720984949239"><ele>485.6</ele><time>2026-04-18T14:14:46.001Z</time></trkpt><trkpt lat="43.25431055459925" lon="10.749838057882927"><ele>485.8</ele><time>2026-04-18T14:14:48.001Z</time></trkpt><trkpt lat="43.254411296645536" lon="10.74988691586757"><ele>486.0</ele><time>2026-04-18T14:14:50.001Z</time></trkpt><trkpt lat="43.254515600762375" lon="10.749915670508237"><ele>486.0</ele><time>2026-04-18T14:14:52.001Z</time></trkpt><trkpt lat="43.25461570429214" lon="10.749933368271723"><ele>486.0</ele><time>2026-04-18T14:14:54.001Z</time></trkpt><trkpt lat="43.25468230141385" lon="10.7499324120655"><ele>486.0</ele><time>2026-04-18T14:14:55.001Z</time></trkpt><trkpt lat="43.2547509117868" lon="10.749928687847163"><ele>486.0</ele><time>2026-04-18T14:14:56.001Z</time></trkpt><trkpt lat="43.25482465651417" lon="10.749927322583641"><ele>486.0</ele><time>2026-04-18T14:14:57.001Z</time></trkpt><trkpt lat="43.25495397647494" lon="10.749939230629902"><ele>486.0</ele><time>2026-04-18T14:14:59.001Z</time></trkpt><trkpt lat="43.25501958139672" lon="10.749968472668288"><ele>484.1666666666667</ele><time>2026-04-18T14:15:00.001Z</time></trkpt><trkpt lat="43.255115653698" lon="10.749919994308664"><ele>482.33333333333337</ele><time>2026-04-18T14:15:02.001Z</time></trkpt><trkpt lat="43.255249218069984" lon="10.749900284583537"><ele>480.5</ele><time>2026-04-18T14:15:04.001Z</time></trkpt><trkpt lat="43.25531889004359" lon="10.749881885902703"><ele>478.6666666666667</ele><time>2026-04-18T14:15:05.001Z</time></trkpt><trkpt lat="43.255383797174005" lon="10.749855976291801"><ele>476.83333333333337</ele><time>2026-04-18T14:15:06.001Z</time></trkpt><trkpt lat="43.25544957422499" lon="10.749828332798266"><ele>475.0</ele><time>2026-04-18T14:15:07.002Z</time></trkpt><trkpt lat="43.25551502055705" lon="10.749816955617964"><ele>475.0</ele><time>2026-04-18T14:15:08.002Z</time></trkpt><trkpt lat="43.255579126685575" lon="10.74983168684665"><ele>475.00000000000006</ele><time>2026-04-18T14:15:09.002Z</time></trkpt><trkpt lat="43.25564386129224" lon="10.749891848861683"><ele>475.0</ele><time>2026-04-18T14:15:10.002Z</time></trkpt><trkpt lat="43.25569249084018" lon="10.749963741015076"><ele>475.0</ele><time>2026-04-18T14:15:11.002Z</time></trkpt><trkpt lat="43.255729538801624" lon="10.750046649858382"><ele>475.00000000000006</ele><time>2026-04-18T14:15:12.002Z</time></trkpt><trkpt lat="43.25577412391838" lon="10.750124092446073"><ele>475.0</ele><time>2026-04-18T14:15:13.002Z</time></trkpt><trkpt lat="43.25580677335174" lon="10.75020817369084"><ele>475.0</ele><time>2026-04-18T14:15:14.002Z</time></trkpt><trkpt lat="43.25589419002754" lon="10.750324229136325"><ele>474.0</ele><time>2026-04-18T14:15:16.002Z</time></trkpt><trkpt lat="43.25600310543669" lon="10.750396940678403"><ele>473.0</ele><time>2026-04-18T14:15:18.002Z</time></trkpt><trkpt lat="43.2561192191378" lon="10.750434474811971"><ele>472.0</ele><time>2026-04-18T14:15:20.002Z</time></trkpt><trkpt lat="43.2562386135424" lon="10.75052779151719"><ele>471.0</ele><time>2026-04-18T14:15:22.002Z</time></trkpt><trkpt lat="43.25630896235409" lon="10.750673281572828"><ele>471.0</ele><time>2026-04-18T14:15:24.002Z</time></trkpt><trkpt lat="43.256350892716775" lon="10.750762553392839"><ele>471.0</ele><time>2026-04-18T14:15:25.002Z</time></trkpt><trkpt lat="43.25639382694042" lon="10.750856322394975"><ele>471.0</ele><time>2026-04-18T14:15:26.002Z</time></trkpt><trkpt lat="43.256433496655774" lon="10.750930721047034"><ele>471.0</ele><time>2026-04-18T14:15:27.002Z</time></trkpt><trkpt lat="43.25647426432563" lon="10.751011600605672"><ele>471.0</ele><time>2026-04-18T14:15:28.002Z</time></trkpt><trkpt lat="43.25652322621563" lon="10.751104471863162"><ele>471.0</ele><time>2026-04-18T14:15:29.002Z</time></trkpt><trkpt lat="43.25656413803861" lon="10.751186328339305"><ele>469.8571428571429</ele><time>2026-04-18T14:15:30.002Z</time></trkpt><trkpt lat="43.256616573751" lon="10.751262925232586"><ele>468.7142857142857</ele><time>2026-04-18T14:15:31.002Z</time></trkpt><trkpt lat="43.256663993382496" lon="10.751342069795959"><ele>467.57142857142856</ele><time>2026-04-18T14:15:32.002Z</time></trkpt><trkpt lat="43.25671063905189" lon="10.75142276875618"><ele>466.42857142857144</ele><time>2026-04-18T14:15:33.002Z</time></trkpt><trkpt lat="43.25675274974237" lon="10.751504555844846"><ele>465.2857142857142</ele><time>2026-04-18T14:15:34.002Z</time></trkpt><trkpt lat="43.25679180450463" lon="10.751595454158426"><ele>464.1428571428571</ele><time>2026-04-18T14:15:35.002Z</time></trkpt><trkpt lat="43.25683312866485" lon="10.75167238426179"><ele>463.0</ele><time>2026-04-18T14:15:36.002Z</time></trkpt><trkpt lat="43.2568907324194" lon="10.7517448139396"><ele>463.00000000000006</ele><time>2026-04-18T14:15:37.002Z</time></trkpt><trkpt lat="43.25696297554773" lon="10.751806629177683"><ele>463.0</ele><time>2026-04-18T14:15:38Z</time></trkpt><trkpt lat="43.25702508924678" lon="10.751862017599755"><ele>463.0</ele><time>2026-04-18T14:15:39Z</time></trkpt><trkpt lat="43.257091505036236" lon="10.751919459455435"><ele>463.0</ele><time>2026-04-18T14:15:40Z</time></trkpt><trkpt lat="43.25715688257026" lon="10.751963803981555"><ele>463.00000000000006</ele><time>2026-04-18T14:15:41Z</time></trkpt><trkpt lat="43.257218875050704" lon="10.75200344547916"><ele>463.0</ele><time>2026-04-18T14:15:42Z</time></trkpt><trkpt lat="43.25728626078056" lon="10.752048153027093"><ele>462.6666666666667</ele><time>2026-04-18T14:15:43Z</time></trkpt><trkpt lat="43.25735884264062" lon="10.752083928186888"><ele>462.33333333333337</ele><time>2026-04-18T14:15:44Z</time></trkpt><trkpt lat="43.257434699522314" lon="10.752137704643102"><ele>462.0</ele><time>2026-04-18T14:15:45Z</time></trkpt><trkpt lat="43.25750556721785" lon="10.75219388467238"><ele>461.66666666666663</ele><time>2026-04-18T14:15:46Z</time></trkpt><trkpt lat="43.257558502631326" lon="10.752252085148992"><ele>461.3333333333333</ele><time>2026-04-18T14:15:47Z</time></trkpt><trkpt lat="43.25762085113903" lon="10.752309586184843"><ele>461.0</ele><time>2026-04-18T14:15:48Z</time></trkpt><trkpt lat="43.257681191693074" lon="10.752361092279994"><ele>460.99999999999994</ele><time>2026-04-18T14:15:49Z</time></trkpt><trkpt lat="43.25779929041151" lon="10.752415920210233"><ele>461.0</ele><time>2026-04-18T14:15:51Z</time></trkpt><trkpt lat="43.257887668943596" lon="10.752404096124343"><ele>461.0</ele><time>2026-04-18T14:15:53Z</time></trkpt><trkpt lat="43.257967777889135" lon="10.752402932546522"><ele>461.0</ele><time>2026-04-18T14:15:54Z</time></trkpt><trkpt lat="43.258039192002244" lon="10.75239714874011"><ele>460.99999999999994</ele><time>2026-04-18T14:15:55Z</time></trkpt><trkpt lat="43.25811828106244" lon="10.752377101916435"><ele>461.0</ele><time>2026-04-18T14:15:56Z</time></trkpt><trkpt lat="43.25818804308226" lon="10.752365012038698"><ele>461.8333333333333</ele><time>2026-04-18T14:15:57Z</time></trkpt><trkpt lat="43.2582697863073" lon="10.752348690374662"><ele>462.66666666666663</ele><time>2026-04-18T14:15:58Z</time></trkpt><trkpt lat="43.25834492653782" lon="10.752332619362454"><ele>463.5</ele><time>2026-04-18T14:15:59Z</time></trkpt><trkpt lat="43.2584088218635" lon="10.752309593401518"><ele>464.33333333333337</ele><time>2026-04-18T14:16:00Z</time></trkpt><trkpt lat="43.25847936375191" lon="10.752276829618499"><ele>465.1666666666667</ele><time>2026-04-18T14:16:01Z</time></trkpt><trkpt lat="43.25854511022776" lon="10.752234993308829"><ele>466.0</ele><time>2026-04-18T14:16:02Z</time></trkpt><trkpt lat="43.25861720834118" lon="10.75219182788535"><ele>466.00000000000006</ele><time>2026-04-18T14:16:03Z</time></trkpt><trkpt lat="43.2586900067056" lon="10.752149154210244"><ele>466.0</ele><time>2026-04-18T14:16:04Z</time></trkpt><trkpt lat="43.25876602440848" lon="10.75210207243819"><ele>466.0</ele><time>2026-04-18T14:16:05Z</time></trkpt><trkpt lat="43.25883699379878" lon="10.752056503918308"><ele>466.0</ele><time>2026-04-18T14:16:06Z</time></trkpt><trkpt lat="43.25891101938349" lon="10.752009720450898"><ele>466.00000000000006</ele><time>2026-04-18T14:16:07Z</time></trkpt><trkpt lat="43.25898517547966" lon="10.751963786396056"><ele>466.0</ele><time>2026-04-18T14:16:08Z</time></trkpt><trkpt lat="43.25906111031119" lon="10.75194160935857"><ele>465.8571428571429</ele><time>2026-04-18T14:16:09Z</time></trkpt><trkpt lat="43.25912913392789" lon="10.751960025067916"><ele>465.71428571428567</ele><time>2026-04-18T14:16:10Z</time></trkpt><trkpt lat="43.259190104461084" lon="10.751937793813207"><ele>465.57142857142856</ele><time>2026-04-18T14:16:11Z</time></trkpt><trkpt lat="43.25925980720114" lon="10.751944665525398"><ele>465.42857142857144</ele><time>2026-04-18T14:16:12Z</time></trkpt><trkpt lat="43.25933279132313" lon="10.751958717497546"><ele>465.28571428571433</ele><time>2026-04-18T14:16:13Z</time></trkpt><trkpt lat="43.25940438675693" lon="10.751977413722475"><ele>465.1428571428571</ele><time>2026-04-18T14:16:14Z</time></trkpt><trkpt lat="43.25947021400163" lon="10.751988402434925"><ele>465.0</ele><time>2026-04-18T14:16:15Z</time></trkpt><trkpt lat="43.25953042356428" lon="10.752023471310672"><ele>465.0</ele><time>2026-04-18T14:16:16Z</time></trkpt><trkpt lat="43.25960317136152" lon="10.752074422922924"><ele>465.0</ele><time>2026-04-18T14:16:17Z</time></trkpt><trkpt lat="43.259655386602304" lon="10.752131658005828"><ele>465.0</ele><time>2026-04-18T14:16:18Z</time></trkpt><trkpt lat="43.259665459602935" lon="10.7522327177038"><ele>465.0</ele><time>2026-04-18T14:16:19Z</time></trkpt><trkpt lat="43.25964874241018" lon="10.752328516082923"><ele>465.0</ele><time>2026-04-18T14:16:20Z</time></trkpt><trkpt lat="43.25961390267979" lon="10.75241663107531"><ele>465.0</ele><time>2026-04-18T14:16:21Z</time></trkpt><trkpt lat="43.25958600584681" lon="10.75251706400363"><ele>465.0</ele><time>2026-04-18T14:16:22.001Z</time></trkpt><trkpt lat="43.25956435002422" lon="10.752629964367529"><ele>463.3333333333333</ele><time>2026-04-18T14:16:23.001Z</time></trkpt><trkpt lat="43.259537801977736" lon="10.75273154017798"><ele>461.66666666666663</ele><time>2026-04-18T14:16:24.001Z</time></trkpt><trkpt lat="43.25951146421811" lon="10.752864244159342"><ele>460.0</ele><time>2026-04-18T14:16:25.001Z</time></trkpt><trkpt lat="43.259482625532954" lon="10.752957530103412"><ele>458.3333333333333</ele><time>2026-04-18T14:16:26.001Z</time></trkpt><trkpt lat="43.2594559221055" lon="10.753043223751147"><ele>456.66666666666663</ele><time>2026-04-18T14:16:27.001Z</time></trkpt><trkpt lat="43.25945303506542" lon="10.753208760861575"><ele>455.0</ele><time>2026-04-18T14:16:29.001Z</time></trkpt><trkpt lat="43.259468498243656" lon="10.753300206711172"><ele>455.0</ele><time>2026-04-18T14:16:30.001Z</time></trkpt><trkpt lat="43.25949047074175" lon="10.753393311674923"><ele>455.0</ele><time>2026-04-18T14:16:31.001Z</time></trkpt><trkpt lat="43.25953632325236" lon="10.753469649762177"><ele>455.0</ele><time>2026-04-18T14:16:32.001Z</time></trkpt><trkpt lat="43.25958142595148" lon="10.753538598476599"><ele>455.0</ele><time>2026-04-18T14:16:33.001Z</time></trkpt><trkpt lat="43.25962829718453" lon="10.753610012582342"><ele>455.0</ele><time>2026-04-18T14:16:34.001Z</time></trkpt><trkpt lat="43.259681479994484" lon="10.753680250743516"><ele>455.0</ele><time>2026-04-18T14:16:35.001Z</time></trkpt><trkpt lat="43.259732452705414" lon="10.753757034803387"><ele>455.0</ele><time>2026-04-18T14:16:36.001Z</time></trkpt><trkpt lat="43.25978651693173" lon="10.753836247830314"><ele>455.49999999999994</ele><time>2026-04-18T14:16:37.001Z</time></trkpt><trkpt lat="43.25984100962968" lon="10.753915229257386"><ele>456.0</ele><time>2026-04-18T14:16:38.001Z</time></trkpt><trkpt lat="43.259901533944735" lon="10.753973712336549"><ele>456.5</ele><time>2026-04-18T14:16:39.001Z</time></trkpt><trkpt lat="43.25998511893882" lon="10.754010398757382"><ele>457.0</ele><time>2026-04-18T14:16:40.001Z</time></trkpt><trkpt lat="43.26006803031824" lon="10.754049981716026"><ele>457.49999999999994</ele><time>2026-04-18T14:16:41.001Z</time></trkpt><trkpt lat="43.26014977955259" lon="10.754090506134803"><ele>458.0</ele><time>2026-04-18T14:16:42.001Z</time></trkpt><trkpt lat="43.26023889595626" lon="10.754115817472943"><ele>457.99999999999994</ele><time>2026-04-18T14:16:43.001Z</time></trkpt><trkpt lat="43.26031140650039" lon="10.754143446737334"><ele>458.0</ele><time>2026-04-18T14:16:44.001Z</time></trkpt><trkpt lat="43.260385657934066" lon="10.754154959585351"><ele>458.0</ele><time>2026-04-18T14:16:45.001Z</time></trkpt><trkpt lat="43.260462501658346" lon="10.754149117245168"><ele>458.0</ele><time>2026-04-18T14:16:46.001Z</time></trkpt><trkpt lat="43.26054212829582" lon="10.754132253823219"><ele>457.99999999999994</ele><time>2026-04-18T14:16:47.001Z</time></trkpt><trkpt lat="43.26061205525376" lon="10.75411291261415"><ele>458.0</ele><time>2026-04-18T14:16:48.001Z</time></trkpt><trkpt lat="43.260689392061806" lon="10.75408758240497"><ele>457.99999999999994</ele><time>2026-04-18T14:16:49.001Z</time></trkpt><trkpt lat="43.26076545141765" lon="10.754052492779085"><ele>458.0</ele><time>2026-04-18T14:16:50.001Z</time></trkpt><trkpt lat="43.26083250632422" lon="10.754009909100034"><ele>458.0</ele><time>2026-04-18T14:16:51.001Z</time></trkpt><trkpt lat="43.2609274175785" lon="10.753922129912837"><ele>458.0</ele><time>2026-04-18T14:16:53.001Z</time></trkpt><trkpt lat="43.260950138889086" lon="10.753834202530884"><ele>457.99999999999994</ele><time>2026-04-18T14:16:54.001Z</time></trkpt><trkpt lat="43.26096855885596" lon="10.753749618385749"><ele>458.0</ele><time>2026-04-18T14:16:55.001Z</time></trkpt><trkpt lat="43.261028313373245" lon="10.753608230443993"><ele>457.99999999999994</ele><time>2026-04-18T14:16:57.001Z</time></trkpt><trkpt lat="43.261144636515674" lon="10.753581205547286"><ele>458.0</ele><time>2026-04-18T14:16:59.001Z</time></trkpt><trkpt lat="43.26121494337407" lon="10.753577244885781"><ele>458.0</ele><time>2026-04-18T14:17:00.001Z</time></trkpt><trkpt lat="43.26128744243741" lon="10.753580548484791"><ele>458.0</ele><time>2026-04-18T14:17:01.001Z</time></trkpt><trkpt lat="43.26135384122004" lon="10.753518447636536"><ele>457.99999999999994</ele><time>2026-04-18T14:17:02.001Z</time></trkpt><trkpt lat="43.26140282177617" lon="10.753460117015903"><ele>458.0</ele><time>2026-04-18T14:17:03.001Z</time></trkpt><trkpt lat="43.26146081746067" lon="10.753394273221915"><ele>459.1428571428571</ele><time>2026-04-18T14:17:04.001Z</time></trkpt><trkpt lat="43.26152079791476" lon="10.75331688933254"><ele>460.28571428571433</ele><time>2026-04-18T14:17:05.001Z</time></trkpt><trkpt lat="43.261561097047725" lon="10.75322749640261"><ele>461.42857142857144</ele><time>2026-04-18T14:17:06.001Z</time></trkpt><trkpt lat="43.26162022936172" lon="10.753151152495958"><ele>462.57142857142856</ele><time>2026-04-18T14:17:07.001Z</time></trkpt><trkpt lat="43.26166743343171" lon="10.753080223678998"><ele>463.71428571428567</ele><time>2026-04-18T14:17:08.001Z</time></trkpt><trkpt lat="43.26171401143668" lon="10.753014422437483"><ele>464.8571428571429</ele><time>2026-04-18T14:17:09.002Z</time></trkpt><trkpt lat="43.261773069483915" lon="10.752975827256991"><ele>466.0</ele><time>2026-04-18T14:17:10.002Z</time></trkpt><trkpt lat="43.26189350569298" lon="10.752997375685286"><ele>466.00000000000006</ele><time>2026-04-18T14:17:12.002Z</time></trkpt><trkpt lat="43.261970700607996" lon="10.753054351830741"><ele>466.0</ele><time>2026-04-18T14:17:13.002Z</time></trkpt><trkpt lat="43.26205379807187" lon="10.75313314472818"><ele>466.0</ele><time>2026-04-18T14:17:14.002Z</time></trkpt><trkpt lat="43.262138569969274" lon="10.75320175664022"><ele>466.0</ele><time>2026-04-18T14:17:15.002Z</time></trkpt><trkpt lat="43.26220498478512" lon="10.753264188247197"><ele>466.00000000000006</ele><time>2026-04-18T14:17:16.002Z</time></trkpt><trkpt lat="43.26227307001297" lon="10.753295907598675"><ele>466.0</ele><time>2026-04-18T14:17:17.002Z</time></trkpt><trkpt lat="43.26234079282263" lon="10.753289479399182"><ele>465.00000000000006</ele><time>2026-04-18T14:17:18.002Z</time></trkpt><trkpt lat="43.26241165717343" lon="10.753258442435095"><ele>464.0</ele><time>2026-04-18T14:17:19.002Z</time></trkpt><trkpt lat="43.26251120761741" lon="10.75318962360501"><ele>463.0</ele><time>2026-04-18T14:17:21.002Z</time></trkpt><trkpt lat="43.26262738161466" lon="10.753181576024451"><ele>462.0</ele><time>2026-04-18T14:17:23.002Z</time></trkpt><trkpt lat="43.26268921704684" lon="10.753215664419407"><ele>461.00000000000006</ele><time>2026-04-18T14:17:24.002Z</time></trkpt><trkpt lat="43.26274289322837" lon="10.753270280667824"><ele>460.0</ele><time>2026-04-18T14:17:25.002Z</time></trkpt><trkpt lat="43.26280553449585" lon="10.753336996675527"><ele>460.00000000000006</ele><time>2026-04-18T14:17:26.002Z</time></trkpt><trkpt lat="43.26287377601954" lon="10.753398981545116"><ele>460.0</ele><time>2026-04-18T14:17:27.002Z</time></trkpt><trkpt lat="43.262953675884205" lon="10.753442044127802"><ele>460.0</ele><time>2026-04-18T14:17:28.002Z</time></trkpt><trkpt lat="43.26304070452651" lon="10.753471814828753"><ele>460.0</ele><time>2026-04-18T14:17:29.002Z</time></trkpt><trkpt lat="43.2631297995356" lon="10.753486502377816"><ele>460.00000000000006</ele><time>2026-04-18T14:17:30.002Z</time></trkpt><trkpt lat="43.26322932271164" lon="10.753498639496781"><ele>460.0</ele><time>2026-04-18T14:17:31.002Z</time></trkpt><trkpt lat="43.26331927215771" lon="10.75352134976529"><ele>457.6666666666667</ele><time>2026-04-18T14:17:32.002Z</time></trkpt><trkpt lat="43.26340352357504" lon="10.75354493503543"><ele>455.33333333333337</ele><time>2026-04-18T14:17:33.002Z</time></trkpt><trkpt lat="43.26348069188848" lon="10.753585749320917"><ele>453.0</ele><time>2026-04-18T14:17:34.002Z</time></trkpt><trkpt lat="43.26355067463511" lon="10.753644458463343"><ele>450.66666666666663</ele><time>2026-04-18T14:17:35.002Z</time></trkpt><trkpt lat="43.26360867074041" lon="10.753750570181474"><ele>448.3333333333333</ele><time>2026-04-18T14:17:36.002Z</time></trkpt><trkpt lat="43.26365998314605" lon="10.753849673630103"><ele>446.0</ele><time>2026-04-18T14:17:37.002Z</time></trkpt><trkpt lat="43.263691738379066" lon="10.753959021862189"><ele>446.0</ele><time>2026-04-18T14:17:38.002Z</time></trkpt><trkpt lat="43.26371839747914" lon="10.754078843265505"><ele>446.0</ele><time>2026-04-18T14:17:39.002Z</time></trkpt><trkpt lat="43.26374974941549" lon="10.754210772419878"><ele>446.0</ele><time>2026-04-18T14:17:40.002Z</time></trkpt><trkpt lat="43.26378044351171" lon="10.754335485918979"><ele>446.0</ele><time>2026-04-18T14:17:41.002Z</time></trkpt><trkpt lat="43.26382206028328" lon="10.754457252943563"><ele>446.0</ele><time>2026-04-18T14:17:42.002Z</time></trkpt><trkpt lat="43.26387434423141" lon="10.7545698750278"><ele>447.3333333333333</ele><time>2026-04-18T14:17:43.002Z</time></trkpt><trkpt lat="43.263925443798406" lon="10.754665923993938"><ele>448.66666666666663</ele><time>2026-04-18T14:17:44Z</time></trkpt><trkpt lat="43.263987821866195" lon="10.754736732025819"><ele>450.0</ele><time>2026-04-18T14:17:45Z</time></trkpt><trkpt lat="43.264048094210644" lon="10.754783011873355"><ele>451.33333333333337</ele><time>2026-04-18T14:17:46Z</time></trkpt><trkpt lat="43.26411253245757" lon="10.754816393379429"><ele>452.6666666666667</ele><time>2026-04-18T14:17:47Z</time></trkpt><trkpt lat="43.264191042779174" lon="10.754837199740027"><ele>454.0</ele><time>2026-04-18T14:17:48Z</time></trkpt><trkpt lat="43.264273032392865" lon="10.754853369218942"><ele>454.00000000000006</ele><time>2026-04-18T14:17:49Z</time></trkpt><trkpt lat="43.26436427518197" lon="10.754850582655115"><ele>454.0</ele><time>2026-04-18T14:17:50Z</time></trkpt><trkpt lat="43.26445140583415" lon="10.754853487017842"><ele>454.0</ele><time>2026-04-18T14:17:51Z</time></trkpt><trkpt lat="43.264522417571754" lon="10.754856523566142"><ele>454.0</ele><time>2026-04-18T14:17:52Z</time></trkpt><trkpt lat="43.264602212714664" lon="10.754887759285955"><ele>454.00000000000006</ele><time>2026-04-18T14:17:53Z</time></trkpt><trkpt lat="43.26467576155381" lon="10.75493085116219"><ele>454.0</ele><time>2026-04-18T14:17:54Z</time></trkpt><trkpt lat="43.26475085836236" lon="10.754983316519164"><ele>455.50000000000006</ele><time>2026-04-18T14:17:55Z</time></trkpt><trkpt lat="43.264835445959804" lon="10.755023797993909"><ele>457.0</ele><time>2026-04-18T14:17:56Z</time></trkpt><trkpt lat="43.26492753653383" lon="10.755049767873482"><ele>458.5</ele><time>2026-04-18T14:17:57Z</time></trkpt><trkpt lat="43.2650120716075" lon="10.755066670748173"><ele>460.0</ele><time>2026-04-18T14:17:58Z</time></trkpt><trkpt lat="43.265092893833156" lon="10.755071414654873"><ele>461.50000000000006</ele><time>2026-04-18T14:17:59Z</time></trkpt><trkpt lat="43.26516445994889" lon="10.755084719935669"><ele>463.0</ele><time>2026-04-18T14:18:00Z</time></trkpt><trkpt lat="43.265285239189566" lon="10.755063525142399"><ele>463.0</ele><time>2026-04-18T14:18:02Z</time></trkpt><trkpt lat="43.26538804441505" lon="10.755006033155372"><ele>462.99999999999994</ele><time>2026-04-18T14:18:04Z</time></trkpt><trkpt lat="43.265451214533314" lon="10.754966121361745"><ele>462.99999999999994</ele><time>2026-04-18T14:18:05Z</time></trkpt><trkpt lat="43.26558609962847" lon="10.754954419550327"><ele>463.0</ele><time>2026-04-18T14:18:07Z</time></trkpt><trkpt lat="43.26567844568224" lon="10.754951241347783"><ele>463.0</ele><time>2026-04-18T14:18:08Z</time></trkpt><trkpt lat="43.265770523067026" lon="10.754940845851445"><ele>460.59999999999997</ele><time>2026-04-18T14:18:09Z</time></trkpt><trkpt lat="43.26587877376303" lon="10.754910942387776"><ele>458.19999999999993</ele><time>2026-04-18T14:18:10Z</time></trkpt><trkpt lat="43.26595285718115" lon="10.754863151755472"><ele>455.8</ele><time>2026-04-18T14:18:11Z</time></trkpt><trkpt lat="43.26603836798981" lon="10.754829631243085"><ele>453.4</ele><time>2026-04-18T14:18:12Z</time></trkpt><trkpt lat="43.26612840267989" lon="10.754820050478767"><ele>451.0</ele><time>2026-04-18T14:18:13Z</time></trkpt><trkpt lat="43.26622850405245" lon="10.754809452479067"><ele>451.0</ele><time>2026-04-18T14:18:14Z</time></trkpt><trkpt lat="43.2663156949348" lon="10.754828068331587"><ele>451.0</ele><time>2026-04-18T14:18:15Z</time></trkpt><trkpt lat="43.266397619053066" lon="10.754873359562302"><ele>451.0</ele><time>2026-04-18T14:18:16Z</time></trkpt><trkpt lat="43.26648233344655" lon="10.754933120784887"><ele>451.0</ele><time>2026-04-18T14:18:17Z</time></trkpt><trkpt lat="43.266567917044036" lon="10.754999824446134"><ele>451.0</ele><time>2026-04-18T14:18:18Z</time></trkpt><trkpt lat="43.26664821247886" lon="10.755074747478417"><ele>449.20000000000005</ele><time>2026-04-18T14:18:19Z</time></trkpt><trkpt lat="43.26673562003579" lon="10.755155765985782"><ele>447.40000000000003</ele><time>2026-04-18T14:18:20Z</time></trkpt><trkpt lat="43.26682295151729" lon="10.755227368525743"><ele>445.6</ele><time>2026-04-18T14:18:21Z</time></trkpt><trkpt lat="43.26691954939919" lon="10.755288270635303"><ele>443.8</ele><time>2026-04-18T14:18:22Z</time></trkpt><trkpt lat="43.26702124362675" lon="10.755344143082214"><ele>442.0</ele><time>2026-04-18T14:18:23Z</time></trkpt><trkpt lat="43.2671223846263" lon="10.755394294320494"><ele>442.0</ele><time>2026-04-18T14:18:24Z</time></trkpt><trkpt lat="43.26721968004909" lon="10.75543232052811"><ele>442.00000000000006</ele><time>2026-04-18T14:18:25.001Z</time></trkpt><trkpt lat="43.26731223265548" lon="10.755444921938594"><ele>442.00000000000006</ele><time>2026-04-18T14:18:26.001Z</time></trkpt><trkpt lat="43.26739962402397" lon="10.755440707923947"><ele>442.0</ele><time>2026-04-18T14:18:27.001Z</time></trkpt><trkpt lat="43.26748414333112" lon="10.755419593161257"><ele>442.0</ele><time>2026-04-18T14:18:28.001Z</time></trkpt><trkpt lat="43.26756639463918" lon="10.75537920017419"><ele>442.00000000000006</ele><time>2026-04-18T14:18:29.001Z</time></trkpt><trkpt lat="43.267643852856814" lon="10.755323969269645"><ele>442.0</ele><time>2026-04-18T14:18:30.001Z</time></trkpt><trkpt lat="43.26771738349321" lon="10.75525851767334"><ele>442.0</ele><time>2026-04-18T14:18:31.001Z</time></trkpt><trkpt lat="43.26778502237724" lon="10.755182803152481"><ele>442.0</ele><time>2026-04-18T14:18:32.001Z</time></trkpt><trkpt lat="43.26784650906428" lon="10.755097788721308"><ele>442.00000000000006</ele><time>2026-04-18T14:18:33.001Z</time></trkpt><trkpt lat="43.267907941492396" lon="10.755025258453921"><ele>442.0</ele><time>2026-04-18T14:18:34.001Z</time></trkpt><trkpt lat="43.267975545437366" lon="10.754993774896183"><ele>442.1666666666667</ele><time>2026-04-18T14:18:35.001Z</time></trkpt><trkpt lat="43.26809676876142" lon="10.755019631453457"><ele>442.33333333333337</ele><time>2026-04-18T14:18:37.001Z</time></trkpt><trkpt lat="43.26814474368931" lon="10.755080380269526"><ele>442.5</ele><time>2026-04-18T14:18:38.001Z</time></trkpt><trkpt lat="43.26818735296796" lon="10.75515737653266"><ele>442.66666666666663</ele><time>2026-04-18T14:18:39.001Z</time></trkpt><trkpt lat="43.26823144088991" lon="10.755236582960977"><ele>442.8333333333333</ele><time>2026-04-18T14:18:40.001Z</time></trkpt><trkpt lat="43.268265060487415" lon="10.755334089046288"><ele>443.0</ele><time>2026-04-18T14:18:41.001Z</time></trkpt><trkpt lat="43.268305211358474" lon="10.755431552317415"><ele>443.0</ele><time>2026-04-18T14:18:42.001Z</time></trkpt><trkpt lat="43.268357295007384" lon="10.755526867013801"><ele>442.99999999999994</ele><time>2026-04-18T14:18:43.001Z</time></trkpt><trkpt lat="43.26843207729851" lon="10.75561418009696"><ele>442.99999999999994</ele><time>2026-04-18T14:18:44.001Z</time></trkpt><trkpt lat="43.2685043987137" lon="10.755694830739987"><ele>443.0</ele><time>2026-04-18T14:18:45.001Z</time></trkpt><trkpt lat="43.26858577954635" lon="10.755789154116144"><ele>443.0</ele><time>2026-04-18T14:18:46.001Z</time></trkpt><trkpt lat="43.26866868157174" lon="10.755881055792567"><ele>443.0</ele><time>2026-04-18T14:18:47.001Z</time></trkpt><trkpt lat="43.26875077538355" lon="10.755972743632192"><ele>442.99999999999994</ele><time>2026-04-18T14:18:48.001Z</time></trkpt><trkpt lat="43.26883777768262" lon="10.756068152756862"><ele>442.99999999999994</ele><time>2026-04-18T14:18:49.001Z</time></trkpt><trkpt lat="43.268924245556576" lon="10.756164026669648"><ele>443.0</ele><time>2026-04-18T14:18:50.001Z</time></trkpt><trkpt lat="43.269006845268926" lon="10.756258572384393"><ele>443.0</ele><time>2026-04-18T14:18:51.001Z</time></trkpt><trkpt lat="43.2690946733859" lon="10.756348501282508"><ele>442.4</ele><time>2026-04-18T14:18:52.001Z</time></trkpt><trkpt lat="43.2691846990188" lon="10.756425503762733"><ele>441.79999999999995</ele><time>2026-04-18T14:18:53.001Z</time></trkpt><trkpt lat="43.26927813631619" lon="10.756486692078479"><ele>441.2</ele><time>2026-04-18T14:18:54.001Z</time></trkpt><trkpt lat="43.26936069899178" lon="10.756558178357524"><ele>440.6</ele><time>2026-04-18T14:18:55.001Z</time></trkpt><trkpt lat="43.26945049375191" lon="10.756628243464577"><ele>440.0</ele><time>2026-04-18T14:18:56.001Z</time></trkpt><trkpt lat="43.269536508942466" lon="10.756697650438394"><ele>439.99999999999994</ele><time>2026-04-18T14:18:57.001Z</time></trkpt><trkpt lat="43.26962791556438" lon="10.756752515748648"><ele>440.0</ele><time>2026-04-18T14:18:58.001Z</time></trkpt><trkpt lat="43.26971080925731" lon="10.756798124162783"><ele>440.0</ele><time>2026-04-18T14:18:59.001Z</time></trkpt><trkpt lat="43.269791386241174" lon="10.756828545357484"><ele>440.0</ele><time>2026-04-18T14:19:00.001Z</time></trkpt><trkpt lat="43.26987309774407" lon="10.756838245574551"><ele>439.99999999999994</ele><time>2026-04-18T14:19:01.001Z</time></trkpt><trkpt lat="43.269961495322" lon="10.756834499323448"><ele>440.0</ele><time>2026-04-18T14:19:02.001Z</time></trkpt><trkpt lat="43.27004799056435" lon="10.756835622094615"><ele>440.16666666666663</ele><time>2026-04-18T14:19:03.001Z</time></trkpt><trkpt lat="43.2701326105992" lon="10.756840873299428"><ele>440.3333333333333</ele><time>2026-04-18T14:19:04.001Z</time></trkpt><trkpt lat="43.270232781346984" lon="10.756850862960036"><ele>440.5</ele><time>2026-04-18T14:19:05.001Z</time></trkpt><trkpt lat="43.27030699872257" lon="10.75687030361953"><ele>440.66666666666663</ele><time>2026-04-18T14:19:06.001Z</time></trkpt><trkpt lat="43.27038674625373" lon="10.756895790935989"><ele>440.8333333333333</ele><time>2026-04-18T14:19:07.001Z</time></trkpt><trkpt lat="43.27046286858874" lon="10.756930036143322"><ele>441.0</ele><time>2026-04-18T14:19:08.001Z</time></trkpt><trkpt lat="43.27053944983938" lon="10.756977208087873"><ele>442.7142857142857</ele><time>2026-04-18T14:19:09.001Z</time></trkpt><trkpt lat="43.270613545425135" lon="10.757024221307743"><ele>444.42857142857144</ele><time>2026-04-18T14:19:10.001Z</time></trkpt><trkpt lat="43.27068008632606" lon="10.757079247599988"><ele>446.1428571428571</ele><time>2026-04-18T14:19:11.002Z</time></trkpt><trkpt lat="43.27074233546484" lon="10.75714115898129"><ele>447.85714285714283</ele><time>2026-04-18T14:19:12.002Z</time></trkpt><trkpt lat="43.27078595396644" lon="10.757211134137696"><ele>449.57142857142856</ele><time>2026-04-18T14:19:13.002Z</time></trkpt><trkpt lat="43.27081669315607" lon="10.75729757809112"><ele>451.2857142857142</ele><time>2026-04-18T14:19:14.002Z</time></trkpt><trkpt lat="43.27082543242847" lon="10.757396943550306"><ele>452.99999999999994</ele><time>2026-04-18T14:19:15.002Z</time></trkpt><trkpt lat="43.270809552742755" lon="10.75749625268865"><ele>452.99999999999994</ele><time>2026-04-18T14:19:16.002Z</time></trkpt><trkpt lat="43.27078850623463" lon="10.75759155203241"><ele>453.0</ele><time>2026-04-18T14:19:17.002Z</time></trkpt><trkpt lat="43.27077095255565" lon="10.7576867784156"><ele>452.99999999999994</ele><time>2026-04-18T14:19:18.002Z</time></trkpt><trkpt lat="43.2707757737617" lon="10.757785556289255"><ele>452.99999999999994</ele><time>2026-04-18T14:19:19.002Z</time></trkpt><trkpt lat="43.27079103051313" lon="10.757875211518828"><ele>453.0</ele><time>2026-04-18T14:19:20.002Z</time></trkpt><trkpt lat="43.270821014338686" lon="10.757959634465013"><ele>452.99999999999994</ele><time>2026-04-18T14:19:21.002Z</time></trkpt><trkpt lat="43.27085962002249" lon="10.758039899958566"><ele>452.99999999999994</ele><time>2026-04-18T14:19:22.002Z</time></trkpt><trkpt lat="43.27089464830976" lon="10.758125182235794"><ele>453.42857142857133</ele><time>2026-04-18T14:19:23.002Z</time></trkpt><trkpt lat="43.270929979038435" lon="10.758206365299095"><ele>453.85714285714283</ele><time>2026-04-18T14:19:24.002Z</time></trkpt><trkpt lat="43.27096303041225" lon="10.75829195191525"><ele>454.2857142857142</ele><time>2026-04-18T14:19:25.002Z</time></trkpt><trkpt lat="43.27097855235546" lon="10.758386304798735"><ele>454.71428571428567</ele><time>2026-04-18T14:19:26.002Z</time></trkpt><trkpt lat="43.27096500389411" lon="10.758480509483377"><ele>455.1428571428571</ele><time>2026-04-18T14:19:27.002Z</time></trkpt><trkpt lat="43.27093765209745" lon="10.75857161621912"><ele>455.57142857142856</ele><time>2026-04-18T14:19:28.002Z</time></trkpt><trkpt lat="43.270909383019614" lon="10.758671209379179"><ele>456.0</ele><time>2026-04-18T14:19:29.002Z</time></trkpt><trkpt lat="43.27089341208586" lon="10.75877562611553"><ele>456.6666666666667</ele><time>2026-04-18T14:19:30.002Z</time></trkpt><trkpt lat="43.270887531077406" lon="10.758887740466323"><ele>457.33333333333337</ele><time>2026-04-18T14:19:31.002Z</time></trkpt><trkpt lat="43.27086592642238" lon="10.758993138179413"><ele>458.0</ele><time>2026-04-18T14:19:32.002Z</time></trkpt><trkpt lat="43.27083697004853" lon="10.75909256841653"><ele>458.6666666666667</ele><time>2026-04-18T14:19:33.002Z</time></trkpt><trkpt lat="43.270796630823774" lon="10.759167419194322"><ele>459.33333333333337</ele><time>2026-04-18T14:19:34.002Z</time></trkpt><trkpt lat="43.27076360743785" lon="10.759246853438732"><ele>460.0</ele><time>2026-04-18T14:19:35.002Z</time></trkpt><trkpt lat="43.27074534301783" lon="10.75940008064433"><ele>460.1428571428571</ele><time>2026-04-18T14:19:37.002Z</time></trkpt><trkpt lat="43.27076679124353" lon="10.759491420594623"><ele>460.2857142857143</ele><time>2026-04-18T14:19:38.002Z</time></trkpt><trkpt lat="43.270809032789124" lon="10.759574638759057"><ele>460.42857142857144</ele><time>2026-04-18T14:19:39.002Z</time></trkpt><trkpt lat="43.270842355959225" lon="10.75965741843908"><ele>460.57142857142856</ele><time>2026-04-18T14:19:40.002Z</time></trkpt><trkpt lat="43.27085845580133" lon="10.759757182569514"><ele>460.7142857142858</ele><time>2026-04-18T14:19:41.002Z</time></trkpt><trkpt lat="43.27085503018564" lon="10.75986488677897"><ele>460.8571428571429</ele><time>2026-04-18T14:19:42.002Z</time></trkpt><trkpt lat="43.27084324065289" lon="10.759967523090488"><ele>461.0</ele><time>2026-04-18T14:19:43.002Z</time></trkpt><trkpt lat="43.27083444257595" lon="10.76007383266253"><ele>460.99999999999994</ele><time>2026-04-18T14:19:44.002Z</time></trkpt><trkpt lat="43.27082192209665" lon="10.76019204164224"><ele>461.0</ele><time>2026-04-18T14:19:45.002Z</time></trkpt><trkpt lat="43.27080803040222" lon="10.760316594665477"><ele>461.0</ele><time>2026-04-18T14:19:46.002Z</time></trkpt><trkpt lat="43.27080037174921" lon="10.760440157920902"><ele>461.0</ele><time>2026-04-18T14:19:47.002Z</time></trkpt><trkpt lat="43.27079895407025" lon="10.760558259853614"><ele>460.99999999999994</ele><time>2026-04-18T14:19:48.002Z</time></trkpt><trkpt lat="43.27079538327092" lon="10.760682229350891"><ele>461.0</ele><time>2026-04-18T14:19:49.002Z</time></trkpt><trkpt lat="43.27079777115005" lon="10.760796968079076"><ele>461.0</ele><time>2026-04-18T14:19:50Z</time></trkpt><trkpt lat="43.27079218318003" lon="10.760905191615095"><ele>461.0</ele><time>2026-04-18T14:19:51Z</time></trkpt><trkpt lat="43.27078192823876" lon="10.76100134254934"><ele>461.0</ele><time>2026-04-18T14:19:52Z</time></trkpt><trkpt lat="43.270800687426735" lon="10.7611545388134"><ele>461.0</ele><time>2026-04-18T14:19:54Z</time></trkpt><trkpt lat="43.270851844603435" lon="10.761205695045472"><ele>461.0</ele><time>2026-04-18T14:19:55Z</time></trkpt><trkpt lat="43.270965233006294" lon="10.761280373525304"><ele>460.99999999999994</ele><time>2026-04-18T14:19:57Z</time></trkpt><trkpt lat="43.271030286692486" lon="10.761300804854788"><ele>461.0</ele><time>2026-04-18T14:19:58Z</time></trkpt><trkpt lat="43.27109463539587" lon="10.761310436730028"><ele>461.0</ele><time>2026-04-18T14:19:59Z</time></trkpt><trkpt lat="43.27116534837503" lon="10.761296378153997"><ele>461.0</ele><time>2026-04-18T14:20:00Z</time></trkpt><trkpt lat="43.27129880127564" lon="10.761291688798625"><ele>460.99999999999994</ele><time>2026-04-18T14:20:02Z</time></trkpt><trkpt lat="43.27137403959906" lon="10.761295206633232"><ele>461.0</ele><time>2026-04-18T14:20:03Z</time></trkpt><trkpt lat="43.27144607998251" lon="10.761283339671431"><ele>460.3333333333333</ele><time>2026-04-18T14:20:04Z</time></trkpt><trkpt lat="43.27151474891936" lon="10.761257798656036"><ele>459.66666666666663</ele><time>2026-04-18T14:20:05Z</time></trkpt><trkpt lat="43.271574455809315" lon="10.76122216118962"><ele>459.0</ele><time>2026-04-18T14:20:06Z</time></trkpt><trkpt lat="43.27164774820879" lon="10.761126599987689"><ele>458.33333333333337</ele><time>2026-04-18T14:20:08Z</time></trkpt><trkpt lat="43.27167553337382" lon="10.761024760914887"><ele>457.6666666666667</ele><time>2026-04-18T14:20:10Z</time></trkpt><trkpt lat="43.27170160009498" lon="10.760937347097553"><ele>457.0</ele><time>2026-04-18T14:20:12Z</time></trkpt><trkpt lat="43.271729923860136" lon="10.76084284917195"><ele>460.6</ele><time>2026-04-18T14:20:14Z</time></trkpt><trkpt lat="43.27174825991133" lon="10.760744653815461"><ele>464.20000000000005</ele><time>2026-04-18T14:20:16Z</time></trkpt><trkpt lat="43.27176512161911" lon="10.760616344725566"><ele>467.8</ele><time>2026-04-18T14:20:18Z</time></trkpt><trkpt lat="43.27178861818791" lon="10.760471226124036"><ele>471.4</ele><time>2026-04-18T14:20:20Z</time></trkpt><trkpt lat="43.27184533420618" lon="10.760325489768483"><ele>475.0</ele><time>2026-04-18T14:20:22Z</time></trkpt><trkpt lat="43.27189074305066" lon="10.760258165878776"><ele>475.42857142857144</ele><time>2026-04-18T14:20:23Z</time></trkpt><trkpt lat="43.27193872062644" lon="10.76019563829017"><ele>475.8571428571429</ele><time>2026-04-18T14:20:24Z</time></trkpt><trkpt lat="43.271987977870445" lon="10.760134688799385"><ele>476.28571428571433</ele><time>2026-04-18T14:20:25Z</time></trkpt><trkpt lat="43.27204316243631" lon="10.760083338674606"><ele>476.7142857142858</ele><time>2026-04-18T14:20:26Z</time></trkpt><trkpt lat="43.272106276878574" lon="10.760049036703984"><ele>477.14285714285717</ele><time>2026-04-18T14:20:27Z</time></trkpt><trkpt lat="43.27217581273163" lon="10.760029970891033"><ele>477.57142857142867</ele><time>2026-04-18T14:20:28Z</time></trkpt><trkpt lat="43.27224659786833" lon="10.760033292268826"><ele>478.00000000000006</ele><time>2026-04-18T14:20:29.001Z</time></trkpt><trkpt lat="43.27232005099187" lon="10.760048234475565"><ele>478.83333333333337</ele><time>2026-04-18T14:20:30.001Z</time></trkpt><trkpt lat="43.272391547096724" lon="10.76007216177672"><ele>479.6666666666667</ele><time>2026-04-18T14:20:31.001Z</time></trkpt><trkpt lat="43.2724565861464" lon="10.760101022264497"><ele>480.5</ele><time>2026-04-18T14:20:32.001Z</time></trkpt><trkpt lat="43.27251712068244" lon="10.760128555756323"><ele>481.33333333333337</ele><time>2026-04-18T14:20:33.001Z</time></trkpt><trkpt lat="43.27258409193101" lon="10.760128067712158"><ele>482.1666666666667</ele><time>2026-04-18T14:20:34.001Z</time></trkpt><trkpt lat="43.2726436612057" lon="10.760162934440354"><ele>483.0</ele><time>2026-04-18T14:20:35.001Z</time></trkpt><trkpt lat="43.27276564429894" lon="10.760161506903975"><ele>483.0</ele><time>2026-04-18T14:20:37.001Z</time></trkpt><trkpt lat="43.27288408548296" lon="10.760110526151987"><ele>483.0</ele><time>2026-04-18T14:20:39.001Z</time></trkpt><trkpt lat="43.27297772520305" lon="10.760019101460259"><ele>483.0</ele><time>2026-04-18T14:20:41.001Z</time></trkpt><trkpt lat="43.273052913428515" lon="10.759910581252479"><ele>483.0</ele><time>2026-04-18T14:20:43.001Z</time></trkpt><trkpt lat="43.27312793784347" lon="10.759811946289876"><ele>483.25</ele><time>2026-04-18T14:20:45.001Z</time></trkpt><trkpt lat="43.27320906238309" lon="10.759704484028827"><ele>483.5</ele><time>2026-04-18T14:20:47.001Z</time></trkpt><trkpt lat="43.27329900809343" lon="10.759589985579733"><ele>483.75</ele><time>2026-04-18T14:20:49.001Z</time></trkpt><trkpt lat="43.27337318484317" lon="10.759467558521761"><ele>484.0</ele><time>2026-04-18T14:20:51.001Z</time></trkpt><trkpt lat="43.27345472874741" lon="10.759358740407363"><ele>484.0</ele><time>2026-04-18T14:20:53.001Z</time></trkpt><trkpt lat="43.273556016351286" lon="10.75929672925539"><ele>484.0</ele><time>2026-04-18T14:20:55.001Z</time></trkpt><trkpt lat="43.27366281375646" lon="10.759232166593426"><ele>484.0</ele><time>2026-04-18T14:20:57.001Z</time></trkpt><trkpt lat="43.27372261673808" lon="10.759197515510513"><ele>484.0</ele><time>2026-04-18T14:20:58.001Z</time></trkpt><trkpt lat="43.27384551542215" lon="10.759154826044657"><ele>484.0</ele><time>2026-04-18T14:21:00.001Z</time></trkpt><trkpt lat="43.27390780681049" lon="10.75914138359723"><ele>486.2</ele><time>2026-04-18T14:21:01.001Z</time></trkpt><trkpt lat="43.27403277380257" lon="10.759101990247098"><ele>488.4</ele><time>2026-04-18T14:21:03.001Z</time></trkpt><trkpt lat="43.2740942618882" lon="10.759078709732975"><ele>490.6</ele><time>2026-04-18T14:21:04.001Z</time></trkpt><trkpt lat="43.27421433855217" lon="10.759025649391399"><ele>492.8</ele><time>2026-04-18T14:21:06.001Z</time></trkpt><trkpt lat="43.27433500353005" lon="10.758965178300802"><ele>495.0</ele><time>2026-04-18T14:21:08.001Z</time></trkpt><trkpt lat="43.27439717263466" lon="10.758927724116694"><ele>495.0</ele><time>2026-04-18T14:21:09.001Z</time></trkpt><trkpt lat="43.27451289624103" lon="10.758885968543863"><ele>495.0</ele><time>2026-04-18T14:21:11.001Z</time></trkpt><trkpt lat="43.274637872561115" lon="10.758912546518951"><ele>495.0</ele><time>2026-04-18T14:21:13.001Z</time></trkpt><trkpt lat="43.27475545200825" lon="10.75896712212536"><ele>495.0</ele><time>2026-04-18T14:21:15.001Z</time></trkpt><trkpt lat="43.274863100893576" lon="10.758981788878396"><ele>494.6666666666667</ele><time>2026-04-18T14:21:17.002Z</time></trkpt><trkpt lat="43.27494925326737" lon="10.75892708849756"><ele>494.33333333333337</ele><time>2026-04-18T14:21:19.002Z</time></trkpt><trkpt lat="43.27501187261144" lon="10.758800793054483"><ele>494.0</ele><time>2026-04-18T14:21:21.002Z</time></trkpt><trkpt lat="43.27505070875779" lon="10.758728723003331"><ele>493.6666666666667</ele><time>2026-04-18T14:21:22.002Z</time></trkpt><trkpt lat="43.27509486661604" lon="10.758664373555899"><ele>493.33333333333337</ele><time>2026-04-18T14:21:23.002Z</time></trkpt><trkpt lat="43.27514446617581" lon="10.758607887666708"><ele>493.0</ele><time>2026-04-18T14:21:24.002Z</time></trkpt><trkpt lat="43.27526536127321" lon="10.758573589054473"><ele>493.0</ele><time>2026-04-18T14:21:26.002Z</time></trkpt><trkpt lat="43.2753696720051" lon="10.758635115545921"><ele>493.0</ele><time>2026-04-18T14:21:28.002Z</time></trkpt><trkpt lat="43.27546133641456" lon="10.758720995157937"><ele>493.0</ele><time>2026-04-18T14:21:30.002Z</time></trkpt><trkpt lat="43.27556600254411" lon="10.758785883294118"><ele>493.0</ele><time>2026-04-18T14:21:32.002Z</time></trkpt><trkpt lat="43.27568259356119" lon="10.758830038558786"><ele>492.0</ele><time>2026-04-18T14:21:34.002Z</time></trkpt><trkpt lat="43.275802678824334" lon="10.758851041033957"><ele>491.0</ele><time>2026-04-18T14:21:36.002Z</time></trkpt><trkpt lat="43.27591213596963" lon="10.758806294801623"><ele>490.0</ele><time>2026-04-18T14:21:38.002Z</time></trkpt><trkpt lat="43.27598320278767" lon="10.758687964415708"><ele>489.0</ele><time>2026-04-18T14:21:40.002Z</time></trkpt><trkpt lat="43.2760067013189" lon="10.75852643624774"><ele>489.0</ele><time>2026-04-18T14:21:42.002Z</time></trkpt><trkpt lat="43.2760112360985" lon="10.758436490948219"><ele>489.0</ele><time>2026-04-18T14:21:43.002Z</time></trkpt><trkpt lat="43.27601904591016" lon="10.758270437787655"><ele>489.0</ele><time>2026-04-18T14:21:45.002Z</time></trkpt><trkpt lat="43.27602787405324" lon="10.758182616923554"><ele>489.0</ele><time>2026-04-18T14:21:46.002Z</time></trkpt><trkpt lat="43.27603470561396" lon="10.758093959209017"><ele>489.0</ele><time>2026-04-18T14:21:47.002Z</time></trkpt><trkpt lat="43.27605771681658" lon="10.758007073204695"><ele>489.0</ele><time>2026-04-18T14:21:48.002Z</time></trkpt><trkpt lat="43.27606398683233" lon="10.757916053312602"><ele>489.0</ele><time>2026-04-18T14:21:49.002Z</time></trkpt><trkpt lat="43.27606451989609" lon="10.757824755648578"><ele>489.00000000000006</ele><time>2026-04-18T14:21:50.002Z</time></trkpt><trkpt lat="43.2760735555579" lon="10.75773543700272"><ele>489.0</ele><time>2026-04-18T14:21:51.002Z</time></trkpt><trkpt lat="43.276087934371326" lon="10.757641243379622"><ele>489.0</ele><time>2026-04-18T14:21:52.002Z</time></trkpt><trkpt lat="43.27611593357659" lon="10.75755658091427"><ele>489.00000000000006</ele><time>2026-04-18T14:21:53.002Z</time></trkpt><trkpt lat="43.276152872946064" lon="10.757475349377845"><ele>489.0</ele><time>2026-04-18T14:21:54.002Z</time></trkpt><trkpt lat="43.27619026807026" lon="10.75740206971506"><ele>489.0</ele><time>2026-04-18T14:21:55.002Z</time></trkpt><trkpt lat="43.27622961894654" lon="10.757326968896693"><ele>489.0</ele><time>2026-04-18T14:21:56Z</time></trkpt><trkpt lat="43.27626608368175" lon="10.757245880010293"><ele>489.00000000000006</ele><time>2026-04-18T14:21:57Z</time></trkpt><trkpt lat="43.27630205665725" lon="10.757166344650722"><ele>489.0</ele><time>2026-04-18T14:21:58Z</time></trkpt><trkpt lat="43.27633455879344" lon="10.757080648464385"><ele>489.0</ele><time>2026-04-18T14:21:59Z</time></trkpt><trkpt lat="43.27638475522968" lon="10.757015885680719"><ele>489.00000000000006</ele><time>2026-04-18T14:22:00Z</time></trkpt><trkpt lat="43.27644263113591" lon="10.756972415543853"><ele>489.0</ele><time>2026-04-18T14:22:01Z</time></trkpt><trkpt lat="43.276509546923094" lon="10.756957808745513"><ele>489.0</ele><time>2026-04-18T14:22:02Z</time></trkpt><trkpt lat="43.27657779458645" lon="10.756950225033949"><ele>488.1666666666667</ele><time>2026-04-18T14:22:03Z</time></trkpt><trkpt lat="43.27665020973775" lon="10.756949965567694"><ele>487.33333333333337</ele><time>2026-04-18T14:22:04Z</time></trkpt><trkpt lat="43.27672391899414" lon="10.756951486366804"><ele>486.5</ele><time>2026-04-18T14:22:05Z</time></trkpt><trkpt lat="43.27679965053419" lon="10.756944280229563"><ele>485.6666666666667</ele><time>2026-04-18T14:22:06Z</time></trkpt><trkpt lat="43.276871872486325" lon="10.756921900585342"><ele>484.83333333333337</ele><time>2026-04-18T14:22:07Z</time></trkpt><trkpt lat="43.27694366344599" lon="10.756894138753456"><ele>484.0</ele><time>2026-04-18T14:22:08Z</time></trkpt><trkpt lat="43.27702093528396" lon="10.756866926690517"><ele>484.00000000000006</ele><time>2026-04-18T14:22:09Z</time></trkpt><trkpt lat="43.27709093588531" lon="10.756843261755286"><ele>484.0</ele><time>2026-04-18T14:22:10Z</time></trkpt><trkpt lat="43.277163248557926" lon="10.756815300819726"><ele>484.0</ele><time>2026-04-18T14:22:11Z</time></trkpt><trkpt lat="43.27723539452123" lon="10.756785406450193"><ele>484.0</ele><time>2026-04-18T14:22:12Z</time></trkpt><trkpt lat="43.277309123926685" lon="10.75675617932769"><ele>484.00000000000006</ele><time>2026-04-18T14:22:13Z</time></trkpt><trkpt lat="43.27738233325325" lon="10.756726987262999"><ele>484.0</ele><time>2026-04-18T14:22:14Z</time></trkpt><trkpt lat="43.27745595223313" lon="10.756696136475838"><ele>482.71428571428567</ele><time>2026-04-18T14:22:15Z</time></trkpt><trkpt lat="43.27752538475767" lon="10.756655990512096"><ele>481.4285714285714</ele><time>2026-04-18T14:22:16Z</time></trkpt><trkpt lat="43.27758635278846" lon="10.756603157072906"><ele>480.1428571428571</ele><time>2026-04-18T14:22:17Z</time></trkpt><trkpt lat="43.277640434879025" lon="10.756538357686745"><ele>478.8571428571429</ele><time>2026-04-18T14:22:18Z</time></trkpt><trkpt lat="43.27768460145642" lon="10.756458703746157"><ele>477.5714285714286</ele><time>2026-04-18T14:22:19Z</time></trkpt><trkpt lat="43.27773118321312" lon="10.756386186213387"><ele>476.28571428571433</ele><time>2026-04-18T14:22:20Z</time></trkpt><trkpt lat="43.27777565707668" lon="10.756309134236357"><ele>475.0</ele><time>2026-04-18T14:22:21Z</time></trkpt><trkpt lat="43.27781552088943" lon="10.756227404764266"><ele>475.0</ele><time>2026-04-18T14:22:22Z</time></trkpt><trkpt lat="43.277852441862954" lon="10.756140494675092"><ele>475.00000000000006</ele><time>2026-04-18T14:22:23Z</time></trkpt><trkpt lat="43.27788803289792" lon="10.756054303344559"><ele>475.0</ele><time>2026-04-18T14:22:24Z</time></trkpt><trkpt lat="43.277922706795586" lon="10.75596234844387"><ele>475.0</ele><time>2026-04-18T14:22:25Z</time></trkpt><trkpt lat="43.2779552899015" lon="10.755870993017343"><ele>475.00000000000006</ele><time>2026-04-18T14:22:26Z</time></trkpt><trkpt lat="43.27798767225616" lon="10.755781268211683"><ele>475.0</ele><time>2026-04-18T14:22:27Z</time></trkpt><trkpt lat="43.27802506974974" lon="10.755707002017813"><ele>475.0</ele><time>2026-04-18T14:22:28Z</time></trkpt><trkpt lat="43.27807515874127" lon="10.755653022822383"><ele>473.8571428571429</ele><time>2026-04-18T14:22:29Z</time></trkpt><trkpt lat="43.27813517968454" lon="10.755618193162972"><ele>472.7142857142858</ele><time>2026-04-18T14:22:30Z</time></trkpt><trkpt lat="43.278196860003995" lon="10.755597336278825"><ele>471.57142857142856</ele><time>2026-04-18T14:22:31Z</time></trkpt><trkpt lat="43.27826228068809" lon="10.755604453792637"><ele>470.42857142857144</ele><time>2026-04-18T14:22:32Z</time></trkpt><trkpt lat="43.27832179473542" lon="10.7556447084989"><ele>469.2857142857143</ele><time>2026-04-18T14:22:33.001Z</time></trkpt><trkpt lat="43.27837445130143" lon="10.755701995638837"><ele>468.1428571428571</ele><time>2026-04-18T14:22:34.001Z</time></trkpt><trkpt lat="43.27841706889697" lon="10.7557724990932"><ele>466.99999999999994</ele><time>2026-04-18T14:22:35.001Z</time></trkpt><trkpt lat="43.278455512481315" lon="10.755855145135747"><ele>466.99999999999994</ele><time>2026-04-18T14:22:36.001Z</time></trkpt><trkpt lat="43.278487528633235" lon="10.755945220694267"><ele>467.0</ele><time>2026-04-18T14:22:37.001Z</time></trkpt><trkpt lat="43.27852288115362" lon="10.756038849509945"><ele>467.0</ele><time>2026-04-18T14:22:38.001Z</time></trkpt><trkpt lat="43.278561565920285" lon="10.756133496476203"><ele>467.0</ele><time>2026-04-18T14:22:39.001Z</time></trkpt><trkpt lat="43.278604026886924" lon="10.75622827487226"><ele>466.99999999999994</ele><time>2026-04-18T14:22:40.001Z</time></trkpt><trkpt lat="43.27864535102722" lon="10.756321414506035"><ele>467.0</ele><time>2026-04-18T14:22:41.001Z</time></trkpt><trkpt lat="43.27868746776903" lon="10.756408105988953"><ele>466.66666666666663</ele><time>2026-04-18T14:22:42.001Z</time></trkpt><trkpt lat="43.27873314329146" lon="10.756471417643082"><ele>466.3333333333333</ele><time>2026-04-18T14:22:43.001Z</time></trkpt><trkpt lat="43.27878578584851" lon="10.75652223755493"><ele>466.0</ele><time>2026-04-18T14:22:44.001Z</time></trkpt><trkpt lat="43.27889446003816" lon="10.756509882020953"><ele>465.66666666666663</ele><time>2026-04-18T14:22:46.001Z</time></trkpt><trkpt lat="43.27896766134235" lon="10.756393699133241"><ele>465.3333333333333</ele><time>2026-04-18T14:22:48.001Z</time></trkpt><trkpt lat="43.27899821923632" lon="10.756308660218817"><ele>465.0</ele><time>2026-04-18T14:22:49.001Z</time></trkpt><trkpt lat="43.2790233350925" lon="10.756220674476978"><ele>464.3333333333333</ele><time>2026-04-18T14:22:50.001Z</time></trkpt><trkpt lat="43.279049941395186" lon="10.756137569009544"><ele>463.66666666666663</ele><time>2026-04-18T14:22:51.001Z</time></trkpt><trkpt lat="43.27908063005026" lon="10.756047895257097"><ele>463.0</ele><time>2026-04-18T14:22:52.001Z</time></trkpt><trkpt lat="43.279110611086125" lon="10.755965302372454"><ele>462.3333333333333</ele><time>2026-04-18T14:22:53.001Z</time></trkpt><trkpt lat="43.279137808612745" lon="10.755886347109248"><ele>461.66666666666663</ele><time>2026-04-18T14:22:54.001Z</time></trkpt><trkpt lat="43.2791640013411" lon="10.755729886266984"><ele>461.0</ele><time>2026-04-18T14:22:56.001Z</time></trkpt><trkpt lat="43.27915733258506" lon="10.755637190452905"><ele>461.0</ele><time>2026-04-18T14:22:57.001Z</time></trkpt><trkpt lat="43.27914395138208" lon="10.755538602898582"><ele>461.00000000000006</ele><time>2026-04-18T14:22:58.001Z</time></trkpt><trkpt lat="43.279124613125006" lon="10.755441577280164"><ele>461.0</ele><time>2026-04-18T14:22:59.001Z</time></trkpt><trkpt lat="43.27910521676802" lon="10.755352439713953"><ele>461.0</ele><time>2026-04-18T14:23:00.001Z</time></trkpt><trkpt lat="43.27909358651479" lon="10.755255932531059"><ele>461.00000000000006</ele><time>2026-04-18T14:23:01.001Z</time></trkpt><trkpt lat="43.27908555029478" lon="10.755166586994278"><ele>461.0</ele><time>2026-04-18T14:23:02.001Z</time></trkpt><trkpt lat="43.279084955751806" lon="10.755073546118917"><ele>461.0</ele><time>2026-04-18T14:23:03.001Z</time></trkpt><trkpt lat="43.27909941260891" lon="10.754985612391055"><ele>460.49999999999994</ele><time>2026-04-18T14:23:04.001Z</time></trkpt><trkpt lat="43.279131125212096" lon="10.75490853360108"><ele>460.0</ele><time>2026-04-18T14:23:05.001Z</time></trkpt><trkpt lat="43.27923358312298" lon="10.75480072462877"><ele>459.5</ele><time>2026-04-18T14:23:07.001Z</time></trkpt><trkpt lat="43.27929433935812" lon="10.75474571128181"><ele>459.0</ele><time>2026-04-18T14:23:08.001Z</time></trkpt><trkpt lat="43.27935593534243" lon="10.754681172814006"><ele>458.49999999999994</ele><time>2026-04-18T14:23:09.001Z</time></trkpt><trkpt lat="43.279415744253086" lon="10.754614197489287"><ele>458.0</ele><time>2026-04-18T14:23:10.001Z</time></trkpt><trkpt lat="43.27946931776617" lon="10.754539036570966"><ele>457.99999999999994</ele><time>2026-04-18T14:23:11.001Z</time></trkpt><trkpt lat="43.27951274294354" lon="10.75445435776238"><ele>458.0</ele><time>2026-04-18T14:23:12.001Z</time></trkpt><trkpt lat="43.279537908643306" lon="10.754363945028784"><ele>458.0</ele><time>2026-04-18T14:23:13.001Z</time></trkpt><trkpt lat="43.279550733469996" lon="10.754268534902652"><ele>458.0</ele><time>2026-04-18T14:23:14.001Z</time></trkpt><trkpt lat="43.27955155659655" lon="10.754164310476119"><ele>457.99999999999994</ele><time>2026-04-18T14:23:15.001Z</time></trkpt><trkpt lat="43.2795699621413" lon="10.753977300457077"><ele>458.0</ele><time>2026-04-18T14:23:17.001Z</time></trkpt><trkpt lat="43.27960353672602" lon="10.753810929169035"><ele>458.1428571428571</ele><time>2026-04-18T14:23:19.002Z</time></trkpt><trkpt lat="43.27962457152672" lon="10.753724743333319"><ele>458.28571428571433</ele><time>2026-04-18T14:23:20.002Z</time></trkpt><trkpt lat="43.27964781852246" lon="10.753638278931911"><ele>458.42857142857144</ele><time>2026-04-18T14:23:21.002Z</time></trkpt><trkpt lat="43.27967293683491" lon="10.753551219021599"><ele>458.57142857142856</ele><time>2026-04-18T14:23:22.002Z</time></trkpt><trkpt lat="43.279702566446936" lon="10.753466377884745"><ele>458.71428571428567</ele><time>2026-04-18T14:23:23.002Z</time></trkpt><trkpt lat="43.279731153194184" lon="10.753379917414245"><ele>458.8571428571429</ele><time>2026-04-18T14:23:24.002Z</time></trkpt><trkpt lat="43.2797581681886" lon="10.75329656384887"><ele>459.0</ele><time>2026-04-18T14:23:25.002Z</time></trkpt><trkpt lat="43.27978149187908" lon="10.75320979572108"><ele>459.0</ele><time>2026-04-18T14:23:26.002Z</time></trkpt><trkpt lat="43.27979928812314" lon="10.753124808281521"><ele>459.0</ele><time>2026-04-18T14:23:27.002Z</time></trkpt><trkpt lat="43.27982489203637" lon="10.752963900688709"><ele>459.0</ele><time>2026-04-18T14:23:29.002Z</time></trkpt><trkpt lat="43.2798388537859" lon="10.752877418277775"><ele>459.0</ele><time>2026-04-18T14:23:30.002Z</time></trkpt><trkpt lat="43.279858112020726" lon="10.752710191450138"><ele>459.0</ele><time>2026-04-18T14:23:32.002Z</time></trkpt><trkpt lat="43.279906856540315" lon="10.75255850798583"><ele>457.6</ele><time>2026-04-18T14:23:34.002Z</time></trkpt><trkpt lat="43.280005096965816" lon="10.752483468403412"><ele>456.2</ele><time>2026-04-18T14:23:36.002Z</time></trkpt><trkpt lat="43.28011456078834" lon="10.752431118554187"><ele>454.80000000000007</ele><time>2026-04-18T14:23:38.002Z</time></trkpt><trkpt lat="43.280231105115725" lon="10.752397436207799"><ele>453.40000000000003</ele><time>2026-04-18T14:23:40.002Z</time></trkpt><trkpt lat="43.28032519045701" lon="10.752385646487728"><ele>452.0</ele><time>2026-04-18T14:23:42.002Z</time></trkpt><trkpt lat="43.2804086986346" lon="10.752342092350235"><ele>452.0</ele><time>2026-04-18T14:23:44.002Z</time></trkpt><trkpt lat="43.28050386526437" lon="10.752274407713264"><ele>452.0</ele><time>2026-04-18T14:23:46.002Z</time></trkpt><trkpt lat="43.28060943446619" lon="10.75222922838233"><ele>452.0</ele><time>2026-04-18T14:23:48.002Z</time></trkpt><trkpt lat="43.28072700622946" lon="10.752200866079283"><ele>452.0</ele><time>2026-04-18T14:23:50.002Z</time></trkpt><trkpt lat="43.28084039426398" lon="10.75218470244181"><ele>451.75</ele><time>2026-04-18T14:23:52.002Z</time></trkpt><trkpt lat="43.280948862691794" lon="10.752170191611578"><ele>451.5</ele><time>2026-04-18T14:23:54.002Z</time></trkpt><trkpt lat="43.281072051692256" lon="10.752150800227916"><ele>451.25</ele><time>2026-04-18T14:23:56.002Z</time></trkpt><trkpt lat="43.28120110809272" lon="10.75213269732267"><ele>451.0</ele><time>2026-04-18T14:23:58.002Z</time></trkpt><trkpt lat="43.28132806672792" lon="10.752111557594642"><ele>451.0</ele><time>2026-04-18T14:24:00.002Z</time></trkpt><trkpt lat="43.281391936952524" lon="10.752099460376646"><ele>451.0</ele><time>2026-04-18T14:24:01.002Z</time></trkpt><trkpt lat="43.2815012191029" lon="10.752041208367208"><ele>451.0</ele><time>2026-04-18T14:24:03Z</time></trkpt><trkpt lat="43.2815825800599" lon="10.751951598549876"><ele>451.0</ele><time>2026-04-18T14:24:05Z</time></trkpt><trkpt lat="43.281649802469225" lon="10.751853109445568"><ele>451.0</ele><time>2026-04-18T14:24:07Z</time></trkpt><trkpt lat="43.28168707570061" lon="10.751740574070059"><ele>449.20000000000005</ele><time>2026-04-18T14:24:09Z</time></trkpt><trkpt lat="43.28170768291775" lon="10.751602966275136"><ele>447.40000000000003</ele><time>2026-04-18T14:24:11Z</time></trkpt><trkpt lat="43.281731479742575" lon="10.75145976101531"><ele>445.6</ele><time>2026-04-18T14:24:13Z</time></trkpt><trkpt lat="43.281766347623254" lon="10.751306973290857"><ele>443.8</ele><time>2026-04-18T14:24:15Z</time></trkpt><trkpt lat="43.28182303508582" lon="10.751165463631434"><ele>442.0</ele><time>2026-04-18T14:24:17Z</time></trkpt><trkpt lat="43.28179537172076" lon="10.751036143993112"><ele>441.0</ele><time>2026-04-18T14:24:19Z</time></trkpt><trkpt lat="43.281805407738766" lon="10.75088462283498"><ele>440.00000000000006</ele><time>2026-04-18T14:24:21Z</time></trkpt><trkpt lat="43.28181861563079" lon="10.750758789804921"><ele>439.00000000000006</ele><time>2026-04-18T14:24:23Z</time></trkpt><trkpt lat="43.28173925259822" lon="10.750626458969103"><ele>438.0</ele><time>2026-04-18T14:24:25Z</time></trkpt><trkpt lat="43.28167752612462" lon="10.750504152445064"><ele>437.0</ele><time>2026-04-18T14:24:27Z</time></trkpt><trkpt lat="43.28161832686272" lon="10.750363711277291"><ele>436.0</ele><time>2026-04-18T14:24:29Z</time></trkpt><trkpt lat="43.28157996885224" lon="10.750201378014099"><ele>435.00000000000006</ele><time>2026-04-18T14:24:31Z</time></trkpt><trkpt lat="43.28158624079936" lon="10.750050588750032"><ele>434.00000000000006</ele><time>2026-04-18T14:24:33Z</time></trkpt><trkpt lat="43.281625534740186" lon="10.749891037451418"><ele>433.0</ele><time>2026-04-18T14:24:35Z</time></trkpt><trkpt lat="43.28164782381455" lon="10.749808706289514"><ele>432.0</ele><time>2026-04-18T14:24:36.001Z</time></trkpt><trkpt lat="43.28170668328156" lon="10.749659066328164"><ele>432.0</ele><time>2026-04-18T14:24:38.001Z</time></trkpt><trkpt lat="43.28174062009383" lon="10.749581790777507"><ele>432.00000000000006</ele><time>2026-04-18T14:24:39.001Z</time></trkpt><trkpt lat="43.28177725759038" lon="10.74950947780309"><ele>432.00000000000006</ele><time>2026-04-18T14:24:40.001Z</time></trkpt><trkpt lat="43.28183064950014" lon="10.749366269693445"><ele>432.0</ele><time>2026-04-18T14:24:42.001Z</time></trkpt><trkpt lat="43.281878864128274" lon="10.749247347490902"><ele>432.0</ele><time>2026-04-18T14:24:44.001Z</time></trkpt><trkpt lat="43.28195026302982" lon="10.749143394633942"><ele>431.8</ele><time>2026-04-18T14:24:47.001Z</time></trkpt><trkpt lat="43.28205544182769" lon="10.749117786810316"><ele>431.6</ele><time>2026-04-18T14:24:49.001Z</time></trkpt><trkpt lat="43.28216104226112" lon="10.749121281491979"><ele>431.40000000000003</ele><time>2026-04-18T14:24:51.001Z</time></trkpt><trkpt lat="43.282265962803514" lon="10.749098154650465"><ele>431.20000000000005</ele><time>2026-04-18T14:24:53.001Z</time></trkpt><trkpt lat="43.282350835897404" lon="10.749003459978123"><ele>431.0</ele><time>2026-04-18T14:24:55.001Z</time></trkpt><trkpt lat="43.28238146121838" lon="10.748871323995607"><ele>431.0</ele><time>2026-04-18T14:24:57.001Z</time></trkpt><trkpt lat="43.28233785819657" lon="10.74871343233274"><ele>431.0</ele><time>2026-04-18T14:24:59.001Z</time></trkpt><trkpt lat="43.28229429449913" lon="10.748578944868624"><ele>431.0</ele><time>2026-04-18T14:25:01.001Z</time></trkpt><trkpt lat="43.282293931354914" lon="10.748489075218068"><ele>431.0</ele><time>2026-04-18T14:25:03.001Z</time></trkpt><trkpt lat="43.28233353572367" lon="10.748372102376978"><ele>431.0</ele><time>2026-04-18T14:25:05.001Z</time></trkpt><trkpt lat="43.28239451657059" lon="10.748247664206891"><ele>428.20000000000005</ele><time>2026-04-18T14:25:07.001Z</time></trkpt><trkpt lat="43.282450021175734" lon="10.748108165954788"><ele>425.40000000000003</ele><time>2026-04-18T14:25:09.001Z</time></trkpt><trkpt lat="43.28253895936411" lon="10.747990832544241"><ele>422.6</ele><time>2026-04-18T14:25:11.001Z</time></trkpt><trkpt lat="43.2826475839194" lon="10.747911444378778"><ele>419.8</ele><time>2026-04-18T14:25:13.001Z</time></trkpt><trkpt lat="43.28270448816139" lon="10.747866245677267"><ele>417.0</ele><time>2026-04-18T14:25:14.001Z</time></trkpt><trkpt lat="43.28277777945747" lon="10.74773113103045"><ele>416.40000000000003</ele><time>2026-04-18T14:25:16.001Z</time></trkpt><trkpt lat="43.282863867679154" lon="10.747670658890122"><ele>415.8</ele><time>2026-04-18T14:25:18.001Z</time></trkpt><trkpt lat="43.28296761792165" lon="10.747672564319195"><ele>415.2</ele><time>2026-04-18T14:25:20.001Z</time></trkpt><trkpt lat="43.28305380664552" lon="10.747619951157983"><ele>414.6</ele><time>2026-04-18T14:25:22.002Z</time></trkpt><trkpt lat="43.28310610452566" lon="10.747452066345422"><ele>414.0</ele><time>2026-04-18T14:25:24.002Z</time></trkpt><trkpt lat="43.283101714850595" lon="10.747362851933019"><ele>414.0</ele><time>2026-04-18T14:25:25.002Z</time></trkpt><trkpt lat="43.28310452414858" lon="10.747259872967962"><ele>414.0</ele><time>2026-04-18T14:25:26.002Z</time></trkpt><trkpt lat="43.283145595874764" lon="10.747194281909444"><ele>414.0</ele><time>2026-04-18T14:25:27.002Z</time></trkpt><trkpt lat="43.28323922684835" lon="10.747116480915096"><ele>414.0</ele><time>2026-04-18T14:25:29.002Z</time></trkpt><trkpt lat="43.28335567392296" lon="10.747090660983595"><ele>414.0</ele><time>2026-04-18T14:25:31.002Z</time></trkpt><trkpt lat="43.28348344386262" lon="10.747107243013582"><ele>414.0</ele><time>2026-04-18T14:25:33.002Z</time></trkpt><trkpt lat="43.28358118048474" lon="10.747108114800396"><ele>414.0</ele><time>2026-04-18T14:25:35.002Z</time></trkpt><trkpt lat="43.2836683384346" lon="10.747040048018171"><ele>414.0</ele><time>2026-04-18T14:25:37.002Z</time></trkpt><trkpt lat="43.28372917794171" lon="10.746968870094634"><ele>414.0</ele><time>2026-04-18T14:25:39.002Z</time></trkpt><trkpt lat="43.28372266764069" lon="10.746853525965452"><ele>414.0</ele><time>2026-04-18T14:25:43.002Z</time></trkpt><trkpt lat="43.28369025049284" lon="10.746772186418639"><ele>414.0</ele><time>2026-04-18T14:25:45.002Z</time></trkpt><trkpt lat="43.283619201286584" lon="10.746715753625598"><ele>411.6</ele><time>2026-04-18T14:25:47.002Z</time></trkpt><trkpt lat="43.2835225305669" lon="10.746650934843895"><ele>409.2</ele><time>2026-04-18T14:25:49.002Z</time></trkpt><trkpt lat="43.28342710509321" lon="10.746581089272103"><ele>406.8</ele><time>2026-04-18T14:25:51.002Z</time></trkpt><trkpt lat="43.28337121579701" lon="10.74647441591995"><ele>404.40000000000003</ele><time>2026-04-18T14:25:53.002Z</time></trkpt><trkpt lat="43.28334576288708" lon="10.74636308645415"><ele>402.0</ele><time>2026-04-18T14:25:55.002Z</time></trkpt><trkpt lat="43.28338253859427" lon="10.746210401654835"><ele>402.0</ele><time>2026-04-18T14:25:57.002Z</time></trkpt><trkpt lat="43.28341793088987" lon="10.746048306594929"><ele>402.0</ele><time>2026-04-18T14:25:59.002Z</time></trkpt><trkpt lat="43.28347368264561" lon="10.745909115656133"><ele>402.0</ele><time>2026-04-18T14:26:01.002Z</time></trkpt><trkpt lat="43.28353927458931" lon="10.745773837911985"><ele>402.0</ele><time>2026-04-18T14:26:03.002Z</time></trkpt><trkpt lat="43.2836030191926" lon="10.745637224576294"><ele>400.20000000000005</ele><time>2026-04-18T14:26:05.002Z</time></trkpt><trkpt lat="43.28366886714575" lon="10.745520306324824"><ele>398.4</ele><time>2026-04-18T14:26:07.003Z</time></trkpt><trkpt lat="43.283704649189396" lon="10.745395219089275"><ele>396.6</ele><time>2026-04-18T14:26:09Z</time></trkpt><trkpt lat="43.28372902062169" lon="10.745252197560294"><ele>394.79999999999995</ele><time>2026-04-18T14:26:11Z</time></trkpt><trkpt lat="43.2837054678492" lon="10.745098096480016"><ele>393.0</ele><time>2026-04-18T14:26:13Z</time></trkpt><trkpt lat="43.283666079974644" lon="10.744952278616989"><ele>392.3333333333333</ele><time>2026-04-18T14:26:15Z</time></trkpt><trkpt lat="43.28362469151533" lon="10.744872639432796"><ele>391.66666666666663</ele><time>2026-04-18T14:26:16Z</time></trkpt><trkpt lat="43.283592080167395" lon="10.744793142268861"><ele>391.0</ele><time>2026-04-18T14:26:17Z</time></trkpt><trkpt lat="43.283562467843595" lon="10.744708956203889"><ele>390.3333333333333</ele><time>2026-04-18T14:26:18Z</time></trkpt><trkpt lat="43.28351278746584" lon="10.74454564004669"><ele>389.66666666666663</ele><time>2026-04-18T14:26:20Z</time></trkpt><trkpt lat="43.28348066088313" lon="10.744466452768293"><ele>389.0</ele><time>2026-04-18T14:26:21Z</time></trkpt><trkpt lat="43.28340518581265" lon="10.744306774296826"><ele>388.5714285714286</ele><time>2026-04-18T14:26:23Z</time></trkpt><trkpt lat="43.28336453922707" lon="10.744227652389569"><ele>388.1428571428571</ele><time>2026-04-18T14:26:24Z</time></trkpt><trkpt lat="43.28332690949041" lon="10.74415452174167"><ele>387.7142857142857</ele><time>2026-04-18T14:26:25Z</time></trkpt><trkpt lat="43.283280376185274" lon="10.744077802160419"><ele>387.28571428571433</ele><time>2026-04-18T14:26:26Z</time></trkpt><trkpt lat="43.28323629543018" lon="10.744003396774188"><ele>386.8571428571429</ele><time>2026-04-18T14:26:27Z</time></trkpt><trkpt lat="43.283196535134216" lon="10.743922685381255"><ele>386.42857142857144</ele><time>2026-04-18T14:26:28Z</time></trkpt><trkpt lat="43.283155579698104" lon="10.743845593485597"><ele>386.0</ele><time>2026-04-18T14:26:29Z</time></trkpt><trkpt lat="43.2831012861926" lon="10.743773283968721"><ele>384.3333333333333</ele><time>2026-04-18T14:26:30Z</time></trkpt><trkpt lat="43.28305387606049" lon="10.743690137361664"><ele>382.66666666666663</ele><time>2026-04-18T14:26:31Z</time></trkpt><trkpt lat="43.28301485754186" lon="10.743607399472431"><ele>381.0</ele><time>2026-04-18T14:26:32Z</time></trkpt><trkpt lat="43.28298731255321" lon="10.743525537431202"><ele>379.3333333333333</ele><time>2026-04-18T14:26:33Z</time></trkpt><trkpt lat="43.282957234395724" lon="10.743389289228427"><ele>377.66666666666663</ele><time>2026-04-18T14:26:35Z</time></trkpt><trkpt lat="43.28294292587259" lon="10.743272770001717"><ele>376.0</ele><time>2026-04-18T14:26:37Z</time></trkpt><trkpt lat="43.28292875852156" lon="10.743138902947981"><ele>376.8</ele><time>2026-04-18T14:26:39Z</time></trkpt><trkpt lat="43.28291472696442" lon="10.743000198642537"><ele>377.6</ele><time>2026-04-18T14:26:41.001Z</time></trkpt><trkpt lat="43.28294336310464" lon="10.742867843425074"><ele>378.4</ele><time>2026-04-18T14:26:43.001Z</time></trkpt><trkpt lat="43.28306187647418" lon="10.742833583781149"><ele>379.2</ele><time>2026-04-18T14:26:45.001Z</time></trkpt><trkpt lat="43.28316885547373" lon="10.742824842077777"><ele>380.0</ele><time>2026-04-18T14:26:47.001Z</time></trkpt><trkpt lat="43.28326080527945" lon="10.742730210178125"><ele>380.0</ele><time>2026-04-18T14:26:49.001Z</time></trkpt><trkpt lat="43.28332674890077" lon="10.742619986583914"><ele>380.0</ele><time>2026-04-18T14:26:51.001Z</time></trkpt><trkpt lat="43.28343217378485" lon="10.742558048805934"><ele>380.0</ele><time>2026-04-18T14:26:53.001Z</time></trkpt><trkpt lat="43.28354720464196" lon="10.742560130387846"><ele>380.0</ele><time>2026-04-18T14:26:55.001Z</time></trkpt><trkpt lat="43.283647637608745" lon="10.74263768329649"><ele>380.0</ele><time>2026-04-18T14:26:57.001Z</time></trkpt><trkpt lat="43.283725722688374" lon="10.74273040714595"><ele>380.0</ele><time>2026-04-18T14:26:59.001Z</time></trkpt><trkpt lat="43.28380380877867" lon="10.742823371058929"><ele>380.0</ele><time>2026-04-18T14:27:01.001Z</time></trkpt><trkpt lat="43.28389790660063" lon="10.742892465249703"><ele>380.0</ele><time>2026-04-18T14:27:03.001Z</time></trkpt><trkpt lat="43.28400705990097" lon="10.742911201375495"><ele>380.0</ele><time>2026-04-18T14:27:05.001Z</time></trkpt><trkpt lat="43.284116473454176" lon="10.742920949234133"><ele>380.0</ele><time>2026-04-18T14:27:07.001Z</time></trkpt><trkpt lat="43.28422107620007" lon="10.742955414864989"><ele>378.8</ele><time>2026-04-18T14:27:09.001Z</time></trkpt><trkpt lat="43.28432218314275" lon="10.743021612449281"><ele>377.6</ele><time>2026-04-18T14:27:11.001Z</time></trkpt><trkpt lat="43.284397953841825" lon="10.743064210284729"><ele>376.4</ele><time>2026-04-18T14:27:13.001Z</time></trkpt><trkpt lat="43.28447610887376" lon="10.743071042990891"><ele>375.2</ele><time>2026-04-18T14:27:15.001Z</time></trkpt><trkpt lat="43.28457073018705" lon="10.743045550438291"><ele>374.0</ele><time>2026-04-18T14:27:17.001Z</time></trkpt><trkpt lat="43.284659337137995" lon="10.742993251066942"><ele>374.0</ele><time>2026-04-18T14:27:19.001Z</time></trkpt><trkpt lat="43.2847537970237" lon="10.742962795003855"><ele>374.0</ele><time>2026-04-18T14:27:21.001Z</time></trkpt><trkpt lat="43.28484076697715" lon="10.742950173555547"><ele>374.0</ele><time>2026-04-18T14:27:23.001Z</time></trkpt><trkpt lat="43.28493848223749" lon="10.742991377112048"><ele>374.0</ele><time>2026-04-18T14:27:25.001Z</time></trkpt><trkpt lat="43.28502761509244" lon="10.743062393700685"><ele>374.0</ele><time>2026-04-18T14:27:27.002Z</time></trkpt><trkpt lat="43.28509996071268" lon="10.743161850122082"><ele>372.4</ele><time>2026-04-18T14:27:29.002Z</time></trkpt><trkpt lat="43.28517615810789" lon="10.743256472324768"><ele>370.79999999999995</ele><time>2026-04-18T14:27:31.002Z</time></trkpt><trkpt lat="43.28526101425164" lon="10.743330429686326"><ele>369.20000000000005</ele><time>2026-04-18T14:27:33.002Z</time></trkpt><trkpt lat="43.285350781556545" lon="10.743379844050486"><ele>367.6</ele><time>2026-04-18T14:27:35.002Z</time></trkpt><trkpt lat="43.285444853579754" lon="10.743372281275734"><ele>366.0</ele><time>2026-04-18T14:27:37.002Z</time></trkpt><trkpt lat="43.28553943461105" lon="10.743396214980702"><ele>366.1666666666667</ele><time>2026-04-18T14:27:39.002Z</time></trkpt><trkpt lat="43.28561984902233" lon="10.743487323411752"><ele>366.3333333333333</ele><time>2026-04-18T14:27:41.002Z</time></trkpt><trkpt lat="43.285675916638695" lon="10.743599981826577"><ele>366.5</ele><time>2026-04-18T14:27:43.002Z</time></trkpt><trkpt lat="43.28570467510032" lon="10.74370759134759"><ele>366.66666666666663</ele><time>2026-04-18T14:27:45.002Z</time></trkpt><trkpt lat="43.28573152655768" lon="10.743810908106648"><ele>366.8333333333333</ele><time>2026-04-18T14:27:47.002Z</time></trkpt><trkpt lat="43.28575351695733" lon="10.743897456303204"><ele>367.0</ele><time>2026-04-18T14:27:49.002Z</time></trkpt><trkpt lat="43.28581338431316" lon="10.743960241822428"><ele>367.0</ele><time>2026-04-18T14:27:51.002Z</time></trkpt><trkpt lat="43.28588059060004" lon="10.743905796580547"><ele>367.0</ele><time>2026-04-18T14:27:53.002Z</time></trkpt><trkpt lat="43.285890143254086" lon="10.74379409371892"><ele>367.0</ele><time>2026-04-18T14:27:55.002Z</time></trkpt><trkpt lat="43.28588029991831" lon="10.743685863861707"><ele>367.0</ele><time>2026-04-18T14:27:57.002Z</time></trkpt><trkpt lat="43.285881042599335" lon="10.743561117531803"><ele>367.0</ele><time>2026-04-18T14:27:59.002Z</time></trkpt><trkpt lat="43.28587802995358" lon="10.743462178654042"><ele>367.0</ele><time>2026-04-18T14:28:01.002Z</time></trkpt><trkpt lat="43.28588695214656" lon="10.743342035254136"><ele>365.66666666666663</ele><time>2026-04-18T14:28:04.002Z</time></trkpt><trkpt lat="43.28591718932355" lon="10.74322160501404"><ele>364.3333333333333</ele><time>2026-04-18T14:28:06.002Z</time></trkpt><trkpt lat="43.285978727204714" lon="10.743115539643043"><ele>363.0</ele><time>2026-04-18T14:28:08.002Z</time></trkpt><trkpt lat="43.286048093442425" lon="10.743031979404485"><ele>361.6666666666667</ele><time>2026-04-18T14:28:10.002Z</time></trkpt><trkpt lat="43.28610117480835" lon="10.742978781865611"><ele>360.33333333333337</ele><time>2026-04-18T14:28:12.002Z</time></trkpt><trkpt lat="43.2861276125389" lon="10.742897345612155"><ele>359.0</ele><time>2026-04-18T14:28:19Z</time></trkpt><trkpt lat="43.286148212344465" lon="10.742809503357407"><ele>356.79999999999995</ele><time>2026-04-18T14:28:25Z</time></trkpt><trkpt lat="43.286186709199946" lon="10.742693176098378"><ele>354.59999999999997</ele><time>2026-04-18T14:28:27Z</time></trkpt><trkpt lat="43.286225906976036" lon="10.742561778599699"><ele>352.4</ele><time>2026-04-18T14:28:29Z</time></trkpt><trkpt lat="43.28626406215696" lon="10.742425077801595"><ele>350.2</ele><time>2026-04-18T14:28:31Z</time></trkpt><trkpt lat="43.28628885444661" lon="10.742285075065238"><ele>348.0</ele><time>2026-04-18T14:28:33Z</time></trkpt><trkpt lat="43.28630486396436" lon="10.74214737354727"><ele>348.0</ele><time>2026-04-18T14:28:35Z</time></trkpt><trkpt lat="43.286363742560084" lon="10.742021453291647"><ele>348.0</ele><time>2026-04-18T14:28:37Z</time></trkpt><trkpt lat="43.28643556477953" lon="10.741892288975732"><ele>348.0</ele><time>2026-04-18T14:28:39Z</time></trkpt><trkpt lat="43.28645602385281" lon="10.741808858718493"><ele>348.0</ele><time>2026-04-18T14:28:40Z</time></trkpt><trkpt lat="43.28648798043377" lon="10.741650066174373"><ele>348.0</ele><time>2026-04-18T14:28:42Z</time></trkpt><trkpt lat="43.28653824080044" lon="10.741499273533984"><ele>348.2</ele><time>2026-04-18T14:28:44Z</time></trkpt><trkpt lat="43.28660015750457" lon="10.74136237771266"><ele>348.4</ele><time>2026-04-18T14:28:46.001Z</time></trkpt><trkpt lat="43.28664656106536" lon="10.741265544346362"><ele>348.59999999999997</ele><time>2026-04-18T14:28:48.001Z</time></trkpt><trkpt lat="43.286667218897236" lon="10.74118084554286"><ele>348.79999999999995</ele><time>2026-04-18T14:28:50.001Z</time></trkpt><trkpt lat="43.28671079196456" lon="10.741088213277875"><ele>349.0</ele><time>2026-04-18T14:28:52.001Z</time></trkpt><trkpt lat="43.286742240628406" lon="10.740934166592629"><ele>345.8333333333333</ele><time>2026-04-18T14:28:54.001Z</time></trkpt><trkpt lat="43.28679980891124" lon="10.74077333011024"><ele>342.66666666666663</ele><time>2026-04-18T14:28:56.001Z</time></trkpt><trkpt lat="43.286836393893594" lon="10.740677327514184"><ele>339.5</ele><time>2026-04-18T14:28:57.001Z</time></trkpt><trkpt lat="43.286867455463536" lon="10.74059121479423"><ele>336.3333333333333</ele><time>2026-04-18T14:28:58.001Z</time></trkpt><trkpt lat="43.28690304643513" lon="10.740500843653903"><ele>333.1666666666667</ele><time>2026-04-18T14:28:59.001Z</time></trkpt><trkpt lat="43.28693259970587" lon="10.740423104885751"><ele>330.0</ele><time>2026-04-18T14:29:00.001Z</time></trkpt><trkpt lat="43.28697737306005" lon="10.740350408343678"><ele>331.6</ele><time>2026-04-18T14:29:01.001Z</time></trkpt><trkpt lat="43.287038410945925" lon="10.74019842198834"><ele>333.2</ele><time>2026-04-18T14:29:03.001Z</time></trkpt><trkpt lat="43.28708122356337" lon="10.740133071055965"><ele>334.79999999999995</ele><time>2026-04-18T14:29:04.001Z</time></trkpt><trkpt lat="43.287169753545975" lon="10.740041202995835"><ele>336.4</ele><time>2026-04-18T14:29:06.001Z</time></trkpt><trkpt lat="43.287240537407286" lon="10.739976497111803"><ele>338.0</ele><time>2026-04-18T14:29:08.001Z</time></trkpt><trkpt lat="43.28731744338348" lon="10.739900503515322"><ele>338.0</ele><time>2026-04-18T14:29:10.001Z</time></trkpt><trkpt lat="43.28734822726695" lon="10.739739214945006"><ele>338.0</ele><time>2026-04-18T14:29:12.001Z</time></trkpt><trkpt lat="43.28741385780408" lon="10.739617732672691"><ele>338.0</ele><time>2026-04-18T14:29:14.001Z</time></trkpt><trkpt lat="43.28744228349645" lon="10.739519040079355"><ele>338.0</ele><time>2026-04-18T14:29:15.001Z</time></trkpt><trkpt lat="43.287484130759026" lon="10.739445161731497"><ele>338.0</ele><time>2026-04-18T14:29:16.001Z</time></trkpt><trkpt lat="43.28757962713417" lon="10.739346180569909"><ele>338.0</ele><time>2026-04-18T14:29:18.001Z</time></trkpt><trkpt lat="43.28768122119983" lon="10.73934227728878"><ele>338.0</ele><time>2026-04-18T14:29:20.001Z</time></trkpt><trkpt lat="43.28778059457632" lon="10.739421670343614"><ele>338.0</ele><time>2026-04-18T14:29:22.001Z</time></trkpt><trkpt lat="43.2878516358383" lon="10.739505597309297"><ele>338.0</ele><time>2026-04-18T14:29:24.001Z</time></trkpt><trkpt lat="43.28791944183818" lon="10.739585840690546"><ele>338.0</ele><time>2026-04-18T14:29:27.001Z</time></trkpt><trkpt lat="43.287969200390755" lon="10.739665586341042"><ele>338.0</ele><time>2026-04-18T14:29:31.001Z</time></trkpt><trkpt lat="43.28806873805687" lon="10.739663434146275"><ele>338.0</ele><time>2026-04-18T14:29:35.002Z</time></trkpt><trkpt lat="43.28810237338775" lon="10.739551157805453"><ele>338.0</ele><time>2026-04-18T14:29:37.002Z</time></trkpt><trkpt lat="43.28811881025327" lon="10.73943866942399"><ele>338.0</ele><time>2026-04-18T14:29:39.002Z</time></trkpt><trkpt lat="43.288145525470355" lon="10.73932613053263"><ele>338.0</ele><time>2026-04-18T14:29:41.002Z</time></trkpt><trkpt lat="43.28818400516924" lon="10.739201072794035"><ele>336.0</ele><time>2026-04-18T14:29:43.002Z</time></trkpt><trkpt lat="43.28824161931687" lon="10.73906247558182"><ele>334.0</ele><time>2026-04-18T14:29:45.002Z</time></trkpt><trkpt lat="43.28830378478321" lon="10.738946734069795"><ele>332.0</ele><time>2026-04-18T14:29:47.002Z</time></trkpt><trkpt lat="43.28837951782591" lon="10.738829578188792"><ele>330.0</ele><time>2026-04-18T14:29:49.002Z</time></trkpt><trkpt lat="43.2884670719111" lon="10.738722727912847"><ele>330.0</ele><time>2026-04-18T14:29:51.002Z</time></trkpt><trkpt lat="43.28854969917221" lon="10.738627097676996"><ele>330.0</ele><time>2026-04-18T14:29:53.002Z</time></trkpt><trkpt lat="43.28863965831301" lon="10.738533129090003"><ele>330.0</ele><time>2026-04-18T14:29:55.002Z</time></trkpt><trkpt lat="43.28873894874145" lon="10.738468251832863"><ele>330.0</ele><time>2026-04-18T14:29:57.002Z</time></trkpt><trkpt lat="43.28883697144857" lon="10.738416523664759"><ele>330.0</ele><time>2026-04-18T14:29:59.002Z</time></trkpt><trkpt lat="43.28893561886872" lon="10.738364330249356"><ele>329.4</ele><time>2026-04-18T14:30:01.002Z</time></trkpt><trkpt lat="43.28901719827562" lon="10.738298601643088"><ele>328.8</ele><time>2026-04-18T14:30:03.002Z</time></trkpt><trkpt lat="43.28908876499983" lon="10.738217542164914"><ele>328.20000000000005</ele><time>2026-04-18T14:30:05.002Z</time></trkpt><trkpt lat="43.28917937247019" lon="10.73815376508575"><ele>327.6</ele><time>2026-04-18T14:30:07.002Z</time></trkpt><trkpt lat="43.28927401683032" lon="10.73808452243756"><ele>327.0</ele><time>2026-04-18T14:30:09.002Z</time></trkpt><trkpt lat="43.28936816872423" lon="10.738016731954296"><ele>327.0</ele><time>2026-04-18T14:30:11.002Z</time></trkpt><trkpt lat="43.28943056682525" lon="10.737992048350144"><ele>327.0</ele><time>2026-04-18T14:30:12.002Z</time></trkpt><trkpt lat="43.289530192112956" lon="10.737928834831635"><ele>327.0</ele><time>2026-04-18T14:30:14.002Z</time></trkpt><trkpt lat="43.28959503744191" lon="10.737809510963533"><ele>327.0</ele><time>2026-04-18T14:30:16.002Z</time></trkpt><trkpt lat="43.289639137447516" lon="10.737746603451443"><ele>327.0</ele><time>2026-04-18T14:30:17.002Z</time></trkpt><trkpt lat="43.28972181174857" lon="10.737630273444488"><ele>325.0</ele><time>2026-04-18T14:30:19.002Z</time></trkpt><trkpt lat="43.289807439757645" lon="10.737527314516175"><ele>323.0</ele><time>2026-04-18T14:30:21Z</time></trkpt><trkpt lat="43.28990251503375" lon="10.737437439750654"><ele>321.0</ele><time>2026-04-18T14:30:23Z</time></trkpt><trkpt lat="43.28998480273088" lon="10.737346055962037"><ele>319.0</ele><time>2026-04-18T14:30:25Z</time></trkpt><trkpt lat="43.29006415811308" lon="10.7372535761331"><ele>317.0</ele><time>2026-04-18T14:30:27Z</time></trkpt><trkpt lat="43.29014286742148" lon="10.737175422275358"><ele>317.0</ele><time>2026-04-18T14:30:29Z</time></trkpt><trkpt lat="43.290178166719585" lon="10.737100601084219"><ele>317.0</ele><time>2026-04-18T14:30:30Z</time></trkpt><trkpt lat="43.29023249623708" lon="10.736987572973332"><ele>317.0</ele><time>2026-04-18T14:30:32Z</time></trkpt><trkpt lat="43.290301781687674" lon="10.736849200266933"><ele>317.0</ele><time>2026-04-18T14:30:34Z</time></trkpt><trkpt lat="43.29034594008904" lon="10.736707040013812"><ele>317.0</ele><time>2026-04-18T14:30:36Z</time></trkpt><trkpt lat="43.29035709088079" lon="10.736566644425562"><ele>314.2</ele><time>2026-04-18T14:30:38Z</time></trkpt><trkpt lat="43.29035657824666" lon="10.73647430268132"><ele>311.4</ele><time>2026-04-18T14:30:40Z</time></trkpt><trkpt lat="43.29031632736164" lon="10.736297573089946"><ele>308.6</ele><time>2026-04-18T14:30:42Z</time></trkpt><trkpt lat="43.29028651919473" lon="10.736217407983505"><ele>305.8</ele><time>2026-04-18T14:30:43Z</time></trkpt><trkpt lat="43.29022492203587" lon="10.736072422676358"><ele>303.0</ele><time>2026-04-18T14:30:45Z</time></trkpt><trkpt lat="43.290154051525946" lon="10.735983606545183"><ele>303.0</ele><time>2026-04-18T14:30:47Z</time></trkpt><trkpt lat="43.290024200648794" lon="10.735957841806997"><ele>303.0</ele><time>2026-04-18T14:30:49Z</time></trkpt><trkpt lat="43.289953671845254" lon="10.735941110935833"><ele>303.0</ele><time>2026-04-18T14:30:51Z</time></trkpt><trkpt lat="43.28989507048513" lon="10.735905677749676"><ele>303.0</ele><time>2026-04-18T14:30:53Z</time></trkpt><trkpt lat="43.2898195177848" lon="10.735878050874433"><ele>303.0</ele><time>2026-04-18T14:30:55Z</time></trkpt><trkpt lat="43.289741110168734" lon="10.735850740611014"><ele>303.0</ele><time>2026-04-18T14:30:57Z</time></trkpt><trkpt lat="43.2896616187289" lon="10.735829454501147"><ele>300.3333333333333</ele><time>2026-04-18T14:30:59.001Z</time></trkpt><trkpt lat="43.28958270301188" lon="10.735805591114362"><ele>297.6666666666667</ele><time>2026-04-18T14:31:01.001Z</time></trkpt><trkpt lat="43.28949864030636" lon="10.735777552480775"><ele>295.0</ele><time>2026-04-18T14:31:03.001Z</time></trkpt><trkpt lat="43.289415347587386" lon="10.735729869158476"><ele>292.33333333333337</ele><time>2026-04-18T14:31:05.001Z</time></trkpt><trkpt lat="43.2893397582746" lon="10.73567218502268"><ele>289.6666666666667</ele><time>2026-04-18T14:31:07.001Z</time></trkpt><trkpt lat="43.28927320752298" lon="10.735609756367376"><ele>287.0</ele><time>2026-04-18T14:31:09.001Z</time></trkpt><trkpt lat="43.28921857372417" lon="10.735515752751434"><ele>287.0</ele><time>2026-04-18T14:31:11.001Z</time></trkpt><trkpt lat="43.289187300211125" lon="10.735386728115923"><ele>287.0</ele><time>2026-04-18T14:31:13.001Z</time></trkpt><trkpt lat="43.2891888783134" lon="10.735234642349983"><ele>287.0</ele><time>2026-04-18T14:31:15.001Z</time></trkpt><trkpt lat="43.2892074743277" lon="10.735080563389726"><ele>287.0</ele><time>2026-04-18T14:31:17.001Z</time></trkpt><trkpt lat="43.289218669787665" lon="10.734914486874716"><ele>287.0</ele><time>2026-04-18T14:31:19.001Z</time></trkpt><trkpt lat="43.28920969708237" lon="10.734759054788782"><ele>287.8</ele><time>2026-04-18T14:31:21.001Z</time></trkpt><trkpt lat="43.28916762076933" lon="10.734618857173682"><ele>288.6</ele><time>2026-04-18T14:31:23.001Z</time></trkpt><trkpt lat="43.289109353790415" lon="10.734492535815539"><ele>289.40000000000003</ele><time>2026-04-18T14:31:25.001Z</time></trkpt><trkpt lat="43.28908677472869" lon="10.73438747623683"><ele>290.2</ele><time>2026-04-18T14:31:27.001Z</time></trkpt><trkpt lat="43.289125421141534" lon="10.734274051626764"><ele>291.0</ele><time>2026-04-18T14:31:29.001Z</time></trkpt><trkpt lat="43.28920871024949" lon="10.734173398256083"><ele>288.5</ele><time>2026-04-18T14:31:31.001Z</time></trkpt><trkpt lat="43.28930260714271" lon="10.734088167805142"><ele>286.0</ele><time>2026-04-18T14:31:33.001Z</time></trkpt><trkpt lat="43.289391665816844" lon="10.733981540627557"><ele>283.5</ele><time>2026-04-18T14:31:35.001Z</time></trkpt><trkpt lat="43.28948199396473" lon="10.733877442910321"><ele>281.0</ele><time>2026-04-18T14:31:37.001Z</time></trkpt><trkpt lat="43.289568731023024" lon="10.733774168634053"><ele>281.0</ele><time>2026-04-18T14:31:39.001Z</time></trkpt><trkpt lat="43.28964629154156" lon="10.733648301716244"><ele>281.0</ele><time>2026-04-18T14:31:41.001Z</time></trkpt><trkpt lat="43.289713651251844" lon="10.733499712831774"><ele>281.0</ele><time>2026-04-18T14:31:43.001Z</time></trkpt><trkpt lat="43.289751307749924" lon="10.733426785357796"><ele>281.0</ele><time>2026-04-18T14:31:44.001Z</time></trkpt><trkpt lat="43.289799881359116" lon="10.733368317210738"><ele>281.0</ele><time>2026-04-18T14:31:45.001Z</time></trkpt><trkpt lat="43.289858433807424" lon="10.733318567126684"><ele>281.0</ele><time>2026-04-18T14:31:46.001Z</time></trkpt><trkpt lat="43.28992094607093" lon="10.733305737572534"><ele>281.2</ele><time>2026-04-18T14:31:47.001Z</time></trkpt><trkpt lat="43.2899866706379" lon="10.733302873187261"><ele>281.40000000000003</ele><time>2026-04-18T14:31:48.002Z</time></trkpt><trkpt lat="43.29010562696297" lon="10.733307798372854"><ele>281.6</ele><time>2026-04-18T14:31:50.002Z</time></trkpt><trkpt lat="43.290171451597374" lon="10.733311348334627"><ele>281.8</ele><time>2026-04-18T14:31:51.002Z</time></trkpt><trkpt lat="43.290285860629865" lon="10.733343794767501"><ele>282.0</ele><time>2026-04-18T14:31:53.002Z</time></trkpt><trkpt lat="43.290393449694754" lon="10.733391665214883"><ele>282.0</ele><time>2026-04-18T14:31:55.002Z</time></trkpt><trkpt lat="43.29050060971795" lon="10.733481785821464"><ele>282.0</ele><time>2026-04-18T14:31:57.002Z</time></trkpt><trkpt lat="43.290555861285384" lon="10.733526628244599"><ele>282.0</ele><time>2026-04-18T14:31:58.002Z</time></trkpt><trkpt lat="43.29060610354453" lon="10.733578921975447"><ele>282.0</ele><time>2026-04-18T14:31:59.002Z</time></trkpt><trkpt lat="43.290664657728215" lon="10.733714369643616"><ele>282.0</ele><time>2026-04-18T14:32:01.002Z</time></trkpt><trkpt lat="43.29065807169084" lon="10.733806075748827"><ele>282.0</ele><time>2026-04-18T14:32:02.002Z</time></trkpt><trkpt lat="43.290690724518456" lon="10.73393792754857"><ele>282.8571428571429</ele><time>2026-04-18T14:32:04.002Z</time></trkpt><trkpt lat="43.290767551893026" lon="10.73403551055281"><ele>283.7142857142857</ele><time>2026-04-18T14:32:06.002Z</time></trkpt><trkpt lat="43.290830262654076" lon="10.73405913761236"><ele>284.57142857142856</ele><time>2026-04-18T14:32:07.002Z</time></trkpt><trkpt lat="43.29089662348867" lon="10.734076727330507"><ele>285.42857142857144</ele><time>2026-04-18T14:32:08.002Z</time></trkpt><trkpt lat="43.29096160192188" lon="10.73407051324086"><ele>286.2857142857143</ele><time>2026-04-18T14:32:09.002Z</time></trkpt><trkpt lat="43.291034187818184" lon="10.734056359281917"><ele>287.14285714285717</ele><time>2026-04-18T14:32:10.002Z</time></trkpt><trkpt lat="43.291097207981764" lon="10.734051842243222"><ele>288.0</ele><time>2026-04-18T14:32:11.002Z</time></trkpt><trkpt lat="43.291166530969285" lon="10.73406877865807"><ele>288.0</ele><time>2026-04-18T14:32:12.002Z</time></trkpt><trkpt lat="43.291291979549314" lon="10.734108807669147"><ele>288.0</ele><time>2026-04-18T14:32:14.002Z</time></trkpt><trkpt lat="43.29134210549362" lon="10.734168944325077"><ele>288.0</ele><time>2026-04-18T14:32:15.002Z</time></trkpt><trkpt lat="43.29141373576704" lon="10.734277351157555"><ele>288.0</ele><time>2026-04-18T14:32:17.002Z</time></trkpt><trkpt lat="43.29145084212162" lon="10.734357070424343"><ele>288.0</ele><time>2026-04-18T14:32:18.002Z</time></trkpt><trkpt lat="43.2915220037235" lon="10.734495380266106"><ele>287.6</ele><time>2026-04-18T14:32:20.002Z</time></trkpt><trkpt lat="43.29157758093996" lon="10.734645347845102"><ele>287.20000000000005</ele><time>2026-04-18T14:32:22.002Z</time></trkpt><trkpt lat="43.29161317344027" lon="10.734792578912765"><ele>286.8</ele><time>2026-04-18T14:32:24.002Z</time></trkpt><trkpt lat="43.29161064963589" lon="10.734901221207954"><ele>286.40000000000003</ele><time>2026-04-18T14:32:27Z</time></trkpt><trkpt lat="43.291644599843764" lon="10.73497927732976"><ele>286.0</ele><time>2026-04-18T14:32:29Z</time></trkpt><trkpt lat="43.29171391577981" lon="10.734958524599017"><ele>286.0</ele><time>2026-04-18T14:32:31Z</time></trkpt><trkpt lat="43.29178144954514" lon="10.73492453743227"><ele>286.0</ele><time>2026-04-18T14:32:32Z</time></trkpt><trkpt lat="43.29186736994106" lon="10.734816971757649"><ele>286.0</ele><time>2026-04-18T14:32:34Z</time></trkpt><trkpt lat="43.29192655130376" lon="10.734750571623902"><ele>286.0</ele><time>2026-04-18T14:32:35Z</time></trkpt><trkpt lat="43.29196848423694" lon="10.734685995213853"><ele>286.0</ele><time>2026-04-18T14:32:36Z</time></trkpt><trkpt lat="43.29204058434028" lon="10.734562235136544"><ele>286.0</ele><time>2026-04-18T14:32:38Z</time></trkpt><trkpt lat="43.29209240759963" lon="10.734398475912021"><ele>283.66666666666663</ele><time>2026-04-18T14:32:40Z</time></trkpt><trkpt lat="43.29211466810839" lon="10.734302810705385"><ele>281.3333333333333</ele><time>2026-04-18T14:32:41Z</time></trkpt><trkpt lat="43.292131945426156" lon="10.734210828937615"><ele>279.0</ele><time>2026-04-18T14:32:42Z</time></trkpt><trkpt lat="43.29215263477636" lon="10.734123671050737"><ele>276.6666666666667</ele><time>2026-04-18T14:32:43Z</time></trkpt><trkpt lat="43.292212138367105" lon="10.733979793336207"><ele>274.33333333333337</ele><time>2026-04-18T14:32:45Z</time></trkpt><trkpt lat="43.29224131608904" lon="10.733895326224948"><ele>272.0</ele><time>2026-04-18T14:32:46Z</time></trkpt><trkpt lat="43.292245570823624" lon="10.733725408225897"><ele>272.0</ele><time>2026-04-18T14:32:48Z</time></trkpt><trkpt lat="43.29224198661203" lon="10.733599050147603"><ele>272.0</ele><time>2026-04-18T14:32:50Z</time></trkpt><trkpt lat="43.292264868965084" lon="10.733510693035452"><ele>272.0</ele><time>2026-04-18T14:32:51Z</time></trkpt><trkpt lat="43.29228184051998" lon="10.733410991002854"><ele>272.0</ele><time>2026-04-18T14:32:53Z</time></trkpt><trkpt lat="43.29230287109447" lon="10.733289918862084"><ele>272.0</ele><time>2026-04-18T14:32:56Z</time></trkpt><trkpt lat="43.292317490091236" lon="10.733184749895562"><ele>272.0</ele><time>2026-04-18T14:32:58Z</time></trkpt><trkpt lat="43.29237416240036" lon="10.733050812098705"><ele>271.6</ele><time>2026-04-18T14:33:00Z</time></trkpt><trkpt lat="43.29247370458164" lon="10.732975125596782"><ele>271.2</ele><time>2026-04-18T14:33:02Z</time></trkpt><trkpt lat="43.292558966132326" lon="10.733002495965582"><ele>270.8</ele><time>2026-04-18T14:33:04Z</time></trkpt><trkpt lat="43.292661024964424" lon="10.732941286235267"><ele>270.4</ele><time>2026-04-18T14:41:27.001Z</time></trkpt><trkpt lat="43.29269677924622" lon="10.732860153017414"><ele>270.0</ele><time>2026-04-18T14:42:24.001Z</time></trkpt><trkpt lat="43.29277960809672" lon="10.732818113437187"><ele>270.0</ele><time>2026-04-18T14:42:27.001Z</time></trkpt><trkpt lat="43.292883954292044" lon="10.732789053983742"><ele>270.0</ele><time>2026-04-18T14:42:30.001Z</time></trkpt><trkpt lat="43.292962202528976" lon="10.732820221949597"><ele>270.0</ele><time>2026-04-18T14:42:32.001Z</time></trkpt><trkpt lat="43.29302365605896" lon="10.732852279795836"><ele>270.0</ele><time>2026-04-18T14:42:34.001Z</time></trkpt><trkpt lat="43.29311395025189" lon="10.732808381998247"><ele>270.0</ele><time>2026-04-18T14:42:36.001Z</time></trkpt><trkpt lat="43.29311557653244" lon="10.732663839730783"><ele>269.5</ele><time>2026-04-18T14:42:38.001Z</time></trkpt><trkpt lat="43.29309325408173" lon="10.732564564089328"><ele>269.0</ele><time>2026-04-18T14:42:40.001Z</time></trkpt><trkpt lat="43.29309919709433" lon="10.732426655448759"><ele>268.5</ele><time>2026-04-18T14:42:42.002Z</time></trkpt><trkpt lat="43.29313911862634" lon="10.732323866407032"><ele>268.0</ele><time>2026-04-18T14:42:44.002Z</time></trkpt><trkpt lat="43.29316942838395" lon="10.732213840689719"><ele>267.5</ele><time>2026-04-18T14:42:46.002Z</time></trkpt><trkpt lat="43.29316665059592" lon="10.73211878758076"><ele>267.0</ele><time>2026-04-18T14:42:47.002Z</time></trkpt><trkpt lat="43.293180814936974" lon="10.732025286163784"><ele>265.1666666666667</ele><time>2026-04-18T14:42:48.002Z</time></trkpt><trkpt lat="43.29314928436317" lon="10.73186095658026"><ele>263.3333333333333</ele><time>2026-04-18T14:42:50.002Z</time></trkpt><trkpt lat="43.293126785129836" lon="10.73177992925454"><ele>261.5</ele><time>2026-04-18T14:42:51.002Z</time></trkpt><trkpt lat="43.29307105531518" lon="10.731721941125642"><ele>259.66666666666663</ele><time>2026-04-18T14:42:52.002Z</time></trkpt><trkpt lat="43.29302483361481" lon="10.731649611782624"><ele>257.8333333333333</ele><time>2026-04-18T14:42:53.002Z</time></trkpt><trkpt lat="43.29300805254987" lon="10.731564512236114"><ele>256.0</ele><time>2026-04-18T14:42:54.002Z</time></trkpt><trkpt lat="43.29297705431874" lon="10.73147171537618"><ele>256.0</ele><time>2026-04-18T14:42:55.002Z</time></trkpt><trkpt lat="43.29296597657869" lon="10.731339167661984"><ele>256.0</ele><time>2026-04-18T14:42:57Z</time></trkpt><trkpt lat="43.29301079469607" lon="10.731233839837179"><ele>256.0</ele><time>2026-04-18T14:42:59Z</time></trkpt><trkpt lat="43.293054875177404" lon="10.731129987948455"><ele>256.0</ele><time>2026-04-18T14:43:01Z</time></trkpt><trkpt lat="43.293121736197364" lon="10.731063656124148"><ele>256.0</ele><time>2026-04-18T14:43:02Z</time></trkpt><trkpt lat="43.29315794468333" lon="10.730931435912622"><ele>256.16666666666663</ele><time>2026-04-18T14:43:04Z</time></trkpt><trkpt lat="43.293206921962266" lon="10.730797979842938"><ele>256.3333333333333</ele><time>2026-04-18T14:43:06Z</time></trkpt><trkpt lat="43.29324739543251" lon="10.730714125040487"><ele>256.5</ele><time>2026-04-18T14:43:07Z</time></trkpt><trkpt lat="43.29325998631506" lon="10.73060923123346"><ele>256.6666666666667</ele><time>2026-04-18T14:43:08Z</time></trkpt><trkpt lat="43.29328958712657" lon="10.73051633344499"><ele>256.83333333333337</ele><time>2026-04-18T14:43:09Z</time></trkpt><trkpt lat="43.2933290460127" lon="10.73040441467458"><ele>257.0</ele><time>2026-04-18T14:43:10Z</time></trkpt><trkpt lat="43.2933463876475" lon="10.73030754810969"><ele>257.0</ele><time>2026-04-18T14:43:11Z</time></trkpt><trkpt lat="43.29337321567151" lon="10.730225344566694"><ele>257.0</ele><time>2026-04-18T14:43:12Z</time></trkpt><trkpt lat="43.29345664519377" lon="10.73009933688304"><ele>257.0</ele><time>2026-04-18T14:43:14Z</time></trkpt><trkpt lat="43.29350749666827" lon="10.730034028311525"><ele>257.0</ele><time>2026-04-18T14:43:15Z</time></trkpt><trkpt lat="43.293572855739164" lon="10.730011641555114"><ele>257.0</ele><time>2026-04-18T14:43:16Z</time></trkpt><trkpt lat="43.293693755142215" lon="10.729958843309474"><ele>256.5</ele><time>2026-04-18T14:43:18Z</time></trkpt><trkpt lat="43.29376050346877" lon="10.729919777637258"><ele>256.0</ele><time>2026-04-18T14:43:19Z</time></trkpt><trkpt lat="43.293883665642674" lon="10.729901640881343"><ele>255.5</ele><time>2026-04-18T14:43:21Z</time></trkpt><trkpt lat="43.29394595752815" lon="10.729877791023215"><ele>255.0</ele><time>2026-04-18T14:43:22Z</time></trkpt><trkpt lat="43.2940204154039" lon="10.729849283139272"><ele>254.50000000000003</ele><time>2026-04-18T14:43:24Z</time></trkpt><trkpt lat="43.29409597325228" lon="10.729814979800288"><ele>254.0</ele><time>2026-04-18T14:43:27Z</time></trkpt><trkpt lat="43.29417273373909" lon="10.72975804057558"><ele>254.0</ele><time>2026-04-18T14:43:29Z</time></trkpt><trkpt lat="43.294239665898274" lon="10.729723193768777"><ele>254.0</ele><time>2026-04-18T14:43:31Z</time></trkpt><trkpt lat="43.29430040396427" lon="10.729685724826632"><ele>254.0</ele><time>2026-04-18T14:43:33Z</time></trkpt><trkpt lat="43.29437176744637" lon="10.729647344923947"><ele>254.0</ele><time>2026-04-18T14:43:35Z</time></trkpt><trkpt lat="43.29445459379914" lon="10.729614739469994"><ele>254.0</ele><time>2026-04-18T14:43:37Z</time></trkpt><trkpt lat="43.294518331120244" lon="10.729604288728268"><ele>254.0</ele><time>2026-04-18T14:43:40Z</time></trkpt><trkpt lat="43.29453805172658" lon="10.729689416525982"><ele>254.0</ele><time>2026-04-18T14:43:42Z</time></trkpt><trkpt lat="43.29455659344713" lon="10.729772952121923"><ele>254.0</ele><time>2026-04-18T14:43:44.001Z</time></trkpt><trkpt lat="43.2945770440286" lon="10.729865087865237"><ele>253.99999999999997</ele><time>2026-04-18T14:43:47.001Z</time></trkpt><trkpt lat="43.29470575183666" lon="10.729823143748515"><ele>253.99999999999997</ele><time>2026-04-18T14:43:50.001Z</time></trkpt><trkpt lat="43.29475260915386" lon="10.729740574516777"><ele>254.0</ele><time>2026-04-18T14:43:58.001Z</time></trkpt><trkpt lat="43.294794955819114" lon="10.729623666655309"><ele>254.0</ele><time>2026-04-18T14:44:02.001Z</time></trkpt><trkpt lat="43.29478232605424" lon="10.729512716794217"><ele>252.33333333333334</ele><time>2026-04-18T14:44:03.001Z</time></trkpt><trkpt lat="43.29479214255475" lon="10.729384085707801"><ele>250.66666666666669</ele><time>2026-04-18T14:44:05.001Z</time></trkpt><trkpt lat="43.29483037260521" lon="10.729301877685188"><ele>249.0</ele><time>2026-04-18T14:44:07.001Z</time></trkpt><trkpt lat="43.29489313769046" lon="10.729272403766318"><ele>247.33333333333331</ele><time>2026-04-18T14:44:08.001Z</time></trkpt><trkpt lat="43.29495224729262" lon="10.72922403278072"><ele>245.66666666666666</ele><time>2026-04-18T14:44:09.001Z</time></trkpt><trkpt lat="43.29503202072872" lon="10.7291691114587"><ele>244.0</ele><time>2026-04-18T14:44:10.001Z</time></trkpt><trkpt lat="43.29510328211757" lon="10.729115771546024"><ele>244.0</ele><time>2026-04-18T14:44:11.001Z</time></trkpt><trkpt lat="43.29517021203878" lon="10.72906259974495"><ele>243.99999999999997</ele><time>2026-04-18T14:44:12.001Z</time></trkpt><trkpt lat="43.29524943052933" lon="10.729006490592447"><ele>243.99999999999997</ele><time>2026-04-18T14:44:13.001Z</time></trkpt><trkpt lat="43.29533518545612" lon="10.728938701611291"><ele>244.0</ele><time>2026-04-18T14:44:14.001Z</time></trkpt><trkpt lat="43.295399223846864" lon="10.728837039635675"><ele>244.0</ele><time>2026-04-18T14:44:15.001Z</time></trkpt><trkpt lat="43.29548760908852" lon="10.728751115110205"><ele>244.0</ele><time>2026-04-18T14:44:16.001Z</time></trkpt><trkpt lat="43.29555090994333" lon="10.72863054970862"><ele>243.99999999999997</ele><time>2026-04-18T14:44:17.001Z</time></trkpt><trkpt lat="43.29561109949092" lon="10.728512632118745"><ele>243.99999999999997</ele><time>2026-04-18T14:44:18.001Z</time></trkpt><trkpt lat="43.29567342654613" lon="10.728396677398026"><ele>244.0</ele><time>2026-04-18T14:44:19.001Z</time></trkpt><trkpt lat="43.29573855344865" lon="10.728268252855464"><ele>244.0</ele><time>2026-04-18T14:44:20.001Z</time></trkpt><trkpt lat="43.29579109873557" lon="10.728154519764773"><ele>240.16666666666666</ele><time>2026-04-18T14:44:21.001Z</time></trkpt><trkpt lat="43.295828326018494" lon="10.728065620349213"><ele>236.33333333333331</ele><time>2026-04-18T14:44:22.001Z</time></trkpt><trkpt lat="43.29586571252246" lon="10.727962592389755"><ele>232.5</ele><time>2026-04-18T14:44:23.001Z</time></trkpt><trkpt lat="43.29587052324976" lon="10.727863888367105"><ele>228.66666666666669</ele><time>2026-04-18T14:44:24.001Z</time></trkpt><trkpt lat="43.29585680795477" lon="10.727699230108405"><ele>224.83333333333334</ele><time>2026-04-18T14:44:26.001Z</time></trkpt><trkpt lat="43.29581675500852" lon="10.727630063187233"><ele>221.0</ele><time>2026-04-18T14:44:27.001Z</time></trkpt><trkpt lat="43.29576061871173" lon="10.727546259651598"><ele>220.16666666666669</ele><time>2026-04-18T14:44:28.001Z</time></trkpt><trkpt lat="43.29570128383907" lon="10.72747435449958"><ele>219.33333333333334</ele><time>2026-04-18T14:44:29.001Z</time></trkpt><trkpt lat="43.29563646571955" lon="10.727398270216959"><ele>218.5</ele><time>2026-04-18T14:44:30.001Z</time></trkpt><trkpt lat="43.29557681761221" lon="10.727320624771322"><ele>217.66666666666669</ele><time>2026-04-18T14:44:31.001Z</time></trkpt><trkpt lat="43.29550297969123" lon="10.727248645396317"><ele>216.83333333333334</ele><time>2026-04-18T14:44:32.001Z</time></trkpt><trkpt lat="43.29542972320754" lon="10.727162332150108"><ele>216.0</ele><time>2026-04-18T14:44:33.001Z</time></trkpt><trkpt lat="43.295354866146575" lon="10.727050824142395"><ele>215.5</ele><time>2026-04-18T14:44:35.001Z</time></trkpt><trkpt lat="43.29534060411845" lon="10.726923810365072"><ele>215.0</ele><time>2026-04-18T14:44:37.001Z</time></trkpt><trkpt lat="43.2954163308032" lon="10.726869777288142"><ele>214.5</ele><time>2026-04-18T14:44:38.001Z</time></trkpt><trkpt lat="43.295485644786424" lon="10.726810851566022"><ele>214.0</ele><time>2026-04-18T14:44:39.001Z</time></trkpt><trkpt lat="43.295557037355294" lon="10.726742000221721"><ele>213.5</ele><time>2026-04-18T14:44:40.001Z</time></trkpt><trkpt lat="43.295627818843705" lon="10.726700771749504"><ele>213.0</ele><time>2026-04-18T14:44:41.001Z</time></trkpt><trkpt lat="43.29569566096071" lon="10.726685037087387"><ele>213.5</ele><time>2026-04-18T14:44:42.001Z</time></trkpt><trkpt lat="43.29575398629891" lon="10.7267366057911"><ele>214.0</ele><time>2026-04-18T14:44:43.001Z</time></trkpt><trkpt lat="43.295815157681794" lon="10.72679194900667"><ele>214.5</ele><time>2026-04-18T14:44:44.001Z</time></trkpt><trkpt lat="43.29588618846905" lon="10.726852570500405"><ele>215.0</ele><time>2026-04-18T14:44:45.001Z</time></trkpt><trkpt lat="43.29596157847408" lon="10.726918003153202"><ele>215.5</ele><time>2026-04-18T14:44:46.001Z</time></trkpt><trkpt lat="43.296035420191075" lon="10.72698853501818"><ele>216.0</ele><time>2026-04-18T14:44:47.001Z</time></trkpt><trkpt lat="43.29610463714434" lon="10.727062656979859"><ele>216.0</ele><time>2026-04-18T14:44:48.001Z</time></trkpt><trkpt lat="43.29617090969978" lon="10.727133854703286"><ele>216.0</ele><time>2026-04-18T14:44:49.001Z</time></trkpt><trkpt lat="43.29624116007606" lon="10.72717201474672"><ele>216.0</ele><time>2026-04-18T14:44:50.001Z</time></trkpt><trkpt lat="43.29633842744709" lon="10.727235935432239"><ele>216.0</ele><time>2026-04-18T14:44:52.001Z</time></trkpt><trkpt lat="43.2963979814355" lon="10.727199166872357"><ele>216.0</ele><time>2026-04-18T14:44:53.001Z</time></trkpt><trkpt lat="43.29642499302185" lon="10.727070201808372"><ele>216.0</ele><time>2026-04-18T14:44:54.001Z</time></trkpt><trkpt lat="43.29638210291814" lon="10.726950133970893"><ele>214.16666666666666</ele><time>2026-04-18T14:44:55.001Z</time></trkpt><trkpt lat="43.29638825589225" lon="10.726836381497472"><ele>212.33333333333331</ele><time>2026-04-18T14:44:56.001Z</time></trkpt><trkpt lat="43.29640222885417" lon="10.726727335390446"><ele>210.5</ele><time>2026-04-18T14:44:57.001Z</time></trkpt><trkpt lat="43.29642461068909" lon="10.72661554968445"><ele>208.66666666666666</ele><time>2026-04-18T14:44:58.001Z</time></trkpt><trkpt lat="43.296471860623654" lon="10.726508541269963"><ele>206.83333333333331</ele><time>2026-04-18T14:44:59.001Z</time></trkpt><trkpt lat="43.29651051406081" lon="10.726400546982786"><ele>205.0</ele><time>2026-04-18T14:45:00.001Z</time></trkpt><trkpt lat="43.296531359586936" lon="10.726286063399794"><ele>203.4</ele><time>2026-04-18T14:45:01.001Z</time></trkpt><trkpt lat="43.296570789927785" lon="10.726196862517732"><ele>201.8</ele><time>2026-04-18T14:45:01.999Z</time></trkpt><trkpt lat="43.29651175783098" lon="10.726030974985104"><ele>200.2</ele><time>2026-04-18T14:45:03.999Z</time></trkpt><trkpt lat="43.29646357668154" lon="10.72596130864379"><ele>198.6</ele><time>2026-04-18T14:45:04.999Z</time></trkpt><trkpt lat="43.2963693189856" lon="10.72576962728644"><ele>197.0</ele><time>2026-04-18T14:45:06.999Z</time></trkpt><trkpt lat="43.29638506604248" lon="10.725648236023437"><ele>197.00000000000003</ele><time>2026-04-18T14:45:07.999Z</time></trkpt><trkpt lat="43.29641184683294" lon="10.725549144858647"><ele>197.0</ele><time>2026-04-18T14:45:08.999Z</time></trkpt><trkpt lat="43.29645516911449" lon="10.725457575406951"><ele>197.0</ele><time>2026-04-18T14:45:10Z</time></trkpt><trkpt lat="43.29649915236662" lon="10.725360612664643"><ele>197.0</ele><time>2026-04-18T14:45:11Z</time></trkpt><trkpt lat="43.29655298789177" lon="10.72526028871439"><ele>197.00000000000003</ele><time>2026-04-18T14:45:11.999Z</time></trkpt><trkpt lat="43.296616221433084" lon="10.725171878492837"><ele>197.0</ele><time>2026-04-18T14:45:13Z</time></trkpt><trkpt lat="43.296689204027174" lon="10.725104625603084"><ele>194.6</ele><time>2026-04-18T14:45:14Z</time></trkpt><trkpt lat="43.296764275484435" lon="10.72501732359145"><ele>192.2</ele><time>2026-04-18T14:45:15Z</time></trkpt><trkpt lat="43.296860456139214" lon="10.724968762395862"><ele>189.8</ele><time>2026-04-18T14:45:16Z</time></trkpt><trkpt lat="43.29696129613422" lon="10.724927150900868"><ele>187.4</ele><time>2026-04-18T14:45:17Z</time></trkpt><trkpt lat="43.297063549738276" lon="10.724884036642425"><ele>185.0</ele><time>2026-04-18T14:45:18Z</time></trkpt><trkpt lat="43.29717762051886" lon="10.724874170409443"><ele>185.0</ele><time>2026-04-18T14:45:19Z</time></trkpt><trkpt lat="43.297273359131644" lon="10.724835074442018"><ele>185.0</ele><time>2026-04-18T14:45:20Z</time></trkpt><trkpt lat="43.29736985175342" lon="10.724795584780825"><ele>185.0</ele><time>2026-04-18T14:45:21Z</time></trkpt><trkpt lat="43.29745539506311" lon="10.724760341973736"><ele>185.0</ele><time>2026-04-18T14:45:22Z</time></trkpt><trkpt lat="43.29752441991996" lon="10.724731904563706"><ele>185.0</ele><time>2026-04-18T14:45:23Z</time></trkpt><trkpt lat="43.2975869406406" lon="10.72469254526926"><ele>185.0</ele><time>2026-04-18T14:45:24Z</time></trkpt><trkpt lat="43.29768039399947" lon="10.724677071214208"><ele>185.0</ele><time>2026-04-18T14:45:26Z</time></trkpt><trkpt lat="43.29775288608365" lon="10.724596622079153"><ele>185.0</ele><time>2026-04-18T14:45:28Z</time></trkpt><trkpt lat="43.29770803597965" lon="10.724431281194468"><ele>185.0</ele><time>2026-04-18T14:45:30Z</time></trkpt><trkpt lat="43.297668371549314" lon="10.724358933171443"><ele>185.0</ele><time>2026-04-18T14:45:31Z</time></trkpt><trkpt lat="43.297622892915754" lon="10.724275613232072"><ele>185.0</ele><time>2026-04-18T14:45:32Z</time></trkpt><trkpt lat="43.29757484175416" lon="10.724185478971163"><ele>185.0</ele><time>2026-04-18T14:45:33Z</time></trkpt><trkpt lat="43.29752370982754" lon="10.724085233483631"><ele>185.33333333333331</ele><time>2026-04-18T14:45:34Z</time></trkpt><trkpt lat="43.29747229621948" lon="10.723981112197727"><ele>185.66666666666666</ele><time>2026-04-18T14:45:35Z</time></trkpt><trkpt lat="43.297423349489165" lon="10.72387338026261"><ele>186.0</ele><time>2026-04-18T14:45:36Z</time></trkpt><trkpt lat="43.29737924246037" lon="10.723770182217661"><ele>186.33333333333334</ele><time>2026-04-18T14:45:37Z</time></trkpt><trkpt lat="43.29733950777544" lon="10.723667260021886"><ele>186.66666666666669</ele><time>2026-04-18T14:45:38Z</time></trkpt><trkpt lat="43.2973108456408" lon="10.723572264406561"><ele>187.0</ele><time>2026-04-18T14:45:39Z</time></trkpt><trkpt lat="43.2973024777407" lon="10.723389152954867"><ele>187.5</ele><time>2026-04-18T14:45:41Z</time></trkpt><trkpt lat="43.29730460838552" lon="10.723274890369575"><ele>188.0</ele><time>2026-04-18T14:45:42Z</time></trkpt><trkpt lat="43.297298180085924" lon="10.723171859302877"><ele>188.5</ele><time>2026-04-18T14:45:43Z</time></trkpt><trkpt lat="43.29727322107825" lon="10.723065275719685"><ele>189.0</ele><time>2026-04-18T14:45:44Z</time></trkpt><trkpt lat="43.29724030405307" lon="10.722965977403225"><ele>189.5</ele><time>2026-04-18T14:45:45Z</time></trkpt><trkpt lat="43.297204492037814" lon="10.72286737566565"><ele>190.0</ele><time>2026-04-18T14:45:46Z</time></trkpt><trkpt lat="43.29716025138288" lon="10.722762878739992"><ele>188.2</ele><time>2026-04-18T14:45:47Z</time></trkpt><trkpt lat="43.29710171024557" lon="10.722665773650675"><ele>186.4</ele><time>2026-04-18T14:45:48Z</time></trkpt><trkpt lat="43.297025895684335" lon="10.722578958656552"><ele>184.60000000000002</ele><time>2026-04-18T14:45:49Z</time></trkpt><trkpt lat="43.29695206531273" lon="10.722505873748261"><ele>182.8</ele><time>2026-04-18T14:45:50Z</time></trkpt><trkpt lat="43.296873792038184" lon="10.722439211651908"><ele>181.0</ele><time>2026-04-18T14:45:51Z</time></trkpt><trkpt lat="43.296810249380826" lon="10.7223784589628"><ele>181.0</ele><time>2026-04-18T14:45:52Z</time></trkpt><trkpt lat="43.2967521869535" lon="10.722205857199267"><ele>181.0</ele><time>2026-04-18T14:45:54Z</time></trkpt><trkpt lat="43.296728377440175" lon="10.722095803581304"><ele>181.0</ele><time>2026-04-18T14:45:55Z</time></trkpt><trkpt lat="43.29669894393974" lon="10.721979163676211"><ele>181.0</ele><time>2026-04-18T14:45:56Z</time></trkpt><trkpt lat="43.29667637436517" lon="10.721861327234658"><ele>181.0</ele><time>2026-04-18T14:45:57Z</time></trkpt><trkpt lat="43.296651386842726" lon="10.721742139933733"><ele>180.0</ele><time>2026-04-18T14:45:58Z</time></trkpt><trkpt lat="43.29662529643813" lon="10.721626251142359"><ele>179.0</ele><time>2026-04-18T14:45:59Z</time></trkpt><trkpt lat="43.2966026587578" lon="10.72152033874206"><ele>178.0</ele><time>2026-04-18T14:46:00Z</time></trkpt><trkpt lat="43.29658962807262" lon="10.721430299627515"><ele>177.0</ele><time>2026-04-18T14:46:01Z</time></trkpt><trkpt lat="43.296623096616926" lon="10.721286669056436"><ele>176.0</ele><time>2026-04-18T14:46:03Z</time></trkpt><trkpt lat="43.29668775082705" lon="10.72126553990574"><ele>175.0</ele><time>2026-04-18T14:46:04Z</time></trkpt><trkpt lat="43.29673637707922" lon="10.721207814937218"><ele>175.0</ele><time>2026-04-18T14:46:05Z</time></trkpt><trkpt lat="43.296792545729204" lon="10.721133757670591"><ele>175.0</ele><time>2026-04-18T14:46:06Z</time></trkpt><trkpt lat="43.29685111532746" lon="10.721057185785112"><ele>175.0</ele><time>2026-04-18T14:46:07Z</time></trkpt><trkpt lat="43.29691562566421" lon="10.720978188912607"><ele>175.0</ele><time>2026-04-18T14:46:08Z</time></trkpt><trkpt lat="43.29698527750211" lon="10.720892896114984"><ele>175.0</ele><time>2026-04-18T14:46:09Z</time></trkpt><trkpt lat="43.297053565051044" lon="10.720806856994223"><ele>175.0</ele><time>2026-04-18T14:46:10Z</time></trkpt><trkpt lat="43.2971225451124" lon="10.720717693476491"><ele>175.0</ele><time>2026-04-18T14:46:11Z</time></trkpt><trkpt lat="43.29719282432801" lon="10.720625428190806"><ele>175.0</ele><time>2026-04-18T14:46:12Z</time></trkpt><trkpt lat="43.29726461750917" lon="10.720531175183998"><ele>175.0</ele><time>2026-04-18T14:46:13Z</time></trkpt><trkpt lat="43.29732816582707" lon="10.720422251239796"><ele>175.0</ele><time>2026-04-18T14:46:14.001Z</time></trkpt><trkpt lat="43.297404241607175" lon="10.72032676716753"><ele>175.0</ele><time>2026-04-18T14:46:15.001Z</time></trkpt><trkpt lat="43.297479499843355" lon="10.720229488315413"><ele>175.0</ele><time>2026-04-18T14:46:16.001Z</time></trkpt><trkpt lat="43.29755436172037" lon="10.720135800777125"><ele>175.0</ele><time>2026-04-18T14:46:17.001Z</time></trkpt><trkpt lat="43.29762632312583" lon="10.720042286751546"><ele>175.0</ele><time>2026-04-18T14:46:18.001Z</time></trkpt><trkpt lat="43.29769334043466" lon="10.719959691650864"><ele>175.0</ele><time>2026-04-18T14:46:19.001Z</time></trkpt><trkpt lat="43.29775996578725" lon="10.719879596148228"><ele>175.0</ele><time>2026-04-18T14:46:20.001Z</time></trkpt><trkpt lat="43.29781735761063" lon="10.719808974310128"><ele>175.0</ele><time>2026-04-18T14:46:21.001Z</time></trkpt><trkpt lat="43.29786794706768" lon="10.719741115011129"><ele>175.0</ele><time>2026-04-18T14:46:22.001Z</time></trkpt><trkpt lat="43.297931024958395" lon="10.719601013767848"><ele>175.0</ele><time>2026-04-18T14:46:24.001Z</time></trkpt><trkpt lat="43.29790647901571" lon="10.719444112434324"><ele>175.0</ele><time>2026-04-18T14:46:26.001Z</time></trkpt><trkpt lat="43.29786150078194" lon="10.719374593563591"><ele>175.0</ele><time>2026-04-18T14:46:27.001Z</time></trkpt><trkpt lat="43.29780650853342" lon="10.719303240415726"><ele>174.0</ele><time>2026-04-18T14:46:28.001Z</time></trkpt><trkpt lat="43.29774762592815" lon="10.719223158409067"><ele>173.0</ele><time>2026-04-18T14:46:29.001Z</time></trkpt><trkpt lat="43.297694685148564" lon="10.719114651835426"><ele>172.0</ele><time>2026-04-18T14:46:30.001Z</time></trkpt><trkpt lat="43.29762912489476" lon="10.719018317946828"><ele>171.0</ele><time>2026-04-18T14:46:31.001Z</time></trkpt><trkpt lat="43.297564008664764" lon="10.718916113727156"><ele>170.0</ele><time>2026-04-18T14:46:32.001Z</time></trkpt><trkpt lat="43.29749890047391" lon="10.718813212084896"><ele>170.0</ele><time>2026-04-18T14:46:33.001Z</time></trkpt><trkpt lat="43.29743422137046" lon="10.718708259191843"><ele>170.0</ele><time>2026-04-18T14:46:34.001Z</time></trkpt><trkpt lat="43.29736651377711" lon="10.71860031952785"><ele>170.0</ele><time>2026-04-18T14:46:35.001Z</time></trkpt><trkpt lat="43.29729362728069" lon="10.718498350001578"><ele>170.0</ele><time>2026-04-18T14:46:36.001Z</time></trkpt><trkpt lat="43.29721898583036" lon="10.718396254875124"><ele>170.0</ele><time>2026-04-18T14:46:37.001Z</time></trkpt><trkpt lat="43.2971472676097" lon="10.718299008242845"><ele>170.2</ele><time>2026-04-18T14:46:38.001Z</time></trkpt><trkpt lat="43.29707931616164" lon="10.71820466693292"><ele>170.4</ele><time>2026-04-18T14:46:39.001Z</time></trkpt><trkpt lat="43.29700428567344" lon="10.718117564531084"><ele>170.60000000000002</ele><time>2026-04-18T14:46:40.001Z</time></trkpt><trkpt lat="43.29695246708779" lon="10.718005025401567"><ele>170.8</ele><time>2026-04-18T14:46:41.001Z</time></trkpt><trkpt lat="43.296901123311585" lon="10.717891346303771"><ele>171.0</ele><time>2026-04-18T14:46:42.001Z</time></trkpt><trkpt lat="43.29685644751735" lon="10.717782151764617"><ele>170.4</ele><time>2026-04-18T14:46:43.001Z</time></trkpt><trkpt lat="43.29681429294109" lon="10.717672273438245"><ele>169.8</ele><time>2026-04-18T14:46:44.001Z</time></trkpt><trkpt lat="43.296792798817414" lon="10.717551351686245"><ele>169.20000000000002</ele><time>2026-04-18T14:46:45.001Z</time></trkpt><trkpt lat="43.29679259617824" lon="10.717419176211983"><ele>168.60000000000002</ele><time>2026-04-18T14:46:46.001Z</time></trkpt><trkpt lat="43.29681071508715" lon="10.717287974812804"><ele>168.0</ele><time>2026-04-18T14:46:47.001Z</time></trkpt><trkpt lat="43.296823735491536" lon="10.717151556148286"><ele>168.0</ele><time>2026-04-18T14:46:48.001Z</time></trkpt><trkpt lat="43.29682238723385" lon="10.717009974448601"><ele>168.0</ele><time>2026-04-18T14:46:49.001Z</time></trkpt><trkpt lat="43.29682029597994" lon="10.716867404314574"><ele>168.0</ele><time>2026-04-18T14:46:50.001Z</time></trkpt><trkpt lat="43.29682267076186" lon="10.716719795416564"><ele>168.0</ele><time>2026-04-18T14:46:51.001Z</time></trkpt><trkpt lat="43.29683392443023" lon="10.716571611088145"><ele>168.0</ele><time>2026-04-18T14:46:52.001Z</time></trkpt><trkpt lat="43.2968480822229" lon="10.716419202050785"><ele>166.75</ele><time>2026-04-18T14:46:53.001Z</time></trkpt><trkpt lat="43.29686532340534" lon="10.716261984820605"><ele>165.5</ele><time>2026-04-18T14:46:54.001Z</time></trkpt><trkpt lat="43.29688541720257" lon="10.716103988930023"><ele>164.25</ele><time>2026-04-18T14:46:55.001Z</time></trkpt><trkpt lat="43.29692213065916" lon="10.71595395339992"><ele>163.0</ele><time>2026-04-18T14:46:56.001Z</time></trkpt><trkpt lat="43.29694283958527" lon="10.715791994795687"><ele>162.60000000000002</ele><time>2026-04-18T14:46:57.001Z</time></trkpt><trkpt lat="43.29694556866119" lon="10.715630089833743"><ele>162.20000000000002</ele><time>2026-04-18T14:46:58.001Z</time></trkpt><trkpt lat="43.29697124013278" lon="10.715491528681554"><ele>161.8</ele><time>2026-04-18T14:46:59.001Z</time></trkpt><trkpt lat="43.29698951938145" lon="10.715363866671643"><ele>161.4</ele><time>2026-04-18T14:47:00.001Z</time></trkpt><trkpt lat="43.29698547230241" lon="10.71523614545882"><ele>161.0</ele><time>2026-04-18T14:47:01.001Z</time></trkpt><trkpt lat="43.296965051128105" lon="10.715107318342975"><ele>160.0</ele><time>2026-04-18T14:47:02.001Z</time></trkpt><trkpt lat="43.29691758187621" lon="10.714977895736032"><ele>159.0</ele><time>2026-04-18T14:47:03.001Z</time></trkpt><trkpt lat="43.296873134054096" lon="10.71483646809568"><ele>158.0</ele><time>2026-04-18T14:47:04.001Z</time></trkpt><trkpt lat="43.29681591013999" lon="10.714704872820532"><ele>157.0</ele><time>2026-04-18T14:47:05.001Z</time></trkpt><trkpt lat="43.29676477422469" lon="10.7145583801672"><ele>156.0</ele><time>2026-04-18T14:47:06.001Z</time></trkpt><trkpt lat="43.296703450703106" lon="10.714412690091978"><ele>155.4</ele><time>2026-04-18T14:47:07.001Z</time></trkpt><trkpt lat="43.296666719889764" lon="10.714265500557952"><ele>154.8</ele><time>2026-04-18T14:47:07.999Z</time></trkpt><trkpt lat="43.29663901283538" lon="10.714120607063386"><ele>154.20000000000002</ele><time>2026-04-18T14:47:08.999Z</time></trkpt><trkpt lat="43.296616776122164" lon="10.713984345289816"><ele>153.6</ele><time>2026-04-18T14:47:09.999Z</time></trkpt><trkpt lat="43.29658323699478" lon="10.713828637020455"><ele>153.0</ele><time>2026-04-18T14:47:10.999Z</time></trkpt><trkpt lat="43.29657411787759" lon="10.713664003853841"><ele>151.75</ele><time>2026-04-18T14:47:11.999Z</time></trkpt><trkpt lat="43.29655265784667" lon="10.713501206446052"><ele>150.5</ele><time>2026-04-18T14:47:12.999Z</time></trkpt><trkpt lat="43.296528849621374" lon="10.713334864339691"><ele>149.25</ele><time>2026-04-18T14:47:13.999Z</time></trkpt><trkpt lat="43.29650096588997" lon="10.713172844874299"><ele>148.0</ele><time>2026-04-18T14:47:14.999Z</time></trkpt><trkpt lat="43.29646106192254" lon="10.713028637625566"><ele>148.0</ele><time>2026-04-18T14:47:15.999Z</time></trkpt><trkpt lat="43.29646425104622" lon="10.712878713473497"><ele>148.0</ele><time>2026-04-18T14:47:16.999Z</time></trkpt><trkpt lat="43.296485757365495" lon="10.712735737851489"><ele>148.0</ele><time>2026-04-18T14:47:17.999Z</time></trkpt><trkpt lat="43.29647563839947" lon="10.712582273243576"><ele>148.0</ele><time>2026-04-18T14:47:18.999Z</time></trkpt><trkpt lat="43.296478245960316" lon="10.712439294206412"><ele>148.0</ele><time>2026-04-18T14:47:19.999Z</time></trkpt><trkpt lat="43.29648001892324" lon="10.71231486704189"><ele>146.83333333333334</ele><time>2026-04-18T14:47:20.999Z</time></trkpt><trkpt lat="43.29647936561414" lon="10.712213827638045"><ele>145.66666666666669</ele><time>2026-04-18T14:47:21.999Z</time></trkpt><trkpt lat="43.29641331507217" lon="10.712067474429848"><ele>144.5</ele><time>2026-04-18T14:47:23.999Z</time></trkpt><trkpt lat="43.296337284578165" lon="10.712025196329419"><ele>143.33333333333334</ele><time>2026-04-18T14:47:26Z</time></trkpt><trkpt lat="43.29624468023179" lon="10.712037724341315"><ele>142.16666666666666</ele><time>2026-04-18T14:47:28Z</time></trkpt><trkpt lat="43.29617379403375" lon="10.712037478862735"><ele>141.0</ele><time>2026-04-18T14:47:29Z</time></trkpt><trkpt lat="43.29609863309884" lon="10.712057438955542"><ele>138.2</ele><time>2026-04-18T14:47:30Z</time></trkpt><trkpt lat="43.29601526750337" lon="10.712081263655312"><ele>135.39999999999998</ele><time>2026-04-18T14:47:31Z</time></trkpt><trkpt lat="43.29592757312851" lon="10.712107769383971"><ele>132.6</ele><time>2026-04-18T14:47:32Z</time></trkpt><trkpt lat="43.2958393785097" lon="10.712134223828354"><ele>129.79999999999998</ele><time>2026-04-18T14:47:33Z</time></trkpt><trkpt lat="43.29574811820493" lon="10.712171026444182"><ele>127.0</ele><time>2026-04-18T14:47:34Z</time></trkpt><trkpt lat="43.29566004627932" lon="10.71219053696362"><ele>123.6</ele><time>2026-04-18T14:47:35Z</time></trkpt><trkpt lat="43.2955699721458" lon="10.712198878503752"><ele>120.19999999999999</ele><time>2026-04-18T14:47:36Z</time></trkpt><trkpt lat="43.29547776968885" lon="10.712187764340205"><ele>116.8</ele><time>2026-04-18T14:47:37Z</time></trkpt><trkpt lat="43.2953845108278" lon="10.712166047330118"><ele>113.4</ele><time>2026-04-18T14:47:38Z</time></trkpt><trkpt lat="43.295290858661296" lon="10.712124327953848"><ele>110.0</ele><time>2026-04-18T14:47:39Z</time></trkpt><trkpt lat="43.29521136150625" lon="10.712048049241186"><ele>109.99999999999999</ele><time>2026-04-18T14:47:40Z</time></trkpt><trkpt lat="43.29513618605506" lon="10.711977448256393"><ele>110.0</ele><time>2026-04-18T14:47:41Z</time></trkpt><trkpt lat="43.295065252666014" lon="10.711920271662052"><ele>110.0</ele><time>2026-04-18T14:47:42Z</time></trkpt><trkpt lat="43.29502537350822" lon="10.711829509761605"><ele>110.0</ele><time>2026-04-18T14:47:43Z</time></trkpt><trkpt lat="43.29501194583385" lon="10.711726836868193"><ele>109.99999999999999</ele><time>2026-04-18T14:47:44Z</time></trkpt><trkpt lat="43.29503838946568" lon="10.711627470892838"><ele>110.0</ele><time>2026-04-18T14:47:45Z</time></trkpt><trkpt lat="43.29503888223333" lon="10.711516397865571"><ele>109.83333333333333</ele><time>2026-04-18T14:47:46Z</time></trkpt><trkpt lat="43.295045758465754" lon="10.711402784103543"><ele>109.66666666666666</ele><time>2026-04-18T14:47:47Z</time></trkpt><trkpt lat="43.29505086285578" lon="10.711284071895204"><ele>109.5</ele><time>2026-04-18T14:47:48Z</time></trkpt><trkpt lat="43.295010297386106" lon="10.711175126805742"><ele>109.33333333333334</ele><time>2026-04-18T14:47:49Z</time></trkpt><trkpt lat="43.294953529090975" lon="10.71109088024202"><ele>109.16666666666667</ele><time>2026-04-18T14:47:50Z</time></trkpt><trkpt lat="43.29489154207666" lon="10.711019634725336"><ele>109.0</ele><time>2026-04-18T14:47:51Z</time></trkpt><trkpt lat="43.29482465097074" lon="10.710950662450912"><ele>107.6</ele><time>2026-04-18T14:47:52Z</time></trkpt><trkpt lat="43.29474413245463" lon="10.7108876328717"><ele>106.2</ele><time>2026-04-18T14:47:53Z</time></trkpt><trkpt lat="43.29466347866401" lon="10.710818346828585"><ele>104.8</ele><time>2026-04-18T14:47:54Z</time></trkpt><trkpt lat="43.29457972934231" lon="10.710728203018759"><ele>103.39999999999999</ele><time>2026-04-18T14:47:55Z</time></trkpt><trkpt lat="43.294492935624824" lon="10.710623968199322"><ele>102.0</ele><time>2026-04-18T14:47:56Z</time></trkpt><trkpt lat="43.294402027897945" lon="10.710509048511453"><ele>102.0</ele><time>2026-04-18T14:47:57Z</time></trkpt><trkpt lat="43.29431064313202" lon="10.71039097652226"><ele>102.0</ele><time>2026-04-18T14:47:58Z</time></trkpt><trkpt lat="43.29422079730338" lon="10.710274892941282"><ele>102.0</ele><time>2026-04-18T14:47:59Z</time></trkpt><trkpt lat="43.29413269376499" lon="10.710166926315022"><ele>102.0</ele><time>2026-04-18T14:48:00Z</time></trkpt><trkpt lat="43.29405784173041" lon="10.710073380177592"><ele>101.0</ele><time>2026-04-18T14:48:01Z</time></trkpt><trkpt lat="43.29399144557264" lon="10.709975007972744"><ele>100.0</ele><time>2026-04-18T14:48:02Z</time></trkpt><trkpt lat="43.2939589839418" lon="10.709872878192341"><ele>99.0</ele><time>2026-04-18T14:48:03Z</time></trkpt><trkpt lat="43.293948202633516" lon="10.709770170355156"><ele>98.0</ele><time>2026-04-18T14:48:04Z</time></trkpt><trkpt lat="43.29395700871112" lon="10.709651744587319"><ele>97.0</ele><time>2026-04-18T14:48:05Z</time></trkpt><trkpt lat="43.293968239517966" lon="10.709524720583142"><ele>96.0</ele><time>2026-04-18T14:48:06Z</time></trkpt><trkpt lat="43.29397047873355" lon="10.709378749643019"><ele>93.4</ele><time>2026-04-18T14:48:07Z</time></trkpt><trkpt lat="43.2939601817401" lon="10.709234647484413"><ele>90.8</ele><time>2026-04-18T14:48:08Z</time></trkpt><trkpt lat="43.293944391390546" lon="10.709087818454988"><ele>88.2</ele><time>2026-04-18T14:48:09Z</time></trkpt><trkpt lat="43.293913090672575" lon="10.708937495085065"><ele>85.60000000000001</ele><time>2026-04-18T14:48:10Z</time></trkpt><trkpt lat="43.293896871544405" lon="10.708784915854418"><ele>83.0</ele><time>2026-04-18T14:48:11Z</time></trkpt><trkpt lat="43.29387149367353" lon="10.708635277635816"><ele>80.80000000000001</ele><time>2026-04-18T14:48:12Z</time></trkpt><trkpt lat="43.2938570507825" lon="10.708476203757487"><ele>78.60000000000001</ele><time>2026-04-18T14:48:13Z</time></trkpt><trkpt lat="43.293812474803424" lon="10.708334909585922"><ele>76.4</ele><time>2026-04-18T14:48:14Z</time></trkpt><trkpt lat="43.293783590703924" lon="10.70819389187442"><ele>74.2</ele><time>2026-04-18T14:48:15Z</time></trkpt><trkpt lat="43.29374993594988" lon="10.708058274362223"><ele>72.0</ele><time>2026-04-18T14:48:16Z</time></trkpt><trkpt lat="43.293704876048" lon="10.707934992044121"><ele>72.0</ele><time>2026-04-18T14:48:17Z</time></trkpt><trkpt lat="43.293648778380344" lon="10.70782758288873"><ele>72.0</ele><time>2026-04-18T14:48:18Z</time></trkpt><trkpt lat="43.29358620173268" lon="10.707747529013314"><ele>72.0</ele><time>2026-04-18T14:48:19.001Z</time></trkpt><trkpt lat="43.293505947854015" lon="10.707689656466542"><ele>72.0</ele><time>2026-04-18T14:48:20.001Z</time></trkpt><trkpt lat="43.293417083882815" lon="10.707634914783345"><ele>72.0</ele><time>2026-04-18T14:48:21.001Z</time></trkpt><trkpt lat="43.2933237603078" lon="10.707557910869243"><ele>70.75</ele><time>2026-04-18T14:48:22.001Z</time></trkpt><trkpt lat="43.293213807864525" lon="10.707513716946488"><ele>69.5</ele><time>2026-04-18T14:48:23.001Z</time></trkpt><trkpt lat="43.29310586441872" lon="10.707452030954869"><ele>68.25</ele><time>2026-04-18T14:48:24.001Z</time></trkpt><trkpt lat="43.2929969489828" lon="10.707393967405068"><ele>67.0</ele><time>2026-04-18T14:48:25.001Z</time></trkpt><trkpt lat="43.292887158231785" lon="10.70733377250956"><ele>67.0</ele><time>2026-04-18T14:48:26.001Z</time></trkpt><trkpt lat="43.29277237661075" lon="10.707267196175357"><ele>67.0</ele><time>2026-04-18T14:48:27.001Z</time></trkpt><trkpt lat="43.29265384136367" lon="10.707205091895817"><ele>67.0</ele><time>2026-04-18T14:48:28.001Z</time></trkpt><trkpt lat="43.29254059318835" lon="10.707154303356345"><ele>67.0</ele><time>2026-04-18T14:48:29.001Z</time></trkpt><trkpt lat="43.29243692628552" lon="10.707100081597607"><ele>67.0</ele><time>2026-04-18T14:48:30.001Z</time></trkpt><trkpt lat="43.29234346433364" lon="10.707038294821524"><ele>67.0</ele><time>2026-04-18T14:48:31.001Z</time></trkpt><trkpt lat="43.292263690507625" lon="10.706962036222999"><ele>67.0</ele><time>2026-04-18T14:48:32.001Z</time></trkpt><trkpt lat="43.29220551280785" lon="10.70686513084697"><ele>67.0</ele><time>2026-04-18T14:48:33.001Z</time></trkpt><trkpt lat="43.29217331453942" lon="10.706754567056016"><ele>67.0</ele><time>2026-04-18T14:48:34.001Z</time></trkpt><trkpt lat="43.29218923205992" lon="10.706639859347694"><ele>66.8</ele><time>2026-04-18T14:48:35.001Z</time></trkpt><trkpt lat="43.2922219757597" lon="10.70652755438059"><ele>66.6</ele><time>2026-04-18T14:48:36.001Z</time></trkpt><trkpt lat="43.2922740973509" lon="10.706420445017757"><ele>66.39999999999999</ele><time>2026-04-18T14:48:37.001Z</time></trkpt><trkpt lat="43.29234462962493" lon="10.706302998496891"><ele>66.2</ele><time>2026-04-18T14:48:38.001Z</time></trkpt><trkpt lat="43.29242004808755" lon="10.706169378803589"><ele>66.0</ele><time>2026-04-18T14:48:39.001Z</time></trkpt><trkpt lat="43.29249632004814" lon="10.706034229136849"><ele>66.5</ele><time>2026-04-18T14:48:40.001Z</time></trkpt><trkpt lat="43.29255897230157" lon="10.705886191219502"><ele>67.0</ele><time>2026-04-18T14:48:41.001Z</time></trkpt><trkpt lat="43.29265484891166" lon="10.705759856965239"><ele>67.5</ele><time>2026-04-18T14:48:42.001Z</time></trkpt><trkpt lat="43.29273735406549" lon="10.705620662193699"><ele>68.0</ele><time>2026-04-18T14:48:43.001Z</time></trkpt><trkpt lat="43.292817608889806" lon="10.705485263940881"><ele>68.0</ele><time>2026-04-18T14:48:44.001Z</time></trkpt><trkpt lat="43.292892415531185" lon="10.705350828522242"><ele>68.0</ele><time>2026-04-18T14:48:45.001Z</time></trkpt><trkpt lat="43.29295318702073" lon="10.70520844613937"><ele>68.0</ele><time>2026-04-18T14:48:46.001Z</time></trkpt><trkpt lat="43.29302428557244" lon="10.705084135830875"><ele>68.0</ele><time>2026-04-18T14:48:47.001Z</time></trkpt><trkpt lat="43.29307746267888" lon="10.704947846466766"><ele>67.0</ele><time>2026-04-18T14:48:48.001Z</time></trkpt><trkpt lat="43.29312079500352" lon="10.70480182744215"><ele>66.0</ele><time>2026-04-18T14:48:49.001Z</time></trkpt><trkpt lat="43.29315900711242" lon="10.704645678573677"><ele>65.0</ele><time>2026-04-18T14:48:50.001Z</time></trkpt><trkpt lat="43.293199003911475" lon="10.704482878285857"><ele>64.0</ele><time>2026-04-18T14:48:51.001Z</time></trkpt><trkpt lat="43.29324060227175" lon="10.70431601781548"><ele>64.0</ele><time>2026-04-18T14:48:52.001Z</time></trkpt><trkpt lat="43.293280024474505" lon="10.704147300457718"><ele>64.0</ele><time>2026-04-18T14:48:53.001Z</time></trkpt><trkpt lat="43.29332178527595" lon="10.703973936682635"><ele>64.0</ele><time>2026-04-18T14:48:54.001Z</time></trkpt><trkpt lat="43.29336247532074" lon="10.703798161338364"><ele>64.0</ele><time>2026-04-18T14:48:55.001Z</time></trkpt><trkpt lat="43.293403479206255" lon="10.703622036480725"><ele>63.5</ele><time>2026-04-18T14:48:56.001Z</time></trkpt><trkpt lat="43.29344625050853" lon="10.70344976482431"><ele>63.0</ele><time>2026-04-18T14:48:57.001Z</time></trkpt><trkpt lat="43.29349119840576" lon="10.703278085812977"><ele>62.5</ele><time>2026-04-18T14:48:58.001Z</time></trkpt><trkpt lat="43.29353149576237" lon="10.703106141962158"><ele>62.0</ele><time>2026-04-18T14:48:59.001Z</time></trkpt><trkpt lat="43.29357316355935" lon="10.702937499876995"><ele>62.0</ele><time>2026-04-18T14:49:00.001Z</time></trkpt><trkpt lat="43.29361438861783" lon="10.702768687087179"><ele>62.0</ele><time>2026-04-18T14:49:01.001Z</time></trkpt><trkpt lat="43.29365534600391" lon="10.702599849453916"><ele>62.0</ele><time>2026-04-18T14:49:02.001Z</time></trkpt><trkpt lat="43.293695065965714" lon="10.702432235335888"><ele>62.0</ele><time>2026-04-18T14:49:03.001Z</time></trkpt><trkpt lat="43.29373742942633" lon="10.702271806923953"><ele>61.8</ele><time>2026-04-18T14:49:04.001Z</time></trkpt><trkpt lat="43.293777698740286" lon="10.702116955180857"><ele>61.6</ele><time>2026-04-18T14:49:05.001Z</time></trkpt><trkpt lat="43.29382305699783" lon="10.701978956815024"><ele>61.39999999999999</ele><time>2026-04-18T14:49:06.001Z</time></trkpt><trkpt lat="43.29385148902505" lon="10.701837280718465"><ele>61.199999999999996</ele><time>2026-04-18T14:49:07.001Z</time></trkpt><trkpt lat="43.29386171321926" lon="10.701692583935753"><ele>61.0</ele><time>2026-04-18T14:49:08.001Z</time></trkpt><trkpt lat="43.29384937029312" lon="10.701545967145737"><ele>61.5</ele><time>2026-04-18T14:49:09.001Z</time></trkpt><trkpt lat="43.29381419492664" lon="10.701382861057555"><ele>62.0</ele><time>2026-04-18T14:49:10.001Z</time></trkpt><trkpt lat="43.29378635202709" lon="10.70121926996752"><ele>62.5</ele><time>2026-04-18T14:49:11.001Z</time></trkpt><trkpt lat="43.29376246832305" lon="10.701047690640175"><ele>63.0</ele><time>2026-04-18T14:49:12.001Z</time></trkpt><trkpt lat="43.293737055086794" lon="10.700868707784673"><ele>62.75</ele><time>2026-04-18T14:49:13.001Z</time></trkpt><trkpt lat="43.2937087871053" lon="10.70069002399464"><ele>62.5</ele><time>2026-04-18T14:49:14Z</time></trkpt><trkpt lat="43.293683997271806" lon="10.700510515680861"><ele>62.25</ele><time>2026-04-18T14:49:15Z</time></trkpt><trkpt lat="43.293659530474926" lon="10.70033828324555"><ele>62.0</ele><time>2026-04-18T14:49:16Z</time></trkpt><trkpt lat="43.293635998648654" lon="10.70016569131168"><ele>62.0</ele><time>2026-04-18T14:49:17Z</time></trkpt><trkpt lat="43.29361246934307" lon="10.700001628416407"><ele>62.0</ele><time>2026-04-18T14:49:18Z</time></trkpt><trkpt lat="43.29358860402919" lon="10.69984213601932"><ele>62.0</ele><time>2026-04-18T14:49:19Z</time></trkpt><trkpt lat="43.29356272321828" lon="10.6996950420327"><ele>62.0</ele><time>2026-04-18T14:49:20Z</time></trkpt><trkpt lat="43.29356171743933" lon="10.699559467028243"><ele>62.0</ele><time>2026-04-18T14:49:21Z</time></trkpt><trkpt lat="43.293551271701" lon="10.69943580210676"><ele>61.16666666666667</ele><time>2026-04-18T14:49:22Z</time></trkpt><trkpt lat="43.29354480240212" lon="10.699310569849994"><ele>60.333333333333336</ele><time>2026-04-18T14:49:23Z</time></trkpt><trkpt lat="43.29354172117904" lon="10.699175640529669"><ele>59.5</ele><time>2026-04-18T14:49:24Z</time></trkpt><trkpt lat="43.29354620830157" lon="10.699059550420802"><ele>58.66666666666667</ele><time>2026-04-18T14:49:25Z</time></trkpt><trkpt lat="43.29353764468947" lon="10.698922271249716"><ele>57.833333333333336</ele><time>2026-04-18T14:49:26Z</time></trkpt><trkpt lat="43.29354241720452" lon="10.698826142925343"><ele>57.0</ele><time>2026-04-18T14:49:27Z</time></trkpt><trkpt lat="43.29353474696501" lon="10.698674527486473"><ele>57.0</ele><time>2026-04-18T14:49:29Z</time></trkpt><trkpt lat="43.293534652538675" lon="10.698584812351386"><ele>57.0</ele><time>2026-04-18T14:49:31Z</time></trkpt><trkpt lat="43.293545635752494" lon="10.69846132703637"><ele>57.0</ele><time>2026-04-18T14:49:37Z</time></trkpt><trkpt lat="43.29363295224855" lon="10.698433853405461"><ele>57.0</ele><time>2026-04-18T14:49:38Z</time></trkpt><trkpt lat="43.293696293123745" lon="10.698402335288684"><ele>57.0</ele><time>2026-04-18T14:49:39Z</time></trkpt><trkpt lat="43.293759040789595" lon="10.6983701693538"><ele>57.0</ele><time>2026-04-18T14:49:40Z</time></trkpt><trkpt lat="43.293832325084104" lon="10.698327971360724"><ele>55.8</ele><time>2026-04-18T14:49:41Z</time></trkpt><trkpt lat="43.29391197240011" lon="10.69827242570816"><ele>54.6</ele><time>2026-04-18T14:49:42Z</time></trkpt><trkpt lat="43.294004258369576" lon="10.698212456119858"><ele>53.4</ele><time>2026-04-18T14:49:43Z</time></trkpt><trkpt lat="43.294096946535134" lon="10.698124379266037"><ele>52.199999999999996</ele><time>2026-04-18T14:49:44Z</time></trkpt><trkpt lat="43.29419630229122" lon="10.698033244914816"><ele>51.0</ele><time>2026-04-18T14:49:45Z</time></trkpt><trkpt lat="43.294301892302734" lon="10.697933795655977"><ele>51.0</ele><time>2026-04-18T14:49:46Z</time></trkpt><trkpt lat="43.29441222006335" lon="10.697832465501808"><ele>51.0</ele><time>2026-04-18T14:49:47Z</time></trkpt><trkpt lat="43.29452336325792" lon="10.697734987960292"><ele>51.0</ele><time>2026-04-18T14:49:48Z</time></trkpt><trkpt lat="43.29464264122733" lon="10.697631749953903"><ele>51.0</ele><time>2026-04-18T14:49:49Z</time></trkpt><trkpt lat="43.29476555012327" lon="10.697517814207128"><ele>51.0</ele><time>2026-04-18T14:49:50Z</time></trkpt><trkpt lat="43.29489464440362" lon="10.697400567163463"><ele>51.0</ele><time>2026-04-18T14:49:51Z</time></trkpt><trkpt lat="43.295029546640286" lon="10.697275859181524"><ele>51.0</ele><time>2026-04-18T14:49:52Z</time></trkpt><trkpt lat="43.29516997577954" lon="10.697149730036644"><ele>51.0</ele><time>2026-04-18T14:49:53Z</time></trkpt><trkpt lat="43.29530612383211" lon="10.697027663308033"><ele>51.0</ele><time>2026-04-18T14:49:54Z</time></trkpt><trkpt lat="43.295444384558145" lon="10.69690024269055"><ele>51.0</ele><time>2026-04-18T14:49:55Z</time></trkpt><trkpt lat="43.29558387597397" lon="10.696772575976754"><ele>51.33333333333333</ele><time>2026-04-18T14:49:56Z</time></trkpt><trkpt lat="43.29572500343927" lon="10.696643192421357"><ele>51.666666666666664</ele><time>2026-04-18T14:49:57Z</time></trkpt><trkpt lat="43.295866030021024" lon="10.696513028929992"><ele>52.0</ele><time>2026-04-18T14:49:58Z</time></trkpt><trkpt lat="43.2960083475069" lon="10.696380882068862"><ele>52.0</ele><time>2026-04-18T14:49:59Z</time></trkpt><trkpt lat="43.29615303441528" lon="10.696252668616845"><ele>52.0</ele><time>2026-04-18T14:50:00Z</time></trkpt><trkpt lat="43.296296576641346" lon="10.696117704170073"><ele>52.0</ele><time>2026-04-18T14:50:01Z</time></trkpt><trkpt lat="43.2964426410482" lon="10.695991039076393"><ele>51.33333333333333</ele><time>2026-04-18T14:50:02Z</time></trkpt><trkpt lat="43.29659119618682" lon="10.695859786127736"><ele>50.66666666666667</ele><time>2026-04-18T14:50:03Z</time></trkpt><trkpt lat="43.296739870529315" lon="10.695724353699653"><ele>50.0</ele><time>2026-04-18T14:50:04Z</time></trkpt><trkpt lat="43.29689020264375" lon="10.695590304424721"><ele>50.0</ele><time>2026-04-18T14:50:05Z</time></trkpt><trkpt lat="43.29704246916007" lon="10.695451575562286"><ele>50.0</ele><time>2026-04-18T14:50:06Z</time></trkpt><trkpt lat="43.29719582567241" lon="10.695310966375757"><ele>50.0</ele><time>2026-04-18T14:50:07.001Z</time></trkpt><trkpt lat="43.29735177619947" lon="10.695170295538052"><ele>50.0</ele><time>2026-04-18T14:50:08.001Z</time></trkpt><trkpt lat="43.297509870498146" lon="10.6950278177195"><ele>50.0</ele><time>2026-04-18T14:50:09.001Z</time></trkpt><trkpt lat="43.29766965918804" lon="10.694883840633398"><ele>50.0</ele><time>2026-04-18T14:50:10.001Z</time></trkpt><trkpt lat="43.29783051039264" lon="10.694737854665913"><ele>50.0</ele><time>2026-04-18T14:50:11.001Z</time></trkpt><trkpt lat="43.297993307568156" lon="10.69459228653608"><ele>50.0</ele><time>2026-04-18T14:50:12.001Z</time></trkpt><trkpt lat="43.29815974185851" lon="10.69444133552588"><ele>50.0</ele><time>2026-04-18T14:50:13.001Z</time></trkpt><trkpt lat="43.29832711878483" lon="10.694290114345538"><ele>48.66666666666667</ele><time>2026-04-18T14:50:14.001Z</time></trkpt><trkpt lat="43.298495992427156" lon="10.694137716384052"><ele>47.333333333333336</ele><time>2026-04-18T14:50:15.001Z</time></trkpt><trkpt lat="43.298664281768225" lon="10.693981836191726"><ele>46.0</ele><time>2026-04-18T14:50:16.001Z</time></trkpt><trkpt lat="43.29883697209761" lon="10.693827779527881"><ele>46.0</ele><time>2026-04-18T14:50:17.001Z</time></trkpt><trkpt lat="43.29901192067118" lon="10.693672930505747"><ele>46.0</ele><time>2026-04-18T14:50:18.001Z</time></trkpt><trkpt lat="43.29918391282575" lon="10.693517094706047"><ele>46.0</ele><time>2026-04-18T14:50:19.001Z</time></trkpt><trkpt lat="43.29935764359449" lon="10.693360010293725"><ele>46.0</ele><time>2026-04-18T14:50:20.001Z</time></trkpt><trkpt lat="43.29953214966689" lon="10.693204641039333"><ele>46.0</ele><time>2026-04-18T14:50:21.001Z</time></trkpt><trkpt lat="43.299706271548274" lon="10.693049060406485"><ele>46.0</ele><time>2026-04-18T14:50:22.001Z</time></trkpt><trkpt lat="43.2998793939249" lon="10.692897145108487"><ele>46.333333333333336</ele><time>2026-04-18T14:50:23.001Z</time></trkpt><trkpt lat="43.3000509270292" lon="10.692739594679939"><ele>46.666666666666664</ele><time>2026-04-18T14:50:24.001Z</time></trkpt><trkpt lat="43.30021645317922" lon="10.69258741366191"><ele>47.0</ele><time>2026-04-18T14:50:25.001Z</time></trkpt><trkpt lat="43.30037975049409" lon="10.69243467898427"><ele>47.0</ele><time>2026-04-18T14:50:26.001Z</time></trkpt><trkpt lat="43.30053791053345" lon="10.692273671732782"><ele>47.0</ele><time>2026-04-18T14:50:27.001Z</time></trkpt><trkpt lat="43.30068844749892" lon="10.692100966273925"><ele>47.0</ele><time>2026-04-18T14:50:28.001Z</time></trkpt><trkpt lat="43.30083071532937" lon="10.69191260073293"><ele>47.666666666666664</ele><time>2026-04-18T14:50:29.001Z</time></trkpt><trkpt lat="43.30096613087892" lon="10.691715565492505"><ele>48.33333333333333</ele><time>2026-04-18T14:50:30.001Z</time></trkpt><trkpt lat="43.30109715858648" lon="10.69151030230879"><ele>49.0</ele><time>2026-04-18T14:50:31.001Z</time></trkpt><trkpt lat="43.301225994507774" lon="10.69129773720094"><ele>48.666666666666664</ele><time>2026-04-18T14:50:32.001Z</time></trkpt><trkpt lat="43.30135360951314" lon="10.691083145371731"><ele>48.33333333333333</ele><time>2026-04-18T14:50:33.001Z</time></trkpt><trkpt lat="43.30148148851378" lon="10.690869347169711"><ele>48.0</ele><time>2026-04-18T14:50:34.001Z</time></trkpt><trkpt lat="43.30160953516529" lon="10.690652245251124"><ele>48.0</ele><time>2026-04-18T14:50:35.001Z</time></trkpt><trkpt lat="43.301737274558" lon="10.690436642808772"><ele>48.0</ele><time>2026-04-18T14:50:36.001Z</time></trkpt><trkpt lat="43.30186641269007" lon="10.690221553508895"><ele>48.0</ele><time>2026-04-18T14:50:37.001Z</time></trkpt><trkpt lat="43.301993834903364" lon="10.690014267308612"><ele>47.333333333333336</ele><time>2026-04-18T14:50:38.001Z</time></trkpt><trkpt lat="43.30212448279603" lon="10.689809070061195"><ele>46.66666666666667</ele><time>2026-04-18T14:50:39.001Z</time></trkpt><trkpt lat="43.30225871062473" lon="10.68961044434566"><ele>46.0</ele><time>2026-04-18T14:50:40.001Z</time></trkpt><trkpt lat="43.30239653009581" lon="10.68941469435228"><ele>46.0</ele><time>2026-04-18T14:50:41.001Z</time></trkpt><trkpt lat="43.302543949856194" lon="10.68922986928214"><ele>46.0</ele><time>2026-04-18T14:50:42.001Z</time></trkpt><trkpt lat="43.302696438748356" lon="10.689046238205918"><ele>46.0</ele><time>2026-04-18T14:50:43.001Z</time></trkpt><trkpt lat="43.30285683716927" lon="10.688874701229054"><ele>46.0</ele><time>2026-04-18T14:50:44.001Z</time></trkpt><trkpt lat="43.303020046088506" lon="10.688703742374825"><ele>46.0</ele><time>2026-04-18T14:50:45.001Z</time></trkpt><trkpt lat="43.303186528936386" lon="10.688530787826322"><ele>46.0</ele><time>2026-04-18T14:50:46.001Z</time></trkpt><trkpt lat="43.303353025568484" lon="10.688353018144866"><ele>46.0</ele><time>2026-04-18T14:50:47.001Z</time></trkpt><trkpt lat="43.303522819683906" lon="10.688176365890929"><ele>46.0</ele><time>2026-04-18T14:50:48.001Z</time></trkpt><trkpt lat="43.30369396178213" lon="10.687998177986655"><ele>46.0</ele><time>2026-04-18T14:50:49.001Z</time></trkpt><trkpt lat="43.303865495239236" lon="10.687815424888795"><ele>46.66666666666667</ele><time>2026-04-18T14:50:50.001Z</time></trkpt><trkpt lat="43.304039104382426" lon="10.687632200655415"><ele>47.333333333333336</ele><time>2026-04-18T14:50:51.001Z</time></trkpt><trkpt lat="43.30421234559947" lon="10.687447947502603"><ele>48.0</ele><time>2026-04-18T14:50:52.001Z</time></trkpt><trkpt lat="43.3043851671527" lon="10.687263490871018"><ele>48.0</ele><time>2026-04-18T14:50:53.001Z</time></trkpt><trkpt lat="43.30455875404875" lon="10.687079189819386"><ele>48.0</ele><time>2026-04-18T14:50:54.001Z</time></trkpt><trkpt lat="43.3047317709827" lon="10.686896146092572"><ele>48.0</ele><time>2026-04-18T14:50:55.001Z</time></trkpt><trkpt lat="43.30490424285726" lon="10.686713706828845"><ele>47.333333333333336</ele><time>2026-04-18T14:50:56.001Z</time></trkpt><trkpt lat="43.30507564924958" lon="10.686532153708287"><ele>46.66666666666667</ele><time>2026-04-18T14:50:57.001Z</time></trkpt><trkpt lat="43.30524632486269" lon="10.686355563051755"><ele>46.0</ele><time>2026-04-18T14:50:58.001Z</time></trkpt><trkpt lat="43.30540918786727" lon="10.686172683835785"><ele>45.66666666666667</ele><time>2026-04-18T14:50:59.001Z</time></trkpt><trkpt lat="43.305566245291374" lon="10.68598452702297"><ele>45.333333333333336</ele><time>2026-04-18T14:51:00.001Z</time></trkpt><trkpt lat="43.30571114539336" lon="10.685781831881455"><ele>45.0</ele><time>2026-04-18T14:51:01.001Z</time></trkpt><trkpt lat="43.30584658907713" lon="10.685564131194143"><ele>45.0</ele><time>2026-04-18T14:51:02.001Z</time></trkpt><trkpt lat="43.30597579594046" lon="10.685335801367236"><ele>45.0</ele><time>2026-04-18T14:51:03.001Z</time></trkpt><trkpt lat="43.306102851277885" lon="10.685102991738056"><ele>45.0</ele><time>2026-04-18T14:51:04.001Z</time></trkpt><trkpt lat="43.306230134564565" lon="10.684866519961101"><ele>44.666666666666664</ele><time>2026-04-18T14:51:05.001Z</time></trkpt><trkpt lat="43.30635977572024" lon="10.6846306937801"><ele>44.33333333333333</ele><time>2026-04-18T14:51:06.001Z</time></trkpt><trkpt lat="43.306489404285095" lon="10.684390334915314"><ele>44.0</ele><time>2026-04-18T14:51:07.001Z</time></trkpt><trkpt lat="43.30661906872463" lon="10.684148904772577"><ele>44.0</ele><time>2026-04-18T14:51:08.001Z</time></trkpt><trkpt lat="43.30675104489257" lon="10.6839073533687"><ele>44.0</ele><time>2026-04-18T14:51:09.001Z</time></trkpt><trkpt lat="43.3068835646034" lon="10.683667256724762"><ele>44.0</ele><time>2026-04-18T14:51:10.001Z</time></trkpt><trkpt lat="43.30701467518638" lon="10.68342438131083"><ele>43.666666666666664</ele><time>2026-04-18T14:51:11.001Z</time></trkpt><trkpt lat="43.30714679473123" lon="10.683182646112822"><ele>43.333333333333336</ele><time>2026-04-18T14:51:12.001Z</time></trkpt><trkpt lat="43.307276409387384" lon="10.682942224853548"><ele>43.0</ele><time>2026-04-18T14:51:13.002Z</time></trkpt><trkpt lat="43.30740606854772" lon="10.682700162037856"><ele>45.0</ele><time>2026-04-18T14:51:14.002Z</time></trkpt><trkpt lat="43.30753431275076" lon="10.682459610543203"><ele>47.0</ele><time>2026-04-18T14:51:15.002Z</time></trkpt><trkpt lat="43.30766397516622" lon="10.682220185718865"><ele>49.0</ele><time>2026-04-18T14:51:16.002Z</time></trkpt><trkpt lat="43.307791640838225" lon="10.681984311305886"><ele>47.0</ele><time>2026-04-18T14:51:17.002Z</time></trkpt><trkpt lat="43.3079322090699" lon="10.681761832228046"><ele>45.0</ele><time>2026-04-18T14:51:18.002Z</time></trkpt><trkpt lat="43.30807160313393" lon="10.68153691027241"><ele>43.0</ele><time>2026-04-18T14:51:19.002Z</time></trkpt><trkpt lat="43.3082208016321" lon="10.681317437295256"><ele>43.0</ele><time>2026-04-18T14:51:20Z</time></trkpt><trkpt lat="43.30838036557662" lon="10.6811108979702"><ele>43.0</ele><time>2026-04-18T14:51:21Z</time></trkpt><trkpt lat="43.30854526964307" lon="10.68090996418833"><ele>43.0</ele><time>2026-04-18T14:51:22Z</time></trkpt><trkpt lat="43.30871275342613" lon="10.680711307433175"><ele>43.0</ele><time>2026-04-18T14:51:23Z</time></trkpt><trkpt lat="43.308880845355226" lon="10.68051104660387"><ele>43.0</ele><time>2026-04-18T14:51:24Z</time></trkpt><trkpt lat="43.30905043701656" lon="10.680308821877647"><ele>43.0</ele><time>2026-04-18T14:51:25Z</time></trkpt><trkpt lat="43.30922182924609" lon="10.680108232766086"><ele>41.5</ele><time>2026-04-18T14:51:26Z</time></trkpt><trkpt lat="43.30939538388659" lon="10.679904037895872"><ele>40.0</ele><time>2026-04-18T14:51:27Z</time></trkpt><trkpt lat="43.3095702120367" lon="10.679695048424676"><ele>40.5</ele><time>2026-04-18T14:51:28Z</time></trkpt><trkpt lat="43.30974695144505" lon="10.679486998986686"><ele>41.0</ele><time>2026-04-18T14:51:29Z</time></trkpt><trkpt lat="43.30992444633294" lon="10.67927578185831"><ele>40.0</ele><time>2026-04-18T14:51:30Z</time></trkpt><trkpt lat="43.31010284675485" lon="10.679061157001888"><ele>39.0</ele><time>2026-04-18T14:51:31Z</time></trkpt><trkpt lat="43.3102820624094" lon="10.678846092179622"><ele>39.0</ele><time>2026-04-18T14:51:32Z</time></trkpt><trkpt lat="43.310462688855836" lon="10.67862921715365"><ele>39.0</ele><time>2026-04-18T14:51:33Z</time></trkpt><trkpt lat="43.310643579613064" lon="10.678411896863919"><ele>39.0</ele><time>2026-04-18T14:51:34Z</time></trkpt><trkpt lat="43.31082493604852" lon="10.678194234522152"><ele>39.0</ele><time>2026-04-18T14:51:35Z</time></trkpt><trkpt lat="43.31100801718423" lon="10.67797965603011"><ele>38.5</ele><time>2026-04-18T14:51:36Z</time></trkpt><trkpt lat="43.311191858081905" lon="10.677760037671478"><ele>38.0</ele><time>2026-04-18T14:51:37Z</time></trkpt><trkpt lat="43.311375877410114" lon="10.677544600948073"><ele>37.5</ele><time>2026-04-18T14:51:38Z</time></trkpt><trkpt lat="43.31155862918405" lon="10.677328343091423"><ele>37.0</ele><time>2026-04-18T14:51:39Z</time></trkpt><trkpt lat="43.31174201034166" lon="10.677112172799685"><ele>38.0</ele><time>2026-04-18T14:51:40Z</time></trkpt><trkpt lat="43.31192253595222" lon="10.676900059401607"><ele>39.0</ele><time>2026-04-18T14:51:41Z</time></trkpt><trkpt lat="43.31209784057208" lon="10.676690517665133"><ele>38.5</ele><time>2026-04-18T14:51:42Z</time></trkpt><trkpt lat="43.312271912335966" lon="10.67648571349062"><ele>38.0</ele><time>2026-04-18T14:51:43Z</time></trkpt><trkpt lat="43.312443929594174" lon="10.676282240590874"><ele>38.5</ele><time>2026-04-18T14:51:44Z</time></trkpt><trkpt lat="43.312614826680424" lon="10.676079904826167"><ele>39.0</ele><time>2026-04-18T14:51:45Z</time></trkpt><trkpt lat="43.3127851557563" lon="10.675878605887805"><ele>39.0</ele><time>2026-04-18T14:51:46Z</time></trkpt><trkpt lat="43.31295522038476" lon="10.67567870889067"><ele>39.0</ele><time>2026-04-18T14:51:47Z</time></trkpt><trkpt lat="43.31312431816281" lon="10.67547587604656"><ele>39.0</ele><time>2026-04-18T14:51:48Z</time></trkpt><trkpt lat="43.313294330751425" lon="10.675276618848782"><ele>39.666666666666664</ele><time>2026-04-18T14:51:49Z</time></trkpt><trkpt lat="43.31346303456055" lon="10.675075739143926"><ele>40.33333333333333</ele><time>2026-04-18T14:51:50Z</time></trkpt><trkpt lat="43.31363348713947" lon="10.674876536810043"><ele>41.0</ele><time>2026-04-18T14:51:51Z</time></trkpt><trkpt lat="43.31380334602348" lon="10.674672561141485"><ele>39.5</ele><time>2026-04-18T14:51:52Z</time></trkpt><trkpt lat="43.31397537909959" lon="10.6744674551927"><ele>38.0</ele><time>2026-04-18T14:51:53Z</time></trkpt><trkpt lat="43.31414788376563" lon="10.674266082508543"><ele>38.0</ele><time>2026-04-18T14:51:54Z</time></trkpt><trkpt lat="43.31432519829988" lon="10.674068593893226"><ele>38.0</ele><time>2026-04-18T14:51:55Z</time></trkpt><trkpt lat="43.31450541932086" lon="10.673870818954827"><ele>38.0</ele><time>2026-04-18T14:51:56Z</time></trkpt><trkpt lat="43.31469034133913" lon="10.673686772880135"><ele>38.0</ele><time>2026-04-18T14:51:57Z</time></trkpt><trkpt lat="43.314879182155956" lon="10.673505722972232"><ele>39.5</ele><time>2026-04-18T14:51:58Z</time></trkpt><trkpt lat="43.31507219806578" lon="10.673332781849746"><ele>41.0</ele><time>2026-04-18T14:51:59Z</time></trkpt><trkpt lat="43.315266412378655" lon="10.673165120881798"><ele>41.0</ele><time>2026-04-18T14:52:00Z</time></trkpt><trkpt lat="43.31546035767044" lon="10.67299777055832"><ele>41.0</ele><time>2026-04-18T14:52:01Z</time></trkpt><trkpt lat="43.315653064154766" lon="10.672828834639283"><ele>40.0</ele><time>2026-04-18T14:52:02Z</time></trkpt><trkpt lat="43.31584386218332" lon="10.672662083683251"><ele>39.0</ele><time>2026-04-18T14:52:03Z</time></trkpt><trkpt lat="43.31603192862069" lon="10.672494740700417"><ele>39.0</ele><time>2026-04-18T14:52:04Z</time></trkpt><trkpt lat="43.31621769085938" lon="10.672330425688319"><ele>39.0</ele><time>2026-04-18T14:52:05Z</time></trkpt><trkpt lat="43.31640366562038" lon="10.672167901387658"><ele>39.0</ele><time>2026-04-18T14:52:06Z</time></trkpt><trkpt lat="43.31658807083305" lon="10.672007423312683"><ele>39.0</ele><time>2026-04-18T14:52:07Z</time></trkpt><trkpt lat="43.316773163688985" lon="10.671850262787029"><ele>39.0</ele><time>2026-04-18T14:52:08Z</time></trkpt><trkpt lat="43.31695585334829" lon="10.671690827381111"><ele>39.0</ele><time>2026-04-18T14:52:09.001Z</time></trkpt><trkpt lat="43.31713902777669" lon="10.671532311972094"><ele>38.666666666666664</ele><time>2026-04-18T14:52:10.001Z</time></trkpt><trkpt lat="43.31732207225138" lon="10.671380018306914"><ele>38.33333333333333</ele><time>2026-04-18T14:52:11.001Z</time></trkpt><trkpt lat="43.31750693589398" lon="10.671234545575238"><ele>38.0</ele><time>2026-04-18T14:52:12.001Z</time></trkpt><trkpt lat="43.31769440045149" lon="10.671094462774226"><ele>37.666666666666664</ele><time>2026-04-18T14:52:13.001Z</time></trkpt><trkpt lat="43.31788676860737" lon="10.670963824118736"><ele>37.333333333333336</ele><time>2026-04-18T14:52:14.001Z</time></trkpt><trkpt lat="43.318082181090986" lon="10.67084410274158"><ele>37.0</ele><time>2026-04-18T14:52:15.001Z</time></trkpt><trkpt lat="43.31828227676397" lon="10.670729727662435"><ele>36.66666666666667</ele><time>2026-04-18T14:52:16.001Z</time></trkpt><trkpt lat="43.31848428751471" lon="10.67062166411204"><ele>36.333333333333336</ele><time>2026-04-18T14:52:17.001Z</time></trkpt><trkpt lat="43.31868942668504" lon="10.670522920651846"><ele>36.0</ele><time>2026-04-18T14:52:18.001Z</time></trkpt><trkpt lat="43.318895808101374" lon="10.670427238758585"><ele>36.0</ele><time>2026-04-18T14:52:19.001Z</time></trkpt><trkpt lat="43.319098790196016" lon="10.670341502457205"><ele>36.0</ele><time>2026-04-18T14:52:20.001Z</time></trkpt><trkpt lat="43.31930172266881" lon="10.670262548651761"><ele>36.0</ele><time>2026-04-18T14:52:21.001Z</time></trkpt><trkpt lat="43.31950330596146" lon="10.670193532443058"><ele>35.666666666666664</ele><time>2026-04-18T14:52:22.001Z</time></trkpt><trkpt lat="43.31970542377244" lon="10.670133235199385"><ele>35.33333333333333</ele><time>2026-04-18T14:52:23.001Z</time></trkpt><trkpt lat="43.31991034747177" lon="10.670080425709504"><ele>35.0</ele><time>2026-04-18T14:52:24.001Z</time></trkpt><trkpt lat="43.320114552893344" lon="10.670036030113659"><ele>35.666666666666664</ele><time>2026-04-18T14:52:25.001Z</time></trkpt><trkpt lat="43.32031756573243" lon="10.669992077103434"><ele>36.333333333333336</ele><time>2026-04-18T14:52:26.001Z</time></trkpt><trkpt lat="43.32052289983877" lon="10.669955131737414"><ele>37.0</ele><time>2026-04-18T14:52:27.001Z</time></trkpt><trkpt lat="43.32072896644851" lon="10.669923813906582"><ele>37.0</ele><time>2026-04-18T14:52:28.001Z</time></trkpt><trkpt lat="43.32093421827065" lon="10.669904408272346"><ele>37.0</ele><time>2026-04-18T14:52:29.001Z</time></trkpt><trkpt lat="43.321138892316725" lon="10.669895101112148"><ele>37.0</ele><time>2026-04-18T14:52:30.001Z</time></trkpt><trkpt lat="43.32134253208239" lon="10.669888935969075"><ele>37.0</ele><time>2026-04-18T14:52:31.001Z</time></trkpt><trkpt lat="43.32154534561787" lon="10.669883792229085"><ele>37.0</ele><time>2026-04-18T14:52:32.001Z</time></trkpt><trkpt lat="43.32174657339174" lon="10.669880987034635"><ele>37.0</ele><time>2026-04-18T14:52:33.001Z</time></trkpt><trkpt lat="43.321944017322345" lon="10.669880604955406"><ele>37.0</ele><time>2026-04-18T14:52:34.001Z</time></trkpt><trkpt lat="43.32213868138486" lon="10.66988151410211"><ele>37.0</ele><time>2026-04-18T14:52:35.001Z</time></trkpt><trkpt lat="43.322333216303434" lon="10.669877949469495"><ele>37.0</ele><time>2026-04-18T14:52:36.001Z</time></trkpt><trkpt lat="43.322525359816495" lon="10.669869533458156"><ele>37.333333333333336</ele><time>2026-04-18T14:52:37.001Z</time></trkpt><trkpt lat="43.32271253689942" lon="10.669871264447025"><ele>37.666666666666664</ele><time>2026-04-18T14:52:38.001Z</time></trkpt><trkpt lat="43.32289910128524" lon="10.669869727422896"><ele>38.0</ele><time>2026-04-18T14:52:39.001Z</time></trkpt><trkpt lat="43.3230862436723" lon="10.669866279956045"><ele>36.666666666666664</ele><time>2026-04-18T14:52:40.001Z</time></trkpt><trkpt lat="43.323273619671795" lon="10.66986369211872"><ele>35.333333333333336</ele><time>2026-04-18T14:52:41.001Z</time></trkpt><trkpt lat="43.32345842569025" lon="10.669859939663754"><ele>34.0</ele><time>2026-04-18T14:52:42.001Z</time></trkpt><trkpt lat="43.32364237637815" lon="10.66985846339558"><ele>34.0</ele><time>2026-04-18T14:52:43.001Z</time></trkpt><trkpt lat="43.323826665365075" lon="10.669853880362039"><ele>34.0</ele><time>2026-04-18T14:52:44.001Z</time></trkpt><trkpt lat="43.32400707097124" lon="10.669848468534035"><ele>34.0</ele><time>2026-04-18T14:52:45.001Z</time></trkpt><trkpt lat="43.324186957378195" lon="10.66984873292395"><ele>34.66666666666667</ele><time>2026-04-18T14:52:46.001Z</time></trkpt><trkpt lat="43.324362330464865" lon="10.669859004846462"><ele>35.333333333333336</ele><time>2026-04-18T14:52:47.001Z</time></trkpt><trkpt lat="43.32453901733147" lon="10.669874454442411"><ele>36.0</ele><time>2026-04-18T14:52:48.001Z</time></trkpt><trkpt lat="43.32471439472325" lon="10.669898170424098"><ele>36.0</ele><time>2026-04-18T14:52:49.001Z</time></trkpt><trkpt lat="43.32488979688917" lon="10.669950666275309"><ele>36.0</ele><time>2026-04-18T14:52:50.001Z</time></trkpt><trkpt lat="43.325070483643245" lon="10.66998560339691"><ele>36.0</ele><time>2026-04-18T14:52:51.001Z</time></trkpt><trkpt lat="43.32524676069107" lon="10.67001993757838"><ele>36.0</ele><time>2026-04-18T14:52:52.001Z</time></trkpt><trkpt lat="43.32542323773335" lon="10.670054677883623"><ele>36.0</ele><time>2026-04-18T14:52:53.001Z</time></trkpt><trkpt lat="43.32560055816746" lon="10.670066712051103"><ele>36.0</ele><time>2026-04-18T14:52:54.001Z</time></trkpt><trkpt lat="43.32577629068136" lon="10.67010293205238"><ele>36.0</ele><time>2026-04-18T14:52:55.001Z</time></trkpt><trkpt lat="43.32595264122412" lon="10.67013679217193"><ele>36.0</ele><time>2026-04-18T14:52:56.001Z</time></trkpt><trkpt lat="43.32612518645559" lon="10.6701702406883"><ele>36.0</ele><time>2026-04-18T14:52:57.001Z</time></trkpt><trkpt lat="43.32629795590391" lon="10.670204923682023"><ele>35.666666666666664</ele><time>2026-04-18T14:52:58.001Z</time></trkpt><trkpt lat="43.32646822079031" lon="10.67023885612051"><ele>35.33333333333333</ele><time>2026-04-18T14:52:59.001Z</time></trkpt><trkpt lat="43.3266395326" lon="10.670270406652513"><ele>35.0</ele><time>2026-04-18T14:53:00.001Z</time></trkpt><trkpt lat="43.326805953122765" lon="10.670302919797724"><ele>35.666666666666664</ele><time>2026-04-18T14:53:01.001Z</time></trkpt><trkpt lat="43.32696811843529" lon="10.6703348771367"><ele>36.333333333333336</ele><time>2026-04-18T14:53:02.001Z</time></trkpt><trkpt lat="43.3271213688775" lon="10.670364275918878"><ele>37.0</ele><time>2026-04-18T14:53:03.001Z</time></trkpt><trkpt lat="43.32725928392933" lon="10.670390860856616"><ele>37.0</ele><time>2026-04-18T14:53:04.001Z</time></trkpt><trkpt lat="43.327385733374925" lon="10.670415729558245"><ele>37.0</ele><time>2026-04-18T14:53:05.001Z</time></trkpt><trkpt lat="43.327508454695554" lon="10.670438840722802"><ele>37.0</ele><time>2026-04-18T14:53:06.001Z</time></trkpt><trkpt lat="43.32762620254748" lon="10.670461404477555"><ele>37.0</ele><time>2026-04-18T14:53:07.001Z</time></trkpt><trkpt lat="43.32773430308486" lon="10.670482056527513"><ele>37.0</ele><time>2026-04-18T14:53:08.001Z</time></trkpt><trkpt lat="43.32784313101855" lon="10.670503202999335"><ele>37.0</ele><time>2026-04-18T14:53:09.001Z</time></trkpt><trkpt lat="43.32794740849911" lon="10.670537036341502"><ele>37.0</ele><time>2026-04-18T14:53:10.001Z</time></trkpt><trkpt lat="43.328053351410496" lon="10.670556394016986"><ele>37.0</ele><time>2026-04-18T14:53:11.001Z</time></trkpt><trkpt lat="43.328161128816454" lon="10.67056905736079"><ele>37.0</ele><time>2026-04-18T14:53:12.001Z</time></trkpt><trkpt lat="43.32827110052392" lon="10.670586785544893"><ele>36.800000000000004</ele><time>2026-04-18T14:53:13.001Z</time></trkpt><trkpt lat="43.32837534603206" lon="10.67060954104027"><ele>36.6</ele><time>2026-04-18T14:53:14.001Z</time></trkpt><trkpt lat="43.32847738631017" lon="10.670625860031478"><ele>36.400000000000006</ele><time>2026-04-18T14:53:15.002Z</time></trkpt><trkpt lat="43.3285738072025" lon="10.670628847943737"><ele>36.2</ele><time>2026-04-18T14:53:16.002Z</time></trkpt><trkpt lat="43.32866107521057" lon="10.67061941809308"><ele>36.0</ele><time>2026-04-18T14:53:17.002Z</time></trkpt><trkpt lat="43.32874576718263" lon="10.670587174718918"><ele>36.0</ele><time>2026-04-18T14:53:18.002Z</time></trkpt><trkpt lat="43.32882363274884" lon="10.670542303028723"><ele>36.0</ele><time>2026-04-18T14:53:19.002Z</time></trkpt><trkpt lat="43.3289025971141" lon="10.670523805242894"><ele>36.0</ele><time>2026-04-18T14:53:20.002Z</time></trkpt><trkpt lat="43.32896994264592" lon="10.670493901419812"><ele>36.0</ele><time>2026-04-18T14:53:21.002Z</time></trkpt><trkpt lat="43.32904192796255" lon="10.670527461445106"><ele>36.0</ele><time>2026-04-18T14:53:22.002Z</time></trkpt><trkpt lat="43.329108754253355" lon="10.670569956697227"><ele>36.0</ele><time>2026-04-18T14:53:23.002Z</time></trkpt><trkpt lat="43.32917258923837" lon="10.670589588095021"><ele>36.142857142857146</ele><time>2026-04-18T14:53:24.002Z</time></trkpt><trkpt lat="43.329242078739" lon="10.67057677985171"><ele>36.285714285714285</ele><time>2026-04-18T14:53:25.002Z</time></trkpt><trkpt lat="43.329298510703964" lon="10.670534725592118"><ele>36.42857142857143</ele><time>2026-04-18T14:53:26Z</time></trkpt><trkpt lat="43.329335338814545" lon="10.670462268967077"><ele>36.57142857142857</ele><time>2026-04-18T14:53:27Z</time></trkpt><trkpt lat="43.32934517131769" lon="10.670369777900138"><ele>36.714285714285715</ele><time>2026-04-18T14:53:28Z</time></trkpt><trkpt lat="43.329325882119534" lon="10.67027193936393"><ele>36.85714285714286</ele><time>2026-04-18T14:53:29Z</time></trkpt><trkpt lat="43.329286699079724" lon="10.670172350956745"><ele>37.0</ele><time>2026-04-18T14:53:30Z</time></trkpt><trkpt lat="43.32924521916901" lon="10.67006795867091"><ele>36.6</ele><time>2026-04-18T14:53:31Z</time></trkpt><trkpt lat="43.32920852589013" lon="10.669949476949965"><ele>36.2</ele><time>2026-04-18T14:53:32Z</time></trkpt><trkpt lat="43.32918081517223" lon="10.669817397881499"><ele>35.8</ele><time>2026-04-18T14:53:33Z</time></trkpt><trkpt lat="43.32915649125394" lon="10.66967711583469"><ele>35.4</ele><time>2026-04-18T14:53:34Z</time></trkpt><trkpt lat="43.32912867451257" lon="10.669527778067875"><ele>35.0</ele><time>2026-04-18T14:53:35Z</time></trkpt><trkpt lat="43.32910395673284" lon="10.66937364201756"><ele>34.75</ele><time>2026-04-18T14:53:36Z</time></trkpt><trkpt lat="43.32907976691483" lon="10.669214793326965"><ele>34.5</ele><time>2026-04-18T14:53:37Z</time></trkpt><trkpt lat="43.32905506476147" lon="10.669056202037995"><ele>34.25</ele><time>2026-04-18T14:53:38Z</time></trkpt><trkpt lat="43.329030972978494" lon="10.668900966638962"><ele>34.0</ele><time>2026-04-18T14:53:39Z</time></trkpt><trkpt lat="43.32900639953388" lon="10.66874064924827"><ele>34.5</ele><time>2026-04-18T14:53:40Z</time></trkpt><trkpt lat="43.32898172208494" lon="10.668575187296687"><ele>35.0</ele><time>2026-04-18T14:53:41Z</time></trkpt><trkpt lat="43.32895662475523" lon="10.66840726331564"><ele>35.5</ele><time>2026-04-18T14:53:42Z</time></trkpt><trkpt lat="43.328929441769894" lon="10.668235477342861"><ele>36.0</ele><time>2026-04-18T14:53:43Z</time></trkpt><trkpt lat="43.328900191892764" lon="10.668062836901768"><ele>36.0</ele><time>2026-04-18T14:53:44Z</time></trkpt><trkpt lat="43.32887364093276" lon="10.667888925843467"><ele>36.0</ele><time>2026-04-18T14:53:45Z</time></trkpt><trkpt lat="43.32884617087632" lon="10.667714145621028"><ele>36.0</ele><time>2026-04-18T14:53:46Z</time></trkpt><trkpt lat="43.32882066362506" lon="10.667536537313405"><ele>36.0</ele><time>2026-04-18T14:53:47Z</time></trkpt><trkpt lat="43.32879226414104" lon="10.66735417078594"><ele>36.25</ele><time>2026-04-18T14:53:48Z</time></trkpt><trkpt lat="43.328762540459294" lon="10.667167083901017"><ele>36.5</ele><time>2026-04-18T14:53:49Z</time></trkpt><trkpt lat="43.328731626524295" lon="10.66697849566019"><ele>36.75</ele><time>2026-04-18T14:53:50Z</time></trkpt><trkpt lat="43.328701445662546" lon="10.666786177056757"><ele>37.0</ele><time>2026-04-18T14:53:51Z</time></trkpt><trkpt lat="43.32867184427744" lon="10.666592678752306"><ele>37.0</ele><time>2026-04-18T14:53:52Z</time></trkpt><trkpt lat="43.328642665373984" lon="10.666396480674349"><ele>37.0</ele><time>2026-04-18T14:53:53Z</time></trkpt><trkpt lat="43.328614426456916" lon="10.66620594347819"><ele>37.0</ele><time>2026-04-18T14:53:54Z</time></trkpt><trkpt lat="43.32858972423116" lon="10.666014534072644"><ele>37.0</ele><time>2026-04-18T14:53:55Z</time></trkpt><trkpt lat="43.32856931352671" lon="10.665817362935698"><ele>37.25</ele><time>2026-04-18T14:53:56Z</time></trkpt><trkpt lat="43.32855428483546" lon="10.665620640698862"><ele>37.5</ele><time>2026-04-18T14:53:57Z</time></trkpt><trkpt lat="43.32853955448048" lon="10.665423447568253"><ele>37.75</ele><time>2026-04-18T14:53:58Z</time></trkpt><trkpt lat="43.32852326188823" lon="10.665224673323692"><ele>38.0</ele><time>2026-04-18T14:53:59Z</time></trkpt><trkpt lat="43.3285076156769" lon="10.665029962720157"><ele>38.0</ele><time>2026-04-18T14:54:00Z</time></trkpt><trkpt lat="43.32849585385215" lon="10.664836037203369"><ele>38.0</ele><time>2026-04-18T14:54:01Z</time></trkpt><trkpt lat="43.32848380975192" lon="10.664643038802962"><ele>38.0</ele><time>2026-04-18T14:54:02Z</time></trkpt><trkpt lat="43.328473083922674" lon="10.664447825817359"><ele>38.0</ele><time>2026-04-18T14:54:03Z</time></trkpt><trkpt lat="43.32846662948053" lon="10.664253988741322"><ele>37.25</ele><time>2026-04-18T14:54:04Z</time></trkpt><trkpt lat="43.32846978986199" lon="10.664061033919682"><ele>36.5</ele><time>2026-04-18T14:54:05Z</time></trkpt><trkpt lat="43.32848769693483" lon="10.663869553252509"><ele>35.75</ele><time>2026-04-18T14:54:06Z</time></trkpt><trkpt lat="43.328517941058294" lon="10.663680005713177"><ele>35.0</ele><time>2026-04-18T14:54:07Z</time></trkpt><trkpt lat="43.32856269836629" lon="10.66349705738972"><ele>35.0</ele><time>2026-04-18T14:54:08Z</time></trkpt><trkpt lat="43.32862176537975" lon="10.66332047075306"><ele>35.0</ele><time>2026-04-18T14:54:09Z</time></trkpt><trkpt lat="43.32869309707626" lon="10.663149511491348"><ele>35.0</ele><time>2026-04-18T14:54:10Z</time></trkpt><trkpt lat="43.32877962145092" lon="10.662988669183937"><ele>35.0</ele><time>2026-04-18T14:54:11Z</time></trkpt><trkpt lat="43.32887999046232" lon="10.662841625254988"><ele>35.0</ele><time>2026-04-18T14:54:12Z</time></trkpt><trkpt lat="43.328992009375625" lon="10.662711687168136"><ele>35.0</ele><time>2026-04-18T14:54:13Z</time></trkpt><trkpt lat="43.32911355019246" lon="10.6625988658739"><ele>35.0</ele><time>2026-04-18T14:54:14Z</time></trkpt><trkpt lat="43.32924090473658" lon="10.66249985678125"><ele>35.0</ele><time>2026-04-18T14:54:15Z</time></trkpt><trkpt lat="43.32937465148198" lon="10.662416519434151"><ele>35.0</ele><time>2026-04-18T14:54:16Z</time></trkpt><trkpt lat="43.32951378449338" lon="10.662347646754087"><ele>35.0</ele><time>2026-04-18T14:54:17Z</time></trkpt><trkpt lat="43.32965414718234" lon="10.662282337866815"><ele>35.0</ele><time>2026-04-18T14:54:18Z</time></trkpt><trkpt lat="43.329798788391635" lon="10.662215362147078"><ele>35.0</ele><time>2026-04-18T14:54:19Z</time></trkpt><trkpt lat="43.32994545864669" lon="10.662147750618686"><ele>35.33333333333333</ele><time>2026-04-18T14:54:20.001Z</time></trkpt><trkpt lat="43.33009629147315" lon="10.6620742535987"><ele>35.666666666666664</ele><time>2026-04-18T14:54:21.001Z</time></trkpt><trkpt lat="43.33025240066173" lon="10.661999628769378"><ele>36.0</ele><time>2026-04-18T14:54:22.001Z</time></trkpt><trkpt lat="43.33041166658037" lon="10.661919683635626"><ele>37.333333333333336</ele><time>2026-04-18T14:54:23.001Z</time></trkpt><trkpt lat="43.330572843829515" lon="10.661834276760487"><ele>38.66666666666667</ele><time>2026-04-18T14:54:24.001Z</time></trkpt><trkpt lat="43.330734412977215" lon="10.66174400564696"><ele>40.0</ele><time>2026-04-18T14:54:25.001Z</time></trkpt><trkpt lat="43.33089164286906" lon="10.6616383992671"><ele>40.0</ele><time>2026-04-18T14:54:26.001Z</time></trkpt><trkpt lat="43.3310456856283" lon="10.661520861334202"><ele>40.0</ele><time>2026-04-18T14:54:27.001Z</time></trkpt><trkpt lat="43.331196483588954" lon="10.66139657839506"><ele>40.0</ele><time>2026-04-18T14:54:28.001Z</time></trkpt><trkpt lat="43.331343377087705" lon="10.661264923290004"><ele>38.66666666666667</ele><time>2026-04-18T14:54:29.001Z</time></trkpt><trkpt lat="43.33149745132175" lon="10.66114318955029"><ele>37.333333333333336</ele><time>2026-04-18T14:54:30.001Z</time></trkpt><trkpt lat="43.33163890972185" lon="10.660997188626096"><ele>36.0</ele><time>2026-04-18T14:54:31.001Z</time></trkpt><trkpt lat="43.33176452862127" lon="10.660827294053664"><ele>36.0</ele><time>2026-04-18T14:54:32.001Z</time></trkpt><trkpt lat="43.331897394652245" lon="10.660666467268031"><ele>36.0</ele><time>2026-04-18T14:54:33.001Z</time></trkpt><trkpt lat="43.33203795642942" lon="10.660516811024854"><ele>36.0</ele><time>2026-04-18T14:54:34.001Z</time></trkpt><trkpt lat="43.332149900479536" lon="10.660322259684001"><ele>37.0</ele><time>2026-04-18T14:54:35.001Z</time></trkpt><trkpt lat="43.3322661752429" lon="10.660139003639637"><ele>38.0</ele><time>2026-04-18T14:54:36.001Z</time></trkpt><trkpt lat="43.332381515756595" lon="10.659946981087439"><ele>39.0</ele><time>2026-04-18T14:54:37.001Z</time></trkpt><trkpt lat="43.33249452110841" lon="10.65975273658079"><ele>39.0</ele><time>2026-04-18T14:54:38.001Z</time></trkpt><trkpt lat="43.33260790489094" lon="10.659554488911462"><ele>39.0</ele><time>2026-04-18T14:54:39.001Z</time></trkpt><trkpt lat="43.33271909529211" lon="10.659353999511112"><ele>39.0</ele><time>2026-04-18T14:54:40.001Z</time></trkpt><trkpt lat="43.33282586801567" lon="10.65915581549024"><ele>37.666666666666664</ele><time>2026-04-18T14:54:41.001Z</time></trkpt><trkpt lat="43.33293221444745" lon="10.65896103892577"><ele>36.33333333333333</ele><time>2026-04-18T14:54:42.001Z</time></trkpt><trkpt lat="43.33303680046289" lon="10.658767190645538"><ele>35.0</ele><time>2026-04-18T14:54:43.001Z</time></trkpt><trkpt lat="43.333141228421105" lon="10.658576080688519"><ele>34.0</ele><time>2026-04-18T14:54:44.001Z</time></trkpt><trkpt lat="43.333246731173006" lon="10.658386226657607"><ele>33.0</ele><time>2026-04-18T14:54:45.001Z</time></trkpt><trkpt lat="43.33335360016165" lon="10.658197794669078"><ele>32.0</ele><time>2026-04-18T14:54:46.001Z</time></trkpt><trkpt lat="43.33345923361323" lon="10.658004037342051"><ele>32.0</ele><time>2026-04-18T14:54:47.001Z</time></trkpt><trkpt lat="43.3335664057547" lon="10.657811626088526"><ele>32.0</ele><time>2026-04-18T14:54:48.001Z</time></trkpt><trkpt lat="43.333673512387634" lon="10.657616534447289"><ele>32.0</ele><time>2026-04-18T14:54:49.001Z</time></trkpt><trkpt lat="43.33378111341075" lon="10.657420948403528"><ele>32.0</ele><time>2026-04-18T14:54:50.001Z</time></trkpt><trkpt lat="43.333888386551784" lon="10.657227081709168"><ele>32.0</ele><time>2026-04-18T14:54:51.001Z</time></trkpt><trkpt lat="43.33399470731279" lon="10.657033195873073"><ele>32.0</ele><time>2026-04-18T14:54:52.001Z</time></trkpt><trkpt lat="43.334100714461336" lon="10.656843996307632"><ele>32.33333333333333</ele><time>2026-04-18T14:54:53.001Z</time></trkpt><trkpt lat="43.3342066355858" lon="10.656656495191513"><ele>32.666666666666664</ele><time>2026-04-18T14:54:54.001Z</time></trkpt><trkpt lat="43.33431017339319" lon="10.656467574875744"><ele>33.0</ele><time>2026-04-18T14:54:55.001Z</time></trkpt><trkpt lat="43.33441289314042" lon="10.656280680896183"><ele>32.333333333333336</ele><time>2026-04-18T14:54:56.001Z</time></trkpt><trkpt lat="43.33451531562673" lon="10.656093633512453"><ele>31.666666666666668</ele><time>2026-04-18T14:54:57.001Z</time></trkpt><trkpt lat="43.33461689973746" lon="10.655904631827061"><ele>31.0</ele><time>2026-04-18T14:54:58.001Z</time></trkpt><trkpt lat="43.33472034135873" lon="10.655714471157797"><ele>31.666666666666668</ele><time>2026-04-18T14:54:59.001Z</time></trkpt><trkpt lat="43.3348241463156" lon="10.655522534546195"><ele>32.333333333333336</ele><time>2026-04-18T14:55:00.001Z</time></trkpt><trkpt lat="43.334926808393185" lon="10.655331284000598"><ele>33.0</ele><time>2026-04-18T14:55:01.001Z</time></trkpt><trkpt lat="43.33503237517837" lon="10.655140309231696"><ele>33.0</ele><time>2026-04-18T14:55:02.001Z</time></trkpt><trkpt lat="43.335135261830686" lon="10.654947405527134"><ele>33.0</ele><time>2026-04-18T14:55:03.001Z</time></trkpt><trkpt lat="43.33523738876295" lon="10.654754831619675"><ele>33.0</ele><time>2026-04-18T14:55:04.001Z</time></trkpt><trkpt lat="43.335340707874856" lon="10.654566188567928"><ele>32.0</ele><time>2026-04-18T14:55:05.001Z</time></trkpt><trkpt lat="43.33544391448058" lon="10.654379978745256"><ele>31.0</ele><time>2026-04-18T14:55:06.001Z</time></trkpt><trkpt lat="43.33554626640079" lon="10.65419679553592"><ele>30.0</ele><time>2026-04-18T14:55:07.001Z</time></trkpt><trkpt lat="43.33564697834168" lon="10.654020198029276"><ele>30.75</ele><time>2026-04-18T14:55:08.001Z</time></trkpt><trkpt lat="43.3357431529915" lon="10.653849825803961"><ele>31.5</ele><time>2026-04-18T14:55:09.001Z</time></trkpt><trkpt lat="43.335834886967106" lon="10.65369254438023"><ele>32.25</ele><time>2026-04-18T14:55:10.001Z</time></trkpt><trkpt lat="43.335919642264415" lon="10.653552258199209"><ele>33.0</ele><time>2026-04-18T14:55:11.001Z</time></trkpt><trkpt lat="43.33599763216625" lon="10.653423593448125"><ele>33.0</ele><time>2026-04-18T14:55:12.001Z</time></trkpt><trkpt lat="43.33606989839084" lon="10.653304658443052"><ele>33.0</ele><time>2026-04-18T14:55:13.001Z</time></trkpt><trkpt lat="43.33613530788366" lon="10.653199621524202"><ele>33.0</ele><time>2026-04-18T14:55:14.001Z</time></trkpt><trkpt lat="43.33619596927766" lon="10.65310834696833"><ele>33.0</ele><time>2026-04-18T14:55:15.001Z</time></trkpt><trkpt lat="43.33625834385404" lon="10.653033744726427"><ele>33.0</ele><time>2026-04-18T14:55:16.001Z</time></trkpt><trkpt lat="43.3363352240524" lon="10.652993350430096"><ele>33.0</ele><time>2026-04-18T14:55:17.001Z</time></trkpt><trkpt lat="43.336412825645404" lon="10.652974250664613"><ele>33.0</ele><time>2026-04-18T14:55:18.001Z</time></trkpt><trkpt lat="43.33648675717619" lon="10.652941405680588"><ele>33.0</ele><time>2026-04-18T14:55:19.001Z</time></trkpt><trkpt lat="43.336549803048804" lon="10.652872344955615"><ele>33.0</ele><time>2026-04-18T14:55:20.001Z</time></trkpt><trkpt lat="43.33659429749974" lon="10.652783765739901"><ele>33.0</ele><time>2026-04-18T14:55:21.001Z</time></trkpt><trkpt lat="43.33660871096042" lon="10.652671450301959"><ele>33.0</ele><time>2026-04-18T14:55:22.001Z</time></trkpt><trkpt lat="43.336623542481654" lon="10.652547764890745"><ele>33.0</ele><time>2026-04-18T14:55:23.002Z</time></trkpt><trkpt lat="43.33665203276594" lon="10.65242959692253"><ele>33.0</ele><time>2026-04-18T14:55:24.002Z</time></trkpt><trkpt lat="43.336705177081086" lon="10.652318922137436"><ele>33.0</ele><time>2026-04-18T14:55:25.002Z</time></trkpt><trkpt lat="43.336775738106105" lon="10.652217766429748"><ele>33.0</ele><time>2026-04-18T14:55:26.002Z</time></trkpt><trkpt lat="43.33685055713943" lon="10.652110343188433"><ele>33.0</ele><time>2026-04-18T14:55:27.002Z</time></trkpt><trkpt lat="43.33692993741236" lon="10.651995147450695"><ele>32.75</ele><time>2026-04-18T14:55:28.002Z</time></trkpt><trkpt lat="43.337013628611054" lon="10.651867304767324"><ele>32.5</ele><time>2026-04-18T14:55:29.002Z</time></trkpt><trkpt lat="43.33710343565993" lon="10.651734891703292"><ele>32.25</ele><time>2026-04-18T14:55:30.002Z</time></trkpt><trkpt lat="43.33719569801577" lon="10.65160045783315"><ele>32.0</ele><time>2026-04-18T14:55:31.002Z</time></trkpt><trkpt lat="43.33728400794396" lon="10.651471920445642"><ele>32.0</ele><time>2026-04-18T14:55:31.999Z</time></trkpt><trkpt lat="43.33737403711292" lon="10.651340220382732"><ele>32.0</ele><time>2026-04-18T14:55:32.999Z</time></trkpt><trkpt lat="43.33746982094392" lon="10.651204325982683"><ele>32.0</ele><time>2026-04-18T14:55:33.999Z</time></trkpt><trkpt lat="43.33756739631784" lon="10.651063590973799"><ele>32.0</ele><time>2026-04-18T14:55:34.999Z</time></trkpt><trkpt lat="43.33766803324595" lon="10.650917339673077"><ele>31.666666666666664</ele><time>2026-04-18T14:55:35.999Z</time></trkpt><trkpt lat="43.337771115643655" lon="10.650766671888428"><ele>31.333333333333336</ele><time>2026-04-18T14:55:36.999Z</time></trkpt><trkpt lat="43.337877878466905" lon="10.65061282926442"><ele>31.0</ele><time>2026-04-18T14:55:37.999Z</time></trkpt><trkpt lat="43.33798663832742" lon="10.650452972108878"><ele>31.333333333333336</ele><time>2026-04-18T14:55:38.999Z</time></trkpt><trkpt lat="43.338093078283066" lon="10.650284838895898"><ele>31.666666666666664</ele><time>2026-04-18T14:55:39.999Z</time></trkpt><trkpt lat="43.338198108828074" lon="10.650107124520256"><ele>32.0</ele><time>2026-04-18T14:55:40.999Z</time></trkpt><trkpt lat="43.33829760022635" lon="10.649926940242404"><ele>32.0</ele><time>2026-04-18T14:55:41.999Z</time></trkpt><trkpt lat="43.33839290768367" lon="10.649743637134641"><ele>32.0</ele><time>2026-04-18T14:55:42.999Z</time></trkpt><trkpt lat="43.33848200982958" lon="10.649553883417038"><ele>32.0</ele><time>2026-04-18T14:55:43.999Z</time></trkpt><trkpt lat="43.33856580802187" lon="10.64935998218113"><ele>32.0</ele><time>2026-04-18T14:55:44.999Z</time></trkpt><trkpt lat="43.338645856672166" lon="10.64916124596727"><ele>32.0</ele><time>2026-04-18T14:55:45.999Z</time></trkpt><trkpt lat="43.33872224272706" lon="10.648957165556402"><ele>32.0</ele><time>2026-04-18T14:55:46.999Z</time></trkpt><trkpt lat="43.33879546524396" lon="10.648746491823742"><ele>32.0</ele><time>2026-04-18T14:55:47.999Z</time></trkpt><trkpt lat="43.33886196920293" lon="10.648530064553876"><ele>32.0</ele><time>2026-04-18T14:55:48.999Z</time></trkpt><trkpt lat="43.338923986416205" lon="10.648312633355681"><ele>32.0</ele><time>2026-04-18T14:55:49.999Z</time></trkpt><trkpt lat="43.3389818759937" lon="10.648091435157594"><ele>32.0</ele><time>2026-04-18T14:55:50.999Z</time></trkpt><trkpt lat="43.339034422555116" lon="10.647868746988358"><ele>32.0</ele><time>2026-04-18T14:55:51.999Z</time></trkpt><trkpt lat="43.33908871067551" lon="10.647648762543636"><ele>32.0</ele><time>2026-04-18T14:55:52.999Z</time></trkpt><trkpt lat="43.339145351296885" lon="10.647425351011334"><ele>32.0</ele><time>2026-04-18T14:55:53.999Z</time></trkpt><trkpt lat="43.339199226289175" lon="10.647202935127146"><ele>32.0</ele><time>2026-04-18T14:55:54.999Z</time></trkpt><trkpt lat="43.33925066277904" lon="10.646980846633612"><ele>32.0</ele><time>2026-04-18T14:55:56Z</time></trkpt><trkpt lat="43.33930174759101" lon="10.646757671424222"><ele>32.0</ele><time>2026-04-18T14:55:57Z</time></trkpt><trkpt lat="43.339351840807076" lon="10.646538237158948"><ele>32.0</ele><time>2026-04-18T14:55:58Z</time></trkpt><trkpt lat="43.33940190854391" lon="10.646319931386977"><ele>32.0</ele><time>2026-04-18T14:55:59Z</time></trkpt><trkpt lat="43.33945323159329" lon="10.646103283171264"><ele>31.666666666666664</ele><time>2026-04-18T14:56:00Z</time></trkpt><trkpt lat="43.33950412702688" lon="10.645890657413458"><ele>31.333333333333336</ele><time>2026-04-18T14:56:01Z</time></trkpt><trkpt lat="43.33954977196497" lon="10.645685065062239"><ele>31.0</ele><time>2026-04-18T14:56:02Z</time></trkpt><trkpt lat="43.33959816645063" lon="10.645484439943171"><ele>31.0</ele><time>2026-04-18T14:56:03Z</time></trkpt><trkpt lat="43.33964466537214" lon="10.64528484395302"><ele>31.0</ele><time>2026-04-18T14:56:04Z</time></trkpt><trkpt lat="43.33969334647106" lon="10.64509106572364"><ele>31.0</ele><time>2026-04-18T14:56:05Z</time></trkpt><trkpt lat="43.33973759535686" lon="10.644911226415465"><ele>31.0</ele><time>2026-04-18T14:56:06Z</time></trkpt><trkpt lat="43.339779418244454" lon="10.644757206309434"><ele>31.0</ele><time>2026-04-18T14:56:07Z</time></trkpt><trkpt lat="43.339812747673896" lon="10.644621907307906"><ele>31.0</ele><time>2026-04-18T14:56:08Z</time></trkpt><trkpt lat="43.33984306123569" lon="10.644517843463671"><ele>31.0</ele><time>2026-04-18T14:56:09Z</time></trkpt><trkpt lat="43.3398631835022" lon="10.644427320107031"><ele>31.0</ele><time>2026-04-18T14:56:10Z</time></trkpt><trkpt lat="43.33992172533998" lon="10.64428800392791"><ele>31.0</ele><time>2026-04-18T14:56:12Z</time></trkpt><trkpt lat="43.340031112593486" lon="10.644250708444682"><ele>31.000000000000004</ele><time>2026-04-18T14:56:14Z</time></trkpt><trkpt lat="43.340087875904004" lon="10.644296400107642"><ele>31.0</ele><time>2026-04-18T14:56:15Z</time></trkpt><trkpt lat="43.340126660973354" lon="10.644367167036453"><ele>31.0</ele><time>2026-04-18T14:56:16Z</time></trkpt><trkpt lat="43.34014890911087" lon="10.644525202505541"><ele>31.0</ele><time>2026-04-18T14:56:18Z</time></trkpt><trkpt lat="43.340155332420245" lon="10.644664323182205"><ele>31.000000000000004</ele><time>2026-04-18T14:56:20Z</time></trkpt><trkpt lat="43.34015699754184" lon="10.644770083023088"><ele>31.0</ele><time>2026-04-18T14:56:22Z</time></trkpt><trkpt lat="43.34032890169755" lon="10.64483518711025"><ele>31.0</ele><time>2026-04-18T14:56:26Z</time></trkpt><trkpt lat="43.340418411692454" lon="10.644876075724461"><ele>31.0</ele><time>2026-04-18T14:56:28Z</time></trkpt><trkpt lat="43.34050016418426" lon="10.644967690398346"><ele>31.0</ele><time>2026-04-18T14:56:30Z</time></trkpt><trkpt lat="43.34058706082236" lon="10.645045144215171"><ele>31.0</ele><time>2026-04-18T14:56:32Z</time></trkpt><trkpt lat="43.340672898585886" lon="10.64512215222394"><ele>31.0</ele><time>2026-04-18T14:56:34Z</time></trkpt><trkpt lat="43.340764369077185" lon="10.645204213554523"><ele>31.333333333333336</ele><time>2026-04-18T14:56:36Z</time></trkpt><trkpt lat="43.3408661983409" lon="10.645279669538905"><ele>31.666666666666668</ele><time>2026-04-18T14:56:38Z</time></trkpt><trkpt lat="43.340957941487765" lon="10.645392296062543"><ele>32.0</ele><time>2026-04-18T14:56:40.001Z</time></trkpt><trkpt lat="43.3410098289174" lon="10.645443934171075"><ele>32.333333333333336</ele><time>2026-04-18T14:56:41.001Z</time></trkpt><trkpt lat="43.34106364360279" lon="10.645495411350234"><ele>32.666666666666664</ele><time>2026-04-18T14:56:42.001Z</time></trkpt><trkpt lat="43.34112048259136" lon="10.64554909262616"><ele>33.0</ele><time>2026-04-18T14:56:43.001Z</time></trkpt><trkpt lat="43.341183774559916" lon="10.64558513511255"><ele>33.0</ele><time>2026-04-18T14:56:44.001Z</time></trkpt><trkpt lat="43.3412418183994" lon="10.645638940622845"><ele>33.0</ele><time>2026-04-18T14:56:45.001Z</time></trkpt><trkpt lat="43.341294883959414" lon="10.645698258507801"><ele>33.0</ele><time>2026-04-18T14:56:46.001Z</time></trkpt><trkpt lat="43.34135394925566" lon="10.645753121842962"><ele>33.0</ele><time>2026-04-18T14:56:47.001Z</time></trkpt><trkpt lat="43.341415587251475" lon="10.645809957787868"><ele>33.0</ele><time>2026-04-18T14:56:48.001Z</time></trkpt><trkpt lat="43.34147577678654" lon="10.645878061128561"><ele>33.0</ele><time>2026-04-18T14:56:49.001Z</time></trkpt><trkpt lat="43.34154161075434" lon="10.645938944353194"><ele>33.0</ele><time>2026-04-18T14:56:50.001Z</time></trkpt><trkpt lat="43.341606676653036" lon="10.646014163194828"><ele>32.8</ele><time>2026-04-18T14:56:51.001Z</time></trkpt><trkpt lat="43.34168014247331" lon="10.646085709229924"><ele>32.599999999999994</ele><time>2026-04-18T14:56:52.001Z</time></trkpt><trkpt lat="43.34175840421803" lon="10.646156999862743"><ele>32.400000000000006</ele><time>2026-04-18T14:56:53.001Z</time></trkpt><trkpt lat="43.34183691939765" lon="10.64622545812638"><ele>32.2</ele><time>2026-04-18T14:56:54.001Z</time></trkpt><trkpt lat="43.34191351016308" lon="10.646285056144189"><ele>32.0</ele><time>2026-04-18T14:56:55.001Z</time></trkpt><trkpt lat="43.34200569811798" lon="10.646332427008057"><ele>32.0</ele><time>2026-04-18T14:56:56.001Z</time></trkpt><trkpt lat="43.34210214039199" lon="10.646369485071054"><ele>32.0</ele><time>2026-04-18T14:56:57.001Z</time></trkpt><trkpt lat="43.342205467213745" lon="10.646410660505731"><ele>32.0</ele><time>2026-04-18T14:56:58.001Z</time></trkpt><trkpt lat="43.34231673761338" lon="10.64644490594914"><ele>32.0</ele><time>2026-04-18T14:56:59.001Z</time></trkpt><trkpt lat="43.34242814741188" lon="10.646481165683074"><ele>32.0</ele><time>2026-04-18T14:57:00.001Z</time></trkpt><trkpt lat="43.34252907817038" lon="10.64651805423552"><ele>32.800000000000004</ele><time>2026-04-18T14:57:01.001Z</time></trkpt><trkpt lat="43.34263259584853" lon="10.646554252525867"><ele>33.6</ele><time>2026-04-18T14:57:02.001Z</time></trkpt><trkpt lat="43.34273499773598" lon="10.646591118765878"><ele>34.400000000000006</ele><time>2026-04-18T14:57:03.001Z</time></trkpt><trkpt lat="43.34283077838939" lon="10.646633057466515"><ele>35.2</ele><time>2026-04-18T14:57:04.001Z</time></trkpt><trkpt lat="43.34292273986637" lon="10.646660130576205"><ele>36.0</ele><time>2026-04-18T14:57:05.001Z</time></trkpt><trkpt lat="43.343024354282875" lon="10.646694091130199"><ele>36.6</ele><time>2026-04-18T14:57:06.001Z</time></trkpt><trkpt lat="43.34312963706489" lon="10.64670793168706"><ele>37.2</ele><time>2026-04-18T14:57:07.001Z</time></trkpt><trkpt lat="43.34323105351898" lon="10.64670692818684"><ele>37.8</ele><time>2026-04-18T14:57:08.001Z</time></trkpt><trkpt lat="43.34333418101359" lon="10.646705439624975"><ele>38.4</ele><time>2026-04-18T14:57:09.001Z</time></trkpt><trkpt lat="43.34343876166091" lon="10.64670642177957"><ele>39.0</ele><time>2026-04-18T14:57:10.001Z</time></trkpt><trkpt lat="43.343540415307004" lon="10.646706708928024"><ele>39.0</ele><time>2026-04-18T14:57:11.001Z</time></trkpt><trkpt lat="43.343639413342146" lon="10.646710368505742"><ele>39.0</ele><time>2026-04-18T14:57:12.001Z</time></trkpt><trkpt lat="43.343741663329304" lon="10.646713429321029"><ele>39.0</ele><time>2026-04-18T14:57:13.001Z</time></trkpt><trkpt lat="43.343840630783106" lon="10.646724366792446"><ele>39.0</ele><time>2026-04-18T14:57:14.001Z</time></trkpt><trkpt lat="43.34393515239869" lon="10.646750605990803"><ele>39.0</ele><time>2026-04-18T14:57:15.001Z</time></trkpt><trkpt lat="43.344031687304934" lon="10.64678056845763"><ele>39.0</ele><time>2026-04-18T14:57:16.001Z</time></trkpt><trkpt lat="43.3441273383238" lon="10.646811714103494"><ele>39.0</ele><time>2026-04-18T14:57:17.001Z</time></trkpt><trkpt lat="43.34422587724877" lon="10.64683820803115"><ele>39.0</ele><time>2026-04-18T14:57:18.001Z</time></trkpt><trkpt lat="43.344328344460074" lon="10.646864070195805"><ele>39.0</ele><time>2026-04-18T14:57:19.001Z</time></trkpt><trkpt lat="43.34442825791596" lon="10.646895589692825"><ele>39.0</ele><time>2026-04-18T14:57:20.001Z</time></trkpt><trkpt lat="43.344532837694516" lon="10.646919645379532"><ele>39.0</ele><time>2026-04-18T14:57:21.001Z</time></trkpt><trkpt lat="43.34463774558803" lon="10.646947440087128"><ele>39.0</ele><time>2026-04-18T14:57:22.001Z</time></trkpt><trkpt lat="43.34473692903179" lon="10.64698086801271"><ele>39.0</ele><time>2026-04-18T14:57:23.001Z</time></trkpt><trkpt lat="43.34484952712926" lon="10.647013624309151"><ele>39.0</ele><time>2026-04-18T14:57:24.001Z</time></trkpt><trkpt lat="43.344962199222714" lon="10.647047816589183"><ele>39.0</ele><time>2026-04-18T14:57:25.001Z</time></trkpt><trkpt lat="43.34507813541818" lon="10.647086237904613"><ele>39.0</ele><time>2026-04-18T14:57:26.001Z</time></trkpt><trkpt lat="43.34519376354088" lon="10.647131213613623"><ele>39.0</ele><time>2026-04-18T14:57:27.001Z</time></trkpt><trkpt lat="43.34530017646704" lon="10.647182922346499"><ele>39.0</ele><time>2026-04-18T14:57:28.001Z</time></trkpt><trkpt lat="43.34541599779048" lon="10.64722408569272"><ele>39.0</ele><time>2026-04-18T14:57:29.001Z</time></trkpt><trkpt lat="43.3455261979775" lon="10.647254229994278"><ele>39.8</ele><time>2026-04-18T14:57:30.001Z</time></trkpt><trkpt lat="43.34563452439163" lon="10.647282304911963"><ele>40.599999999999994</ele><time>2026-04-18T14:57:31.001Z</time></trkpt><trkpt lat="43.34573666603427" lon="10.647313097683403"><ele>41.4</ele><time>2026-04-18T14:57:32.001Z</time></trkpt><trkpt lat="43.3458483624197" lon="10.647346190524114"><ele>42.199999999999996</ele><time>2026-04-18T14:57:33.001Z</time></trkpt><trkpt lat="43.345964316572186" lon="10.647373673309339"><ele>43.0</ele><time>2026-04-18T14:57:34.002Z</time></trkpt><trkpt lat="43.346084521509034" lon="10.64739097103364"><ele>43.0</ele><time>2026-04-18T14:57:35.002Z</time></trkpt><trkpt lat="43.34620700987336" lon="10.647422739687814"><ele>43.0</ele><time>2026-04-18T14:57:36.002Z</time></trkpt><trkpt lat="43.34632733057275" lon="10.64744277454514"><ele>43.0</ele><time>2026-04-18T14:57:37.002Z</time></trkpt><trkpt lat="43.34644662172293" lon="10.647481101263336"><ele>43.0</ele><time>2026-04-18T14:57:37.999Z</time></trkpt><trkpt lat="43.34657384973583" lon="10.647541754275695"><ele>42.75</ele><time>2026-04-18T14:57:38.999Z</time></trkpt><trkpt lat="43.346708752045856" lon="10.647600235489946"><ele>42.5</ele><time>2026-04-18T14:57:39.999Z</time></trkpt><trkpt lat="43.346851013857176" lon="10.647658968271811"><ele>42.25</ele><time>2026-04-18T14:57:40.999Z</time></trkpt><trkpt lat="43.346990298555696" lon="10.647720345303716"><ele>42.0</ele><time>2026-04-18T14:57:41.999Z</time></trkpt><trkpt lat="43.34712694151666" lon="10.647778984118876"><ele>41.25</ele><time>2026-04-18T14:57:42.999Z</time></trkpt><trkpt lat="43.34726515082721" lon="10.647840397524375"><ele>40.5</ele><time>2026-04-18T14:57:43.999Z</time></trkpt><trkpt lat="43.347404641474725" lon="10.647901725997356"><ele>39.75</ele><time>2026-04-18T14:57:44.999Z</time></trkpt><trkpt lat="43.3475437198911" lon="10.647958354959616"><ele>39.0</ele><time>2026-04-18T14:57:45.999Z</time></trkpt><trkpt lat="43.34768109985901" lon="10.648015301257137"><ele>39.0</ele><time>2026-04-18T14:57:46.999Z</time></trkpt><trkpt lat="43.34781823900791" lon="10.648072493998821"><ele>39.0</ele><time>2026-04-18T14:57:47.999Z</time></trkpt><trkpt lat="43.34795681446161" lon="10.648130838321253"><ele>39.0</ele><time>2026-04-18T14:57:48.999Z</time></trkpt><trkpt lat="43.348090121748086" lon="10.64818466778481"><ele>39.0</ele><time>2026-04-18T14:57:49.999Z</time></trkpt><trkpt lat="43.34821954206671" lon="10.648239609805435"><ele>39.25</ele><time>2026-04-18T14:57:50.999Z</time></trkpt><trkpt lat="43.348351274626985" lon="10.648293652723579"><ele>39.5</ele><time>2026-04-18T14:57:51.999Z</time></trkpt><trkpt lat="43.348481197762695" lon="10.6483483728785"><ele>39.75</ele><time>2026-04-18T14:57:52.999Z</time></trkpt><trkpt lat="43.34861389240599" lon="10.648403631014181"><ele>40.0</ele><time>2026-04-18T14:57:53.999Z</time></trkpt><trkpt lat="43.34874493960385" lon="10.648458763740553"><ele>40.0</ele><time>2026-04-18T14:57:54.999Z</time></trkpt><trkpt lat="43.348876392418966" lon="10.648511774457122"><ele>40.0</ele><time>2026-04-18T14:57:55.999Z</time></trkpt><trkpt lat="43.349009373102646" lon="10.648565060666938"><ele>40.0</ele><time>2026-04-18T14:57:56.999Z</time></trkpt><trkpt lat="43.34914169875866" lon="10.648617185782824"><ele>40.0</ele><time>2026-04-18T14:57:57.999Z</time></trkpt><trkpt lat="43.34926898610096" lon="10.648669328872309"><ele>40.0</ele><time>2026-04-18T14:57:58.999Z</time></trkpt><trkpt lat="43.34938904378896" lon="10.648728323321267"><ele>40.0</ele><time>2026-04-18T14:57:59.999Z</time></trkpt><trkpt lat="43.3495104023426" lon="10.648783349106223"><ele>40.0</ele><time>2026-04-18T14:58:01Z</time></trkpt><trkpt lat="43.34962641093112" lon="10.6488422049561"><ele>40.0</ele><time>2026-04-18T14:58:02Z</time></trkpt><trkpt lat="43.34974577076493" lon="10.64889701904484"><ele>41.0</ele><time>2026-04-18T14:58:03Z</time></trkpt><trkpt lat="43.34986768361936" lon="10.648954221610323"><ele>42.0</ele><time>2026-04-18T14:58:04Z</time></trkpt><trkpt lat="43.34999118277774" lon="10.649015295067697"><ele>43.0</ele><time>2026-04-18T14:58:05Z</time></trkpt><trkpt lat="43.350116133864454" lon="10.649076658282961"><ele>44.0</ele><time>2026-04-18T14:58:06Z</time></trkpt><trkpt lat="43.35024258033193" lon="10.649136531286144"><ele>44.0</ele><time>2026-04-18T14:58:07Z</time></trkpt><trkpt lat="43.35036546985024" lon="10.649198178094512"><ele>44.0</ele><time>2026-04-18T14:58:08Z</time></trkpt><trkpt lat="43.35048623596098" lon="10.649267533387526"><ele>44.0</ele><time>2026-04-18T14:58:09Z</time></trkpt><trkpt lat="43.35061369381297" lon="10.649327856362047"><ele>44.0</ele><time>2026-04-18T14:58:10Z</time></trkpt><trkpt lat="43.35074109342104" lon="10.649388514961188"><ele>44.0</ele><time>2026-04-18T14:58:11Z</time></trkpt><trkpt lat="43.35086415716261" lon="10.649449615296838"><ele>44.0</ele><time>2026-04-18T14:58:12Z</time></trkpt><trkpt lat="43.35098289239886" lon="10.649516039489473"><ele>44.0</ele><time>2026-04-18T14:58:13Z</time></trkpt><trkpt lat="43.35110655555463" lon="10.649576767775743"><ele>44.0</ele><time>2026-04-18T14:58:14Z</time></trkpt><trkpt lat="43.35122854554165" lon="10.649638012540434"><ele>44.25</ele><time>2026-04-18T14:58:15Z</time></trkpt><trkpt lat="43.3513540418241" lon="10.649700334110962"><ele>44.5</ele><time>2026-04-18T14:58:16Z</time></trkpt><trkpt lat="43.35147773424685" lon="10.64976150047254"><ele>44.75</ele><time>2026-04-18T14:58:17Z</time></trkpt><trkpt lat="43.35160365592775" lon="10.649822669108268"><ele>45.0</ele><time>2026-04-18T14:58:18Z</time></trkpt><trkpt lat="43.351730095531565" lon="10.649883656138908"><ele>45.0</ele><time>2026-04-18T14:58:19Z</time></trkpt><trkpt lat="43.35185758900115" lon="10.6499464793819"><ele>45.0</ele><time>2026-04-18T14:58:20Z</time></trkpt><trkpt lat="43.351983267739584" lon="10.650008152176934"><ele>45.0</ele><time>2026-04-18T14:58:21Z</time></trkpt><trkpt lat="43.35211014325906" lon="10.650068369812132"><ele>45.0</ele><time>2026-04-18T14:58:22Z</time></trkpt><trkpt lat="43.352231069150726" lon="10.650134229969206"><ele>45.25</ele><time>2026-04-18T14:58:23Z</time></trkpt><trkpt lat="43.352354720896386" lon="10.650199156866348"><ele>45.5</ele><time>2026-04-18T14:58:24Z</time></trkpt><trkpt lat="43.35248131308093" lon="10.650258739151282"><ele>45.75</ele><time>2026-04-18T14:58:25Z</time></trkpt><trkpt lat="43.352606143733176" lon="10.650326486127897"><ele>46.0</ele><time>2026-04-18T14:58:26Z</time></trkpt><trkpt lat="43.352731947551845" lon="10.65038855371327"><ele>46.0</ele><time>2026-04-18T14:58:27Z</time></trkpt><trkpt lat="43.3528554049968" lon="10.65045192344388"><ele>46.0</ele><time>2026-04-18T14:58:28Z</time></trkpt><trkpt lat="43.35297470749425" lon="10.650513996043633"><ele>46.0</ele><time>2026-04-18T14:58:29Z</time></trkpt><trkpt lat="43.35308980391736" lon="10.650571162156105"><ele>46.0</ele><time>2026-04-18T14:58:30Z</time></trkpt><trkpt lat="43.35319802484898" lon="10.650626494593562"><ele>46.4</ele><time>2026-04-18T14:58:31Z</time></trkpt><trkpt lat="43.353301375933064" lon="10.650680014659264"><ele>46.8</ele><time>2026-04-18T14:58:32Z</time></trkpt><trkpt lat="43.35340120267321" lon="10.650729077398058"><ele>47.199999999999996</ele><time>2026-04-18T14:58:33Z</time></trkpt><trkpt lat="43.35350279723987" lon="10.650776432247897"><ele>47.599999999999994</ele><time>2026-04-18T14:58:34Z</time></trkpt><trkpt lat="43.353600972705735" lon="10.650821774255993"><ele>48.0</ele><time>2026-04-18T14:58:35Z</time></trkpt><trkpt lat="43.35369150671929" lon="10.65086762092575"><ele>47.99999999999999</ele><time>2026-04-18T14:58:36Z</time></trkpt><trkpt lat="43.353776530856656" lon="10.650911999933923"><ele>48.0</ele><time>2026-04-18T14:58:37.001Z</time></trkpt><trkpt lat="43.35384794127882" lon="10.65095282382458"><ele>48.0</ele><time>2026-04-18T14:58:38.001Z</time></trkpt><trkpt lat="43.35391754104899" lon="10.650981148935386"><ele>48.0</ele><time>2026-04-18T14:58:39.001Z</time></trkpt><trkpt lat="43.35398523114694" lon="10.651002761090894"><ele>48.0</ele><time>2026-04-18T14:58:40.001Z</time></trkpt><trkpt lat="43.35405543918464" lon="10.651021804004934"><ele>47.99999999999999</ele><time>2026-04-18T14:58:41.001Z</time></trkpt><trkpt lat="43.35412058093222" lon="10.65103701876847"><ele>48.0</ele><time>2026-04-18T14:58:42.001Z</time></trkpt><trkpt lat="43.354189154780215" lon="10.651060233199832"><ele>48.166666666666664</ele><time>2026-04-18T14:58:43.001Z</time></trkpt><trkpt lat="43.35425474499168" lon="10.65107846202389"><ele>48.33333333333333</ele><time>2026-04-18T14:58:44.001Z</time></trkpt><trkpt lat="43.354318090894225" lon="10.651097341523668"><ele>48.5</ele><time>2026-04-18T14:58:45.001Z</time></trkpt><trkpt lat="43.35443504964408" lon="10.65112967132124"><ele>48.666666666666664</ele><time>2026-04-18T14:58:47.001Z</time></trkpt><trkpt lat="43.354556462463634" lon="10.651172766951369"><ele>48.83333333333333</ele><time>2026-04-18T14:58:49.001Z</time></trkpt><trkpt lat="43.35461938206686" lon="10.651189912980133"><ele>49.0</ele><time>2026-04-18T14:58:50.001Z</time></trkpt><trkpt lat="43.35474854112671" lon="10.651234395298506"><ele>49.285714285714285</ele><time>2026-04-18T14:58:52.001Z</time></trkpt><trkpt lat="43.35481239690408" lon="10.6512579852485"><ele>49.57142857142857</ele><time>2026-04-18T14:58:53.001Z</time></trkpt><trkpt lat="43.35487879202788" lon="10.651278891108761"><ele>49.85714285714286</ele><time>2026-04-18T14:58:54.001Z</time></trkpt><trkpt lat="43.35494483254032" lon="10.651301187827048"><ele>50.14285714285714</ele><time>2026-04-18T14:58:55.001Z</time></trkpt><trkpt lat="43.3550072827453" lon="10.651322686932456"><ele>50.42857142857143</ele><time>2026-04-18T14:58:56.001Z</time></trkpt><trkpt lat="43.35507205845756" lon="10.651343643186182"><ele>50.714285714285715</ele><time>2026-04-18T14:58:57.001Z</time></trkpt><trkpt lat="43.355136268143205" lon="10.651365065145338"><ele>51.0</ele><time>2026-04-18T14:58:58.001Z</time></trkpt><trkpt lat="43.35519880891834" lon="10.651389030656592"><ele>51.0</ele><time>2026-04-18T14:58:59.001Z</time></trkpt><trkpt lat="43.35526530368316" lon="10.651412149461203"><ele>51.0</ele><time>2026-04-18T14:59:00.001Z</time></trkpt><trkpt lat="43.355329315252995" lon="10.651433546759165"><ele>51.0</ele><time>2026-04-18T14:59:01.001Z</time></trkpt><trkpt lat="43.3553912188323" lon="10.651459174088691"><ele>51.0</ele><time>2026-04-18T14:59:02.001Z</time></trkpt><trkpt lat="43.35545741507729" lon="10.651480146697235"><ele>51.0</ele><time>2026-04-18T14:59:03.001Z</time></trkpt><trkpt lat="43.355523375960004" lon="10.651502356623752"><ele>51.0</ele><time>2026-04-18T14:59:04.001Z</time></trkpt><trkpt lat="43.3555860967747" lon="10.651526553855396"><ele>51.0</ele><time>2026-04-18T14:59:05.001Z</time></trkpt><trkpt lat="43.355650659102885" lon="10.651542727752904"><ele>51.714285714285715</ele><time>2026-04-18T14:59:06.001Z</time></trkpt><trkpt lat="43.355718533785506" lon="10.651555626795043"><ele>52.42857142857143</ele><time>2026-04-18T14:59:07.001Z</time></trkpt><trkpt lat="43.3557879628934" lon="10.65157246105079"><ele>53.14285714285714</ele><time>2026-04-18T14:59:08.001Z</time></trkpt><trkpt lat="43.35585983179022" lon="10.651593964498273"><ele>53.85714285714286</ele><time>2026-04-18T14:59:09.001Z</time></trkpt><trkpt lat="43.35593223831083" lon="10.651612552660902"><ele>54.57142857142857</ele><time>2026-04-18T14:59:10.001Z</time></trkpt><trkpt lat="43.35600891073945" lon="10.651631781209678"><ele>55.285714285714285</ele><time>2026-04-18T14:59:11.001Z</time></trkpt><trkpt lat="43.35608532893861" lon="10.651655093854055"><ele>56.0</ele><time>2026-04-18T14:59:12.001Z</time></trkpt><trkpt lat="43.35615965634157" lon="10.651682133946167"><ele>56.00000000000001</ele><time>2026-04-18T14:59:13.001Z</time></trkpt><trkpt lat="43.35623561503197" lon="10.651720217130118"><ele>56.0</ele><time>2026-04-18T14:59:14.001Z</time></trkpt><trkpt lat="43.35630537545755" lon="10.651770751627172"><ele>56.0</ele><time>2026-04-18T14:59:15.001Z</time></trkpt><trkpt lat="43.35637012420971" lon="10.6518399203204"><ele>56.0</ele><time>2026-04-18T14:59:16.001Z</time></trkpt><trkpt lat="43.35644278600653" lon="10.651873887673572"><ele>56.00000000000001</ele><time>2026-04-18T14:59:17.001Z</time></trkpt><trkpt lat="43.35650356533611" lon="10.651935412687967"><ele>56.0</ele><time>2026-04-18T14:59:18.001Z</time></trkpt><trkpt lat="43.35658603309878" lon="10.651980890968561"><ele>55.833333333333336</ele><time>2026-04-18T14:59:19.001Z</time></trkpt><trkpt lat="43.35666057593057" lon="10.65204694055625"><ele>55.66666666666667</ele><time>2026-04-18T14:59:20.001Z</time></trkpt><trkpt lat="43.35671694491792" lon="10.652089318733985"><ele>55.5</ele><time>2026-04-18T14:59:21.001Z</time></trkpt><trkpt lat="43.356806327930556" lon="10.652128153015726"><ele>55.33333333333333</ele><time>2026-04-18T14:59:22.002Z</time></trkpt><trkpt lat="43.356883198049985" lon="10.652179476967785"><ele>55.166666666666664</ele><time>2026-04-18T14:59:23.002Z</time></trkpt><trkpt lat="43.35696327279764" lon="10.652228498093011"><ele>55.0</ele><time>2026-04-18T14:59:24.002Z</time></trkpt><trkpt lat="43.3570319862201" lon="10.652246795107263"><ele>54.99999999999999</ele><time>2026-04-18T14:59:25.002Z</time></trkpt><trkpt lat="43.357110919599975" lon="10.652304626924247"><ele>55.0</ele><time>2026-04-18T14:59:26.002Z</time></trkpt><trkpt lat="43.357190087384595" lon="10.652382737323359"><ele>55.0</ele><time>2026-04-18T14:59:27.002Z</time></trkpt><trkpt lat="43.35726937447429" lon="10.652428581288412"><ele>55.0</ele><time>2026-04-18T14:59:28.002Z</time></trkpt><trkpt lat="43.35734371283474" lon="10.65247805608258"><ele>54.99999999999999</ele><time>2026-04-18T14:59:29.002Z</time></trkpt><trkpt lat="43.35740805919125" lon="10.652543125024284"><ele>55.0</ele><time>2026-04-18T14:59:30.002Z</time></trkpt><trkpt lat="43.3574864588144" lon="10.652583308590241"><ele>54.99999999999999</ele><time>2026-04-18T14:59:31.002Z</time></trkpt><trkpt lat="43.357555602798094" lon="10.652627339459647"><ele>55.0</ele><time>2026-04-18T14:59:32.002Z</time></trkpt><trkpt lat="43.35762715735891" lon="10.652670561924024"><ele>55.0</ele><time>2026-04-18T14:59:33.002Z</time></trkpt><trkpt lat="43.35770250424935" lon="10.65270797528704"><ele>55.0</ele><time>2026-04-18T14:59:34.002Z</time></trkpt><trkpt lat="43.35777749218307" lon="10.652739715106712"><ele>54.99999999999999</ele><time>2026-04-18T14:59:35.002Z</time></trkpt><trkpt lat="43.35784806693882" lon="10.652766610528914"><ele>55.0</ele><time>2026-04-18T14:59:36.002Z</time></trkpt><trkpt lat="43.35792356302605" lon="10.652794949106196"><ele>54.99999999999999</ele><time>2026-04-18T14:59:37.002Z</time></trkpt><trkpt lat="43.357995999073864" lon="10.652822694138193"><ele>55.0</ele><time>2026-04-18T14:59:38.002Z</time></trkpt><trkpt lat="43.358077652528245" lon="10.652846146057977"><ele>55.0</ele><time>2026-04-18T14:59:39.002Z</time></trkpt><trkpt lat="43.35815868116497" lon="10.65286578725679"><ele>55.0</ele><time>2026-04-18T14:59:40.002Z</time></trkpt><trkpt lat="43.358239487498906" lon="10.652893479905513"><ele>54.99999999999999</ele><time>2026-04-18T14:59:41.002Z</time></trkpt><trkpt lat="43.35832573963035" lon="10.652900803597877"><ele>55.0</ele><time>2026-04-18T14:59:42.002Z</time></trkpt><trkpt lat="43.35841416744347" lon="10.652914876727074"><ele>55.166666666666664</ele><time>2026-04-18T14:59:43.002Z</time></trkpt><trkpt lat="43.35850148212619" lon="10.652930666955626"><ele>55.33333333333333</ele><time>2026-04-18T14:59:43.999Z</time></trkpt><trkpt lat="43.35859107479513" lon="10.652942446641896"><ele>55.5</ele><time>2026-04-18T14:59:44.999Z</time></trkpt><trkpt lat="43.358680079656295" lon="10.652948161504451"><ele>55.66666666666667</ele><time>2026-04-18T14:59:45.999Z</time></trkpt><trkpt lat="43.358761439789774" lon="10.652959963920104"><ele>55.833333333333336</ele><time>2026-04-18T14:59:46.999Z</time></trkpt><trkpt lat="43.358839720224346" lon="10.65297375809002"><ele>56.0</ele><time>2026-04-18T14:59:47.999Z</time></trkpt><trkpt lat="43.358922449476175" lon="10.65299142644838"><ele>56.833333333333336</ele><time>2026-04-18T14:59:48.999Z</time></trkpt><trkpt lat="43.35900284921119" lon="10.653018131646148"><ele>57.66666666666667</ele><time>2026-04-18T14:59:49.999Z</time></trkpt><trkpt lat="43.359080184676515" lon="10.653054584111164"><ele>58.5</ele><time>2026-04-18T14:59:50.999Z</time></trkpt><trkpt lat="43.35916236145518" lon="10.653095854540538"><ele>59.33333333333333</ele><time>2026-04-18T14:59:51.999Z</time></trkpt><trkpt lat="43.35924198759069" lon="10.653143930014966"><ele>60.166666666666664</ele><time>2026-04-18T14:59:52.999Z</time></trkpt><trkpt lat="43.35932387339602" lon="10.653184875626584"><ele>61.0</ele><time>2026-04-18T14:59:53.999Z</time></trkpt><trkpt lat="43.359402938257226" lon="10.653223194836308"><ele>60.99999999999999</ele><time>2026-04-18T14:59:54.999Z</time></trkpt><trkpt lat="43.35947659273241" lon="10.653252516479654"><ele>61.0</ele><time>2026-04-18T14:59:55.999Z</time></trkpt><trkpt lat="43.359552829219055" lon="10.65327384947486"><ele>61.0</ele><time>2026-04-18T14:59:56.999Z</time></trkpt><trkpt lat="43.3596250418102" lon="10.653289983015835"><ele>61.0</ele><time>2026-04-18T14:59:57.999Z</time></trkpt><trkpt lat="43.35969745445851" lon="10.65330737230769"><ele>60.99999999999999</ele><time>2026-04-18T14:59:58.999Z</time></trkpt><trkpt lat="43.359774766277496" lon="10.653316718795065"><ele>61.0</ele><time>2026-04-18T14:59:59.999Z</time></trkpt><trkpt lat="43.35985264907131" lon="10.653327291542789"><ele>61.33333333333333</ele><time>2026-04-18T15:00:00.999Z</time></trkpt><trkpt lat="43.35993403192918" lon="10.653347644826965"><ele>61.666666666666664</ele><time>2026-04-18T15:00:01.999Z</time></trkpt><trkpt lat="43.36001405051551" lon="10.653357016615852"><ele>62.0</ele><time>2026-04-18T15:00:03Z</time></trkpt><trkpt lat="43.3600927423359" lon="10.65338280887444"><ele>62.33333333333333</ele><time>2026-04-18T15:00:04Z</time></trkpt><trkpt lat="43.36016641185734" lon="10.653389470474359"><ele>62.666666666666664</ele><time>2026-04-18T15:00:05Z</time></trkpt><trkpt lat="43.360234811925025" lon="10.653439091748846"><ele>63.0</ele><time>2026-04-18T15:00:06Z</time></trkpt><trkpt lat="43.360315276027585" lon="10.653461165396084"><ele>63.0</ele><time>2026-04-18T15:00:07Z</time></trkpt><trkpt lat="43.360387817656964" lon="10.653509044424897"><ele>63.0</ele><time>2026-04-18T15:00:08Z</time></trkpt><trkpt lat="43.36046624138771" lon="10.653547026140751"><ele>63.0</ele><time>2026-04-18T15:00:09Z</time></trkpt><trkpt lat="43.3605342754161" lon="10.653584491545232"><ele>63.0</ele><time>2026-04-18T15:00:10Z</time></trkpt><trkpt lat="43.360612075640944" lon="10.65361828175362"><ele>63.0</ele><time>2026-04-18T15:00:11Z</time></trkpt><trkpt lat="43.36069011644333" lon="10.653649263204818"><ele>63.0</ele><time>2026-04-18T15:00:12Z</time></trkpt><trkpt lat="43.360756644328035" lon="10.653713167098312"><ele>63.166666666666664</ele><time>2026-04-18T15:00:13Z</time></trkpt><trkpt lat="43.36083056417431" lon="10.653746073091401"><ele>63.33333333333333</ele><time>2026-04-18T15:00:14Z</time></trkpt><trkpt lat="43.360910012846915" lon="10.653744506767374"><ele>63.5</ele><time>2026-04-18T15:00:15Z</time></trkpt><trkpt lat="43.3609822600802" lon="10.653770428484565"><ele>63.666666666666664</ele><time>2026-04-18T15:00:16Z</time></trkpt><trkpt lat="43.36105137773116" lon="10.65380869942533"><ele>63.83333333333333</ele><time>2026-04-18T15:00:17Z</time></trkpt><trkpt lat="43.36110391355071" lon="10.653882486409373"><ele>64.0</ele><time>2026-04-18T15:00:18Z</time></trkpt><trkpt lat="43.36117409247902" lon="10.653923512110282"><ele>64.0</ele><time>2026-04-18T15:00:19Z</time></trkpt><trkpt lat="43.36123386199495" lon="10.653981399822813"><ele>63.99999999999999</ele><time>2026-04-18T15:00:20Z</time></trkpt><trkpt lat="43.36128337270698" lon="10.654052893598223"><ele>64.0</ele><time>2026-04-18T15:00:21Z</time></trkpt><trkpt lat="43.361345706076264" lon="10.65411386129371"><ele>64.0</ele><time>2026-04-18T15:00:22Z</time></trkpt><trkpt lat="43.36140066918092" lon="10.65417667512637"><ele>63.99999999999999</ele><time>2026-04-18T15:00:23Z</time></trkpt><trkpt lat="43.36145493496549" lon="10.65424982010782"><ele>64.0</ele><time>2026-04-18T15:00:24Z</time></trkpt><trkpt lat="43.3615105614465" lon="10.654328923121083"><ele>64.0</ele><time>2026-04-18T15:00:25Z</time></trkpt><trkpt lat="43.361560216711794" lon="10.654409485423521"><ele>64.66666666666666</ele><time>2026-04-18T15:00:26Z</time></trkpt><trkpt lat="43.36161453211478" lon="10.65449133714163"><ele>65.33333333333333</ele><time>2026-04-18T15:00:27Z</time></trkpt><trkpt lat="43.36168205983409" lon="10.654549490810304"><ele>66.0</ele><time>2026-04-18T15:00:28Z</time></trkpt><trkpt lat="43.36173866959858" lon="10.654619384392836"><ele>66.66666666666667</ele><time>2026-04-18T15:00:29Z</time></trkpt><trkpt lat="43.36180056925666" lon="10.654677845573937"><ele>67.33333333333334</ele><time>2026-04-18T15:00:30Z</time></trkpt><trkpt lat="43.361870580743926" lon="10.654721353171697"><ele>68.0</ele><time>2026-04-18T15:00:31Z</time></trkpt><trkpt lat="43.36194817656855" lon="10.654749552263658"><ele>68.0</ele><time>2026-04-18T15:00:32Z</time></trkpt><trkpt lat="43.36202421538275" lon="10.65475944999699"><ele>68.0</ele><time>2026-04-18T15:00:33Z</time></trkpt><trkpt lat="43.36209939955939" lon="10.654766769101407"><ele>68.0</ele><time>2026-04-18T15:00:34Z</time></trkpt><trkpt lat="43.36217709172195" lon="10.654801292351436"><ele>68.0</ele><time>2026-04-18T15:00:35Z</time></trkpt><trkpt lat="43.36224743417155" lon="10.65485311556908"><ele>68.0</ele><time>2026-04-18T15:00:36Z</time></trkpt><trkpt lat="43.362319197749855" lon="10.654902494655227"><ele>68.0</ele><time>2026-04-18T15:00:37.001Z</time></trkpt><trkpt lat="43.36239660987653" lon="10.654942944228884"><ele>70.16666666666667</ele><time>2026-04-18T15:00:38.001Z</time></trkpt><trkpt lat="43.362471894904715" lon="10.654953914627589"><ele>72.33333333333334</ele><time>2026-04-18T15:00:39.001Z</time></trkpt><trkpt lat="43.362552031078565" lon="10.65493773225522"><ele>74.5</ele><time>2026-04-18T15:00:40.001Z</time></trkpt><trkpt lat="43.362629558514776" lon="10.654907126640461"><ele>76.66666666666667</ele><time>2026-04-18T15:00:41.001Z</time></trkpt><trkpt lat="43.362708204854954" lon="10.654884224206635"><ele>78.83333333333333</ele><time>2026-04-18T15:00:42.001Z</time></trkpt><trkpt lat="43.362789388330306" lon="10.654873239823626"><ele>81.0</ele><time>2026-04-18T15:00:43.001Z</time></trkpt><trkpt lat="43.36286960713164" lon="10.65487655556567"><ele>81.0</ele><time>2026-04-18T15:00:44.001Z</time></trkpt><trkpt lat="43.36294681704562" lon="10.654905989467455"><ele>81.0</ele><time>2026-04-18T15:00:45.001Z</time></trkpt><trkpt lat="43.363004552609894" lon="10.655000768939033"><ele>81.0</ele><time>2026-04-18T15:00:46.001Z</time></trkpt><trkpt lat="43.3630596542284" lon="10.655075960596799"><ele>81.0</ele><time>2026-04-18T15:00:47.001Z</time></trkpt><trkpt lat="43.3631135417244" lon="10.655149800897535"><ele>81.0</ele><time>2026-04-18T15:00:48.001Z</time></trkpt><trkpt lat="43.363162875125454" lon="10.655206373797261"><ele>81.0</ele><time>2026-04-18T15:00:49.001Z</time></trkpt><trkpt lat="43.363229697197035" lon="10.655211759999041"><ele>80.85714285714286</ele><time>2026-04-18T15:00:50.001Z</time></trkpt><trkpt lat="43.36329326022634" lon="10.655199087854845"><ele>80.71428571428571</ele><time>2026-04-18T15:00:51.001Z</time></trkpt><trkpt lat="43.36335708330042" lon="10.655207887148789"><ele>80.57142857142857</ele><time>2026-04-18T15:00:52.001Z</time></trkpt><trkpt lat="43.36342108254379" lon="10.655210751799489"><ele>80.42857142857143</ele><time>2026-04-18T15:00:53.001Z</time></trkpt><trkpt lat="43.363486877486224" lon="10.655223558559175"><ele>80.28571428571429</ele><time>2026-04-18T15:00:54.001Z</time></trkpt><trkpt lat="43.36354701223175" lon="10.655255135893556"><ele>80.14285714285714</ele><time>2026-04-18T15:00:55.001Z</time></trkpt><trkpt lat="43.36361138801226" lon="10.655287523325237"><ele>80.0</ele><time>2026-04-18T15:00:56.001Z</time></trkpt><trkpt lat="43.36368247261372" lon="10.65528354863587"><ele>81.8</ele><time>2026-04-18T15:00:57.001Z</time></trkpt><trkpt lat="43.36378226032776" lon="10.655204372265658"><ele>83.6</ele><time>2026-04-18T15:00:59.001Z</time></trkpt><trkpt lat="43.363789939986724" lon="10.655116176936513"><ele>85.4</ele><time>2026-04-18T15:01:00.001Z</time></trkpt><trkpt lat="43.3637497422557" lon="10.654968577098094"><ele>87.2</ele><time>2026-04-18T15:01:02.001Z</time></trkpt><trkpt lat="43.363659909905124" lon="10.654845190064176"><ele>89.0</ele><time>2026-04-18T15:01:04.001Z</time></trkpt><trkpt lat="43.363624466646236" lon="10.654767114869856"><ele>89.0</ele><time>2026-04-18T15:01:05.001Z</time></trkpt><trkpt lat="43.36359254789657" lon="10.65468942702355"><ele>89.0</ele><time>2026-04-18T15:01:06.001Z</time></trkpt><trkpt lat="43.36355800364874" lon="10.654607432911368"><ele>89.0</ele><time>2026-04-18T15:01:07.001Z</time></trkpt><trkpt lat="43.36351494357736" lon="10.65453565193482"><ele>89.0</ele><time>2026-04-18T15:01:08.001Z</time></trkpt><trkpt lat="43.363445311228794" lon="10.654404871573206"><ele>89.0</ele><time>2026-04-18T15:01:10.001Z</time></trkpt><trkpt lat="43.36334205026239" lon="10.65432413204297"><ele>89.0</ele><time>2026-04-18T15:01:12.001Z</time></trkpt><trkpt lat="43.36323830584214" lon="10.654296701348107"><ele>91.0</ele><time>2026-04-18T15:01:14.001Z</time></trkpt><trkpt lat="43.36322479776179" lon="10.654175590136878"><ele>93.0</ele><time>2026-04-18T15:01:16.001Z</time></trkpt><trkpt lat="43.3633127484477" lon="10.654116681481138"><ele>95.0</ele><time>2026-04-18T15:01:18.002Z</time></trkpt><trkpt lat="43.36339726455677" lon="10.654163387413572"><ele>97.0</ele><time>2026-04-18T15:01:20.002Z</time></trkpt><trkpt lat="43.36348328692859" lon="10.654211835554317"><ele>99.0</ele><time>2026-04-18T15:01:22.002Z</time></trkpt><trkpt lat="43.36360505217791" lon="10.654252781098448"><ele>99.0</ele><time>2026-04-18T15:01:24.002Z</time></trkpt><trkpt lat="43.36367526183832" lon="10.654263750806715"><ele>99.0</ele><time>2026-04-18T15:01:25.002Z</time></trkpt><trkpt lat="43.36374083984087" lon="10.654289608336782"><ele>99.0</ele><time>2026-04-18T15:01:26.002Z</time></trkpt><trkpt lat="43.3638103136228" lon="10.65432212625166"><ele>99.0</ele><time>2026-04-18T15:01:27.002Z</time></trkpt><trkpt lat="43.363883522035316" lon="10.654345457221485"><ele>99.0</ele><time>2026-04-18T15:01:28.002Z</time></trkpt><trkpt lat="43.36394098465015" lon="10.654413206806355"><ele>99.0</ele><time>2026-04-18T15:01:29.002Z</time></trkpt><trkpt lat="43.36400172168681" lon="10.65446631473602"><ele>99.0</ele><time>2026-04-18T15:01:30.002Z</time></trkpt><trkpt lat="43.36406461026838" lon="10.654528821475278"><ele>99.42857142857143</ele><time>2026-04-18T15:01:31.002Z</time></trkpt><trkpt lat="43.36411910992015" lon="10.654596652576474"><ele>99.85714285714285</ele><time>2026-04-18T15:01:32.002Z</time></trkpt><trkpt lat="43.364169111305436" lon="10.654673944231213"><ele>100.28571428571428</ele><time>2026-04-18T15:01:33.002Z</time></trkpt><trkpt lat="43.364231003977395" lon="10.654730356494442"><ele>100.71428571428572</ele><time>2026-04-18T15:01:34.002Z</time></trkpt><trkpt lat="43.36428420908384" lon="10.65479287230179"><ele>101.14285714285714</ele><time>2026-04-18T15:01:35.002Z</time></trkpt><trkpt lat="43.364350315314276" lon="10.654835792873785"><ele>101.57142857142857</ele><time>2026-04-18T15:01:36.002Z</time></trkpt><trkpt lat="43.36441708814998" lon="10.65486872943815"><ele>102.0</ele><time>2026-04-18T15:01:37.002Z</time></trkpt><trkpt lat="43.364489831453476" lon="10.65489675713618"><ele>102.0</ele><time>2026-04-18T15:01:38.002Z</time></trkpt><trkpt lat="43.364562734991644" lon="10.654922170177134"><ele>102.0</ele><time>2026-04-18T15:01:39.002Z</time></trkpt><trkpt lat="43.3646338029975" lon="10.654939442054902"><ele>102.0</ele><time>2026-04-18T15:01:40.002Z</time></trkpt><trkpt lat="43.364701890870165" lon="10.654948976706942"><ele>102.0</ele><time>2026-04-18T15:01:41.002Z</time></trkpt><trkpt lat="43.36477170540483" lon="10.654980043580943"><ele>102.0</ele><time>2026-04-18T15:01:42.002Z</time></trkpt><trkpt lat="43.364838841962715" lon="10.655013455590032"><ele>102.0</ele><time>2026-04-18T15:01:43.002Z</time></trkpt><trkpt lat="43.364912319069106" lon="10.655013582524587"><ele>102.0</ele><time>2026-04-18T15:01:44.002Z</time></trkpt><trkpt lat="43.364980019079425" lon="10.655046528421838"><ele>103.57142857142857</ele><time>2026-04-18T15:01:45.002Z</time></trkpt><trkpt lat="43.365043949901946" lon="10.655063625440302"><ele>105.14285714285714</ele><time>2026-04-18T15:01:46.002Z</time></trkpt><trkpt lat="43.365109189137186" lon="10.65505922092456"><ele>106.71428571428572</ele><time>2026-04-18T15:01:47.002Z</time></trkpt><trkpt lat="43.365170665117816" lon="10.655030932106417"><ele>108.28571428571428</ele><time>2026-04-18T15:01:48.002Z</time></trkpt><trkpt lat="43.36523166311566" lon="10.654996304761095"><ele>109.85714285714285</ele><time>2026-04-18T15:01:49.002Z</time></trkpt><trkpt lat="43.365292042503654" lon="10.654964662627975"><ele>111.42857142857143</ele><time>2026-04-18T15:01:49.999Z</time></trkpt><trkpt lat="43.365356122246546" lon="10.654927027574"><ele>113.0</ele><time>2026-04-18T15:01:50.999Z</time></trkpt><trkpt lat="43.365422099458286" lon="10.654890799634927"><ele>113.0</ele><time>2026-04-18T15:01:51.999Z</time></trkpt><trkpt lat="43.36549009774935" lon="10.654861800483214"><ele>113.0</ele><time>2026-04-18T15:01:52.999Z</time></trkpt><trkpt lat="43.36556101515635" lon="10.65483447822253"><ele>113.0</ele><time>2026-04-18T15:01:53.999Z</time></trkpt><trkpt lat="43.36563251996976" lon="10.654811458746282"><ele>113.0</ele><time>2026-04-18T15:01:54.999Z</time></trkpt><trkpt lat="43.365706785703054" lon="10.65479071881664"><ele>113.0</ele><time>2026-04-18T15:01:55.999Z</time></trkpt><trkpt lat="43.36577956582488" lon="10.654813622176782"><ele>113.0</ele><time>2026-04-18T15:01:56.999Z</time></trkpt><trkpt lat="43.365846097954595" lon="10.65482519239347"><ele>113.0</ele><time>2026-04-18T15:01:57.999Z</time></trkpt><trkpt lat="43.36591998710681" lon="10.654842882696135"><ele>113.0</ele><time>2026-04-18T15:01:58.999Z</time></trkpt><trkpt lat="43.36603579767942" lon="10.654833646182366"><ele>113.00000000000001</ele><time>2026-04-18T15:02:00.999Z</time></trkpt><trkpt lat="43.366136679434774" lon="10.654777975755433"><ele>113.00000000000001</ele><time>2026-04-18T15:02:02.999Z</time></trkpt><trkpt lat="43.366165473750904" lon="10.654695719543946"><ele>113.0</ele><time>2026-04-18T15:02:03.999Z</time></trkpt><trkpt lat="43.366172837059594" lon="10.654600067873291"><ele>113.0</ele><time>2026-04-18T15:02:04.999Z</time></trkpt><trkpt lat="43.36617352670643" lon="10.654430042531196"><ele>115.80000000000001</ele><time>2026-04-18T15:02:06.999Z</time></trkpt><trkpt lat="43.36618368342687" lon="10.654258281800407"><ele>118.60000000000001</ele><time>2026-04-18T15:02:09Z</time></trkpt><trkpt lat="43.366244429856856" lon="10.654101771185388"><ele>121.39999999999999</ele><time>2026-04-18T15:02:11Z</time></trkpt><trkpt lat="43.366259328644965" lon="10.654010096596505"><ele>124.19999999999999</ele><time>2026-04-18T15:02:12Z</time></trkpt><trkpt lat="43.36632455213607" lon="10.65387282130564"><ele>127.0</ele><time>2026-04-18T15:02:14Z</time></trkpt><trkpt lat="43.36635559934391" lon="10.65376956097522"><ele>127.50000000000001</ele><time>2026-04-18T15:02:15Z</time></trkpt><trkpt lat="43.366370823198785" lon="10.653671834527037"><ele>128.0</ele><time>2026-04-18T15:02:16Z</time></trkpt><trkpt lat="43.36639896382006" lon="10.653578915347516"><ele>128.5</ele><time>2026-04-18T15:02:17Z</time></trkpt><trkpt lat="43.3664119696392" lon="10.653485575240007"><ele>129.0</ele><time>2026-04-18T15:02:18Z</time></trkpt><trkpt lat="43.36644223022289" lon="10.653395688812912"><ele>129.5</ele><time>2026-04-18T15:02:19Z</time></trkpt><trkpt lat="43.3665522259134" lon="10.653303274016013"><ele>130.0</ele><time>2026-04-18T15:02:21Z</time></trkpt><trkpt lat="43.366621711788696" lon="10.65329967454635"><ele>130.0</ele><time>2026-04-18T15:02:22Z</time></trkpt><trkpt lat="43.366752380274775" lon="10.653304075526519"><ele>130.0</ele><time>2026-04-18T15:02:24Z</time></trkpt><trkpt lat="43.36682806848081" lon="10.65329738789253"><ele>130.0</ele><time>2026-04-18T15:02:25Z</time></trkpt><trkpt lat="43.36689811872468" lon="10.653291198428633"><ele>130.0</ele><time>2026-04-18T15:02:26Z</time></trkpt><trkpt lat="43.366976059240784" lon="10.65328431178423"><ele>130.0</ele><time>2026-04-18T15:02:27Z</time></trkpt><trkpt lat="43.36705982855991" lon="10.653275475077544"><ele>130.0</ele><time>2026-04-18T15:02:28Z</time></trkpt><trkpt lat="43.367130364636175" lon="10.653240915577049"><ele>129.66666666666669</ele><time>2026-04-18T15:02:29Z</time></trkpt><trkpt lat="43.36720378114106" lon="10.653220968141403"><ele>129.33333333333334</ele><time>2026-04-18T15:02:30Z</time></trkpt><trkpt lat="43.367279752076904" lon="10.65319690288548"><ele>129.0</ele><time>2026-04-18T15:02:31Z</time></trkpt><trkpt lat="43.36735790059331" lon="10.653172922098944"><ele>128.66666666666666</ele><time>2026-04-18T15:02:32Z</time></trkpt><trkpt lat="43.36743469616175" lon="10.653156982849058"><ele>128.33333333333331</ele><time>2026-04-18T15:02:33Z</time></trkpt><trkpt lat="43.36751504691463" lon="10.653151176183082"><ele>128.0</ele><time>2026-04-18T15:02:34Z</time></trkpt><trkpt lat="43.36758257672265" lon="10.653101053230195"><ele>128.0</ele><time>2026-04-18T15:02:35Z</time></trkpt><trkpt lat="43.367658577907974" lon="10.653084407869272"><ele>127.99999999999999</ele><time>2026-04-18T15:02:36Z</time></trkpt><trkpt lat="43.3677287560884" lon="10.653045023213652"><ele>128.0</ele><time>2026-04-18T15:02:37Z</time></trkpt><trkpt lat="43.36780033974613" lon="10.653019856761453"><ele>128.0</ele><time>2026-04-18T15:02:38.001Z</time></trkpt><trkpt lat="43.367873437135856" lon="10.653011674818838"><ele>127.99999999999999</ele><time>2026-04-18T15:02:39.001Z</time></trkpt><trkpt lat="43.36794473356176" lon="10.65302579882714"><ele>128.0</ele><time>2026-04-18T15:02:40.001Z</time></trkpt><trkpt lat="43.368015692053895" lon="10.653057524965662"><ele>128.0</ele><time>2026-04-18T15:02:41.001Z</time></trkpt><trkpt lat="43.36807621631662" lon="10.653082238596083"><ele>128.66666666666666</ele><time>2026-04-18T15:02:42.001Z</time></trkpt><trkpt lat="43.36813921707519" lon="10.65307210066337"><ele>129.33333333333331</ele><time>2026-04-18T15:02:43.001Z</time></trkpt><trkpt lat="43.36822643633217" lon="10.65295696155354"><ele>130.0</ele><time>2026-04-18T15:02:45.001Z</time></trkpt><trkpt lat="43.36825320553456" lon="10.652869466633756"><ele>130.66666666666666</ele><time>2026-04-18T15:02:46.001Z</time></trkpt><trkpt lat="43.368276103966856" lon="10.652785356955373"><ele>131.33333333333334</ele><time>2026-04-18T15:02:47.001Z</time></trkpt><trkpt lat="43.368332660542386" lon="10.652729329646624"><ele>132.0</ele><time>2026-04-18T15:02:48.001Z</time></trkpt><trkpt lat="43.368376428266885" lon="10.652652691727686"><ele>134.14285714285714</ele><time>2026-04-18T15:02:49.001Z</time></trkpt><trkpt lat="43.36843475602928" lon="10.652595504077693"><ele>136.28571428571428</ele><time>2026-04-18T15:02:50.001Z</time></trkpt><trkpt lat="43.36849579376468" lon="10.652545845489298"><ele>138.42857142857144</ele><time>2026-04-18T15:02:51.001Z</time></trkpt><trkpt lat="43.36856207986843" lon="10.652504243368004"><ele>140.57142857142856</ele><time>2026-04-18T15:02:52.001Z</time></trkpt><trkpt lat="43.368625539504954" lon="10.65247692661571"><ele>142.71428571428572</ele><time>2026-04-18T15:02:53.001Z</time></trkpt><trkpt lat="43.36870759202361" lon="10.65248297935601"><ele>144.85714285714286</ele><time>2026-04-18T15:02:54.001Z</time></trkpt><trkpt lat="43.3687764707815" lon="10.65252289951015"><ele>147.0</ele><time>2026-04-18T15:02:55.001Z</time></trkpt><trkpt lat="43.368802153837365" lon="10.652630073705282"><ele>147.0</ele><time>2026-04-18T15:02:56.001Z</time></trkpt><trkpt lat="43.36884667533548" lon="10.652715555281217"><ele>147.0</ele><time>2026-04-18T15:02:57.001Z</time></trkpt><trkpt lat="43.36888821308162" lon="10.65279221596167"><ele>147.0</ele><time>2026-04-18T15:02:58.001Z</time></trkpt><trkpt lat="43.36894292115223" lon="10.652858524148085"><ele>147.0</ele><time>2026-04-18T15:02:59.001Z</time></trkpt><trkpt lat="43.368999791603684" lon="10.652920919229025"><ele>147.0</ele><time>2026-04-18T15:03:00.001Z</time></trkpt><trkpt lat="43.369070799865476" lon="10.652969999660735"><ele>147.0</ele><time>2026-04-18T15:03:01.001Z</time></trkpt><trkpt lat="43.369140542321844" lon="10.65299260206627"><ele>147.0</ele><time>2026-04-18T15:03:02.001Z</time></trkpt><trkpt lat="43.369210174469444" lon="10.653000009183828"><ele>145.5</ele><time>2026-04-18T15:03:03.001Z</time></trkpt><trkpt lat="43.369278389852326" lon="10.652994425007178"><ele>144.0</ele><time>2026-04-18T15:03:04.001Z</time></trkpt><trkpt lat="43.36935169883453" lon="10.652980598168803"><ele>142.5</ele><time>2026-04-18T15:03:05.001Z</time></trkpt><trkpt lat="43.36943072660609" lon="10.652954284554228"><ele>141.0</ele><time>2026-04-18T15:03:06.001Z</time></trkpt><trkpt lat="43.36950726140733" lon="10.652932849519182"><ele>139.5</ele><time>2026-04-18T15:03:07.001Z</time></trkpt><trkpt lat="43.369585595335785" lon="10.652910857800167"><ele>138.0</ele><time>2026-04-18T15:03:08.001Z</time></trkpt><trkpt lat="43.369666777875594" lon="10.652899004954348"><ele>138.16666666666666</ele><time>2026-04-18T15:03:09.001Z</time></trkpt><trkpt lat="43.36975225489636" lon="10.652866093139288"><ele>138.33333333333334</ele><time>2026-04-18T15:03:10.001Z</time></trkpt><trkpt lat="43.36982873094557" lon="10.652826750714727"><ele>138.5</ele><time>2026-04-18T15:03:11.001Z</time></trkpt><trkpt lat="43.369905190610815" lon="10.652779472677278"><ele>138.66666666666669</ele><time>2026-04-18T15:03:12.001Z</time></trkpt><trkpt lat="43.36997326381063" lon="10.652716274246105"><ele>138.83333333333334</ele><time>2026-04-18T15:03:13.001Z</time></trkpt><trkpt lat="43.3700428470005" lon="10.652654545824547"><ele>139.0</ele><time>2026-04-18T15:03:14.002Z</time></trkpt><trkpt lat="43.37011597753659" lon="10.652630480929"><ele>141.83333333333334</ele><time>2026-04-18T15:03:15.002Z</time></trkpt><trkpt lat="43.370190274621535" lon="10.652623585798857"><ele>144.66666666666669</ele><time>2026-04-18T15:03:16.002Z</time></trkpt><trkpt lat="43.37026662634208" lon="10.65263517264495"><ele>147.5</ele><time>2026-04-18T15:03:17.002Z</time></trkpt><trkpt lat="43.370343799605095" lon="10.652660487853606"><ele>150.33333333333334</ele><time>2026-04-18T15:03:18.002Z</time></trkpt><trkpt lat="43.37043336544008" lon="10.652687212000526"><ele>153.16666666666666</ele><time>2026-04-18T15:03:19.002Z</time></trkpt><trkpt lat="43.37052127046152" lon="10.652682070060202"><ele>156.0</ele><time>2026-04-18T15:03:20.002Z</time></trkpt><trkpt lat="43.370594848482625" lon="10.652678955871414"><ele>156.0</ele><time>2026-04-18T15:03:21.002Z</time></trkpt><trkpt lat="43.370660704423514" lon="10.65266834121424"><ele>156.0</ele><time>2026-04-18T15:03:22.002Z</time></trkpt><trkpt lat="43.37072503630877" lon="10.652643967186634"><ele>156.0</ele><time>2026-04-18T15:03:23.002Z</time></trkpt><trkpt lat="43.370785278162415" lon="10.652597142889993"><ele>156.0</ele><time>2026-04-18T15:03:24.002Z</time></trkpt><trkpt lat="43.370887039098044" lon="10.652489169577956"><ele>156.0</ele><time>2026-04-18T15:03:26.002Z</time></trkpt><trkpt lat="43.37095105464814" lon="10.65236963447876"><ele>156.0</ele><time>2026-04-18T15:03:28.002Z</time></trkpt><trkpt lat="43.370954850342706" lon="10.652255786022618"><ele>156.0</ele><time>2026-04-18T15:03:30.002Z</time></trkpt><trkpt lat="43.3708708872581" lon="10.652185624794324"><ele>156.0</ele><time>2026-04-18T15:03:32.002Z</time></trkpt><trkpt lat="43.37077680338913" lon="10.65224733302157"><ele>156.0</ele><time>2026-04-18T15:03:34.002Z</time></trkpt><trkpt lat="43.37066999578262" lon="10.65227516119688"><ele>156.0</ele><time>2026-04-18T15:03:36.002Z</time></trkpt><trkpt lat="43.37060572514962" lon="10.652244474610786"><ele>156.0</ele><time>2026-04-18T15:03:37.002Z</time></trkpt><trkpt lat="43.37055162242095" lon="10.652182465987941"><ele>156.83333333333334</ele><time>2026-04-18T15:03:38.002Z</time></trkpt><trkpt lat="43.370514798049314" lon="10.65210776429945"><ele>157.66666666666666</ele><time>2026-04-18T15:03:39.002Z</time></trkpt><trkpt lat="43.370467497192585" lon="10.652027944347347"><ele>158.5</ele><time>2026-04-18T15:03:40.002Z</time></trkpt><trkpt lat="43.370409930785186" lon="10.651975340211104"><ele>159.33333333333331</ele><time>2026-04-18T15:03:41.002Z</time></trkpt><trkpt lat="43.37034092037435" lon="10.65195204573694"><ele>160.16666666666666</ele><time>2026-04-18T15:03:42.002Z</time></trkpt><trkpt lat="43.37027255892257" lon="10.65195907400145"><ele>161.0</ele><time>2026-04-18T15:03:43.002Z</time></trkpt><trkpt lat="43.370157692896136" lon="10.652027137760951"><ele>161.0</ele><time>2026-04-18T15:03:45.002Z</time></trkpt><trkpt lat="43.37009787480528" lon="10.652056882541592"><ele>161.0</ele><time>2026-04-18T15:03:46.002Z</time></trkpt><trkpt lat="43.37003279729096" lon="10.652085674348582"><ele>161.0</ele><time>2026-04-18T15:03:47.002Z</time></trkpt><trkpt lat="43.36996595600027" lon="10.652105209981409"><ele>161.0</ele><time>2026-04-18T15:03:48.002Z</time></trkpt><trkpt lat="43.36990078405701" lon="10.652104443533817"><ele>161.0</ele><time>2026-04-18T15:03:49.002Z</time></trkpt><trkpt lat="43.36982373005983" lon="10.652119929252823"><ele>161.0</ele><time>2026-04-18T15:03:50.002Z</time></trkpt><trkpt lat="43.369748982707854" lon="10.652113118241369"><ele>161.0</ele><time>2026-04-18T15:03:51.002Z</time></trkpt><trkpt lat="43.36967646766591" lon="10.652084396497289"><ele>160.42857142857142</ele><time>2026-04-18T15:03:52.003Z</time></trkpt><trkpt lat="43.36961261779991" lon="10.652040403529991"><ele>159.85714285714286</ele><time>2026-04-18T15:03:53.003Z</time></trkpt><trkpt lat="43.36955688636629" lon="10.65197837019117"><ele>159.28571428571428</ele><time>2026-04-18T15:03:54.003Z</time></trkpt><trkpt lat="43.36951026587098" lon="10.651910322751311"><ele>158.71428571428572</ele><time>2026-04-18T15:03:55.003Z</time></trkpt><trkpt lat="43.36945914704853" lon="10.651844549777834"><ele>158.14285714285714</ele><time>2026-04-18T15:03:55.999Z</time></trkpt><trkpt lat="43.36940938585606" lon="10.651784838907673"><ele>157.57142857142856</ele><time>2026-04-18T15:03:56.999Z</time></trkpt><trkpt lat="43.3693728590996" lon="10.651705177691053"><ele>157.0</ele><time>2026-04-18T15:03:57.999Z</time></trkpt><trkpt lat="43.36935381247868" lon="10.651523486603029"><ele>158.28571428571428</ele><time>2026-04-18T15:03:59.999Z</time></trkpt><trkpt lat="43.36938542924908" lon="10.651444917653945"><ele>159.57142857142856</ele><time>2026-04-18T15:04:00.999Z</time></trkpt><trkpt lat="43.36939986331197" lon="10.651347275836365"><ele>160.85714285714283</ele><time>2026-04-18T15:04:01.999Z</time></trkpt><trkpt lat="43.36943116901237" lon="10.651258364565054"><ele>162.14285714285714</ele><time>2026-04-18T15:04:02.999Z</time></trkpt><trkpt lat="43.36946807749227" lon="10.651177904640786"><ele>163.42857142857144</ele><time>2026-04-18T15:04:03.999Z</time></trkpt><trkpt lat="43.36950738468758" lon="10.651079331019679"><ele>164.7142857142857</ele><time>2026-04-18T15:04:04.999Z</time></trkpt><trkpt lat="43.369541623109896" lon="10.650992752228047"><ele>166.0</ele><time>2026-04-18T15:04:05.999Z</time></trkpt><trkpt lat="43.369606742342775" lon="10.650943311601777"><ele>166.66666666666669</ele><time>2026-04-18T15:04:06.999Z</time></trkpt><trkpt lat="43.36966819005285" lon="10.650883403935675"><ele>167.33333333333334</ele><time>2026-04-18T15:04:07.999Z</time></trkpt><trkpt lat="43.36974092732382" lon="10.650836437601793"><ele>168.0</ele><time>2026-04-18T15:04:08.999Z</time></trkpt><trkpt lat="43.36981951709367" lon="10.650842815849881"><ele>168.66666666666666</ele><time>2026-04-18T15:04:09.999Z</time></trkpt><trkpt lat="43.369902338487364" lon="10.650799607629589"><ele>169.33333333333331</ele><time>2026-04-18T15:04:10.999Z</time></trkpt><trkpt lat="43.36997425510314" lon="10.650815013032773"><ele>170.0</ele><time>2026-04-18T15:04:12Z</time></trkpt><trkpt lat="43.37007098809022" lon="10.650820862124224"><ele>171.33333333333331</ele><time>2026-04-18T15:04:13Z</time></trkpt><trkpt lat="43.37014966643689" lon="10.650840592970011"><ele>172.66666666666666</ele><time>2026-04-18T15:04:14Z</time></trkpt><trkpt lat="43.37023406346066" lon="10.650851650300888"><ele>174.0</ele><time>2026-04-18T15:04:15Z</time></trkpt><trkpt lat="43.370324010496965" lon="10.650876006710273"><ele>175.33333333333334</ele><time>2026-04-18T15:04:16Z</time></trkpt><trkpt lat="43.370395896478364" lon="10.650909749305697"><ele>176.66666666666669</ele><time>2026-04-18T15:04:17Z</time></trkpt><trkpt lat="43.37046936324703" lon="10.650925624312691"><ele>178.0</ele><time>2026-04-18T15:04:18Z</time></trkpt><trkpt lat="43.3705631755807" lon="10.650945718427355"><ele>178.0</ele><time>2026-04-18T15:04:20Z</time></trkpt><trkpt lat="43.370642608698915" lon="10.650899474081694"><ele>178.0</ele><time>2026-04-18T15:04:22Z</time></trkpt><trkpt lat="43.370731916454275" lon="10.650787017819225"><ele>178.0</ele><time>2026-04-18T15:04:24Z</time></trkpt><trkpt lat="43.37077805344366" lon="10.650723336363379"><ele>178.0</ele><time>2026-04-18T15:04:25Z</time></trkpt><trkpt lat="43.370828387294885" lon="10.650650868940389"><ele>178.0</ele><time>2026-04-18T15:04:26Z</time></trkpt><trkpt lat="43.37087744176426" lon="10.65057851124253"><ele>178.0</ele><time>2026-04-18T15:04:27Z</time></trkpt><trkpt lat="43.370927713249145" lon="10.650504580134482"><ele>178.0</ele><time>2026-04-18T15:04:28Z</time></trkpt><trkpt lat="43.370980459516545" lon="10.65042876222429"><ele>178.0</ele><time>2026-04-18T15:04:29Z</time></trkpt><trkpt lat="43.371034936389734" lon="10.65035028281319"><ele>178.0</ele><time>2026-04-18T15:04:30Z</time></trkpt><trkpt lat="43.371092130737836" lon="10.650267859027593"><ele>178.0</ele><time>2026-04-18T15:04:31Z</time></trkpt><trkpt lat="43.371150532947595" lon="10.650183694574302"><ele>178.0</ele><time>2026-04-18T15:04:32Z</time></trkpt><trkpt lat="43.371208791117326" lon="10.65009919425277"><ele>178.0</ele><time>2026-04-18T15:04:33Z</time></trkpt><trkpt lat="43.37126689610742" lon="10.650013585540659"><ele>177.33333333333334</ele><time>2026-04-18T15:04:34Z</time></trkpt><trkpt lat="43.37131279921055" lon="10.649914328153962"><ele>176.66666666666669</ele><time>2026-04-18T15:04:35Z</time></trkpt><trkpt lat="43.371373380528" lon="10.649839017548313"><ele>176.0</ele><time>2026-04-18T15:04:36Z</time></trkpt><trkpt lat="43.37143729957149" lon="10.649775624547772"><ele>175.33333333333334</ele><time>2026-04-18T15:04:37Z</time></trkpt><trkpt lat="43.37147228866893" lon="10.649676198425148"><ele>174.66666666666666</ele><time>2026-04-18T15:04:38.001Z</time></trkpt><trkpt lat="43.371523355722154" lon="10.649598384787312"><ele>174.0</ele><time>2026-04-18T15:04:39.001Z</time></trkpt><trkpt lat="43.371547135178524" lon="10.649497382629628"><ele>174.5</ele><time>2026-04-18T15:04:40.001Z</time></trkpt><trkpt lat="43.371561131333486" lon="10.649398959681273"><ele>175.0</ele><time>2026-04-18T15:04:41.001Z</time></trkpt><trkpt lat="43.371570000345585" lon="10.649300585246637"><ele>175.5</ele><time>2026-04-18T15:04:42.001Z</time></trkpt><trkpt lat="43.37156538186457" lon="10.649142034243292"><ele>176.0</ele><time>2026-04-18T15:04:44.001Z</time></trkpt><trkpt lat="43.371597797374136" lon="10.649051859732499"><ele>176.5</ele><time>2026-04-18T15:04:46.001Z</time></trkpt><trkpt lat="43.37168574716864" lon="10.64907759505512"><ele>177.0</ele><time>2026-04-18T15:04:47.001Z</time></trkpt><trkpt lat="43.37179992638845" lon="10.649063847999333"><ele>177.0</ele><time>2026-04-18T15:04:49.001Z</time></trkpt><trkpt lat="43.37192909392639" lon="10.649059117263619"><ele>177.0</ele><time>2026-04-18T15:04:51.001Z</time></trkpt><trkpt lat="43.37199566410185" lon="10.649056052476102"><ele>177.0</ele><time>2026-04-18T15:04:52.001Z</time></trkpt><trkpt lat="43.37206475782405" lon="10.649052871498244"><ele>177.0</ele><time>2026-04-18T15:04:53.001Z</time></trkpt><trkpt lat="43.372133524190346" lon="10.649049705589402"><ele>177.0</ele><time>2026-04-18T15:04:54.001Z</time></trkpt><trkpt lat="43.37220438665793" lon="10.649046443186027"><ele>177.0</ele><time>2026-04-18T15:04:55.001Z</time></trkpt><trkpt lat="43.3722762291039" lon="10.649043135666107"><ele>177.16666666666666</ele><time>2026-04-18T15:04:56.001Z</time></trkpt><trkpt lat="43.37234896774733" lon="10.649021872007799"><ele>177.33333333333334</ele><time>2026-04-18T15:04:57.001Z</time></trkpt><trkpt lat="43.372423307146086" lon="10.649018543889454"><ele>177.5</ele><time>2026-04-18T15:04:58.001Z</time></trkpt><trkpt lat="43.3724968905175" lon="10.649017759729954"><ele>177.66666666666669</ele><time>2026-04-18T15:04:59.001Z</time></trkpt><trkpt lat="43.37257347013203" lon="10.64903486025"><ele>177.83333333333334</ele><time>2026-04-18T15:05:00.001Z</time></trkpt><trkpt lat="43.372649245745755" lon="10.649007667863925"><ele>178.0</ele><time>2026-04-18T15:05:01.001Z</time></trkpt><trkpt lat="43.372725049540996" lon="10.649008968668317"><ele>178.0</ele><time>2026-04-18T15:05:02.001Z</time></trkpt><trkpt lat="43.37280241876016" lon="10.6489984838278"><ele>178.0</ele><time>2026-04-18T15:05:03.001Z</time></trkpt><trkpt lat="43.37288042337853" lon="10.648994124268203"><ele>178.0</ele><time>2026-04-18T15:05:04.001Z</time></trkpt><trkpt lat="43.37295649901161" lon="10.648990923502726"><ele>178.0</ele><time>2026-04-18T15:05:05.001Z</time></trkpt><trkpt lat="43.373032045973865" lon="10.648994021224402"><ele>178.0</ele><time>2026-04-18T15:05:06.001Z</time></trkpt><trkpt lat="43.373107659701716" lon="10.648990712906084"><ele>178.0</ele><time>2026-04-18T15:05:07.001Z</time></trkpt><trkpt lat="43.37318116429904" lon="10.64898978928039"><ele>178.33333333333334</ele><time>2026-04-18T15:05:08.001Z</time></trkpt><trkpt lat="43.37325660421579" lon="10.648991871306158"><ele>178.66666666666669</ele><time>2026-04-18T15:05:09.001Z</time></trkpt><trkpt lat="43.373330362004744" lon="10.648978801983437"><ele>179.0</ele><time>2026-04-18T15:05:10.001Z</time></trkpt><trkpt lat="43.37340618105849" lon="10.648975616248949"><ele>179.33333333333334</ele><time>2026-04-18T15:05:11.002Z</time></trkpt><trkpt lat="43.37348219547252" lon="10.648966950376787"><ele>179.66666666666666</ele><time>2026-04-18T15:05:12.002Z</time></trkpt><trkpt lat="43.37356393751948" lon="10.648960907604385"><ele>180.0</ele><time>2026-04-18T15:05:13.002Z</time></trkpt><trkpt lat="43.37364962057598" lon="10.648956699515342"><ele>180.0</ele><time>2026-04-18T15:05:14.002Z</time></trkpt><trkpt lat="43.37373780321368" lon="10.64895327948392"><ele>180.0</ele><time>2026-04-18T15:05:15.002Z</time></trkpt><trkpt lat="43.373824580440036" lon="10.64894872263302"><ele>180.0</ele><time>2026-04-18T15:05:16.002Z</time></trkpt><trkpt lat="43.37390847598389" lon="10.648941595122347"><ele>180.0</ele><time>2026-04-18T15:05:17.002Z</time></trkpt><trkpt lat="43.37398817418222" lon="10.64892292911631"><ele>180.0</ele><time>2026-04-18T15:05:18.002Z</time></trkpt><trkpt lat="43.37405750748841" lon="10.648891675441293"><ele>180.0</ele><time>2026-04-18T15:05:19.002Z</time></trkpt><trkpt lat="43.374119782099875" lon="10.64883558725223"><ele>180.28571428571428</ele><time>2026-04-18T15:05:20.002Z</time></trkpt><trkpt lat="43.374184588235956" lon="10.648786237030828"><ele>180.57142857142858</ele><time>2026-04-18T15:05:21.002Z</time></trkpt><trkpt lat="43.374243620735314" lon="10.648729929387422"><ele>180.85714285714286</ele><time>2026-04-18T15:05:22.002Z</time></trkpt><trkpt lat="43.374303227444265" lon="10.648668515042491"><ele>181.14285714285714</ele><time>2026-04-18T15:05:23.002Z</time></trkpt><trkpt lat="43.37436398317914" lon="10.64860702046013"><ele>181.42857142857144</ele><time>2026-04-18T15:05:24.002Z</time></trkpt><trkpt lat="43.37442938287132" lon="10.64855262954664"><ele>181.71428571428572</ele><time>2026-04-18T15:05:25.002Z</time></trkpt><trkpt lat="43.3744962393605" lon="10.648502083546846"><ele>182.0</ele><time>2026-04-18T15:05:26.002Z</time></trkpt><trkpt lat="43.374559525897006" lon="10.648441247529464"><ele>182.0</ele><time>2026-04-18T15:05:27.002Z</time></trkpt><trkpt lat="43.37462445640586" lon="10.648382076331181"><ele>182.0</ele><time>2026-04-18T15:05:28.002Z</time></trkpt><trkpt lat="43.37468866801146" lon="10.648323318827286"><ele>182.0</ele><time>2026-04-18T15:05:29.002Z</time></trkpt><trkpt lat="43.37475137386616" lon="10.64825916632039"><ele>182.0</ele><time>2026-04-18T15:05:30.002Z</time></trkpt><trkpt lat="43.374815332225026" lon="10.64820291727032"><ele>182.0</ele><time>2026-04-18T15:05:31.002Z</time></trkpt><trkpt lat="43.37487891177434" lon="10.648148020089158"><ele>182.0</ele><time>2026-04-18T15:05:32.002Z</time></trkpt><trkpt lat="43.374942059296885" lon="10.648090773257207"><ele>181.28571428571428</ele><time>2026-04-18T15:05:33.002Z</time></trkpt><trkpt lat="43.3750018078208" lon="10.648032874232971"><ele>180.57142857142856</ele><time>2026-04-18T15:05:34.002Z</time></trkpt><trkpt lat="43.37506161702427" lon="10.647972258248942"><ele>179.85714285714286</ele><time>2026-04-18T15:05:35.002Z</time></trkpt><trkpt lat="43.37511260299945" lon="10.647917257989908"><ele>179.14285714285714</ele><time>2026-04-18T15:05:36.002Z</time></trkpt><trkpt lat="43.37517744055606" lon="10.64786375607475"><ele>178.42857142857142</ele><time>2026-04-18T15:05:37.002Z</time></trkpt><trkpt lat="43.37523990342434" lon="10.647827397243166"><ele>177.71428571428572</ele><time>2026-04-18T15:05:38.002Z</time></trkpt><trkpt lat="43.375310666345925" lon="10.647784552218264"><ele>177.0</ele><time>2026-04-18T15:05:39.002Z</time></trkpt><trkpt lat="43.37538265665478" lon="10.647802600979265"><ele>177.0</ele><time>2026-04-18T15:05:40.002Z</time></trkpt><trkpt lat="43.375507583761085" lon="10.647801188368321"><ele>177.0</ele><time>2026-04-18T15:05:42.002Z</time></trkpt><trkpt lat="43.37557952920289" lon="10.647804340577945"><ele>177.0</ele><time>2026-04-18T15:05:43.002Z</time></trkpt><trkpt lat="43.37566257507865" lon="10.647810728745142"><ele>177.0</ele><time>2026-04-18T15:05:44.002Z</time></trkpt><trkpt lat="43.375741480757874" lon="10.647819901481258"><ele>177.0</ele><time>2026-04-18T15:05:45.002Z</time></trkpt><trkpt lat="43.375820140052625" lon="10.647829841977028"><ele>177.0</ele><time>2026-04-18T15:05:46.003Z</time></trkpt><trkpt lat="43.37588590664988" lon="10.647836461928472"><ele>176.83333333333334</ele><time>2026-04-18T15:05:47.003Z</time></trkpt><trkpt lat="43.375957630351536" lon="10.647843681547426"><ele>176.66666666666666</ele><time>2026-04-18T15:05:48.003Z</time></trkpt><trkpt lat="43.3760328576461" lon="10.647851253759507"><ele>176.5</ele><time>2026-04-18T15:05:49.003Z</time></trkpt><trkpt lat="43.376103570821776" lon="10.647834143300752"><ele>176.33333333333331</ele><time>2026-04-18T15:05:50.003Z</time></trkpt><trkpt lat="43.37616819852071" lon="10.647845319093994"><ele>176.16666666666666</ele><time>2026-04-18T15:05:51.003Z</time></trkpt><trkpt lat="43.376280290020354" lon="10.647781468196087"><ele>176.0</ele><time>2026-04-18T15:05:53.003Z</time></trkpt><trkpt lat="43.37633298394891" lon="10.647725535063472"><ele>178.57142857142858</ele><time>2026-04-18T15:05:54.003Z</time></trkpt><trkpt lat="43.37638960817272" lon="10.647668139011422"><ele>181.14285714285714</ele><time>2026-04-18T15:05:55.003Z</time></trkpt><trkpt lat="43.37645039769888" lon="10.647628488599864"><ele>183.71428571428572</ele><time>2026-04-18T15:05:56.003Z</time></trkpt><trkpt lat="43.376531615718584" lon="10.647622461827678"><ele>186.28571428571428</ele><time>2026-04-18T15:05:57.003Z</time></trkpt><trkpt lat="43.37660065744309" lon="10.647662876493385"><ele>188.85714285714286</ele><time>2026-04-18T15:05:58.003Z</time></trkpt><trkpt lat="43.37667344808546" lon="10.647678691984504"><ele>191.42857142857142</ele><time>2026-04-18T15:05:59.003Z</time></trkpt><trkpt lat="43.376739730374425" lon="10.647693093422452"><ele>194.0</ele><time>2026-04-18T15:06:00.003Z</time></trkpt><trkpt lat="43.37682451578145" lon="10.647684963500215"><ele>194.00000000000003</ele><time>2026-04-18T15:06:01.003Z</time></trkpt><trkpt lat="43.37690288258786" lon="10.647688080537282"><ele>194.0</ele><time>2026-04-18T15:06:02Z</time></trkpt><trkpt lat="43.376987514786734" lon="10.647688487952655"><ele>194.0</ele><time>2026-04-18T15:06:03Z</time></trkpt><trkpt lat="43.37706671865963" lon="10.647673880966604"><ele>194.0</ele><time>2026-04-18T15:06:04Z</time></trkpt><trkpt lat="43.37715595960022" lon="10.647649931035234"><ele>194.00000000000003</ele><time>2026-04-18T15:06:05Z</time></trkpt><trkpt lat="43.377240145326866" lon="10.647620122891366"><ele>194.0</ele><time>2026-04-18T15:06:06Z</time></trkpt><trkpt lat="43.37731421842074" lon="10.647579580370286"><ele>193.33333333333334</ele><time>2026-04-18T15:06:07Z</time></trkpt><trkpt lat="43.37739344828431" lon="10.647555494468193"><ele>192.66666666666669</ele><time>2026-04-18T15:06:08Z</time></trkpt><trkpt lat="43.37747274480191" lon="10.647539727194697"><ele>192.0</ele><time>2026-04-18T15:06:09Z</time></trkpt><trkpt lat="43.377553422937694" lon="10.647529699762458"><ele>191.33333333333334</ele><time>2026-04-18T15:06:10Z</time></trkpt><trkpt lat="43.377632936023" lon="10.647512103187196"><ele>190.66666666666669</ele><time>2026-04-18T15:06:11Z</time></trkpt><trkpt lat="43.37771709497797" lon="10.647509747921177"><ele>190.0</ele><time>2026-04-18T15:06:12Z</time></trkpt><trkpt lat="43.37778431908439" lon="10.647467935935843"><ele>190.0</ele><time>2026-04-18T15:06:13Z</time></trkpt><trkpt lat="43.37785777676113" lon="10.647413253783544"><ele>190.0</ele><time>2026-04-18T15:06:14Z</time></trkpt><trkpt lat="43.37791086032737" lon="10.647332379643274"><ele>190.0</ele><time>2026-04-18T15:06:15Z</time></trkpt><trkpt lat="43.37797991976124" lon="10.647282807407047"><ele>190.0</ele><time>2026-04-18T15:06:16Z</time></trkpt><trkpt lat="43.378040475835384" lon="10.647209973824022"><ele>190.0</ele><time>2026-04-18T15:06:17Z</time></trkpt><trkpt lat="43.378094965067305" lon="10.647122667752914"><ele>190.0</ele><time>2026-04-18T15:06:18Z</time></trkpt><trkpt lat="43.378161327100585" lon="10.647051011576641"><ele>188.66666666666669</ele><time>2026-04-18T15:06:19Z</time></trkpt><trkpt lat="43.378242764438205" lon="10.647010529922067"><ele>187.33333333333334</ele><time>2026-04-18T15:06:20Z</time></trkpt><trkpt lat="43.37832256407913" lon="10.646952241856036"><ele>186.0</ele><time>2026-04-18T15:06:21Z</time></trkpt><trkpt lat="43.3783948477613" lon="10.64687924463131"><ele>184.66666666666666</ele><time>2026-04-18T15:06:22Z</time></trkpt><trkpt lat="43.37846181369707" lon="10.646791327386651"><ele>183.33333333333331</ele><time>2026-04-18T15:06:23Z</time></trkpt><trkpt lat="43.378523420544546" lon="10.646711584181471"><ele>182.0</ele><time>2026-04-18T15:06:24Z</time></trkpt><trkpt lat="43.37859158319757" lon="10.646648041954016"><ele>182.8</ele><time>2026-04-18T15:06:25Z</time></trkpt><trkpt lat="43.37866828081028" lon="10.646601413062728"><ele>183.6</ele><time>2026-04-18T15:06:26Z</time></trkpt><trkpt lat="43.37875333520817" lon="10.646554112788943"><ele>184.4</ele><time>2026-04-18T15:06:27Z</time></trkpt><trkpt lat="43.37883696628246" lon="10.646505531222006"><ele>185.20000000000002</ele><time>2026-04-18T15:06:28Z</time></trkpt><trkpt lat="43.3789265416917" lon="10.646456603635574"><ele>186.0</ele><time>2026-04-18T15:06:29Z</time></trkpt><trkpt lat="43.37901236730842" lon="10.646420503411756"><ele>186.0</ele><time>2026-04-18T15:06:30Z</time></trkpt><trkpt lat="43.37909998661348" lon="10.646386991399906"><ele>186.0</ele><time>2026-04-18T15:06:31Z</time></trkpt><trkpt lat="43.379184230081776" lon="10.646352078961373"><ele>186.0</ele><time>2026-04-18T15:06:32Z</time></trkpt><trkpt lat="43.37926760644169" lon="10.646310797995776"><ele>186.0</ele><time>2026-04-18T15:06:33Z</time></trkpt><trkpt lat="43.37935397939335" lon="10.646308486652426"><ele>186.0</ele><time>2026-04-18T15:06:34Z</time></trkpt><trkpt lat="43.37943665833644" lon="10.646307226658156"><ele>186.0</ele><time>2026-04-18T15:06:35Z</time></trkpt><trkpt lat="43.37950024489881" lon="10.646282494786924"><ele>186.0</ele><time>2026-04-18T15:06:36.001Z</time></trkpt><trkpt lat="43.37958650657605" lon="10.646271407460247"><ele>186.0</ele><time>2026-04-18T15:06:38.001Z</time></trkpt><trkpt lat="43.379660085937395" lon="10.646251434164371"><ele>186.0</ele><time>2026-04-18T15:06:39.001Z</time></trkpt><trkpt lat="43.37973082567261" lon="10.646212165029775"><ele>186.0</ele><time>2026-04-18T15:06:40.001Z</time></trkpt><trkpt lat="43.37979612604794" lon="10.646174105564208"><ele>186.0</ele><time>2026-04-18T15:06:41.001Z</time></trkpt><trkpt lat="43.37988756769027" lon="10.646108571432285"><ele>186.0</ele><time>2026-04-18T15:06:42.001Z</time></trkpt><trkpt lat="43.37998749497803" lon="10.646060069248765"><ele>188.5</ele><time>2026-04-18T15:06:43.001Z</time></trkpt><trkpt lat="43.380093802195994" lon="10.646042557860929"><ele>191.0</ele><time>2026-04-18T15:06:44.001Z</time></trkpt><trkpt lat="43.38018124921145" lon="10.646032202553716"><ele>193.5</ele><time>2026-04-18T15:06:45.001Z</time></trkpt><trkpt lat="43.38025951149721" lon="10.645998671178083"><ele>196.0</ele><time>2026-04-18T15:06:46.001Z</time></trkpt><trkpt lat="43.380342740160884" lon="10.645998179460944"><ele>198.5</ele><time>2026-04-18T15:06:47.001Z</time></trkpt><trkpt lat="43.38041500612382" lon="10.645992937608696"><ele>201.0</ele><time>2026-04-18T15:06:48.001Z</time></trkpt><trkpt lat="43.380515235385104" lon="10.64602060820141"><ele>200.0</ele><time>2026-04-18T15:06:49.001Z</time></trkpt><trkpt lat="43.38057972806824" lon="10.646024894666336"><ele>199.0</ele><time>2026-04-18T15:06:50.001Z</time></trkpt><trkpt lat="43.38064616462912" lon="10.646009177274768"><ele>198.0</ele><time>2026-04-18T15:06:52.001Z</time></trkpt><trkpt lat="43.38071706154044" lon="10.645986407681859"><ele>197.0</ele><time>2026-04-18T15:07:43.003Z</time></trkpt><trkpt lat="43.38078049024982" lon="10.645912718364697"><ele>196.0</ele><time>2026-04-18T15:07:46.003Z</time></trkpt><trkpt lat="43.38084156534277" lon="10.64585424892355"><ele>195.0</ele><time>2026-04-18T15:07:48.003Z</time></trkpt><trkpt lat="43.38089794019897" lon="10.645769250823152"><ele>194.0</ele><time>2026-04-18T15:07:50.003Z</time></trkpt><trkpt lat="43.38094823086976" lon="10.645642284281468"><ele>194.0</ele><time>2026-04-18T15:07:52.003Z</time></trkpt><trkpt lat="43.38100558692038" lon="10.645499896567015"><ele>194.0</ele><time>2026-04-18T15:07:54.003Z</time></trkpt><trkpt lat="43.38105037495658" lon="10.645360114130604"><ele>194.0</ele><time>2026-04-18T15:07:56.003Z</time></trkpt><trkpt lat="43.38113734398497" lon="10.645272237539363"><ele>194.0</ele><time>2026-04-18T15:07:58.003Z</time></trkpt><trkpt lat="43.38122870036739" lon="10.645367370217954"><ele>194.00000000000003</ele><time>2026-04-18T15:08:00.003Z</time></trkpt><trkpt lat="43.381332699131164" lon="10.64546241295981"><ele>194.0</ele><time>2026-04-18T15:08:02.003Z</time></trkpt><trkpt lat="43.38139369666394" lon="10.645512142296855"><ele>194.0</ele><time>2026-04-18T15:08:03.003Z</time></trkpt><trkpt lat="43.3814567286348" lon="10.645552807156575"><ele>194.0</ele><time>2026-04-18T15:08:04.003Z</time></trkpt><trkpt lat="43.38151374001731" lon="10.645597888098191"><ele>194.00000000000003</ele><time>2026-04-18T15:08:05.003Z</time></trkpt><trkpt lat="43.38158647757809" lon="10.645611083669058"><ele>194.0</ele><time>2026-04-18T15:08:06.003Z</time></trkpt><trkpt lat="43.38170343953684" lon="10.645569225164014"><ele>193.79999999999998</ele><time>2026-04-18T15:08:08Z</time></trkpt><trkpt lat="43.381754916948644" lon="10.64550300765933"><ele>193.6</ele><time>2026-04-18T15:08:09Z</time></trkpt><trkpt lat="43.381833193027624" lon="10.645366369640962"><ele>193.4</ele><time>2026-04-18T15:08:11Z</time></trkpt><trkpt lat="43.38190247328" lon="10.645240696882842"><ele>193.2</ele><time>2026-04-18T15:08:13Z</time></trkpt><trkpt lat="43.381981541432985" lon="10.645098072535793"><ele>193.0</ele><time>2026-04-18T15:08:15Z</time></trkpt><trkpt lat="43.38203244010804" lon="10.645037125639892"><ele>195.60000000000002</ele><time>2026-04-18T15:08:16Z</time></trkpt><trkpt lat="43.38212856461935" lon="10.644944968941012"><ele>198.20000000000002</ele><time>2026-04-18T15:08:18Z</time></trkpt><trkpt lat="43.38221445074826" lon="10.644908732438276"><ele>200.8</ele><time>2026-04-18T15:08:20Z</time></trkpt><trkpt lat="43.3822815232559" lon="10.644899759680543"><ele>203.4</ele><time>2026-04-18T15:08:21Z</time></trkpt><trkpt lat="43.3824096118114" lon="10.644863615763981"><ele>206.0</ele><time>2026-04-18T15:08:23Z</time></trkpt><trkpt lat="43.38247789511469" lon="10.644832692929283"><ele>206.28571428571428</ele><time>2026-04-18T15:08:24Z</time></trkpt><trkpt lat="43.38254841676306" lon="10.64478623061003"><ele>206.57142857142856</ele><time>2026-04-18T15:08:25Z</time></trkpt><trkpt lat="43.38261032281472" lon="10.644704574626273"><ele>206.85714285714283</ele><time>2026-04-18T15:08:26Z</time></trkpt><trkpt lat="43.38266937703339" lon="10.644648824750195"><ele>207.14285714285714</ele><time>2026-04-18T15:08:27Z</time></trkpt><trkpt lat="43.3827174130038" lon="10.644579058147277"><ele>207.42857142857144</ele><time>2026-04-18T15:08:28Z</time></trkpt><trkpt lat="43.38275734346313" lon="10.644499117379977"><ele>207.7142857142857</ele><time>2026-04-18T15:08:29Z</time></trkpt><trkpt lat="43.38278012319772" lon="10.644415589680657"><ele>208.0</ele><time>2026-04-18T15:08:30Z</time></trkpt><trkpt lat="43.38279786589408" lon="10.64433030156063"><ele>209.4</ele><time>2026-04-18T15:08:31Z</time></trkpt><trkpt lat="43.38282856694253" lon="10.644163639799137"><ele>210.8</ele><time>2026-04-18T15:08:33.001Z</time></trkpt><trkpt lat="43.382851595167686" lon="10.644079175317545"><ele>212.2</ele><time>2026-04-18T15:08:34.001Z</time></trkpt><trkpt lat="43.382905232172675" lon="10.643929933315649"><ele>213.6</ele><time>2026-04-18T15:08:36.001Z</time></trkpt><trkpt lat="43.38297091059222" lon="10.643781488006779"><ele>215.0</ele><time>2026-04-18T15:08:38.001Z</time></trkpt><trkpt lat="43.38303422450863" lon="10.64378002995134"><ele>215.0</ele><time>2026-04-18T15:08:39.001Z</time></trkpt><trkpt lat="43.38314672981763" lon="10.64380442898014"><ele>215.0</ele><time>2026-04-18T15:08:41.001Z</time></trkpt><trkpt lat="43.38327922336663" lon="10.643781415878072"><ele>215.0</ele><time>2026-04-18T15:08:43.001Z</time></trkpt><trkpt lat="43.383337993919184" lon="10.643741368261026"><ele>215.0</ele><time>2026-04-18T15:08:44.001Z</time></trkpt><trkpt lat="43.38337246677073" lon="10.643646121238785"><ele>215.0</ele><time>2026-04-18T15:08:45.001Z</time></trkpt><trkpt lat="43.383422304655866" lon="10.643493265090619"><ele>217.8</ele><time>2026-04-18T15:08:47.001Z</time></trkpt><trkpt lat="43.38348044565561" lon="10.643367988776129"><ele>220.6</ele><time>2026-04-18T15:08:49.001Z</time></trkpt><trkpt lat="43.38357180527193" lon="10.643314783528165"><ele>223.39999999999998</ele><time>2026-04-18T15:08:51.001Z</time></trkpt><trkpt lat="43.383634430098475" lon="10.643220502895732"><ele>226.2</ele><time>2026-04-18T15:08:53.001Z</time></trkpt><trkpt lat="43.383691106514505" lon="10.643093810495325"><ele>229.0</ele><time>2026-04-18T15:08:55.001Z</time></trkpt><trkpt lat="43.38372258294095" lon="10.642941279467124"><ele>230.33333333333331</ele><time>2026-04-18T15:08:57.001Z</time></trkpt><trkpt lat="43.38377480126889" lon="10.642797067049031"><ele>231.66666666666666</ele><time>2026-04-18T15:08:59.001Z</time></trkpt><trkpt lat="43.3838260732608" lon="10.642731036786056"><ele>233.0</ele><time>2026-04-18T15:09:00.001Z</time></trkpt><trkpt lat="43.38389691989102" lon="10.642683313296637"><ele>234.33333333333331</ele><time>2026-04-18T15:09:01.001Z</time></trkpt><trkpt lat="43.383964310246405" lon="10.642659639460694"><ele>235.66666666666666</ele><time>2026-04-18T15:09:02.001Z</time></trkpt><trkpt lat="43.38403423487457" lon="10.642638483681822"><ele>237.0</ele><time>2026-04-18T15:09:03.001Z</time></trkpt><trkpt lat="43.38410217715406" lon="10.642597358216891"><ele>237.0</ele><time>2026-04-18T15:09:04.001Z</time></trkpt><trkpt lat="43.384163429407955" lon="10.642542372866984"><ele>237.0</ele><time>2026-04-18T15:09:05.001Z</time></trkpt><trkpt lat="43.3842186732562" lon="10.642486447587666"><ele>237.0</ele><time>2026-04-18T15:09:06.001Z</time></trkpt><trkpt lat="43.38430449771462" lon="10.642345972981671"><ele>237.0</ele><time>2026-04-18T15:09:08.001Z</time></trkpt><trkpt lat="43.38435058509334" lon="10.642277827250112"><ele>237.0</ele><time>2026-04-18T15:09:09.001Z</time></trkpt><trkpt lat="43.384468804819974" lon="10.642199444940106"><ele>236.99999999999997</ele><time>2026-04-18T15:09:11.002Z</time></trkpt><trkpt lat="43.384531627950565" lon="10.642155759967858"><ele>237.0</ele><time>2026-04-18T15:09:12.002Z</time></trkpt><trkpt lat="43.38459826788668" lon="10.642107269740439"><ele>236.99999999999997</ele><time>2026-04-18T15:09:13.002Z</time></trkpt><trkpt lat="43.384661523464715" lon="10.64205592757143"><ele>236.99999999999997</ele><time>2026-04-18T15:09:14.002Z</time></trkpt><trkpt lat="43.38472221363901" lon="10.641997292013114"><ele>237.0</ele><time>2026-04-18T15:09:15.002Z</time></trkpt><trkpt lat="43.38478397796679" lon="10.641936220025485"><ele>236.99999999999997</ele><time>2026-04-18T15:09:16.002Z</time></trkpt><trkpt lat="43.384846065699215" lon="10.641874828131149"><ele>236.99999999999997</ele><time>2026-04-18T15:09:17.002Z</time></trkpt><trkpt lat="43.38490672186972" lon="10.641814851895855"><ele>238.33333333333334</ele><time>2026-04-18T15:09:18.002Z</time></trkpt><trkpt lat="43.38496952560195" lon="10.641753813799134"><ele>239.66666666666669</ele><time>2026-04-18T15:09:19.002Z</time></trkpt><trkpt lat="43.385031207495494" lon="10.641693943663908"><ele>241.0</ele><time>2026-04-18T15:09:20.002Z</time></trkpt><trkpt lat="43.38508987236774" lon="10.641638657514525"><ele>242.33333333333334</ele><time>2026-04-18T15:09:21.002Z</time></trkpt><trkpt lat="43.385152525657915" lon="10.641579612791258"><ele>243.66666666666669</ele><time>2026-04-18T15:09:22.002Z</time></trkpt><trkpt lat="43.38520994165249" lon="10.64152610947373"><ele>245.0</ele><time>2026-04-18T15:09:23.002Z</time></trkpt><trkpt lat="43.385316420496665" lon="10.641425300480224"><ele>245.0</ele><time>2026-04-18T15:09:25.002Z</time></trkpt><trkpt lat="43.38539948338598" lon="10.641362458730995"><ele>245.0</ele><time>2026-04-18T15:09:27.002Z</time></trkpt><trkpt lat="43.38550995257196" lon="10.641388105710709"><ele>245.0</ele><time>2026-04-18T15:09:30.002Z</time></trkpt><trkpt lat="43.385593060999504" lon="10.64149183253872"><ele>245.0</ele><time>2026-04-18T15:09:32.002Z</time></trkpt><trkpt lat="43.385645914016024" lon="10.64155469332784"><ele>245.0</ele><time>2026-04-18T15:09:33.002Z</time></trkpt><trkpt lat="43.38568740563577" lon="10.641624539339093"><ele>246.16666666666669</ele><time>2026-04-18T15:09:34.002Z</time></trkpt><trkpt lat="43.38573761834169" lon="10.641785604366522"><ele>247.33333333333334</ele><time>2026-04-18T15:09:36.002Z</time></trkpt><trkpt lat="43.38576408025288" lon="10.641874700698466"><ele>248.5</ele><time>2026-04-18T15:09:37.002Z</time></trkpt><trkpt lat="43.38578172905939" lon="10.641974055821613"><ele>249.66666666666669</ele><time>2026-04-18T15:09:38.002Z</time></trkpt><trkpt lat="43.385776569130584" lon="10.642070370872604"><ele>250.83333333333334</ele><time>2026-04-18T15:09:39.002Z</time></trkpt><trkpt lat="43.38576494611126" lon="10.642178568819647"><ele>252.0</ele><time>2026-04-18T15:09:40.002Z</time></trkpt><trkpt lat="43.38575496505113" lon="10.64229251601001"><ele>252.0</ele><time>2026-04-18T15:09:41.002Z</time></trkpt><trkpt lat="43.38574645216169" lon="10.642414064251573"><ele>252.0</ele><time>2026-04-18T15:09:42.002Z</time></trkpt><trkpt lat="43.385726013463334" lon="10.642540007567233"><ele>252.0</ele><time>2026-04-18T15:09:43.002Z</time></trkpt><trkpt lat="43.38571573266463" lon="10.642647438565286"><ele>252.0</ele><time>2026-04-18T15:09:44.002Z</time></trkpt><trkpt lat="43.385709769072285" lon="10.642737219753544"><ele>252.0</ele><time>2026-04-18T15:09:45.003Z</time></trkpt><trkpt lat="43.38572041095283" lon="10.642832904267484"><ele>252.0</ele><time>2026-04-18T15:09:46.003Z</time></trkpt><trkpt lat="43.38573752803383" lon="10.642927729822691"><ele>252.0</ele><time>2026-04-18T15:09:47.003Z</time></trkpt><trkpt lat="43.38576399343168" lon="10.643019786986217"><ele>252.0</ele><time>2026-04-18T15:09:48.003Z</time></trkpt><trkpt lat="43.3857943464387" lon="10.643104722585658"><ele>252.0</ele><time>2026-04-18T15:09:49.003Z</time></trkpt><trkpt lat="43.385811827572354" lon="10.643197115652027"><ele>252.0</ele><time>2026-04-18T15:09:50.003Z</time></trkpt><trkpt lat="43.38584376208853" lon="10.643278213365477"><ele>252.0</ele><time>2026-04-18T15:09:51.003Z</time></trkpt><trkpt lat="43.38591358368782" lon="10.64338946379546"><ele>252.0</ele><time>2026-04-18T15:09:53.003Z</time></trkpt><trkpt lat="43.3860449126325" lon="10.64339444883309"><ele>252.0</ele><time>2026-04-18T15:09:55.003Z</time></trkpt><trkpt lat="43.38617232098696" lon="10.64341623750333"><ele>252.0</ele><time>2026-04-18T15:09:57.003Z</time></trkpt><trkpt lat="43.386242385885204" lon="10.643427420241482"><ele>252.0</ele><time>2026-04-18T15:09:58.003Z</time></trkpt><trkpt lat="43.38631797502697" lon="10.643438664624702"><ele>252.0</ele><time>2026-04-18T15:09:59.003Z</time></trkpt><trkpt lat="43.38639635587336" lon="10.643427392563781"><ele>252.0</ele><time>2026-04-18T15:10:00.003Z</time></trkpt><trkpt lat="43.38647367908823" lon="10.643449263667929"><ele>252.0</ele><time>2026-04-18T15:10:01.003Z</time></trkpt><trkpt lat="43.3865537573545" lon="10.64345414004666"><ele>253.33333333333334</ele><time>2026-04-18T15:10:02.003Z</time></trkpt><trkpt lat="43.38663516034367" lon="10.643474106022765"><ele>254.66666666666669</ele><time>2026-04-18T15:10:03.003Z</time></trkpt><trkpt lat="43.38671810399325" lon="10.643484868103744"><ele>256.0</ele><time>2026-04-18T15:10:04.003Z</time></trkpt><trkpt lat="43.386793739802876" lon="10.643496875685651"><ele>257.33333333333337</ele><time>2026-04-18T15:10:05.003Z</time></trkpt><trkpt lat="43.38688131651615" lon="10.643511831335948"><ele>258.6666666666667</ele><time>2026-04-18T15:10:06.003Z</time></trkpt><trkpt lat="43.38697339416948" lon="10.643525509987441"><ele>260.0</ele><time>2026-04-18T15:10:07.003Z</time></trkpt><trkpt lat="43.387063856509556" lon="10.643543896387143"><ele>260.0</ele><time>2026-04-18T15:10:08.003Z</time></trkpt><trkpt lat="43.38715575766504" lon="10.643555276259715"><ele>260.0</ele><time>2026-04-18T15:10:09.003Z</time></trkpt><trkpt lat="43.38724552763034" lon="10.64356846401814"><ele>260.0</ele><time>2026-04-18T15:10:10.003Z</time></trkpt><trkpt lat="43.38732947759192" lon="10.643610943276062"><ele>260.0</ele><time>2026-04-18T15:10:11.003Z</time></trkpt><trkpt lat="43.38740683073492" lon="10.643638976559325"><ele>260.0</ele><time>2026-04-18T15:10:12.003Z</time></trkpt><trkpt lat="43.38748534765928" lon="10.643649226712318"><ele>260.0</ele><time>2026-04-18T15:10:13.003Z</time></trkpt><trkpt lat="43.38754380498821" lon="10.643682211058984"><ele>260.1666666666667</ele><time>2026-04-18T15:10:14Z</time></trkpt><trkpt lat="43.38763311790878" lon="10.643668140271352"><ele>260.33333333333337</ele><time>2026-04-18T15:10:16Z</time></trkpt><trkpt lat="43.38766444470704" lon="10.643532110734142"><ele>260.5</ele><time>2026-04-18T15:10:18Z</time></trkpt><trkpt lat="43.38766784949503" lon="10.64342827230565"><ele>260.6666666666667</ele><time>2026-04-18T15:10:20Z</time></trkpt><trkpt lat="43.38767280315415" lon="10.643319985823178"><ele>260.8333333333333</ele><time>2026-04-18T15:10:22Z</time></trkpt><trkpt lat="43.38768479725461" lon="10.643189784812318"><ele>261.0</ele><time>2026-04-18T15:10:24Z</time></trkpt><trkpt lat="43.387692121876825" lon="10.643054654732733"><ele>262.6</ele><time>2026-04-18T15:10:26Z</time></trkpt><trkpt lat="43.387698805057525" lon="10.642922210345285"><ele>264.20000000000005</ele><time>2026-04-18T15:10:28Z</time></trkpt><trkpt lat="43.38771188178386" lon="10.6427875137015"><ele>265.79999999999995</ele><time>2026-04-18T15:10:30Z</time></trkpt><trkpt lat="43.38771677784426" lon="10.642629893160207"><ele>267.4</ele><time>2026-04-18T15:10:32Z</time></trkpt><trkpt lat="43.38772668745683" lon="10.642458267808834"><ele>269.0</ele><time>2026-04-18T15:10:34Z</time></trkpt><trkpt lat="43.38772985374604" lon="10.642361472436532"><ele>270.2</ele><time>2026-04-18T15:10:35Z</time></trkpt><trkpt lat="43.387734470232836" lon="10.642257265904393"><ele>271.4</ele><time>2026-04-18T15:10:36Z</time></trkpt><trkpt lat="43.38774393222946" lon="10.64215985213538"><ele>272.6</ele><time>2026-04-18T15:10:37Z</time></trkpt><trkpt lat="43.387776988196514" lon="10.642010978583935"><ele>273.8</ele><time>2026-04-18T15:10:39Z</time></trkpt><trkpt lat="43.38787733695996" lon="10.641921644582853"><ele>275.0</ele><time>2026-04-18T15:10:41Z</time></trkpt><trkpt lat="43.38797198598623" lon="10.641918536899995"><ele>277.4</ele><time>2026-04-18T15:10:43Z</time></trkpt><trkpt lat="43.38805849021451" lon="10.641944911508714"><ele>279.8</ele><time>2026-04-18T15:10:45Z</time></trkpt><trkpt lat="43.388150385442486" lon="10.641972212881566"><ele>282.2</ele><time>2026-04-18T15:10:47.001Z</time></trkpt><trkpt lat="43.38825851695381" lon="10.641977747782054"><ele>284.6</ele><time>2026-04-18T15:10:49.001Z</time></trkpt><trkpt lat="43.38835995083664" lon="10.642026764856537"><ele>287.0</ele><time>2026-04-18T15:10:51.001Z</time></trkpt><trkpt lat="43.38847445177289" lon="10.642037931390298"><ele>287.0</ele><time>2026-04-18T15:10:53.001Z</time></trkpt><trkpt lat="43.38858365045417" lon="10.642074910376406"><ele>287.0</ele><time>2026-04-18T15:10:55.001Z</time></trkpt><trkpt lat="43.388691272540555" lon="10.642097281805142"><ele>287.0</ele><time>2026-04-18T15:10:57.001Z</time></trkpt><trkpt lat="43.388796107895665" lon="10.642098207188404"><ele>287.0</ele><time>2026-04-18T15:10:59.001Z</time></trkpt><trkpt lat="43.38889759322457" lon="10.642065969759939"><ele>287.0</ele><time>2026-04-18T15:11:01.001Z</time></trkpt><trkpt lat="43.38900712573973" lon="10.642031730022302"><ele>288.4</ele><time>2026-04-18T15:11:03.001Z</time></trkpt><trkpt lat="43.38913071317131" lon="10.641986466386399"><ele>289.79999999999995</ele><time>2026-04-18T15:11:05.001Z</time></trkpt><trkpt lat="43.38919079104851" lon="10.641948065002124"><ele>291.2</ele><time>2026-04-18T15:11:06.001Z</time></trkpt><trkpt lat="43.38926586144725" lon="10.641961418735233"><ele>292.59999999999997</ele><time>2026-04-18T15:11:07.001Z</time></trkpt><trkpt lat="43.38939963157658" lon="10.641920553328275"><ele>294.0</ele><time>2026-04-18T15:11:09.001Z</time></trkpt><trkpt lat="43.38947900230285" lon="10.641915220213065"><ele>296.5</ele><time>2026-04-18T15:11:10.001Z</time></trkpt><trkpt lat="43.38956688463228" lon="10.641908472567474"><ele>299.0</ele><time>2026-04-18T15:11:11.001Z</time></trkpt><trkpt lat="43.389662009765594" lon="10.641907004211467"><ele>301.5</ele><time>2026-04-18T15:11:12.001Z</time></trkpt><trkpt lat="43.389737790209935" lon="10.64187516918959"><ele>304.0</ele><time>2026-04-18T15:11:13.001Z</time></trkpt><trkpt lat="43.38980126561763" lon="10.641892728692937"><ele>306.5</ele><time>2026-04-18T15:11:14.001Z</time></trkpt><trkpt lat="43.38989682836093" lon="10.641903450902625"><ele>309.0</ele><time>2026-04-18T15:11:16.001Z</time></trkpt><trkpt lat="43.39000391558959" lon="10.641926580888612"><ele>309.8333333333333</ele><time>2026-04-18T15:11:17.001Z</time></trkpt><trkpt lat="43.39007564679026" lon="10.641927843524607"><ele>310.6666666666667</ele><time>2026-04-18T15:11:18.001Z</time></trkpt><trkpt lat="43.390161702049916" lon="10.64197107993715"><ele>311.5</ele><time>2026-04-18T15:11:19.001Z</time></trkpt><trkpt lat="43.39024558073005" lon="10.641978540072811"><ele>312.33333333333337</ele><time>2026-04-18T15:11:20.002Z</time></trkpt><trkpt lat="43.39032539260561" lon="10.641981008795383"><ele>313.1666666666667</ele><time>2026-04-18T15:11:21.002Z</time></trkpt><trkpt lat="43.390415066438145" lon="10.642003547986661"><ele>314.0</ele><time>2026-04-18T15:11:22.002Z</time></trkpt><trkpt lat="43.39050509994462" lon="10.642033705576962"><ele>312.59999999999997</ele><time>2026-04-18T15:11:23.002Z</time></trkpt><trkpt lat="43.39060579499641" lon="10.64204111081776"><ele>311.2</ele><time>2026-04-18T15:11:24.002Z</time></trkpt><trkpt lat="43.390696396749476" lon="10.642068219577459"><ele>309.79999999999995</ele><time>2026-04-18T15:11:25.002Z</time></trkpt><trkpt lat="43.390775715241915" lon="10.64208016831048"><ele>308.4</ele><time>2026-04-18T15:11:26.002Z</time></trkpt><trkpt lat="43.39086980708672" lon="10.642066895627643"><ele>307.0</ele><time>2026-04-18T15:11:27.002Z</time></trkpt><trkpt lat="43.39093327644986" lon="10.64197762341565"><ele>309.0</ele><time>2026-04-18T15:11:28.002Z</time></trkpt><trkpt lat="43.39098708850231" lon="10.641885221576914"><ele>311.0</ele><time>2026-04-18T15:11:29.002Z</time></trkpt><trkpt lat="43.39104315147695" lon="10.6418148895107"><ele>313.0</ele><time>2026-04-18T15:11:30.002Z</time></trkpt><trkpt lat="43.3911212626752" lon="10.641778823488707"><ele>315.0</ele><time>2026-04-18T15:11:31.002Z</time></trkpt><trkpt lat="43.391218965111904" lon="10.641780327215333"><ele>317.0</ele><time>2026-04-18T15:11:32.002Z</time></trkpt><trkpt lat="43.391320897931124" lon="10.641902967937632"><ele>317.5</ele><time>2026-04-18T15:11:34.002Z</time></trkpt><trkpt lat="43.391387364762345" lon="10.641922454796056"><ele>318.0</ele><time>2026-04-18T15:11:35.002Z</time></trkpt><trkpt lat="43.391453898019535" lon="10.64195672437191"><ele>318.5</ele><time>2026-04-18T15:11:36.002Z</time></trkpt><trkpt lat="43.39152878958181" lon="10.6419665155363"><ele>319.0</ele><time>2026-04-18T15:11:37.002Z</time></trkpt><trkpt lat="43.391609429416874" lon="10.641951787925654"><ele>319.5</ele><time>2026-04-18T15:11:38.002Z</time></trkpt><trkpt lat="43.39168761625027" lon="10.641946758183593"><ele>320.0</ele><time>2026-04-18T15:11:39.002Z</time></trkpt><trkpt lat="43.39176773760217" lon="10.641951378320774"><ele>320.0</ele><time>2026-04-18T15:11:40.002Z</time></trkpt><trkpt lat="43.39184715449944" lon="10.641952012733867"><ele>320.0</ele><time>2026-04-18T15:11:41.002Z</time></trkpt><trkpt lat="43.3919265781891" lon="10.641947664949289"><ele>320.0</ele><time>2026-04-18T15:11:42.002Z</time></trkpt><trkpt lat="43.39201823585796" lon="10.641952193215278"><ele>320.0</ele><time>2026-04-18T15:11:43.002Z</time></trkpt><trkpt lat="43.39209081872612" lon="10.641952306377792"><ele>320.0</ele><time>2026-04-18T15:11:44.002Z</time></trkpt><trkpt lat="43.39216836496867" lon="10.641943592969135"><ele>320.0</ele><time>2026-04-18T15:11:45.002Z</time></trkpt><trkpt lat="43.3922340303617" lon="10.641942526149641"><ele>321.6666666666667</ele><time>2026-04-18T15:11:46.002Z</time></trkpt><trkpt lat="43.392301029953565" lon="10.641954536872875"><ele>323.33333333333337</ele><time>2026-04-18T15:11:47.002Z</time></trkpt><trkpt lat="43.392419228052894" lon="10.641917326589315"><ele>325.0</ele><time>2026-04-18T15:11:49.002Z</time></trkpt><trkpt lat="43.39251809429356" lon="10.641868474836809"><ele>326.6666666666667</ele><time>2026-04-18T15:11:51.002Z</time></trkpt><trkpt lat="43.39257267607481" lon="10.641815392406361"><ele>328.3333333333333</ele><time>2026-04-18T15:11:53.002Z</time></trkpt><trkpt lat="43.39262139872276" lon="10.64171710613674"><ele>330.0</ele><time>2026-04-18T15:11:55.003Z</time></trkpt><trkpt lat="43.39266139321131" lon="10.641585391944366"><ele>330.0</ele><time>2026-04-18T15:11:57.003Z</time></trkpt><trkpt lat="43.39269195669034" lon="10.64144601428882"><ele>330.0</ele><time>2026-04-18T15:11:59.003Z</time></trkpt><trkpt lat="43.39272627478921" lon="10.641320573336293"><ele>330.0</ele><time>2026-04-18T15:12:01.003Z</time></trkpt><trkpt lat="43.39275409455547" lon="10.641186440794723"><ele>330.0</ele><time>2026-04-18T15:12:03.003Z</time></trkpt><trkpt lat="43.39279306291733" lon="10.64104032143687"><ele>330.0</ele><time>2026-04-18T15:12:05.003Z</time></trkpt><trkpt lat="43.39282646482699" lon="10.640888347860278"><ele>331.5</ele><time>2026-04-18T15:12:07.003Z</time></trkpt><trkpt lat="43.39286460847582" lon="10.6407335689382"><ele>333.0</ele><time>2026-04-18T15:12:09.003Z</time></trkpt><trkpt lat="43.39290979772435" lon="10.640580388620494"><ele>334.5</ele><time>2026-04-18T15:12:11.003Z</time></trkpt><trkpt lat="43.392941624469614" lon="10.640503652540756"><ele>336.0</ele><time>2026-04-18T15:12:12.003Z</time></trkpt><trkpt lat="43.39298341866535" lon="10.640428376672562"><ele>337.5</ele><time>2026-04-18T15:12:13.003Z</time></trkpt><trkpt lat="43.39303705742859" lon="10.640369282005551"><ele>339.0</ele><time>2026-04-18T15:12:14.003Z</time></trkpt><trkpt lat="43.393156195175905" lon="10.640373566584568"><ele>341.2</ele><time>2026-04-18T15:12:16.003Z</time></trkpt><trkpt lat="43.393253964782716" lon="10.640439249592541"><ele>343.4</ele><time>2026-04-18T15:12:18.003Z</time></trkpt><trkpt lat="43.393343513394974" lon="10.640567144429662"><ele>345.6</ele><time>2026-04-18T15:12:20Z</time></trkpt><trkpt lat="43.39339682497472" lon="10.640640531730572"><ele>347.8</ele><time>2026-04-18T15:12:21Z</time></trkpt><trkpt lat="43.39344216910382" lon="10.640703594386412"><ele>350.0</ele><time>2026-04-18T15:12:22Z</time></trkpt><trkpt lat="43.39349272022138" lon="10.640775445869101"><ele>350.0</ele><time>2026-04-18T15:12:23Z</time></trkpt><trkpt lat="43.393582927046914" lon="10.640903662455868"><ele>350.0</ele><time>2026-04-18T15:12:25Z</time></trkpt><trkpt lat="43.393631341662896" lon="10.640972477153905"><ele>350.0</ele><time>2026-04-18T15:12:26Z</time></trkpt><trkpt lat="43.39368612346655" lon="10.641053195528773"><ele>350.0</ele><time>2026-04-18T15:12:27Z</time></trkpt><trkpt lat="43.39373960942883" lon="10.641122517417731"><ele>350.0</ele><time>2026-04-18T15:12:28Z</time></trkpt><trkpt lat="43.39378590562677" lon="10.641192142699312"><ele>350.0</ele><time>2026-04-18T15:12:29Z</time></trkpt><trkpt lat="43.39387077763739" lon="10.641304778741402"><ele>350.8</ele><time>2026-04-18T15:12:31Z</time></trkpt><trkpt lat="43.39394020411789" lon="10.64131573764813"><ele>351.6</ele><time>2026-04-18T15:12:32Z</time></trkpt><trkpt lat="43.39400867416937" lon="10.641304680776258"><ele>352.4</ele><time>2026-04-18T15:12:33Z</time></trkpt><trkpt lat="43.394130402394524" lon="10.641286092769516"><ele>353.2</ele><time>2026-04-18T15:12:35Z</time></trkpt><trkpt lat="43.3942603806122" lon="10.641261463227742"><ele>354.0</ele><time>2026-04-18T15:12:37Z</time></trkpt><trkpt lat="43.394329015287994" lon="10.641246286599596"><ele>354.0</ele><time>2026-04-18T15:12:38Z</time></trkpt><trkpt lat="43.39440364947055" lon="10.641229719935712"><ele>354.0</ele><time>2026-04-18T15:12:39Z</time></trkpt><trkpt lat="43.3944825880527" lon="10.641211823558049"><ele>354.0</ele><time>2026-04-18T15:12:40Z</time></trkpt><trkpt lat="43.394562839982555" lon="10.641193629430603"><ele>354.0</ele><time>2026-04-18T15:12:41Z</time></trkpt><trkpt lat="43.39463522964862" lon="10.64117721777873"><ele>354.0</ele><time>2026-04-18T15:12:42Z</time></trkpt><trkpt lat="43.39470873396945" lon="10.641160553418372"><ele>354.0</ele><time>2026-04-18T15:12:43Z</time></trkpt><trkpt lat="43.39481161994174" lon="10.641135560349573"><ele>358.6</ele><time>2026-04-18T15:12:44Z</time></trkpt><trkpt lat="43.39490561842109" lon="10.641108267315383"><ele>363.2</ele><time>2026-04-18T15:12:45Z</time></trkpt><trkpt lat="43.39500287657437" lon="10.641066337198566"><ele>367.8</ele><time>2026-04-18T15:12:46Z</time></trkpt><trkpt lat="43.39507224291852" lon="10.641038289309304"><ele>372.40000000000003</ele><time>2026-04-18T15:12:47Z</time></trkpt><trkpt lat="43.395224931746874" lon="10.64100460680335"><ele>377.0</ele><time>2026-04-18T15:12:49Z</time></trkpt><trkpt lat="43.39531528761337" lon="10.640996890376448"><ele>377.0</ele><time>2026-04-18T15:12:50Z</time></trkpt><trkpt lat="43.395416837377816" lon="10.64099963928902"><ele>377.0</ele><time>2026-04-18T15:12:51.001Z</time></trkpt><trkpt lat="43.395515394474316" lon="10.640988174439208"><ele>377.0</ele><time>2026-04-18T15:12:52.001Z</time></trkpt><trkpt lat="43.39560186690728" lon="10.640972820684404"><ele>377.0</ele><time>2026-04-18T15:12:53.001Z</time></trkpt><trkpt lat="43.395681848651165" lon="10.640958489027318"><ele>377.0</ele><time>2026-04-18T15:12:54.001Z</time></trkpt><trkpt lat="43.39576153730976" lon="10.64095262066479"><ele>377.0</ele><time>2026-04-18T15:12:55.001Z</time></trkpt><trkpt lat="43.395838826721516" lon="10.640944838541833"><ele>377.20000000000005</ele><time>2026-04-18T15:12:56.001Z</time></trkpt><trkpt lat="43.395943448069175" lon="10.640932804229458"><ele>377.4</ele><time>2026-04-18T15:12:57.001Z</time></trkpt><trkpt lat="43.39603395660183" lon="10.640917157877162"><ele>377.6</ele><time>2026-04-18T15:12:58.001Z</time></trkpt><trkpt lat="43.39612454634917" lon="10.640899578751004"><ele>377.79999999999995</ele><time>2026-04-18T15:12:59.001Z</time></trkpt><trkpt lat="43.39620758152024" lon="10.640879860057625"><ele>378.0</ele><time>2026-04-18T15:13:00.001Z</time></trkpt><trkpt lat="43.39630564704471" lon="10.640848373363594"><ele>377.57142857142856</ele><time>2026-04-18T15:13:01.001Z</time></trkpt><trkpt lat="43.396370063817386" lon="10.640825170908368"><ele>377.1428571428571</ele><time>2026-04-18T15:13:02.001Z</time></trkpt><trkpt lat="43.39645324102589" lon="10.640793444531464"><ele>376.7142857142857</ele><time>2026-04-18T15:13:03.001Z</time></trkpt><trkpt lat="43.39652366572726" lon="10.640763873202225"><ele>376.2857142857143</ele><time>2026-04-18T15:13:04.001Z</time></trkpt><trkpt lat="43.396603426848515" lon="10.640732567109959"><ele>375.85714285714283</ele><time>2026-04-18T15:13:05.001Z</time></trkpt><trkpt lat="43.396669877212034" lon="10.640711841102705"><ele>375.42857142857144</ele><time>2026-04-18T15:13:06.001Z</time></trkpt><trkpt lat="43.39673896259678" lon="10.640699249404111"><ele>375.0</ele><time>2026-04-18T15:13:07.001Z</time></trkpt><trkpt lat="43.396832266813526" lon="10.64073762044873"><ele>375.0</ele><time>2026-04-18T15:13:09.001Z</time></trkpt><trkpt lat="43.396926253939434" lon="10.640790194562866"><ele>375.0</ele><time>2026-04-18T15:13:10.001Z</time></trkpt><trkpt lat="43.39699715941281" lon="10.640824629616901"><ele>375.0</ele><time>2026-04-18T15:13:11.001Z</time></trkpt><trkpt lat="43.397080320015775" lon="10.64083775519161"><ele>375.0</ele><time>2026-04-18T15:13:12.001Z</time></trkpt><trkpt lat="43.39715534788207" lon="10.640864075201998"><ele>375.0</ele><time>2026-04-18T15:13:13.001Z</time></trkpt><trkpt lat="43.39721730584567" lon="10.640901889888779"><ele>375.0</ele><time>2026-04-18T15:13:14.001Z</time></trkpt><trkpt lat="43.397299664519004" lon="10.640924291358028"><ele>375.1666666666667</ele><time>2026-04-18T15:13:15.001Z</time></trkpt><trkpt lat="43.397370884039695" lon="10.640939278871388"><ele>375.3333333333333</ele><time>2026-04-18T15:13:16.001Z</time></trkpt><trkpt lat="43.39744448148783" lon="10.640949025200827"><ele>375.5</ele><time>2026-04-18T15:13:17.001Z</time></trkpt><trkpt lat="43.39753504888354" lon="10.64094893392023"><ele>375.66666666666663</ele><time>2026-04-18T15:13:18.001Z</time></trkpt><trkpt lat="43.39762452109311" lon="10.640940011084266"><ele>375.8333333333333</ele><time>2026-04-18T15:13:19.001Z</time></trkpt><trkpt lat="43.397709245125085" lon="10.640924905312854"><ele>376.0</ele><time>2026-04-18T15:13:20.001Z</time></trkpt><trkpt lat="43.39777979051428" lon="10.640902710631696"><ele>376.0</ele><time>2026-04-18T15:13:21.001Z</time></trkpt><trkpt lat="43.39786577647426" lon="10.640850606752618"><ele>376.0</ele><time>2026-04-18T15:13:22.001Z</time></trkpt><trkpt lat="43.397925100496614" lon="10.640799126881728"><ele>376.0</ele><time>2026-04-18T15:13:23.001Z</time></trkpt><trkpt lat="43.3980090726683" lon="10.64073189891784"><ele>376.0</ele><time>2026-04-18T15:13:24.001Z</time></trkpt><trkpt lat="43.398094367070925" lon="10.64067148729797"><ele>376.0</ele><time>2026-04-18T15:13:25.002Z</time></trkpt><trkpt lat="43.39817376734634" lon="10.640631191455741"><ele>376.0</ele><time>2026-04-18T15:13:26.002Z</time></trkpt><trkpt lat="43.39826320772376" lon="10.640604450992502"><ele>376.4</ele><time>2026-04-18T15:13:27.002Z</time></trkpt><trkpt lat="43.39836269058634" lon="10.64059022131526"><ele>376.8</ele><time>2026-04-18T15:13:28.002Z</time></trkpt><trkpt lat="43.39845918141662" lon="10.640578874186398"><ele>377.2</ele><time>2026-04-18T15:13:29.002Z</time></trkpt><trkpt lat="43.39855567246512" lon="10.64056766470203"><ele>377.59999999999997</ele><time>2026-04-18T15:13:30.002Z</time></trkpt><trkpt lat="43.39864154757701" lon="10.640543062770034"><ele>378.0</ele><time>2026-04-18T15:13:31.002Z</time></trkpt><trkpt lat="43.39874062490231" lon="10.640545427222882"><ele>379.59999999999997</ele><time>2026-04-18T15:13:32.002Z</time></trkpt><trkpt lat="43.398844120167944" lon="10.640553960623421"><ele>381.2</ele><time>2026-04-18T15:13:33.002Z</time></trkpt><trkpt lat="43.398936562090555" lon="10.640575373169149"><ele>382.8</ele><time>2026-04-18T15:13:34.002Z</time></trkpt><trkpt lat="43.39902919145998" lon="10.640606559303228"><ele>384.4</ele><time>2026-04-18T15:13:35.002Z</time></trkpt><trkpt lat="43.3991188905155" lon="10.640649391444985"><ele>386.0</ele><time>2026-04-18T15:13:36.002Z</time></trkpt><trkpt lat="43.39920099860078" lon="10.640704780306466"><ele>385.99999999999994</ele><time>2026-04-18T15:13:37.002Z</time></trkpt><trkpt lat="43.399273840985835" lon="10.640743406769278"><ele>386.0</ele><time>2026-04-18T15:13:38.002Z</time></trkpt><trkpt lat="43.399357111657984" lon="10.6407944472345"><ele>386.0</ele><time>2026-04-18T15:13:39.002Z</time></trkpt><trkpt lat="43.3994321344855" lon="10.640837255495951"><ele>386.0</ele><time>2026-04-18T15:13:40.002Z</time></trkpt><trkpt lat="43.399502609861386" lon="10.640904931063139"><ele>385.99999999999994</ele><time>2026-04-18T15:13:41.002Z</time></trkpt><trkpt lat="43.39956855896348" lon="10.640975094251651"><ele>386.0</ele><time>2026-04-18T15:13:42.002Z</time></trkpt><trkpt lat="43.39963414188524" lon="10.641040986783032"><ele>388.20000000000005</ele><time>2026-04-18T15:13:43.002Z</time></trkpt><trkpt lat="43.399698217139594" lon="10.641082473154224"><ele>390.40000000000003</ele><time>2026-04-18T15:13:44.002Z</time></trkpt><trkpt lat="43.39980721983826" lon="10.641093599946958"><ele>392.6</ele><time>2026-04-18T15:13:46.002Z</time></trkpt><trkpt lat="43.399852067257186" lon="10.640988682365107"><ele>394.8</ele><time>2026-04-18T15:13:49.002Z</time></trkpt><trkpt lat="43.399761350672534" lon="10.640856079672501"><ele>397.0</ele><time>2026-04-18T15:13:52.002Z</time></trkpt><trkpt lat="43.399711349705875" lon="10.640802260019665"><ele>397.00000000000006</ele><time>2026-04-18T15:13:53.002Z</time></trkpt><trkpt lat="43.39964859643141" lon="10.640753093001825"><ele>397.0</ele><time>2026-04-18T15:13:54.002Z</time></trkpt><trkpt lat="43.399597906526225" lon="10.64066523009076"><ele>397.0</ele><time>2026-04-18T15:13:55.002Z</time></trkpt><trkpt lat="43.39957490992914" lon="10.640582188238803"><ele>397.0</ele><time>2026-04-18T15:13:56.002Z</time></trkpt><trkpt lat="43.39954600486937" lon="10.64048346497626"><ele>397.00000000000006</ele><time>2026-04-18T15:13:57.002Z</time></trkpt><trkpt lat="43.3995584767245" lon="10.640384825691081"><ele>397.0</ele><time>2026-04-18T15:13:58.002Z</time></trkpt><trkpt lat="43.39958171599353" lon="10.64021458441124"><ele>397.0</ele><time>2026-04-18T15:14:00.003Z</time></trkpt><trkpt lat="43.39956744073959" lon="10.640075080563397"><ele>397.0</ele><time>2026-04-18T15:14:02.003Z</time></trkpt><trkpt lat="43.399556798865284" lon="10.63993917130779"><ele>397.0</ele><time>2026-04-18T15:14:04.003Z</time></trkpt><trkpt lat="43.39952760831329" lon="10.639799895423417"><ele>397.0</ele><time>2026-04-18T15:14:06.003Z</time></trkpt><trkpt lat="43.39948073483342" lon="10.639665875015126"><ele>397.0</ele><time>2026-04-18T15:14:08.003Z</time></trkpt><trkpt lat="43.399442308013136" lon="10.639520972329942"><ele>400.0</ele><time>2026-04-18T15:14:10.003Z</time></trkpt><trkpt lat="43.39942161156924" lon="10.639392279830219"><ele>403.0</ele><time>2026-04-18T15:14:12.003Z</time></trkpt><trkpt lat="43.39939687092813" lon="10.639279482764879"><ele>406.0</ele><time>2026-04-18T15:14:14.003Z</time></trkpt><trkpt lat="43.39935244380261" lon="10.639200775286948"><ele>409.0</ele><time>2026-04-18T15:14:15.003Z</time></trkpt><trkpt lat="43.39929742038783" lon="10.639056128033348"><ele>412.0</ele><time>2026-04-18T15:14:17.003Z</time></trkpt><trkpt lat="43.3992052281601" lon="10.638966104020067"><ele>412.00000000000006</ele><time>2026-04-18T15:14:19.003Z</time></trkpt><trkpt lat="43.3991686133818" lon="10.63889312373083"><ele>412.0</ele><time>2026-04-18T15:14:20.003Z</time></trkpt><trkpt lat="43.39911522910021" lon="10.638827022322294"><ele>412.0</ele><time>2026-04-18T15:14:21.003Z</time></trkpt><trkpt lat="43.399031128710256" lon="10.63868136275343"><ele>412.0</ele><time>2026-04-18T15:14:23.003Z</time></trkpt><trkpt lat="43.39898240443313" lon="10.638606315527051"><ele>412.00000000000006</ele><time>2026-04-18T15:14:24.003Z</time></trkpt><trkpt lat="43.39893134728623" lon="10.638527674281782"><ele>412.0</ele><time>2026-04-18T15:14:25.003Z</time></trkpt><trkpt lat="43.39886054825843" lon="10.638377184934912"><ele>414.00000000000006</ele><time>2026-04-18T15:14:27Z</time></trkpt><trkpt lat="43.39887095323288" lon="10.638289946829827"><ele>416.0</ele><time>2026-04-18T15:14:28Z</time></trkpt><trkpt lat="43.39888873708284" lon="10.638170084960846"><ele>418.0</ele><time>2026-04-18T15:14:30Z</time></trkpt><trkpt lat="43.39889766275769" lon="10.638014223344598"><ele>420.0</ele><time>2026-04-18T15:14:32Z</time></trkpt><trkpt lat="43.398901828390635" lon="10.637920194587952"><ele>422.00000000000006</ele><time>2026-04-18T15:14:33Z</time></trkpt><trkpt lat="43.39889594996293" lon="10.637828212487753"><ele>424.0</ele><time>2026-04-18T15:14:34Z</time></trkpt><trkpt lat="43.39885610076862" lon="10.637664908450837"><ele>425.6</ele><time>2026-04-18T15:14:36Z</time></trkpt><trkpt lat="43.39881284183444" lon="10.637580226965309"><ele>427.2</ele><time>2026-04-18T15:14:37Z</time></trkpt><trkpt lat="43.398777271097366" lon="10.637420515639864"><ele>428.80000000000007</ele><time>2026-04-18T15:14:39Z</time></trkpt><trkpt lat="43.39874312727529" lon="10.637259653810153"><ele>430.40000000000003</ele><time>2026-04-18T15:14:41Z</time></trkpt><trkpt lat="43.3987159362505" lon="10.637175243469631"><ele>432.0</ele><time>2026-04-18T15:14:42Z</time></trkpt><trkpt lat="43.398658458445" lon="10.637004584050844"><ele>434.20000000000005</ele><time>2026-04-18T15:14:44Z</time></trkpt><trkpt lat="43.398614345722464" lon="10.636927112315664"><ele>436.40000000000003</ele><time>2026-04-18T15:14:45Z</time></trkpt><trkpt lat="43.398555454734634" lon="10.636875121177752"><ele>438.59999999999997</ele><time>2026-04-18T15:14:46Z</time></trkpt><trkpt lat="43.398449563648576" lon="10.6368043329884"><ele>440.79999999999995</ele><time>2026-04-18T15:14:48Z</time></trkpt><trkpt lat="43.398347984656326" lon="10.636720803206785"><ele>443.0</ele><time>2026-04-18T15:14:50Z</time></trkpt><trkpt lat="43.39825493209316" lon="10.63663307248578"><ele>442.99999999999994</ele><time>2026-04-18T15:14:52Z</time></trkpt><trkpt lat="43.39814702448999" lon="10.636532514055402"><ele>443.0</ele><time>2026-04-18T15:14:54Z</time></trkpt><trkpt lat="43.398092839949" lon="10.636485659452884"><ele>443.0</ele><time>2026-04-18T15:14:55.001Z</time></trkpt><trkpt lat="43.398035933445094" lon="10.636444264179683"><ele>443.0</ele><time>2026-04-18T15:14:56.001Z</time></trkpt><trkpt lat="43.397981672787125" lon="10.63639836418669"><ele>442.99999999999994</ele><time>2026-04-18T15:14:57.001Z</time></trkpt><trkpt lat="43.39792873351346" lon="10.636349451301378"><ele>443.0</ele><time>2026-04-18T15:14:58.001Z</time></trkpt><trkpt lat="43.397873400691495" lon="10.636293742856022"><ele>443.8333333333333</ele><time>2026-04-18T15:14:59.001Z</time></trkpt><trkpt lat="43.397822143759385" lon="10.636237708453702"><ele>444.66666666666663</ele><time>2026-04-18T15:15:00.001Z</time></trkpt><trkpt lat="43.39778232089228" lon="10.636167401073468"><ele>445.5</ele><time>2026-04-18T15:15:01.001Z</time></trkpt><trkpt lat="43.39769316293878" lon="10.636040815730128"><ele>446.33333333333337</ele><time>2026-04-18T15:15:03.001Z</time></trkpt><trkpt lat="43.39762386922998" lon="10.635935412656721"><ele>447.1666666666667</ele><time>2026-04-18T15:15:05.001Z</time></trkpt><trkpt lat="43.39759466399619" lon="10.63584841991126"><ele>448.0</ele><time>2026-04-18T15:15:06.001Z</time></trkpt><trkpt lat="43.39755790662971" lon="10.635768592899405"><ele>449.6666666666667</ele><time>2026-04-18T15:15:07.001Z</time></trkpt><trkpt lat="43.397511451063515" lon="10.635687461107118"><ele>451.33333333333337</ele><time>2026-04-18T15:15:08.001Z</time></trkpt><trkpt lat="43.397458591668276" lon="10.63559256928179"><ele>453.0</ele><time>2026-04-18T15:15:09.001Z</time></trkpt><trkpt lat="43.39741062694952" lon="10.63548641786513"><ele>454.66666666666663</ele><time>2026-04-18T15:15:10.001Z</time></trkpt><trkpt lat="43.39734789299306" lon="10.635334322349259"><ele>456.3333333333333</ele><time>2026-04-18T15:15:12.001Z</time></trkpt><trkpt lat="43.39733422811221" lon="10.635244183283492"><ele>458.0</ele><time>2026-04-18T15:15:13.001Z</time></trkpt><trkpt lat="43.39733935361628" lon="10.635146713563532"><ele>459.42857142857144</ele><time>2026-04-18T15:15:14.001Z</time></trkpt><trkpt lat="43.39733765410174" lon="10.635026432477282"><ele>460.8571428571429</ele><time>2026-04-18T15:15:15.001Z</time></trkpt><trkpt lat="43.39733578230695" lon="10.634938175359656"><ele>462.28571428571433</ele><time>2026-04-18T15:15:16.001Z</time></trkpt><trkpt lat="43.39733602644829" lon="10.634840577141071"><ele>463.7142857142857</ele><time>2026-04-18T15:15:17.001Z</time></trkpt><trkpt lat="43.39733771233741" lon="10.634745661434975"><ele>465.1428571428572</ele><time>2026-04-18T15:15:18.001Z</time></trkpt><trkpt lat="43.397339725320414" lon="10.63465722904169"><ele>466.5714285714286</ele><time>2026-04-18T15:15:19.001Z</time></trkpt><trkpt lat="43.39734194327092" lon="10.634559792147508"><ele>468.0</ele><time>2026-04-18T15:15:20.001Z</time></trkpt><trkpt lat="43.397347683335276" lon="10.634391901479377"><ele>468.1666666666667</ele><time>2026-04-18T15:15:22.001Z</time></trkpt><trkpt lat="43.3973730507946" lon="10.634222347971974"><ele>468.33333333333337</ele><time>2026-04-18T15:15:24.001Z</time></trkpt><trkpt lat="43.397393439993174" lon="10.634131119775978"><ele>468.5</ele><time>2026-04-18T15:15:25.001Z</time></trkpt><trkpt lat="43.3974002683255" lon="10.634030921427396"><ele>468.6666666666667</ele><time>2026-04-18T15:15:26.001Z</time></trkpt><trkpt lat="43.39743421310817" lon="10.63394934364584"><ele>468.83333333333337</ele><time>2026-04-18T15:15:27.001Z</time></trkpt><trkpt lat="43.39745309088732" lon="10.633853488077184"><ele>469.0</ele><time>2026-04-18T15:15:28.002Z</time></trkpt><trkpt lat="43.397473188518475" lon="10.63375143846922"><ele>469.00000000000006</ele><time>2026-04-18T15:15:29.002Z</time></trkpt><trkpt lat="43.39747605572871" lon="10.633649025835162"><ele>469.0</ele><time>2026-04-18T15:15:30.002Z</time></trkpt><trkpt lat="43.39750229672925" lon="10.633548957673334"><ele>469.0</ele><time>2026-04-18T15:15:31.002Z</time></trkpt><trkpt lat="43.39752015002718" lon="10.633449360913117"><ele>469.0</ele><time>2026-04-18T15:15:32.002Z</time></trkpt><trkpt lat="43.397534487996936" lon="10.633346512372428"><ele>469.00000000000006</ele><time>2026-04-18T15:15:33.002Z</time></trkpt><trkpt lat="43.39755550478451" lon="10.633247310997087"><ele>469.0</ele><time>2026-04-18T15:15:34.002Z</time></trkpt><trkpt lat="43.397589808676756" lon="10.63314012780158"><ele>468.8571428571429</ele><time>2026-04-18T15:15:35.002Z</time></trkpt><trkpt lat="43.39760705569868" lon="10.633052202929756"><ele>468.7142857142857</ele><time>2026-04-18T15:15:36.002Z</time></trkpt><trkpt lat="43.39762620858435" lon="10.632955239207297"><ele>468.57142857142856</ele><time>2026-04-18T15:15:37.002Z</time></trkpt><trkpt lat="43.397645967745916" lon="10.632855206337968"><ele>468.42857142857144</ele><time>2026-04-18T15:15:38.002Z</time></trkpt><trkpt lat="43.39766464606752" lon="10.632760382472965"><ele>468.28571428571433</ele><time>2026-04-18T15:15:39.002Z</time></trkpt><trkpt lat="43.39768424099277" lon="10.632660841771438"><ele>468.14285714285717</ele><time>2026-04-18T15:15:40.002Z</time></trkpt><trkpt lat="43.397703198583734" lon="10.63256453872364"><ele>468.0</ele><time>2026-04-18T15:15:41.002Z</time></trkpt><trkpt lat="43.39772301332419" lon="10.63246388125526"><ele>468.0</ele><time>2026-04-18T15:15:42.002Z</time></trkpt><trkpt lat="43.39774283841124" lon="10.632363170392134"><ele>468.0</ele><time>2026-04-18T15:15:43.002Z</time></trkpt><trkpt lat="43.397763127337164" lon="10.632258009770394"><ele>468.0</ele><time>2026-04-18T15:15:44.002Z</time></trkpt><trkpt lat="43.397779786997006" lon="10.632153812880276"><ele>468.0</ele><time>2026-04-18T15:15:45.002Z</time></trkpt><trkpt lat="43.39778107350799" lon="10.63205019028765"><ele>468.0</ele><time>2026-04-18T15:15:46.002Z</time></trkpt><trkpt lat="43.39781758827264" lon="10.631961380861702"><ele>468.0</ele><time>2026-04-18T15:15:47.002Z</time></trkpt><trkpt lat="43.39784842823328" lon="10.631869530273288"><ele>468.59999999999997</ele><time>2026-04-18T15:15:48.002Z</time></trkpt><trkpt lat="43.397911489581034" lon="10.631727334879455"><ele>469.19999999999993</ele><time>2026-04-18T15:15:50.002Z</time></trkpt><trkpt lat="43.39799100547" lon="10.631576404726575"><ele>469.8</ele><time>2026-04-18T15:15:52.002Z</time></trkpt><trkpt lat="43.398018499122905" lon="10.631489931803536"><ele>470.4</ele><time>2026-04-18T15:15:53.002Z</time></trkpt><trkpt lat="43.39806307809827" lon="10.63140685189143"><ele>471.0</ele><time>2026-04-18T15:15:54.002Z</time></trkpt><trkpt lat="43.39810388704573" lon="10.631308946371197"><ele>471.3333333333333</ele><time>2026-04-18T15:15:55.002Z</time></trkpt><trkpt lat="43.398143628967816" lon="10.6312054218844"><ele>471.66666666666663</ele><time>2026-04-18T15:15:56.002Z</time></trkpt><trkpt lat="43.3981955026975" lon="10.631109063435902"><ele>472.0</ele><time>2026-04-18T15:15:57.002Z</time></trkpt><trkpt lat="43.39821671570148" lon="10.631008056316507"><ele>472.3333333333333</ele><time>2026-04-18T15:15:58.002Z</time></trkpt><trkpt lat="43.39823589602435" lon="10.630904950789727"><ele>472.66666666666663</ele><time>2026-04-18T15:15:59.002Z</time></trkpt><trkpt lat="43.39824373606925" lon="10.63080091901685"><ele>473.0</ele><time>2026-04-18T15:16:00.002Z</time></trkpt><trkpt lat="43.39824252206293" lon="10.630708392520633"><ele>473.99999999999994</ele><time>2026-04-18T15:16:01.002Z</time></trkpt><trkpt lat="43.398218549078855" lon="10.63061455564489"><ele>475.0</ele><time>2026-04-18T15:16:02.003Z</time></trkpt><trkpt lat="43.39821060947216" lon="10.630501450492392"><ele>476.0</ele><time>2026-04-18T15:16:03.003Z</time></trkpt><trkpt lat="43.39818668399005" lon="10.630420732539713"><ele>477.0</ele><time>2026-04-18T15:16:04.003Z</time></trkpt><trkpt lat="43.39815966049885" lon="10.630341848651128"><ele>477.99999999999994</ele><time>2026-04-18T15:16:05.003Z</time></trkpt><trkpt lat="43.398135519565756" lon="10.6302092756127"><ele>479.0</ele><time>2026-04-18T15:16:07.003Z</time></trkpt><trkpt lat="43.39812497628602" lon="10.630077633690192"><ele>480.99999999999994</ele><time>2026-04-18T15:16:08.003Z</time></trkpt><trkpt lat="43.39812719951185" lon="10.629924981620567"><ele>483.0</ele><time>2026-04-18T15:16:10.003Z</time></trkpt><trkpt lat="43.39813526940719" lon="10.629834594651788"><ele>485.0</ele><time>2026-04-18T15:16:11.003Z</time></trkpt><trkpt lat="43.398140260075905" lon="10.629738549018711"><ele>487.0</ele><time>2026-04-18T15:16:12.003Z</time></trkpt><trkpt lat="43.39814571248657" lon="10.629648297991388"><ele>488.99999999999994</ele><time>2026-04-18T15:16:13.003Z</time></trkpt><trkpt lat="43.398159336978836" lon="10.629553127388"><ele>491.0</ele><time>2026-04-18T15:16:14.003Z</time></trkpt><trkpt lat="43.398168369547314" lon="10.629379084591186"><ele>491.66666666666663</ele><time>2026-04-18T15:16:16.003Z</time></trkpt><trkpt lat="43.398167924235" lon="10.629286551619584"><ele>492.3333333333333</ele><time>2026-04-18T15:16:17.003Z</time></trkpt><trkpt lat="43.3981672373183" lon="10.629146108949742"><ele>493.0</ele><time>2026-04-18T15:16:19.003Z</time></trkpt><trkpt lat="43.3981592284472" lon="10.629052519800979"><ele>493.66666666666663</ele><time>2026-04-18T15:16:20.003Z</time></trkpt><trkpt lat="43.398163253526" lon="10.628963228122997"><ele>494.3333333333333</ele><time>2026-04-18T15:16:21.003Z</time></trkpt><trkpt lat="43.398170264430746" lon="10.628822584630313"><ele>495.0</ele><time>2026-04-18T15:16:23.003Z</time></trkpt><trkpt lat="43.398157953155994" lon="10.628736017489244"><ele>495.4</ele><time>2026-04-18T15:16:24.003Z</time></trkpt><trkpt lat="43.398158458679426" lon="10.6286154100229"><ele>495.8</ele><time>2026-04-18T15:16:26.003Z</time></trkpt><trkpt lat="43.39817041475283" lon="10.628490047200978"><ele>496.20000000000005</ele><time>2026-04-18T15:16:28.003Z</time></trkpt><trkpt lat="43.398166177079126" lon="10.628393778724371"><ele>496.6</ele><time>2026-04-18T15:16:30.003Z</time></trkpt><trkpt lat="43.39815382538118" lon="10.628236742751312"><ele>497.0</ele><time>2026-04-18T15:16:32Z</time></trkpt><trkpt lat="43.39814229318766" lon="10.628100386365888"><ele>497.0</ele><time>2026-04-18T15:16:34Z</time></trkpt><trkpt lat="43.398137901774" lon="10.627974836485903"><ele>497.00000000000006</ele><time>2026-04-18T15:16:36Z</time></trkpt><trkpt lat="43.398143135414834" lon="10.627850166867495"><ele>497.00000000000006</ele><time>2026-04-18T15:16:38Z</time></trkpt><trkpt lat="43.39815099091063" lon="10.627730355946852"><ele>497.0</ele><time>2026-04-18T15:16:40Z</time></trkpt><trkpt lat="43.39815039244998" lon="10.627612208374947"><ele>497.0</ele><time>2026-04-18T15:16:42Z</time></trkpt><trkpt lat="43.398108428158835" lon="10.62747371209053"><ele>497.66666666666663</ele><time>2026-04-18T15:16:44Z</time></trkpt><trkpt lat="43.39807486608023" lon="10.62739352615584"><ele>498.3333333333333</ele><time>2026-04-18T15:16:45Z</time></trkpt><trkpt lat="43.398039366962365" lon="10.627304535106738"><ele>499.0</ele><time>2026-04-18T15:16:46Z</time></trkpt><trkpt lat="43.39800582477506" lon="10.627207688932929"><ele>499.66666666666663</ele><time>2026-04-18T15:16:47Z</time></trkpt><trkpt lat="43.39798111785008" lon="10.627125301549125"><ele>500.3333333333333</ele><time>2026-04-18T15:16:48Z</time></trkpt><trkpt lat="43.39796418398606" lon="10.627039239369875"><ele>501.0</ele><time>2026-04-18T15:16:49Z</time></trkpt><trkpt lat="43.39798924872052" lon="10.626879907793203"><ele>503.0</ele><time>2026-04-18T15:16:51Z</time></trkpt><trkpt lat="43.39805691465119" lon="10.62675162106448"><ele>505.0</ele><time>2026-04-18T15:16:53Z</time></trkpt><trkpt lat="43.39811452481998" lon="10.626645287472206"><ele>507.0</ele><time>2026-04-18T15:16:55Z</time></trkpt><trkpt lat="43.398170360930756" lon="10.62658467236243"><ele>509.0</ele><time>2026-04-18T15:16:57Z</time></trkpt><trkpt lat="43.398261434838254" lon="10.62652914156142"><ele>511.0</ele><time>2026-04-18T15:16:59.001Z</time></trkpt><trkpt lat="43.39837698856025" lon="10.626425697514218"><ele>511.00000000000006</ele><time>2026-04-18T15:17:01.001Z</time></trkpt><trkpt lat="43.3984436200372" lon="10.62635653678505"><ele>511.0</ele><time>2026-04-18T15:17:02.001Z</time></trkpt><trkpt lat="43.39849913361589" lon="10.626292082249275"><ele>511.0</ele><time>2026-04-18T15:17:03.001Z</time></trkpt><trkpt lat="43.3985486907714" lon="10.626197034629095"><ele>511.0</ele><time>2026-04-18T15:17:04.001Z</time></trkpt><trkpt lat="43.39859134876228" lon="10.626109508309145"><ele>511.00000000000006</ele><time>2026-04-18T15:17:05.001Z</time></trkpt><trkpt lat="43.39859934859807" lon="10.626005868713902"><ele>511.0</ele><time>2026-04-18T15:17:06.001Z</time></trkpt><trkpt lat="43.3985784174612" lon="10.625923545144001"><ele>512.8333333333334</ele><time>2026-04-18T15:17:07.001Z</time></trkpt><trkpt lat="43.398503226224676" lon="10.62587863117954"><ele>514.6666666666667</ele><time>2026-04-18T15:17:09.001Z</time></trkpt><trkpt lat="43.39842090016223" lon="10.625855059235867"><ele>516.5</ele><time>2026-04-18T15:17:12.001Z</time></trkpt><trkpt lat="43.398340392083206" lon="10.625875050202866"><ele>518.3333333333334</ele><time>2026-04-18T15:17:22.001Z</time></trkpt><trkpt lat="43.39827010708143" lon="10.62587874704759"><ele>520.1666666666666</ele><time>2026-04-18T15:17:24.001Z</time></trkpt><trkpt lat="43.39818205419152" lon="10.625824709394127"><ele>522.0</ele><time>2026-04-18T15:17:26.001Z</time></trkpt><trkpt lat="43.39812249547977" lon="10.62571385244368"><ele>522.0</ele><time>2026-04-18T15:17:28.001Z</time></trkpt><trkpt lat="43.39811006545975" lon="10.625549746183506"><ele>522.0</ele><time>2026-04-18T15:17:30.001Z</time></trkpt><trkpt lat="43.39809610898678" lon="10.625387116082363"><ele>522.0</ele><time>2026-04-18T15:17:32.001Z</time></trkpt><trkpt lat="43.398095901722854" lon="10.625221110884961"><ele>522.0</ele><time>2026-04-18T15:17:34.001Z</time></trkpt><trkpt lat="43.39809348515714" lon="10.625062699305992"><ele>523.2</ele><time>2026-04-18T15:17:36.002Z</time></trkpt><trkpt lat="43.39811312519982" lon="10.624918965311231"><ele>524.4000000000001</ele><time>2026-04-18T15:17:38.002Z</time></trkpt><trkpt lat="43.39811896680776" lon="10.624775440911506"><ele>525.5999999999999</ele><time>2026-04-18T15:17:40.002Z</time></trkpt><trkpt lat="43.39810794476228" lon="10.62460855511427"><ele>526.8</ele><time>2026-04-18T15:17:42.002Z</time></trkpt><trkpt lat="43.39812221911334" lon="10.624462582455745"><ele>528.0</ele><time>2026-04-18T15:17:44.002Z</time></trkpt><trkpt lat="43.398107316956946" lon="10.624334639874714"><ele>528.6666666666666</ele><time>2026-04-18T15:17:46.002Z</time></trkpt><trkpt lat="43.39801756868745" lon="10.624309380833969"><ele>529.3333333333334</ele><time>2026-04-18T15:37:12.001Z</time></trkpt><trkpt lat="43.39808558633696" lon="10.624316344890223"><ele>530.0</ele><time>2026-04-18T15:39:42Z</time></trkpt><trkpt lat="43.398017043186584" lon="10.624318702681414"><ele>530.6666666666667</ele><time>2026-04-18T15:41:10.001Z</time></trkpt><trkpt lat="43.398041367066334" lon="10.624234048978147"><ele>531.3333333333334</ele><time>2026-04-18T15:41:47.001Z</time></trkpt><trkpt lat="43.39807084493434" lon="10.624121392499648"><ele>532.0</ele><time>2026-04-18T15:42:01Z</time></trkpt><trkpt lat="43.39804930320998" lon="10.624009587920106"><ele>532.0</ele><time>2026-04-18T15:42:03Z</time></trkpt><trkpt lat="43.39803402430512" lon="10.623912375806622"><ele>532.0</ele><time>2026-04-18T15:42:05Z</time></trkpt><trkpt lat="43.398040655528554" lon="10.623824208279235"><ele>532.0</ele><time>2026-04-18T15:42:08Z</time></trkpt><trkpt lat="43.39805141960089" lon="10.623720498511437"><ele>532.0</ele><time>2026-04-18T15:42:11Z</time></trkpt><trkpt lat="43.39809565720879" lon="10.623620486225066"><ele>532.0</ele><time>2026-04-18T15:42:14Z</time></trkpt><trkpt lat="43.39814065799607" lon="10.623556429311249"><ele>532.0</ele><time>2026-04-18T15:42:16Z</time></trkpt><trkpt lat="43.39818515224344" lon="10.623473433057557"><ele>532.0</ele><time>2026-04-18T15:42:18Z</time></trkpt><trkpt lat="43.39823562257482" lon="10.623387441512172"><ele>532.3333333333334</ele><time>2026-04-18T15:42:20Z</time></trkpt><trkpt lat="43.398287351358306" lon="10.623268992324139"><ele>532.6666666666667</ele><time>2026-04-18T15:42:22Z</time></trkpt><trkpt lat="43.39833891592389" lon="10.623154804772401"><ele>533.0</ele><time>2026-04-18T15:42:24Z</time></trkpt><trkpt lat="43.39839807786707" lon="10.623061305081626"><ele>533.3333333333334</ele><time>2026-04-18T15:42:26Z</time></trkpt><trkpt lat="43.39844362299116" lon="10.62297145613141"><ele>533.6666666666666</ele><time>2026-04-18T15:42:28Z</time></trkpt><trkpt lat="43.39846067316914" lon="10.622863042089715"><ele>534.0</ele><time>2026-04-18T15:42:30Z</time></trkpt><trkpt lat="43.39846528194267" lon="10.622746350437204"><ele>534.3333333333334</ele><time>2026-04-18T15:42:32Z</time></trkpt><trkpt lat="43.39847392881971" lon="10.622627418835583"><ele>534.6666666666666</ele><time>2026-04-18T15:42:34Z</time></trkpt><trkpt lat="43.39846508772529" lon="10.622514891761961"><ele>535.0</ele><time>2026-04-18T15:42:36Z</time></trkpt><trkpt lat="43.39845801847526" lon="10.622397664702094"><ele>535.3333333333333</ele><time>2026-04-18T15:42:38Z</time></trkpt><trkpt lat="43.398470668425766" lon="10.622282077147327"><ele>535.6666666666666</ele><time>2026-04-18T15:42:40Z</time></trkpt><trkpt lat="43.39850696747156" lon="10.62215515531123"><ele>536.0</ele><time>2026-04-18T15:42:42.001Z</time></trkpt><trkpt lat="43.39856285612946" lon="10.622031487814649"><ele>536.0</ele><time>2026-04-18T15:42:44.001Z</time></trkpt><trkpt lat="43.398634515103" lon="10.621895491795888"><ele>536.0</ele><time>2026-04-18T15:42:46.001Z</time></trkpt><trkpt lat="43.398699166253905" lon="10.621740945566486"><ele>536.0</ele><time>2026-04-18T15:42:48.001Z</time></trkpt><trkpt lat="43.39877794203089" lon="10.62160643845558"><ele>536.0</ele><time>2026-04-18T15:42:50.001Z</time></trkpt><trkpt lat="43.39879505533878" lon="10.621440258552402"><ele>536.0</ele><time>2026-04-18T15:42:52.001Z</time></trkpt><trkpt lat="43.398782995905684" lon="10.62128307638546"><ele>536.0</ele><time>2026-04-18T15:42:54.001Z</time></trkpt><trkpt lat="43.398770783194365" lon="10.621136616282355"><ele>536.0</ele><time>2026-04-18T15:42:56.001Z</time></trkpt><trkpt lat="43.39877505572576" lon="10.621035336236549"><ele>536.0</ele><time>2026-04-18T15:42:57.001Z</time></trkpt><trkpt lat="43.398790190752564" lon="10.620943351524513"><ele>536.0</ele><time>2026-04-18T15:42:58.001Z</time></trkpt><trkpt lat="43.398814128456" lon="10.620856401260246"><ele>536.0</ele><time>2026-04-18T15:42:59.001Z</time></trkpt><trkpt lat="43.39885039126285" lon="10.620780158992833"><ele>536.1428571428571</ele><time>2026-04-18T15:43:00.001Z</time></trkpt><trkpt lat="43.398890246097814" lon="10.620703044824117"><ele>536.2857142857142</ele><time>2026-04-18T15:43:01.001Z</time></trkpt><trkpt lat="43.398930851362124" lon="10.620629320332489"><ele>536.4285714285713</ele><time>2026-04-18T15:43:02.001Z</time></trkpt><trkpt lat="43.39896622258124" lon="10.620555978886099"><ele>536.5714285714286</ele><time>2026-04-18T15:43:03.001Z</time></trkpt><trkpt lat="43.39900239717185" lon="10.620482179283748"><ele>536.7142857142857</ele><time>2026-04-18T15:43:04.001Z</time></trkpt><trkpt lat="43.399049549173355" lon="10.620407194115543"><ele>536.8571428571428</ele><time>2026-04-18T15:43:05.001Z</time></trkpt><trkpt lat="43.399093258670554" lon="10.62032188886667"><ele>537.0</ele><time>2026-04-18T15:43:06.001Z</time></trkpt><trkpt lat="43.399142533339145" lon="10.620236708625223"><ele>536.3333333333334</ele><time>2026-04-18T15:43:07.001Z</time></trkpt><trkpt lat="43.39919067030872" lon="10.620147636522766"><ele>535.6666666666666</ele><time>2026-04-18T15:43:08.001Z</time></trkpt><trkpt lat="43.399229048353185" lon="10.620052787524017"><ele>535.0</ele><time>2026-04-18T15:43:09.001Z</time></trkpt><trkpt lat="43.39926397442902" lon="10.619959982327707"><ele>534.3333333333333</ele><time>2026-04-18T15:43:10.001Z</time></trkpt><trkpt lat="43.39931564115751" lon="10.619878466963502"><ele>533.6666666666666</ele><time>2026-04-18T15:43:11.001Z</time></trkpt><trkpt lat="43.39934223646456" lon="10.61977702047618"><ele>533.0</ele><time>2026-04-18T15:43:12.001Z</time></trkpt><trkpt lat="43.39938737508759" lon="10.619687700202874"><ele>533.0</ele><time>2026-04-18T15:43:13.001Z</time></trkpt><trkpt lat="43.39942537889219" lon="10.619593569822351"><ele>533.0</ele><time>2026-04-18T15:43:14.001Z</time></trkpt><trkpt lat="43.39945475694236" lon="10.619484434980743"><ele>533.0</ele><time>2026-04-18T15:43:15.001Z</time></trkpt><trkpt lat="43.39946256769319" lon="10.619373172609555"><ele>533.0</ele><time>2026-04-18T15:43:16.001Z</time></trkpt><trkpt lat="43.39947367592589" lon="10.619261568535642"><ele>533.0</ele><time>2026-04-18T15:43:17.001Z</time></trkpt><trkpt lat="43.39947919631967" lon="10.619154704951832"><ele>533.0</ele><time>2026-04-18T15:43:18.001Z</time></trkpt><trkpt lat="43.39948633449703" lon="10.619052959754018"><ele>532.8571428571429</ele><time>2026-04-18T15:43:19.001Z</time></trkpt><trkpt lat="43.39949366072357" lon="10.618956094797143"><ele>532.7142857142857</ele><time>2026-04-18T15:43:20.001Z</time></trkpt><trkpt lat="43.399497156027095" lon="10.618862653664035"><ele>532.5714285714286</ele><time>2026-04-18T15:43:21.001Z</time></trkpt><trkpt lat="43.39950783924827" lon="10.618708398787275"><ele>532.4285714285714</ele><time>2026-04-18T15:43:23.001Z</time></trkpt><trkpt lat="43.39950717739173" lon="10.618615960813136"><ele>532.2857142857142</ele><time>2026-04-18T15:43:27.001Z</time></trkpt><trkpt lat="43.399450462150966" lon="10.618566955818446"><ele>532.1428571428571</ele><time>2026-04-18T15:55:03Z</time></trkpt><trkpt lat="43.399497456336164" lon="10.618507351039664"><ele>532.0</ele><time>2026-04-18T15:55:07Z</time></trkpt><trkpt lat="43.399572266094715" lon="10.618527144069676"><ele>532.0</ele><time>2026-04-18T15:55:10Z</time></trkpt><trkpt lat="43.39964895093856" lon="10.618599137126953"><ele>532.0</ele><time>2026-04-18T15:55:12Z</time></trkpt><trkpt lat="43.39973452652863" lon="10.618669899100098"><ele>532.0</ele><time>2026-04-18T15:55:14Z</time></trkpt><trkpt lat="43.39984889639413" lon="10.61874236292943"><ele>532.0</ele><time>2026-04-18T15:55:16Z</time></trkpt><trkpt lat="43.39995754964156" lon="10.61882557329014"><ele>532.0</ele><time>2026-04-18T15:55:18Z</time></trkpt><trkpt lat="43.400020543733135" lon="10.618870703296894"><ele>532.8333333333334</ele><time>2026-04-18T15:55:19Z</time></trkpt><trkpt lat="43.40007230781565" lon="10.618932993060152"><ele>533.6666666666667</ele><time>2026-04-18T15:55:20Z</time></trkpt><trkpt lat="43.40013768861293" lon="10.61896088365337"><ele>534.5</ele><time>2026-04-18T15:55:21Z</time></trkpt><trkpt lat="43.40019240310927" lon="10.61900629625641"><ele>535.3333333333334</ele><time>2026-04-18T15:55:22Z</time></trkpt><trkpt lat="43.40026642177204" lon="10.619090418492819"><ele>536.1666666666666</ele><time>2026-04-18T15:55:24Z</time></trkpt><trkpt lat="43.40033826022524" lon="10.619148679011747"><ele>537.0</ele><time>2026-04-18T15:55:25Z</time></trkpt><trkpt lat="43.400443339290895" lon="10.619226353239318"><ele>535.4</ele><time>2026-04-18T15:55:26Z</time></trkpt><trkpt lat="43.40053000293591" lon="10.619274832184368"><ele>533.8000000000001</ele><time>2026-04-18T15:55:27Z</time></trkpt><trkpt lat="43.40061515624952" lon="10.61931800700206"><ele>532.2</ele><time>2026-04-18T15:55:28Z</time></trkpt><trkpt lat="43.400718820778295" lon="10.619304514765485"><ele>530.6</ele><time>2026-04-18T15:55:29Z</time></trkpt><trkpt lat="43.400839495028656" lon="10.61929392276208"><ele>529.0</ele><time>2026-04-18T15:55:31Z</time></trkpt><trkpt lat="43.4009175085299" lon="10.619317735739939"><ele>529.0</ele><time>2026-04-18T15:55:32Z</time></trkpt><trkpt lat="43.40099301853895" lon="10.61931558539217"><ele>529.0</ele><time>2026-04-18T15:55:33Z</time></trkpt><trkpt lat="43.40106877359955" lon="10.619305931000763"><ele>529.0</ele><time>2026-04-18T15:55:34Z</time></trkpt><trkpt lat="43.40114355199765" lon="10.619265230659844"><ele>529.0</ele><time>2026-04-18T15:55:35Z</time></trkpt><trkpt lat="43.40121058882573" lon="10.619210601868433"><ele>529.0</ele><time>2026-04-18T15:55:36.001Z</time></trkpt><trkpt lat="43.40128598280931" lon="10.619181025841756"><ele>529.0</ele><time>2026-04-18T15:55:37.001Z</time></trkpt><trkpt lat="43.401363766772945" lon="10.619180275295873"><ele>527.8</ele><time>2026-04-18T15:55:38.001Z</time></trkpt><trkpt lat="43.40145164491356" lon="10.619203515918283"><ele>526.5999999999999</ele><time>2026-04-18T15:55:39.001Z</time></trkpt><trkpt lat="43.40155054470784" lon="10.619276427933906"><ele>525.4</ele><time>2026-04-18T15:55:40.001Z</time></trkpt><trkpt lat="43.40164138550891" lon="10.619346492611687"><ele>524.1999999999999</ele><time>2026-04-18T15:55:41.001Z</time></trkpt><trkpt lat="43.40174006032033" lon="10.619433570487807"><ele>523.0</ele><time>2026-04-18T15:55:42.001Z</time></trkpt><trkpt lat="43.401855853200516" lon="10.619517547498015"><ele>523.0</ele><time>2026-04-18T15:55:43.001Z</time></trkpt><trkpt lat="43.40197105065075" lon="10.619598142789403"><ele>523.0</ele><time>2026-04-18T15:55:44.001Z</time></trkpt><trkpt lat="43.40208165261348" lon="10.61967552295935"><ele>523.0</ele><time>2026-04-18T15:55:45.001Z</time></trkpt><trkpt lat="43.40219489024773" lon="10.619754482503641"><ele>523.0</ele><time>2026-04-18T15:55:46.001Z</time></trkpt><trkpt lat="43.40231019228953" lon="10.61983542872697"><ele>517.25</ele><time>2026-04-18T15:55:47.001Z</time></trkpt><trkpt lat="43.40239983623143" lon="10.619934556401729"><ele>511.5</ele><time>2026-04-18T15:55:48.001Z</time></trkpt><trkpt lat="43.402477817318484" lon="10.620043566540195"><ele>505.75</ele><time>2026-04-18T15:55:49.001Z</time></trkpt><trkpt lat="43.40255106380546" lon="10.620150581042624"><ele>500.0</ele><time>2026-04-18T15:55:50.001Z</time></trkpt><trkpt lat="43.40262908028539" lon="10.620276768393914"><ele>499.5</ele><time>2026-04-18T15:55:51.001Z</time></trkpt><trkpt lat="43.40270902832884" lon="10.620420523064983"><ele>499.0</ele><time>2026-04-18T15:55:52.001Z</time></trkpt><trkpt lat="43.40277962541933" lon="10.620565428717404"><ele>498.5</ele><time>2026-04-18T15:55:53.001Z</time></trkpt><trkpt lat="43.4028371328593" lon="10.62070598721187"><ele>498.0</ele><time>2026-04-18T15:55:54.001Z</time></trkpt><trkpt lat="43.40287407258919" lon="10.620821581923789"><ele>498.0</ele><time>2026-04-18T15:55:55.001Z</time></trkpt><trkpt lat="43.402902729701594" lon="10.620946541906395"><ele>497.99999999999994</ele><time>2026-04-18T15:55:56.001Z</time></trkpt><trkpt lat="43.40291471395119" lon="10.621078213720693"><ele>497.99999999999994</ele><time>2026-04-18T15:55:57.001Z</time></trkpt><trkpt lat="43.40291787467427" lon="10.621216450837151"><ele>498.0</ele><time>2026-04-18T15:55:58.001Z</time></trkpt><trkpt lat="43.4029253152338" lon="10.621377284927366"><ele>498.0</ele><time>2026-04-18T15:55:59.001Z</time></trkpt><trkpt lat="43.40293333606038" lon="10.62154781871734"><ele>496.75</ele><time>2026-04-18T15:56:00.001Z</time></trkpt><trkpt lat="43.402946396228295" lon="10.621714571315229"><ele>495.5</ele><time>2026-04-18T15:56:01.001Z</time></trkpt><trkpt lat="43.40296042372615" lon="10.62188969437042"><ele>494.25</ele><time>2026-04-18T15:56:02.001Z</time></trkpt><trkpt lat="43.40296716033855" lon="10.622061509229844"><ele>493.0</ele><time>2026-04-18T15:56:03.001Z</time></trkpt><trkpt lat="43.40296776944289" lon="10.622236004142758"><ele>492.5</ele><time>2026-04-18T15:56:04.001Z</time></trkpt><trkpt lat="43.40296075421113" lon="10.622390135198968"><ele>492.0</ele><time>2026-04-18T15:56:05.001Z</time></trkpt><trkpt lat="43.40293278374665" lon="10.62252941071879"><ele>491.5</ele><time>2026-04-18T15:56:06.001Z</time></trkpt><trkpt lat="43.40288959614306" lon="10.622670152340504"><ele>491.0</ele><time>2026-04-18T15:56:07.001Z</time></trkpt><trkpt lat="43.40283582917165" lon="10.622830525276592"><ele>490.8</ele><time>2026-04-18T15:56:08.001Z</time></trkpt><trkpt lat="43.40280003569178" lon="10.622972195604145"><ele>490.6</ele><time>2026-04-18T15:56:09.001Z</time></trkpt><trkpt lat="43.40276686567373" lon="10.623095626642613"><ele>490.4</ele><time>2026-04-18T15:56:10.001Z</time></trkpt><trkpt lat="43.40273533210259" lon="10.62322696628119"><ele>490.2</ele><time>2026-04-18T15:56:11.001Z</time></trkpt><trkpt lat="43.40273747390167" lon="10.623382975623992"><ele>490.0</ele><time>2026-04-18T15:56:12.001Z</time></trkpt><trkpt lat="43.4027511727194" lon="10.62352731855822"><ele>490.0</ele><time>2026-04-18T15:56:13.001Z</time></trkpt><trkpt lat="43.4027692123085" lon="10.62366056784272"><ele>490.0</ele><time>2026-04-18T15:56:14.001Z</time></trkpt><trkpt lat="43.4027878012273" lon="10.623787148008438"><ele>490.0</ele><time>2026-04-18T15:56:15.001Z</time></trkpt><trkpt lat="43.40280233601044" lon="10.623910175666609"><ele>490.0</ele><time>2026-04-18T15:56:16.001Z</time></trkpt><trkpt lat="43.40282794620244" lon="10.624029035862918"><ele>490.0</ele><time>2026-04-18T15:56:17.001Z</time></trkpt><trkpt lat="43.40285872650132" lon="10.624202168904972"><ele>490.0</ele><time>2026-04-18T15:56:18.001Z</time></trkpt><trkpt lat="43.40288632659225" lon="10.624333961440865"><ele>490.0</ele><time>2026-04-18T15:56:19.001Z</time></trkpt><trkpt lat="43.40291994636454" lon="10.624474990130539"><ele>490.0</ele><time>2026-04-18T15:56:20.001Z</time></trkpt><trkpt lat="43.402954242013834" lon="10.624592633364687"><ele>490.0</ele><time>2026-04-18T15:56:21.001Z</time></trkpt><trkpt lat="43.403022412514176" lon="10.624762281732199"><ele>490.0</ele><time>2026-04-18T15:56:22.001Z</time></trkpt><trkpt lat="43.40308081112033" lon="10.624896909318627"><ele>490.6</ele><time>2026-04-18T15:56:23.001Z</time></trkpt><trkpt lat="43.40311970179845" lon="10.624993253486913"><ele>491.2</ele><time>2026-04-18T15:56:24.001Z</time></trkpt><trkpt lat="43.403157618624036" lon="10.625125294300146"><ele>491.79999999999995</ele><time>2026-04-18T15:56:25.001Z</time></trkpt><trkpt lat="43.403180621025164" lon="10.625267322050764"><ele>492.4</ele><time>2026-04-18T15:56:26Z</time></trkpt><trkpt lat="43.40323191855741" lon="10.625415529531422"><ele>493.0</ele><time>2026-04-18T15:56:27Z</time></trkpt><trkpt lat="43.40329929934072" lon="10.625546191586867"><ele>488.25</ele><time>2026-04-18T15:56:28Z</time></trkpt><trkpt lat="43.40336897482809" lon="10.625666167331076"><ele>483.5</ele><time>2026-04-18T15:56:29Z</time></trkpt><trkpt lat="43.403413536961644" lon="10.625739268949646"><ele>478.75</ele><time>2026-04-18T15:56:30Z</time></trkpt><trkpt lat="43.403510399095936" lon="10.625899591845759"><ele>474.0</ele><time>2026-04-18T15:56:31Z</time></trkpt><trkpt lat="43.4035856658762" lon="10.626032239001475"><ele>476.25</ele><time>2026-04-18T15:56:32Z</time></trkpt><trkpt lat="43.403654910225484" lon="10.62616429243436"><ele>478.5</ele><time>2026-04-18T15:56:33Z</time></trkpt><trkpt lat="43.403734737312014" lon="10.626315436835283"><ele>480.75</ele><time>2026-04-18T15:56:34Z</time></trkpt><trkpt lat="43.40381066935392" lon="10.626454095346391"><ele>483.0</ele><time>2026-04-18T15:56:35Z</time></trkpt><trkpt lat="43.40388150656565" lon="10.626583962432703"><ele>483.0</ele><time>2026-04-18T15:56:36Z</time></trkpt><trkpt lat="43.40394568475111" lon="10.62670422909435"><ele>482.99999999999994</ele><time>2026-04-18T15:56:37Z</time></trkpt><trkpt lat="43.40400789421309" lon="10.626804896104652"><ele>482.99999999999994</ele><time>2026-04-18T15:56:38Z</time></trkpt><trkpt lat="43.40407390975205" lon="10.626892645591305"><ele>483.0</ele><time>2026-04-18T15:56:39Z</time></trkpt><trkpt lat="43.404145516739476" lon="10.626978496143865"><ele>483.0</ele><time>2026-04-18T15:56:40Z</time></trkpt><trkpt lat="43.404222914553486" lon="10.627068058597901"><ele>479.0</ele><time>2026-04-18T15:56:41Z</time></trkpt><trkpt lat="43.40430316487233" lon="10.627154462471966"><ele>474.99999999999994</ele><time>2026-04-18T15:56:42Z</time></trkpt><trkpt lat="43.40438581248033" lon="10.627235036748779"><ele>470.99999999999994</ele><time>2026-04-18T15:56:43Z</time></trkpt><trkpt lat="43.404464942916896" lon="10.627300661270489"><ele>467.0</ele><time>2026-04-18T15:56:44Z</time></trkpt><trkpt lat="43.40454154700159" lon="10.627364508004007"><ele>463.0</ele><time>2026-04-18T15:56:45Z</time></trkpt><trkpt lat="43.404626788047544" lon="10.627381526709156"><ele>464.2</ele><time>2026-04-18T15:56:46Z</time></trkpt><trkpt lat="43.40474096137225" lon="10.627399648478074"><ele>465.4</ele><time>2026-04-18T15:56:47Z</time></trkpt><trkpt lat="43.404852072048996" lon="10.627397654700035"><ele>466.59999999999997</ele><time>2026-04-18T15:56:48Z</time></trkpt><trkpt lat="43.40497037720422" lon="10.627412806173783"><ele>467.79999999999995</ele><time>2026-04-18T15:56:49Z</time></trkpt><trkpt lat="43.405067574067395" lon="10.627457910629445"><ele>469.0</ele><time>2026-04-18T15:56:50Z</time></trkpt><trkpt lat="43.40516111515616" lon="10.627497004788175"><ele>469.0</ele><time>2026-04-18T15:56:51Z</time></trkpt><trkpt lat="43.40523642203025" lon="10.627573284733339"><ele>469.0</ele><time>2026-04-18T15:56:52Z</time></trkpt><trkpt lat="43.405312679277394" lon="10.627670151892158"><ele>469.0</ele><time>2026-04-18T15:56:53Z</time></trkpt><trkpt lat="43.40536932247786" lon="10.627782951835291"><ele>469.0</ele><time>2026-04-18T15:56:54Z</time></trkpt><trkpt lat="43.405403575251135" lon="10.627909347663314"><ele>469.0</ele><time>2026-04-18T15:56:55Z</time></trkpt><trkpt lat="43.405435781934614" lon="10.628023718650875"><ele>465.79999999999995</ele><time>2026-04-18T15:56:56Z</time></trkpt><trkpt lat="43.405496501404485" lon="10.62817874845677"><ele>462.59999999999997</ele><time>2026-04-18T15:56:57Z</time></trkpt><trkpt lat="43.40553141300105" lon="10.628313453240247"><ele>459.4</ele><time>2026-04-18T15:56:58Z</time></trkpt><trkpt lat="43.40557216715557" lon="10.628398653287238"><ele>456.2</ele><time>2026-04-18T15:56:59Z</time></trkpt><trkpt lat="43.405688777503734" lon="10.628475667135424"><ele>453.0</ele><time>2026-04-18T15:57:01Z</time></trkpt><trkpt lat="43.40575767244362" lon="10.628503440374917"><ele>453.0</ele><time>2026-04-18T15:57:02Z</time></trkpt><trkpt lat="43.405889889669055" lon="10.628532723055796"><ele>452.99999999999994</ele><time>2026-04-18T15:57:04Z</time></trkpt><trkpt lat="43.40597266503803" lon="10.628551216030573"><ele>452.99999999999994</ele><time>2026-04-18T15:57:05Z</time></trkpt><trkpt lat="43.40606641028294" lon="10.628576258156729"><ele>453.0</ele><time>2026-04-18T15:57:06Z</time></trkpt><trkpt lat="43.406168133776625" lon="10.628603431505942"><ele>453.0</ele><time>2026-04-18T15:57:07Z</time></trkpt><trkpt lat="43.40627709988685" lon="10.628632539575419"><ele>450.4</ele><time>2026-04-18T15:57:08Z</time></trkpt><trkpt lat="43.406385174349346" lon="10.628665638917852"><ele>447.79999999999995</ele><time>2026-04-18T15:57:09Z</time></trkpt><trkpt lat="43.40648892101505" lon="10.628699575308547"><ele>445.2</ele><time>2026-04-18T15:57:10Z</time></trkpt><trkpt lat="43.40657695473211" lon="10.62874346888152"><ele>442.6</ele><time>2026-04-18T15:57:11Z</time></trkpt><trkpt lat="43.406628683358775" lon="10.628841627490365"><ele>440.0</ele><time>2026-04-18T15:57:12Z</time></trkpt><trkpt lat="43.40668639577917" lon="10.628935743538067"><ele>440.0</ele><time>2026-04-18T15:57:13Z</time></trkpt><trkpt lat="43.40674467558922" lon="10.629029084862601"><ele>440.0</ele><time>2026-04-18T15:57:14Z</time></trkpt><trkpt lat="43.40681022637656" lon="10.629138626445236"><ele>440.0</ele><time>2026-04-18T15:57:15Z</time></trkpt><trkpt lat="43.40687952846993" lon="10.629254436814236"><ele>440.0</ele><time>2026-04-18T15:57:16Z</time></trkpt><trkpt lat="43.40694488265366" lon="10.629363630668191"><ele>440.0</ele><time>2026-04-18T15:57:17Z</time></trkpt><trkpt lat="43.40701614957222" lon="10.629481696381024"><ele>440.6</ele><time>2026-04-18T15:57:18Z</time></trkpt><trkpt lat="43.40708545283794" lon="10.629596508978757"><ele>441.2</ele><time>2026-04-18T15:57:19Z</time></trkpt><trkpt lat="43.407155828204665" lon="10.629713097694442"><ele>441.79999999999995</ele><time>2026-04-18T15:57:20Z</time></trkpt><trkpt lat="43.40722622290973" lon="10.629829481612239"><ele>442.4</ele><time>2026-04-18T15:57:21Z</time></trkpt><trkpt lat="43.4072997645259" lon="10.629950719969882"><ele>443.0</ele><time>2026-04-18T15:57:22Z</time></trkpt><trkpt lat="43.40737463898305" lon="10.63007415560594"><ele>439.75</ele><time>2026-04-18T15:57:23Z</time></trkpt><trkpt lat="43.407441019691944" lon="10.630183588726778"><ele>436.5</ele><time>2026-04-18T15:57:24Z</time></trkpt><trkpt lat="43.40752585885663" lon="10.63028891548083"><ele>433.25</ele><time>2026-04-18T15:57:25Z</time></trkpt><trkpt lat="43.407589082459225" lon="10.630425514328959"><ele>430.0</ele><time>2026-04-18T15:57:26Z</time></trkpt><trkpt lat="43.40766618772009" lon="10.630548367676377"><ele>430.0</ele><time>2026-04-18T15:57:27Z</time></trkpt><trkpt lat="43.40774263392892" lon="10.630667750906706"><ele>430.0</ele><time>2026-04-18T15:57:28Z</time></trkpt><trkpt lat="43.40782996223566" lon="10.630774960885706"><ele>430.0</ele><time>2026-04-18T15:57:29Z</time></trkpt><trkpt lat="43.407890250838605" lon="10.630898322998403"><ele>430.0</ele><time>2026-04-18T15:57:30Z</time></trkpt><trkpt lat="43.40793839269797" lon="10.63101106014251"><ele>430.0</ele><time>2026-04-18T15:57:31Z</time></trkpt><trkpt lat="43.407985350255444" lon="10.631105279207798"><ele>428.33333333333337</ele><time>2026-04-18T15:57:32Z</time></trkpt><trkpt lat="43.40802162670768" lon="10.63118508768842"><ele>426.6666666666667</ele><time>2026-04-18T15:57:33Z</time></trkpt><trkpt lat="43.40808648655228" lon="10.631290389874474"><ele>425.0</ele><time>2026-04-18T15:57:35Z</time></trkpt><trkpt lat="43.408141827990434" lon="10.631332871988445"><ele>423.33333333333337</ele><time>2026-04-18T15:57:37Z</time></trkpt><trkpt lat="43.408208413578386" lon="10.631370120043535"><ele>421.6666666666667</ele><time>2026-04-18T15:57:44Z</time></trkpt><trkpt lat="43.408288286926066" lon="10.631431897006362"><ele>420.0</ele><time>2026-04-18T15:57:46Z</time></trkpt><trkpt lat="43.408347889720474" lon="10.631473286345061"><ele>420.0</ele><time>2026-04-18T15:57:47Z</time></trkpt><trkpt lat="43.40842229457063" lon="10.631524954524192"><ele>420.0</ele><time>2026-04-18T15:57:48Z</time></trkpt><trkpt lat="43.40850032077609" lon="10.631579137442447"><ele>420.0</ele><time>2026-04-18T15:57:49Z</time></trkpt><trkpt lat="43.40858115839823" lon="10.631640961511762"><ele>420.0</ele><time>2026-04-18T15:57:50Z</time></trkpt><trkpt lat="43.40866581204318" lon="10.631703783461536"><ele>420.0</ele><time>2026-04-18T15:57:51Z</time></trkpt><trkpt lat="43.408750134728564" lon="10.631749238941591"><ele>417.4</ele><time>2026-04-18T15:57:52Z</time></trkpt><trkpt lat="43.40885040374904" lon="10.63174939172658"><ele>414.8</ele><time>2026-04-18T15:57:53Z</time></trkpt><trkpt lat="43.40895168817611" lon="10.631743831601785"><ele>412.20000000000005</ele><time>2026-04-18T15:57:54Z</time></trkpt><trkpt lat="43.409057458576065" lon="10.631718465460496"><ele>409.6</ele><time>2026-04-18T15:57:55Z</time></trkpt><trkpt lat="43.4091713051621" lon="10.631687004291928"><ele>407.0</ele><time>2026-04-18T15:57:56Z</time></trkpt><trkpt lat="43.40928613028755" lon="10.63165463597177"><ele>407.0</ele><time>2026-04-18T15:57:57Z</time></trkpt><trkpt lat="43.40940921882092" lon="10.631629854932012"><ele>407.0</ele><time>2026-04-18T15:57:58Z</time></trkpt><trkpt lat="43.40952046202218" lon="10.631587087550034"><ele>407.0</ele><time>2026-04-18T15:57:59Z</time></trkpt><trkpt lat="43.40961307873422" lon="10.631560160113132"><ele>407.0</ele><time>2026-04-18T15:58:00Z</time></trkpt><trkpt lat="43.40970964930435" lon="10.631556353274087"><ele>407.0</ele><time>2026-04-18T15:58:01Z</time></trkpt><trkpt lat="43.40978233623885" lon="10.63155163056686"><ele>406.20000000000005</ele><time>2026-04-18T15:58:02Z</time></trkpt><trkpt lat="43.409844647776" lon="10.631569373586245"><ele>405.4</ele><time>2026-04-18T15:58:03Z</time></trkpt><trkpt lat="43.40992089545071" lon="10.631633858676636"><ele>404.6</ele><time>2026-04-18T15:58:04Z</time></trkpt><trkpt lat="43.40998782635115" lon="10.631748870981385"><ele>403.79999999999995</ele><time>2026-04-18T15:58:05Z</time></trkpt><trkpt lat="43.4100281216103" lon="10.631852085171747"><ele>403.0</ele><time>2026-04-18T15:58:06Z</time></trkpt><trkpt lat="43.410075410844506" lon="10.631985540821201"><ele>403.0</ele><time>2026-04-18T15:58:07Z</time></trkpt><trkpt lat="43.41012206895493" lon="10.632132410994142"><ele>403.0</ele><time>2026-04-18T15:58:08Z</time></trkpt><trkpt lat="43.410170433730855" lon="10.632277860613451"><ele>403.0</ele><time>2026-04-18T15:58:09Z</time></trkpt><trkpt lat="43.410219513597596" lon="10.63241077755566"><ele>403.0</ele><time>2026-04-18T15:58:10Z</time></trkpt><trkpt lat="43.41028591717768" lon="10.632523658841"><ele>403.0</ele><time>2026-04-18T15:58:11Z</time></trkpt><trkpt lat="43.41037987322447" lon="10.63259325073107"><ele>403.0</ele><time>2026-04-18T15:58:12Z</time></trkpt><trkpt lat="43.410484829183446" lon="10.63265292583407"><ele>403.0</ele><time>2026-04-18T15:58:13Z</time></trkpt><trkpt lat="43.410606697901564" lon="10.632712517108983"><ele>403.0</ele><time>2026-04-18T15:58:14Z</time></trkpt><trkpt lat="43.410738699335994" lon="10.632761343291213"><ele>403.0</ele><time>2026-04-18T15:58:15.001Z</time></trkpt><trkpt lat="43.41083718541632" lon="10.632804355876418"><ele>399.59999999999997</ele><time>2026-04-18T15:58:16.001Z</time></trkpt><trkpt lat="43.410937796032144" lon="10.632862476527972"><ele>396.2</ele><time>2026-04-18T15:58:17.001Z</time></trkpt><trkpt lat="43.41101323137716" lon="10.632936825427787"><ele>392.8</ele><time>2026-04-18T15:58:18.001Z</time></trkpt><trkpt lat="43.41107268851074" lon="10.633030481690422"><ele>389.4</ele><time>2026-04-18T15:58:19.001Z</time></trkpt><trkpt lat="43.41111795444442" lon="10.63315061140999"><ele>386.0</ele><time>2026-04-18T15:58:20.001Z</time></trkpt><trkpt lat="43.41115706441185" lon="10.633284102082177"><ele>386.0</ele><time>2026-04-18T15:58:21.001Z</time></trkpt><trkpt lat="43.41119637884918" lon="10.633424373460489"><ele>386.0</ele><time>2026-04-18T15:58:22.001Z</time></trkpt><trkpt lat="43.41124087697716" lon="10.633569724528435"><ele>386.0</ele><time>2026-04-18T15:58:23.001Z</time></trkpt><trkpt lat="43.41128571397525" lon="10.633702156834874"><ele>386.0</ele><time>2026-04-18T15:58:24.001Z</time></trkpt><trkpt lat="43.41131967234129" lon="10.633829499021077"><ele>386.0</ele><time>2026-04-18T15:58:25.001Z</time></trkpt><trkpt lat="43.41134296808626" lon="10.633961386542234"><ele>384.75</ele><time>2026-04-18T15:58:26.001Z</time></trkpt><trkpt lat="43.41136942297516" lon="10.63411432768111"><ele>383.5</ele><time>2026-04-18T15:58:27.001Z</time></trkpt><trkpt lat="43.41139906209049" lon="10.634273277078615"><ele>382.25</ele><time>2026-04-18T15:58:28.001Z</time></trkpt><trkpt lat="43.411441914243674" lon="10.634429980955716"><ele>381.0</ele><time>2026-04-18T15:58:29.001Z</time></trkpt><trkpt lat="43.411492196425584" lon="10.634561013936558"><ele>381.0</ele><time>2026-04-18T15:58:30.001Z</time></trkpt><trkpt lat="43.41155355308262" lon="10.63470465189652"><ele>381.0</ele><time>2026-04-18T15:58:31.001Z</time></trkpt><trkpt lat="43.411617822308585" lon="10.634835910929981"><ele>381.0</ele><time>2026-04-18T15:58:31.998Z</time></trkpt><trkpt lat="43.411681756152994" lon="10.63496133969211"><ele>381.0</ele><time>2026-04-18T15:58:32.998Z</time></trkpt><trkpt lat="43.41175042922567" lon="10.635066033204144"><ele>381.0</ele><time>2026-04-18T15:58:33.998Z</time></trkpt><trkpt lat="43.41179974067855" lon="10.635158513779274"><ele>381.0</ele><time>2026-04-18T15:58:34.998Z</time></trkpt><trkpt lat="43.411848253555384" lon="10.635251639777806"><ele>381.0</ele><time>2026-04-18T15:58:35.998Z</time></trkpt><trkpt lat="43.41188527155724" lon="10.63534323948895"><ele>381.0</ele><time>2026-04-18T15:58:36.999Z</time></trkpt><trkpt lat="43.41191038726876" lon="10.635443841862847"><ele>381.0</ele><time>2026-04-18T15:58:37.999Z</time></trkpt><trkpt lat="43.41189899549528" lon="10.63556436797508"><ele>381.0</ele><time>2026-04-18T15:58:38.999Z</time></trkpt><trkpt lat="43.41189154946131" lon="10.635687185900224"><ele>381.6</ele><time>2026-04-18T15:58:39.999Z</time></trkpt><trkpt lat="43.411899560157984" lon="10.63580956919333"><ele>382.20000000000005</ele><time>2026-04-18T15:58:40.999Z</time></trkpt><trkpt lat="43.41192366441382" lon="10.635936077071372"><ele>382.79999999999995</ele><time>2026-04-18T15:58:41.999Z</time></trkpt><trkpt lat="43.411949837601846" lon="10.636056416418546"><ele>383.4</ele><time>2026-04-18T15:58:42.999Z</time></trkpt><trkpt lat="43.41198240638277" lon="10.636174742654928"><ele>384.0</ele><time>2026-04-18T15:58:43.999Z</time></trkpt><trkpt lat="43.41202154759741" lon="10.636285881030483"><ele>384.0</ele><time>2026-04-18T15:58:44.999Z</time></trkpt><trkpt lat="43.4120825781854" lon="10.636381611118818"><ele>384.0</ele><time>2026-04-18T15:58:45.999Z</time></trkpt><trkpt lat="43.41212594217249" lon="10.636495208029794"><ele>384.0</ele><time>2026-04-18T15:58:46.999Z</time></trkpt><trkpt lat="43.412204233843326" lon="10.63658254024699"><ele>384.0</ele><time>2026-04-18T15:58:47.999Z</time></trkpt><trkpt lat="43.41225811156725" lon="10.636693101358148"><ele>384.0</ele><time>2026-04-18T15:58:48.999Z</time></trkpt><trkpt lat="43.41233510766236" lon="10.63680489866863"><ele>381.5</ele><time>2026-04-18T15:58:49.999Z</time></trkpt><trkpt lat="43.412428665224525" lon="10.636906217230253"><ele>379.0</ele><time>2026-04-18T15:58:50.999Z</time></trkpt><trkpt lat="43.412510209626824" lon="10.637029046313396"><ele>376.5</ele><time>2026-04-18T15:58:51.999Z</time></trkpt><trkpt lat="43.41259114004642" lon="10.63716177492937"><ele>374.0</ele><time>2026-04-18T15:58:52.999Z</time></trkpt><trkpt lat="43.41267981046133" lon="10.637292904935176"><ele>373.2</ele><time>2026-04-18T15:58:53.999Z</time></trkpt><trkpt lat="43.412763867371474" lon="10.637418808015838"><ele>372.4</ele><time>2026-04-18T15:58:54.999Z</time></trkpt><trkpt lat="43.412829178993256" lon="10.637557092200016"><ele>371.6</ele><time>2026-04-18T15:58:55.999Z</time></trkpt><trkpt lat="43.41291334680773" lon="10.637646953543694"><ele>370.8</ele><time>2026-04-18T15:58:56.999Z</time></trkpt><trkpt lat="43.41297580572622" lon="10.637737814524403"><ele>370.0</ele><time>2026-04-18T15:58:57.999Z</time></trkpt><trkpt lat="43.41306956988499" lon="10.637784832688528"><ele>367.8</ele><time>2026-04-18T15:58:58.999Z</time></trkpt><trkpt lat="43.41313842681798" lon="10.637802157502707"><ele>365.6</ele><time>2026-04-18T15:58:59.999Z</time></trkpt><trkpt lat="43.41323808873758" lon="10.637829409475312"><ele>363.4</ele><time>2026-04-18T15:59:01.999Z</time></trkpt><trkpt lat="43.41335060118916" lon="10.63786130994084"><ele>361.2</ele><time>2026-04-18T15:59:03.999Z</time></trkpt><trkpt lat="43.413465141796244" lon="10.637879302116758"><ele>359.0</ele><time>2026-04-18T15:59:05.999Z</time></trkpt><trkpt lat="43.413532819950035" lon="10.637917647415398"><ele>359.0</ele><time>2026-04-18T15:59:06.999Z</time></trkpt><trkpt lat="43.413607845107386" lon="10.637948683261897"><ele>359.0</ele><time>2026-04-18T15:59:08Z</time></trkpt><trkpt lat="43.4136753821678" lon="10.638002965403459"><ele>359.0</ele><time>2026-04-18T15:59:09Z</time></trkpt><trkpt lat="43.413742208824296" lon="10.638080727355154"><ele>359.0</ele><time>2026-04-18T15:59:10Z</time></trkpt><trkpt lat="43.41381686135678" lon="10.63816211462508"><ele>359.0</ele><time>2026-04-18T15:59:11Z</time></trkpt><trkpt lat="43.413894668348604" lon="10.638238117857787"><ele>359.0</ele><time>2026-04-18T15:59:12Z</time></trkpt><trkpt lat="43.41399175776961" lon="10.638302744724559"><ele>360.2</ele><time>2026-04-18T15:59:13Z</time></trkpt><trkpt lat="43.41410658925487" lon="10.638361039234345"><ele>361.4</ele><time>2026-04-18T15:59:14Z</time></trkpt><trkpt lat="43.41418167698861" lon="10.638397878889675"><ele>362.6</ele><time>2026-04-18T15:59:15Z</time></trkpt><trkpt lat="43.414267287813644" lon="10.63845571999079"><ele>363.8</ele><time>2026-04-18T15:59:16Z</time></trkpt><trkpt lat="43.41433383983156" lon="10.638538175020019"><ele>365.0</ele><time>2026-04-18T15:59:17Z</time></trkpt><trkpt lat="43.41439328414685" lon="10.638638075022701"><ele>363.8</ele><time>2026-04-18T15:59:18Z</time></trkpt><trkpt lat="43.41444959315835" lon="10.638746851355425"><ele>362.6</ele><time>2026-04-18T15:59:19Z</time></trkpt><trkpt lat="43.41451784132493" lon="10.638840076465867"><ele>361.4</ele><time>2026-04-18T15:59:20Z</time></trkpt><trkpt lat="43.41458269504065" lon="10.63890140836668"><ele>360.2</ele><time>2026-04-18T15:59:21Z</time></trkpt><trkpt lat="43.414641366412894" lon="10.638948124112307"><ele>359.0</ele><time>2026-04-18T15:59:22Z</time></trkpt><trkpt lat="43.41475841292094" lon="10.639033120461779"><ele>359.0</ele><time>2026-04-18T15:59:23Z</time></trkpt><trkpt lat="43.414846649674445" lon="10.639094872182065"><ele>359.0</ele><time>2026-04-18T15:59:24Z</time></trkpt><trkpt lat="43.41494470211964" lon="10.639142865961201"><ele>359.0</ele><time>2026-04-18T15:59:25Z</time></trkpt><trkpt lat="43.415041011311764" lon="10.639216588729992"><ele>359.0</ele><time>2026-04-18T15:59:26Z</time></trkpt><trkpt lat="43.415129852953974" lon="10.63931258139944"><ele>359.0</ele><time>2026-04-18T15:59:27Z</time></trkpt><trkpt lat="43.415227630890136" lon="10.639395430985559"><ele>360.2</ele><time>2026-04-18T15:59:28Z</time></trkpt><trkpt lat="43.41530570383085" lon="10.639491262548319"><ele>361.4</ele><time>2026-04-18T15:59:29Z</time></trkpt><trkpt lat="43.41538328788637" lon="10.63959275372464"><ele>362.6</ele><time>2026-04-18T15:59:30Z</time></trkpt><trkpt lat="43.4154635637703" lon="10.639678004134256"><ele>363.8</ele><time>2026-04-18T15:59:31Z</time></trkpt><trkpt lat="43.41553521179033" lon="10.639763893400348"><ele>365.0</ele><time>2026-04-18T15:59:32Z</time></trkpt><trkpt lat="43.41561577655886" lon="10.639842689525297"><ele>365.0</ele><time>2026-04-18T15:59:33Z</time></trkpt><trkpt lat="43.41569653180746" lon="10.639934827597282"><ele>365.0</ele><time>2026-04-18T15:59:34Z</time></trkpt><trkpt lat="43.415790470691526" lon="10.64000444875246"><ele>365.0</ele><time>2026-04-18T15:59:35Z</time></trkpt><trkpt lat="43.41588318198102" lon="10.64006595103471"><ele>365.0</ele><time>2026-04-18T15:59:36Z</time></trkpt><trkpt lat="43.41597604944053" lon="10.640119637205341"><ele>365.0</ele><time>2026-04-18T15:59:37Z</time></trkpt><trkpt lat="43.41607316035893" lon="10.64015255007361"><ele>365.0</ele><time>2026-04-18T15:59:38Z</time></trkpt><trkpt lat="43.41618086352908" lon="10.640153523358155"><ele>365.0</ele><time>2026-04-18T15:59:39Z</time></trkpt><trkpt lat="43.416284111372235" lon="10.640193369068724"><ele>365.0</ele><time>2026-04-18T15:59:40Z</time></trkpt><trkpt lat="43.416391216923785" lon="10.640184722931778"><ele>365.0</ele><time>2026-04-18T15:59:41Z</time></trkpt><trkpt lat="43.41647913140455" lon="10.640203075278814"><ele>365.0</ele><time>2026-04-18T15:59:42Z</time></trkpt><trkpt lat="43.41656835688028" lon="10.640250254793647"><ele>365.6</ele><time>2026-04-18T15:59:43Z</time></trkpt><trkpt lat="43.416642522237794" lon="10.64028617002685"><ele>366.2</ele><time>2026-04-18T15:59:44Z</time></trkpt><trkpt lat="43.41668357658174" lon="10.64039166582379"><ele>366.79999999999995</ele><time>2026-04-18T15:59:45Z</time></trkpt><trkpt lat="43.41675714679291" lon="10.640485494072088"><ele>367.4</ele><time>2026-04-18T15:59:46Z</time></trkpt><trkpt lat="43.416851658775236" lon="10.640598240908085"><ele>368.0</ele><time>2026-04-18T15:59:47Z</time></trkpt><trkpt lat="43.41693047014808" lon="10.64069327966354"><ele>367.5</ele><time>2026-04-18T15:59:48Z</time></trkpt><trkpt lat="43.417028621983164" lon="10.640789292797049"><ele>367.0</ele><time>2026-04-18T15:59:49Z</time></trkpt><trkpt lat="43.41711368869758" lon="10.640928671141191"><ele>366.5</ele><time>2026-04-18T15:59:50Z</time></trkpt><trkpt lat="43.41720698769039" lon="10.641053554091432"><ele>366.0</ele><time>2026-04-18T15:59:51Z</time></trkpt><trkpt lat="43.417306976020214" lon="10.641149111229403"><ele>365.75</ele><time>2026-04-18T15:59:52Z</time></trkpt><trkpt lat="43.41740173874673" lon="10.64128021336073"><ele>365.5</ele><time>2026-04-18T15:59:53Z</time></trkpt><trkpt lat="43.41749069089765" lon="10.641365925692888"><ele>365.25</ele><time>2026-04-18T15:59:54Z</time></trkpt><trkpt lat="43.41757359494772" lon="10.64146704430046"><ele>365.0</ele><time>2026-04-18T15:59:55Z</time></trkpt><trkpt lat="43.417658876444285" lon="10.641569996216566"><ele>365.0</ele><time>2026-04-18T15:59:56Z</time></trkpt><trkpt lat="43.41773236838322" lon="10.64168176310424"><ele>365.0</ele><time>2026-04-18T15:59:57Z</time></trkpt><trkpt lat="43.41780976828134" lon="10.641767843427152"><ele>365.0</ele><time>2026-04-18T15:59:58Z</time></trkpt><trkpt lat="43.41786912036787" lon="10.64186295644972"><ele>365.0</ele><time>2026-04-18T15:59:59Z</time></trkpt><trkpt lat="43.417932270304824" lon="10.641963864911464"><ele>365.0</ele><time>2026-04-18T16:00:00Z</time></trkpt><trkpt lat="43.418004469215" lon="10.64205469141414"><ele>365.6</ele><time>2026-04-18T16:00:01Z</time></trkpt><trkpt lat="43.41808094307107" lon="10.642140962551723"><ele>366.2</ele><time>2026-04-18T16:00:02Z</time></trkpt><trkpt lat="43.41817217365005" lon="10.642206121411192"><ele>366.79999999999995</ele><time>2026-04-18T16:00:03Z</time></trkpt><trkpt lat="43.41826670772107" lon="10.64227308256171"><ele>367.4</ele><time>2026-04-18T16:00:04Z</time></trkpt><trkpt lat="43.41834496411194" lon="10.642357735358281"><ele>368.0</ele><time>2026-04-18T16:00:05Z</time></trkpt><trkpt lat="43.41841669725897" lon="10.64246035382326"><ele>368.0</ele><time>2026-04-18T16:00:06Z</time></trkpt><trkpt lat="43.41849244179093" lon="10.642551054022391"><ele>368.0</ele><time>2026-04-18T16:00:07Z</time></trkpt><trkpt lat="43.41858148773235" lon="10.642616008004131"><ele>368.0</ele><time>2026-04-18T16:00:08Z</time></trkpt><trkpt lat="43.41868295964557" lon="10.642668928450679"><ele>368.0</ele><time>2026-04-18T16:00:09Z</time></trkpt><trkpt lat="43.41878743736182" lon="10.642733378750124"><ele>368.0</ele><time>2026-04-18T16:00:10Z</time></trkpt><trkpt lat="43.41888692490976" lon="10.642801291403329"><ele>369.59999999999997</ele><time>2026-04-18T16:00:11Z</time></trkpt><trkpt lat="43.41897227483225" lon="10.642900858427103"><ele>371.2</ele><time>2026-04-18T16:00:12Z</time></trkpt><trkpt lat="43.419062063125104" lon="10.642987089367463"><ele>372.8</ele><time>2026-04-18T16:00:13Z</time></trkpt><trkpt lat="43.41915444460108" lon="10.643065762402264"><ele>374.4</ele><time>2026-04-18T16:00:14Z</time></trkpt><trkpt lat="43.419257784856555" lon="10.643138497540113"><ele>376.0</ele><time>2026-04-18T16:00:15Z</time></trkpt><trkpt lat="43.41936894167131" lon="10.643194195329036"><ele>376.0</ele><time>2026-04-18T16:00:16Z</time></trkpt><trkpt lat="43.41946976427058" lon="10.643254679406018"><ele>376.0</ele><time>2026-04-18T16:00:17Z</time></trkpt><trkpt lat="43.41955762531603" lon="10.64331176585379"><ele>376.0</ele><time>2026-04-18T16:00:18Z</time></trkpt><trkpt lat="43.419627382803796" lon="10.643367940665087"><ele>376.0</ele><time>2026-04-18T16:00:19Z</time></trkpt><trkpt lat="43.41968134041342" lon="10.643431635841953"><ele>376.0</ele><time>2026-04-18T16:00:20Z</time></trkpt><trkpt lat="43.419741264203005" lon="10.643514917850489"><ele>376.0</ele><time>2026-04-18T16:00:21Z</time></trkpt><trkpt lat="43.41980446699452" lon="10.643615924896496"><ele>376.8</ele><time>2026-04-18T16:00:22Z</time></trkpt><trkpt lat="43.419860581928425" lon="10.64371161249975"><ele>377.6</ele><time>2026-04-18T16:00:23.001Z</time></trkpt><trkpt lat="43.419933743470004" lon="10.64379989286127"><ele>378.4</ele><time>2026-04-18T16:00:24.001Z</time></trkpt><trkpt lat="43.41998010996269" lon="10.643901919031231"><ele>379.2</ele><time>2026-04-18T16:00:25.001Z</time></trkpt><trkpt lat="43.42006412865045" lon="10.64399521048073"><ele>380.0</ele><time>2026-04-18T16:00:26.001Z</time></trkpt><trkpt lat="43.42014966433831" lon="10.644117625904656"><ele>380.0</ele><time>2026-04-18T16:00:27.001Z</time></trkpt><trkpt lat="43.420238260995184" lon="10.644227201974058"><ele>380.0</ele><time>2026-04-18T16:00:28.001Z</time></trkpt><trkpt lat="43.42031797401593" lon="10.644330754342695"><ele>380.0</ele><time>2026-04-18T16:00:29.001Z</time></trkpt><trkpt lat="43.42040495506965" lon="10.644435196242158"><ele>380.0</ele><time>2026-04-18T16:00:30.001Z</time></trkpt><trkpt lat="43.42051115743677" lon="10.64452000636663"><ele>378.25</ele><time>2026-04-18T16:00:31.001Z</time></trkpt><trkpt lat="43.420626459512214" lon="10.644589786729394"><ele>376.5</ele><time>2026-04-18T16:00:32.001Z</time></trkpt><trkpt lat="43.42072952654385" lon="10.64466989660243"><ele>374.75</ele><time>2026-04-18T16:00:33.001Z</time></trkpt><trkpt lat="43.42082744570563" lon="10.644776434968943"><ele>373.0</ele><time>2026-04-18T16:00:34.001Z</time></trkpt><trkpt lat="43.4209170400152" lon="10.64487010778942"><ele>373.0</ele><time>2026-04-18T16:00:35.001Z</time></trkpt><trkpt lat="43.42100682620782" lon="10.64497514029752"><ele>373.0</ele><time>2026-04-18T16:00:36.001Z</time></trkpt><trkpt lat="43.4210899542721" lon="10.64507452735194"><ele>373.0</ele><time>2026-04-18T16:00:37.001Z</time></trkpt><trkpt lat="43.421184504168195" lon="10.645174573242791"><ele>373.0</ele><time>2026-04-18T16:00:37.998Z</time></trkpt><trkpt lat="43.421295296062894" lon="10.645255826950308"><ele>371.5</ele><time>2026-04-18T16:00:38.998Z</time></trkpt><trkpt lat="43.421396709008256" lon="10.645361217608606"><ele>370.0</ele><time>2026-04-18T16:00:39.998Z</time></trkpt><trkpt lat="43.42149750502845" lon="10.645466628813324"><ele>368.5</ele><time>2026-04-18T16:00:40.998Z</time></trkpt><trkpt lat="43.4216012862895" lon="10.645544981493002"><ele>367.0</ele><time>2026-04-18T16:00:41.998Z</time></trkpt><trkpt lat="43.42170479978617" lon="10.645626759087646"><ele>367.0</ele><time>2026-04-18T16:00:42.999Z</time></trkpt><trkpt lat="43.42180551228442" lon="10.645694269483336"><ele>367.0</ele><time>2026-04-18T16:00:43.999Z</time></trkpt><trkpt lat="43.42190322623434" lon="10.645754306495206"><ele>367.0</ele><time>2026-04-18T16:00:44.999Z</time></trkpt><trkpt lat="43.42200161501672" lon="10.645816613615274"><ele>367.0</ele><time>2026-04-18T16:00:45.999Z</time></trkpt><trkpt lat="43.42210696448867" lon="10.64587847487066"><ele>367.0</ele><time>2026-04-18T16:00:46.999Z</time></trkpt><trkpt lat="43.42220961567745" lon="10.645936860968956"><ele>365.6</ele><time>2026-04-18T16:00:47.999Z</time></trkpt><trkpt lat="43.42230401288919" lon="10.645976617010461"><ele>364.20000000000005</ele><time>2026-04-18T16:00:48.999Z</time></trkpt><trkpt lat="43.422402066078284" lon="10.646003543881491"><ele>362.8</ele><time>2026-04-18T16:00:49.999Z</time></trkpt><trkpt lat="43.42248725931572" lon="10.646074373776223"><ele>361.4</ele><time>2026-04-18T16:00:50.999Z</time></trkpt><trkpt lat="43.4225837410383" lon="10.646121527562167"><ele>360.0</ele><time>2026-04-18T16:00:51.999Z</time></trkpt><trkpt lat="43.4226658508892" lon="10.646199274868257"><ele>357.6666666666667</ele><time>2026-04-18T16:00:52.999Z</time></trkpt><trkpt lat="43.42275063925006" lon="10.646271201015756"><ele>355.3333333333333</ele><time>2026-04-18T16:00:53.999Z</time></trkpt><trkpt lat="43.42283585528428" lon="10.646327265297701"><ele>353.0</ele><time>2026-04-18T16:00:54.999Z</time></trkpt><trkpt lat="43.42291322376398" lon="10.646371669259855"><ele>350.66666666666663</ele><time>2026-04-18T16:00:55.999Z</time></trkpt><trkpt lat="43.42297911532735" lon="10.64641938622061"><ele>348.3333333333333</ele><time>2026-04-18T16:00:56.999Z</time></trkpt><trkpt lat="43.423040695229126" lon="10.646455762308902"><ele>346.0</ele><time>2026-04-18T16:00:57.999Z</time></trkpt><trkpt lat="43.42310262302275" lon="10.646495774765919"><ele>346.0</ele><time>2026-04-18T16:00:58.999Z</time></trkpt><trkpt lat="43.423173117230256" lon="10.646538067910368"><ele>346.0</ele><time>2026-04-18T16:00:59.999Z</time></trkpt><trkpt lat="43.42325050726378" lon="10.64659158371156"><ele>346.0</ele><time>2026-04-18T16:01:00.999Z</time></trkpt><trkpt lat="43.42333299057088" lon="10.646638282783064"><ele>346.0</ele><time>2026-04-18T16:01:01.999Z</time></trkpt><trkpt lat="43.42342782197375" lon="10.646689504497798"><ele>346.0</ele><time>2026-04-18T16:01:02.999Z</time></trkpt><trkpt lat="43.423529475723136" lon="10.646742761861953"><ele>346.0</ele><time>2026-04-18T16:01:03.999Z</time></trkpt><trkpt lat="43.423639541723055" lon="10.6468117815608"><ele>346.0</ele><time>2026-04-18T16:01:04.999Z</time></trkpt><trkpt lat="43.423750564463944" lon="10.646854135866644"><ele>346.0</ele><time>2026-04-18T16:01:05.999Z</time></trkpt><trkpt lat="43.423863983257284" lon="10.646892652774934"><ele>346.0</ele><time>2026-04-18T16:01:06.999Z</time></trkpt><trkpt lat="43.42395430172597" lon="10.646970326749893"><ele>340.8</ele><time>2026-04-18T16:01:07.999Z</time></trkpt><trkpt lat="43.4240403588319" lon="10.647028155216308"><ele>335.6</ele><time>2026-04-18T16:01:09Z</time></trkpt><trkpt lat="43.42411976609498" lon="10.647087763336154"><ele>330.4</ele><time>2026-04-18T16:01:10Z</time></trkpt><trkpt lat="43.42422127464176" lon="10.647145450147002"><ele>325.2</ele><time>2026-04-18T16:01:11Z</time></trkpt><trkpt lat="43.42429711442126" lon="10.647250093567079"><ele>320.0</ele><time>2026-04-18T16:01:12Z</time></trkpt><trkpt lat="43.42438813385559" lon="10.64733462557628"><ele>320.0</ele><time>2026-04-18T16:01:13Z</time></trkpt><trkpt lat="43.42448457623786" lon="10.6474250209533"><ele>320.0</ele><time>2026-04-18T16:01:14Z</time></trkpt><trkpt lat="43.42457061811041" lon="10.647528952634078"><ele>320.0</ele><time>2026-04-18T16:01:15Z</time></trkpt><trkpt lat="43.42464217940592" lon="10.647616480612259"><ele>320.0</ele><time>2026-04-18T16:01:16Z</time></trkpt><trkpt lat="43.42472953287969" lon="10.647698451074465"><ele>320.0</ele><time>2026-04-18T16:01:17Z</time></trkpt><trkpt lat="43.42481099226096" lon="10.64778712721022"><ele>317.2</ele><time>2026-04-18T16:01:18Z</time></trkpt><trkpt lat="43.42486216757421" lon="10.647917945268848"><ele>314.4</ele><time>2026-04-18T16:01:19Z</time></trkpt><trkpt lat="43.424891293802986" lon="10.648041836626295"><ele>311.6</ele><time>2026-04-18T16:01:20Z</time></trkpt><trkpt lat="43.424912639601" lon="10.648179553731875"><ele>308.8</ele><time>2026-04-18T16:01:21Z</time></trkpt><trkpt lat="43.4249255669708" lon="10.648334268246916"><ele>306.0</ele><time>2026-04-18T16:01:22Z</time></trkpt><trkpt lat="43.4249278295666" lon="10.648497635159977"><ele>305.6</ele><time>2026-04-18T16:01:23Z</time></trkpt><trkpt lat="43.42493227286821" lon="10.64866992996221"><ele>305.20000000000005</ele><time>2026-04-18T16:01:24Z</time></trkpt><trkpt lat="43.424942594743506" lon="10.648825586001223"><ele>304.79999999999995</ele><time>2026-04-18T16:01:25Z</time></trkpt><trkpt lat="43.42496315134612" lon="10.64897438614629"><ele>304.4</ele><time>2026-04-18T16:01:26Z</time></trkpt><trkpt lat="43.42499685718452" lon="10.64909324980166"><ele>304.0</ele><time>2026-04-18T16:01:27Z</time></trkpt><trkpt lat="43.425060644871714" lon="10.64917830879788"><ele>304.0</ele><time>2026-04-18T16:01:28Z</time></trkpt><trkpt lat="43.42513077020428" lon="10.64928592266145"><ele>304.0</ele><time>2026-04-18T16:01:29Z</time></trkpt><trkpt lat="43.42520177681746" lon="10.649375345716956"><ele>304.0</ele><time>2026-04-18T16:01:30Z</time></trkpt><trkpt lat="43.425276337498865" lon="10.649491578876658"><ele>304.0</ele><time>2026-04-18T16:01:31Z</time></trkpt><trkpt lat="43.42538920022579" lon="10.649591572357474"><ele>304.0</ele><time>2026-04-18T16:01:33Z</time></trkpt><trkpt lat="43.425421116676354" lon="10.64970614503264"><ele>303.5</ele><time>2026-04-18T16:01:34Z</time></trkpt><trkpt lat="43.425449915890916" lon="10.649783561902643"><ele>303.0</ele><time>2026-04-18T16:01:35Z</time></trkpt><trkpt lat="43.42545303911961" lon="10.649880948329033"><ele>302.5</ele><time>2026-04-18T16:01:36Z</time></trkpt><trkpt lat="43.42544240425316" lon="10.649996634544827"><ele>302.0</ele><time>2026-04-18T16:01:37Z</time></trkpt><trkpt lat="43.42539959333843" lon="10.650103743462768"><ele>301.5</ele><time>2026-04-18T16:01:38Z</time></trkpt><trkpt lat="43.42537238677667" lon="10.650182978211179"><ele>301.0</ele><time>2026-04-18T16:01:39Z</time></trkpt><trkpt lat="43.42534512356243" lon="10.650308534741177"><ele>298.66666666666663</ele><time>2026-04-18T16:01:40Z</time></trkpt><trkpt lat="43.42533764090979" lon="10.650419099039842"><ele>296.3333333333333</ele><time>2026-04-18T16:01:42Z</time></trkpt><trkpt lat="43.42535819977239" lon="10.650577615365833"><ele>294.0</ele><time>2026-04-18T16:01:44Z</time></trkpt><trkpt lat="43.425368353214246" lon="10.650684976534158"><ele>291.6666666666667</ele><time>2026-04-18T16:01:45Z</time></trkpt><trkpt lat="43.42536254964929" lon="10.650781424814264"><ele>289.33333333333337</ele><time>2026-04-18T16:01:46Z</time></trkpt><trkpt lat="43.42539205749876" lon="10.650905090211976"><ele>287.0</ele><time>2026-04-18T16:01:47Z</time></trkpt><trkpt lat="43.42540087484981" lon="10.65102917638915"><ele>285.33333333333337</ele><time>2026-04-18T16:01:48Z</time></trkpt><trkpt lat="43.42544308685514" lon="10.651147795955891"><ele>283.6666666666667</ele><time>2026-04-18T16:01:49Z</time></trkpt><trkpt lat="43.42548610768105" lon="10.651229945314697"><ele>282.0</ele><time>2026-04-18T16:01:50Z</time></trkpt><trkpt lat="43.42554168340615" lon="10.651310355714118"><ele>280.3333333333333</ele><time>2026-04-18T16:01:51Z</time></trkpt><trkpt lat="43.425605315011154" lon="10.651377533083942"><ele>278.66666666666663</ele><time>2026-04-18T16:01:52Z</time></trkpt><trkpt lat="43.42567868071201" lon="10.651441118968695"><ele>277.0</ele><time>2026-04-18T16:01:53Z</time></trkpt><trkpt lat="43.4257589760841" lon="10.651495201714836"><ele>275.66666666666663</ele><time>2026-04-18T16:01:54Z</time></trkpt><trkpt lat="43.42581690487155" lon="10.651530533791213"><ele>274.3333333333333</ele><time>2026-04-18T16:01:55Z</time></trkpt><trkpt lat="43.425875140698835" lon="10.651579519970905"><ele>273.0</ele><time>2026-04-18T16:01:56Z</time></trkpt><trkpt lat="43.42598813035092" lon="10.651663240536761"><ele>271.6666666666667</ele><time>2026-04-18T16:01:58Z</time></trkpt><trkpt lat="43.42606453358526" lon="10.651705174541512"><ele>270.33333333333337</ele><time>2026-04-18T16:01:59Z</time></trkpt><trkpt lat="43.42614276911273" lon="10.651754788148567"><ele>269.0</ele><time>2026-04-18T16:02:00Z</time></trkpt><trkpt lat="43.42621304960169" lon="10.651827248177854"><ele>269.0</ele><time>2026-04-18T16:02:01.001Z</time></trkpt><trkpt lat="43.42626727778263" lon="10.651914904448894"><ele>269.0</ele><time>2026-04-18T16:02:02.001Z</time></trkpt><trkpt lat="43.42632363079522" lon="10.652013754881322"><ele>269.0</ele><time>2026-04-18T16:02:03.001Z</time></trkpt><trkpt lat="43.42638672758435" lon="10.652102671756536"><ele>269.0</ele><time>2026-04-18T16:02:04.001Z</time></trkpt><trkpt lat="43.426463952287" lon="10.652189125866778"><ele>269.0</ele><time>2026-04-18T16:02:05.001Z</time></trkpt><trkpt lat="43.42653614215647" lon="10.652243440016552"><ele>269.0</ele><time>2026-04-18T16:02:06.001Z</time></trkpt><trkpt lat="43.42661330874046" lon="10.652309844181548"><ele>266.1666666666667</ele><time>2026-04-18T16:02:07.001Z</time></trkpt><trkpt lat="43.426691870506446" lon="10.652341538145754"><ele>263.33333333333337</ele><time>2026-04-18T16:02:08.001Z</time></trkpt><trkpt lat="43.426780594802686" lon="10.652360676647689"><ele>260.5</ele><time>2026-04-18T16:02:09.001Z</time></trkpt><trkpt lat="43.42686272674405" lon="10.652393414710417"><ele>257.6666666666667</ele><time>2026-04-18T16:02:10.001Z</time></trkpt><trkpt lat="43.4269304379224" lon="10.652407832426237"><ele>254.83333333333334</ele><time>2026-04-18T16:02:11.001Z</time></trkpt><trkpt lat="43.42703965954015" lon="10.652439222591862"><ele>252.0</ele><time>2026-04-18T16:02:13.001Z</time></trkpt><trkpt lat="43.42713242505722" lon="10.652476953375576"><ele>250.33333333333334</ele><time>2026-04-18T16:02:14.001Z</time></trkpt><trkpt lat="43.42721713137772" lon="10.652495716102372"><ele>248.66666666666669</ele><time>2026-04-18T16:02:15.001Z</time></trkpt><trkpt lat="43.42729516984831" lon="10.652544037944347"><ele>247.0</ele><time>2026-04-18T16:02:16.001Z</time></trkpt><trkpt lat="43.42736783591498" lon="10.65259428153637"><ele>245.33333333333334</ele><time>2026-04-18T16:02:17.001Z</time></trkpt><trkpt lat="43.42745174206445" lon="10.652650863049658"><ele>243.66666666666669</ele><time>2026-04-18T16:02:18.001Z</time></trkpt><trkpt lat="43.42752678938399" lon="10.652722050040225"><ele>242.0</ele><time>2026-04-18T16:02:19.001Z</time></trkpt><trkpt lat="43.427582068131656" lon="10.652813357108865"><ele>240.66666666666669</ele><time>2026-04-18T16:02:20.001Z</time></trkpt><trkpt lat="43.42762490395936" lon="10.652912477565316"><ele>239.33333333333334</ele><time>2026-04-18T16:02:21.001Z</time></trkpt><trkpt lat="43.42765266848596" lon="10.653033988408716"><ele>238.0</ele><time>2026-04-18T16:02:22.001Z</time></trkpt><trkpt lat="43.427650907168875" lon="10.65315277642138"><ele>236.66666666666669</ele><time>2026-04-18T16:02:23.001Z</time></trkpt><trkpt lat="43.427645603919686" lon="10.653263297163585"><ele>235.33333333333334</ele><time>2026-04-18T16:02:24.001Z</time></trkpt><trkpt lat="43.42763431237812" lon="10.653381101016063"><ele>234.0</ele><time>2026-04-18T16:02:25.001Z</time></trkpt><trkpt lat="43.42758594364617" lon="10.653487599624341"><ele>234.0</ele><time>2026-04-18T16:02:26.001Z</time></trkpt><trkpt lat="43.42752578023065" lon="10.653581963874554"><ele>234.0</ele><time>2026-04-18T16:02:27.001Z</time></trkpt><trkpt lat="43.42746700687694" lon="10.653668786564783"><ele>234.0</ele><time>2026-04-18T16:02:28.001Z</time></trkpt><trkpt lat="43.42741165228333" lon="10.653750388649396"><ele>234.0</ele><time>2026-04-18T16:02:29.001Z</time></trkpt><trkpt lat="43.427357254775934" lon="10.65383214169795"><ele>234.0</ele><time>2026-04-18T16:02:30.001Z</time></trkpt><trkpt lat="43.42730640037436" lon="10.653919910270226"><ele>234.0</ele><time>2026-04-18T16:02:31.001Z</time></trkpt><trkpt lat="43.42725952289345" lon="10.654042639558885"><ele>232.0</ele><time>2026-04-18T16:02:33.001Z</time></trkpt><trkpt lat="43.427204294513714" lon="10.654161463454848"><ele>230.0</ele><time>2026-04-18T16:02:35.001Z</time></trkpt><trkpt lat="43.42718590823233" lon="10.654250325342216"><ele>228.0</ele><time>2026-04-18T16:02:36.001Z</time></trkpt><trkpt lat="43.42718471354381" lon="10.654363218548477"><ele>226.0</ele><time>2026-04-18T16:02:37.001Z</time></trkpt><trkpt lat="43.427201375824495" lon="10.654480872068666"><ele>224.0</ele><time>2026-04-18T16:02:38.001Z</time></trkpt><trkpt lat="43.42722793769549" lon="10.654595118491722"><ele>222.0</ele><time>2026-04-18T16:02:39.001Z</time></trkpt><trkpt lat="43.42727114322639" lon="10.65469282634555"><ele>220.0</ele><time>2026-04-18T16:02:40.001Z</time></trkpt><trkpt lat="43.42733084138374" lon="10.654773544171439"><ele>218.0</ele><time>2026-04-18T16:02:41.001Z</time></trkpt><trkpt lat="43.42739960035475" lon="10.654833528308334"><ele>216.0</ele><time>2026-04-18T16:02:42.001Z</time></trkpt><trkpt lat="43.427467783624" lon="10.654867767765738"><ele>214.0</ele><time>2026-04-18T16:02:43.001Z</time></trkpt><trkpt lat="43.42753645564915" lon="10.65489923301962"><ele>212.0</ele><time>2026-04-18T16:02:43.999Z</time></trkpt><trkpt lat="43.427598504427586" lon="10.654925669349185"><ele>210.0</ele><time>2026-04-18T16:02:44.999Z</time></trkpt><trkpt lat="43.42766923763873" lon="10.654959938146794"><ele>210.0</ele><time>2026-04-18T16:02:45.999Z</time></trkpt><trkpt lat="43.42774466330226" lon="10.6549961154443"><ele>210.0</ele><time>2026-04-18T16:02:46.999Z</time></trkpt><trkpt lat="43.427824031099306" lon="10.655040754897247"><ele>210.0</ele><time>2026-04-18T16:02:47.999Z</time></trkpt><trkpt lat="43.42790622600085" lon="10.655082166988144"><ele>210.0</ele><time>2026-04-18T16:02:48.999Z</time></trkpt><trkpt lat="43.4279893559031" lon="10.655132867335837"><ele>210.0</ele><time>2026-04-18T16:02:49.999Z</time></trkpt><trkpt lat="43.428074938508274" lon="10.655182981438442"><ele>210.0</ele><time>2026-04-18T16:02:50.999Z</time></trkpt><trkpt lat="43.428160594017776" lon="10.65524932592768"><ele>206.8</ele><time>2026-04-18T16:02:51.999Z</time></trkpt><trkpt lat="43.42824696985931" lon="10.655317888431622"><ele>203.6</ele><time>2026-04-18T16:02:52.999Z</time></trkpt><trkpt lat="43.42833150727468" lon="10.655398733629779"><ele>200.39999999999998</ele><time>2026-04-18T16:02:53.999Z</time></trkpt><trkpt lat="43.428416382761206" lon="10.655483805962762"><ele>197.2</ele><time>2026-04-18T16:02:54.999Z</time></trkpt><trkpt lat="43.42849240966266" lon="10.655584568216607"><ele>194.0</ele><time>2026-04-18T16:02:55.999Z</time></trkpt><trkpt lat="43.42856118019382" lon="10.65570012876295"><ele>194.00000000000003</ele><time>2026-04-18T16:02:56.999Z</time></trkpt><trkpt lat="43.428622868656625" lon="10.655822191010104"><ele>194.0</ele><time>2026-04-18T16:02:57.999Z</time></trkpt><trkpt lat="43.42866918855555" lon="10.655938029254198"><ele>194.0</ele><time>2026-04-18T16:02:58.999Z</time></trkpt><trkpt lat="43.42871916573523" lon="10.656014362187282"><ele>194.0</ele><time>2026-04-18T16:02:59.999Z</time></trkpt><trkpt lat="43.428776351664816" lon="10.656075880772711"><ele>194.00000000000003</ele><time>2026-04-18T16:03:00.999Z</time></trkpt><trkpt lat="43.428840762655696" lon="10.656127216641208"><ele>194.0</ele><time>2026-04-18T16:03:01.999Z</time></trkpt><trkpt lat="43.428909818986405" lon="10.656164591668562"><ele>192.33333333333334</ele><time>2026-04-18T16:03:02.999Z</time></trkpt><trkpt lat="43.42897717864758" lon="10.656188149458394"><ele>190.66666666666669</ele><time>2026-04-18T16:03:03.999Z</time></trkpt><trkpt lat="43.42905383854108" lon="10.65621442033385"><ele>189.0</ele><time>2026-04-18T16:03:04.999Z</time></trkpt><trkpt lat="43.42913360546459" lon="10.656234991230532"><ele>187.33333333333334</ele><time>2026-04-18T16:03:05.999Z</time></trkpt><trkpt lat="43.429221411054215" lon="10.656277015925058"><ele>185.66666666666669</ele><time>2026-04-18T16:03:06.999Z</time></trkpt><trkpt lat="43.42929070891199" lon="10.656330372504115"><ele>184.0</ele><time>2026-04-18T16:03:07.999Z</time></trkpt><trkpt lat="43.42934014160453" lon="10.656395632626975"><ele>184.0</ele><time>2026-04-18T16:03:08.999Z</time></trkpt><trkpt lat="43.42939888370335" lon="10.656523831079435"><ele>184.0</ele><time>2026-04-18T16:03:11Z</time></trkpt><trkpt lat="43.42947941614024" lon="10.656587431009987"><ele>184.0</ele><time>2026-04-18T16:03:14Z</time></trkpt><trkpt lat="43.42955693586411" lon="10.656664525999778"><ele>184.0</ele><time>2026-04-18T16:03:16Z</time></trkpt><trkpt lat="43.42963828217112" lon="10.65669280712033"><ele>184.0</ele><time>2026-04-18T16:03:17Z</time></trkpt><trkpt lat="43.42972976340444" lon="10.65671624738749"><ele>184.0</ele><time>2026-04-18T16:03:18Z</time></trkpt><trkpt lat="43.42981855022298" lon="10.656840884593441"><ele>184.0</ele><time>2026-04-18T16:03:19Z</time></trkpt><trkpt lat="43.429902805007025" lon="10.656895773643495"><ele>184.0</ele><time>2026-04-18T16:03:20Z</time></trkpt><trkpt lat="43.42999404841884" lon="10.656948473923926"><ele>184.0</ele><time>2026-04-18T16:03:21Z</time></trkpt><trkpt lat="43.43011193680217" lon="10.657027216765394"><ele>183.66666666666669</ele><time>2026-04-18T16:03:22Z</time></trkpt><trkpt lat="43.43025262571041" lon="10.657114879350532"><ele>183.33333333333334</ele><time>2026-04-18T16:03:23Z</time></trkpt><trkpt lat="43.43038809448044" lon="10.657227177532118"><ele>183.0</ele><time>2026-04-18T16:03:24Z</time></trkpt><trkpt lat="43.43052540837263" lon="10.657320995803252"><ele>182.66666666666666</ele><time>2026-04-18T16:03:25Z</time></trkpt><trkpt lat="43.43067599451812" lon="10.65741975861928"><ele>182.33333333333331</ele><time>2026-04-18T16:03:26Z</time></trkpt><trkpt lat="43.43083063248421" lon="10.657521178927164"><ele>182.0</ele><time>2026-04-18T16:03:27Z</time></trkpt><trkpt lat="43.43099767667168" lon="10.657605903804066"><ele>182.0</ele><time>2026-04-18T16:03:28Z</time></trkpt><trkpt lat="43.43115786631714" lon="10.657736156507696"><ele>182.0</ele><time>2026-04-18T16:03:29Z</time></trkpt><trkpt lat="43.43132289801909" lon="10.657829974754328"><ele>182.0</ele><time>2026-04-18T16:03:30Z</time></trkpt><trkpt lat="43.43148959302604" lon="10.65793988501969"><ele>181.66666666666666</ele><time>2026-04-18T16:03:31Z</time></trkpt><trkpt lat="43.43166313908533" lon="10.658052234757882"><ele>181.33333333333334</ele><time>2026-04-18T16:03:32Z</time></trkpt><trkpt lat="43.43181956341612" lon="10.658183275867014"><ele>181.0</ele><time>2026-04-18T16:03:33Z</time></trkpt><trkpt lat="43.43198302749049" lon="10.658291991203983"><ele>180.66666666666669</ele><time>2026-04-18T16:03:34Z</time></trkpt><trkpt lat="43.4321430194682" lon="10.658402648903456"><ele>180.33333333333334</ele><time>2026-04-18T16:03:35Z</time></trkpt><trkpt lat="43.432291898208724" lon="10.658503863531342"><ele>180.0</ele><time>2026-04-18T16:03:36Z</time></trkpt><trkpt lat="43.432434139104025" lon="10.658599327931102"><ele>179.5</ele><time>2026-04-18T16:03:37Z</time></trkpt><trkpt lat="43.43257914063888" lon="10.65869684367453"><ele>179.0</ele><time>2026-04-18T16:03:38Z</time></trkpt><trkpt lat="43.43271736902804" lon="10.658767524880187"><ele>178.5</ele><time>2026-04-18T16:03:39Z</time></trkpt><trkpt lat="43.43282075712629" lon="10.658867974553274"><ele>178.0</ele><time>2026-04-18T16:03:40Z</time></trkpt><trkpt lat="43.43291721972503" lon="10.65896438913078"><ele>177.75</ele><time>2026-04-18T16:03:41Z</time></trkpt><trkpt lat="43.43299726645395" lon="10.659076353888523"><ele>177.5</ele><time>2026-04-18T16:03:42Z</time></trkpt><trkpt lat="43.433067370263956" lon="10.659214480854168"><ele>177.25</ele><time>2026-04-18T16:03:43Z</time></trkpt><trkpt lat="43.433148620837294" lon="10.659348796005709"><ele>177.0</ele><time>2026-04-18T16:03:44Z</time></trkpt><trkpt lat="43.433196822839264" lon="10.659488603934806"><ele>177.0</ele><time>2026-04-18T16:03:45Z</time></trkpt><trkpt lat="43.433270215118924" lon="10.65959208659314"><ele>177.0</ele><time>2026-04-18T16:03:46Z</time></trkpt><trkpt lat="43.43338423828982" lon="10.659658540866975"><ele>177.0</ele><time>2026-04-18T16:03:47Z</time></trkpt><trkpt lat="43.43349794546085" lon="10.659715718028549"><ele>177.0</ele><time>2026-04-18T16:03:48Z</time></trkpt><trkpt lat="43.433631467163714" lon="10.659769855939745"><ele>177.0</ele><time>2026-04-18T16:03:49Z</time></trkpt><trkpt lat="43.433763390710475" lon="10.65980077150626"><ele>177.0</ele><time>2026-04-18T16:03:50.001Z</time></trkpt><trkpt lat="43.43391621545415" lon="10.659843708314735"><ele>177.0</ele><time>2026-04-18T16:03:51.001Z</time></trkpt><trkpt lat="43.434075457016476" lon="10.659890221864956"><ele>178.0</ele><time>2026-04-18T16:03:52.001Z</time></trkpt><trkpt lat="43.43422500234382" lon="10.659922560029894"><ele>179.0</ele><time>2026-04-18T16:03:53.001Z</time></trkpt><trkpt lat="43.43437012524218" lon="10.660003827732211"><ele>180.0</ele><time>2026-04-18T16:03:54.001Z</time></trkpt><trkpt lat="43.43451606520017" lon="10.66006965654566"><ele>180.33333333333334</ele><time>2026-04-18T16:03:55.001Z</time></trkpt><trkpt lat="43.43466151098093" lon="10.66012519344399"><ele>180.66666666666669</ele><time>2026-04-18T16:03:56.001Z</time></trkpt><trkpt lat="43.43481374170193" lon="10.660224328228027"><ele>181.0</ele><time>2026-04-18T16:03:57.001Z</time></trkpt><trkpt lat="43.43499007558034" lon="10.660373915987426"><ele>178.66666666666669</ele><time>2026-04-18T16:03:58.001Z</time></trkpt><trkpt lat="43.435167589541344" lon="10.660504129348732"><ele>176.33333333333334</ele><time>2026-04-18T16:03:59.001Z</time></trkpt><trkpt lat="43.43531886501145" lon="10.660614065417807"><ele>174.0</ele><time>2026-04-18T16:04:00.001Z</time></trkpt><trkpt lat="43.43543585181124" lon="10.660755920392196"><ele>174.75</ele><time>2026-04-18T16:04:01.001Z</time></trkpt><trkpt lat="43.43553354551486" lon="10.66084813802391"><ele>175.5</ele><time>2026-04-18T16:04:02.001Z</time></trkpt><trkpt lat="43.43568409311554" lon="10.660927540145112"><ele>176.25</ele><time>2026-04-18T16:04:03.001Z</time></trkpt><trkpt lat="43.435820443051036" lon="10.661022445723175"><ele>177.0</ele><time>2026-04-18T16:04:04.001Z</time></trkpt><trkpt lat="43.43594513648692" lon="10.661128459117846"><ele>175.75</ele><time>2026-04-18T16:04:05.001Z</time></trkpt><trkpt lat="43.43608399465519" lon="10.661213415786769"><ele>174.5</ele><time>2026-04-18T16:04:06.001Z</time></trkpt><trkpt lat="43.43622046708338" lon="10.661287866687136"><ele>173.25</ele><time>2026-04-18T16:04:07.001Z</time></trkpt><trkpt lat="43.43632279420551" lon="10.661381365986426"><ele>172.0</ele><time>2026-04-18T16:04:08.001Z</time></trkpt><trkpt lat="43.43643809959811" lon="10.661481301864503"><ele>172.0</ele><time>2026-04-18T16:04:09.001Z</time></trkpt><trkpt lat="43.43658180571133" lon="10.661581265169184"><ele>172.0</ele><time>2026-04-18T16:04:10.001Z</time></trkpt><trkpt lat="43.43671745457214" lon="10.661672137666912"><ele>172.0</ele><time>2026-04-18T16:04:11.001Z</time></trkpt><trkpt lat="43.436840895641595" lon="10.661752450588228"><ele>172.0</ele><time>2026-04-18T16:04:12.001Z</time></trkpt><trkpt lat="43.436989773770264" lon="10.661821598517527"><ele>170.33333333333334</ele><time>2026-04-18T16:04:13.001Z</time></trkpt><trkpt lat="43.43714972915201" lon="10.66189063164689"><ele>168.66666666666666</ele><time>2026-04-18T16:04:14.001Z</time></trkpt><trkpt lat="43.43731196196767" lon="10.661955782356355"><ele>167.0</ele><time>2026-04-18T16:04:15.001Z</time></trkpt><trkpt lat="43.4374576703402" lon="10.66199382651762"><ele>167.0</ele><time>2026-04-18T16:04:16.001Z</time></trkpt><trkpt lat="43.43761657675174" lon="10.662030746526833"><ele>167.0</ele><time>2026-04-18T16:04:17.001Z</time></trkpt><trkpt lat="43.43777899633104" lon="10.662086312062867"><ele>167.0</ele><time>2026-04-18T16:04:18.001Z</time></trkpt><trkpt lat="43.437921182875286" lon="10.662154008795007"><ele>168.0</ele><time>2026-04-18T16:04:19.001Z</time></trkpt><trkpt lat="43.43808128707491" lon="10.662206885566711"><ele>169.0</ele><time>2026-04-18T16:04:20.001Z</time></trkpt><trkpt lat="43.438229596844195" lon="10.66226190385988"><ele>170.0</ele><time>2026-04-18T16:04:21.001Z</time></trkpt><trkpt lat="43.43837764982455" lon="10.662310508913391"><ele>170.0</ele><time>2026-04-18T16:04:22.001Z</time></trkpt><trkpt lat="43.43850623287534" lon="10.662363317064294"><ele>170.0</ele><time>2026-04-18T16:04:23.001Z</time></trkpt><trkpt lat="43.43862052850169" lon="10.662420196887615"><ele>170.0</ele><time>2026-04-18T16:04:24.001Z</time></trkpt><trkpt lat="43.43873539835432" lon="10.662482642790177"><ele>170.0</ele><time>2026-04-18T16:04:25.001Z</time></trkpt><trkpt lat="43.438834242783614" lon="10.662545918809801"><ele>169.8</ele><time>2026-04-18T16:04:26.001Z</time></trkpt><trkpt lat="43.438926796074085" lon="10.662628388529676"><ele>169.6</ele><time>2026-04-18T16:04:27.001Z</time></trkpt><trkpt lat="43.43901188354511" lon="10.662721159552007"><ele>169.39999999999998</ele><time>2026-04-18T16:04:28.001Z</time></trkpt><trkpt lat="43.43909374471859" lon="10.662839399899644"><ele>169.2</ele><time>2026-04-18T16:04:29.001Z</time></trkpt><trkpt lat="43.439168152328065" lon="10.662946133120398"><ele>169.0</ele><time>2026-04-18T16:04:30.001Z</time></trkpt><trkpt lat="43.43925044988881" lon="10.663056921775466"><ele>169.0</ele><time>2026-04-18T16:04:31.001Z</time></trkpt><trkpt lat="43.43933118289981" lon="10.663162289096224"><ele>169.0</ele><time>2026-04-18T16:04:32.001Z</time></trkpt><trkpt lat="43.43942077545276" lon="10.663279219301351"><ele>169.0</ele><time>2026-04-18T16:04:33.001Z</time></trkpt><trkpt lat="43.439511590508054" lon="10.663399940280874"><ele>169.0</ele><time>2026-04-18T16:04:34.001Z</time></trkpt><trkpt lat="43.43960037392935" lon="10.66351947078345"><ele>168.0</ele><time>2026-04-18T16:04:35.001Z</time></trkpt><trkpt lat="43.439704689717246" lon="10.663627992335453"><ele>167.0</ele><time>2026-04-18T16:04:36.001Z</time></trkpt><trkpt lat="43.43978790061554" lon="10.663770798706418"><ele>166.0</ele><time>2026-04-18T16:04:37.001Z</time></trkpt><trkpt lat="43.43988388548332" lon="10.663895912655493"><ele>165.0</ele><time>2026-04-18T16:04:38.001Z</time></trkpt><trkpt lat="43.439991432672706" lon="10.664005356472867"><ele>165.0</ele><time>2026-04-18T16:04:39.001Z</time></trkpt><trkpt lat="43.440092407861826" lon="10.664137145059579"><ele>165.0</ele><time>2026-04-18T16:04:40.001Z</time></trkpt><trkpt lat="43.440185010572115" lon="10.664275251252779"><ele>165.0</ele><time>2026-04-18T16:04:41.001Z</time></trkpt><trkpt lat="43.440296009503385" lon="10.66438601141159"><ele>165.0</ele><time>2026-04-18T16:04:42.002Z</time></trkpt><trkpt lat="43.44041898405695" lon="10.664470864837673"><ele>164.25</ele><time>2026-04-18T16:04:43.002Z</time></trkpt><trkpt lat="43.440543743683534" lon="10.664563592884218"><ele>163.5</ele><time>2026-04-18T16:04:44.002Z</time></trkpt><trkpt lat="43.44067354069757" lon="10.664640117330691"><ele>162.75</ele><time>2026-04-18T16:04:45.002Z</time></trkpt><trkpt lat="43.44080979564716" lon="10.664712227256611"><ele>162.0</ele><time>2026-04-18T16:04:46.002Z</time></trkpt><trkpt lat="43.440953703277806" lon="10.664768966867884"><ele>162.0</ele><time>2026-04-18T16:04:47.002Z</time></trkpt><trkpt lat="43.44109983265757" lon="10.664816684299156"><ele>162.0</ele><time>2026-04-18T16:04:48.002Z</time></trkpt><trkpt lat="43.441244791921115" lon="10.664864656909534"><ele>162.0</ele><time>2026-04-18T16:04:49.002Z</time></trkpt><trkpt lat="43.44139308032303" lon="10.664909796539423"><ele>161.66666666666666</ele><time>2026-04-18T16:04:49.999Z</time></trkpt><trkpt lat="43.44153902295612" lon="10.664956385241736"><ele>161.33333333333331</ele><time>2026-04-18T16:04:50.999Z</time></trkpt><trkpt lat="43.441684698190414" lon="10.66500148335446"><ele>161.0</ele><time>2026-04-18T16:04:51.999Z</time></trkpt><trkpt lat="43.441831314632786" lon="10.66504771770687"><ele>161.0</ele><time>2026-04-18T16:04:52.999Z</time></trkpt><trkpt lat="43.441977199477435" lon="10.665095320299676"><ele>161.0</ele><time>2026-04-18T16:04:53.999Z</time></trkpt><trkpt lat="43.44212360463749" lon="10.665139969619725"><ele>161.0</ele><time>2026-04-18T16:04:54.999Z</time></trkpt><trkpt lat="43.44226994894589" lon="10.66518692950426"><ele>160.33333333333331</ele><time>2026-04-18T16:04:55.999Z</time></trkpt><trkpt lat="43.44241649598484" lon="10.665234070440576"><ele>159.66666666666666</ele><time>2026-04-18T16:04:56.999Z</time></trkpt><trkpt lat="43.442565533597815" lon="10.665279078252274"><ele>159.0</ele><time>2026-04-18T16:04:57.999Z</time></trkpt><trkpt lat="43.44271780811826" lon="10.665323803426737"><ele>159.0</ele><time>2026-04-18T16:04:58.999Z</time></trkpt><trkpt lat="43.442875555216574" lon="10.665372845846116"><ele>159.0</ele><time>2026-04-18T16:04:59.999Z</time></trkpt><trkpt lat="43.443032643913924" lon="10.665422750596617"><ele>159.0</ele><time>2026-04-18T16:05:00.999Z</time></trkpt><trkpt lat="43.44319024770029" lon="10.665470592027013"><ele>158.33333333333334</ele><time>2026-04-18T16:05:01.999Z</time></trkpt><trkpt lat="43.44335001036589" lon="10.665517540080941"><ele>157.66666666666669</ele><time>2026-04-18T16:05:02.999Z</time></trkpt><trkpt lat="43.443512118535416" lon="10.665570928708528"><ele>157.0</ele><time>2026-04-18T16:05:03.999Z</time></trkpt><trkpt lat="43.443673214670106" lon="10.665624996036433"><ele>157.0</ele><time>2026-04-18T16:05:04.999Z</time></trkpt><trkpt lat="43.44383905761661" lon="10.665685551742305"><ele>157.0</ele><time>2026-04-18T16:05:05.999Z</time></trkpt><trkpt lat="43.44400394466403" lon="10.66574713465625"><ele>157.0</ele><time>2026-04-18T16:05:06.999Z</time></trkpt><trkpt lat="43.44416796781683" lon="10.665811107822924"><ele>157.0</ele><time>2026-04-18T16:05:07.999Z</time></trkpt><trkpt lat="43.44435346204288" lon="10.665904251357201"><ele>157.0</ele><time>2026-04-18T16:05:08.999Z</time></trkpt><trkpt lat="43.44450504337845" lon="10.66596516970611"><ele>157.0</ele><time>2026-04-18T16:05:09.999Z</time></trkpt><trkpt lat="43.4446762553267" lon="10.666014259372144"><ele>156.66666666666669</ele><time>2026-04-18T16:05:10.999Z</time></trkpt><trkpt lat="43.444843212127395" lon="10.666080139877112"><ele>156.33333333333334</ele><time>2026-04-18T16:05:11.999Z</time></trkpt><trkpt lat="43.44501336477171" lon="10.666145267109252"><ele>156.0</ele><time>2026-04-18T16:05:13Z</time></trkpt><trkpt lat="43.4451852940078" lon="10.66621331623672"><ele>155.0</ele><time>2026-04-18T16:05:14Z</time></trkpt><trkpt lat="43.445359937626094" lon="10.666282316968026"><ele>154.0</ele><time>2026-04-18T16:05:15Z</time></trkpt><trkpt lat="43.44553056412494" lon="10.666355634599082"><ele>153.0</ele><time>2026-04-18T16:05:16Z</time></trkpt><trkpt lat="43.44570263010486" lon="10.666424323870428"><ele>153.0</ele><time>2026-04-18T16:05:17Z</time></trkpt><trkpt lat="43.44587694665682" lon="10.666492178235217"><ele>153.0</ele><time>2026-04-18T16:05:18Z</time></trkpt><trkpt lat="43.44604483618606" lon="10.666583356716535"><ele>153.0</ele><time>2026-04-18T16:05:19Z</time></trkpt><trkpt lat="43.44621852649854" lon="10.666633165282834"><ele>152.33333333333334</ele><time>2026-04-18T16:05:20Z</time></trkpt><trkpt lat="43.44639086492853" lon="10.666698832200288"><ele>151.66666666666669</ele><time>2026-04-18T16:05:21Z</time></trkpt><trkpt lat="43.44656024000336" lon="10.666767831514788"><ele>151.0</ele><time>2026-04-18T16:05:22Z</time></trkpt><trkpt lat="43.44673251075482" lon="10.666832177778337"><ele>151.0</ele><time>2026-04-18T16:05:23Z</time></trkpt><trkpt lat="43.44690099941248" lon="10.666904893286159"><ele>151.0</ele><time>2026-04-18T16:05:24Z</time></trkpt><trkpt lat="43.447069241993745" lon="10.666991244320727"><ele>151.0</ele><time>2026-04-18T16:05:25Z</time></trkpt><trkpt lat="43.44724125906575" lon="10.667060367053462"><ele>150.66666666666669</ele><time>2026-04-18T16:05:26Z</time></trkpt><trkpt lat="43.44741372920673" lon="10.667129671838584"><ele>150.33333333333334</ele><time>2026-04-18T16:05:27Z</time></trkpt><trkpt lat="43.447590084530276" lon="10.667199691457418"><ele>150.0</ele><time>2026-04-18T16:05:28Z</time></trkpt><trkpt lat="43.44778426745537" lon="10.667276350843563"><ele>150.0</ele><time>2026-04-18T16:05:29Z</time></trkpt><trkpt lat="43.447938879572234" lon="10.667337388293042"><ele>150.0</ele><time>2026-04-18T16:05:30Z</time></trkpt><trkpt lat="43.44811578796839" lon="10.66740722810926"><ele>150.0</ele><time>2026-04-18T16:05:31Z</time></trkpt><trkpt lat="43.4482944612053" lon="10.667475729811883"><ele>150.0</ele><time>2026-04-18T16:05:32Z</time></trkpt><trkpt lat="43.448469591023056" lon="10.667535817347717"><ele>150.0</ele><time>2026-04-18T16:05:33Z</time></trkpt><trkpt lat="43.44864071869649" lon="10.66758599351981"><ele>150.0</ele><time>2026-04-18T16:05:34Z</time></trkpt><trkpt lat="43.44881309515765" lon="10.667602618230097"><ele>150.33333333333334</ele><time>2026-04-18T16:05:35Z</time></trkpt><trkpt lat="43.44898451803255" lon="10.667629852843556"><ele>150.66666666666669</ele><time>2026-04-18T16:05:36Z</time></trkpt><trkpt lat="43.44915209718849" lon="10.667643208188775"><ele>151.0</ele><time>2026-04-18T16:05:37Z</time></trkpt><trkpt lat="43.449316895690565" lon="10.667638000370276"><ele>151.0</ele><time>2026-04-18T16:05:38Z</time></trkpt><trkpt lat="43.449479748907734" lon="10.667614995549243"><ele>151.0</ele><time>2026-04-18T16:05:39Z</time></trkpt><trkpt lat="43.449634732262545" lon="10.667559890010933"><ele>151.0</ele><time>2026-04-18T16:05:40Z</time></trkpt><trkpt lat="43.44978170898653" lon="10.66748025772357"><ele>150.33333333333334</ele><time>2026-04-18T16:05:41Z</time></trkpt><trkpt lat="43.449932013588665" lon="10.667398905382617"><ele>149.66666666666666</ele><time>2026-04-18T16:05:42Z</time></trkpt><trkpt lat="43.45008352327627" lon="10.667322942374255"><ele>149.0</ele><time>2026-04-18T16:05:43Z</time></trkpt><trkpt lat="43.45023123973169" lon="10.667272731818432"><ele>149.0</ele><time>2026-04-18T16:05:44Z</time></trkpt><trkpt lat="43.450387143884136" lon="10.667247753419092"><ele>149.0</ele><time>2026-04-18T16:05:45Z</time></trkpt><trkpt lat="43.45054651406715" lon="10.667246308314853"><ele>149.0</ele><time>2026-04-18T16:05:46Z</time></trkpt><trkpt lat="43.45070823869576" lon="10.667271336751256"><ele>149.0</ele><time>2026-04-18T16:05:47Z</time></trkpt><trkpt lat="43.45086525472195" lon="10.66730549047095"><ele>149.0</ele><time>2026-04-18T16:05:48Z</time></trkpt><trkpt lat="43.45103362281661" lon="10.667337296741485"><ele>149.0</ele><time>2026-04-18T16:05:49.001Z</time></trkpt><trkpt lat="43.45120095638424" lon="10.667391160647044"><ele>149.66666666666666</ele><time>2026-04-18T16:05:50.001Z</time></trkpt><trkpt lat="43.45136195588343" lon="10.66741955482922"><ele>150.33333333333334</ele><time>2026-04-18T16:05:51.001Z</time></trkpt><trkpt lat="43.45154957882765" lon="10.667474281983964"><ele>151.0</ele><time>2026-04-18T16:05:52.001Z</time></trkpt><trkpt lat="43.451712425756966" lon="10.667492938553101"><ele>151.0</ele><time>2026-04-18T16:05:53.001Z</time></trkpt><trkpt lat="43.451879551471585" lon="10.667526431224362"><ele>151.0</ele><time>2026-04-18T16:05:54.001Z</time></trkpt><trkpt lat="43.452041170522506" lon="10.667556605166455"><ele>151.0</ele><time>2026-04-18T16:05:55.001Z</time></trkpt><trkpt lat="43.452218650295755" lon="10.667591730018266"><ele>150.33333333333334</ele><time>2026-04-18T16:05:56.001Z</time></trkpt><trkpt lat="43.452391465325626" lon="10.66761269704204"><ele>149.66666666666666</ele><time>2026-04-18T16:05:57.001Z</time></trkpt><trkpt lat="43.45255668004969" lon="10.667608875100361"><ele>149.0</ele><time>2026-04-18T16:05:58.001Z</time></trkpt><trkpt lat="43.452726091074794" lon="10.667603030304871"><ele>149.0</ele><time>2026-04-18T16:05:59.001Z</time></trkpt><trkpt lat="43.452901332613585" lon="10.667595913854635"><ele>149.0</ele><time>2026-04-18T16:06:00.001Z</time></trkpt><trkpt lat="43.45306973432972" lon="10.667583566470682"><ele>149.0</ele><time>2026-04-18T16:06:01.001Z</time></trkpt><trkpt lat="43.453243502932956" lon="10.667584630515021"><ele>148.66666666666666</ele><time>2026-04-18T16:06:02.001Z</time></trkpt><trkpt lat="43.45340782167928" lon="10.667594285645153"><ele>148.33333333333334</ele><time>2026-04-18T16:06:03.001Z</time></trkpt><trkpt lat="43.45356571095363" lon="10.667639100111957"><ele>148.0</ele><time>2026-04-18T16:06:04.001Z</time></trkpt><trkpt lat="43.453725651611194" lon="10.667667310753599"><ele>147.0</ele><time>2026-04-18T16:06:05.001Z</time></trkpt><trkpt lat="43.45389692220498" lon="10.667697534196105"><ele>146.0</ele><time>2026-04-18T16:06:06.001Z</time></trkpt><trkpt lat="43.45406143738691" lon="10.667726438516313"><ele>145.0</ele><time>2026-04-18T16:06:07.001Z</time></trkpt><trkpt lat="43.45422312454061" lon="10.667755194160314"><ele>144.66666666666669</ele><time>2026-04-18T16:06:08.001Z</time></trkpt><trkpt lat="43.45438603047796" lon="10.66778553186396"><ele>144.33333333333334</ele><time>2026-04-18T16:06:09.001Z</time></trkpt><trkpt lat="43.454553031783334" lon="10.667816632259767"><ele>144.0</ele><time>2026-04-18T16:06:10.001Z</time></trkpt><trkpt lat="43.45472203063471" lon="10.667847778118945"><ele>144.0</ele><time>2026-04-18T16:06:11.001Z</time></trkpt><trkpt lat="43.45489266080028" lon="10.667877715750516"><ele>144.0</ele><time>2026-04-18T16:06:12.001Z</time></trkpt><trkpt lat="43.45506244116825" lon="10.667907504307179"><ele>144.0</ele><time>2026-04-18T16:06:13.001Z</time></trkpt><trkpt lat="43.45522825710388" lon="10.667916793133708"><ele>144.0</ele><time>2026-04-18T16:06:14.001Z</time></trkpt><trkpt lat="43.45538586649926" lon="10.667944451027019"><ele>144.0</ele><time>2026-04-18T16:06:15.001Z</time></trkpt><trkpt lat="43.455535398940505" lon="10.667969932034687"><ele>144.0</ele><time>2026-04-18T16:06:16.001Z</time></trkpt><trkpt lat="43.45567830613396" lon="10.668040698914368"><ele>143.66666666666666</ele><time>2026-04-18T16:06:17.001Z</time></trkpt><trkpt lat="43.45582608748261" lon="10.668107323845486"><ele>143.33333333333331</ele><time>2026-04-18T16:06:18.001Z</time></trkpt><trkpt lat="43.45597912188552" lon="10.668169146066672"><ele>143.0</ele><time>2026-04-18T16:06:19.001Z</time></trkpt><trkpt lat="43.45612330454118" lon="10.668288580402919"><ele>143.0</ele><time>2026-04-18T16:06:20.001Z</time></trkpt><trkpt lat="43.45627645439877" lon="10.668397291986011"><ele>143.0</ele><time>2026-04-18T16:06:21.001Z</time></trkpt><trkpt lat="43.45643558766404" lon="10.668509491203945"><ele>143.0</ele><time>2026-04-18T16:06:22.001Z</time></trkpt><trkpt lat="43.45659089276356" lon="10.668619335891108"><ele>142.33333333333331</ele><time>2026-04-18T16:06:23.001Z</time></trkpt><trkpt lat="43.456754687486786" lon="10.668737285189957"><ele>141.66666666666666</ele><time>2026-04-18T16:06:24.001Z</time></trkpt><trkpt lat="43.456918965535905" lon="10.668856456996178"><ele>141.0</ele><time>2026-04-18T16:06:25.001Z</time></trkpt><trkpt lat="43.457085209702534" lon="10.668978780031487"><ele>140.66666666666666</ele><time>2026-04-18T16:06:26.001Z</time></trkpt><trkpt lat="43.45725782372317" lon="10.66910239631013"><ele>140.33333333333331</ele><time>2026-04-18T16:06:27.001Z</time></trkpt><trkpt lat="43.45743042088822" lon="10.669226000791792"><ele>140.0</ele><time>2026-04-18T16:06:28.001Z</time></trkpt><trkpt lat="43.45760816439322" lon="10.669330714913272"><ele>139.66666666666666</ele><time>2026-04-18T16:06:29.001Z</time></trkpt><trkpt lat="43.45778563337348" lon="10.669460704555517"><ele>139.33333333333334</ele><time>2026-04-18T16:06:30.001Z</time></trkpt><trkpt lat="43.457963873229595" lon="10.669588371496536"><ele>139.0</ele><time>2026-04-18T16:06:31.001Z</time></trkpt><trkpt lat="43.45814267487896" lon="10.669719712002305"><ele>139.0</ele><time>2026-04-18T16:06:32.001Z</time></trkpt><trkpt lat="43.458322814942264" lon="10.669851855551943"><ele>139.0</ele><time>2026-04-18T16:06:33.001Z</time></trkpt><trkpt lat="43.45850942284478" lon="10.669983912482452"><ele>139.0</ele><time>2026-04-18T16:06:34.002Z</time></trkpt><trkpt lat="43.45869586577126" lon="10.670113897069202"><ele>139.66666666666669</ele><time>2026-04-18T16:06:35.002Z</time></trkpt><trkpt lat="43.45887248471694" lon="10.670270942425141"><ele>140.33333333333334</ele><time>2026-04-18T16:06:36.002Z</time></trkpt><trkpt lat="43.459063342106376" lon="10.6704054630509"><ele>141.0</ele><time>2026-04-18T16:06:37.002Z</time></trkpt><trkpt lat="43.45925623270154" lon="10.670540534146868"><ele>139.66666666666666</ele><time>2026-04-18T16:06:38.002Z</time></trkpt><trkpt lat="43.459448762706884" lon="10.670676932870084"><ele>138.33333333333331</ele><time>2026-04-18T16:06:39.002Z</time></trkpt><trkpt lat="43.45963917496347" lon="10.67081429733054"><ele>137.0</ele><time>2026-04-18T16:06:40.002Z</time></trkpt><trkpt lat="43.45983314392731" lon="10.67095422764171"><ele>137.0</ele><time>2026-04-18T16:06:41.002Z</time></trkpt><trkpt lat="43.46002657336504" lon="10.671093433088172"><ele>137.0</ele><time>2026-04-18T16:06:42.002Z</time></trkpt><trkpt lat="43.46022026628884" lon="10.671232385479534"><ele>137.0</ele><time>2026-04-18T16:06:43.002Z</time></trkpt><trkpt lat="43.46041477879391" lon="10.671371815668929"><ele>135.33333333333331</ele><time>2026-04-18T16:06:44.002Z</time></trkpt><trkpt lat="43.46061487206947" lon="10.67149279185668"><ele>133.66666666666666</ele><time>2026-04-18T16:06:45.002Z</time></trkpt><trkpt lat="43.460802463287045" lon="10.671649715152787"><ele>132.0</ele><time>2026-04-18T16:06:46.002Z</time></trkpt><trkpt lat="43.46099674531816" lon="10.671789528036344"><ele>132.0</ele><time>2026-04-18T16:06:47.002Z</time></trkpt><trkpt lat="43.46118969919461" lon="10.671928796211374"><ele>132.0</ele><time>2026-04-18T16:06:48.002Z</time></trkpt><trkpt lat="43.46138253021521" lon="10.672067945299005"><ele>132.0</ele><time>2026-04-18T16:06:49.002Z</time></trkpt><trkpt lat="43.46157343754663" lon="10.672204744783444"><ele>131.66666666666666</ele><time>2026-04-18T16:06:50.002Z</time></trkpt><trkpt lat="43.461762650273215" lon="10.672340329970487"><ele>131.33333333333331</ele><time>2026-04-18T16:06:51.002Z</time></trkpt><trkpt lat="43.46194739509946" lon="10.672472713556559"><ele>131.0</ele><time>2026-04-18T16:06:52.002Z</time></trkpt><trkpt lat="43.462131910463455" lon="10.67260488279201"><ele>130.66666666666666</ele><time>2026-04-18T16:06:53.002Z</time></trkpt><trkpt lat="43.46230855533379" lon="10.672730100975665"><ele>130.33333333333334</ele><time>2026-04-18T16:06:54.002Z</time></trkpt><trkpt lat="43.46249117094576" lon="10.672843558802048"><ele>130.0</ele><time>2026-04-18T16:06:55.002Z</time></trkpt><trkpt lat="43.462667224570346" lon="10.672967803287134"><ele>130.0</ele><time>2026-04-18T16:06:55.999Z</time></trkpt><trkpt lat="43.46282976920251" lon="10.673095287230725"><ele>130.0</ele><time>2026-04-18T16:06:56.999Z</time></trkpt><trkpt lat="43.46301103460881" lon="10.673215719414543"><ele>130.0</ele><time>2026-04-18T16:06:57.999Z</time></trkpt><trkpt lat="43.46319231494818" lon="10.673344386936897"><ele>130.66666666666669</ele><time>2026-04-18T16:06:58.999Z</time></trkpt><trkpt lat="43.46337698864" lon="10.673472802629522"><ele>131.33333333333334</ele><time>2026-04-18T16:06:59.999Z</time></trkpt><trkpt lat="43.463563413755416" lon="10.673603520988701"><ele>132.0</ele><time>2026-04-18T16:07:00.999Z</time></trkpt><trkpt lat="43.46374820607089" lon="10.673735296945896"><ele>130.66666666666666</ele><time>2026-04-18T16:07:01.999Z</time></trkpt><trkpt lat="43.463934894731494" lon="10.673870527949937"><ele>129.33333333333331</ele><time>2026-04-18T16:07:02.999Z</time></trkpt><trkpt lat="43.4641192704078" lon="10.674003447822576"><ele>128.0</ele><time>2026-04-18T16:07:03.999Z</time></trkpt><trkpt lat="43.46429730645667" lon="10.674137961697184"><ele>128.0</ele><time>2026-04-18T16:07:04.999Z</time></trkpt><trkpt lat="43.46447593042566" lon="10.674267268095047"><ele>128.0</ele><time>2026-04-18T16:07:05.999Z</time></trkpt><trkpt lat="43.46463403702879" lon="10.674436862165281"><ele>128.0</ele><time>2026-04-18T16:07:06.999Z</time></trkpt><trkpt lat="43.4647877308917" lon="10.67460327164015"><ele>127.33333333333333</ele><time>2026-04-18T16:07:07.999Z</time></trkpt><trkpt lat="43.46492954724776" lon="10.674779295120045"><ele>126.66666666666666</ele><time>2026-04-18T16:07:08.999Z</time></trkpt><trkpt lat="43.465063806750315" lon="10.674971314113892"><ele>126.0</ele><time>2026-04-18T16:07:09.999Z</time></trkpt><trkpt lat="43.46518411298162" lon="10.675167173335382"><ele>125.66666666666666</ele><time>2026-04-18T16:07:10.999Z</time></trkpt><trkpt lat="43.46530331008006" lon="10.675359787994104"><ele>125.33333333333333</ele><time>2026-04-18T16:07:11.999Z</time></trkpt><trkpt lat="43.46539534010211" lon="10.675575014790818"><ele>125.0</ele><time>2026-04-18T16:07:13Z</time></trkpt><trkpt lat="43.46547833094809" lon="10.675793082821471"><ele>126.0</ele><time>2026-04-18T16:07:14Z</time></trkpt><trkpt lat="43.465561240710834" lon="10.676014073433302"><ele>127.0</ele><time>2026-04-18T16:07:15Z</time></trkpt><trkpt lat="43.465648277588826" lon="10.67623933407087"><ele>128.0</ele><time>2026-04-18T16:07:16Z</time></trkpt><trkpt lat="43.46573527518824" lon="10.676464638220363"><ele>128.0</ele><time>2026-04-18T16:07:17Z</time></trkpt><trkpt lat="43.46582461476635" lon="10.676691431995096"><ele>128.0</ele><time>2026-04-18T16:07:18Z</time></trkpt><trkpt lat="43.46591334868428" lon="10.676923325391813"><ele>128.0</ele><time>2026-04-18T16:07:19Z</time></trkpt><trkpt lat="43.46600334302603" lon="10.677157267095827"><ele>127.0</ele><time>2026-04-18T16:07:20Z</time></trkpt><trkpt lat="43.466095452690524" lon="10.677390903874821"><ele>126.0</ele><time>2026-04-18T16:07:21Z</time></trkpt><trkpt lat="43.46618730353362" lon="10.67762560763818"><ele>125.0</ele><time>2026-04-18T16:07:22Z</time></trkpt><trkpt lat="43.46627615888763" lon="10.67785915798537"><ele>126.33333333333333</ele><time>2026-04-18T16:07:23Z</time></trkpt><trkpt lat="43.46636749313928" lon="10.678091867142484"><ele>127.66666666666666</ele><time>2026-04-18T16:07:24Z</time></trkpt><trkpt lat="43.466459179867144" lon="10.678322991879313"><ele>129.0</ele><time>2026-04-18T16:07:25Z</time></trkpt><trkpt lat="43.46655094233108" lon="10.678549795155579"><ele>126.33333333333334</ele><time>2026-04-18T16:07:26Z</time></trkpt><trkpt lat="43.46664735504041" lon="10.678769652661487"><ele>123.66666666666667</ele><time>2026-04-18T16:07:27Z</time></trkpt><trkpt lat="43.46674840481383" lon="10.67898654341023"><ele>121.0</ele><time>2026-04-18T16:07:28Z</time></trkpt><trkpt lat="43.466859982323285" lon="10.679195494972296"><ele>121.0</ele><time>2026-04-18T16:07:29Z</time></trkpt><trkpt lat="43.466977452976195" lon="10.679400347666848"><ele>121.0</ele><time>2026-04-18T16:07:30Z</time></trkpt><trkpt lat="43.467096795799314" lon="10.679605860020017"><ele>121.0</ele><time>2026-04-18T16:07:31Z</time></trkpt><trkpt lat="43.467214813871806" lon="10.679813855507499"><ele>121.0</ele><time>2026-04-18T16:07:32Z</time></trkpt><trkpt lat="43.467338088335424" lon="10.680022502944613"><ele>121.0</ele><time>2026-04-18T16:07:33Z</time></trkpt><trkpt lat="43.467463228645556" lon="10.680231588891878"><ele>121.0</ele><time>2026-04-18T16:07:34Z</time></trkpt><trkpt lat="43.46758631637488" lon="10.680441007317022"><ele>120.33333333333334</ele><time>2026-04-18T16:07:35Z</time></trkpt><trkpt lat="43.46770924693114" lon="10.680650588026596"><ele>119.66666666666666</ele><time>2026-04-18T16:07:36Z</time></trkpt><trkpt lat="43.46783136091175" lon="10.680856426421917"><ele>119.0</ele><time>2026-04-18T16:07:37Z</time></trkpt><trkpt lat="43.46795413583132" lon="10.68106269484073"><ele>121.33333333333333</ele><time>2026-04-18T16:07:38Z</time></trkpt><trkpt lat="43.46807505510252" lon="10.68126822672983"><ele>123.66666666666666</ele><time>2026-04-18T16:07:39Z</time></trkpt><trkpt lat="43.468192109068234" lon="10.681472167829178"><ele>126.0</ele><time>2026-04-18T16:07:40Z</time></trkpt><trkpt lat="43.46831197805553" lon="10.681669943361994"><ele>126.0</ele><time>2026-04-18T16:07:41Z</time></trkpt><trkpt lat="43.468425855962366" lon="10.681862298902585"><ele>126.0</ele><time>2026-04-18T16:07:42Z</time></trkpt><trkpt lat="43.46854235613101" lon="10.682047671382488"><ele>126.0</ele><time>2026-04-18T16:07:43Z</time></trkpt><trkpt lat="43.468637525654565" lon="10.682227280241829"><ele>125.0</ele><time>2026-04-18T16:07:44.001Z</time></trkpt><trkpt lat="43.46870935149134" lon="10.682397695305559"><ele>124.0</ele><time>2026-04-18T16:07:45.001Z</time></trkpt><trkpt lat="43.46876068838281" lon="10.682573125213228"><ele>123.0</ele><time>2026-04-18T16:07:46.001Z</time></trkpt><trkpt lat="43.468791040726856" lon="10.68274948798967"><ele>122.0</ele><time>2026-04-18T16:07:47.001Z</time></trkpt><trkpt lat="43.46879560189573" lon="10.682937292718368"><ele>121.5</ele><time>2026-04-18T16:07:48.001Z</time></trkpt><trkpt lat="43.46877588895699" lon="10.683120277570675"><ele>121.0</ele><time>2026-04-18T16:07:49.001Z</time></trkpt><trkpt lat="43.46874897104586" lon="10.683305841323483"><ele>120.5</ele><time>2026-04-18T16:07:50.001Z</time></trkpt><trkpt lat="43.46873019182896" lon="10.683483389256443"><ele>120.0</ele><time>2026-04-18T16:07:51.001Z</time></trkpt><trkpt lat="43.468722002455294" lon="10.683652341403558"><ele>119.25</ele><time>2026-04-18T16:07:52.001Z</time></trkpt><trkpt lat="43.468728492364114" lon="10.683809711503592"><ele>118.5</ele><time>2026-04-18T16:07:53.001Z</time></trkpt><trkpt lat="43.46875247270411" lon="10.683968643179178"><ele>117.75</ele><time>2026-04-18T16:07:54.001Z</time></trkpt><trkpt lat="43.468799286596365" lon="10.68412065268495"><ele>117.0</ele><time>2026-04-18T16:07:55.001Z</time></trkpt><trkpt lat="43.46886922187001" lon="10.684259790919542"><ele>117.0</ele><time>2026-04-18T16:07:56.001Z</time></trkpt><trkpt lat="43.46896430007804" lon="10.684378295712024"><ele>117.0</ele><time>2026-04-18T16:07:57.001Z</time></trkpt><trkpt lat="43.46907471969766" lon="10.684487780635518"><ele>117.0</ele><time>2026-04-18T16:07:58.001Z</time></trkpt><trkpt lat="43.46920141520313" lon="10.684596312868512"><ele>117.0</ele><time>2026-04-18T16:07:59.001Z</time></trkpt><trkpt lat="43.469338779957184" lon="10.684712181267374"><ele>117.0</ele><time>2026-04-18T16:08:00.001Z</time></trkpt><trkpt lat="43.46948031745566" lon="10.684839040762213"><ele>117.0</ele><time>2026-04-18T16:08:01.001Z</time></trkpt><trkpt lat="43.46962286260916" lon="10.68496174572566"><ele>117.0</ele><time>2026-04-18T16:08:02.001Z</time></trkpt><trkpt lat="43.46977208986992" lon="10.68509270505439"><ele>115.66666666666666</ele><time>2026-04-18T16:08:03.001Z</time></trkpt><trkpt lat="43.469922299062866" lon="10.68522649091057"><ele>114.33333333333333</ele><time>2026-04-18T16:08:04.001Z</time></trkpt><trkpt lat="43.47008205261441" lon="10.685354479437647"><ele>113.0</ele><time>2026-04-18T16:08:05.001Z</time></trkpt><trkpt lat="43.470246871138194" lon="10.68547737680429"><ele>113.0</ele><time>2026-04-18T16:08:06.001Z</time></trkpt><trkpt lat="43.47041713349934" lon="10.685589270050798"><ele>113.0</ele><time>2026-04-18T16:08:07.001Z</time></trkpt><trkpt lat="43.47058655604731" lon="10.685702289559826"><ele>113.0</ele><time>2026-04-18T16:08:08.001Z</time></trkpt><trkpt lat="43.47075326389168" lon="10.685819549554115"><ele>113.33333333333333</ele><time>2026-04-18T16:08:09.001Z</time></trkpt><trkpt lat="43.470920174461114" lon="10.6859324869162"><ele>113.66666666666666</ele><time>2026-04-18T16:08:10.001Z</time></trkpt><trkpt lat="43.4710794586327" lon="10.686044938597071"><ele>114.0</ele><time>2026-04-18T16:08:11.001Z</time></trkpt><trkpt lat="43.47123366643387" lon="10.686173670211144"><ele>113.66666666666666</ele><time>2026-04-18T16:08:12.001Z</time></trkpt><trkpt lat="43.471382727879174" lon="10.686313955413762"><ele>113.33333333333333</ele><time>2026-04-18T16:08:13.001Z</time></trkpt><trkpt lat="43.471521227490626" lon="10.686465748363807"><ele>113.0</ele><time>2026-04-18T16:08:14.001Z</time></trkpt><trkpt lat="43.47165236668159" lon="10.686631143750885"><ele>113.0</ele><time>2026-04-18T16:08:15.001Z</time></trkpt><trkpt lat="43.47177684430036" lon="10.686815076138782"><ele>113.0</ele><time>2026-04-18T16:08:16.001Z</time></trkpt><trkpt lat="43.471890487203" lon="10.687015115829093"><ele>113.0</ele><time>2026-04-18T16:08:17.001Z</time></trkpt><trkpt lat="43.472000098026655" lon="10.687221951536799"><ele>113.0</ele><time>2026-04-18T16:08:18.001Z</time></trkpt><trkpt lat="43.47208820324719" lon="10.687451938906221"><ele>113.0</ele><time>2026-04-18T16:08:19.001Z</time></trkpt><trkpt lat="43.47219699332979" lon="10.68767024798233"><ele>113.0</ele><time>2026-04-18T16:08:20.001Z</time></trkpt><trkpt lat="43.47230351392558" lon="10.687886352326224"><ele>112.0</ele><time>2026-04-18T16:08:21.001Z</time></trkpt><trkpt lat="43.47240791936851" lon="10.68810586144625"><ele>111.0</ele><time>2026-04-18T16:08:22.001Z</time></trkpt><trkpt lat="43.472508012115284" lon="10.688330069203595"><ele>110.0</ele><time>2026-04-18T16:08:23.001Z</time></trkpt><trkpt lat="43.47260292791375" lon="10.688561139293652"><ele>109.33333333333333</ele><time>2026-04-18T16:08:24.002Z</time></trkpt><trkpt lat="43.47269756721384" lon="10.688793843202024"><ele>108.66666666666666</ele><time>2026-04-18T16:08:25.002Z</time></trkpt><trkpt lat="43.47279238234898" lon="10.689031148210395"><ele>108.0</ele><time>2026-04-18T16:08:26.002Z</time></trkpt><trkpt lat="43.472886637473515" lon="10.689270117661653"><ele>109.33333333333334</ele><time>2026-04-18T16:08:27.002Z</time></trkpt><trkpt lat="43.47297813840142" lon="10.68951135873989"><ele>110.66666666666667</ele><time>2026-04-18T16:08:28.002Z</time></trkpt><trkpt lat="43.47306934758954" lon="10.689755200185886"><ele>112.0</ele><time>2026-04-18T16:08:29.002Z</time></trkpt><trkpt lat="43.47316386116021" lon="10.68999947222751"><ele>112.0</ele><time>2026-04-18T16:08:30.002Z</time></trkpt><trkpt lat="43.47325643990398" lon="10.690243805367656"><ele>112.0</ele><time>2026-04-18T16:08:31.002Z</time></trkpt><trkpt lat="43.47334932808482" lon="10.69048984441066"><ele>112.0</ele><time>2026-04-18T16:08:32.002Z</time></trkpt><trkpt lat="43.47344234861589" lon="10.69073623401759"><ele>110.66666666666667</ele><time>2026-04-18T16:08:33.002Z</time></trkpt><trkpt lat="43.47353678174768" lon="10.69098194842272"><ele>109.33333333333334</ele><time>2026-04-18T16:08:34.002Z</time></trkpt><trkpt lat="43.47363229723692" lon="10.691227834647348"><ele>108.0</ele><time>2026-04-18T16:08:35.002Z</time></trkpt><trkpt lat="43.47372578743409" lon="10.691475512917314"><ele>108.33333333333334</ele><time>2026-04-18T16:08:36.002Z</time></trkpt><trkpt lat="43.473818192339756" lon="10.6917263740935"><ele>108.66666666666667</ele><time>2026-04-18T16:08:37.002Z</time></trkpt><trkpt lat="43.47391270267485" lon="10.69197592534512"><ele>109.0</ele><time>2026-04-18T16:08:38.002Z</time></trkpt><trkpt lat="43.47400850737603" lon="10.692226576538586"><ele>109.0</ele><time>2026-04-18T16:08:39.002Z</time></trkpt><trkpt lat="43.474103296584744" lon="10.692476161572772"><ele>109.0</ele><time>2026-04-18T16:08:40.002Z</time></trkpt><trkpt lat="43.474197409719665" lon="10.692724077721273"><ele>109.0</ele><time>2026-04-18T16:08:41.002Z</time></trkpt><trkpt lat="43.47429113826105" lon="10.692970980759656"><ele>108.0</ele><time>2026-04-18T16:08:42.002Z</time></trkpt><trkpt lat="43.47438507591678" lon="10.693217065398095"><ele>107.0</ele><time>2026-04-18T16:08:43.002Z</time></trkpt><trkpt lat="43.47447872506235" lon="10.693460663570459"><ele>106.0</ele><time>2026-04-18T16:08:44.002Z</time></trkpt><trkpt lat="43.47457098611671" lon="10.693700651070891"><ele>107.66666666666667</ele><time>2026-04-18T16:08:45.002Z</time></trkpt><trkpt lat="43.474662368892844" lon="10.693938354011301"><ele>109.33333333333334</ele><time>2026-04-18T16:08:46.002Z</time></trkpt><trkpt lat="43.47475344267491" lon="10.694170422598395"><ele>111.0</ele><time>2026-04-18T16:08:47.002Z</time></trkpt><trkpt lat="43.47484791912439" lon="10.694397680229079"><ele>108.66666666666666</ele><time>2026-04-18T16:08:48.002Z</time></trkpt><trkpt lat="43.47494923670973" lon="10.694618952223712"><ele>106.33333333333333</ele><time>2026-04-18T16:08:49.002Z</time></trkpt><trkpt lat="43.47506177701021" lon="10.694833711375772"><ele>104.0</ele><time>2026-04-18T16:08:50.002Z</time></trkpt><trkpt lat="43.475177130965065" lon="10.695043297536639"><ele>104.0</ele><time>2026-04-18T16:08:51.002Z</time></trkpt><trkpt lat="43.47529286478126" lon="10.695252815253324"><ele>104.0</ele><time>2026-04-18T16:08:52.002Z</time></trkpt><trkpt lat="43.47541236640823" lon="10.695463542547751"><ele>104.0</ele><time>2026-04-18T16:08:53.002Z</time></trkpt><trkpt lat="43.47553115377328" lon="10.69567467579964"><ele>104.66666666666666</ele><time>2026-04-18T16:08:54.002Z</time></trkpt><trkpt lat="43.47564878615795" lon="10.695886637210883"><ele>105.33333333333334</ele><time>2026-04-18T16:08:55.002Z</time></trkpt><trkpt lat="43.47576838704393" lon="10.696099489218096"><ele>106.0</ele><time>2026-04-18T16:08:56.002Z</time></trkpt><trkpt lat="43.475888816777" lon="10.696312234189564"><ele>104.66666666666667</ele><time>2026-04-18T16:08:57.002Z</time></trkpt><trkpt lat="43.47600749996365" lon="10.696519026033192"><ele>103.33333333333334</ele><time>2026-04-18T16:08:58.002Z</time></trkpt><trkpt lat="43.47612428017919" lon="10.696722502168154"><ele>102.0</ele><time>2026-04-18T16:08:59.002Z</time></trkpt><trkpt lat="43.47624120392762" lon="10.696921862745365"><ele>101.33333333333334</ele><time>2026-04-18T16:09:00.002Z</time></trkpt><trkpt lat="43.47636483439375" lon="10.69710903884003"><ele>100.66666666666667</ele><time>2026-04-18T16:09:01.002Z</time></trkpt><trkpt lat="43.47650685005629" lon="10.697270430899312"><ele>100.0</ele><time>2026-04-18T16:09:02Z</time></trkpt><trkpt lat="43.4766367251231" lon="10.697440995621312"><ele>100.0</ele><time>2026-04-18T16:09:03Z</time></trkpt><trkpt lat="43.476759348114435" lon="10.69760018204778"><ele>100.0</ele><time>2026-04-18T16:09:04Z</time></trkpt><trkpt lat="43.476870144913725" lon="10.697743957913804"><ele>100.0</ele><time>2026-04-18T16:09:05Z</time></trkpt><trkpt lat="43.47697748203265" lon="10.69787838145007"><ele>99.25</ele><time>2026-04-18T16:09:06Z</time></trkpt><trkpt lat="43.477073050825844" lon="10.698001301287025"><ele>98.5</ele><time>2026-04-18T16:09:07Z</time></trkpt><trkpt lat="43.47716078297067" lon="10.698110136308054"><ele>97.75</ele><time>2026-04-18T16:09:08Z</time></trkpt><trkpt lat="43.47724207107293" lon="10.69821160195107"><ele>97.0</ele><time>2026-04-18T16:09:09Z</time></trkpt><trkpt lat="43.47731349975145" lon="10.69830340422322"><ele>96.8</ele><time>2026-04-18T16:09:10Z</time></trkpt><trkpt lat="43.477378625197865" lon="10.698384191072627"><ele>96.6</ele><time>2026-04-18T16:09:11Z</time></trkpt><trkpt lat="43.47742294538537" lon="10.698470860532094"><ele>96.39999999999999</ele><time>2026-04-18T16:09:12Z</time></trkpt><trkpt lat="43.47750237628899" lon="10.69856812388053"><ele>96.19999999999999</ele><time>2026-04-18T16:09:14Z</time></trkpt><trkpt lat="43.47763343917355" lon="10.698431930632138"><ele>96.0</ele><time>2026-04-18T16:09:16Z</time></trkpt><trkpt lat="43.47767446679373" lon="10.698333698978107"><ele>96.0</ele><time>2026-04-18T16:09:17Z</time></trkpt><trkpt lat="43.47774238059712" lon="10.698237836095668"><ele>96.0</ele><time>2026-04-18T16:09:18Z</time></trkpt><trkpt lat="43.477819281808266" lon="10.698149455515223"><ele>96.0</ele><time>2026-04-18T16:09:19Z</time></trkpt><trkpt lat="43.47791409357234" lon="10.698061907271454"><ele>96.0</ele><time>2026-04-18T16:09:20Z</time></trkpt><trkpt lat="43.47802077154737" lon="10.697977471792921"><ele>96.0</ele><time>2026-04-18T16:09:21Z</time></trkpt><trkpt lat="43.478138415585825" lon="10.69788737418568"><ele>96.0</ele><time>2026-04-18T16:09:22Z</time></trkpt><trkpt lat="43.47825633823393" lon="10.697798632603998"><ele>96.0</ele><time>2026-04-18T16:09:23Z</time></trkpt><trkpt lat="43.47837430024406" lon="10.697707722638839"><ele>96.0</ele><time>2026-04-18T16:09:24Z</time></trkpt><trkpt lat="43.47849825023371" lon="10.697615624843866"><ele>96.0</ele><time>2026-04-18T16:09:25Z</time></trkpt><trkpt lat="43.47861082674264" lon="10.697524259061089"><ele>96.5</ele><time>2026-04-18T16:09:26Z</time></trkpt><trkpt lat="43.478705455292555" lon="10.697429242110369"><ele>97.0</ele><time>2026-04-18T16:09:27Z</time></trkpt><trkpt lat="43.47877915375015" lon="10.697322012211496"><ele>97.5</ele><time>2026-04-18T16:09:28Z</time></trkpt><trkpt lat="43.47883201300367" lon="10.697186524894677"><ele>98.0</ele><time>2026-04-18T16:09:29Z</time></trkpt><trkpt lat="43.47887009253363" lon="10.697030331898748"><ele>99.5</ele><time>2026-04-18T16:09:30Z</time></trkpt><trkpt lat="43.47890078510826" lon="10.696863710614702"><ele>101.0</ele><time>2026-04-18T16:09:31Z</time></trkpt><trkpt lat="43.47892767945431" lon="10.696692295343473"><ele>102.5</ele><time>2026-04-18T16:09:32Z</time></trkpt><trkpt lat="43.47895951587522" lon="10.696511252308165"><ele>104.0</ele><time>2026-04-18T16:09:33Z</time></trkpt><trkpt lat="43.47899336857879" lon="10.696327183633485"><ele>104.0</ele><time>2026-04-18T16:09:34Z</time></trkpt><trkpt lat="43.47903244010525" lon="10.696138018068908"><ele>104.0</ele><time>2026-04-18T16:09:35Z</time></trkpt><trkpt lat="43.47907703563307" lon="10.695941729328782"><ele>104.0</ele><time>2026-04-18T16:09:36Z</time></trkpt><trkpt lat="43.47912702017881" lon="10.695742966152231"><ele>104.0</ele><time>2026-04-18T16:09:37Z</time></trkpt><trkpt lat="43.479185894442686" lon="10.69554017573168"><ele>104.33333333333333</ele><time>2026-04-18T16:09:38Z</time></trkpt><trkpt lat="43.479254569285516" lon="10.695338502192568"><ele>104.66666666666666</ele><time>2026-04-18T16:09:39Z</time></trkpt><trkpt lat="43.479332442383146" lon="10.695137413995665"><ele>105.0</ele><time>2026-04-18T16:09:40Z</time></trkpt><trkpt lat="43.47942221838676" lon="10.694943043339412"><ele>104.33333333333334</ele><time>2026-04-18T16:09:41Z</time></trkpt><trkpt lat="43.4795189518818" lon="10.694760356596488"><ele>103.66666666666667</ele><time>2026-04-18T16:09:42Z</time></trkpt><trkpt lat="43.47962151524891" lon="10.694588645344533"><ele>103.0</ele><time>2026-04-18T16:09:43.001Z</time></trkpt><trkpt lat="43.479732002436606" lon="10.694426951280052"><ele>104.0</ele><time>2026-04-18T16:09:44.001Z</time></trkpt><trkpt lat="43.479842691901005" lon="10.694278114089572"><ele>105.0</ele><time>2026-04-18T16:09:45.001Z</time></trkpt><trkpt lat="43.4799530016568" lon="10.694141359897136"><ele>106.0</ele><time>2026-04-18T16:09:46.001Z</time></trkpt><trkpt lat="43.480060114627406" lon="10.694026492601557"><ele>107.0</ele><time>2026-04-18T16:09:47.001Z</time></trkpt><trkpt lat="43.4801752123908" lon="10.693931710588922"><ele>107.0</ele><time>2026-04-18T16:09:48.001Z</time></trkpt><trkpt lat="43.480291575427984" lon="10.693867030558499"><ele>107.0</ele><time>2026-04-18T16:09:49.001Z</time></trkpt><trkpt lat="43.480406218139" lon="10.693819562376085"><ele>107.0</ele><time>2026-04-18T16:09:50.001Z</time></trkpt><trkpt lat="43.48051648953616" lon="10.693751999590509"><ele>107.0</ele><time>2026-04-18T16:09:51.001Z</time></trkpt><trkpt lat="43.48061017046553" lon="10.693658494775725"><ele>106.75</ele><time>2026-04-18T16:09:52.001Z</time></trkpt><trkpt lat="43.48068942892973" lon="10.693540951119683"><ele>106.5</ele><time>2026-04-18T16:09:53.001Z</time></trkpt><trkpt lat="43.480754288363826" lon="10.693395703310205"><ele>106.25</ele><time>2026-04-18T16:09:54.001Z</time></trkpt><trkpt lat="43.480819344201386" lon="10.693240492660864"><ele>106.0</ele><time>2026-04-18T16:09:55.001Z</time></trkpt><trkpt lat="43.480885228340426" lon="10.693081913015309"><ele>106.0</ele><time>2026-04-18T16:09:56.001Z</time></trkpt><trkpt lat="43.480943450906175" lon="10.692912727187261"><ele>106.0</ele><time>2026-04-18T16:09:57.001Z</time></trkpt><trkpt lat="43.48098754086241" lon="10.692725903981536"><ele>106.0</ele><time>2026-04-18T16:09:58.001Z</time></trkpt><trkpt lat="43.48101556738768" lon="10.692526374315632"><ele>106.0</ele><time>2026-04-18T16:09:59.001Z</time></trkpt><trkpt lat="43.481040779695896" lon="10.692318363961293"><ele>106.33333333333334</ele><time>2026-04-18T16:10:00.001Z</time></trkpt><trkpt lat="43.48107316341678" lon="10.692102135284806"><ele>106.66666666666666</ele><time>2026-04-18T16:10:01.001Z</time></trkpt><trkpt lat="43.481107310503184" lon="10.691886986713557"><ele>107.0</ele><time>2026-04-18T16:10:02.001Z</time></trkpt><trkpt lat="43.48114603857561" lon="10.691671014142882"><ele>107.66666666666666</ele><time>2026-04-18T16:10:03.001Z</time></trkpt><trkpt lat="43.481187503014766" lon="10.691450417669753"><ele>108.33333333333334</ele><time>2026-04-18T16:10:04.001Z</time></trkpt><trkpt lat="43.48123019992117" lon="10.691226271865396"><ele>109.0</ele><time>2026-04-18T16:10:05.001Z</time></trkpt><trkpt lat="43.48127285915417" lon="10.69100524734684"><ele>109.66666666666667</ele><time>2026-04-18T16:10:06.001Z</time></trkpt><trkpt lat="43.481314698331076" lon="10.690788258964124"><ele>110.33333333333334</ele><time>2026-04-18T16:10:07.001Z</time></trkpt><trkpt lat="43.48135195034457" lon="10.690575862540632"><ele>111.0</ele><time>2026-04-18T16:10:08.001Z</time></trkpt><trkpt lat="43.4813864870636" lon="10.690370185517873"><ele>111.0</ele><time>2026-04-18T16:10:09.001Z</time></trkpt><trkpt lat="43.48141527517638" lon="10.690160497415205"><ele>111.0</ele><time>2026-04-18T16:10:10.001Z</time></trkpt><trkpt lat="43.48143264647435" lon="10.689946986976087"><ele>111.0</ele><time>2026-04-18T16:10:11.001Z</time></trkpt><trkpt lat="43.481431686929405" lon="10.689733129889142"><ele>111.0</ele><time>2026-04-18T16:10:12.001Z</time></trkpt><trkpt lat="43.48142097609237" lon="10.689520944806063"><ele>111.0</ele><time>2026-04-18T16:10:13.001Z</time></trkpt><trkpt lat="43.48140178028069" lon="10.689301711433307"><ele>111.0</ele><time>2026-04-18T16:10:14.001Z</time></trkpt><trkpt lat="43.48138378028416" lon="10.68908065214545"><ele>112.0</ele><time>2026-04-18T16:10:15.001Z</time></trkpt><trkpt lat="43.481368790378724" lon="10.688862022694105"><ele>113.0</ele><time>2026-04-18T16:10:16.001Z</time></trkpt><trkpt lat="43.481354724823966" lon="10.68865115464726"><ele>114.0</ele><time>2026-04-18T16:10:17.001Z</time></trkpt><trkpt lat="43.48133498300582" lon="10.688450066879472"><ele>114.75</ele><time>2026-04-18T16:10:18.001Z</time></trkpt><trkpt lat="43.481321087951564" lon="10.688253752906505"><ele>115.5</ele><time>2026-04-18T16:10:19.001Z</time></trkpt><trkpt lat="43.48131783207554" lon="10.688056768348693"><ele>116.25</ele><time>2026-04-18T16:10:20.001Z</time></trkpt><trkpt lat="43.481328433274044" lon="10.687858603651117"><ele>117.0</ele><time>2026-04-18T16:10:21.001Z</time></trkpt><trkpt lat="43.481353137022204" lon="10.687659795353179"><ele>117.0</ele><time>2026-04-18T16:10:22.001Z</time></trkpt><trkpt lat="43.481383263093015" lon="10.68746195639489"><ele>117.0</ele><time>2026-04-18T16:10:23.002Z</time></trkpt><trkpt lat="43.48142032130691" lon="10.687259302193914"><ele>117.0</ele><time>2026-04-18T16:10:24.002Z</time></trkpt><trkpt lat="43.4814533418278" lon="10.687055659681858"><ele>116.25</ele><time>2026-04-18T16:10:25.002Z</time></trkpt><trkpt lat="43.48148988426999" lon="10.6868482292245"><ele>115.5</ele><time>2026-04-18T16:10:26.002Z</time></trkpt><trkpt lat="43.481527551520486" lon="10.686649808202079"><ele>114.75</ele><time>2026-04-18T16:10:27.002Z</time></trkpt><trkpt lat="43.48156448379079" lon="10.686460633100257"><ele>114.0</ele><time>2026-04-18T16:10:28.002Z</time></trkpt><trkpt lat="43.48160612428784" lon="10.686283879925499"><ele>114.0</ele><time>2026-04-18T16:10:29.002Z</time></trkpt><trkpt lat="43.481649496560266" lon="10.686116803833858"><ele>114.0</ele><time>2026-04-18T16:10:30.002Z</time></trkpt><trkpt lat="43.481686441011995" lon="10.685957404493891"><ele>114.0</ele><time>2026-04-18T16:10:31.002Z</time></trkpt><trkpt lat="43.481716816292796" lon="10.685802458060373"><ele>114.0</ele><time>2026-04-18T16:10:32.002Z</time></trkpt><trkpt lat="43.481728709602244" lon="10.685652816172745"><ele>113.75</ele><time>2026-04-18T16:10:33.002Z</time></trkpt><trkpt lat="43.481712673530545" lon="10.68549401941891"><ele>113.5</ele><time>2026-04-18T16:10:34.002Z</time></trkpt><trkpt lat="43.48169205976348" lon="10.685333132006102"><ele>113.25</ele><time>2026-04-18T16:10:35.002Z</time></trkpt><trkpt lat="43.48166717595171" lon="10.685151577603774"><ele>113.0</ele><time>2026-04-18T16:10:36.002Z</time></trkpt><trkpt lat="43.481639238551075" lon="10.684972803328634"><ele>113.5</ele><time>2026-04-18T16:10:37.002Z</time></trkpt><trkpt lat="43.48161178921718" lon="10.684792103964918"><ele>114.0</ele><time>2026-04-18T16:10:38.002Z</time></trkpt><trkpt lat="43.48158294425933" lon="10.684615037647482"><ele>114.5</ele><time>2026-04-18T16:10:39.002Z</time></trkpt><trkpt lat="43.48154828430479" lon="10.68444437322273"><ele>115.0</ele><time>2026-04-18T16:10:40.002Z</time></trkpt><trkpt lat="43.48150977613383" lon="10.684270896111343"><ele>115.25</ele><time>2026-04-18T16:10:41.002Z</time></trkpt><trkpt lat="43.48145630481866" lon="10.684103883415423"><ele>115.5</ele><time>2026-04-18T16:10:42.002Z</time></trkpt><trkpt lat="43.481400345770105" lon="10.683935984890482"><ele>115.75</ele><time>2026-04-18T16:10:43.002Z</time></trkpt><trkpt lat="43.481328738586505" lon="10.683772966641179"><ele>116.0</ele><time>2026-04-18T16:10:44.002Z</time></trkpt><trkpt lat="43.48126010172254" lon="10.683610152997915"><ele>116.0</ele><time>2026-04-18T16:10:45.002Z</time></trkpt><trkpt lat="43.4811998782994" lon="10.683449902818234"><ele>116.0</ele><time>2026-04-18T16:10:46.002Z</time></trkpt><trkpt lat="43.48115318689213" lon="10.683286668317365"><ele>116.0</ele><time>2026-04-18T16:10:47.002Z</time></trkpt><trkpt lat="43.48113422770908" lon="10.683115086027147"><ele>116.0</ele><time>2026-04-18T16:10:48.002Z</time></trkpt><trkpt lat="43.481133192816166" lon="10.682937327269421"><ele>116.5</ele><time>2026-04-18T16:10:49.002Z</time></trkpt><trkpt lat="43.481144661168244" lon="10.682753646503155"><ele>117.0</ele><time>2026-04-18T16:10:50.002Z</time></trkpt><trkpt lat="43.48115724983291" lon="10.68256412349606"><ele>117.5</ele><time>2026-04-18T16:10:51.002Z</time></trkpt><trkpt lat="43.48116797205936" lon="10.682367892654355"><ele>118.0</ele><time>2026-04-18T16:10:52.002Z</time></trkpt><trkpt lat="43.48117603510237" lon="10.682164237390477"><ele>118.0</ele><time>2026-04-18T16:10:53.002Z</time></trkpt><trkpt lat="43.481188767630535" lon="10.681956482125836"><ele>118.0</ele><time>2026-04-18T16:10:54.002Z</time></trkpt><trkpt lat="43.48120128211776" lon="10.681741572190141"><ele>118.0</ele><time>2026-04-18T16:10:55.002Z</time></trkpt><trkpt lat="43.48121539289255" lon="10.681521284360485"><ele>118.33333333333334</ele><time>2026-04-18T16:10:56.002Z</time></trkpt><trkpt lat="43.48123053706635" lon="10.681294493003294"><ele>118.66666666666666</ele><time>2026-04-18T16:10:57.002Z</time></trkpt><trkpt lat="43.48124344840058" lon="10.681075191857646"><ele>119.0</ele><time>2026-04-18T16:10:58.002Z</time></trkpt><trkpt lat="43.48125828674645" lon="10.680849918964148"><ele>119.0</ele><time>2026-04-18T16:10:59.002Z</time></trkpt><trkpt lat="43.48127262461286" lon="10.680624302952051"><ele>119.0</ele><time>2026-04-18T16:11:00.002Z</time></trkpt><trkpt lat="43.48128593602595" lon="10.680396815360307"><ele>119.0</ele><time>2026-04-18T16:11:01.002Z</time></trkpt><trkpt lat="43.48129878622842" lon="10.680172269042236"><ele>119.66666666666666</ele><time>2026-04-18T16:11:02.002Z</time></trkpt><trkpt lat="43.481312508563036" lon="10.67993942794877"><ele>120.33333333333334</ele><time>2026-04-18T16:11:03.003Z</time></trkpt><trkpt lat="43.48132555056092" lon="10.67971615867871"><ele>121.0</ele><time>2026-04-18T16:11:04.003Z</time></trkpt><trkpt lat="43.48133792783372" lon="10.679497102610535"><ele>121.66666666666667</ele><time>2026-04-18T16:11:05.003Z</time></trkpt><trkpt lat="43.481348696413384" lon="10.679284919491574"><ele>122.33333333333334</ele><time>2026-04-18T16:11:06.003Z</time></trkpt><trkpt lat="43.481361651132694" lon="10.679071191185356"><ele>123.0</ele><time>2026-04-18T16:11:07.003Z</time></trkpt><trkpt lat="43.48137268833879" lon="10.67885824549013"><ele>123.0</ele><time>2026-04-18T16:11:08Z</time></trkpt><trkpt lat="43.48138422820401" lon="10.678641384386324"><ele>123.0</ele><time>2026-04-18T16:11:09Z</time></trkpt><trkpt lat="43.48139806096108" lon="10.678424187472352"><ele>123.0</ele><time>2026-04-18T16:11:10Z</time></trkpt><trkpt lat="43.481420903542585" lon="10.678206292310085"><ele>123.66666666666666</ele><time>2026-04-18T16:11:11Z</time></trkpt><trkpt lat="43.48145877590151" lon="10.677988686878855"><ele>124.33333333333333</ele><time>2026-04-18T16:11:12Z</time></trkpt><trkpt lat="43.481513366710985" lon="10.677775721271075"><ele>125.0</ele><time>2026-04-18T16:11:13Z</time></trkpt><trkpt lat="43.48157537278609" lon="10.677565991483583"><ele>125.66666666666666</ele><time>2026-04-18T16:11:14Z</time></trkpt><trkpt lat="43.48163711477657" lon="10.67735483068074"><ele>126.33333333333334</ele><time>2026-04-18T16:11:15Z</time></trkpt><trkpt lat="43.48170299958783" lon="10.6771440165192"><ele>127.0</ele><time>2026-04-18T16:11:16Z</time></trkpt><trkpt lat="43.48176744743596" lon="10.676929281866736"><ele>128.0</ele><time>2026-04-18T16:11:17Z</time></trkpt><trkpt lat="43.48184853540681" lon="10.676720418971051"><ele>129.0</ele><time>2026-04-18T16:11:18Z</time></trkpt><trkpt lat="43.48189897455131" lon="10.676491865322316"><ele>130.0</ele><time>2026-04-18T16:11:19Z</time></trkpt><trkpt lat="43.48196226126025" lon="10.676269731370697"><ele>130.66666666666669</ele><time>2026-04-18T16:11:20Z</time></trkpt><trkpt lat="43.48203123701855" lon="10.676051145967058"><ele>131.33333333333334</ele><time>2026-04-18T16:11:21Z</time></trkpt><trkpt lat="43.48210062454551" lon="10.675834130215623"><ele>132.0</ele><time>2026-04-18T16:11:22Z</time></trkpt><trkpt lat="43.48218457415704" lon="10.675630644226949"><ele>132.66666666666666</ele><time>2026-04-18T16:11:23Z</time></trkpt><trkpt lat="43.48224791325352" lon="10.675424175186176"><ele>133.33333333333331</ele><time>2026-04-18T16:11:24Z</time></trkpt><trkpt lat="43.482302662180295" lon="10.675226567263756"><ele>134.0</ele><time>2026-04-18T16:11:25Z</time></trkpt><trkpt lat="43.48233466117428" lon="10.675026779041543"><ele>134.75</ele><time>2026-04-18T16:11:26Z</time></trkpt><trkpt lat="43.48235913941588" lon="10.674828749491999"><ele>135.5</ele><time>2026-04-18T16:11:27Z</time></trkpt><trkpt lat="43.48236788364713" lon="10.674639595648177"><ele>136.25</ele><time>2026-04-18T16:11:28Z</time></trkpt><trkpt lat="43.48237382287758" lon="10.674451658858594"><ele>137.0</ele><time>2026-04-18T16:11:29Z</time></trkpt><trkpt lat="43.48233923945085" lon="10.67428007082242"><ele>137.0</ele><time>2026-04-18T16:11:30Z</time></trkpt><trkpt lat="43.48228417345959" lon="10.674140569953941"><ele>137.0</ele><time>2026-04-18T16:11:31Z</time></trkpt><trkpt lat="43.48225091553068" lon="10.674014047150939"><ele>137.0</ele><time>2026-04-18T16:11:32Z</time></trkpt><trkpt lat="43.48222008313757" lon="10.673918350572073"><ele>137.0</ele><time>2026-04-18T16:11:33Z</time></trkpt><trkpt lat="43.48218689082529" lon="10.673814845060068"><ele>137.0</ele><time>2026-04-18T16:11:35Z</time></trkpt><trkpt lat="43.48207768195349" lon="10.673777400981141"><ele>136.6</ele><time>2026-04-18T16:11:38Z</time></trkpt><trkpt lat="43.481945711183016" lon="10.6737521498884"><ele>136.2</ele><time>2026-04-18T16:11:40Z</time></trkpt><trkpt lat="43.48186421694688" lon="10.673738064634222"><ele>135.8</ele><time>2026-04-18T16:11:41Z</time></trkpt><trkpt lat="43.48178895677941" lon="10.673721527086604"><ele>135.4</ele><time>2026-04-18T16:11:42Z</time></trkpt><trkpt lat="43.48170738156068" lon="10.673696647140241"><ele>135.0</ele><time>2026-04-18T16:11:43Z</time></trkpt><trkpt lat="43.481628717984535" lon="10.673648834349882"><ele>135.4</ele><time>2026-04-18T16:11:44Z</time></trkpt><trkpt lat="43.48154703470946" lon="10.67358992445547"><ele>135.8</ele><time>2026-04-18T16:11:45Z</time></trkpt><trkpt lat="43.48150049640031" lon="10.673471919797064"><ele>136.2</ele><time>2026-04-18T16:11:46Z</time></trkpt><trkpt lat="43.48145175722953" lon="10.673357222861897"><ele>136.6</ele><time>2026-04-18T16:11:47Z</time></trkpt><trkpt lat="43.48140559862525" lon="10.673235534182735"><ele>137.0</ele><time>2026-04-18T16:11:48Z</time></trkpt><trkpt lat="43.48136015348838" lon="10.673101680382869"><ele>137.0</ele><time>2026-04-18T16:11:49Z</time></trkpt><trkpt lat="43.48131180070916" lon="10.672960810254628"><ele>137.0</ele><time>2026-04-18T16:11:50Z</time></trkpt><trkpt lat="43.48126070935262" lon="10.672815898714273"><ele>137.0</ele><time>2026-04-18T16:11:51Z</time></trkpt><trkpt lat="43.48121426361063" lon="10.67266768343853"><ele>137.0</ele><time>2026-04-18T16:11:52Z</time></trkpt><trkpt lat="43.48117547706482" lon="10.67251275716208"><ele>138.75</ele><time>2026-04-18T16:11:53Z</time></trkpt><trkpt lat="43.48113836156006" lon="10.672354991820994"><ele>140.5</ele><time>2026-04-18T16:11:54.001Z</time></trkpt><trkpt lat="43.48110199354849" lon="10.672198334403042"><ele>142.25</ele><time>2026-04-18T16:11:55.001Z</time></trkpt><trkpt lat="43.48106705217035" lon="10.672047822303057"><ele>144.0</ele><time>2026-04-18T16:11:56.001Z</time></trkpt><trkpt lat="43.48103311659724" lon="10.671904320680804"><ele>145.6</ele><time>2026-04-18T16:11:57.001Z</time></trkpt><trkpt lat="43.48099981719904" lon="10.671769710893804"><ele>147.2</ele><time>2026-04-18T16:11:58.001Z</time></trkpt><trkpt lat="43.480967289189515" lon="10.671638219243052"><ele>148.79999999999998</ele><time>2026-04-18T16:11:59.001Z</time></trkpt><trkpt lat="43.48093588323056" lon="10.671507517414389"><ele>150.4</ele><time>2026-04-18T16:12:00.001Z</time></trkpt><trkpt lat="43.48090671226017" lon="10.671381187202169"><ele>152.0</ele><time>2026-04-18T16:12:01.001Z</time></trkpt><trkpt lat="43.48088254046614" lon="10.671264487320308"><ele>152.0</ele><time>2026-04-18T16:12:02.001Z</time></trkpt><trkpt lat="43.48086427279579" lon="10.6711578167923"><ele>152.0</ele><time>2026-04-18T16:12:03.001Z</time></trkpt><trkpt lat="43.48086272804802" lon="10.671055021577216"><ele>152.0</ele><time>2026-04-18T16:12:04.001Z</time></trkpt><trkpt lat="43.480882699921786" lon="10.67095604847015"><ele>152.0</ele><time>2026-04-18T16:12:05.001Z</time></trkpt><trkpt lat="43.480905341811784" lon="10.670847539845338"><ele>152.0</ele><time>2026-04-18T16:12:06.001Z</time></trkpt><trkpt lat="43.48091565934142" lon="10.670723515289577"><ele>152.0</ele><time>2026-04-18T16:12:07.001Z</time></trkpt><trkpt lat="43.48094158951226" lon="10.670607507155184"><ele>153.0</ele><time>2026-04-18T16:12:08.001Z</time></trkpt><trkpt lat="43.48094678306834" lon="10.670500983356739"><ele>154.0</ele><time>2026-04-18T16:12:09.001Z</time></trkpt><trkpt lat="43.480937146246646" lon="10.670405369566653"><ele>155.0</ele><time>2026-04-18T16:12:10.001Z</time></trkpt><trkpt lat="43.480915141501455" lon="10.670318099318923"><ele>156.0</ele><time>2026-04-18T16:12:11.001Z</time></trkpt><trkpt lat="43.48087357259897" lon="10.670226095282514"><ele>157.0</ele><time>2026-04-18T16:12:12.001Z</time></trkpt><trkpt lat="43.480816704518624" lon="10.670130596905707"><ele>158.0</ele><time>2026-04-18T16:12:13.001Z</time></trkpt><trkpt lat="43.48076426756042" lon="10.670013061427824"><ele>158.0</ele><time>2026-04-18T16:12:14.001Z</time></trkpt><trkpt lat="43.48068373591147" lon="10.66992287429708"><ele>158.0</ele><time>2026-04-18T16:12:15.001Z</time></trkpt><trkpt lat="43.480620312891396" lon="10.669805349159585"><ele>158.0</ele><time>2026-04-18T16:12:16.001Z</time></trkpt><trkpt lat="43.48054906375302" lon="10.669695007720355"><ele>158.0</ele><time>2026-04-18T16:12:17.001Z</time></trkpt><trkpt lat="43.48047591428151" lon="10.669578679285996"><ele>158.0</ele><time>2026-04-18T16:12:18.001Z</time></trkpt><trkpt lat="43.4803998910658" lon="10.669460246492013"><ele>157.25</ele><time>2026-04-18T16:12:19.001Z</time></trkpt><trkpt lat="43.480322794770196" lon="10.669337879918228"><ele>156.5</ele><time>2026-04-18T16:12:20.001Z</time></trkpt><trkpt lat="43.48024947157182" lon="10.66921608724507"><ele>155.75</ele><time>2026-04-18T16:12:21.001Z</time></trkpt><trkpt lat="43.48017993130392" lon="10.669094614138098"><ele>155.0</ele><time>2026-04-18T16:12:22.001Z</time></trkpt><trkpt lat="43.48011474226978" lon="10.668973799559595"><ele>155.0</ele><time>2026-04-18T16:12:23.001Z</time></trkpt><trkpt lat="43.480057082655456" lon="10.668856439880653"><ele>155.0</ele><time>2026-04-18T16:12:24.001Z</time></trkpt><trkpt lat="43.480002411557486" lon="10.668737386936302"><ele>155.0</ele><time>2026-04-18T16:12:25.001Z</time></trkpt><trkpt lat="43.4799537712087" lon="10.668628356870775"><ele>155.0</ele><time>2026-04-18T16:12:26.001Z</time></trkpt><trkpt lat="43.47990203790755" lon="10.668520066438395"><ele>155.0</ele><time>2026-04-18T16:12:27.001Z</time></trkpt><trkpt lat="43.47984549678657" lon="10.668427849594792"><ele>155.16666666666666</ele><time>2026-04-18T16:12:28.001Z</time></trkpt><trkpt lat="43.47977872699883" lon="10.668353524756665"><ele>155.33333333333331</ele><time>2026-04-18T16:12:29.001Z</time></trkpt><trkpt lat="43.47970462524058" lon="10.668305043071209"><ele>155.5</ele><time>2026-04-18T16:12:30.001Z</time></trkpt><trkpt lat="43.479626316205675" lon="10.66828294896983"><ele>155.66666666666666</ele><time>2026-04-18T16:12:31.001Z</time></trkpt><trkpt lat="43.479554753114805" lon="10.66828639976156"><ele>155.83333333333334</ele><time>2026-04-18T16:12:32.001Z</time></trkpt><trkpt lat="43.47948082602895" lon="10.668320496628139"><ele>156.0</ele><time>2026-04-18T16:12:33.002Z</time></trkpt><trkpt lat="43.47940347946553" lon="10.668374856875186"><ele>156.0</ele><time>2026-04-18T16:12:34.002Z</time></trkpt><trkpt lat="43.479327988527196" lon="10.668436168037934"><ele>156.0</ele><time>2026-04-18T16:12:35.002Z</time></trkpt><trkpt lat="43.479256513658434" lon="10.668496487862605"><ele>156.0</ele><time>2026-04-18T16:12:36.002Z</time></trkpt><trkpt lat="43.47917996105636" lon="10.668542637718236"><ele>156.0</ele><time>2026-04-18T16:12:37.002Z</time></trkpt><trkpt lat="43.47910237178046" lon="10.668565202897135"><ele>156.0</ele><time>2026-04-18T16:12:38.002Z</time></trkpt><trkpt lat="43.47902049760909" lon="10.66857670840254"><ele>156.0</ele><time>2026-04-18T16:12:39.002Z</time></trkpt><trkpt lat="43.47893838861092" lon="10.668577818807501"><ele>156.0</ele><time>2026-04-18T16:12:40.002Z</time></trkpt><trkpt lat="43.47885348872993" lon="10.66856812273032"><ele>156.0</ele><time>2026-04-18T16:12:41.002Z</time></trkpt><trkpt lat="43.47876405787185" lon="10.668546259164867"><ele>156.0</ele><time>2026-04-18T16:12:42.002Z</time></trkpt><trkpt lat="43.47867050793151" lon="10.668538978164852"><ele>156.0</ele><time>2026-04-18T16:12:43.002Z</time></trkpt><trkpt lat="43.47857285180212" lon="10.66851159974496"><ele>156.0</ele><time>2026-04-18T16:12:44.002Z</time></trkpt><trkpt lat="43.478469880546385" lon="10.668479952752683"><ele>156.0</ele><time>2026-04-18T16:12:45.002Z</time></trkpt><trkpt lat="43.47836630578169" lon="10.668449072383801"><ele>156.0</ele><time>2026-04-18T16:12:46.002Z</time></trkpt><trkpt lat="43.47825588884405" lon="10.66841568140554"><ele>156.0</ele><time>2026-04-18T16:12:47.002Z</time></trkpt><trkpt lat="43.47814610570116" lon="10.668375502274658"><ele>156.0</ele><time>2026-04-18T16:12:48.002Z</time></trkpt><trkpt lat="43.47803760358946" lon="10.668350232161256"><ele>156.0</ele><time>2026-04-18T16:12:49.002Z</time></trkpt><trkpt lat="43.47792905649706" lon="10.668346124269595"><ele>156.6</ele><time>2026-04-18T16:12:50.002Z</time></trkpt><trkpt lat="43.47783339526724" lon="10.668351289661079"><ele>157.2</ele><time>2026-04-18T16:12:51.002Z</time></trkpt><trkpt lat="43.477743611957095" lon="10.668369216950246"><ele>157.8</ele><time>2026-04-18T16:12:52.002Z</time></trkpt><trkpt lat="43.477651662641804" lon="10.66838918194505"><ele>158.4</ele><time>2026-04-18T16:12:53.002Z</time></trkpt><trkpt lat="43.477558572479474" lon="10.668409723312541"><ele>159.0</ele><time>2026-04-18T16:12:54.002Z</time></trkpt><trkpt lat="43.4774602789531" lon="10.668433468658321"><ele>159.0</ele><time>2026-04-18T16:12:55.002Z</time></trkpt><trkpt lat="43.47735426037802" lon="10.668455567773083"><ele>159.0</ele><time>2026-04-18T16:12:56.002Z</time></trkpt><trkpt lat="43.477247254458085" lon="10.66847545485861"><ele>159.0</ele><time>2026-04-18T16:12:57.002Z</time></trkpt><trkpt lat="43.47713607093438" lon="10.668502210502169"><ele>159.0</ele><time>2026-04-18T16:12:58.002Z</time></trkpt><trkpt lat="43.477023220988414" lon="10.668536480230276"><ele>159.0</ele><time>2026-04-18T16:12:59.002Z</time></trkpt><trkpt lat="43.47690367388729" lon="10.6685722632255"><ele>157.0</ele><time>2026-04-18T16:13:00.002Z</time></trkpt><trkpt lat="43.4767825910252" lon="10.668611092277297"><ele>155.0</ele><time>2026-04-18T16:13:01.002Z</time></trkpt><trkpt lat="43.476659772768755" lon="10.668646085546783"><ele>153.0</ele><time>2026-04-18T16:13:02.002Z</time></trkpt><trkpt lat="43.476536121604845" lon="10.668679215998104"><ele>151.0</ele><time>2026-04-18T16:13:03.002Z</time></trkpt><trkpt lat="43.476414730821546" lon="10.668709511155916"><ele>151.0</ele><time>2026-04-18T16:13:04.002Z</time></trkpt><trkpt lat="43.47629462563107" lon="10.668749041631655"><ele>151.0</ele><time>2026-04-18T16:13:05.002Z</time></trkpt><trkpt lat="43.476174019727566" lon="10.668785975444326"><ele>151.0</ele><time>2026-04-18T16:13:06.002Z</time></trkpt><trkpt lat="43.47605460874623" lon="10.668823801442993"><ele>151.0</ele><time>2026-04-18T16:13:07.002Z</time></trkpt><trkpt lat="43.47593863711417" lon="10.668859187959415"><ele>152.0</ele><time>2026-04-18T16:13:08.002Z</time></trkpt><trkpt lat="43.47582737665848" lon="10.668891124206175"><ele>153.0</ele><time>2026-04-18T16:13:09.002Z</time></trkpt><trkpt lat="43.47572021939705" lon="10.668918761945346"><ele>154.0</ele><time>2026-04-18T16:13:10.002Z</time></trkpt><trkpt lat="43.47562045035274" lon="10.668949998955691"><ele>155.0</ele><time>2026-04-18T16:13:11.002Z</time></trkpt><trkpt lat="43.47552271013869" lon="10.668972491775916"><ele>156.0</ele><time>2026-04-18T16:13:12.003Z</time></trkpt><trkpt lat="43.47542728880365" lon="10.668975191124176"><ele>157.83333333333334</ele><time>2026-04-18T16:13:13.003Z</time></trkpt><trkpt lat="43.47533527622148" lon="10.668956983133915"><ele>159.66666666666666</ele><time>2026-04-18T16:13:14Z</time></trkpt><trkpt lat="43.475254109462156" lon="10.668911194890551"><ele>161.5</ele><time>2026-04-18T16:13:15Z</time></trkpt><trkpt lat="43.47518512342039" lon="10.668848092496713"><ele>163.33333333333331</ele><time>2026-04-18T16:13:16Z</time></trkpt><trkpt lat="43.475122503552626" lon="10.668784186957842"><ele>165.16666666666666</ele><time>2026-04-18T16:13:17Z</time></trkpt><trkpt lat="43.475073422864384" lon="10.668696242912352"><ele>167.0</ele><time>2026-04-18T16:13:18Z</time></trkpt><trkpt lat="43.4750123242398" lon="10.668619581328116"><ele>166.8</ele><time>2026-04-18T16:13:19Z</time></trkpt><trkpt lat="43.47494579216033" lon="10.668545119906312"><ele>166.6</ele><time>2026-04-18T16:13:20Z</time></trkpt><trkpt lat="43.47487149979166" lon="10.668479014015999"><ele>166.4</ele><time>2026-04-18T16:13:21Z</time></trkpt><trkpt lat="43.47478636929124" lon="10.66842494384742"><ele>166.20000000000002</ele><time>2026-04-18T16:13:22Z</time></trkpt><trkpt lat="43.47470128772856" lon="10.668381160381696"><ele>166.0</ele><time>2026-04-18T16:13:23Z</time></trkpt><trkpt lat="43.47461202134668" lon="10.668338074323035"><ele>167.0</ele><time>2026-04-18T16:13:24Z</time></trkpt><trkpt lat="43.474506835660776" lon="10.66829057912305"><ele>168.0</ele><time>2026-04-18T16:13:25Z</time></trkpt><trkpt lat="43.474401123428855" lon="10.66824522824127"><ele>169.0</ele><time>2026-04-18T16:13:26Z</time></trkpt><trkpt lat="43.47429644433723" lon="10.668201861191891"><ele>170.0</ele><time>2026-04-18T16:13:27Z</time></trkpt><trkpt lat="43.47418520329916" lon="10.668154924746965"><ele>171.0</ele><time>2026-04-18T16:13:28Z</time></trkpt><trkpt lat="43.474089681240265" lon="10.668113083422261"><ele>171.0</ele><time>2026-04-18T16:13:29Z</time></trkpt><trkpt lat="43.47400539424746" lon="10.668074388386968"><ele>171.0</ele><time>2026-04-18T16:13:30Z</time></trkpt><trkpt lat="43.473929217251545" lon="10.668039416561786"><ele>171.0</ele><time>2026-04-18T16:13:31Z</time></trkpt><trkpt lat="43.473854806871444" lon="10.668004170514024"><ele>171.0</ele><time>2026-04-18T16:13:32Z</time></trkpt><trkpt lat="43.47377976784457" lon="10.667967680739581"><ele>171.0</ele><time>2026-04-18T16:13:33Z</time></trkpt><trkpt lat="43.47369764383768" lon="10.667949842646442"><ele>171.0</ele><time>2026-04-18T16:13:34Z</time></trkpt><trkpt lat="43.47362066055655" lon="10.667906971119324"><ele>171.66666666666666</ele><time>2026-04-18T16:13:35Z</time></trkpt><trkpt lat="43.47353959448903" lon="10.667871177259153"><ele>172.33333333333334</ele><time>2026-04-18T16:13:36Z</time></trkpt><trkpt lat="43.47346171483472" lon="10.667807104259479"><ele>173.0</ele><time>2026-04-18T16:13:37Z</time></trkpt><trkpt lat="43.47338288343329" lon="10.66775909999704"><ele>173.66666666666669</ele><time>2026-04-18T16:13:38Z</time></trkpt><trkpt lat="43.47330510545233" lon="10.667704975670441"><ele>174.33333333333334</ele><time>2026-04-18T16:13:39Z</time></trkpt><trkpt lat="43.47323391281542" lon="10.667640227181677"><ele>175.0</ele><time>2026-04-18T16:13:40Z</time></trkpt><trkpt lat="43.47316730057335" lon="10.66755944360359"><ele>175.83333333333334</ele><time>2026-04-18T16:13:41Z</time></trkpt><trkpt lat="43.473120044136046" lon="10.66746002650889"><ele>176.66666666666669</ele><time>2026-04-18T16:13:42Z</time></trkpt><trkpt lat="43.47307523760615" lon="10.66735406702525"><ele>177.5</ele><time>2026-04-18T16:13:43Z</time></trkpt><trkpt lat="43.47303107986549" lon="10.667262382348337"><ele>178.33333333333334</ele><time>2026-04-18T16:13:44Z</time></trkpt><trkpt lat="43.472975296898824" lon="10.667182772092016"><ele>179.16666666666666</ele><time>2026-04-18T16:13:45Z</time></trkpt><trkpt lat="43.472930715870675" lon="10.667094145962563"><ele>180.0</ele><time>2026-04-18T16:13:46Z</time></trkpt><trkpt lat="43.472889651039736" lon="10.666989153756337"><ele>181.4</ele><time>2026-04-18T16:13:47Z</time></trkpt><trkpt lat="43.47282189703211" lon="10.66690237954823"><ele>182.8</ele><time>2026-04-18T16:13:48Z</time></trkpt><trkpt lat="43.47274403447198" lon="10.666824557855692"><ele>184.2</ele><time>2026-04-18T16:13:49Z</time></trkpt><trkpt lat="43.4726561182177" lon="10.666747548317552"><ele>185.6</ele><time>2026-04-18T16:13:50.001Z</time></trkpt><trkpt lat="43.47256965243271" lon="10.666676370822351"><ele>187.0</ele><time>2026-04-18T16:13:51.001Z</time></trkpt><trkpt lat="43.472473146058064" lon="10.666598044274124"><ele>187.0</ele><time>2026-04-18T16:13:52.001Z</time></trkpt><trkpt lat="43.472372925138785" lon="10.666524775209881"><ele>187.0</ele><time>2026-04-18T16:13:53.001Z</time></trkpt><trkpt lat="43.472270453385335" lon="10.666451385569086"><ele>187.0</ele><time>2026-04-18T16:13:54.001Z</time></trkpt><trkpt lat="43.472159775885885" lon="10.66639291526876"><ele>187.0</ele><time>2026-04-18T16:13:55.001Z</time></trkpt><trkpt lat="43.4720566114925" lon="10.666310691718238"><ele>186.75</ele><time>2026-04-18T16:13:56.001Z</time></trkpt><trkpt lat="43.471951193601654" lon="10.666230304845978"><ele>186.5</ele><time>2026-04-18T16:13:57.001Z</time></trkpt><trkpt lat="43.47184567591129" lon="10.666150550497006"><ele>186.25</ele><time>2026-04-18T16:13:58.001Z</time></trkpt><trkpt lat="43.47174270990805" lon="10.666073821497514"><ele>186.0</ele><time>2026-04-18T16:13:59.001Z</time></trkpt><trkpt lat="43.47164579008089" lon="10.665993669621042"><ele>187.5</ele><time>2026-04-18T16:14:00.001Z</time></trkpt><trkpt lat="43.47154731210131" lon="10.665913016227286"><ele>189.0</ele><time>2026-04-18T16:14:01.001Z</time></trkpt><trkpt lat="43.47144811636073" lon="10.665835239704899"><ele>190.5</ele><time>2026-04-18T16:14:02.001Z</time></trkpt><trkpt lat="43.471343999730294" lon="10.665755932966755"><ele>192.0</ele><time>2026-04-18T16:14:03.001Z</time></trkpt><trkpt lat="43.471239082786894" lon="10.665675540155144"><ele>192.5</ele><time>2026-04-18T16:14:04.001Z</time></trkpt><trkpt lat="43.47113327711493" lon="10.665594667310016"><ele>193.0</ele><time>2026-04-18T16:14:05.001Z</time></trkpt><trkpt lat="43.47102741381125" lon="10.665516483938024"><ele>193.5</ele><time>2026-04-18T16:14:06.001Z</time></trkpt><trkpt lat="43.47092390714304" lon="10.66543898580199"><ele>194.0</ele><time>2026-04-18T16:14:07.001Z</time></trkpt><trkpt lat="43.470839300396676" lon="10.66536839037949"><ele>194.00000000000003</ele><time>2026-04-18T16:14:08.001Z</time></trkpt><trkpt lat="43.470771886867986" lon="10.665313864153825"><ele>194.0</ele><time>2026-04-18T16:14:09.001Z</time></trkpt><trkpt lat="43.47071780529294" lon="10.665268256298598"><ele>194.0</ele><time>2026-04-18T16:14:10.001Z</time></trkpt><trkpt lat="43.47064140220781" lon="10.665129930138782"><ele>194.0</ele><time>2026-04-18T16:14:12.001Z</time></trkpt><trkpt lat="43.47060383296191" lon="10.665056318513708"><ele>194.00000000000003</ele><time>2026-04-18T16:14:13.001Z</time></trkpt><trkpt lat="43.470567141785274" lon="10.664984798239633"><ele>194.0</ele><time>2026-04-18T16:14:14.001Z</time></trkpt><trkpt lat="43.47052902357704" lon="10.664906328364504"><ele>195.0</ele><time>2026-04-18T16:14:15.001Z</time></trkpt><trkpt lat="43.47049257677761" lon="10.664828508228151"><ele>196.0</ele><time>2026-04-18T16:14:16.001Z</time></trkpt><trkpt lat="43.47044365092986" lon="10.66476252679689"><ele>197.0</ele><time>2026-04-18T16:14:17.001Z</time></trkpt><trkpt lat="43.47041017427725" lon="10.664683653477505"><ele>198.0</ele><time>2026-04-18T16:14:18.001Z</time></trkpt><trkpt lat="43.47037545007945" lon="10.664605988076246"><ele>199.0</ele><time>2026-04-18T16:14:19.001Z</time></trkpt><trkpt lat="43.47034066698247" lon="10.664527621785336"><ele>200.0</ele><time>2026-04-18T16:14:20.001Z</time></trkpt><trkpt lat="43.47032161470037" lon="10.664439158472213"><ele>201.0</ele><time>2026-04-18T16:14:21.001Z</time></trkpt><trkpt lat="43.47029563292896" lon="10.66435631603022"><ele>203.57142857142856</ele><time>2026-04-18T16:14:22.001Z</time></trkpt><trkpt lat="43.47027797507339" lon="10.664269262964341"><ele>206.14285714285717</ele><time>2026-04-18T16:14:23.001Z</time></trkpt><trkpt lat="43.47027529837238" lon="10.664177888240745"><ele>208.71428571428572</ele><time>2026-04-18T16:14:24.001Z</time></trkpt><trkpt lat="43.47027525015338" lon="10.664080727667129"><ele>211.28571428571428</ele><time>2026-04-18T16:14:25.001Z</time></trkpt><trkpt lat="43.470280710760754" lon="10.663979183462715"><ele>213.85714285714283</ele><time>2026-04-18T16:14:26.001Z</time></trkpt><trkpt lat="43.47028722613868" lon="10.663872857141657"><ele>216.42857142857144</ele><time>2026-04-18T16:14:27.002Z</time></trkpt><trkpt lat="43.470293892710544" lon="10.66376406345442"><ele>219.0</ele><time>2026-04-18T16:14:28.002Z</time></trkpt><trkpt lat="43.470282917438205" lon="10.663650397510404"><ele>219.83333333333334</ele><time>2026-04-18T16:14:29.002Z</time></trkpt><trkpt lat="43.470288098696706" lon="10.663536242539744"><ele>220.66666666666669</ele><time>2026-04-18T16:14:30.002Z</time></trkpt><trkpt lat="43.47029329437361" lon="10.663421450022971"><ele>221.5</ele><time>2026-04-18T16:14:31.002Z</time></trkpt><trkpt lat="43.47028568666626" lon="10.663303877309607"><ele>222.33333333333334</ele><time>2026-04-18T16:14:32.002Z</time></trkpt><trkpt lat="43.470278548608896" lon="10.663185930933126"><ele>223.16666666666669</ele><time>2026-04-18T16:14:33.002Z</time></trkpt><trkpt lat="43.47022565390716" lon="10.663077514264433"><ele>224.0</ele><time>2026-04-18T16:14:34.002Z</time></trkpt><trkpt lat="43.47016751979506" lon="10.662990103527179"><ele>224.00000000000003</ele><time>2026-04-18T16:14:35.002Z</time></trkpt><trkpt lat="43.47010665089094" lon="10.66290493049396"><ele>224.0</ele><time>2026-04-18T16:14:36.002Z</time></trkpt><trkpt lat="43.47005000981415" lon="10.662832193946002"><ele>224.0</ele><time>2026-04-18T16:14:37.002Z</time></trkpt><trkpt lat="43.469994074578054" lon="10.662761068642302"><ele>224.0</ele><time>2026-04-18T16:14:38.002Z</time></trkpt><trkpt lat="43.469935796349006" lon="10.662686964066479"><ele>224.00000000000003</ele><time>2026-04-18T16:14:39.002Z</time></trkpt><trkpt lat="43.4698771859974" lon="10.662612437267168"><ele>224.0</ele><time>2026-04-18T16:14:40.002Z</time></trkpt><trkpt lat="43.469817093144066" lon="10.662536453957932"><ele>224.66666666666669</ele><time>2026-04-18T16:14:41.002Z</time></trkpt><trkpt lat="43.4697449933533" lon="10.662473973086122"><ele>225.33333333333334</ele><time>2026-04-18T16:14:42.002Z</time></trkpt><trkpt lat="43.46967946252382" lon="10.662393340169295"><ele>226.0</ele><time>2026-04-18T16:14:43.002Z</time></trkpt><trkpt lat="43.46961212330276" lon="10.662311317775307"><ele>226.66666666666669</ele><time>2026-04-18T16:14:44.002Z</time></trkpt><trkpt lat="43.469545192709475" lon="10.662234348271715"><ele>227.33333333333334</ele><time>2026-04-18T16:14:45.002Z</time></trkpt><trkpt lat="43.46948061927237" lon="10.662153794062192"><ele>228.0</ele><time>2026-04-18T16:14:46.002Z</time></trkpt><trkpt lat="43.46941862343724" lon="10.66207199424793"><ele>229.0</ele><time>2026-04-18T16:14:47.002Z</time></trkpt><trkpt lat="43.46936109446226" lon="10.661989565858251"><ele>230.0</ele><time>2026-04-18T16:14:48.002Z</time></trkpt><trkpt lat="43.469308578341696" lon="10.661907191971633"><ele>231.0</ele><time>2026-04-18T16:14:49.002Z</time></trkpt><trkpt lat="43.46925489569165" lon="10.661812669090686"><ele>232.0</ele><time>2026-04-18T16:14:50.002Z</time></trkpt><trkpt lat="43.46922012472787" lon="10.661689704486903"><ele>233.0</ele><time>2026-04-18T16:14:51.002Z</time></trkpt><trkpt lat="43.46916805440237" lon="10.661566279037949"><ele>234.0</ele><time>2026-04-18T16:14:52.002Z</time></trkpt><trkpt lat="43.469111192911086" lon="10.661436417820571"><ele>234.0</ele><time>2026-04-18T16:14:53.002Z</time></trkpt><trkpt lat="43.46905188753841" lon="10.6613015882899"><ele>233.99999999999997</ele><time>2026-04-18T16:14:54.002Z</time></trkpt><trkpt lat="43.468994028905215" lon="10.661170219682981"><ele>233.99999999999997</ele><time>2026-04-18T16:14:55.002Z</time></trkpt><trkpt lat="43.46893529946014" lon="10.66104039867699"><ele>234.0</ele><time>2026-04-18T16:14:56.002Z</time></trkpt><trkpt lat="43.46887647261224" lon="10.660915045909624"><ele>234.0</ele><time>2026-04-18T16:14:57.002Z</time></trkpt><trkpt lat="43.468813332450765" lon="10.660790631113056"><ele>234.39999999999998</ele><time>2026-04-18T16:14:58.002Z</time></trkpt><trkpt lat="43.468744715196614" lon="10.660670908833017"><ele>234.79999999999998</ele><time>2026-04-18T16:14:59.002Z</time></trkpt><trkpt lat="43.46866995553687" lon="10.66055407829944"><ele>235.20000000000002</ele><time>2026-04-18T16:15:00.002Z</time></trkpt><trkpt lat="43.46859288687095" lon="10.660438231483342"><ele>235.60000000000002</ele><time>2026-04-18T16:15:01.002Z</time></trkpt><trkpt lat="43.468516338998114" lon="10.66032687413074"><ele>236.0</ele><time>2026-04-18T16:15:02.002Z</time></trkpt><trkpt lat="43.468428009669665" lon="10.660224341556336"><ele>238.0</ele><time>2026-04-18T16:15:03.002Z</time></trkpt><trkpt lat="43.46834557958965" lon="10.660107369604885"><ele>240.0</ele><time>2026-04-18T16:15:04.002Z</time></trkpt><trkpt lat="43.46826800600865" lon="10.659997333950413"><ele>242.0</ele><time>2026-04-18T16:15:05.003Z</time></trkpt><trkpt lat="43.46818634119616" lon="10.6598804718733"><ele>244.0</ele><time>2026-04-18T16:15:06.003Z</time></trkpt><trkpt lat="43.46811165364254" lon="10.659765202523618"><ele>244.0</ele><time>2026-04-18T16:15:07.003Z</time></trkpt><trkpt lat="43.468034684682685" lon="10.659651137327762"><ele>243.99999999999997</ele><time>2026-04-18T16:15:08.003Z</time></trkpt><trkpt lat="43.467962797950534" lon="10.659531276201932"><ele>243.99999999999997</ele><time>2026-04-18T16:15:09.003Z</time></trkpt><trkpt lat="43.46788546386478" lon="10.659420699429182"><ele>244.0</ele><time>2026-04-18T16:15:10.003Z</time></trkpt><trkpt lat="43.46781319937324" lon="10.659315827875785"><ele>244.0</ele><time>2026-04-18T16:15:11.003Z</time></trkpt><trkpt lat="43.46775031882159" lon="10.65922456303362"><ele>246.16666666666666</ele><time>2026-04-18T16:15:12.003Z</time></trkpt><trkpt lat="43.467699124885" lon="10.659150581428522"><ele>248.33333333333331</ele><time>2026-04-18T16:15:13.003Z</time></trkpt><trkpt lat="43.46764169497377" lon="10.659099108639031"><ele>250.5</ele><time>2026-04-18T16:15:14.003Z</time></trkpt><trkpt lat="43.46759932331988" lon="10.659018449489349"><ele>252.66666666666669</ele><time>2026-04-18T16:15:15.003Z</time></trkpt><trkpt lat="43.46754245619671" lon="10.658949974862029"><ele>254.83333333333334</ele><time>2026-04-18T16:15:16.003Z</time></trkpt><trkpt lat="43.46747106229986" lon="10.658898554951246"><ele>257.0</ele><time>2026-04-18T16:15:17.003Z</time></trkpt><trkpt lat="43.46741165345991" lon="10.658824299726785"><ele>257.0</ele><time>2026-04-18T16:15:18.003Z</time></trkpt><trkpt lat="43.467344898255405" lon="10.658758204403366"><ele>257.0</ele><time>2026-04-18T16:15:19.003Z</time></trkpt><trkpt lat="43.46727686098277" lon="10.658682144986205"><ele>257.0</ele><time>2026-04-18T16:15:20Z</time></trkpt><trkpt lat="43.46720207821592" lon="10.65860663018105"><ele>257.0</ele><time>2026-04-18T16:15:21Z</time></trkpt><trkpt lat="43.467127500648175" lon="10.658525228771397"><ele>257.0</ele><time>2026-04-18T16:15:22Z</time></trkpt><trkpt lat="43.4670478907982" lon="10.658442800822034"><ele>259.6</ele><time>2026-04-18T16:15:23Z</time></trkpt><trkpt lat="43.46696513667821" lon="10.658355904590382"><ele>262.2</ele><time>2026-04-18T16:15:24Z</time></trkpt><trkpt lat="43.466881792885516" lon="10.658265777890094"><ele>264.8</ele><time>2026-04-18T16:15:25Z</time></trkpt><trkpt lat="43.46679770636413" lon="10.658174962894547"><ele>267.4</ele><time>2026-04-18T16:15:26Z</time></trkpt><trkpt lat="43.466712776122776" lon="10.658086013267287"><ele>270.0</ele><time>2026-04-18T16:15:27Z</time></trkpt><trkpt lat="43.466630917656786" lon="10.658002880581506"><ele>270.0</ele><time>2026-04-18T16:15:28Z</time></trkpt><trkpt lat="43.46656017748041" lon="10.65791643896237"><ele>270.0</ele><time>2026-04-18T16:15:29Z</time></trkpt><trkpt lat="43.46649510490434" lon="10.65784605351986"><ele>270.0</ele><time>2026-04-18T16:15:30Z</time></trkpt><trkpt lat="43.46641938721035" lon="10.657776920122526"><ele>270.0</ele><time>2026-04-18T16:15:31Z</time></trkpt><trkpt lat="43.46635194037367" lon="10.657695924789904"><ele>270.0</ele><time>2026-04-18T16:15:32Z</time></trkpt><trkpt lat="43.466293392585136" lon="10.657607834044525"><ele>270.0</ele><time>2026-04-18T16:15:33Z</time></trkpt><trkpt lat="43.46625257677067" lon="10.65749906098769"><ele>271.0</ele><time>2026-04-18T16:15:34Z</time></trkpt><trkpt lat="43.46622172837835" lon="10.65738323932807"><ele>272.0</ele><time>2026-04-18T16:15:35Z</time></trkpt><trkpt lat="43.46619577276882" lon="10.657267348454225"><ele>273.0</ele><time>2026-04-18T16:15:36Z</time></trkpt><trkpt lat="43.466185276633645" lon="10.657141368036676"><ele>274.0</ele><time>2026-04-18T16:15:37Z</time></trkpt><trkpt lat="43.46615828747305" lon="10.657025631497755"><ele>275.0</ele><time>2026-04-18T16:15:38Z</time></trkpt><trkpt lat="43.466130450247775" lon="10.656906258243508"><ele>276.0</ele><time>2026-04-18T16:15:39Z</time></trkpt><trkpt lat="43.46610387131283" lon="10.656792280875209"><ele>276.8333333333333</ele><time>2026-04-18T16:15:40Z</time></trkpt><trkpt lat="43.46607670078645" lon="10.656676221531331"><ele>277.6666666666667</ele><time>2026-04-18T16:15:41Z</time></trkpt><trkpt lat="43.46605001696059" lon="10.65656273168589"><ele>278.5</ele><time>2026-04-18T16:15:42Z</time></trkpt><trkpt lat="43.46602547582491" lon="10.656458354978785"><ele>279.33333333333337</ele><time>2026-04-18T16:15:43Z</time></trkpt><trkpt lat="43.466000236303394" lon="10.656350822887589"><ele>280.1666666666667</ele><time>2026-04-18T16:15:44Z</time></trkpt><trkpt lat="43.465963624580226" lon="10.656248911642663"><ele>281.0</ele><time>2026-04-18T16:15:45Z</time></trkpt><trkpt lat="43.46594287576752" lon="10.65614579813488"><ele>282.0</ele><time>2026-04-18T16:15:46Z</time></trkpt><trkpt lat="43.46591697326709" lon="10.65604153783134"><ele>283.0</ele><time>2026-04-18T16:15:47Z</time></trkpt><trkpt lat="43.46589342257823" lon="10.655929672695963"><ele>284.0</ele><time>2026-04-18T16:15:48Z</time></trkpt><trkpt lat="43.46586697830629" lon="10.655818381937648"><ele>285.0</ele><time>2026-04-18T16:15:49Z</time></trkpt><trkpt lat="43.46584276131016" lon="10.655708732008032"><ele>286.0</ele><time>2026-04-18T16:15:50Z</time></trkpt><trkpt lat="43.46581807771711" lon="10.655595723490016"><ele>287.0</ele><time>2026-04-18T16:15:51.001Z</time></trkpt><trkpt lat="43.46579168352802" lon="10.655481064042483"><ele>287.0</ele><time>2026-04-18T16:15:52.001Z</time></trkpt><trkpt lat="43.46576289426121" lon="10.655364937041305"><ele>287.0</ele><time>2026-04-18T16:15:53.001Z</time></trkpt><trkpt lat="43.465732469580516" lon="10.655243490695831"><ele>287.0</ele><time>2026-04-18T16:15:54.001Z</time></trkpt><trkpt lat="43.465704887665815" lon="10.655121637560619"><ele>287.0</ele><time>2026-04-18T16:15:55.001Z</time></trkpt><trkpt lat="43.4656769604948" lon="10.654995997805912"><ele>287.0</ele><time>2026-04-18T16:15:56.001Z</time></trkpt><trkpt lat="43.46564742798734" lon="10.65487032283563"><ele>287.8</ele><time>2026-04-18T16:15:57.001Z</time></trkpt><trkpt lat="43.46561556796668" lon="10.654742476753805"><ele>288.6</ele><time>2026-04-18T16:15:58.001Z</time></trkpt><trkpt lat="43.46558857727021" lon="10.654613515036392"><ele>289.40000000000003</ele><time>2026-04-18T16:15:59.001Z</time></trkpt><trkpt lat="43.465555922717144" lon="10.65447815208464"><ele>290.2</ele><time>2026-04-18T16:16:00.001Z</time></trkpt><trkpt lat="43.46552293070824" lon="10.654342034505758"><ele>291.0</ele><time>2026-04-18T16:16:01.001Z</time></trkpt><trkpt lat="43.465490563245154" lon="10.65420555239967"><ele>291.8</ele><time>2026-04-18T16:16:02.001Z</time></trkpt><trkpt lat="43.465458814344075" lon="10.654071051827387"><ele>292.6</ele><time>2026-04-18T16:16:03.001Z</time></trkpt><trkpt lat="43.465426022086554" lon="10.65393356637503"><ele>293.4</ele><time>2026-04-18T16:16:04.001Z</time></trkpt><trkpt lat="43.4654022294636" lon="10.653799783511277"><ele>294.2</ele><time>2026-04-18T16:16:05.001Z</time></trkpt><trkpt lat="43.46536870246102" lon="10.65367244078811"><ele>295.0</ele><time>2026-04-18T16:16:06.001Z</time></trkpt><trkpt lat="43.465333514354896" lon="10.653544122326469"><ele>296.2</ele><time>2026-04-18T16:16:07.001Z</time></trkpt><trkpt lat="43.46530462034235" lon="10.653416267212211"><ele>297.4</ele><time>2026-04-18T16:16:08.001Z</time></trkpt><trkpt lat="43.46529267050893" lon="10.653283137176052"><ele>298.6</ele><time>2026-04-18T16:16:09.001Z</time></trkpt><trkpt lat="43.465262671396424" lon="10.65316189243421"><ele>299.8</ele><time>2026-04-18T16:16:10.001Z</time></trkpt><trkpt lat="43.46522153498104" lon="10.653086296204473"><ele>301.0</ele><time>2026-04-18T16:16:11.001Z</time></trkpt><trkpt lat="43.46520646853525" lon="10.652934742334843"><ele>301.0</ele><time>2026-04-18T16:16:12.001Z</time></trkpt><trkpt lat="43.46517839145005" lon="10.65282126571042"><ele>301.0</ele><time>2026-04-18T16:16:13.001Z</time></trkpt><trkpt lat="43.465151417278356" lon="10.652712246610681"><ele>301.0</ele><time>2026-04-18T16:16:14.001Z</time></trkpt><trkpt lat="43.46512646370735" lon="10.652606764864007"><ele>301.0</ele><time>2026-04-18T16:16:15.001Z</time></trkpt><trkpt lat="43.465118076063156" lon="10.652505879004613"><ele>301.0</ele><time>2026-04-18T16:16:16.001Z</time></trkpt><trkpt lat="43.465132751054" lon="10.652410904583098"><ele>301.0</ele><time>2026-04-18T16:16:17.001Z</time></trkpt><trkpt lat="43.46514714424817" lon="10.652297006752324"><ele>301.5</ele><time>2026-04-18T16:16:18.001Z</time></trkpt><trkpt lat="43.46516573339762" lon="10.652179063973566"><ele>302.0</ele><time>2026-04-18T16:16:19.001Z</time></trkpt><trkpt lat="43.46518609005114" lon="10.652055252956611"><ele>302.5</ele><time>2026-04-18T16:16:20.001Z</time></trkpt><trkpt lat="43.46520567629741" lon="10.651936127606803"><ele>303.0</ele><time>2026-04-18T16:16:21.001Z</time></trkpt><trkpt lat="43.465222659743354" lon="10.651813162902494"><ele>303.5</ele><time>2026-04-18T16:16:22.001Z</time></trkpt><trkpt lat="43.46523838534024" lon="10.651692341929003"><ele>304.0</ele><time>2026-04-18T16:16:23.001Z</time></trkpt><trkpt lat="43.46525398154276" lon="10.651571820858143"><ele>304.3333333333333</ele><time>2026-04-18T16:16:24.001Z</time></trkpt><trkpt lat="43.46526972762203" lon="10.651450141628812"><ele>304.66666666666663</ele><time>2026-04-18T16:16:25.001Z</time></trkpt><trkpt lat="43.46528507574184" lon="10.651331537642736"><ele>305.0</ele><time>2026-04-18T16:16:26.001Z</time></trkpt><trkpt lat="43.465296770739705" lon="10.651209647689981"><ele>305.3333333333333</ele><time>2026-04-18T16:16:27.002Z</time></trkpt><trkpt lat="43.465303905093954" lon="10.651086438777863"><ele>305.6666666666667</ele><time>2026-04-18T16:16:28.002Z</time></trkpt><trkpt lat="43.465319261094656" lon="10.650969303973625"><ele>306.0</ele><time>2026-04-18T16:16:29.002Z</time></trkpt><trkpt lat="43.46533534938585" lon="10.65085107240223"><ele>306.1666666666667</ele><time>2026-04-18T16:16:30.002Z</time></trkpt><trkpt lat="43.46535208488646" lon="10.650731755332606"><ele>306.3333333333333</ele><time>2026-04-18T16:16:31.002Z</time></trkpt><trkpt lat="43.46536577641675" lon="10.650618826972257"><ele>306.5</ele><time>2026-04-18T16:16:32.002Z</time></trkpt><trkpt lat="43.465374492039345" lon="10.65050775036105"><ele>306.66666666666663</ele><time>2026-04-18T16:16:33.002Z</time></trkpt><trkpt lat="43.465382292241024" lon="10.650403037292673"><ele>306.8333333333333</ele><time>2026-04-18T16:16:34.002Z</time></trkpt><trkpt lat="43.46540782665842" lon="10.650246018107376"><ele>307.0</ele><time>2026-04-18T16:16:36.002Z</time></trkpt><trkpt lat="43.46542479318476" lon="10.650097994731555"><ele>307.0</ele><time>2026-04-18T16:16:38.002Z</time></trkpt><trkpt lat="43.46544112239483" lon="10.649934461813123"><ele>307.0</ele><time>2026-04-18T16:16:40.002Z</time></trkpt><trkpt lat="43.46547788533774" lon="10.649774397784654"><ele>307.0</ele><time>2026-04-18T16:16:42.002Z</time></trkpt><trkpt lat="43.46550952776146" lon="10.649634070044252"><ele>307.0</ele><time>2026-04-18T16:16:44.002Z</time></trkpt><trkpt lat="43.46552255576053" lon="10.649546878977551"><ele>307.0</ele><time>2026-04-18T16:16:45.002Z</time></trkpt><trkpt lat="43.46556898654553" lon="10.64940933223681"><ele>307.0</ele><time>2026-04-18T16:16:47.002Z</time></trkpt><trkpt lat="43.46557827999429" lon="10.649308508991245"><ele>307.0</ele><time>2026-04-18T16:16:48.002Z</time></trkpt><trkpt lat="43.46560054047055" lon="10.649204803367285"><ele>307.0</ele><time>2026-04-18T16:16:49.002Z</time></trkpt><trkpt lat="43.465630256713574" lon="10.64910073612723"><ele>307.0</ele><time>2026-04-18T16:16:50.002Z</time></trkpt><trkpt lat="43.4656544380068" lon="10.648979081674778"><ele>307.0</ele><time>2026-04-18T16:16:51.002Z</time></trkpt><trkpt lat="43.46567267721033" lon="10.648849266900335"><ele>307.0</ele><time>2026-04-18T16:16:52.002Z</time></trkpt><trkpt lat="43.465707253708395" lon="10.648728635203998"><ele>305.0</ele><time>2026-04-18T16:16:53.002Z</time></trkpt><trkpt lat="43.46573067914532" lon="10.64859358317601"><ele>303.0</ele><time>2026-04-18T16:16:54.002Z</time></trkpt><trkpt lat="43.46575099040678" lon="10.648464942930367"><ele>301.0</ele><time>2026-04-18T16:16:55.002Z</time></trkpt><trkpt lat="43.46576804408385" lon="10.648352777628654"><ele>299.0</ele><time>2026-04-18T16:16:56.002Z</time></trkpt><trkpt lat="43.465773378552754" lon="10.648257600011616"><ele>297.0</ele><time>2026-04-18T16:16:57.002Z</time></trkpt><trkpt lat="43.465796692486656" lon="10.648146490335623"><ele>295.0</ele><time>2026-04-18T16:16:58.002Z</time></trkpt><trkpt lat="43.46580406565777" lon="10.648038478114676"><ele>295.0</ele><time>2026-04-18T16:16:59.002Z</time></trkpt><trkpt lat="43.46581513118822" lon="10.647922276314734"><ele>295.0</ele><time>2026-04-18T16:17:00.002Z</time></trkpt><trkpt lat="43.4658356306181" lon="10.647809145667878"><ele>295.0</ele><time>2026-04-18T16:17:01.002Z</time></trkpt><trkpt lat="43.46584922889222" lon="10.647692298929268"><ele>295.0</ele><time>2026-04-18T16:17:02.002Z</time></trkpt><trkpt lat="43.46586172139608" lon="10.647577564478174"><ele>295.0</ele><time>2026-04-18T16:17:03.002Z</time></trkpt><trkpt lat="43.46587103490939" lon="10.64745482495156"><ele>295.0</ele><time>2026-04-18T16:17:04.002Z</time></trkpt><trkpt lat="43.46589137234275" lon="10.647355103267195"><ele>293.8333333333333</ele><time>2026-04-18T16:17:05.003Z</time></trkpt><trkpt lat="43.465902622461584" lon="10.647241266906828"><ele>292.66666666666663</ele><time>2026-04-18T16:17:06.003Z</time></trkpt><trkpt lat="43.46591606437905" lon="10.647131166005297"><ele>291.5</ele><time>2026-04-18T16:17:07.003Z</time></trkpt><trkpt lat="43.46592347290054" lon="10.647005414074385"><ele>290.3333333333333</ele><time>2026-04-18T16:17:08.003Z</time></trkpt><trkpt lat="43.465930584445935" lon="10.646873354833032"><ele>289.1666666666667</ele><time>2026-04-18T16:17:09.003Z</time></trkpt><trkpt lat="43.465941504600025" lon="10.646746858879588"><ele>288.0</ele><time>2026-04-18T16:17:10.003Z</time></trkpt><trkpt lat="43.46595265884381" lon="10.646623795643372"><ele>288.0</ele><time>2026-04-18T16:17:11.003Z</time></trkpt><trkpt lat="43.465964234023936" lon="10.64648564832279"><ele>288.0</ele><time>2026-04-18T16:17:12.003Z</time></trkpt><trkpt lat="43.465987519950225" lon="10.646360491503474"><ele>288.0</ele><time>2026-04-18T16:17:13.003Z</time></trkpt><trkpt lat="43.46600579214751" lon="10.646225262647219"><ele>288.0</ele><time>2026-04-18T16:17:14.003Z</time></trkpt><trkpt lat="43.46602756458809" lon="10.646085413044023"><ele>288.0</ele><time>2026-04-18T16:17:15.003Z</time></trkpt><trkpt lat="43.46606654138798" lon="10.645954899581833"><ele>288.0</ele><time>2026-04-18T16:17:16.003Z</time></trkpt><trkpt lat="43.46608284589296" lon="10.645814058745785"><ele>288.0</ele><time>2026-04-18T16:17:17.003Z</time></trkpt><trkpt lat="43.46612674141885" lon="10.645683611885477"><ele>288.0</ele><time>2026-04-18T16:17:18.003Z</time></trkpt><trkpt lat="43.46614675911308" lon="10.645543613916495"><ele>288.0</ele><time>2026-04-18T16:17:19.003Z</time></trkpt><trkpt lat="43.466177688497815" lon="10.645407923622052"><ele>288.0</ele><time>2026-04-18T16:17:20.003Z</time></trkpt><trkpt lat="43.466211929238895" lon="10.645264755697202"><ele>288.2</ele><time>2026-04-18T16:17:21.003Z</time></trkpt><trkpt lat="43.46623757482165" lon="10.645130896771725"><ele>288.4</ele><time>2026-04-18T16:17:22.003Z</time></trkpt><trkpt lat="43.46627046358464" lon="10.64498706711333"><ele>288.59999999999997</ele><time>2026-04-18T16:17:23.003Z</time></trkpt><trkpt lat="43.4663013297558" lon="10.644848325391875"><ele>288.8</ele><time>2026-04-18T16:17:24.003Z</time></trkpt><trkpt lat="43.466340364528" lon="10.644711167303422"><ele>289.0</ele><time>2026-04-18T16:17:25.003Z</time></trkpt><trkpt lat="43.466381946147436" lon="10.644577947993627"><ele>290.59999999999997</ele><time>2026-04-18T16:17:26Z</time></trkpt><trkpt lat="43.466427736945334" lon="10.644446669412297"><ele>292.2</ele><time>2026-04-18T16:17:27Z</time></trkpt><trkpt lat="43.46647611752878" lon="10.644320827721078"><ele>293.79999999999995</ele><time>2026-04-18T16:17:28Z</time></trkpt><trkpt lat="43.46652886411613" lon="10.64419638727313"><ele>295.4</ele><time>2026-04-18T16:17:29Z</time></trkpt><trkpt lat="43.46657020503052" lon="10.644060663763797"><ele>297.0</ele><time>2026-04-18T16:17:30Z</time></trkpt><trkpt lat="43.46662019824127" lon="10.643937580709798"><ele>297.0</ele><time>2026-04-18T16:17:31Z</time></trkpt><trkpt lat="43.466661450426535" lon="10.643812792314831"><ele>297.0</ele><time>2026-04-18T16:17:32Z</time></trkpt><trkpt lat="43.4667068028756" lon="10.643690840307942"><ele>297.0</ele><time>2026-04-18T16:17:33Z</time></trkpt><trkpt lat="43.466747553722435" lon="10.643568888920203"><ele>297.0</ele><time>2026-04-18T16:17:34Z</time></trkpt><trkpt lat="43.46679586778316" lon="10.643453402460482"><ele>297.0</ele><time>2026-04-18T16:17:35Z</time></trkpt><trkpt lat="43.46683853183941" lon="10.643332283309569"><ele>297.8333333333333</ele><time>2026-04-18T16:17:36Z</time></trkpt><trkpt lat="43.46687355006118" lon="10.643221448284383"><ele>298.6666666666667</ele><time>2026-04-18T16:17:37Z</time></trkpt><trkpt lat="43.46691005796918" lon="10.643133546710022"><ele>299.5</ele><time>2026-04-18T16:17:38Z</time></trkpt><trkpt lat="43.46694072720654" lon="10.6430558615921"><ele>300.33333333333337</ele><time>2026-04-18T16:17:39Z</time></trkpt><trkpt lat="43.46696276162589" lon="10.642909804265672"><ele>301.1666666666667</ele><time>2026-04-18T16:17:41Z</time></trkpt><trkpt lat="43.4669171923125" lon="10.642837249216706"><ele>302.0</ele><time>2026-04-18T16:17:42Z</time></trkpt><trkpt lat="43.466900156352445" lon="10.6426934029313"><ele>303.2</ele><time>2026-04-18T16:17:44Z</time></trkpt><trkpt lat="43.46697472677013" lon="10.642606351359937"><ele>304.4</ele><time>2026-04-18T16:17:46Z</time></trkpt><trkpt lat="43.46704834670699" lon="10.642490523908188"><ele>305.6</ele><time>2026-04-18T16:17:48Z</time></trkpt><trkpt lat="43.467149665452865" lon="10.642392321917592"><ele>306.8</ele><time>2026-04-18T16:17:50Z</time></trkpt><trkpt lat="43.46719983116624" lon="10.64233255830789"><ele>308.0</ele><time>2026-04-18T16:17:51Z</time></trkpt><trkpt lat="43.467243389500695" lon="10.642268077727367"><ele>308.8</ele><time>2026-04-18T16:17:52Z</time></trkpt><trkpt lat="43.46728879579382" lon="10.642202251041832"><ele>309.6</ele><time>2026-04-18T16:17:53Z</time></trkpt><trkpt lat="43.46737727659773" lon="10.642089113051103"><ele>310.4</ele><time>2026-04-18T16:17:55Z</time></trkpt><trkpt lat="43.46742646443989" lon="10.64194562773139"><ele>311.2</ele><time>2026-04-18T16:17:57.001Z</time></trkpt><trkpt lat="43.4674839404403" lon="10.641818113387131"><ele>312.0</ele><time>2026-04-18T16:17:59.001Z</time></trkpt><trkpt lat="43.46753546158662" lon="10.641692353462947"><ele>313.4</ele><time>2026-04-18T16:18:01.001Z</time></trkpt><trkpt lat="43.467582473182624" lon="10.641573607219046"><ele>314.79999999999995</ele><time>2026-04-18T16:18:03.001Z</time></trkpt><trkpt lat="43.46762430174806" lon="10.641445643493462"><ele>316.2</ele><time>2026-04-18T16:18:05.001Z</time></trkpt><trkpt lat="43.46766771605518" lon="10.641316662520758"><ele>317.59999999999997</ele><time>2026-04-18T16:18:07.001Z</time></trkpt><trkpt lat="43.46772048111694" lon="10.641182383095808"><ele>319.0</ele><time>2026-04-18T16:18:09.001Z</time></trkpt><trkpt lat="43.46777400220018" lon="10.641054372302921"><ele>320.0</ele><time>2026-04-18T16:18:11.001Z</time></trkpt><trkpt lat="43.46781649120895" lon="10.640927286060327"><ele>321.0</ele><time>2026-04-18T16:18:13.001Z</time></trkpt><trkpt lat="43.46786033890116" lon="10.640812690561411"><ele>322.0</ele><time>2026-04-18T16:18:15.001Z</time></trkpt><trkpt lat="43.46790588175746" lon="10.640666547127243"><ele>323.0</ele><time>2026-04-18T16:18:17.001Z</time></trkpt><trkpt lat="43.467965932508456" lon="10.640535253103751"><ele>324.0</ele><time>2026-04-18T16:18:19.001Z</time></trkpt><trkpt lat="43.46802032425148" lon="10.640383190017108"><ele>325.6</ele><time>2026-04-18T16:18:21.001Z</time></trkpt><trkpt lat="43.46807281187588" lon="10.64023338772437"><ele>327.2</ele><time>2026-04-18T16:18:23.001Z</time></trkpt><trkpt lat="43.46814924165578" lon="10.64011296365675"><ele>328.8</ele><time>2026-04-18T16:18:25.001Z</time></trkpt><trkpt lat="43.4682335944698" lon="10.640016623355368"><ele>330.40000000000003</ele><time>2026-04-18T16:18:27.001Z</time></trkpt><trkpt lat="43.46831620256156" lon="10.639942383204687"><ele>332.0</ele><time>2026-04-18T16:18:29.001Z</time></trkpt><trkpt lat="43.46841698558426" lon="10.639885898944948"><ele>332.0</ele><time>2026-04-18T16:18:31.001Z</time></trkpt><trkpt lat="43.46851598321216" lon="10.639839716648556"><ele>332.0</ele><time>2026-04-18T16:18:33.001Z</time></trkpt><trkpt lat="43.468627915486" lon="10.639806815446619"><ele>332.0</ele><time>2026-04-18T16:18:35.001Z</time></trkpt><trkpt lat="43.46868963519772" lon="10.639777897044018"><ele>332.0</ele><time>2026-04-18T16:18:36.002Z</time></trkpt><trkpt lat="43.468783352703134" lon="10.639713404376321"><ele>332.0</ele><time>2026-04-18T16:18:38.002Z</time></trkpt><trkpt lat="43.468873614692995" lon="10.639666608447977"><ele>332.20000000000005</ele><time>2026-04-18T16:18:40.002Z</time></trkpt><trkpt lat="43.46892695509064" lon="10.639610457621266"><ele>332.4</ele><time>2026-04-18T16:18:41.002Z</time></trkpt><trkpt lat="43.469022278839304" lon="10.639538000030825"><ele>332.6</ele><time>2026-04-18T16:18:43.002Z</time></trkpt><trkpt lat="43.469108745436856" lon="10.63945921675152"><ele>332.79999999999995</ele><time>2026-04-18T16:18:45.002Z</time></trkpt><trkpt lat="43.469211419383704" lon="10.63939846556801"><ele>333.0</ele><time>2026-04-18T16:18:47.002Z</time></trkpt><trkpt lat="43.46929089866623" lon="10.639317387056666"><ele>333.0</ele><time>2026-04-18T16:18:49.002Z</time></trkpt><trkpt lat="43.46934168122456" lon="10.639264876453016"><ele>333.0</ele><time>2026-04-18T16:18:50.002Z</time></trkpt><trkpt lat="43.469427761330785" lon="10.639151460087641"><ele>333.0</ele><time>2026-04-18T16:18:52.002Z</time></trkpt><trkpt lat="43.469485173444646" lon="10.639013679975612"><ele>333.0</ele><time>2026-04-18T16:18:54.002Z</time></trkpt><trkpt lat="43.46951779594669" lon="10.638904968689328"><ele>333.0</ele><time>2026-04-18T16:18:56.002Z</time></trkpt><trkpt lat="43.469542497961086" lon="10.63879914781514"><ele>333.0</ele><time>2026-04-18T16:18:57.002Z</time></trkpt><trkpt lat="43.46956978097817" lon="10.63864935365506"><ele>333.0</ele><time>2026-04-18T16:18:59.002Z</time></trkpt><trkpt lat="43.46961275610752" lon="10.638514271095378"><ele>333.0</ele><time>2026-04-18T16:19:01.002Z</time></trkpt><trkpt lat="43.4696634161971" lon="10.638374428645058"><ele>333.0</ele><time>2026-04-18T16:19:03.002Z</time></trkpt><trkpt lat="43.46973708078536" lon="10.63828146716359"><ele>333.0</ele><time>2026-04-18T16:19:05.002Z</time></trkpt><trkpt lat="43.46981036688907" lon="10.63821742405528"><ele>335.0</ele><time>2026-04-18T16:19:07.002Z</time></trkpt><trkpt lat="43.46988099806889" lon="10.638146411940339"><ele>337.0</ele><time>2026-04-18T16:19:09.002Z</time></trkpt><trkpt lat="43.46995785127385" lon="10.638114778106196"><ele>339.0</ele><time>2026-04-18T16:19:11.002Z</time></trkpt><trkpt lat="43.47004929246422" lon="10.638058332757343"><ele>341.0</ele><time>2026-04-18T16:19:13.002Z</time></trkpt><trkpt lat="43.47010774840001" lon="10.638022555775938"><ele>343.0</ele><time>2026-04-18T16:19:14.002Z</time></trkpt><trkpt lat="43.47016475182089" lon="10.6379646712285"><ele>345.0</ele><time>2026-04-18T16:19:15.003Z</time></trkpt><trkpt lat="43.47027078808298" lon="10.637908513841099"><ele>345.0</ele><time>2026-04-18T16:19:17.003Z</time></trkpt><trkpt lat="43.470331571232904" lon="10.63788128933827"><ele>345.0</ele><time>2026-04-18T16:19:18.003Z</time></trkpt><trkpt lat="43.47039310411636" lon="10.63786266081715"><ele>345.0</ele><time>2026-04-18T16:19:19.003Z</time></trkpt><trkpt lat="43.47051564019949" lon="10.63781438354244"><ele>345.0</ele><time>2026-04-18T16:19:21.003Z</time></trkpt><trkpt lat="43.470573097810984" lon="10.637778417330574"><ele>345.0</ele><time>2026-04-18T16:19:22.003Z</time></trkpt><trkpt lat="43.470632902202965" lon="10.637743726718792"><ele>345.0</ele><time>2026-04-18T16:19:23.003Z</time></trkpt><trkpt lat="43.47075695802606" lon="10.637691208475882"><ele>346.25</ele><time>2026-04-18T16:19:25.003Z</time></trkpt><trkpt lat="43.47086778467779" lon="10.637657721774737"><ele>347.5</ele><time>2026-04-18T16:19:27.003Z</time></trkpt><trkpt lat="43.47096923408453" lon="10.63756364233748"><ele>348.75</ele><time>2026-04-18T16:19:29.003Z</time></trkpt><trkpt lat="43.47105591392782" lon="10.63747054661049"><ele>350.0</ele><time>2026-04-18T16:19:31.003Z</time></trkpt><trkpt lat="43.47114565279694" lon="10.637387292934383"><ele>350.0</ele><time>2026-04-18T16:19:33Z</time></trkpt><trkpt lat="43.47123227692642" lon="10.637284126970911"><ele>350.0</ele><time>2026-04-18T16:19:35Z</time></trkpt><trkpt lat="43.471347846323944" lon="10.637188285843466"><ele>350.0</ele><time>2026-04-18T16:19:37Z</time></trkpt><trkpt lat="43.471399518591646" lon="10.637138052329743"><ele>350.0</ele><time>2026-04-18T16:19:38Z</time></trkpt><trkpt lat="43.47146067289037" lon="10.63708342815749"><ele>350.0</ele><time>2026-04-18T16:19:39Z</time></trkpt><trkpt lat="43.471522624735236" lon="10.6370334882291"><ele>349.42857142857144</ele><time>2026-04-18T16:19:40Z</time></trkpt><trkpt lat="43.47158473041803" lon="10.636985033531777"><ele>348.8571428571429</ele><time>2026-04-18T16:19:41Z</time></trkpt><trkpt lat="43.47164513633468" lon="10.6369379049759"><ele>348.2857142857143</ele><time>2026-04-18T16:19:42Z</time></trkpt><trkpt lat="43.47170369308012" lon="10.636892219202633"><ele>347.7142857142857</ele><time>2026-04-18T16:19:43Z</time></trkpt><trkpt lat="43.47176231777236" lon="10.636846480397118"><ele>347.14285714285717</ele><time>2026-04-18T16:19:44Z</time></trkpt><trkpt lat="43.471818832554035" lon="10.636802659438537"><ele>346.57142857142856</ele><time>2026-04-18T16:19:45Z</time></trkpt><trkpt lat="43.47187650277085" lon="10.636758634403316"><ele>346.0</ele><time>2026-04-18T16:19:46Z</time></trkpt><trkpt lat="43.47192703232207" lon="10.636705044818658"><ele>347.0</ele><time>2026-04-18T16:19:47Z</time></trkpt><trkpt lat="43.472035300171335" lon="10.636627785699533"><ele>348.0</ele><time>2026-04-18T16:19:49Z</time></trkpt><trkpt lat="43.47213766797726" lon="10.636537485944569"><ele>349.0</ele><time>2026-04-18T16:19:51Z</time></trkpt><trkpt lat="43.47219619234079" lon="10.636486513708382"><ele>350.0</ele><time>2026-04-18T16:19:52Z</time></trkpt><trkpt lat="43.47225244727307" lon="10.63643767773873"><ele>351.0</ele><time>2026-04-18T16:19:53Z</time></trkpt><trkpt lat="43.472309530246285" lon="10.636389723419262"><ele>352.0</ele><time>2026-04-18T16:19:54Z</time></trkpt><trkpt lat="43.47236586131894" lon="10.636341448694257"><ele>352.0</ele><time>2026-04-18T16:19:55Z</time></trkpt><trkpt lat="43.472424559834764" lon="10.63629373033989"><ele>352.0</ele><time>2026-04-18T16:19:56Z</time></trkpt><trkpt lat="43.47247695124442" lon="10.636241676384165"><ele>352.0</ele><time>2026-04-18T16:19:57Z</time></trkpt><trkpt lat="43.47255211102462" lon="10.636162529128745"><ele>352.0</ele><time>2026-04-18T16:19:59Z</time></trkpt><trkpt lat="43.47256424509333" lon="10.635983426286291"><ele>352.0</ele><time>2026-04-18T16:20:05Z</time></trkpt><trkpt lat="43.47237513494163" lon="10.636130278848746"><ele>352.0</ele><time>2026-04-18T16:20:06Z</time></trkpt><trkpt lat="43.47229460119403" lon="10.636140903533962"><ele>352.0</ele><time>2026-04-18T16:20:07.001Z</time></trkpt><trkpt lat="43.472225470492994" lon="10.636165080491045"><ele>352.0</ele><time>2026-04-18T16:20:08.001Z</time></trkpt><trkpt lat="43.47214247855239" lon="10.636155180572397"><ele>352.0</ele><time>2026-04-18T16:20:09.001Z</time></trkpt><trkpt lat="43.472052822946715" lon="10.636119624076315"><ele>352.0</ele><time>2026-04-18T16:20:10.001Z</time></trkpt><trkpt lat="43.47196640546203" lon="10.636065579450095"><ele>352.0</ele><time>2026-04-18T16:20:11.001Z</time></trkpt><trkpt lat="43.47188589872892" lon="10.63598856792703"><ele>354.0</ele><time>2026-04-18T16:20:12.001Z</time></trkpt><trkpt lat="43.47181931004927" lon="10.63587390010805"><ele>356.0</ele><time>2026-04-18T16:20:13.001Z</time></trkpt><trkpt lat="43.47175786479866" lon="10.635747910506604"><ele>358.0</ele><time>2026-04-18T16:20:14.001Z</time></trkpt><trkpt lat="43.47169501282861" lon="10.635614355618035"><ele>360.0</ele><time>2026-04-18T16:20:15.001Z</time></trkpt><trkpt lat="43.47163713239881" lon="10.635468814069394"><ele>360.0</ele><time>2026-04-18T16:20:16.001Z</time></trkpt><trkpt lat="43.471584708596524" lon="10.635322123472863"><ele>360.0</ele><time>2026-04-18T16:20:17.001Z</time></trkpt><trkpt lat="43.47152643476665" lon="10.635172764617844"><ele>360.0</ele><time>2026-04-18T16:20:18.001Z</time></trkpt><trkpt lat="43.47146403040287" lon="10.635011074697458"><ele>360.0</ele><time>2026-04-18T16:20:19.001Z</time></trkpt><trkpt lat="43.47140026973471" lon="10.63484644560313"><ele>360.75</ele><time>2026-04-18T16:20:20.001Z</time></trkpt><trkpt lat="43.47133491306898" lon="10.634674041141844"><ele>361.5</ele><time>2026-04-18T16:20:21.001Z</time></trkpt><trkpt lat="43.471265820941056" lon="10.634498747095254"><ele>362.25</ele><time>2026-04-18T16:20:22.001Z</time></trkpt><trkpt lat="43.47120043649028" lon="10.634318981393648"><ele>363.0</ele><time>2026-04-18T16:20:23.001Z</time></trkpt><trkpt lat="43.471132152404465" lon="10.634139221948775"><ele>361.6666666666667</ele><time>2026-04-18T16:20:24.001Z</time></trkpt><trkpt lat="43.471061672170414" lon="10.633951475724777"><ele>360.33333333333337</ele><time>2026-04-18T16:20:25.001Z</time></trkpt><trkpt lat="43.47098924094249" lon="10.63376628958859"><ele>359.0</ele><time>2026-04-18T16:20:26.001Z</time></trkpt><trkpt lat="43.47091694295294" lon="10.633581246931788"><ele>359.0</ele><time>2026-04-18T16:20:27.001Z</time></trkpt><trkpt lat="43.47085245014628" lon="10.633406732026408"><ele>359.0</ele><time>2026-04-18T16:20:28.001Z</time></trkpt><trkpt lat="43.470787440745376" lon="10.633238413906001"><ele>359.0</ele><time>2026-04-18T16:20:29.001Z</time></trkpt><trkpt lat="43.47071654409342" lon="10.633059630414719"><ele>359.0</ele><time>2026-04-18T16:20:30.001Z</time></trkpt><trkpt lat="43.47064102520455" lon="10.632957830016716"><ele>359.0</ele><time>2026-04-18T16:20:31.001Z</time></trkpt><trkpt lat="43.470546936638016" lon="10.632839578333762"><ele>359.0</ele><time>2026-04-18T16:20:32.001Z</time></trkpt><trkpt lat="43.47044821930534" lon="10.632721585787381"><ele>359.0</ele><time>2026-04-18T16:20:33.001Z</time></trkpt><trkpt lat="43.47035343761821" lon="10.63260589464649"><ele>359.0</ele><time>2026-04-18T16:20:34.001Z</time></trkpt><trkpt lat="43.47025867262306" lon="10.632482967392862"><ele>357.0</ele><time>2026-04-18T16:20:35.001Z</time></trkpt><trkpt lat="43.47016965093004" lon="10.632358052586426"><ele>355.0</ele><time>2026-04-18T16:20:36.001Z</time></trkpt><trkpt lat="43.470081903051295" lon="10.632240899659877"><ele>353.0</ele><time>2026-04-18T16:20:37.001Z</time></trkpt><trkpt lat="43.47000977751982" lon="10.632114627931506"><ele>351.0</ele><time>2026-04-18T16:20:38.001Z</time></trkpt><trkpt lat="43.46991435792099" lon="10.632036369512665"><ele>348.6</ele><time>2026-04-18T16:20:39.001Z</time></trkpt><trkpt lat="43.469818173640945" lon="10.631972984949778"><ele>346.20000000000005</ele><time>2026-04-18T16:20:40.001Z</time></trkpt><trkpt lat="43.469715992805654" lon="10.631927283091644"><ele>343.79999999999995</ele><time>2026-04-18T16:20:41.001Z</time></trkpt><trkpt lat="43.469612136297506" lon="10.631900044015635"><ele>341.4</ele><time>2026-04-18T16:20:42.001Z</time></trkpt><trkpt lat="43.46952173096578" lon="10.631866888442966"><ele>339.0</ele><time>2026-04-18T16:20:43.001Z</time></trkpt><trkpt lat="43.46944465156655" lon="10.63181626379176"><ele>339.0</ele><time>2026-04-18T16:20:44.002Z</time></trkpt><trkpt lat="43.46939667620874" lon="10.631731311622293"><ele>339.0</ele><time>2026-04-18T16:20:45.002Z</time></trkpt><trkpt lat="43.469362908469044" lon="10.631644991622892"><ele>339.0</ele><time>2026-04-18T16:20:46.002Z</time></trkpt><trkpt lat="43.469394710358166" lon="10.631524499731915"><ele>339.0</ele><time>2026-04-18T16:20:47.002Z</time></trkpt><trkpt lat="43.46938883777651" lon="10.63139735458283"><ele>339.0</ele><time>2026-04-18T16:20:48.002Z</time></trkpt><trkpt lat="43.469392536287025" lon="10.631271965691909"><ele>339.0</ele><time>2026-04-18T16:20:49.002Z</time></trkpt><trkpt lat="43.46936763843282" lon="10.631160390251367"><ele>341.0</ele><time>2026-04-18T16:20:50.002Z</time></trkpt><trkpt lat="43.469320904626734" lon="10.631037646650379"><ele>343.0</ele><time>2026-04-18T16:20:51.002Z</time></trkpt><trkpt lat="43.46926991613091" lon="10.6309159054519"><ele>345.0</ele><time>2026-04-18T16:20:52.002Z</time></trkpt><trkpt lat="43.46924237958293" lon="10.630777419486957"><ele>347.0</ele><time>2026-04-18T16:20:53.002Z</time></trkpt><trkpt lat="43.46921053106233" lon="10.630647766106588"><ele>349.0</ele><time>2026-04-18T16:20:54.002Z</time></trkpt><trkpt lat="43.46919800473126" lon="10.630525008170467"><ele>349.0</ele><time>2026-04-18T16:20:55.002Z</time></trkpt><trkpt lat="43.46921496217349" lon="10.63041624285414"><ele>349.0</ele><time>2026-04-18T16:20:56.002Z</time></trkpt><trkpt lat="43.46926190392413" lon="10.630331481208296"><ele>349.0</ele><time>2026-04-18T16:20:57.002Z</time></trkpt><trkpt lat="43.469335819049626" lon="10.630261561950423"><ele>349.0</ele><time>2026-04-18T16:20:58.002Z</time></trkpt><trkpt lat="43.46939091433998" lon="10.63016643289698"><ele>349.0</ele><time>2026-04-18T16:20:59.002Z</time></trkpt><trkpt lat="43.469445038134566" lon="10.630075352704925"><ele>349.0</ele><time>2026-04-18T16:21:00.002Z</time></trkpt><trkpt lat="43.4694766424006" lon="10.629960988344305"><ele>350.66666666666663</ele><time>2026-04-18T16:21:01.002Z</time></trkpt><trkpt lat="43.469496837930414" lon="10.629843213658042"><ele>352.3333333333333</ele><time>2026-04-18T16:21:02.002Z</time></trkpt><trkpt lat="43.46950154769894" lon="10.629727712492963"><ele>354.0</ele><time>2026-04-18T16:21:03.002Z</time></trkpt><trkpt lat="43.46949030339459" lon="10.62963668649648"><ele>355.6666666666667</ele><time>2026-04-18T16:21:04.002Z</time></trkpt><trkpt lat="43.4694046251847" lon="10.62953000181412"><ele>357.33333333333337</ele><time>2026-04-18T16:21:06.002Z</time></trkpt><trkpt lat="43.469320447219445" lon="10.629517052073624"><ele>359.0</ele><time>2026-04-18T16:21:07.002Z</time></trkpt><trkpt lat="43.4692497772228" lon="10.629515049027262"><ele>359.0</ele><time>2026-04-18T16:21:08.002Z</time></trkpt><trkpt lat="43.46918047171763" lon="10.629566269636486"><ele>359.0</ele><time>2026-04-18T16:21:09.002Z</time></trkpt><trkpt lat="43.469121346608645" lon="10.629642010360167"><ele>359.0</ele><time>2026-04-18T16:21:10.002Z</time></trkpt><trkpt lat="43.469058424247734" lon="10.629706487566585"><ele>359.0</ele><time>2026-04-18T16:21:11.002Z</time></trkpt><trkpt lat="43.46898864070782" lon="10.629767794641385"><ele>359.0</ele><time>2026-04-18T16:21:12.002Z</time></trkpt><trkpt lat="43.468917834392634" lon="10.6298196901073"><ele>359.0</ele><time>2026-04-18T16:21:13.002Z</time></trkpt><trkpt lat="43.46884693383106" lon="10.629885891288591"><ele>360.0</ele><time>2026-04-18T16:21:14.002Z</time></trkpt><trkpt lat="43.46876881198756" lon="10.629953794351938"><ele>361.0</ele><time>2026-04-18T16:21:15.002Z</time></trkpt><trkpt lat="43.46869314041637" lon="10.630033241757848"><ele>362.0</ele><time>2026-04-18T16:21:16.002Z</time></trkpt><trkpt lat="43.46862492581359" lon="10.630145993206128"><ele>363.0</ele><time>2026-04-18T16:21:17.002Z</time></trkpt><trkpt lat="43.468576912981085" lon="10.630263322646847"><ele>364.0</ele><time>2026-04-18T16:21:18.002Z</time></trkpt><trkpt lat="43.468542735349246" lon="10.630397725572031"><ele>364.0</ele><time>2026-04-18T16:21:19.002Z</time></trkpt><trkpt lat="43.46850799798852" lon="10.630551690509632"><ele>364.0</ele><time>2026-04-18T16:21:20.002Z</time></trkpt><trkpt lat="43.46848083457124" lon="10.630688890039451"><ele>364.0</ele><time>2026-04-18T16:21:21.003Z</time></trkpt><trkpt lat="43.468468397516865" lon="10.63083206731768"><ele>364.0</ele><time>2026-04-18T16:21:22.003Z</time></trkpt><trkpt lat="43.4684183788716" lon="10.63096139149196"><ele>364.0</ele><time>2026-04-18T16:21:23.003Z</time></trkpt><trkpt lat="43.46837413126099" lon="10.631079817608716"><ele>364.16666666666663</ele><time>2026-04-18T16:21:24.003Z</time></trkpt><trkpt lat="43.46831038844712" lon="10.631180866763298"><ele>364.3333333333333</ele><time>2026-04-18T16:21:25.003Z</time></trkpt><trkpt lat="43.46824062682319" lon="10.63123281108557"><ele>364.5</ele><time>2026-04-18T16:21:26.003Z</time></trkpt><trkpt lat="43.46816898838027" lon="10.631247789008516"><ele>364.6666666666667</ele><time>2026-04-18T16:21:27.003Z</time></trkpt><trkpt lat="43.468091086924254" lon="10.63121723382143"><ele>364.83333333333337</ele><time>2026-04-18T16:21:28.003Z</time></trkpt><trkpt lat="43.468013035021734" lon="10.631180531832273"><ele>365.0</ele><time>2026-04-18T16:21:29.003Z</time></trkpt><trkpt lat="43.46793001766692" lon="10.631133680514425"><ele>365.0</ele><time>2026-04-18T16:21:30.003Z</time></trkpt><trkpt lat="43.46784080852326" lon="10.63108633043506"><ele>365.0</ele><time>2026-04-18T16:21:31.003Z</time></trkpt><trkpt lat="43.46774480023941" lon="10.631054946947305"><ele>365.0</ele><time>2026-04-18T16:21:32.003Z</time></trkpt><trkpt lat="43.46765014824946" lon="10.631010452190193"><ele>365.0</ele><time>2026-04-18T16:21:33.003Z</time></trkpt><trkpt lat="43.467550838223374" lon="10.630971175617825"><ele>365.0</ele><time>2026-04-18T16:21:34.003Z</time></trkpt><trkpt lat="43.467449734295975" lon="10.630922603712554"><ele>365.0</ele><time>2026-04-18T16:21:35.003Z</time></trkpt><trkpt lat="43.46734864901815" lon="10.630871976397083"><ele>365.0</ele><time>2026-04-18T16:21:36.003Z</time></trkpt><trkpt lat="43.46724314359667" lon="10.630809787804083"><ele>365.0</ele><time>2026-04-18T16:21:37.003Z</time></trkpt><trkpt lat="43.46715276905107" lon="10.630772788154363"><ele>365.0</ele><time>2026-04-18T16:21:38Z</time></trkpt><trkpt lat="43.4670475361265" lon="10.630760492293488"><ele>365.0</ele><time>2026-04-18T16:21:39Z</time></trkpt><trkpt lat="43.46693610287197" lon="10.630775747563874"><ele>364.8</ele><time>2026-04-18T16:21:40Z</time></trkpt><trkpt lat="43.46682624830463" lon="10.630819061774874"><ele>364.6</ele><time>2026-04-18T16:21:41Z</time></trkpt><trkpt lat="43.466713792590404" lon="10.630846877060959"><ele>364.4</ele><time>2026-04-18T16:21:42Z</time></trkpt><trkpt lat="43.466609848071116" lon="10.630890532027218"><ele>364.2</ele><time>2026-04-18T16:21:43Z</time></trkpt><trkpt lat="43.46651333356991" lon="10.630924230439188"><ele>364.0</ele><time>2026-04-18T16:21:44Z</time></trkpt><trkpt lat="43.46642544049179" lon="10.630939561394309"><ele>364.0</ele><time>2026-04-18T16:21:45Z</time></trkpt><trkpt lat="43.46634811665127" lon="10.630933688638512"><ele>364.0</ele><time>2026-04-18T16:21:46Z</time></trkpt><trkpt lat="43.466282851020836" lon="10.630927091888934"><ele>364.0</ele><time>2026-04-18T16:21:47Z</time></trkpt><trkpt lat="43.46622311454492" lon="10.630880111555012"><ele>364.0</ele><time>2026-04-18T16:21:48Z</time></trkpt><trkpt lat="43.46616664350546" lon="10.630839452789102"><ele>364.0</ele><time>2026-04-18T16:21:49Z</time></trkpt><trkpt lat="43.466083640728314" lon="10.630737667787026"><ele>364.0</ele><time>2026-04-18T16:21:51Z</time></trkpt><trkpt lat="43.466040857144336" lon="10.630606788864643"><ele>363.8333333333333</ele><time>2026-04-18T16:21:53Z</time></trkpt><trkpt lat="43.46605471079504" lon="10.630491034915273"><ele>363.66666666666663</ele><time>2026-04-18T16:21:55Z</time></trkpt><trkpt lat="43.46604744894328" lon="10.630387681334218"><ele>363.5</ele><time>2026-04-18T16:21:58Z</time></trkpt><trkpt lat="43.46605660679342" lon="10.630278842849602"><ele>363.3333333333333</ele><time>2026-04-18T16:22:05Z</time></trkpt><trkpt lat="43.466066485207584" lon="10.630176700814593"><ele>363.1666666666667</ele><time>2026-04-18T16:22:08Z</time></trkpt><trkpt lat="43.46607597626851" lon="10.630061712302485"><ele>363.0</ele><time>2026-04-18T16:22:11Z</time></trkpt><trkpt lat="43.46606545929489" lon="10.62993649947977"><ele>363.2857142857143</ele><time>2026-04-18T16:22:14Z</time></trkpt><trkpt lat="43.4660337108944" lon="10.629848857929717"><ele>363.57142857142856</ele><time>2026-04-18T16:22:16Z</time></trkpt><trkpt lat="43.46599703815067" lon="10.629770066854746"><ele>363.8571428571429</ele><time>2026-04-18T16:22:18.001Z</time></trkpt><trkpt lat="43.46595786585439" lon="10.629695183074613"><ele>364.1428571428571</ele><time>2026-04-18T16:22:20.001Z</time></trkpt><trkpt lat="43.4659132117194" lon="10.629615803913229"><ele>364.42857142857144</ele><time>2026-04-18T16:22:22.001Z</time></trkpt><trkpt lat="43.46586305375754" lon="10.629534139533591"><ele>364.7142857142857</ele><time>2026-04-18T16:22:24.001Z</time></trkpt><trkpt lat="43.46580502260116" lon="10.629444913811763"><ele>365.0</ele><time>2026-04-18T16:22:26.001Z</time></trkpt><trkpt lat="43.465748558391276" lon="10.629361219396326"><ele>363.5</ele><time>2026-04-18T16:22:28.001Z</time></trkpt><trkpt lat="43.46567571298507" lon="10.629278987994201"><ele>362.0</ele><time>2026-04-18T16:22:30.001Z</time></trkpt><trkpt lat="43.4655974121054" lon="10.629182017320742"><ele>360.5</ele><time>2026-04-18T16:22:32.001Z</time></trkpt><trkpt lat="43.46549069357675" lon="10.629094624669833"><ele>359.0</ele><time>2026-04-18T16:22:34.001Z</time></trkpt><trkpt lat="43.46538259724099" lon="10.629000921933676"><ele>359.0</ele><time>2026-04-18T16:22:36.001Z</time></trkpt><trkpt lat="43.46534477617234" lon="10.628924867821027"><ele>359.0</ele><time>2026-04-18T16:22:37.001Z</time></trkpt><trkpt lat="43.4653017131015" lon="10.628859027872707"><ele>359.0</ele><time>2026-04-18T16:22:38.001Z</time></trkpt><trkpt lat="43.46525214981633" lon="10.62880490060658"><ele>359.0</ele><time>2026-04-18T16:22:39.001Z</time></trkpt><trkpt lat="43.46520939058995" lon="10.628736314146883"><ele>359.0</ele><time>2026-04-18T16:22:40.001Z</time></trkpt><trkpt lat="43.465132997035084" lon="10.628605277667978"><ele>359.0</ele><time>2026-04-18T16:22:42.001Z</time></trkpt><trkpt lat="43.46507760999589" lon="10.628461782136887"><ele>360.6</ele><time>2026-04-18T16:22:44.001Z</time></trkpt><trkpt lat="43.46502401407053" lon="10.628336442632346"><ele>362.2</ele><time>2026-04-18T16:22:46.001Z</time></trkpt><trkpt lat="43.465039033239314" lon="10.628197816043128"><ele>363.8</ele><time>2026-04-18T16:22:48.001Z</time></trkpt><trkpt lat="43.4650867886532" lon="10.628133949239896"><ele>365.40000000000003</ele><time>2026-04-18T16:22:49.001Z</time></trkpt><trkpt lat="43.465151897540544" lon="10.628000665609902"><ele>367.0</ele><time>2026-04-18T16:22:51.001Z</time></trkpt><trkpt lat="43.46522370293249" lon="10.627873016183866"><ele>368.0</ele><time>2026-04-18T16:22:53.002Z</time></trkpt><trkpt lat="43.46529968766915" lon="10.627748001871316"><ele>369.0</ele><time>2026-04-18T16:22:55.002Z</time></trkpt><trkpt lat="43.465381409627874" lon="10.627631057506656"><ele>370.0</ele><time>2026-04-18T16:22:57.002Z</time></trkpt><trkpt lat="43.46544640569054" lon="10.627501312637454"><ele>371.0</ele><time>2026-04-18T16:22:59.002Z</time></trkpt><trkpt lat="43.46551291012433" lon="10.627381277294198"><ele>371.0</ele><time>2026-04-18T16:23:01.002Z</time></trkpt><trkpt lat="43.46555411593785" lon="10.62730728406014"><ele>371.0</ele><time>2026-04-18T16:23:02.002Z</time></trkpt><trkpt lat="43.46554347515972" lon="10.62716280990714"><ele>371.0</ele><time>2026-04-18T16:23:03.002Z</time></trkpt><trkpt lat="43.46545517742914" lon="10.627104663235915"><ele>371.0</ele><time>2026-04-18T16:23:05.002Z</time></trkpt><trkpt lat="43.465342678812" lon="10.627086790190381"><ele>371.0</ele><time>2026-04-18T16:23:07.002Z</time></trkpt><trkpt lat="43.46520640712732" lon="10.627056272653432"><ele>371.0</ele><time>2026-04-18T16:23:09.002Z</time></trkpt><trkpt lat="43.46512835877142" lon="10.627041075816038"><ele>371.0</ele><time>2026-04-18T16:23:11.002Z</time></trkpt><trkpt lat="43.465054588151446" lon="10.627020298513557"><ele>371.0</ele><time>2026-04-18T16:23:13.002Z</time></trkpt><trkpt lat="43.46495448184247" lon="10.627004205500583"><ele>371.0</ele><time>2026-04-18T16:23:15.002Z</time></trkpt><trkpt lat="43.464860199236576" lon="10.626991026253698"><ele>371.0</ele><time>2026-04-18T16:23:17.002Z</time></trkpt><trkpt lat="43.46476369812006" lon="10.626960145234289"><ele>371.0</ele><time>2026-04-18T16:23:19.002Z</time></trkpt><trkpt lat="43.464664694345956" lon="10.626893932808589"><ele>369.20000000000005</ele><time>2026-04-18T16:23:21.002Z</time></trkpt><trkpt lat="43.464570806721376" lon="10.62679316622231"><ele>367.40000000000003</ele><time>2026-04-18T16:23:23.002Z</time></trkpt><trkpt lat="43.46448999640237" lon="10.62668687843907"><ele>365.6</ele><time>2026-04-18T16:23:25.002Z</time></trkpt><trkpt lat="43.46444153632983" lon="10.626576519195385"><ele>363.8</ele><time>2026-04-18T16:23:27.002Z</time></trkpt><trkpt lat="43.46442138440161" lon="10.626464957960867"><ele>362.0</ele><time>2026-04-18T16:23:29.003Z</time></trkpt><trkpt lat="43.464423980308084" lon="10.62634376680719"><ele>362.0</ele><time>2026-04-18T16:23:31.003Z</time></trkpt><trkpt lat="43.464417146987465" lon="10.626205459604089"><ele>362.0</ele><time>2026-04-18T16:23:33.003Z</time></trkpt><trkpt lat="43.46442311888213" lon="10.626076647518163"><ele>362.0</ele><time>2026-04-18T16:23:35.003Z</time></trkpt><trkpt lat="43.46445708002609" lon="10.625938327926415"><ele>362.0</ele><time>2026-04-18T16:23:37.003Z</time></trkpt><trkpt lat="43.464514774849036" lon="10.625852483995741"><ele>362.0</ele><time>2026-04-18T16:23:39.003Z</time></trkpt><trkpt lat="43.46457731334863" lon="10.625736832450578"><ele>369.0</ele><time>2026-04-18T16:23:41.003Z</time></trkpt><trkpt lat="43.464632452608164" lon="10.62562700293332"><ele>376.0</ele><time>2026-04-18T16:23:43.003Z</time></trkpt><trkpt lat="43.46468927017141" lon="10.625535585243421"><ele>383.0</ele><time>2026-04-18T16:23:45Z</time></trkpt><trkpt lat="43.46473830647924" lon="10.625434066193186"><ele>390.0</ele><time>2026-04-18T16:23:47Z</time></trkpt><trkpt lat="43.46477687852655" lon="10.625330122833985"><ele>397.0</ele><time>2026-04-18T16:23:49Z</time></trkpt><trkpt lat="43.46474900672092" lon="10.625193403973674"><ele>397.0</ele><time>2026-04-18T16:23:51Z</time></trkpt><trkpt lat="43.464727612013114" lon="10.625078745581103"><ele>397.0</ele><time>2026-04-18T16:23:53Z</time></trkpt><trkpt lat="43.46472486605074" lon="10.62495414426645"><ele>397.0</ele><time>2026-04-18T16:23:55Z</time></trkpt><trkpt lat="43.46476600005811" lon="10.624827244673638"><ele>397.0</ele><time>2026-04-18T16:23:57Z</time></trkpt><trkpt lat="43.46485312507454" lon="10.624752679335858"><ele>397.0</ele><time>2026-04-18T16:23:59Z</time></trkpt><trkpt lat="43.46492003776387" lon="10.6246534895257"><ele>397.0</ele><time>2026-04-18T16:24:01Z</time></trkpt><trkpt lat="43.464984552872494" lon="10.624542871124435"><ele>397.0</ele><time>2026-04-18T16:24:03Z</time></trkpt><trkpt lat="43.46505163781205" lon="10.624452941833201"><ele>397.0</ele><time>2026-04-18T16:24:05Z</time></trkpt><trkpt lat="43.46511079080365" lon="10.624355631039926"><ele>397.0</ele><time>2026-04-18T16:24:07Z</time></trkpt><trkpt lat="43.465151342916165" lon="10.624251615185747"><ele>397.0</ele><time>2026-04-18T16:24:09Z</time></trkpt><trkpt lat="43.46519577801649" lon="10.624136171818801"><ele>397.6</ele><time>2026-04-18T16:24:11Z</time></trkpt><trkpt lat="43.46524554301755" lon="10.624018356285445"><ele>398.20000000000005</ele><time>2026-04-18T16:24:13Z</time></trkpt><trkpt lat="43.46529205969985" lon="10.62391827312669"><ele>398.8</ele><time>2026-04-18T16:24:15Z</time></trkpt><trkpt lat="43.46533421136868" lon="10.623786773471425"><ele>399.4</ele><time>2026-04-18T16:24:17Z</time></trkpt><trkpt lat="43.46540931030759" lon="10.623664683984801"><ele>400.0</ele><time>2026-04-18T16:24:19Z</time></trkpt><trkpt lat="43.46547672039062" lon="10.623547191092449"><ele>400.0</ele><time>2026-04-18T16:24:21.001Z</time></trkpt><trkpt lat="43.46552590619504" lon="10.623426322170365"><ele>400.0</ele><time>2026-04-18T16:24:23.001Z</time></trkpt><trkpt lat="43.465567232995376" lon="10.623302065053815"><ele>400.0</ele><time>2026-04-18T16:24:25.001Z</time></trkpt><trkpt lat="43.46562117529262" lon="10.623173968915237"><ele>400.0</ele><time>2026-04-18T16:24:27.001Z</time></trkpt><trkpt lat="43.465695030890586" lon="10.62306260224475"><ele>400.0</ele><time>2026-04-18T16:24:29.001Z</time></trkpt><trkpt lat="43.46578189517871" lon="10.62299210578603"><ele>400.0</ele><time>2026-04-18T16:24:31.001Z</time></trkpt><trkpt lat="43.46588643873867" lon="10.622961676373421"><ele>400.0</ele><time>2026-04-18T16:24:33.001Z</time></trkpt><trkpt lat="43.465990502439126" lon="10.622952058349547"><ele>400.0</ele><time>2026-04-18T16:24:35.001Z</time></trkpt><trkpt lat="43.466089765933404" lon="10.62290695329556"><ele>400.0</ele><time>2026-04-18T16:24:37.001Z</time></trkpt><trkpt lat="43.466189073563086" lon="10.622848579855669"><ele>400.0</ele><time>2026-04-18T16:24:39.001Z</time></trkpt><trkpt lat="43.46627866699532" lon="10.622806703339338"><ele>402.6</ele><time>2026-04-18T16:24:41.001Z</time></trkpt><trkpt lat="43.466338643453476" lon="10.622749704707001"><ele>405.2</ele><time>2026-04-18T16:24:42.001Z</time></trkpt><trkpt lat="43.46640557108157" lon="10.622623429051767"><ele>407.79999999999995</ele><time>2026-04-18T16:24:44.001Z</time></trkpt><trkpt lat="43.46646455146197" lon="10.622564096754981"><ele>410.4</ele><time>2026-04-18T16:24:46.001Z</time></trkpt><trkpt lat="43.46646335020955" lon="10.622461526090747"><ele>413.0</ele><time>2026-04-18T16:24:48.001Z</time></trkpt><trkpt lat="43.466477950354694" lon="10.622294766947887"><ele>413.0</ele><time>2026-04-18T16:24:50.001Z</time></trkpt><trkpt lat="43.46647680069358" lon="10.62214000584152"><ele>413.0</ele><time>2026-04-18T16:24:52.001Z</time></trkpt><trkpt lat="43.466471833033715" lon="10.621984900412006"><ele>413.0</ele><time>2026-04-18T16:24:54.002Z</time></trkpt><trkpt lat="43.466485965705225" lon="10.62185327407022"><ele>413.0</ele><time>2026-04-18T16:24:56.002Z</time></trkpt><trkpt lat="43.46650855054077" lon="10.62168442338231"><ele>413.0</ele><time>2026-04-18T16:24:58.002Z</time></trkpt><trkpt lat="43.46656840645331" lon="10.621575867336023"><ele>411.3333333333333</ele><time>2026-04-18T16:25:00.002Z</time></trkpt><trkpt lat="43.46663102951628" lon="10.62146944230627"><ele>409.66666666666663</ele><time>2026-04-18T16:25:02.002Z</time></trkpt><trkpt lat="43.46670326475712" lon="10.621361947944902"><ele>408.0</ele><time>2026-04-18T16:25:04.002Z</time></trkpt><trkpt lat="43.46675858913415" lon="10.621289732270828"><ele>406.33333333333337</ele><time>2026-04-18T16:25:06.002Z</time></trkpt><trkpt lat="43.46682145639264" lon="10.621207671031575"><ele>404.6666666666667</ele><time>2026-04-18T16:25:08.002Z</time></trkpt><trkpt lat="43.46687996655741" lon="10.621150651625525"><ele>403.0</ele><time>2026-04-18T16:25:10.002Z</time></trkpt><trkpt lat="43.46688890962128" lon="10.620999122567598"><ele>401.79999999999995</ele><time>2026-04-18T16:25:12.002Z</time></trkpt><trkpt lat="43.466898065621486" lon="10.620854132944874"><ele>400.6</ele><time>2026-04-18T16:25:14.002Z</time></trkpt><trkpt lat="43.46684572982841" lon="10.62074844882462"><ele>399.4</ele><time>2026-04-18T16:25:16.002Z</time></trkpt><trkpt lat="43.46679471178158" lon="10.620624191754906"><ele>398.20000000000005</ele><time>2026-04-18T16:25:18.002Z</time></trkpt><trkpt lat="43.46672530208093" lon="10.620508526069829"><ele>397.0</ele><time>2026-04-18T16:25:20.002Z</time></trkpt><trkpt lat="43.46665884438631" lon="10.62039917658296"><ele>398.8</ele><time>2026-04-18T16:25:22.002Z</time></trkpt><trkpt lat="43.466635463820225" lon="10.620257392817022"><ele>400.6</ele><time>2026-04-18T16:25:24.002Z</time></trkpt><trkpt lat="43.466648066420795" lon="10.620139563898665"><ele>402.40000000000003</ele><time>2026-04-18T16:25:26.002Z</time></trkpt><trkpt lat="43.46666557900964" lon="10.619999956888277"><ele>404.20000000000005</ele><time>2026-04-18T16:25:28.002Z</time></trkpt><trkpt lat="43.466683084619014" lon="10.619862940871736"><ele>406.0</ele><time>2026-04-18T16:25:30.003Z</time></trkpt><trkpt lat="43.46668270716073" lon="10.619730305489133"><ele>406.0</ele><time>2026-04-18T16:25:32.003Z</time></trkpt><trkpt lat="43.466713649629455" lon="10.619621171755222"><ele>406.0</ele><time>2026-04-18T16:25:34.003Z</time></trkpt><trkpt lat="43.46671423622345" lon="10.61947968932403"><ele>406.0</ele><time>2026-04-18T16:25:36.003Z</time></trkpt><trkpt lat="43.46669133748339" lon="10.61933591981846"><ele>406.0</ele><time>2026-04-18T16:25:38.003Z</time></trkpt><trkpt lat="43.46667304574084" lon="10.619192291166502"><ele>406.0</ele><time>2026-04-18T16:25:40.003Z</time></trkpt><trkpt lat="43.46666313850831" lon="10.61905672177492"><ele>407.20000000000005</ele><time>2026-04-18T16:25:42.003Z</time></trkpt><trkpt lat="43.466659003110244" lon="10.61890317356645"><ele>408.40000000000003</ele><time>2026-04-18T16:25:44.003Z</time></trkpt><trkpt lat="43.46666580177776" lon="10.618758356749737"><ele>409.6</ele><time>2026-04-18T16:25:46.003Z</time></trkpt><trkpt lat="43.466641537948256" lon="10.61862928464486"><ele>410.8</ele><time>2026-04-18T16:25:48.003Z</time></trkpt><trkpt lat="43.466591424917446" lon="10.618471814926165"><ele>412.0</ele><time>2026-04-18T16:25:50Z</time></trkpt><trkpt lat="43.46652285479198" lon="10.618428773639813"><ele>410.33333333333337</ele><time>2026-04-18T16:25:52Z</time></trkpt><trkpt lat="43.466464421585236" lon="10.618338895907714"><ele>408.6666666666667</ele><time>2026-04-18T16:25:54Z</time></trkpt><trkpt lat="43.46641362171398" lon="10.618252026528184"><ele>407.0</ele><time>2026-04-18T16:25:56Z</time></trkpt><trkpt lat="43.46637377348455" lon="10.618165518253324"><ele>405.33333333333337</ele><time>2026-04-18T16:25:58Z</time></trkpt><trkpt lat="43.4663362616335" lon="10.618071274579307"><ele>403.6666666666667</ele><time>2026-04-18T16:26:00Z</time></trkpt><trkpt lat="43.46629293608198" lon="10.617992367249185"><ele>402.0</ele><time>2026-04-18T16:26:02Z</time></trkpt><trkpt lat="43.46624683911521" lon="10.61792629770923"><ele>402.0</ele><time>2026-04-18T16:26:04Z</time></trkpt><trkpt lat="43.46618928537553" lon="10.617822060848244"><ele>402.0</ele><time>2026-04-18T16:26:07Z</time></trkpt><trkpt lat="43.46615942341108" lon="10.617737365946292"><ele>402.0</ele><time>2026-04-18T16:26:09Z</time></trkpt><trkpt lat="43.466125992050145" lon="10.617643716941025"><ele>402.0</ele><time>2026-04-18T16:26:11Z</time></trkpt><trkpt lat="43.46609967383386" lon="10.617543774474532"><ele>402.0</ele><time>2026-04-18T16:26:13Z</time></trkpt><trkpt lat="43.46607333889159" lon="10.617445494163519"><ele>402.0</ele><time>2026-04-18T16:26:15Z</time></trkpt><trkpt lat="43.466036738945675" lon="10.617352957056612"><ele>404.0</ele><time>2026-04-18T16:26:17Z</time></trkpt><trkpt lat="43.46599855865201" lon="10.617265134836275"><ele>406.0</ele><time>2026-04-18T16:26:19Z</time></trkpt><trkpt lat="43.465959830323484" lon="10.617181258945093"><ele>408.0</ele><time>2026-04-18T16:26:21Z</time></trkpt><trkpt lat="43.46592044948203" lon="10.6170859451617"><ele>410.0</ele><time>2026-04-18T16:26:23.001Z</time></trkpt><trkpt lat="43.46588621191425" lon="10.616973225755437"><ele>412.0</ele><time>2026-04-18T16:26:25.001Z</time></trkpt><trkpt lat="43.46583972641557" lon="10.616846739357088"><ele>414.0</ele><time>2026-04-18T16:26:27.001Z</time></trkpt><trkpt lat="43.46580770369248" lon="10.616724961876649"><ele>417.6</ele><time>2026-04-18T16:26:29.001Z</time></trkpt><trkpt lat="43.46577570863301" lon="10.616593700170892"><ele>421.2</ele><time>2026-04-18T16:26:31.001Z</time></trkpt><trkpt lat="43.46574922190834" lon="10.616452047747089"><ele>424.80000000000007</ele><time>2026-04-18T16:26:33.001Z</time></trkpt><trkpt lat="43.465717161101175" lon="10.616320791070684"><ele>428.40000000000003</ele><time>2026-04-18T16:26:35.001Z</time></trkpt><trkpt lat="43.465686129833394" lon="10.616179170621503"><ele>432.0</ele><time>2026-04-18T16:26:37.001Z</time></trkpt><trkpt lat="43.46564785007517" lon="10.616047822725974"><ele>433.8</ele><time>2026-04-18T16:26:39.001Z</time></trkpt><trkpt lat="43.465610987588526" lon="10.61589294402412"><ele>435.6</ele><time>2026-04-18T16:26:41.001Z</time></trkpt><trkpt lat="43.465572804773146" lon="10.615771406009149"><ele>437.40000000000003</ele><time>2026-04-18T16:26:43.001Z</time></trkpt><trkpt lat="43.46556999486799" lon="10.61568032301087"><ele>439.20000000000005</ele><time>2026-04-18T16:26:44.001Z</time></trkpt><trkpt lat="43.465617801150835" lon="10.615538219280449"><ele>441.0</ele><time>2026-04-18T16:26:46.001Z</time></trkpt><trkpt lat="43.46571203647491" lon="10.615441774347207"><ele>441.0</ele><time>2026-04-18T16:26:48.001Z</time></trkpt><trkpt lat="43.46578576106038" lon="10.615327117066986"><ele>441.0</ele><time>2026-04-18T16:26:50.001Z</time></trkpt><trkpt lat="43.46581137243627" lon="10.615176401935662"><ele>441.0</ele><time>2026-04-18T16:26:52.001Z</time></trkpt><trkpt lat="43.465818410616144" lon="10.61501606025143"><ele>441.0</ele><time>2026-04-18T16:26:54.001Z</time></trkpt><trkpt lat="43.465823273055044" lon="10.614879504715425"><ele>441.0</ele><time>2026-04-18T16:26:56.001Z</time></trkpt><trkpt lat="43.465846457910814" lon="10.614734376706176"><ele>441.20000000000005</ele><time>2026-04-18T16:26:58.002Z</time></trkpt><trkpt lat="43.46588275740293" lon="10.614610521763298"><ele>441.40000000000003</ele><time>2026-04-18T16:27:00.002Z</time></trkpt><trkpt lat="43.46593016343259" lon="10.614496432710142"><ele>441.6</ele><time>2026-04-18T16:27:02.002Z</time></trkpt><trkpt lat="43.46598158256769" lon="10.614362038734807"><ele>441.8</ele><time>2026-04-18T16:27:04.002Z</time></trkpt><trkpt lat="43.46605503214477" lon="10.614277563693971"><ele>442.0</ele><time>2026-04-18T16:27:06.002Z</time></trkpt><trkpt lat="43.46610209499489" lon="10.614153961837076"><ele>443.50000000000006</ele><time>2026-04-18T16:27:08.002Z</time></trkpt><trkpt lat="43.466145010855875" lon="10.614043907524225"><ele>445.0</ele><time>2026-04-18T16:27:10.002Z</time></trkpt><trkpt lat="43.46620092437403" lon="10.613960509189633"><ele>446.5</ele><time>2026-04-18T16:27:12.002Z</time></trkpt><trkpt lat="43.46622846202219" lon="10.613867132303119"><ele>448.0</ele><time>2026-04-18T16:27:14.002Z</time></trkpt><trkpt lat="43.466257005546034" lon="10.61375618783799"><ele>449.50000000000006</ele><time>2026-04-18T16:27:16.002Z</time></trkpt><trkpt lat="43.466259074476504" lon="10.613638570959022"><ele>451.0</ele><time>2026-04-18T16:27:18.002Z</time></trkpt><trkpt lat="43.46624926276859" lon="10.613544010359456"><ele>451.00000000000006</ele><time>2026-04-18T16:27:20.002Z</time></trkpt><trkpt lat="43.46620662529951" lon="10.613435867527798"><ele>451.0</ele><time>2026-04-18T16:27:22.002Z</time></trkpt><trkpt lat="43.4661373405056" lon="10.613376351349027"><ele>451.0</ele><time>2026-04-18T16:27:24.002Z</time></trkpt><trkpt lat="43.466052445560486" lon="10.61338100563818"><ele>451.0</ele><time>2026-04-18T16:27:26.002Z</time></trkpt><trkpt lat="43.465987009241616" lon="10.613463230906312"><ele>451.00000000000006</ele><time>2026-04-18T16:27:29.002Z</time></trkpt><trkpt lat="43.465923154454956" lon="10.613575079767665"><ele>451.0</ele><time>2026-04-18T16:27:32.003Z</time></trkpt><trkpt lat="43.46586853576768" lon="10.613657758273101"><ele>451.00000000000006</ele><time>2026-04-18T16:27:34.003Z</time></trkpt><trkpt lat="43.465816632784225" lon="10.61375172205846"><ele>451.0</ele><time>2026-04-18T16:27:36.003Z</time></trkpt><trkpt lat="43.46576573146216" lon="10.61381162302046"><ele>451.0</ele><time>2026-04-18T16:27:38.003Z</time></trkpt><trkpt lat="43.46571565677529" lon="10.613881388381511"><ele>451.0</ele><time>2026-04-18T16:27:40.003Z</time></trkpt><trkpt lat="43.46566247092929" lon="10.61394650286716"><ele>451.00000000000006</ele><time>2026-04-18T16:27:41.003Z</time></trkpt><trkpt lat="43.465600380809704" lon="10.614033690825321"><ele>451.0</ele><time>2026-04-18T16:27:44.003Z</time></trkpt><trkpt lat="43.46555622905264" lon="10.614113714882535"><ele>451.00000000000006</ele><time>2026-04-18T16:27:46.003Z</time></trkpt><trkpt lat="43.46549600020067" lon="10.6141548652312"><ele>451.0</ele><time>2026-04-18T16:27:48.003Z</time></trkpt><trkpt lat="43.46543956684466" lon="10.614233962891438"><ele>451.0</ele><time>2026-04-18T16:27:50.003Z</time></trkpt><trkpt lat="43.46538636945006" lon="10.614349841835343"><ele>451.0</ele><time>2026-04-18T16:27:53.003Z</time></trkpt><trkpt lat="43.46533864731053" lon="10.614409336118538"><ele>451.00000000000006</ele><time>2026-04-18T16:27:55.003Z</time></trkpt><trkpt lat="43.46529264984367" lon="10.614495060904508"><ele>451.0</ele><time>2026-04-18T16:27:57Z</time></trkpt><trkpt lat="43.46522629252438" lon="10.614572973426826"><ele>453.6666666666667</ele><time>2026-04-18T16:27:59Z</time></trkpt><trkpt lat="43.46514647123067" lon="10.614691406767836"><ele>456.33333333333337</ele><time>2026-04-18T16:28:01Z</time></trkpt><trkpt lat="43.465086252551025" lon="10.614782964370729"><ele>459.0</ele><time>2026-04-18T16:28:03Z</time></trkpt><trkpt lat="43.46502765957437" lon="10.614892908627674"><ele>461.66666666666663</ele><time>2026-04-18T16:28:06Z</time></trkpt><trkpt lat="43.46497214005948" lon="10.614953511504309"><ele>464.3333333333333</ele><time>2026-04-18T16:28:08Z</time></trkpt><trkpt lat="43.46492006128498" lon="10.615003240116247"><ele>467.0</ele><time>2026-04-18T16:28:10Z</time></trkpt><trkpt lat="43.464873841420456" lon="10.615112195434262"><ele>466.99999999999994</ele><time>2026-04-18T16:28:13Z</time></trkpt><trkpt lat="43.46483084023375" lon="10.615199046062965"><ele>467.0</ele><time>2026-04-18T16:28:15Z</time></trkpt><trkpt lat="43.46479088305738" lon="10.615270685485783"><ele>467.0</ele><time>2026-04-18T16:28:17Z</time></trkpt><trkpt lat="43.46474002906194" lon="10.615368846083314"><ele>467.0</ele><time>2026-04-18T16:28:19Z</time></trkpt><trkpt lat="43.464713512294985" lon="10.615457540490638"><ele>466.99999999999994</ele><time>2026-04-18T16:28:21Z</time></trkpt><trkpt lat="43.46467120894769" lon="10.615548748509973"><ele>467.0</ele><time>2026-04-18T16:28:23Z</time></trkpt><trkpt lat="43.4646171913038" lon="10.615635551056146"><ele>467.99999999999994</ele><time>2026-04-18T16:28:25Z</time></trkpt><trkpt lat="43.46458101830329" lon="10.615712735578803"><ele>469.0</ele><time>2026-04-18T16:28:27Z</time></trkpt><trkpt lat="43.46452129145105" lon="10.615780831340023"><ele>469.99999999999994</ele><time>2026-04-18T16:28:30.001Z</time></trkpt><trkpt lat="43.46448460374893" lon="10.615853160804967"><ele>470.99999999999994</ele><time>2026-04-18T16:28:32.001Z</time></trkpt><trkpt lat="43.464444871603085" lon="10.615922537747117"><ele>472.0</ele><time>2026-04-18T16:28:34.001Z</time></trkpt><trkpt lat="43.4644109544367" lon="10.6160111721856"><ele>472.99999999999994</ele><time>2026-04-18T16:28:36.001Z</time></trkpt><trkpt lat="43.46436826571524" lon="10.616115450351062"><ele>473.99999999999994</ele><time>2026-04-18T16:28:39.001Z</time></trkpt><trkpt lat="43.46434999284918" lon="10.616210928980303"><ele>471.1666666666667</ele><time>2026-04-18T16:28:41.001Z</time></trkpt><trkpt lat="43.464328605443185" lon="10.616326994744744"><ele>468.33333333333337</ele><time>2026-04-18T16:28:44.001Z</time></trkpt><trkpt lat="43.464300754351804" lon="10.616410082637763"><ele>465.5</ele><time>2026-04-18T16:28:46.001Z</time></trkpt><trkpt lat="43.46426020335687" lon="10.616527160033403"><ele>462.6666666666667</ele><time>2026-04-18T16:28:49.001Z</time></trkpt><trkpt lat="43.46421861234808" lon="10.61663423688086"><ele>459.83333333333337</ele><time>2026-04-18T16:28:52.001Z</time></trkpt><trkpt lat="43.46417484768372" lon="10.616710091448104"><ele>457.0</ele><time>2026-04-18T16:29:12.002Z</time></trkpt><trkpt lat="43.46412420434826" lon="10.616780045749906"><ele>457.00000000000006</ele><time>2026-04-18T16:29:18.002Z</time></trkpt><trkpt lat="43.46415842015553" lon="10.616701875704486"><ele>457.0</ele><time>2026-04-18T16:30:58.002Z</time></trkpt><trkpt lat="43.46420815485921" lon="10.616627348355253"><ele>457.00000000000006</ele><time>2026-04-18T16:31:01.002Z</time></trkpt><trkpt lat="43.46423462491193" lon="10.616548424699424"><ele>457.00000000000006</ele><time>2026-04-18T16:31:03.002Z</time></trkpt><trkpt lat="43.464268795311874" lon="10.616450695942177"><ele>457.0</ele><time>2026-04-18T16:31:07.002Z</time></trkpt><trkpt lat="43.464298238423325" lon="10.616362908310997"><ele>457.00000000000006</ele><time>2026-04-18T16:31:11.002Z</time></trkpt><trkpt lat="43.464330259258304" lon="10.616267380932053"><ele>457.00000000000006</ele><time>2026-04-18T16:31:15.002Z</time></trkpt><trkpt lat="43.46435795577838" lon="10.616187316903172"><ele>461.25</ele><time>2026-04-18T16:31:20.002Z</time></trkpt><trkpt lat="43.46416120528621" lon="10.615935523638049"><ele>465.5</ele><time>2026-04-18T16:31:27.002Z</time></trkpt><trkpt lat="43.46412050388773" lon="10.615861902486529"><ele>469.75</ele><time>2026-04-18T16:31:34.003Z</time></trkpt><trkpt lat="43.46408182830925" lon="10.615781504683898"><ele>474.0</ele><time>2026-04-18T16:31:40.003Z</time></trkpt><trkpt lat="43.4640639085872" lon="10.615697316583324"><ele>473.99999999999994</ele><time>2026-04-18T16:31:44.003Z</time></trkpt><trkpt lat="43.4640713295757" lon="10.615609566076378"><ele>474.0</ele><time>2026-04-18T16:31:49.003Z</time></trkpt><trkpt lat="43.46408161182173" lon="10.615512935906699"><ele>473.99999999999994</ele><time>2026-04-18T16:31:53.003Z</time></trkpt><trkpt lat="43.46410316085036" lon="10.615430148619774"><ele>473.99999999999994</ele><time>2026-04-18T16:31:57.003Z</time></trkpt><trkpt lat="43.464129514121396" lon="10.615350667761373"><ele>474.0</ele><time>2026-04-18T16:32:02.003Z</time></trkpt><trkpt lat="43.464148149297685" lon="10.615266803807318"><ele>473.99999999999994</ele><time>2026-04-18T16:32:06.003Z</time></trkpt><trkpt lat="43.46415872725628" lon="10.61518042741105"><ele>473.99999999999994</ele><time>2026-04-18T16:32:09.001Z</time></trkpt><trkpt lat="43.464195547745454" lon="10.615090262654025"><ele>476.99999999999994</ele><time>2026-04-18T16:32:14.001Z</time></trkpt><trkpt lat="43.46421801165471" lon="10.615001661483541"><ele>480.0</ele><time>2026-04-18T16:32:18.001Z</time></trkpt><trkpt lat="43.46423694917694" lon="10.614915086680051"><ele>482.99999999999994</ele><time>2026-04-18T16:32:22.001Z</time></trkpt><trkpt lat="43.464241726391734" lon="10.614818897671139"><ele>485.99999999999994</ele><time>2026-04-18T16:32:26.001Z</time></trkpt><trkpt lat="43.46426169092245" lon="10.614718278688922"><ele>489.0</ele><time>2026-04-18T16:32:31.001Z</time></trkpt><trkpt lat="43.46428854606039" lon="10.614627281891073"><ele>491.99999999999994</ele><time>2026-04-18T16:32:35.001Z</time></trkpt><trkpt lat="43.464324159100975" lon="10.614525478010565"><ele>494.99999999999994</ele><time>2026-04-18T16:32:39.001Z</time></trkpt><trkpt lat="43.46433875048535" lon="10.614423671211073"><ele>497.5</ele><time>2026-04-18T16:32:43.001Z</time></trkpt><trkpt lat="43.46434876496875" lon="10.61430621286894"><ele>500.0</ele><time>2026-04-18T16:32:47.001Z</time></trkpt><trkpt lat="43.464374807289715" lon="10.61419228962092"><ele>502.5</ele><time>2026-04-18T16:32:51.001Z</time></trkpt><trkpt lat="43.46439019842715" lon="10.614105906186643"><ele>505.0</ele><time>2026-04-18T16:32:54.001Z</time></trkpt><trkpt lat="43.46441135793215" lon="10.614000475013105"><ele>507.5</ele><time>2026-04-18T16:32:58.001Z</time></trkpt><trkpt lat="43.4644297897566" lon="10.613900222764801"><ele>510.0</ele><time>2026-04-18T16:33:01.002Z</time></trkpt><trkpt lat="43.46446132759984" lon="10.613805151846812"><ele>510.0</ele><time>2026-04-18T16:33:04.002Z</time></trkpt><trkpt lat="43.464501940384785" lon="10.613730581431522"><ele>510.00000000000006</ele><time>2026-04-18T16:33:08.002Z</time></trkpt><trkpt lat="43.46451456838332" lon="10.613614084161043"><ele>510.0</ele><time>2026-04-18T16:33:11.002Z</time></trkpt><trkpt lat="43.46454057238103" lon="10.613525701990293"><ele>510.0</ele><time>2026-04-18T16:33:14.002Z</time></trkpt><trkpt lat="43.464568463811844" lon="10.61343853573162"><ele>510.00000000000006</ele><time>2026-04-18T16:33:17.002Z</time></trkpt><trkpt lat="43.464614193064214" lon="10.61335477446378"><ele>510.0</ele><time>2026-04-18T16:33:20.002Z</time></trkpt><trkpt lat="43.46464622900745" lon="10.613260778793732"><ele>510.0</ele><time>2026-04-18T16:33:23.002Z</time></trkpt><trkpt lat="43.46466571878861" lon="10.613168524800562"><ele>510.5</ele><time>2026-04-18T16:33:27.002Z</time></trkpt><trkpt lat="43.46465058137057" lon="10.61306928172856"><ele>511.0</ele><time>2026-04-18T16:33:30.002Z</time></trkpt><trkpt lat="43.46461814254386" lon="10.612925177905122"><ele>511.5</ele><time>2026-04-18T16:33:35.002Z</time></trkpt><trkpt lat="43.464616299564774" lon="10.612826646076714"><ele>512.0</ele><time>2026-04-18T16:33:38.002Z</time></trkpt><trkpt lat="43.46461126790394" lon="10.612726740340786"><ele>512.5</ele><time>2026-04-18T16:33:41.003Z</time></trkpt><trkpt lat="43.464602289965825" lon="10.612625084725407"><ele>513.0</ele><time>2026-04-18T16:33:45.003Z</time></trkpt><trkpt lat="43.46459718661832" lon="10.612537476209711"><ele>515.8333333333334</ele><time>2026-04-18T16:33:48.003Z</time></trkpt><trkpt lat="43.464578748011654" lon="10.612424395180874"><ele>518.6666666666666</ele><time>2026-04-18T16:33:53.003Z</time></trkpt><trkpt lat="43.46458932065246" lon="10.612329378727209"><ele>521.5</ele><time>2026-04-18T16:33:57.003Z</time></trkpt><trkpt lat="43.46459504163155" lon="10.612234210220956"><ele>524.3333333333333</ele><time>2026-04-18T16:34:01.003Z</time></trkpt><trkpt lat="43.46459599705923" lon="10.612138305151582"><ele>527.1666666666666</ele><time>2026-04-18T16:34:05.003Z</time></trkpt><trkpt lat="43.46458414959705" lon="10.6120348434943"><ele>530.0</ele><time>2026-04-18T16:34:08.003Z</time></trkpt><trkpt lat="43.464593491600496" lon="10.611909839289941"><ele>532.0</ele><time>2026-04-18T16:34:13.003Z</time></trkpt><trkpt lat="43.46458210374391" lon="10.611786778829162"><ele>534.0</ele><time>2026-04-18T16:34:18.001Z</time></trkpt><trkpt lat="43.46457369845533" lon="10.611681516339187"><ele>536.0</ele><time>2026-04-18T16:34:21.001Z</time></trkpt><trkpt lat="43.464583969654704" lon="10.611557557273352"><ele>538.0</ele><time>2026-04-18T16:34:25.001Z</time></trkpt><trkpt lat="43.46460581768075" lon="10.611455049681988"><ele>540.0</ele><time>2026-04-18T16:34:29.001Z</time></trkpt><trkpt lat="43.4646109185104" lon="10.611349654503913"><ele>542.0</ele><time>2026-04-18T16:34:32.001Z</time></trkpt><trkpt lat="43.46460298018928" lon="10.611255313134627"><ele>545.0</ele><time>2026-04-18T16:34:35.001Z</time></trkpt><trkpt lat="43.46461694498936" lon="10.611141534428848"><ele>548.0</ele><time>2026-04-18T16:34:39.001Z</time></trkpt><trkpt lat="43.46466377848439" lon="10.6110658910058"><ele>551.0</ele><time>2026-04-18T16:34:42.001Z</time></trkpt><trkpt lat="43.46471880877829" lon="10.61099055054128"><ele>554.0</ele><time>2026-04-18T16:34:46.001Z</time></trkpt><trkpt lat="43.46475122447988" lon="10.610901081778636"><ele>557.0</ele><time>2026-04-18T16:34:49.001Z</time></trkpt><trkpt lat="43.464778521126725" lon="10.610802574110258"><ele>560.0</ele><time>2026-04-18T16:34:52.001Z</time></trkpt><trkpt lat="43.464833643561846" lon="10.610736472989535"><ele>560.0</ele><time>2026-04-18T16:34:55.001Z</time></trkpt><trkpt lat="43.46486705466633" lon="10.610643745702447"><ele>560.0</ele><time>2026-04-18T16:34:57.001Z</time></trkpt><trkpt lat="43.46492311400866" lon="10.61056168796552"><ele>560.0</ele><time>2026-04-18T16:35:01.001Z</time></trkpt><trkpt lat="43.46493073989465" lon="10.610455898620161"><ele>560.0</ele><time>2026-04-18T16:35:04.001Z</time></trkpt><trkpt lat="43.46496136168456" lon="10.610348317110747"><ele>560.0</ele><time>2026-04-18T16:35:07.001Z</time></trkpt><trkpt lat="43.46501541950507" lon="10.610279881118055"><ele>560.0</ele><time>2026-04-18T16:35:09.001Z</time></trkpt><trkpt lat="43.465054105796575" lon="10.610168045653282"><ele>560.6666666666666</ele><time>2026-04-18T16:35:12.001Z</time></trkpt><trkpt lat="43.465080392171224" lon="10.61004576590964"><ele>561.3333333333333</ele><time>2026-04-18T16:35:14.001Z</time></trkpt><trkpt lat="43.46506898722746" lon="10.609959609664372"><ele>562.0</ele><time>2026-04-18T16:35:16.001Z</time></trkpt><trkpt lat="43.465123447059575" lon="10.60986992051051"><ele>562.6666666666666</ele><time>2026-04-18T16:35:18.001Z</time></trkpt><trkpt lat="43.46518631137898" lon="10.609780235343644"><ele>563.3333333333334</ele><time>2026-04-18T16:35:21.001Z</time></trkpt><trkpt lat="43.465200158260394" lon="10.609692861283348"><ele>564.0</ele><time>2026-04-18T16:35:23.002Z</time></trkpt><trkpt lat="43.465243454447865" lon="10.60960972306034"><ele>564.0</ele><time>2026-04-18T16:35:25.002Z</time></trkpt><trkpt lat="43.46527727979906" lon="10.609493933473447"><ele>564.0</ele><time>2026-04-18T16:35:28.002Z</time></trkpt><trkpt lat="43.465335293741774" lon="10.609445419429735"><ele>564.0</ele><time>2026-04-18T16:35:31.002Z</time></trkpt><trkpt lat="43.46534306268389" lon="10.609348102840347"><ele>564.0</ele><time>2026-04-18T16:35:34.002Z</time></trkpt><trkpt lat="43.46539183953905" lon="10.609287190505949"><ele>564.0</ele><time>2026-04-18T16:35:36.002Z</time></trkpt><trkpt lat="43.46544156718105" lon="10.6091985774994"><ele>564.0</ele><time>2026-04-18T16:35:39.002Z</time></trkpt><trkpt lat="43.465515889060555" lon="10.609141013284454"><ele>565.8333333333334</ele><time>2026-04-18T16:35:42.002Z</time></trkpt><trkpt lat="43.465574863515926" lon="10.609054608454658"><ele>567.6666666666666</ele><time>2026-04-18T16:35:45.002Z</time></trkpt><trkpt lat="43.46560713015859" lon="10.60896631470573"><ele>569.5</ele><time>2026-04-18T16:35:48.002Z</time></trkpt><trkpt lat="43.46557712312616" lon="10.60884922631839"><ele>571.3333333333333</ele><time>2026-04-18T16:35:51.002Z</time></trkpt><trkpt lat="43.465544554944515" lon="10.608762921257043"><ele>573.1666666666666</ele><time>2026-04-18T16:35:53.002Z</time></trkpt><trkpt lat="43.46553961623628" lon="10.608638418234719"><ele>575.0</ele><time>2026-04-18T16:35:56.002Z</time></trkpt><trkpt lat="43.465610467345925" lon="10.608587456159464"><ele>575.1666666666666</ele><time>2026-04-18T16:35:59.002Z</time></trkpt><trkpt lat="43.46568551165889" lon="10.608541983522654"><ele>575.3333333333333</ele><time>2026-04-18T16:36:02.002Z</time></trkpt><trkpt lat="43.46575592872079" lon="10.608540041216077"><ele>575.5</ele><time>2026-04-18T16:36:05.002Z</time></trkpt><trkpt lat="43.46582106103406" lon="10.608506443089736"><ele>575.6666666666666</ele><time>2026-04-18T16:36:08.003Z</time></trkpt><trkpt lat="43.46590529339168" lon="10.608545025918422"><ele>575.8333333333334</ele><time>2026-04-18T16:36:11.003Z</time></trkpt><trkpt lat="43.46599229711764" lon="10.608531097623809"><ele>576.0</ele><time>2026-04-18T16:36:14.003Z</time></trkpt><trkpt lat="43.466084452402264" lon="10.608493336050485"><ele>576.0</ele><time>2026-04-18T16:36:18.003Z</time></trkpt><trkpt lat="43.466159206982816" lon="10.608534863711066"><ele>576.0</ele><time>2026-04-18T16:36:20Z</time></trkpt><trkpt lat="43.466264489952984" lon="10.608555924753151"><ele>576.0</ele><time>2026-04-18T16:36:23Z</time></trkpt><trkpt lat="43.46633518741316" lon="10.608550474122536"><ele>576.0</ele><time>2026-04-18T16:36:26Z</time></trkpt><trkpt lat="43.46644235134827" lon="10.608557010549793"><ele>576.0</ele><time>2026-04-18T16:36:29Z</time></trkpt><trkpt lat="43.46649233311216" lon="10.608499945046468"><ele>576.0</ele><time>2026-04-18T16:36:31Z</time></trkpt><trkpt lat="43.46654078774331" lon="10.60840963314089"><ele>576.3333333333334</ele><time>2026-04-18T16:36:34Z</time></trkpt><trkpt lat="43.466583426482174" lon="10.608311662872877"><ele>576.6666666666666</ele><time>2026-04-18T16:36:37Z</time></trkpt><trkpt lat="43.46663926280827" lon="10.60824347267498"><ele>577.0</ele><time>2026-04-18T16:36:40Z</time></trkpt><trkpt lat="43.466707536777506" lon="10.608182852478732"><ele>577.3333333333333</ele><time>2026-04-18T16:36:43Z</time></trkpt><trkpt lat="43.46675282435976" lon="10.608121692886677"><ele>577.6666666666666</ele><time>2026-04-18T16:36:45Z</time></trkpt><trkpt lat="43.466774783490436" lon="10.607996926543725"><ele>578.0</ele><time>2026-04-18T16:36:49Z</time></trkpt><trkpt lat="43.46680823521056" lon="10.607908375159424"><ele>577.5714285714286</ele><time>2026-04-18T16:36:52Z</time></trkpt><trkpt lat="43.46683532635213" lon="10.607824878189158"><ele>577.1428571428571</ele><time>2026-04-18T16:36:55.001Z</time></trkpt><trkpt lat="43.46689050651806" lon="10.607781181656609"><ele>576.7142857142857</ele><time>2026-04-18T16:37:00.001Z</time></trkpt><trkpt lat="43.466909143257645" lon="10.60767877306835"><ele>576.2857142857142</ele><time>2026-04-18T16:37:22.001Z</time></trkpt><trkpt lat="43.466899364373496" lon="10.607591000883357"><ele>575.8571428571428</ele><time>2026-04-18T16:37:30.001Z</time></trkpt><trkpt lat="43.46694650250318" lon="10.607523170086816"><ele>575.4285714285714</ele><time>2026-04-18T16:37:44.002Z</time></trkpt><trkpt lat="43.46700670858205" lon="10.607478869932894"><ele>575.0</ele><time>2026-04-18T16:37:52.002Z</time></trkpt><trkpt lat="43.4670722181745" lon="10.60749587081994"><ele>574.8333333333333</ele><time>2026-04-18T16:37:55.002Z</time></trkpt><trkpt lat="43.46716978053945" lon="10.607496012202468"><ele>574.6666666666666</ele><time>2026-04-18T16:37:57.002Z</time></trkpt><trkpt lat="43.46723494524427" lon="10.607421236318675"><ele>574.5</ele><time>2026-04-18T16:40:16.002Z</time></trkpt><trkpt lat="43.46730204903196" lon="10.607354116144164"><ele>574.3333333333334</ele><time>2026-04-18T16:40:20.002Z</time></trkpt><trkpt lat="43.46737425554084" lon="10.607300030161559"><ele>574.1666666666667</ele><time>2026-04-18T16:40:23.002Z</time></trkpt><trkpt lat="43.46742862943347" lon="10.607211571080203"><ele>574.0</ele><time>2026-04-18T16:40:27.003Z</time></trkpt><trkpt lat="43.46750681613499" lon="10.607156596639308"><ele>574.0</ele><time>2026-04-18T16:40:31.003Z</time></trkpt><trkpt lat="43.467572984636476" lon="10.607121867118234"><ele>574.0</ele><time>2026-04-18T16:40:34.001Z</time></trkpt><trkpt lat="43.467649193716944" lon="10.607074582486698"><ele>574.0</ele><time>2026-04-18T16:40:37.001Z</time></trkpt><trkpt lat="43.46772618910606" lon="10.607050881512414"><ele>574.0</ele><time>2026-04-18T16:40:39.001Z</time></trkpt><trkpt lat="43.46779698818904" lon="10.607008240979393"><ele>574.0</ele><time>2026-04-18T16:40:42.001Z</time></trkpt><trkpt lat="43.467872180121276" lon="10.606945957375375"><ele>574.0</ele><time>2026-04-18T16:40:45.001Z</time></trkpt><trkpt lat="43.4679399484217" lon="10.60688650973269"><ele>574.6666666666667</ele><time>2026-04-18T16:40:47.001Z</time></trkpt><trkpt lat="43.46800200726246" lon="10.60680014565953"><ele>575.3333333333334</ele><time>2026-04-18T16:40:50.001Z</time></trkpt><trkpt lat="43.46803554202429" lon="10.606701063485419"><ele>576.0</ele><time>2026-04-18T16:40:53.001Z</time></trkpt><trkpt lat="43.46804580063937" lon="10.606576268567439"><ele>576.6666666666666</ele><time>2026-04-18T16:40:56.001Z</time></trkpt><trkpt lat="43.46807080620351" lon="10.606463157981612"><ele>577.3333333333333</ele><time>2026-04-18T16:40:59.001Z</time></trkpt><trkpt lat="43.46809406341898" lon="10.60635389258097"><ele>578.0</ele><time>2026-04-18T16:41:02.001Z</time></trkpt><trkpt lat="43.46809612230844" lon="10.606232218865133"><ele>578.4285714285714</ele><time>2026-04-18T16:41:05.001Z</time></trkpt><trkpt lat="43.46808200021913" lon="10.606138591932178"><ele>578.8571428571429</ele><time>2026-04-18T16:41:07.001Z</time></trkpt><trkpt lat="43.46807835697865" lon="10.60602500128207"><ele>579.2857142857142</ele><time>2026-04-18T16:41:09.001Z</time></trkpt><trkpt lat="43.46807848654511" lon="10.605937344882372"><ele>579.7142857142858</ele><time>2026-04-18T16:41:11.001Z</time></trkpt><trkpt lat="43.468102211192125" lon="10.605842732726197"><ele>580.1428571428571</ele><time>2026-04-18T16:41:13.001Z</time></trkpt><trkpt lat="43.468119888540855" lon="10.605731370277494"><ele>580.5714285714286</ele><time>2026-04-18T16:41:15.001Z</time></trkpt><trkpt lat="43.46812634522375" lon="10.605638466660082"><ele>581.0</ele><time>2026-04-18T16:41:17.001Z</time></trkpt><trkpt lat="43.468137532554266" lon="10.605515900893407"><ele>581.0</ele><time>2026-04-18T16:41:19.001Z</time></trkpt><trkpt lat="43.468153903837475" lon="10.605407161850167"><ele>581.0</ele><time>2026-04-18T16:41:21.001Z</time></trkpt><trkpt lat="43.46814318312888" lon="10.60531957821983"><ele>581.0</ele><time>2026-04-18T16:41:22.001Z</time></trkpt><trkpt lat="43.46811963017221" lon="10.605191532406055"><ele>581.0</ele><time>2026-04-18T16:41:24.001Z</time></trkpt><trkpt lat="43.46808868619354" lon="10.605092109775324"><ele>581.0</ele><time>2026-04-18T16:41:26.001Z</time></trkpt><trkpt lat="43.46807075124029" lon="10.604896869156864"><ele>581.1666666666666</ele><time>2026-04-18T16:41:29.001Z</time></trkpt><trkpt lat="43.468067905587844" lon="10.604795754254232"><ele>581.3333333333333</ele><time>2026-04-18T16:41:31.001Z</time></trkpt><trkpt lat="43.46806575707684" lon="10.604681291641187"><ele>581.5</ele><time>2026-04-18T16:41:33.001Z</time></trkpt><trkpt lat="43.46809488914944" lon="10.604599944044717"><ele>581.6666666666666</ele><time>2026-04-18T16:41:35.001Z</time></trkpt><trkpt lat="43.46811829872309" lon="10.60448966727793"><ele>581.8333333333334</ele><time>2026-04-18T16:41:38.002Z</time></trkpt><trkpt lat="43.46814453035171" lon="10.60436502815361"><ele>582.0</ele><time>2026-04-18T16:41:41.002Z</time></trkpt><trkpt lat="43.46820005732866" lon="10.604297287359804"><ele>581.7142857142857</ele><time>2026-04-18T16:41:43.002Z</time></trkpt><trkpt lat="43.46825723026464" lon="10.604255152931605"><ele>581.4285714285713</ele><time>2026-04-18T16:41:45.002Z</time></trkpt><trkpt lat="43.46831082657444" lon="10.604200361014843"><ele>581.1428571428571</ele><time>2026-04-18T16:41:47.002Z</time></trkpt><trkpt lat="43.46836451792748" lon="10.60414896819758"><ele>580.8571428571429</ele><time>2026-04-18T16:41:49.002Z</time></trkpt><trkpt lat="43.46842874385361" lon="10.60410780685753"><ele>580.5714285714287</ele><time>2026-04-18T16:41:51.002Z</time></trkpt><trkpt lat="43.468466030314595" lon="10.604036105013668"><ele>580.2857142857143</ele><time>2026-04-18T16:41:53.002Z</time></trkpt><trkpt lat="43.46847982564642" lon="10.603897975819276"><ele>580.0</ele><time>2026-04-18T16:41:56.002Z</time></trkpt><trkpt lat="43.46847289240197" lon="10.603804858153405"><ele>580.0</ele><time>2026-04-18T16:41:58.002Z</time></trkpt><trkpt lat="43.46845857983222" lon="10.603719021862792"><ele>580.0</ele><time>2026-04-18T16:42:00.002Z</time></trkpt><trkpt lat="43.46844235181733" lon="10.60363259251099"><ele>580.0</ele><time>2026-04-18T16:42:02.002Z</time></trkpt><trkpt lat="43.46841802444481" lon="10.603516562699456"><ele>580.0</ele><time>2026-04-18T16:42:04.002Z</time></trkpt><trkpt lat="43.4683926677477" lon="10.603420692564438"><ele>580.0</ele><time>2026-04-18T16:42:06.002Z</time></trkpt><trkpt lat="43.46838670174222" lon="10.603332094221592"><ele>580.0</ele><time>2026-04-18T16:42:09.002Z</time></trkpt><trkpt lat="43.46836396340249" lon="10.60324989552006"><ele>580.0</ele><time>2026-04-18T16:42:10.002Z</time></trkpt><trkpt lat="43.468341756102994" lon="10.603158932464563"><ele>580.0</ele><time>2026-04-18T16:42:12.002Z</time></trkpt><trkpt lat="43.46832344118483" lon="10.60306034537633"><ele>580.0</ele><time>2026-04-18T16:42:14.002Z</time></trkpt><trkpt lat="43.46832004263998" lon="10.602957270513683"><ele>580.0</ele><time>2026-04-18T16:42:16.002Z</time></trkpt><trkpt lat="43.4683259191214" lon="10.602863722767436"><ele>580.0</ele><time>2026-04-18T16:42:19.002Z</time></trkpt><trkpt lat="43.46839464535567" lon="10.60282103619429"><ele>580.0</ele><time>2026-04-18T16:42:22.002Z</time></trkpt><trkpt lat="43.46846098435396" lon="10.602853079874535"><ele>580.0</ele><time>2026-04-18T16:42:24.002Z</time></trkpt><trkpt lat="43.46851524793005" lon="10.602900793006748"><ele>580.0</ele><time>2026-04-18T16:42:26.002Z</time></trkpt><trkpt lat="43.46863185557588" lon="10.602965658059356"><ele>580.0</ele><time>2026-04-18T16:42:28.002Z</time></trkpt><trkpt lat="43.468743233328155" lon="10.603017042612198"><ele>580.0</ele><time>2026-04-18T16:42:30.003Z</time></trkpt><trkpt lat="43.46884990847421" lon="10.603098039178288"><ele>580.0</ele><time>2026-04-18T16:42:32.003Z</time></trkpt><trkpt lat="43.468912317838104" lon="10.60312855345864"><ele>580.0</ele><time>2026-04-18T16:42:33.003Z</time></trkpt><trkpt lat="43.46901396738787" lon="10.603186555600288"><ele>580.0</ele><time>2026-04-18T16:42:35.003Z</time></trkpt><trkpt lat="43.46907186913129" lon="10.60324011315523"><ele>581.8</ele><time>2026-04-18T16:42:36.003Z</time></trkpt><trkpt lat="43.46917205120179" lon="10.603331014834035"><ele>583.6</ele><time>2026-04-18T16:42:38Z</time></trkpt><trkpt lat="43.469272557517726" lon="10.603411231594862"><ele>585.4</ele><time>2026-04-18T16:42:40Z</time></trkpt><trkpt lat="43.46937316675324" lon="10.603503012826474"><ele>587.2</ele><time>2026-04-18T16:42:42Z</time></trkpt><trkpt lat="43.46943608089926" lon="10.603533344411995"><ele>589.0</ele><time>2026-04-18T16:42:43Z</time></trkpt><trkpt lat="43.469553390070985" lon="10.603604445957583"><ele>588.0</ele><time>2026-04-18T16:42:45Z</time></trkpt><trkpt lat="43.46965067032623" lon="10.603685844381516"><ele>587.0</ele><time>2026-04-18T16:42:47Z</time></trkpt><trkpt lat="43.46970104113339" lon="10.603739603650656"><ele>586.0</ele><time>2026-04-18T16:42:48Z</time></trkpt><trkpt lat="43.46980365461172" lon="10.60384571862012"><ele>585.0</ele><time>2026-04-18T16:42:50Z</time></trkpt><trkpt lat="43.469884848799374" lon="10.603943483751285"><ele>584.0</ele><time>2026-04-18T16:42:52Z</time></trkpt><trkpt lat="43.46998111342847" lon="10.60402512105938"><ele>584.0</ele><time>2026-04-18T16:42:54Z</time></trkpt><trkpt lat="43.470042244530056" lon="10.604071731849766"><ele>584.0</ele><time>2026-04-18T16:42:55Z</time></trkpt><trkpt lat="43.470120499014556" lon="10.604094671292648"><ele>584.0</ele><time>2026-04-18T16:42:56Z</time></trkpt><trkpt lat="43.47018981274019" lon="10.604052665684213"><ele>584.0</ele><time>2026-04-18T16:42:57Z</time></trkpt><trkpt lat="43.47026688606799" lon="10.60411036760128"><ele>584.0</ele><time>2026-04-18T16:42:59Z</time></trkpt><trkpt lat="43.47033054667368" lon="10.604136503235093"><ele>584.0</ele><time>2026-04-18T16:43:00Z</time></trkpt><trkpt lat="43.47039865857253" lon="10.604133831965175"><ele>584.0</ele><time>2026-04-18T16:43:01Z</time></trkpt><trkpt lat="43.47049649557309" lon="10.604175982894281"><ele>583.2</ele><time>2026-04-18T16:43:03Z</time></trkpt><trkpt lat="43.470612113347904" lon="10.60418827644425"><ele>582.4</ele><time>2026-04-18T16:43:05Z</time></trkpt><trkpt lat="43.4707377121096" lon="10.60418425959649"><ele>581.6</ele><time>2026-04-18T16:43:07Z</time></trkpt><trkpt lat="43.47080355726712" lon="10.604175076072963"><ele>580.8</ele><time>2026-04-18T16:43:08Z</time></trkpt><trkpt lat="43.470871180949295" lon="10.604199327927912"><ele>580.0</ele><time>2026-04-18T16:43:09Z</time></trkpt><trkpt lat="43.47097807206889" lon="10.604151718793212"><ele>580.0</ele><time>2026-04-18T16:43:11Z</time></trkpt><trkpt lat="43.4710498361676" lon="10.604105058127576"><ele>580.0</ele><time>2026-04-18T16:43:13Z</time></trkpt><trkpt lat="43.47119436043166" lon="10.604162467264507"><ele>580.0</ele><time>2026-04-18T16:43:15Z</time></trkpt><trkpt lat="43.47131619772292" lon="10.604228049155651"><ele>580.0</ele><time>2026-04-18T16:43:17Z</time></trkpt><trkpt lat="43.47141873759759" lon="10.604255323064748"><ele>580.4</ele><time>2026-04-18T16:43:19.001Z</time></trkpt><trkpt lat="43.471583089084156" lon="10.604286531539767"><ele>580.8</ele><time>2026-04-18T16:43:21.001Z</time></trkpt><trkpt lat="43.4716483891049" lon="10.604266844681405"><ele>581.2</ele><time>2026-04-18T16:43:22.001Z</time></trkpt><trkpt lat="43.471715616832526" lon="10.604253017353093"><ele>581.6</ele><time>2026-04-18T16:43:23.001Z</time></trkpt><trkpt lat="43.471803807514256" lon="10.60419162807813"><ele>582.0</ele><time>2026-04-18T16:43:25.001Z</time></trkpt><trkpt lat="43.47186780301598" lon="10.604148585676912"><ele>582.0</ele><time>2026-04-18T16:43:26.001Z</time></trkpt><trkpt lat="43.47196794235863" lon="10.604089045331776"><ele>582.0</ele><time>2026-04-18T16:43:28.001Z</time></trkpt><trkpt lat="43.47210203969248" lon="10.604121919025108"><ele>582.0</ele><time>2026-04-18T16:43:30.001Z</time></trkpt><trkpt lat="43.47216175426787" lon="10.604165163941989"><ele>582.0</ele><time>2026-04-18T16:43:31.001Z</time></trkpt><trkpt lat="43.472229021722825" lon="10.60430405312786"><ele>582.0</ele><time>2026-04-18T16:43:33.001Z</time></trkpt><trkpt lat="43.472263793958625" lon="10.604384401775858"><ele>582.8000000000001</ele><time>2026-04-18T16:43:34.001Z</time></trkpt><trkpt lat="43.47232169159179" lon="10.604539656415525"><ele>583.6</ele><time>2026-04-18T16:43:36.001Z</time></trkpt><trkpt lat="43.47235366133871" lon="10.604637286424605"><ele>584.4000000000001</ele><time>2026-04-18T16:43:37.001Z</time></trkpt><trkpt lat="43.472381521517725" lon="10.604720635178946"><ele>585.2</ele><time>2026-04-18T16:43:38.001Z</time></trkpt><trkpt lat="43.47241641133124" lon="10.604794041274115"><ele>586.0</ele><time>2026-04-18T16:43:39.001Z</time></trkpt><trkpt lat="43.47247134467143" lon="10.604959975348205"><ele>586.0</ele><time>2026-04-18T16:43:41.001Z</time></trkpt><trkpt lat="43.47251573826592" lon="10.60512907979705"><ele>586.0</ele><time>2026-04-18T16:43:43.001Z</time></trkpt><trkpt lat="43.472530009026855" lon="10.60521857806372"><ele>586.0</ele><time>2026-04-18T16:43:44.001Z</time></trkpt><trkpt lat="43.472548109986946" lon="10.605316712997617"><ele>586.0</ele><time>2026-04-18T16:43:45.001Z</time></trkpt><trkpt lat="43.472572653515606" lon="10.605406223540497"><ele>586.0</ele><time>2026-04-18T16:43:46.001Z</time></trkpt><trkpt lat="43.47259542229853" lon="10.605489381768193"><ele>586.0</ele><time>2026-04-18T16:43:47.001Z</time></trkpt><trkpt lat="43.4726259875412" lon="10.605576202456499"><ele>586.3333333333334</ele><time>2026-04-18T16:43:48.001Z</time></trkpt><trkpt lat="43.47270151309828" lon="10.605692971373724"><ele>586.6666666666667</ele><time>2026-04-18T16:43:50.001Z</time></trkpt><trkpt lat="43.47276206718846" lon="10.605747840078948"><ele>587.0</ele><time>2026-04-18T16:43:51.001Z</time></trkpt><trkpt lat="43.472842642274756" lon="10.605813069605619"><ele>587.3333333333334</ele><time>2026-04-18T16:43:52.001Z</time></trkpt><trkpt lat="43.47289232937928" lon="10.605872757211424"><ele>587.6666666666666</ele><time>2026-04-18T16:43:53.001Z</time></trkpt><trkpt lat="43.47295824355255" lon="10.60593230189405"><ele>588.0</ele><time>2026-04-18T16:43:54.001Z</time></trkpt><trkpt lat="43.47302521836515" lon="10.605994933451257"><ele>588.0</ele><time>2026-04-18T16:43:55.001Z</time></trkpt><trkpt lat="43.4730879134" lon="10.606059642398229"><ele>588.0</ele><time>2026-04-18T16:43:56.001Z</time></trkpt><trkpt lat="43.47314768705392" lon="10.606116285482868"><ele>588.0</ele><time>2026-04-18T16:43:57.001Z</time></trkpt><trkpt lat="43.473204090538125" lon="10.606171973016464"><ele>588.0</ele><time>2026-04-18T16:43:58.001Z</time></trkpt><trkpt lat="43.473256506820576" lon="10.60622726383556"><ele>588.0</ele><time>2026-04-18T16:43:59.001Z</time></trkpt><trkpt lat="43.4733362497567" lon="10.606310211063413"><ele>588.0</ele><time>2026-04-18T16:44:01.001Z</time></trkpt><trkpt lat="43.4734677921175" lon="10.606335678407271"><ele>586.8</ele><time>2026-04-18T16:44:04.001Z</time></trkpt><trkpt lat="43.473575049264745" lon="10.606310799982998"><ele>585.5999999999999</ele><time>2026-04-18T16:44:06.001Z</time></trkpt><trkpt lat="43.47366090722607" lon="10.606280981865927"><ele>584.4000000000001</ele><time>2026-04-18T16:44:08.002Z</time></trkpt><trkpt lat="43.47374494400089" lon="10.606230883626818"><ele>583.2</ele><time>2026-04-18T16:44:10.002Z</time></trkpt><trkpt lat="43.473824808535504" lon="10.606211858602567"><ele>582.0</ele><time>2026-04-18T16:44:13.002Z</time></trkpt><trkpt lat="43.47390499446885" lon="10.606217241358362"><ele>581.2</ele><time>2026-04-18T16:44:14.002Z</time></trkpt><trkpt lat="43.47401540779071" lon="10.606253896036678"><ele>580.4000000000001</ele><time>2026-04-18T16:44:15.002Z</time></trkpt><trkpt lat="43.474150172774664" lon="10.60626949093586"><ele>579.5999999999999</ele><time>2026-04-18T16:44:17.002Z</time></trkpt><trkpt lat="43.47426518294934" lon="10.606265111133451"><ele>578.8</ele><time>2026-04-18T16:44:19.002Z</time></trkpt><trkpt lat="43.47432661024096" lon="10.606245375813252"><ele>578.0</ele><time>2026-04-18T16:44:20.002Z</time></trkpt><trkpt lat="43.47438957735668" lon="10.606207510156551"><ele>578.0</ele><time>2026-04-18T16:44:21.002Z</time></trkpt><trkpt lat="43.474463948362214" lon="10.606185070363152"><ele>578.0</ele><time>2026-04-18T16:44:22.002Z</time></trkpt><trkpt lat="43.474536476335885" lon="10.606165080326795"><ele>578.0</ele><time>2026-04-18T16:44:23.002Z</time></trkpt><trkpt lat="43.474606414626045" lon="10.60616501073996"><ele>578.0</ele><time>2026-04-18T16:44:24.002Z</time></trkpt><trkpt lat="43.47467784127605" lon="10.606170663197414"><ele>578.0</ele><time>2026-04-18T16:44:25.002Z</time></trkpt><trkpt lat="43.4747614049312" lon="10.606176970305773"><ele>578.0</ele><time>2026-04-18T16:44:27.002Z</time></trkpt><trkpt lat="43.474833609387005" lon="10.606115003993514"><ele>577.3333333333333</ele><time>2026-04-18T16:44:31.002Z</time></trkpt><trkpt lat="43.47489569040183" lon="10.606048380019315"><ele>576.6666666666666</ele><time>2026-04-18T16:44:34.002Z</time></trkpt><trkpt lat="43.47494223767657" lon="10.605973789723482"><ele>576.0</ele><time>2026-04-18T16:44:38.002Z</time></trkpt><trkpt lat="43.47497909357681" lon="10.605880162059142"><ele>575.3333333333334</ele><time>2026-04-18T16:44:42.002Z</time></trkpt><trkpt lat="43.47499074880581" lon="10.605768689628167"><ele>574.6666666666667</ele><time>2026-04-18T16:44:45Z</time></trkpt><trkpt lat="43.47498281826973" lon="10.60566484030722"><ele>574.0</ele><time>2026-04-18T16:44:48Z</time></trkpt><trkpt lat="43.47496702945862" lon="10.605555234983584"><ele>574.0</ele><time>2026-04-18T16:44:50Z</time></trkpt><trkpt lat="43.474946433367705" lon="10.605442481780397"><ele>574.0</ele><time>2026-04-18T16:44:52Z</time></trkpt><trkpt lat="43.474925255651314" lon="10.605340557349555"><ele>574.0</ele><time>2026-04-18T16:44:54Z</time></trkpt><trkpt lat="43.47492402577904" lon="10.60523663734445"><ele>574.0</ele><time>2026-04-18T16:44:56Z</time></trkpt><trkpt lat="43.47489920132329" lon="10.605126453573352"><ele>574.0</ele><time>2026-04-18T16:44:58Z</time></trkpt><trkpt lat="43.474881914381086" lon="10.604995632364055"><ele>574.0</ele><time>2026-04-18T16:45:01Z</time></trkpt><trkpt lat="43.474867715791014" lon="10.60490102531582"><ele>574.5</ele><time>2026-04-18T16:45:03Z</time></trkpt><trkpt lat="43.47482292648397" lon="10.604770863045358"><ele>575.0</ele><time>2026-04-18T16:45:06Z</time></trkpt><trkpt lat="43.47480742425106" lon="10.604662273410106"><ele>575.5</ele><time>2026-04-18T16:45:09Z</time></trkpt><trkpt lat="43.474819879622764" lon="10.604553838346355"><ele>576.0</ele><time>2026-04-18T16:45:11Z</time></trkpt><trkpt lat="43.474860790566886" lon="10.60446565946835"><ele>576.5</ele><time>2026-04-18T16:45:13Z</time></trkpt><trkpt lat="43.47483514464819" lon="10.604329178621168"><ele>577.0</ele><time>2026-04-18T16:45:15Z</time></trkpt><trkpt lat="43.47482263909836" lon="10.604202876279073"><ele>577.1428571428571</ele><time>2026-04-18T16:45:17Z</time></trkpt><trkpt lat="43.474819313273436" lon="10.604095250875597"><ele>577.2857142857143</ele><time>2026-04-18T16:45:19Z</time></trkpt><trkpt lat="43.47483427799713" lon="10.603999583288685"><ele>577.4285714285714</ele><time>2026-04-18T16:45:21Z</time></trkpt><trkpt lat="43.474862877747164" lon="10.603911744093462"><ele>577.5714285714286</ele><time>2026-04-18T16:45:23Z</time></trkpt><trkpt lat="43.4748801382601" lon="10.603809318279229"><ele>577.7142857142857</ele><time>2026-04-18T16:45:25Z</time></trkpt><trkpt lat="43.47489017345684" lon="10.603708399522326"><ele>577.8571428571429</ele><time>2026-04-18T16:45:27Z</time></trkpt><trkpt lat="43.47489730011602" lon="10.603616428803525"><ele>578.0</ele><time>2026-04-18T16:45:29Z</time></trkpt><trkpt lat="43.47491637212919" lon="10.603501948822561"><ele>578.0</ele><time>2026-04-18T16:45:32Z</time></trkpt><trkpt lat="43.47497974294404" lon="10.603434945291669"><ele>578.0</ele><time>2026-04-18T16:45:35.001Z</time></trkpt><trkpt lat="43.475053088995246" lon="10.60341740697164"><ele>578.0</ele><time>2026-04-18T16:45:37.001Z</time></trkpt><trkpt lat="43.47514439497552" lon="10.603399977649378"><ele>578.0</ele><time>2026-04-18T16:45:39.001Z</time></trkpt><trkpt lat="43.475216403108895" lon="10.603394263111273"><ele>578.0</ele><time>2026-04-18T16:45:41.001Z</time></trkpt><trkpt lat="43.47528866692986" lon="10.603414042592798"><ele>578.0</ele><time>2026-04-18T16:45:44.001Z</time></trkpt><trkpt lat="43.4753667332027" lon="10.603388570311813"><ele>578.0</ele><time>2026-04-18T16:45:47.001Z</time></trkpt><trkpt lat="43.475300160162504" lon="10.60340641938734"><ele>578.0</ele><time>2026-04-18T16:46:07.001Z</time></trkpt><trkpt lat="43.47534227176518" lon="10.603478877202893"><ele>578.0</ele><time>2026-04-18T16:46:15.001Z</time></trkpt><trkpt lat="43.47537816740413" lon="10.60355635252542"><ele>578.0</ele><time>2026-04-18T16:46:17.001Z</time></trkpt><trkpt lat="43.47544317381234" lon="10.60364017316512"><ele>578.0</ele><time>2026-04-18T16:46:20.002Z</time></trkpt><trkpt lat="43.47551006124355" lon="10.603719777433355"><ele>578.0</ele><time>2026-04-18T16:46:23.002Z</time></trkpt><trkpt lat="43.475569593950404" lon="10.603784857011096"><ele>578.8571428571429</ele><time>2026-04-18T16:46:26.002Z</time></trkpt><trkpt lat="43.475565618927035" lon="10.603874710355703"><ele>579.7142857142857</ele><time>2026-04-18T16:46:29.002Z</time></trkpt><trkpt lat="43.475503239669166" lon="10.603897808009457"><ele>580.5714285714286</ele><time>2026-04-18T16:46:39.002Z</time></trkpt><trkpt lat="43.47557604685916" lon="10.60391973332242"><ele>581.4285714285714</ele><time>2026-04-18T16:47:07Z</time></trkpt><trkpt lat="43.4755224274117" lon="10.603832619875346"><ele>582.2857142857143</ele><time>2026-04-18T16:47:57.001Z</time></trkpt><trkpt lat="43.47554444611518" lon="10.603914384979664"><ele>583.1428571428571</ele><time>2026-04-18T16:48:08.001Z</time></trkpt><trkpt lat="43.47556999203392" lon="10.603831403230876"><ele>584.0</ele><time>2026-04-18T16:48:25.002Z</time></trkpt><trkpt lat="43.475522361055134" lon="10.603771231050972"><ele>584.0</ele><time>2026-04-18T16:48:30.002Z</time></trkpt><trkpt lat="43.47545628261521" lon="10.603829791035565"><ele>584.0</ele><time>2026-04-18T16:48:38.002Z</time></trkpt><trkpt lat="43.47544053197096" lon="10.60371299506348"><ele>584.0</ele><time>2026-04-18T16:49:14Z</time></trkpt><trkpt lat="43.47545270806982" lon="10.603626334832885"><ele>584.0</ele><time>2026-04-18T16:50:44.002Z</time></trkpt><trkpt lat="43.47538596058888" lon="10.603645918242227"><ele>584.0</ele><time>2026-04-18T16:51:27.001Z</time></trkpt><trkpt lat="43.47542940696931" lon="10.60378700584028"><ele>584.0</ele><time>2026-04-18T16:53:21.001Z</time></trkpt><trkpt lat="43.4754201088881" lon="10.603675878388161"><ele>584.0</ele><time>2026-04-18T16:56:10.001Z</time></trkpt><trkpt lat="43.47545938183825" lon="10.603761516241855"><ele>584.0</ele><time>2026-04-18T17:02:41Z</time></trkpt><trkpt lat="43.47545831363845" lon="10.603857509284678"><ele>584.0</ele><time>2026-04-18T17:02:45Z</time></trkpt><trkpt lat="43.47550094342859" lon="10.603771924036014"><ele>584.0</ele><time>2026-04-18T17:03:16Z</time></trkpt><trkpt lat="43.475518168331554" lon="10.6038687369049"><ele>584.0</ele><time>2026-04-18T17:03:20Z</time></trkpt><trkpt lat="43.47539996065691" lon="10.603837806053818"><ele>584.0</ele><time>2026-04-18T17:04:19Z</time></trkpt><trkpt lat="43.4753388714331" lon="10.603764796353481"><ele>584.0</ele><time>2026-04-18T17:06:01.999Z</time></trkpt><trkpt lat="43.47531586452533" lon="10.603681441957908"><ele>584.0</ele><time>2026-04-18T17:06:05Z</time></trkpt><trkpt lat="43.47525467914338" lon="10.603724884602004"><ele>584.0</ele><time>2026-04-18T17:06:09Z</time></trkpt><trkpt lat="43.47530398545426" lon="10.60378321152469"><ele>584.0</ele><time>2026-04-18T17:06:12Z</time></trkpt><trkpt lat="43.475380485465635" lon="10.603810344153288"><ele>584.0</ele><time>2026-04-18T17:06:15Z</time></trkpt><trkpt lat="43.47545479802951" lon="10.603805012795585"><ele>584.0</ele><time>2026-04-18T17:06:18Z</time></trkpt><trkpt lat="43.475470975661274" lon="10.603692160716236"><ele>584.0</ele><time>2026-04-18T17:06:22Z</time></trkpt><trkpt lat="43.47540850467824" lon="10.603607395881081"><ele>583.0</ele><time>2026-04-18T17:06:25Z</time></trkpt><trkpt lat="43.47536081275219" lon="10.603550273094339"><ele>582.0</ele><time>2026-04-18T17:06:27Z</time></trkpt><trkpt lat="43.475304807686754" lon="10.603465053839805"><ele>581.0</ele><time>2026-04-18T17:06:30Z</time></trkpt><trkpt lat="43.47534942770351" lon="10.603367163695555"><ele>580.0</ele><time>2026-04-18T17:06:33Z</time></trkpt><trkpt lat="43.475432118448715" lon="10.603356208091602"><ele>579.0</ele><time>2026-04-18T17:06:35Z</time></trkpt><trkpt lat="43.4755159903817" lon="10.603344202695812"><ele>578.0</ele><time>2026-04-18T17:06:37Z</time></trkpt><trkpt lat="43.47562247579819" lon="10.603331230294012"><ele>577.4</ele><time>2026-04-18T17:06:39Z</time></trkpt><trkpt lat="43.47573962963845" lon="10.603336963598291"><ele>576.8</ele><time>2026-04-18T17:06:41Z</time></trkpt><trkpt lat="43.47586426586126" lon="10.603358774178728"><ele>576.2</ele><time>2026-04-18T17:06:43Z</time></trkpt><trkpt lat="43.47592958629564" lon="10.603382932283901"><ele>575.6</ele><time>2026-04-18T17:06:44Z</time></trkpt><trkpt lat="43.475998528548615" lon="10.603409875481999"><ele>575.0</ele><time>2026-04-18T17:06:45Z</time></trkpt><trkpt lat="43.476062023623875" lon="10.6034477093961"><ele>575.0</ele><time>2026-04-18T17:06:46Z</time></trkpt><trkpt lat="43.47613282323128" lon="10.603490153180598"><ele>575.0</ele><time>2026-04-18T17:06:47Z</time></trkpt><trkpt lat="43.47622714401469" lon="10.60359936140645"><ele>575.0</ele><time>2026-04-18T17:06:49Z</time></trkpt><trkpt lat="43.476263228623" lon="10.60368400772164"><ele>575.0</ele><time>2026-04-18T17:06:50Z</time></trkpt><trkpt lat="43.476307991856956" lon="10.603763776739772"><ele>575.0</ele><time>2026-04-18T17:06:51Z</time></trkpt><trkpt lat="43.47638021203877" lon="10.603806945120962"><ele>575.0</ele><time>2026-04-18T17:06:52Z</time></trkpt><trkpt lat="43.47644611258196" lon="10.603845498311049"><ele>573.8333333333333</ele><time>2026-04-18T17:06:53Z</time></trkpt><trkpt lat="43.47652039071671" lon="10.603871715186715"><ele>572.6666666666666</ele><time>2026-04-18T17:06:54Z</time></trkpt><trkpt lat="43.47659078473722" lon="10.603882077433632"><ele>571.5</ele><time>2026-04-18T17:06:55Z</time></trkpt><trkpt lat="43.47666086633403" lon="10.603884444152078"><ele>570.3333333333334</ele><time>2026-04-18T17:06:56Z</time></trkpt><trkpt lat="43.4767397129735" lon="10.603871931219382"><ele>569.1666666666667</ele><time>2026-04-18T17:06:57Z</time></trkpt><trkpt lat="43.476813800443914" lon="10.603848607051551"><ele>568.0</ele><time>2026-04-18T17:06:58Z</time></trkpt><trkpt lat="43.47688835542187" lon="10.6038109198893"><ele>568.0</ele><time>2026-04-18T17:06:59Z</time></trkpt><trkpt lat="43.47696004055961" lon="10.603755857489286"><ele>568.0</ele><time>2026-04-18T17:07:00Z</time></trkpt><trkpt lat="43.47703995649293" lon="10.603706744019139"><ele>568.0</ele><time>2026-04-18T17:07:01Z</time></trkpt><trkpt lat="43.47712044845088" lon="10.603662889321832"><ele>568.0</ele><time>2026-04-18T17:07:02Z</time></trkpt><trkpt lat="43.47720615227003" lon="10.603646728772913"><ele>568.0</ele><time>2026-04-18T17:07:03Z</time></trkpt><trkpt lat="43.477291594843365" lon="10.603620915166596"><ele>568.0</ele><time>2026-04-18T17:07:04Z</time></trkpt><trkpt lat="43.4773778197102" lon="10.6036040151645"><ele>566.5</ele><time>2026-04-18T17:07:05Z</time></trkpt><trkpt lat="43.47745643929812" lon="10.603576062566601"><ele>565.0</ele><time>2026-04-18T17:07:06Z</time></trkpt><trkpt lat="43.47753126055902" lon="10.603542422503693"><ele>563.5</ele><time>2026-04-18T17:07:07Z</time></trkpt><trkpt lat="43.47759927929358" lon="10.603492303368125"><ele>562.0</ele><time>2026-04-18T17:07:08Z</time></trkpt><trkpt lat="43.477656165166124" lon="10.603441825355132"><ele>560.5</ele><time>2026-04-18T17:07:09Z</time></trkpt><trkpt lat="43.4777163945328" lon="10.603359452129565"><ele>559.0</ele><time>2026-04-18T17:07:10Z</time></trkpt><trkpt lat="43.47777343548628" lon="10.603278571027577"><ele>559.0</ele><time>2026-04-18T17:07:11Z</time></trkpt><trkpt lat="43.477835187977284" lon="10.60319009418399"><ele>559.0</ele><time>2026-04-18T17:07:12Z</time></trkpt><trkpt lat="43.477895705955326" lon="10.603093735583126"><ele>559.0</ele><time>2026-04-18T17:07:13Z</time></trkpt><trkpt lat="43.47796134304168" lon="10.603002128089525"><ele>559.0</ele><time>2026-04-18T17:07:14Z</time></trkpt><trkpt lat="43.478031686899804" lon="10.602915794027291"><ele>559.0</ele><time>2026-04-18T17:07:15Z</time></trkpt><trkpt lat="43.478094669736954" lon="10.602837696462093"><ele>557.0</ele><time>2026-04-18T17:07:16Z</time></trkpt><trkpt lat="43.47815365951334" lon="10.60275617528379"><ele>555.0</ele><time>2026-04-18T17:07:17Z</time></trkpt><trkpt lat="43.478196405375435" lon="10.602656637308817"><ele>553.0</ele><time>2026-04-18T17:07:18Z</time></trkpt><trkpt lat="43.47822153915462" lon="10.602544758248111"><ele>551.0</ele><time>2026-04-18T17:07:19Z</time></trkpt><trkpt lat="43.47824715268614" lon="10.602414527163809"><ele>549.0</ele><time>2026-04-18T17:07:20Z</time></trkpt><trkpt lat="43.47827628453411" lon="10.60230869224858"><ele>547.0</ele><time>2026-04-18T17:07:21Z</time></trkpt><trkpt lat="43.47832316906887" lon="10.60220938731705"><ele>547.0</ele><time>2026-04-18T17:07:22Z</time></trkpt><trkpt lat="43.478376722353616" lon="10.602113777781632"><ele>547.0</ele><time>2026-04-18T17:07:23Z</time></trkpt><trkpt lat="43.47844058161684" lon="10.60203241643916"><ele>547.0</ele><time>2026-04-18T17:07:24Z</time></trkpt><trkpt lat="43.47850670937558" lon="10.601962080263693"><ele>547.0</ele><time>2026-04-18T17:07:25Z</time></trkpt><trkpt lat="43.47856373430542" lon="10.60189787979249"><ele>547.0</ele><time>2026-04-18T17:07:26Z</time></trkpt><trkpt lat="43.4786157354325" lon="10.601829441460126"><ele>547.0</ele><time>2026-04-18T17:07:27Z</time></trkpt><trkpt lat="43.47867110562383" lon="10.601767660874993"><ele>546.6666666666667</ele><time>2026-04-18T17:07:28Z</time></trkpt><trkpt lat="43.47873506115111" lon="10.601738137153257"><ele>546.3333333333334</ele><time>2026-04-18T17:07:29Z</time></trkpt><trkpt lat="43.478814867373195" lon="10.6016922899722"><ele>546.0</ele><time>2026-04-18T17:07:30Z</time></trkpt><trkpt lat="43.478895608882425" lon="10.60168530199181"><ele>545.6666666666666</ele><time>2026-04-18T17:07:31Z</time></trkpt><trkpt lat="43.478976026417406" lon="10.601709279530187"><ele>545.3333333333333</ele><time>2026-04-18T17:07:32Z</time></trkpt><trkpt lat="43.479057728983925" lon="10.601759399162727"><ele>545.0</ele><time>2026-04-18T17:07:33Z</time></trkpt><trkpt lat="43.47914013931981" lon="10.601784173333511"><ele>544.6666666666666</ele><time>2026-04-18T17:07:34Z</time></trkpt><trkpt lat="43.47921305035155" lon="10.601772957870322"><ele>544.3333333333333</ele><time>2026-04-18T17:07:35Z</time></trkpt><trkpt lat="43.47928030764715" lon="10.601710001613139"><ele>544.0</ele><time>2026-04-18T17:07:36Z</time></trkpt><trkpt lat="43.479343890604056" lon="10.601637694816153"><ele>543.6666666666666</ele><time>2026-04-18T17:07:37Z</time></trkpt><trkpt lat="43.47940489427622" lon="10.601548393230441"><ele>543.3333333333334</ele><time>2026-04-18T17:07:38Z</time></trkpt><trkpt lat="43.47946814450935" lon="10.60144595767397"><ele>543.0</ele><time>2026-04-18T17:07:39Z</time></trkpt><trkpt lat="43.47952972753657" lon="10.601347464821561"><ele>541.1999999999999</ele><time>2026-04-18T17:07:40Z</time></trkpt><trkpt lat="43.4796043450171" lon="10.601252425721231"><ele>539.4</ele><time>2026-04-18T17:07:41Z</time></trkpt><trkpt lat="43.479684759167334" lon="10.601184294081566"><ele>537.5999999999999</ele><time>2026-04-18T17:07:42Z</time></trkpt><trkpt lat="43.479770443742495" lon="10.601120609777125"><ele>535.8</ele><time>2026-04-18T17:07:43Z</time></trkpt><trkpt lat="43.47985141399609" lon="10.601071148803255"><ele>534.0</ele><time>2026-04-18T17:07:44Z</time></trkpt><trkpt lat="43.47990856230563" lon="10.601000722061409"><ele>534.0</ele><time>2026-04-18T17:07:45Z</time></trkpt><trkpt lat="43.47994782875898" lon="10.60091932917886"><ele>534.0</ele><time>2026-04-18T17:07:46Z</time></trkpt><trkpt lat="43.479965639504115" lon="10.600829460770779"><ele>534.0</ele><time>2026-04-18T17:07:47Z</time></trkpt><trkpt lat="43.47997789871015" lon="10.600725705061365"><ele>534.0</ele><time>2026-04-18T17:07:48Z</time></trkpt><trkpt lat="43.47997552009464" lon="10.600600966968019"><ele>534.0</ele><time>2026-04-18T17:07:49Z</time></trkpt><trkpt lat="43.479973081253036" lon="10.600463438606605"><ele>534.0</ele><time>2026-04-18T17:07:49.998Z</time></trkpt><trkpt lat="43.479977453743054" lon="10.600332097656553"><ele>533.2</ele><time>2026-04-18T17:07:50.998Z</time></trkpt><trkpt lat="43.479999926510956" lon="10.60020609430533"><ele>532.4</ele><time>2026-04-18T17:07:51.998Z</time></trkpt><trkpt lat="43.48003980358412" lon="10.600089262199289"><ele>531.6</ele><time>2026-04-18T17:07:52.998Z</time></trkpt><trkpt lat="43.48009615850385" lon="10.599992004221953"><ele>530.8</ele><time>2026-04-18T17:07:53.998Z</time></trkpt><trkpt lat="43.48017025344039" lon="10.599898355329785"><ele>530.0</ele><time>2026-04-18T17:07:54.998Z</time></trkpt><trkpt lat="43.48024492513396" lon="10.59981301506193"><ele>530.0</ele><time>2026-04-18T17:07:55.998Z</time></trkpt><trkpt lat="43.48032132687488" lon="10.599745639109322"><ele>530.0</ele><time>2026-04-18T17:07:56.998Z</time></trkpt><trkpt lat="43.48040587809" lon="10.599708195532786"><ele>530.0</ele><time>2026-04-18T17:07:57.998Z</time></trkpt><trkpt lat="43.480476439445724" lon="10.599665411164896"><ele>530.0</ele><time>2026-04-18T17:07:58.998Z</time></trkpt><trkpt lat="43.48056924248575" lon="10.599634984574585"><ele>530.0</ele><time>2026-04-18T17:07:59.998Z</time></trkpt><trkpt lat="43.480669285691825" lon="10.599598395863634"><ele>529.3333333333333</ele><time>2026-04-18T17:08:00.998Z</time></trkpt><trkpt lat="43.48076353220757" lon="10.59956612209774"><ele>528.6666666666666</ele><time>2026-04-18T17:08:01.998Z</time></trkpt><trkpt lat="43.480858997019226" lon="10.599535325327839"><ele>528.0</ele><time>2026-04-18T17:08:02.998Z</time></trkpt><trkpt lat="43.48094971875657" lon="10.599512112452663"><ele>527.3333333333334</ele><time>2026-04-18T17:08:03.998Z</time></trkpt><trkpt lat="43.481034526418135" lon="10.599486354432656"><ele>526.6666666666667</ele><time>2026-04-18T17:08:04.998Z</time></trkpt><trkpt lat="43.481100329512145" lon="10.59947619997165"><ele>526.0</ele><time>2026-04-18T17:08:05.998Z</time></trkpt><trkpt lat="43.481208989546055" lon="10.599435187565689"><ele>523.2</ele><time>2026-04-18T17:08:06.998Z</time></trkpt><trkpt lat="43.48130061645208" lon="10.59940221425651"><ele>520.4000000000001</ele><time>2026-04-18T17:08:07.998Z</time></trkpt><trkpt lat="43.481385561311235" lon="10.599369309370708"><ele>517.6</ele><time>2026-04-18T17:08:08.998Z</time></trkpt><trkpt lat="43.481487001406514" lon="10.599338073756833"><ele>514.8000000000001</ele><time>2026-04-18T17:08:09.999Z</time></trkpt><trkpt lat="43.48157778075858" lon="10.599343348222577"><ele>512.0</ele><time>2026-04-18T17:08:10.999Z</time></trkpt><trkpt lat="43.4816780041281" lon="10.599351573681405"><ele>512.0</ele><time>2026-04-18T17:08:11.999Z</time></trkpt><trkpt lat="43.48179428552277" lon="10.59937900757071"><ele>512.0</ele><time>2026-04-18T17:08:12.999Z</time></trkpt><trkpt lat="43.4818983053287" lon="10.599355289835401"><ele>512.0</ele><time>2026-04-18T17:08:13.999Z</time></trkpt><trkpt lat="43.48199179408331" lon="10.599358438319507"><ele>512.0</ele><time>2026-04-18T17:08:14.999Z</time></trkpt><trkpt lat="43.48208774094223" lon="10.599337988547349"><ele>512.0</ele><time>2026-04-18T17:08:15.999Z</time></trkpt><trkpt lat="43.482182864728756" lon="10.599336625954912"><ele>508.8</ele><time>2026-04-18T17:08:16.999Z</time></trkpt><trkpt lat="43.48227865821135" lon="10.599350892123127"><ele>505.6</ele><time>2026-04-18T17:08:17.999Z</time></trkpt><trkpt lat="43.48237466919881" lon="10.599372916824391"><ele>502.40000000000003</ele><time>2026-04-18T17:08:18.999Z</time></trkpt><trkpt lat="43.48247384004551" lon="10.599414187654824"><ele>499.20000000000005</ele><time>2026-04-18T17:08:19.999Z</time></trkpt><trkpt lat="43.48257802499348" lon="10.599482766826869"><ele>496.0</ele><time>2026-04-18T17:08:20.999Z</time></trkpt><trkpt lat="43.48268230159604" lon="10.599553837717515"><ele>496.25</ele><time>2026-04-18T17:08:21.999Z</time></trkpt><trkpt lat="43.482788114842734" lon="10.599625163265934"><ele>496.5</ele><time>2026-04-18T17:08:22.999Z</time></trkpt><trkpt lat="43.48289688983497" lon="10.59968922946525"><ele>496.75</ele><time>2026-04-18T17:08:23.999Z</time></trkpt><trkpt lat="43.48299916022991" lon="10.599757305345678"><ele>497.0</ele><time>2026-04-18T17:08:24.999Z</time></trkpt><trkpt lat="43.48310390908898" lon="10.599821570500461"><ele>497.0</ele><time>2026-04-18T17:08:25.999Z</time></trkpt><trkpt lat="43.48320576992453" lon="10.599879660013189"><ele>497.00000000000006</ele><time>2026-04-18T17:08:26.999Z</time></trkpt><trkpt lat="43.48331377861588" lon="10.59994116571617"><ele>497.00000000000006</ele><time>2026-04-18T17:08:27.999Z</time></trkpt><trkpt lat="43.4834160546909" lon="10.599986487672702"><ele>497.0</ele><time>2026-04-18T17:08:28.999Z</time></trkpt><trkpt lat="43.483514289140786" lon="10.600035335749284"><ele>497.0</ele><time>2026-04-18T17:08:29.999Z</time></trkpt><trkpt lat="43.48361615255617" lon="10.600074968614642"><ele>497.0</ele><time>2026-04-18T17:08:30.999Z</time></trkpt><trkpt lat="43.483724608584595" lon="10.60010596887935"><ele>497.00000000000006</ele><time>2026-04-18T17:08:31.999Z</time></trkpt><trkpt lat="43.48383203920539" lon="10.600117729503518"><ele>497.00000000000006</ele><time>2026-04-18T17:08:32.999Z</time></trkpt><trkpt lat="43.483941697860374" lon="10.600125839406962"><ele>497.0</ele><time>2026-04-18T17:08:33.999Z</time></trkpt><trkpt lat="43.48405304157186" lon="10.600119632705045"><ele>497.0</ele><time>2026-04-18T17:08:34.999Z</time></trkpt><trkpt lat="43.48415447441129" lon="10.60010018927796"><ele>498.5</ele><time>2026-04-18T17:08:35.999Z</time></trkpt><trkpt lat="43.48427023294559" lon="10.60008591027805"><ele>500.0</ele><time>2026-04-18T17:08:36.999Z</time></trkpt><trkpt lat="43.48438636377648" lon="10.60006716780324"><ele>501.5</ele><time>2026-04-18T17:08:37.999Z</time></trkpt><trkpt lat="43.48449827143491" lon="10.600052666728496"><ele>503.0</ele><time>2026-04-18T17:08:38.999Z</time></trkpt><trkpt lat="43.484614949445486" lon="10.600045390379675"><ele>503.5</ele><time>2026-04-18T17:08:39.999Z</time></trkpt><trkpt lat="43.48473657970249" lon="10.600034909911708"><ele>504.0</ele><time>2026-04-18T17:08:40.999Z</time></trkpt><trkpt lat="43.48485463788085" lon="10.600023052640228"><ele>504.5</ele><time>2026-04-18T17:08:41.999Z</time></trkpt><trkpt lat="43.48497346783435" lon="10.600007201490659"><ele>505.0</ele><time>2026-04-18T17:08:42.999Z</time></trkpt><trkpt lat="43.485086270810264" lon="10.599991805839403"><ele>505.00000000000006</ele><time>2026-04-18T17:08:43.999Z</time></trkpt><trkpt lat="43.485184290615045" lon="10.599967389849642"><ele>505.0</ele><time>2026-04-18T17:08:44.999Z</time></trkpt><trkpt lat="43.48525970803773" lon="10.599930275438124"><ele>505.0</ele><time>2026-04-18T17:08:45.999Z</time></trkpt><trkpt lat="43.485325059234356" lon="10.599896321944572"><ele>505.0</ele><time>2026-04-18T17:08:46.999Z</time></trkpt><trkpt lat="43.48539528819116" lon="10.599852551238465"><ele>505.00000000000006</ele><time>2026-04-18T17:08:49Z</time></trkpt><trkpt lat="43.48547711281434" lon="10.599807496420578"><ele>505.0</ele><time>2026-04-18T17:08:52Z</time></trkpt><trkpt lat="43.48554656889523" lon="10.599760927093634"><ele>505.33333333333337</ele><time>2026-04-18T17:08:54Z</time></trkpt><trkpt lat="43.485656911663355" lon="10.599696419721905"><ele>505.6666666666667</ele><time>2026-04-18T17:08:56Z</time></trkpt><trkpt lat="43.4857199104353" lon="10.599665397412949"><ele>506.0</ele><time>2026-04-18T17:08:57Z</time></trkpt><trkpt lat="43.48579738051826" lon="10.599636468359588"><ele>506.33333333333337</ele><time>2026-04-18T17:08:58Z</time></trkpt><trkpt lat="43.485881507257425" lon="10.599627845077043"><ele>506.6666666666667</ele><time>2026-04-18T17:08:59Z</time></trkpt><trkpt lat="43.485973500145924" lon="10.599628314800976"><ele>507.0</ele><time>2026-04-18T17:09:00Z</time></trkpt><trkpt lat="43.48607655319434" lon="10.599628714374468"><ele>507.0</ele><time>2026-04-18T17:09:01Z</time></trkpt><trkpt lat="43.486185709375285" lon="10.599645471797967"><ele>507.00000000000006</ele><time>2026-04-18T17:09:02Z</time></trkpt><trkpt lat="43.4862933344088" lon="10.599672556652234"><ele>507.00000000000006</ele><time>2026-04-18T17:09:03Z</time></trkpt><trkpt lat="43.48639735023391" lon="10.59969896848507"><ele>507.0</ele><time>2026-04-18T17:09:04Z</time></trkpt><trkpt lat="43.48650106885394" lon="10.599728404247589"><ele>507.0</ele><time>2026-04-18T17:09:05Z</time></trkpt><trkpt lat="43.48660235642431" lon="10.599754700162121"><ele>506.0</ele><time>2026-04-18T17:09:06Z</time></trkpt><trkpt lat="43.48670341970859" lon="10.59976573328279"><ele>505.00000000000006</ele><time>2026-04-18T17:09:07Z</time></trkpt><trkpt lat="43.48679741812505" lon="10.599756606643673"><ele>504.00000000000006</ele><time>2026-04-18T17:09:08Z</time></trkpt><trkpt lat="43.48688404478328" lon="10.599730629557392"><ele>503.0</ele><time>2026-04-18T17:09:09Z</time></trkpt><trkpt lat="43.48696690045801" lon="10.599691872202737"><ele>502.0</ele><time>2026-04-18T17:09:10Z</time></trkpt><trkpt lat="43.48704940940501" lon="10.599629279398625"><ele>500.40000000000003</ele><time>2026-04-18T17:09:11Z</time></trkpt><trkpt lat="43.48712566345827" lon="10.599555162451288"><ele>498.80000000000007</ele><time>2026-04-18T17:09:12Z</time></trkpt><trkpt lat="43.48719846919573" lon="10.59946912462252"><ele>497.2</ele><time>2026-04-18T17:09:13Z</time></trkpt><trkpt lat="43.487268345600185" lon="10.599370126869456"><ele>495.6</ele><time>2026-04-18T17:09:14Z</time></trkpt><trkpt lat="43.48733843530285" lon="10.599264528679097"><ele>494.0</ele><time>2026-04-18T17:09:15Z</time></trkpt><trkpt lat="43.487406811969116" lon="10.599158182948827"><ele>494.0</ele><time>2026-04-18T17:09:16Z</time></trkpt><trkpt lat="43.48748002603193" lon="10.599058939246662"><ele>494.0</ele><time>2026-04-18T17:09:17Z</time></trkpt><trkpt lat="43.487550051968576" lon="10.598960491227087"><ele>494.0</ele><time>2026-04-18T17:09:18Z</time></trkpt><trkpt lat="43.487616062974794" lon="10.598868456825524"><ele>494.0</ele><time>2026-04-18T17:09:19Z</time></trkpt><trkpt lat="43.48767141044114" lon="10.59877476158567"><ele>494.0</ele><time>2026-04-18T17:09:20Z</time></trkpt><trkpt lat="43.487721479748004" lon="10.598676590693"><ele>493.8333333333333</ele><time>2026-04-18T17:09:21Z</time></trkpt><trkpt lat="43.48776278606497" lon="10.598562985970943"><ele>493.66666666666663</ele><time>2026-04-18T17:09:22Z</time></trkpt><trkpt lat="43.48778985397811" lon="10.598432911803899"><ele>493.5</ele><time>2026-04-18T17:09:23Z</time></trkpt><trkpt lat="43.487824206592265" lon="10.598326642581045"><ele>493.33333333333337</ele><time>2026-04-18T17:09:24Z</time></trkpt><trkpt lat="43.48785993469638" lon="10.598219364767719"><ele>493.1666666666667</ele><time>2026-04-18T17:09:25Z</time></trkpt><trkpt lat="43.48790149555094" lon="10.59811514666077"><ele>493.0</ele><time>2026-04-18T17:09:26Z</time></trkpt><trkpt lat="43.48795806755199" lon="10.598018662618527"><ele>493.00000000000006</ele><time>2026-04-18T17:09:27Z</time></trkpt><trkpt lat="43.488012949022604" lon="10.597929670646206"><ele>493.0</ele><time>2026-04-18T17:09:28Z</time></trkpt><trkpt lat="43.48806682395941" lon="10.597862643417052"><ele>493.0</ele><time>2026-04-18T17:09:29Z</time></trkpt><trkpt lat="43.48811540998193" lon="10.597797274577562"><ele>493.0</ele><time>2026-04-18T17:09:30Z</time></trkpt><trkpt lat="43.48817097491027" lon="10.597730547684964"><ele>493.00000000000006</ele><time>2026-04-18T17:09:31Z</time></trkpt><trkpt lat="43.48822973646088" lon="10.597663643552844"><ele>493.0</ele><time>2026-04-18T17:09:32Z</time></trkpt><trkpt lat="43.48829048012915" lon="10.597589289133886"><ele>493.33333333333337</ele><time>2026-04-18T17:09:33Z</time></trkpt><trkpt lat="43.48834695783818" lon="10.597512734659087"><ele>493.6666666666667</ele><time>2026-04-18T17:09:34Z</time></trkpt><trkpt lat="43.48839886797433" lon="10.597432940526648"><ele>494.0</ele><time>2026-04-18T17:09:35Z</time></trkpt><trkpt lat="43.48844465247091" lon="10.597340024193972"><ele>494.33333333333337</ele><time>2026-04-18T17:09:36Z</time></trkpt><trkpt lat="43.48848474450781" lon="10.597242222353785"><ele>494.6666666666667</ele><time>2026-04-18T17:09:37Z</time></trkpt><trkpt lat="43.4885183429858" lon="10.597134770089038"><ele>495.0</ele><time>2026-04-18T17:09:38Z</time></trkpt><trkpt lat="43.48855619481119" lon="10.597022665484277"><ele>494.4</ele><time>2026-04-18T17:09:39Z</time></trkpt><trkpt lat="43.488597615498286" lon="10.596905242742924"><ele>493.8</ele><time>2026-04-18T17:09:40Z</time></trkpt><trkpt lat="43.48865207138159" lon="10.596789230306145"><ele>493.20000000000005</ele><time>2026-04-18T17:09:41Z</time></trkpt><trkpt lat="43.488709563523955" lon="10.59667227832735"><ele>492.6</ele><time>2026-04-18T17:09:42Z</time></trkpt><trkpt lat="43.488774426990254" lon="10.596562920174298"><ele>492.0</ele><time>2026-04-18T17:09:43Z</time></trkpt><trkpt lat="43.48884348004968" lon="10.596459760996927"><ele>492.0</ele><time>2026-04-18T17:09:44Z</time></trkpt><trkpt lat="43.488928301390224" lon="10.596378616793887"><ele>492.00000000000006</ele><time>2026-04-18T17:09:45Z</time></trkpt><trkpt lat="43.48902101566466" lon="10.59634228950347"><ele>492.00000000000006</ele><time>2026-04-18T17:09:46Z</time></trkpt><trkpt lat="43.48911500207693" lon="10.596340103853755"><ele>492.0</ele><time>2026-04-18T17:09:47Z</time></trkpt><trkpt lat="43.48920388511983" lon="10.596364569867053"><ele>492.0</ele><time>2026-04-18T17:09:48Z</time></trkpt><trkpt lat="43.489289479495056" lon="10.596415001616627"><ele>492.0</ele><time>2026-04-18T17:09:49Z</time></trkpt><trkpt lat="43.48936975276978" lon="10.596475004055039"><ele>492.00000000000006</ele><time>2026-04-18T17:09:50Z</time></trkpt><trkpt lat="43.489457520337865" lon="10.59651642180292"><ele>492.00000000000006</ele><time>2026-04-18T17:09:51Z</time></trkpt><trkpt lat="43.48954845790184" lon="10.596538908199177"><ele>492.0</ele><time>2026-04-18T17:09:52Z</time></trkpt><trkpt lat="43.48964689783933" lon="10.596553436631268"><ele>492.0</ele><time>2026-04-18T17:09:53Z</time></trkpt><trkpt lat="43.489745766545305" lon="10.596565114217565"><ele>492.0</ele><time>2026-04-18T17:09:54Z</time></trkpt><trkpt lat="43.48984299634773" lon="10.596573813051663"><ele>492.00000000000006</ele><time>2026-04-18T17:09:55Z</time></trkpt><trkpt lat="43.48993796781748" lon="10.59657818937185"><ele>492.00000000000006</ele><time>2026-04-18T17:09:55.997Z</time></trkpt><trkpt lat="43.49003090113006" lon="10.59656011675406"><ele>492.0</ele><time>2026-04-18T17:09:56.997Z</time></trkpt><trkpt lat="43.490111624076675" lon="10.596507663052016"><ele>492.0</ele><time>2026-04-18T17:09:57.997Z</time></trkpt><trkpt lat="43.490190650104616" lon="10.596444298619652"><ele>492.0</ele><time>2026-04-18T17:09:58.997Z</time></trkpt><trkpt lat="43.49027118628679" lon="10.5963767638656"><ele>492.00000000000006</ele><time>2026-04-18T17:09:59.997Z</time></trkpt><trkpt lat="43.4903519418472" lon="10.59632891265614"><ele>492.00000000000006</ele><time>2026-04-18T17:10:00.998Z</time></trkpt><trkpt lat="43.49043976538961" lon="10.596302448599255"><ele>492.0</ele><time>2026-04-18T17:10:01.998Z</time></trkpt><trkpt lat="43.49052681894334" lon="10.596296471111566"><ele>492.0</ele><time>2026-04-18T17:10:02.998Z</time></trkpt><trkpt lat="43.49061680389071" lon="10.596310574593627"><ele>491.6</ele><time>2026-04-18T17:10:03.998Z</time></trkpt><trkpt lat="43.49070991082366" lon="10.596339421192651"><ele>491.20000000000005</ele><time>2026-04-18T17:10:04.998Z</time></trkpt><trkpt lat="43.49080764921413" lon="10.596360019686418"><ele>490.8</ele><time>2026-04-18T17:10:05.998Z</time></trkpt><trkpt lat="43.49091392091078" lon="10.596366584991005"><ele>490.4</ele><time>2026-04-18T17:10:06.998Z</time></trkpt><trkpt lat="43.49102177632885" lon="10.59636043018555"><ele>490.0</ele><time>2026-04-18T17:10:07.998Z</time></trkpt><trkpt lat="43.49113070854324" lon="10.596360519784556"><ele>490.0</ele><time>2026-04-18T17:10:08.998Z</time></trkpt><trkpt lat="43.4912341318198" lon="10.596371113526187"><ele>490.0</ele><time>2026-04-18T17:10:09.998Z</time></trkpt><trkpt lat="43.49133622846502" lon="10.596400523062504"><ele>490.0</ele><time>2026-04-18T17:10:10.998Z</time></trkpt><trkpt lat="43.49143332361265" lon="10.596447190736171"><ele>490.0</ele><time>2026-04-18T17:10:11.998Z</time></trkpt><trkpt lat="43.4915241415922" lon="10.596509065298042"><ele>490.0</ele><time>2026-04-18T17:10:12.998Z</time></trkpt><trkpt lat="43.491613844023576" lon="10.59657182309914"><ele>489.2</ele><time>2026-04-18T17:10:13.998Z</time></trkpt><trkpt lat="43.491693401719104" lon="10.596628644628764"><ele>488.4</ele><time>2026-04-18T17:10:14.998Z</time></trkpt><trkpt lat="43.49176513891597" lon="10.59667667874365"><ele>487.6</ele><time>2026-04-18T17:10:15.998Z</time></trkpt><trkpt lat="43.49182208442517" lon="10.596724528660317"><ele>486.8</ele><time>2026-04-18T17:10:16.998Z</time></trkpt><trkpt lat="43.49187610778357" lon="10.596847370657747"><ele>486.0</ele><time>2026-04-18T17:10:18.999Z</time></trkpt><trkpt lat="43.49189597054625" lon="10.597019298698601"><ele>485.4</ele><time>2026-04-18T17:10:20.999Z</time></trkpt><trkpt lat="43.491900008522066" lon="10.597130156605473"><ele>484.8</ele><time>2026-04-18T17:10:21.999Z</time></trkpt><trkpt lat="43.49192346589812" lon="10.597251554824552"><ele>484.19999999999993</ele><time>2026-04-18T17:10:22.999Z</time></trkpt><trkpt lat="43.49195300435346" lon="10.597378869325219"><ele>483.59999999999997</ele><time>2026-04-18T17:10:23.999Z</time></trkpt><trkpt lat="43.49198084312546" lon="10.597508274110968"><ele>483.0</ele><time>2026-04-18T17:10:24.999Z</time></trkpt><trkpt lat="43.49199758660276" lon="10.597646237564511"><ele>483.0</ele><time>2026-04-18T17:10:25.999Z</time></trkpt><trkpt lat="43.49200546887083" lon="10.597795476039227"><ele>482.99999999999994</ele><time>2026-04-18T17:10:26.999Z</time></trkpt><trkpt lat="43.492020358662714" lon="10.5979411967971"><ele>482.99999999999994</ele><time>2026-04-18T17:10:27.999Z</time></trkpt><trkpt lat="43.49204819768585" lon="10.598065943441888"><ele>483.0</ele><time>2026-04-18T17:10:28.999Z</time></trkpt><trkpt lat="43.492073662069714" lon="10.598178171903854"><ele>483.0</ele><time>2026-04-18T17:10:29.999Z</time></trkpt><trkpt lat="43.49207972730905" lon="10.598265750690013"><ele>481.5</ele><time>2026-04-18T17:10:30.999Z</time></trkpt><trkpt lat="43.4920727627136" lon="10.598356777603433"><ele>480.0</ele><time>2026-04-18T17:10:31.999Z</time></trkpt><trkpt lat="43.49205328574226" lon="10.598445841701604"><ele>478.5</ele><time>2026-04-18T17:10:32.999Z</time></trkpt><trkpt lat="43.49203060792301" lon="10.598551927768463"><ele>477.0</ele><time>2026-04-18T17:10:33.999Z</time></trkpt><trkpt lat="43.49201696409882" lon="10.598644694173352"><ele>475.5</ele><time>2026-04-18T17:10:34.999Z</time></trkpt><trkpt lat="43.49199704307066" lon="10.598768659813606"><ele>474.0</ele><time>2026-04-18T17:10:35.999Z</time></trkpt><trkpt lat="43.491980108228034" lon="10.598881575215664"><ele>473.0</ele><time>2026-04-18T17:10:36.999Z</time></trkpt><trkpt lat="43.49196475402772" lon="10.598993192276428"><ele>472.0</ele><time>2026-04-18T17:10:37.999Z</time></trkpt><trkpt lat="43.491965648992185" lon="10.599099798432933"><ele>471.0</ele><time>2026-04-18T17:10:38.999Z</time></trkpt><trkpt lat="43.49198060272224" lon="10.599220194341546"><ele>470.0</ele><time>2026-04-18T17:10:39.999Z</time></trkpt><trkpt lat="43.492000126488556" lon="10.599328338991485"><ele>469.0</ele><time>2026-04-18T17:10:40.999Z</time></trkpt><trkpt lat="43.491992986232745" lon="10.599454953792666"><ele>468.0</ele><time>2026-04-18T17:10:41.999Z</time></trkpt><trkpt lat="43.49198153246773" lon="10.59956581532553"><ele>467.8333333333333</ele><time>2026-04-18T17:10:42.999Z</time></trkpt><trkpt lat="43.49198022921787" lon="10.599666552248314"><ele>467.66666666666663</ele><time>2026-04-18T17:10:43.999Z</time></trkpt><trkpt lat="43.49200485631625" lon="10.599763656658663"><ele>467.5</ele><time>2026-04-18T17:10:44.999Z</time></trkpt><trkpt lat="43.49203952067136" lon="10.599851703822928"><ele>467.3333333333333</ele><time>2026-04-18T17:10:45.999Z</time></trkpt><trkpt lat="43.49209212134959" lon="10.599921508467885"><ele>467.16666666666663</ele><time>2026-04-18T17:10:46.999Z</time></trkpt><trkpt lat="43.49215865432479" lon="10.599981354766872"><ele>467.0</ele><time>2026-04-18T17:10:47.999Z</time></trkpt><trkpt lat="43.49224264305116" lon="10.600013852529216"><ele>466.99999999999994</ele><time>2026-04-18T17:10:49Z</time></trkpt><trkpt lat="43.49232280806445" lon="10.600045450725684"><ele>467.0</ele><time>2026-04-18T17:10:50Z</time></trkpt><trkpt lat="43.49238918000551" lon="10.600105961379246"><ele>466.99999999999994</ele><time>2026-04-18T17:10:51Z</time></trkpt><trkpt lat="43.49242222708681" lon="10.600181904869649"><ele>466.99999999999994</ele><time>2026-04-18T17:10:52Z</time></trkpt><trkpt lat="43.49245824045789" lon="10.600259116840661"><ele>467.0</ele><time>2026-04-18T17:10:53Z</time></trkpt><trkpt lat="43.49248966687198" lon="10.600344254985753"><ele>466.99999999999994</ele><time>2026-04-18T17:10:55Z</time></trkpt><trkpt lat="43.492553496510375" lon="10.60040152890201"><ele>466.99999999999994</ele><time>2026-04-18T17:11:00Z</time></trkpt><trkpt lat="43.49261171135498" lon="10.600465568191096"><ele>466.66666666666663</ele><time>2026-04-18T17:11:06Z</time></trkpt><trkpt lat="43.49267600955038" lon="10.600566859159686"><ele>466.3333333333333</ele><time>2026-04-18T17:11:09Z</time></trkpt><trkpt lat="43.492767113582225" lon="10.600611370989888"><ele>466.0</ele><time>2026-04-18T17:11:11Z</time></trkpt><trkpt lat="43.492831671125835" lon="10.600606985274888"><ele>465.66666666666663</ele><time>2026-04-18T17:11:13Z</time></trkpt><trkpt lat="43.492907823835125" lon="10.600574804787204"><ele>465.3333333333333</ele><time>2026-04-18T17:11:17Z</time></trkpt><trkpt lat="43.492987061179356" lon="10.600541123645062"><ele>465.0</ele><time>2026-04-18T17:11:20Z</time></trkpt><trkpt lat="43.4930525290468" lon="10.60050940784456"><ele>465.0</ele><time>2026-04-18T17:11:22Z</time></trkpt><trkpt lat="43.49314168375898" lon="10.600506521980517"><ele>465.0</ele><time>2026-04-18T17:11:25Z</time></trkpt><trkpt lat="43.49320705298742" lon="10.600494543697419"><ele>465.0</ele><time>2026-04-18T17:11:27Z</time></trkpt><trkpt lat="43.493279052094806" lon="10.600490076874264"><ele>465.0</ele><time>2026-04-18T17:11:29Z</time></trkpt><trkpt lat="43.493343297894626" lon="10.600486725321586"><ele>465.0</ele><time>2026-04-18T17:11:31Z</time></trkpt><trkpt lat="43.49340641866596" lon="10.600486930543873"><ele>465.0</ele><time>2026-04-18T17:11:33Z</time></trkpt><trkpt lat="43.49349947107585" lon="10.600515414648884"><ele>465.0</ele><time>2026-04-18T17:11:36Z</time></trkpt><trkpt lat="43.49356631389664" lon="10.600563746440093"><ele>465.0</ele><time>2026-04-18T17:11:38Z</time></trkpt><trkpt lat="43.493636404959304" lon="10.60062724892969"><ele>465.0</ele><time>2026-04-18T17:11:40Z</time></trkpt><trkpt lat="43.49371403922374" lon="10.600693665630398"><ele>465.0</ele><time>2026-04-18T17:11:42Z</time></trkpt><trkpt lat="43.49381965801119" lon="10.600775606716496"><ele>465.0</ele><time>2026-04-18T17:11:44Z</time></trkpt><trkpt lat="43.49388735373529" lon="10.600818362125487"><ele>465.0</ele><time>2026-04-18T17:11:45.001Z</time></trkpt><trkpt lat="43.49395482317459" lon="10.600864380211078"><ele>464.6666666666667</ele><time>2026-04-18T17:11:46.001Z</time></trkpt><trkpt lat="43.4940233055494" lon="10.600918841261052"><ele>464.33333333333337</ele><time>2026-04-18T17:11:47.001Z</time></trkpt><trkpt lat="43.494089587293175" lon="10.600977783499488"><ele>464.0</ele><time>2026-04-18T17:11:48.001Z</time></trkpt><trkpt lat="43.49415796423078" lon="10.601040322200813"><ele>463.6666666666667</ele><time>2026-04-18T17:11:49.001Z</time></trkpt><trkpt lat="43.49422183071845" lon="10.601106197857884"><ele>463.33333333333337</ele><time>2026-04-18T17:11:50.001Z</time></trkpt><trkpt lat="43.494280418087854" lon="10.601165523669271"><ele>463.0</ele><time>2026-04-18T17:11:51.001Z</time></trkpt><trkpt lat="43.494333814933526" lon="10.601212184879765"><ele>463.00000000000006</ele><time>2026-04-18T17:11:52.001Z</time></trkpt><trkpt lat="43.49442793683326" lon="10.601224878522345"><ele>463.0</ele><time>2026-04-18T17:11:54.001Z</time></trkpt><trkpt lat="43.49453962755516" lon="10.601127031722896"><ele>463.0</ele><time>2026-04-18T17:11:56.001Z</time></trkpt><trkpt lat="43.49459337229083" lon="10.601066703369026"><ele>463.0</ele><time>2026-04-18T17:11:57.001Z</time></trkpt><trkpt lat="43.4946385923492" lon="10.600996365978615"><ele>463.00000000000006</ele><time>2026-04-18T17:11:58.001Z</time></trkpt><trkpt lat="43.49468653037349" lon="10.600932980683355"><ele>463.0</ele><time>2026-04-18T17:11:59.001Z</time></trkpt><trkpt lat="43.49474900854459" lon="10.600899603723835"><ele>459.83333333333337</ele><time>2026-04-18T17:12:00.001Z</time></trkpt><trkpt lat="43.494815948489205" lon="10.600922092110867"><ele>456.6666666666667</ele><time>2026-04-18T17:12:01.001Z</time></trkpt><trkpt lat="43.494900677368214" lon="10.600891597879235"><ele>453.5</ele><time>2026-04-18T17:12:01.998Z</time></trkpt><trkpt lat="43.49498839332905" lon="10.600883059942122"><ele>450.33333333333337</ele><time>2026-04-18T17:12:02.998Z</time></trkpt><trkpt lat="43.495079310608325" lon="10.60089018634747"><ele>447.1666666666667</ele><time>2026-04-18T17:12:03.998Z</time></trkpt><trkpt lat="43.49517433415068" lon="10.600927579650245"><ele>444.0</ele><time>2026-04-18T17:12:04.998Z</time></trkpt><trkpt lat="43.495271762964705" lon="10.600971907959133"><ele>444.0</ele><time>2026-04-18T17:12:05.998Z</time></trkpt><trkpt lat="43.49537640781435" lon="10.601021096626779"><ele>444.0</ele><time>2026-04-18T17:12:06.998Z</time></trkpt><trkpt lat="43.49547887007308" lon="10.601074596300238"><ele>444.0</ele><time>2026-04-18T17:12:07.998Z</time></trkpt><trkpt lat="43.49559896160735" lon="10.601126686007653"><ele>444.0</ele><time>2026-04-18T17:12:08.998Z</time></trkpt><trkpt lat="43.495719417739814" lon="10.601171492591343"><ele>443.25</ele><time>2026-04-18T17:12:09.998Z</time></trkpt><trkpt lat="43.49584109261033" lon="10.601204699747287"><ele>442.5</ele><time>2026-04-18T17:12:10.998Z</time></trkpt><trkpt lat="43.49596115677905" lon="10.601234656316509"><ele>441.75</ele><time>2026-04-18T17:12:11.998Z</time></trkpt><trkpt lat="43.49607971306021" lon="10.601267017469189"><ele>441.0</ele><time>2026-04-18T17:12:12.998Z</time></trkpt><trkpt lat="43.496190542278" lon="10.601307856904047"><ele>439.20000000000005</ele><time>2026-04-18T17:12:13.998Z</time></trkpt><trkpt lat="43.496293005158776" lon="10.601334243583759"><ele>437.40000000000003</ele><time>2026-04-18T17:12:14.998Z</time></trkpt><trkpt lat="43.496393561195276" lon="10.601348214025142"><ele>435.6</ele><time>2026-04-18T17:12:15.998Z</time></trkpt><trkpt lat="43.49649296794109" lon="10.60136767441177"><ele>433.8</ele><time>2026-04-18T17:12:16.999Z</time></trkpt><trkpt lat="43.496564365767725" lon="10.601394974415786"><ele>432.0</ele><time>2026-04-18T17:12:17.999Z</time></trkpt><trkpt lat="43.49669213078325" lon="10.60145117328092"><ele>432.0</ele><time>2026-04-18T17:12:19.999Z</time></trkpt><trkpt lat="43.49673850422193" lon="10.601534421471662"><ele>432.0</ele><time>2026-04-18T17:12:20.999Z</time></trkpt><trkpt lat="43.49673582692326" lon="10.601653997785544"><ele>432.0</ele><time>2026-04-18T17:12:21.999Z</time></trkpt><trkpt lat="43.49672581034844" lon="10.601778764129925"><ele>432.0</ele><time>2026-04-18T17:12:22.999Z</time></trkpt><trkpt lat="43.49672164033019" lon="10.60189975909153"><ele>432.0</ele><time>2026-04-18T17:12:23.999Z</time></trkpt><trkpt lat="43.4967304159121" lon="10.602020239474564"><ele>432.0</ele><time>2026-04-18T17:12:24.999Z</time></trkpt><trkpt lat="43.496751135036625" lon="10.602138204567078"><ele>432.20000000000005</ele><time>2026-04-18T17:12:25.999Z</time></trkpt><trkpt lat="43.49678605430538" lon="10.602249367714851"><ele>432.40000000000003</ele><time>2026-04-18T17:12:26.999Z</time></trkpt><trkpt lat="43.496849409260804" lon="10.60235810233055"><ele>432.59999999999997</ele><time>2026-04-18T17:12:27.999Z</time></trkpt><trkpt lat="43.49689666681763" lon="10.602470006847184"><ele>432.79999999999995</ele><time>2026-04-18T17:12:28.999Z</time></trkpt><trkpt lat="43.49695326942766" lon="10.602592774393022"><ele>433.0</ele><time>2026-04-18T17:12:29.999Z</time></trkpt><trkpt lat="43.49698883904393" lon="10.602720533075919"><ele>433.2</ele><time>2026-04-18T17:12:30.999Z</time></trkpt><trkpt lat="43.497021624442404" lon="10.602832969011697"><ele>433.4</ele><time>2026-04-18T17:12:31.999Z</time></trkpt><trkpt lat="43.49710344637324" lon="10.602899142732152"><ele>433.59999999999997</ele><time>2026-04-18T17:12:32.999Z</time></trkpt><trkpt lat="43.49715134464134" lon="10.602989433939875"><ele>433.79999999999995</ele><time>2026-04-18T17:12:33.999Z</time></trkpt><trkpt lat="43.49718141400997" lon="10.603094034494573"><ele>434.0</ele><time>2026-04-18T17:12:34.999Z</time></trkpt><trkpt lat="43.49712299265883" lon="10.603245241797914"><ele>430.79999999999995</ele><time>2026-04-18T17:12:35.999Z</time></trkpt><trkpt lat="43.49714605333005" lon="10.60343066791357"><ele>427.59999999999997</ele><time>2026-04-18T17:12:38Z</time></trkpt><trkpt lat="43.4971688934564" lon="10.6035206466319"><ele>424.4</ele><time>2026-04-18T17:12:39Z</time></trkpt><trkpt lat="43.49728784061015" lon="10.603537373546557"><ele>421.2</ele><time>2026-04-18T17:12:40Z</time></trkpt><trkpt lat="43.49735186321822" lon="10.603681885487111"><ele>418.0</ele><time>2026-04-18T17:12:42Z</time></trkpt><trkpt lat="43.49738974646704" lon="10.603780173899374"><ele>417.33333333333337</ele><time>2026-04-18T17:12:43Z</time></trkpt><trkpt lat="43.49742074138118" lon="10.603892020191136"><ele>416.6666666666667</ele><time>2026-04-18T17:12:44Z</time></trkpt><trkpt lat="43.49745771567679" lon="10.604022704512682"><ele>416.0</ele><time>2026-04-18T17:12:45Z</time></trkpt><trkpt lat="43.49750274877466" lon="10.604120410065208"><ele>415.33333333333337</ele><time>2026-04-18T17:12:46Z</time></trkpt><trkpt lat="43.49753222213544" lon="10.604223569391245"><ele>414.6666666666667</ele><time>2026-04-18T17:12:47Z</time></trkpt><trkpt lat="43.497561504290495" lon="10.60430283433158"><ele>414.0</ele><time>2026-04-18T17:12:48Z</time></trkpt><trkpt lat="43.497664736774304" lon="10.60436919643894"><ele>414.0</ele><time>2026-04-18T17:12:50Z</time></trkpt><trkpt lat="43.497731873190624" lon="10.60435877214804"><ele>414.0</ele><time>2026-04-18T17:12:51Z</time></trkpt><trkpt lat="43.497806915267205" lon="10.604340824361064"><ele>414.0</ele><time>2026-04-18T17:12:52Z</time></trkpt><trkpt lat="43.49788137864583" lon="10.604335255765719"><ele>414.0</ele><time>2026-04-18T17:12:53Z</time></trkpt><trkpt lat="43.4979488518285" lon="10.604376173937865"><ele>414.0</ele><time>2026-04-18T17:12:54Z</time></trkpt><trkpt lat="43.498019357669804" lon="10.604444574241613"><ele>414.0</ele><time>2026-04-18T17:12:55Z</time></trkpt><trkpt lat="43.498096360822274" lon="10.604518712266167"><ele>412.5</ele><time>2026-04-18T17:12:56Z</time></trkpt><trkpt lat="43.49818221608319" lon="10.604546006009915"><ele>411.0</ele><time>2026-04-18T17:12:57Z</time></trkpt><trkpt lat="43.49825776806164" lon="10.604579935871394"><ele>409.5</ele><time>2026-04-18T17:12:58Z</time></trkpt><trkpt lat="43.4983489901263" lon="10.60459049810728"><ele>408.0</ele><time>2026-04-18T17:12:59Z</time></trkpt><trkpt lat="43.49843377772853" lon="10.604625993552435"><ele>406.5</ele><time>2026-04-18T17:13:00Z</time></trkpt><trkpt lat="43.49850560766464" lon="10.604684124351305"><ele>405.0</ele><time>2026-04-18T17:13:01Z</time></trkpt><trkpt lat="43.49857574304799" lon="10.604751707041107"><ele>405.0</ele><time>2026-04-18T17:13:02Z</time></trkpt><trkpt lat="43.498637855579496" lon="10.604820832128404"><ele>405.0</ele><time>2026-04-18T17:13:03Z</time></trkpt><trkpt lat="43.498707587171594" lon="10.604894979348776"><ele>405.0</ele><time>2026-04-18T17:13:04Z</time></trkpt><trkpt lat="43.49875166445203" lon="10.60504089817685"><ele>405.0</ele><time>2026-04-18T17:13:05Z</time></trkpt><trkpt lat="43.498742780791076" lon="10.605135547100089"><ele>405.0</ele><time>2026-04-18T17:13:06Z</time></trkpt><trkpt lat="43.49877139596586" lon="10.605265597263097"><ele>402.1666666666667</ele><time>2026-04-18T17:13:07Z</time></trkpt><trkpt lat="43.498807185038366" lon="10.605363306328998"><ele>399.33333333333337</ele><time>2026-04-18T17:13:08Z</time></trkpt><trkpt lat="43.49881761751437" lon="10.605451246015932"><ele>396.5</ele><time>2026-04-18T17:13:09Z</time></trkpt><trkpt lat="43.49884775886687" lon="10.60558285157401"><ele>393.6666666666667</ele><time>2026-04-18T17:13:11Z</time></trkpt><trkpt lat="43.4988743761109" lon="10.605705084066347"><ele>390.83333333333337</ele><time>2026-04-18T17:13:13Z</time></trkpt><trkpt lat="43.498895014648404" lon="10.605848211725839"><ele>388.0</ele><time>2026-04-18T17:13:15.001Z</time></trkpt><trkpt lat="43.49887433424644" lon="10.605983629126275"><ele>388.00000000000006</ele><time>2026-04-18T17:13:17.001Z</time></trkpt><trkpt lat="43.498867916117185" lon="10.60614746965424"><ele>388.0</ele><time>2026-04-18T17:13:19.001Z</time></trkpt><trkpt lat="43.49890590215338" lon="10.606308732314062"><ele>388.0</ele><time>2026-04-18T17:13:21.001Z</time></trkpt><trkpt lat="43.49893784372978" lon="10.606384898349187"><ele>388.0</ele><time>2026-04-18T17:13:22.001Z</time></trkpt><trkpt lat="43.498996031105904" lon="10.606443959964885"><ele>388.00000000000006</ele><time>2026-04-18T17:13:23.001Z</time></trkpt><trkpt lat="43.499047667037736" lon="10.60651033825498"><ele>388.0</ele><time>2026-04-18T17:13:24.001Z</time></trkpt><trkpt lat="43.49910007182965" lon="10.60656396962781"><ele>387.85714285714283</ele><time>2026-04-18T17:13:25.001Z</time></trkpt><trkpt lat="43.49914795184964" lon="10.60662260025012"><ele>387.7142857142857</ele><time>2026-04-18T17:13:26.001Z</time></trkpt><trkpt lat="43.49917190532926" lon="10.606712508339923"><ele>387.57142857142856</ele><time>2026-04-18T17:13:27.001Z</time></trkpt><trkpt lat="43.49918735681247" lon="10.6068011166486"><ele>387.42857142857144</ele><time>2026-04-18T17:13:28.001Z</time></trkpt><trkpt lat="43.49919663463379" lon="10.60689482001823"><ele>387.28571428571433</ele><time>2026-04-18T17:13:29.001Z</time></trkpt><trkpt lat="43.499178801759186" lon="10.606983901495504"><ele>387.14285714285717</ele><time>2026-04-18T17:13:30.001Z</time></trkpt><trkpt lat="43.499142395479254" lon="10.607067604240378"><ele>387.0</ele><time>2026-04-18T17:13:31.001Z</time></trkpt><trkpt lat="43.49911217597328" lon="10.607181188868093"><ele>386.3333333333333</ele><time>2026-04-18T17:13:32.001Z</time></trkpt><trkpt lat="43.499099099037416" lon="10.60728170690043"><ele>385.6666666666667</ele><time>2026-04-18T17:13:33.001Z</time></trkpt><trkpt lat="43.49911308230079" lon="10.607379485854933"><ele>385.0</ele><time>2026-04-18T17:13:34.001Z</time></trkpt><trkpt lat="43.49913914274994" lon="10.607462204529869"><ele>384.33333333333337</ele><time>2026-04-18T17:13:35.001Z</time></trkpt><trkpt lat="43.49921145327987" lon="10.607519373237322"><ele>383.6666666666667</ele><time>2026-04-18T17:13:36.001Z</time></trkpt><trkpt lat="43.49931107448708" lon="10.607546792835366"><ele>383.0</ele><time>2026-04-18T17:13:37.001Z</time></trkpt><trkpt lat="43.499393175259144" lon="10.607583153483146"><ele>383.0</ele><time>2026-04-18T17:13:38.001Z</time></trkpt><trkpt lat="43.4994777148913" lon="10.607632850328406"><ele>383.0</ele><time>2026-04-18T17:13:39.001Z</time></trkpt><trkpt lat="43.49956217253899" lon="10.607682657966665"><ele>383.0</ele><time>2026-04-18T17:13:40.001Z</time></trkpt><trkpt lat="43.49963301650113" lon="10.607755236988046"><ele>383.0</ele><time>2026-04-18T17:13:41.001Z</time></trkpt><trkpt lat="43.499694286074906" lon="10.607825364410171"><ele>383.0</ele><time>2026-04-18T17:13:42.001Z</time></trkpt><trkpt lat="43.499746089907454" lon="10.607908125827029"><ele>383.0</ele><time>2026-04-18T17:13:43.001Z</time></trkpt><trkpt lat="43.49980290245492" lon="10.607995454797113"><ele>380.59999999999997</ele><time>2026-04-18T17:13:44.001Z</time></trkpt><trkpt lat="43.499872975332" lon="10.60806948206118"><ele>378.2</ele><time>2026-04-18T17:13:45.001Z</time></trkpt><trkpt lat="43.49991399240767" lon="10.608187363214125"><ele>375.8</ele><time>2026-04-18T17:13:46.001Z</time></trkpt><trkpt lat="43.49999356607199" lon="10.60826404243861"><ele>373.4</ele><time>2026-04-18T17:13:47.001Z</time></trkpt><trkpt lat="43.50004923128671" lon="10.60836330789509"><ele>371.0</ele><time>2026-04-18T17:13:48.001Z</time></trkpt><trkpt lat="43.50010312285764" lon="10.608472763068882"><ele>371.0</ele><time>2026-04-18T17:13:49.001Z</time></trkpt><trkpt lat="43.50014231588153" lon="10.60858672026014"><ele>371.0</ele><time>2026-04-18T17:13:50.001Z</time></trkpt><trkpt lat="43.50016954874712" lon="10.608708745865373"><ele>371.0</ele><time>2026-04-18T17:13:51.001Z</time></trkpt><trkpt lat="43.50020504414424" lon="10.608806545886498"><ele>371.0</ele><time>2026-04-18T17:13:52.001Z</time></trkpt><trkpt lat="43.500253520482595" lon="10.608881314465256"><ele>371.0</ele><time>2026-04-18T17:13:53.001Z</time></trkpt><trkpt lat="43.500305055915646" lon="10.608970264915019"><ele>371.0</ele><time>2026-04-18T17:13:54.001Z</time></trkpt><trkpt lat="43.500379555002496" lon="10.609047166598863"><ele>370.6666666666667</ele><time>2026-04-18T17:13:55.001Z</time></trkpt><trkpt lat="43.50046625403672" lon="10.609116120423733"><ele>370.33333333333337</ele><time>2026-04-18T17:13:56.001Z</time></trkpt><trkpt lat="43.50053735810726" lon="10.609183471575085"><ele>370.0</ele><time>2026-04-18T17:13:57.001Z</time></trkpt><trkpt lat="43.5006039139466" lon="10.609240042751"><ele>369.6666666666667</ele><time>2026-04-18T17:13:58.001Z</time></trkpt><trkpt lat="43.50060607570473" lon="10.609367483128842"><ele>369.3333333333333</ele><time>2026-04-18T17:13:59.001Z</time></trkpt><trkpt lat="43.500644452468244" lon="10.609440159799172"><ele>369.0</ele><time>2026-04-18T17:14:00.001Z</time></trkpt><trkpt lat="43.50068474039667" lon="10.609527897418479"><ele>369.0</ele><time>2026-04-18T17:14:01.002Z</time></trkpt><trkpt lat="43.50073611195073" lon="10.609599459740146"><ele>369.0</ele><time>2026-04-18T17:14:02.002Z</time></trkpt><trkpt lat="43.50081373904025" lon="10.609651360356818"><ele>369.0</ele><time>2026-04-18T17:14:03.002Z</time></trkpt><trkpt lat="43.500918333054805" lon="10.609658798421135"><ele>369.0</ele><time>2026-04-18T17:14:04.002Z</time></trkpt><trkpt lat="43.50100834100128" lon="10.609639284186581"><ele>369.0</ele><time>2026-04-18T17:14:05.002Z</time></trkpt><trkpt lat="43.501110471459995" lon="10.609588160543927"><ele>369.0</ele><time>2026-04-18T17:14:06.002Z</time></trkpt><trkpt lat="43.501198888856386" lon="10.609512253365695"><ele>369.0</ele><time>2026-04-18T17:14:07.002Z</time></trkpt><trkpt lat="43.501266775022295" lon="10.609477057315388"><ele>369.0</ele><time>2026-04-18T17:14:07.999Z</time></trkpt><trkpt lat="43.501332332151996" lon="10.609461532919205"><ele>369.0</ele><time>2026-04-18T17:14:08.999Z</time></trkpt><trkpt lat="43.501400765224695" lon="10.6094656228263"><ele>369.0</ele><time>2026-04-18T17:14:09.999Z</time></trkpt><trkpt lat="43.5014491012343" lon="10.609569641480103"><ele>369.0</ele><time>2026-04-18T17:14:10.999Z</time></trkpt><trkpt lat="43.501517156552055" lon="10.609649417864784"><ele>366.1666666666667</ele><time>2026-04-18T17:14:11.999Z</time></trkpt><trkpt lat="43.501595280506095" lon="10.609705028031394"><ele>363.3333333333333</ele><time>2026-04-18T17:14:12.999Z</time></trkpt><trkpt lat="43.50166467910631" lon="10.60974764583891"><ele>360.5</ele><time>2026-04-18T17:14:13.999Z</time></trkpt><trkpt lat="43.50173931163111" lon="10.609752621838705"><ele>357.66666666666663</ele><time>2026-04-18T17:14:14.999Z</time></trkpt><trkpt lat="43.50182681456195" lon="10.609729622021785"><ele>354.8333333333333</ele><time>2026-04-18T17:14:15.999Z</time></trkpt><trkpt lat="43.50192495324773" lon="10.609693351808405"><ele>352.0</ele><time>2026-04-18T17:14:16.999Z</time></trkpt><trkpt lat="43.50202219757356" lon="10.609653727761133"><ele>351.0</ele><time>2026-04-18T17:14:17.999Z</time></trkpt><trkpt lat="43.502124844095434" lon="10.609628381910536"><ele>350.0</ele><time>2026-04-18T17:14:18.999Z</time></trkpt><trkpt lat="43.50220309987853" lon="10.609543263108762"><ele>349.0</ele><time>2026-04-18T17:14:19.999Z</time></trkpt><trkpt lat="43.50228186552749" lon="10.60947211794528"><ele>348.0</ele><time>2026-04-18T17:14:20.999Z</time></trkpt><trkpt lat="43.502372489874254" lon="10.609440667420492"><ele>347.0</ele><time>2026-04-18T17:14:21.999Z</time></trkpt><trkpt lat="43.5024559213027" lon="10.609394916422342"><ele>347.0</ele><time>2026-04-18T17:14:22.999Z</time></trkpt><trkpt lat="43.502545159323354" lon="10.609370133795993"><ele>347.0</ele><time>2026-04-18T17:14:23.999Z</time></trkpt><trkpt lat="43.502621767324925" lon="10.609381770005704"><ele>347.0</ele><time>2026-04-18T17:14:24.999Z</time></trkpt><trkpt lat="43.50269793126471" lon="10.609418461302587"><ele>347.0</ele><time>2026-04-18T17:14:25.999Z</time></trkpt><trkpt lat="43.50276685292122" lon="10.60946966581878"><ele>347.0</ele><time>2026-04-18T17:14:26.999Z</time></trkpt><trkpt lat="43.50283273718741" lon="10.609539356299164"><ele>347.0</ele><time>2026-04-18T17:14:27.999Z</time></trkpt><trkpt lat="43.502889402207465" lon="10.609617610190552"><ele>342.5</ele><time>2026-04-18T17:14:28.999Z</time></trkpt><trkpt lat="43.5029385372071" lon="10.609707731704791"><ele>338.0</ele><time>2026-04-18T17:14:29.999Z</time></trkpt><trkpt lat="43.50297036443876" lon="10.609799405300874"><ele>333.5</ele><time>2026-04-18T17:14:30.999Z</time></trkpt><trkpt lat="43.50294945999018" lon="10.609896117762434"><ele>329.0</ele><time>2026-04-18T17:14:32Z</time></trkpt><trkpt lat="43.50294222354322" lon="10.609998304316628"><ele>324.5</ele><time>2026-04-18T17:14:33Z</time></trkpt><trkpt lat="43.50293407291436" lon="10.610107627909214"><ele>320.0</ele><time>2026-04-18T17:14:34Z</time></trkpt><trkpt lat="43.502929308116265" lon="10.610211374499421"><ele>320.0</ele><time>2026-04-18T17:14:35Z</time></trkpt><trkpt lat="43.502948852372484" lon="10.610320410560924"><ele>320.0</ele><time>2026-04-18T17:14:36Z</time></trkpt><trkpt lat="43.5030002401764" lon="10.610416615640776"><ele>320.0</ele><time>2026-04-18T17:14:37Z</time></trkpt><trkpt lat="43.503057745314486" lon="10.610506194759646"><ele>320.0</ele><time>2026-04-18T17:14:38Z</time></trkpt><trkpt lat="43.50308033208902" lon="10.610619687594749"><ele>320.0</ele><time>2026-04-18T17:14:39Z</time></trkpt><trkpt lat="43.50311067883672" lon="10.610719706757639"><ele>320.0</ele><time>2026-04-18T17:14:40Z</time></trkpt><trkpt lat="43.50309873631279" lon="10.61088788876816"><ele>320.5</ele><time>2026-04-18T17:14:42Z</time></trkpt><trkpt lat="43.503067632410946" lon="10.610973563342464"><ele>321.0</ele><time>2026-04-18T17:14:43Z</time></trkpt><trkpt lat="43.5030113508666" lon="10.611068501815813"><ele>321.5</ele><time>2026-04-18T17:14:44Z</time></trkpt><trkpt lat="43.50293389630768" lon="10.611150547610565"><ele>322.0</ele><time>2026-04-18T17:14:45Z</time></trkpt><trkpt lat="43.50288001847105" lon="10.611236460817345"><ele>322.5</ele><time>2026-04-18T17:14:46Z</time></trkpt><trkpt lat="43.5028337401689" lon="10.611310255804824"><ele>323.0</ele><time>2026-04-18T17:14:47Z</time></trkpt><trkpt lat="43.50278168637097" lon="10.611449549525858"><ele>323.6666666666667</ele><time>2026-04-18T17:14:49Z</time></trkpt><trkpt lat="43.502779242103855" lon="10.611554332879182"><ele>324.33333333333337</ele><time>2026-04-18T17:14:50Z</time></trkpt><trkpt lat="43.50281983888473" lon="10.611631556278374"><ele>325.0</ele><time>2026-04-18T17:14:51Z</time></trkpt><trkpt lat="43.50288540006822" lon="10.61167387419306"><ele>325.6666666666667</ele><time>2026-04-18T17:14:52Z</time></trkpt><trkpt lat="43.50296211301112" lon="10.611644300182922"><ele>326.3333333333333</ele><time>2026-04-18T17:14:53Z</time></trkpt><trkpt lat="43.503029719083386" lon="10.611596773624894"><ele>327.0</ele><time>2026-04-18T17:14:54Z</time></trkpt><trkpt lat="43.5030985353374" lon="10.611504991013275"><ele>327.0</ele><time>2026-04-18T17:14:55Z</time></trkpt><trkpt lat="43.50316420747622" lon="10.611437789708463"><ele>327.0</ele><time>2026-04-18T17:14:56Z</time></trkpt><trkpt lat="43.503285728290635" lon="10.611429073607992"><ele>327.0</ele><time>2026-04-18T17:14:58Z</time></trkpt><trkpt lat="43.50336646602119" lon="10.611423573691551"><ele>327.0</ele><time>2026-04-18T17:14:59Z</time></trkpt><trkpt lat="43.50344767597381" lon="10.611436226111522"><ele>327.0</ele><time>2026-04-18T17:15:00Z</time></trkpt><trkpt lat="43.503528737187985" lon="10.61146022189781"><ele>327.0</ele><time>2026-04-18T17:15:01Z</time></trkpt><trkpt lat="43.50362309481495" lon="10.61149422123958"><ele>327.0</ele><time>2026-04-18T17:15:02Z</time></trkpt><trkpt lat="43.50371005943857" lon="10.611516914255544"><ele>327.0</ele><time>2026-04-18T17:15:03.001Z</time></trkpt><trkpt lat="43.503788264524864" lon="10.611586791673016"><ele>327.0</ele><time>2026-04-18T17:15:04.001Z</time></trkpt><trkpt lat="43.50386946313165" lon="10.611655572502054"><ele>327.0</ele><time>2026-04-18T17:15:05.001Z</time></trkpt><trkpt lat="43.5039478938698" lon="10.611730497830163"><ele>327.0</ele><time>2026-04-18T17:15:06.001Z</time></trkpt><trkpt lat="43.50401676519091" lon="10.611809961117379"><ele>328.40000000000003</ele><time>2026-04-18T17:15:07.001Z</time></trkpt><trkpt lat="43.50408748838219" lon="10.611892665370993"><ele>329.8</ele><time>2026-04-18T17:15:08.001Z</time></trkpt><trkpt lat="43.50417124584041" lon="10.611967176394169"><ele>331.2</ele><time>2026-04-18T17:15:09.001Z</time></trkpt><trkpt lat="43.50423616030255" lon="10.612057078832128"><ele>332.6</ele><time>2026-04-18T17:15:10.001Z</time></trkpt><trkpt lat="43.50431047405982" lon="10.612128902840823"><ele>334.0</ele><time>2026-04-18T17:15:11.001Z</time></trkpt><trkpt lat="43.504373173910345" lon="10.612184298198228"><ele>334.0</ele><time>2026-04-18T17:15:12.001Z</time></trkpt><trkpt lat="43.504434530130865" lon="10.612227441855675"><ele>334.0</ele><time>2026-04-18T17:15:13.001Z</time></trkpt><trkpt lat="43.504543010782456" lon="10.612282658372472"><ele>334.0</ele><time>2026-04-18T17:15:15.001Z</time></trkpt><trkpt lat="43.50464117062326" lon="10.612304574888373"><ele>334.0</ele><time>2026-04-18T17:15:17.001Z</time></trkpt><trkpt lat="43.5047513147312" lon="10.612292294753109"><ele>334.0</ele><time>2026-04-18T17:15:19.001Z</time></trkpt><trkpt lat="43.504869322538255" lon="10.612312243645883"><ele>331.6</ele><time>2026-04-18T17:15:21.001Z</time></trkpt><trkpt lat="43.504996471835504" lon="10.61233658960309"><ele>329.2</ele><time>2026-04-18T17:15:23.001Z</time></trkpt><trkpt lat="43.505060526974816" lon="10.612350931303867"><ele>326.8</ele><time>2026-04-18T17:15:24.001Z</time></trkpt><trkpt lat="43.50517393414509" lon="10.61239892155066"><ele>324.40000000000003</ele><time>2026-04-18T17:15:26.001Z</time></trkpt><trkpt lat="43.50525516798426" lon="10.612516489587245"><ele>322.0</ele><time>2026-04-18T17:15:28.001Z</time></trkpt><trkpt lat="43.5052957366575" lon="10.61260077050934"><ele>322.0</ele><time>2026-04-18T17:15:29.001Z</time></trkpt><trkpt lat="43.505342793610986" lon="10.612670048736902"><ele>322.0</ele><time>2026-04-18T17:15:30.001Z</time></trkpt><trkpt lat="43.50539085748012" lon="10.612739528802393"><ele>322.0</ele><time>2026-04-18T17:15:31.001Z</time></trkpt><trkpt lat="43.505438268448536" lon="10.61280587587042"><ele>322.0</ele><time>2026-04-18T17:15:32.001Z</time></trkpt><trkpt lat="43.50548874129398" lon="10.612872151707275"><ele>322.0</ele><time>2026-04-18T17:15:33.001Z</time></trkpt><trkpt lat="43.505550856015326" lon="10.612910151614495"><ele>322.0</ele><time>2026-04-18T17:15:34.001Z</time></trkpt><trkpt lat="43.50558722198801" lon="10.612988633327475"><ele>322.0</ele><time>2026-04-18T17:15:35.001Z</time></trkpt><trkpt lat="43.50564988541353" lon="10.613126546613845"><ele>322.6</ele><time>2026-04-18T17:15:37.001Z</time></trkpt><trkpt lat="43.50567532039701" lon="10.613208494454929"><ele>323.20000000000005</ele><time>2026-04-18T17:15:38.001Z</time></trkpt><trkpt lat="43.505722526046355" lon="10.61337398908479"><ele>323.8</ele><time>2026-04-18T17:15:40.001Z</time></trkpt><trkpt lat="43.50576016801677" lon="10.61353995839242"><ele>324.4</ele><time>2026-04-18T17:15:42.002Z</time></trkpt><trkpt lat="43.5057797312813" lon="10.61363478842244"><ele>325.0</ele><time>2026-04-18T17:15:43.002Z</time></trkpt><trkpt lat="43.50581435686742" lon="10.613817909249281"><ele>326.5</ele><time>2026-04-18T17:15:45.002Z</time></trkpt><trkpt lat="43.50584352646073" lon="10.613973207783697"><ele>328.0</ele><time>2026-04-18T17:15:47.002Z</time></trkpt><trkpt lat="43.505870188343934" lon="10.61413712821193"><ele>329.5</ele><time>2026-04-18T17:15:49.002Z</time></trkpt><trkpt lat="43.50590893902367" lon="10.614287796835013"><ele>331.0</ele><time>2026-04-18T17:15:51.002Z</time></trkpt><trkpt lat="43.505928611643526" lon="10.61444272101323"><ele>331.20000000000005</ele><time>2026-04-18T17:15:53.002Z</time></trkpt><trkpt lat="43.50596281961846" lon="10.61458778916891"><ele>331.40000000000003</ele><time>2026-04-18T17:15:55.002Z</time></trkpt><trkpt lat="43.50600744073846" lon="10.614728511055347"><ele>331.6</ele><time>2026-04-18T17:15:57.002Z</time></trkpt><trkpt lat="43.506030903117136" lon="10.614831800068524"><ele>331.8</ele><time>2026-04-18T17:15:59.002Z</time></trkpt><trkpt lat="43.50606367380413" lon="10.614913900163138"><ele>332.0</ele><time>2026-04-18T17:16:00.002Z</time></trkpt><trkpt lat="43.506128505818786" lon="10.615034939550675"><ele>332.0</ele><time>2026-04-18T17:16:02.002Z</time></trkpt><trkpt lat="43.50620888187373" lon="10.615166449841979"><ele>332.0</ele><time>2026-04-18T17:16:04.002Z</time></trkpt><trkpt lat="43.5062429163049" lon="10.615243351844379"><ele>332.0</ele><time>2026-04-18T17:16:05.002Z</time></trkpt><trkpt lat="43.506335045777064" lon="10.615418712993826"><ele>332.0</ele><time>2026-04-18T17:16:07.002Z</time></trkpt><trkpt lat="43.50637224465511" lon="10.615492944420879"><ele>332.0</ele><time>2026-04-18T17:16:08.002Z</time></trkpt><trkpt lat="43.50640269908631" lon="10.615588299100413"><ele>330.5</ele><time>2026-04-18T17:16:09.002Z</time></trkpt><trkpt lat="43.50646248609148" lon="10.615660623696266"><ele>329.0</ele><time>2026-04-18T17:16:10.002Z</time></trkpt><trkpt lat="43.50650967826272" lon="10.61574498824947"><ele>327.5</ele><time>2026-04-18T17:16:11.002Z</time></trkpt><trkpt lat="43.50656185551711" lon="10.61582070113203"><ele>326.0</ele><time>2026-04-18T17:16:12.002Z</time></trkpt><trkpt lat="43.50662140403111" lon="10.615891350816"><ele>324.5</ele><time>2026-04-18T17:16:13.002Z</time></trkpt><trkpt lat="43.50667684176682" lon="10.615960301229286"><ele>323.0</ele><time>2026-04-18T17:16:13.999Z</time></trkpt><trkpt lat="43.5067288781669" lon="10.616017416585011"><ele>323.0</ele><time>2026-04-18T17:16:14.999Z</time></trkpt><trkpt lat="43.50677952898573" lon="10.61607267608888"><ele>323.0</ele><time>2026-04-18T17:16:15.999Z</time></trkpt><trkpt lat="43.50690697044468" lon="10.616082065335718"><ele>323.0</ele><time>2026-04-18T17:16:17.999Z</time></trkpt><trkpt lat="43.5069752836093" lon="10.616071252002785"><ele>323.0</ele><time>2026-04-18T17:16:18.999Z</time></trkpt><trkpt lat="43.50704616591178" lon="10.616058943200095"><ele>323.0</ele><time>2026-04-18T17:16:19.999Z</time></trkpt><trkpt lat="43.507122058127685" lon="10.616049230653518"><ele>323.0</ele><time>2026-04-18T17:16:20.999Z</time></trkpt><trkpt lat="43.50719605993342" lon="10.616039211011717"><ele>321.83333333333337</ele><time>2026-04-18T17:16:21.999Z</time></trkpt><trkpt lat="43.50726186287214" lon="10.616005632260208"><ele>320.6666666666667</ele><time>2026-04-18T17:16:22.999Z</time></trkpt><trkpt lat="43.50735030665964" lon="10.615983636233311"><ele>319.5</ele><time>2026-04-18T17:16:23.999Z</time></trkpt><trkpt lat="43.507423447457406" lon="10.615959287805358"><ele>318.3333333333333</ele><time>2026-04-18T17:16:24.999Z</time></trkpt><trkpt lat="43.50749759816144" lon="10.615923957324686"><ele>317.16666666666663</ele><time>2026-04-18T17:16:25.999Z</time></trkpt><trkpt lat="43.50757196610762" lon="10.615874983690894"><ele>316.0</ele><time>2026-04-18T17:16:26.999Z</time></trkpt><trkpt lat="43.50764833619684" lon="10.615820048342538"><ele>316.0</ele><time>2026-04-18T17:16:27.999Z</time></trkpt><trkpt lat="43.5077309180654" lon="10.615793685451058"><ele>316.0</ele><time>2026-04-18T17:16:28.999Z</time></trkpt><trkpt lat="43.50781099834784" lon="10.615743990855533"><ele>316.0</ele><time>2026-04-18T17:16:29.999Z</time></trkpt><trkpt lat="43.50789114951094" lon="10.615701457613094"><ele>316.0</ele><time>2026-04-18T17:16:31Z</time></trkpt><trkpt lat="43.50796864426439" lon="10.615655503248263"><ele>316.0</ele><time>2026-04-18T17:16:32Z</time></trkpt><trkpt lat="43.50805033098431" lon="10.61563752873325"><ele>316.0</ele><time>2026-04-18T17:16:33Z</time></trkpt><trkpt lat="43.50812990060708" lon="10.61561632061792"><ele>315.8333333333333</ele><time>2026-04-18T17:16:34Z</time></trkpt><trkpt lat="43.508207633976895" lon="10.615582235065355"><ele>315.66666666666663</ele><time>2026-04-18T17:16:35Z</time></trkpt><trkpt lat="43.50828665344683" lon="10.615560044274519"><ele>315.5</ele><time>2026-04-18T17:16:36Z</time></trkpt><trkpt lat="43.50835612796252" lon="10.615515046922466"><ele>315.3333333333333</ele><time>2026-04-18T17:16:37Z</time></trkpt><trkpt lat="43.50841932571007" lon="10.615448299515283"><ele>315.1666666666667</ele><time>2026-04-18T17:16:38Z</time></trkpt><trkpt lat="43.508472061795615" lon="10.615362825839123"><ele>315.0</ele><time>2026-04-18T17:16:39Z</time></trkpt><trkpt lat="43.50850523074747" lon="10.615261172450994"><ele>315.0</ele><time>2026-04-18T17:16:40Z</time></trkpt><trkpt lat="43.508546102207646" lon="10.615182581419845"><ele>315.0</ele><time>2026-04-18T17:16:41Z</time></trkpt><trkpt lat="43.50863909189846" lon="10.615112579271168"><ele>315.0</ele><time>2026-04-18T17:16:43Z</time></trkpt><trkpt lat="43.508740457976025" lon="10.615172799833621"><ele>315.0</ele><time>2026-04-18T17:16:45Z</time></trkpt><trkpt lat="43.508768928107465" lon="10.615255996742471"><ele>315.0</ele><time>2026-04-18T17:16:46Z</time></trkpt><trkpt lat="43.508803285641" lon="10.615351467341467"><ele>315.0</ele><time>2026-04-18T17:16:47Z</time></trkpt><trkpt lat="43.50883616914418" lon="10.615445897642417"><ele>311.5</ele><time>2026-04-18T17:16:48Z</time></trkpt><trkpt lat="43.50886165862704" lon="10.615543815915752"><ele>308.0</ele><time>2026-04-18T17:16:49Z</time></trkpt><trkpt lat="43.508873760393996" lon="10.61562967069175"><ele>304.5</ele><time>2026-04-18T17:16:50Z</time></trkpt><trkpt lat="43.50888005592652" lon="10.615750488201208"><ele>301.0</ele><time>2026-04-18T17:16:52Z</time></trkpt><trkpt lat="43.50889771154706" lon="10.615888677897296"><ele>297.5</ele><time>2026-04-18T17:16:54Z</time></trkpt><trkpt lat="43.508929262312954" lon="10.615970913477497"><ele>294.0</ele><time>2026-04-18T17:16:55Z</time></trkpt><trkpt lat="43.509011428292446" lon="10.616071175148138"><ele>294.0</ele><time>2026-04-18T17:16:57Z</time></trkpt><trkpt lat="43.50904334957939" lon="10.616147054998455"><ele>294.0</ele><time>2026-04-18T17:16:59Z</time></trkpt><trkpt lat="43.50905814437277" lon="10.616242947884695"><ele>294.0</ele><time>2026-04-18T17:17:01.001Z</time></trkpt><trkpt lat="43.508986586951494" lon="10.616331157286165"><ele>294.0</ele><time>2026-04-18T17:17:03.001Z</time></trkpt><trkpt lat="43.50890006834679" lon="10.616411830559057"><ele>294.0</ele><time>2026-04-18T17:17:05.001Z</time></trkpt><trkpt lat="43.50880945645962" lon="10.616484848967804"><ele>294.0</ele><time>2026-04-18T17:17:07.001Z</time></trkpt><trkpt lat="43.50875326653192" lon="10.616557725686777"><ele>294.4</ele><time>2026-04-18T17:17:09.001Z</time></trkpt><trkpt lat="43.50869693013604" lon="10.616618184921853"><ele>294.79999999999995</ele><time>2026-04-18T17:17:15.001Z</time></trkpt><trkpt lat="43.508626243165175" lon="10.616697438205073"><ele>295.20000000000005</ele><time>2026-04-18T17:17:18.001Z</time></trkpt><trkpt lat="43.50855054283821" lon="10.616788455386878"><ele>295.6</ele><time>2026-04-18T17:17:20.001Z</time></trkpt><trkpt lat="43.50847815752133" lon="10.616881182866164"><ele>296.0</ele><time>2026-04-18T17:17:22.001Z</time></trkpt><trkpt lat="43.50840796965038" lon="10.61698630302894"><ele>294.83333333333337</ele><time>2026-04-18T17:17:24.001Z</time></trkpt><trkpt lat="43.508350748455015" lon="10.617079473883896"><ele>293.6666666666667</ele><time>2026-04-18T17:17:26.001Z</time></trkpt><trkpt lat="43.5083113597126" lon="10.6171494352769"><ele>292.5</ele><time>2026-04-18T17:17:28.001Z</time></trkpt><trkpt lat="43.50825687236711" lon="10.617257813670047"><ele>291.3333333333333</ele><time>2026-04-18T17:17:31.001Z</time></trkpt><trkpt lat="43.50820547156094" lon="10.617386850519225"><ele>290.16666666666663</ele><time>2026-04-18T17:17:33.001Z</time></trkpt><trkpt lat="43.50817618039539" lon="10.617481801980587"><ele>289.0</ele><time>2026-04-18T17:17:34.001Z</time></trkpt><trkpt lat="43.50814552902749" lon="10.617577075949946"><ele>289.0</ele><time>2026-04-18T17:17:35.002Z</time></trkpt><trkpt lat="43.508106879260346" lon="10.617683832360633"><ele>289.0</ele><time>2026-04-18T17:17:36.002Z</time></trkpt><trkpt lat="43.50806621577631" lon="10.617789990084791"><ele>289.0</ele><time>2026-04-18T17:17:37.002Z</time></trkpt><trkpt lat="43.50802609418541" lon="10.617894733161082"><ele>289.0</ele><time>2026-04-18T17:17:38.002Z</time></trkpt><trkpt lat="43.50800321207561" lon="10.618007682164173"><ele>289.0</ele><time>2026-04-18T17:17:39.002Z</time></trkpt><trkpt lat="43.507964848533085" lon="10.618106613313513"><ele>289.0</ele><time>2026-04-18T17:17:40.002Z</time></trkpt><trkpt lat="43.50791911472733" lon="10.618195512216877"><ele>288.3333333333333</ele><time>2026-04-18T17:17:41.002Z</time></trkpt><trkpt lat="43.5078744257554" lon="10.618286574161468"><ele>287.66666666666663</ele><time>2026-04-18T17:17:42.002Z</time></trkpt><trkpt lat="43.50782375134319" lon="10.618372636861242"><ele>287.0</ele><time>2026-04-18T17:17:43.002Z</time></trkpt><trkpt lat="43.50776949651813" lon="10.618455468200306"><ele>286.3333333333333</ele><time>2026-04-18T17:17:44.002Z</time></trkpt><trkpt lat="43.507698855309606" lon="10.618513647886218"><ele>285.6666666666667</ele><time>2026-04-18T17:17:45.002Z</time></trkpt><trkpt lat="43.507633549330585" lon="10.61858024948015"><ele>285.0</ele><time>2026-04-18T17:17:46.002Z</time></trkpt><trkpt lat="43.50756525555082" lon="10.618636256353696"><ele>285.6666666666667</ele><time>2026-04-18T17:17:47.002Z</time></trkpt><trkpt lat="43.50749927023573" lon="10.618685157281563"><ele>286.3333333333333</ele><time>2026-04-18T17:17:48.002Z</time></trkpt><trkpt lat="43.50744405645575" lon="10.618737031883153"><ele>287.0</ele><time>2026-04-18T17:17:49.002Z</time></trkpt><trkpt lat="43.50738115203178" lon="10.618754616512899"><ele>287.66666666666663</ele><time>2026-04-18T17:17:50.002Z</time></trkpt><trkpt lat="43.50726350195752" lon="10.61879045192198"><ele>288.3333333333333</ele><time>2026-04-18T17:17:52.002Z</time></trkpt><trkpt lat="43.50715657055851" lon="10.618869258506063"><ele>289.0</ele><time>2026-04-18T17:17:54.002Z</time></trkpt><trkpt lat="43.507057808225824" lon="10.618941562386556"><ele>289.0</ele><time>2026-04-18T17:17:56.002Z</time></trkpt><trkpt lat="43.50693543351818" lon="10.619106192760794"><ele>289.0</ele><time>2026-04-18T17:17:59.002Z</time></trkpt><trkpt lat="43.50685146183543" lon="10.619199186404801"><ele>289.0</ele><time>2026-04-18T17:18:01.002Z</time></trkpt><trkpt lat="43.50676165716052" lon="10.619238637939231"><ele>289.0</ele><time>2026-04-18T17:18:03.002Z</time></trkpt><trkpt lat="43.50665295764327" lon="10.619283855527783"><ele>289.0</ele><time>2026-04-18T17:18:05.002Z</time></trkpt><trkpt lat="43.50654692386155" lon="10.61931395157701"><ele>289.0</ele><time>2026-04-18T17:18:07.002Z</time></trkpt><trkpt lat="43.50643789948658" lon="10.619323196426478"><ele>289.0</ele><time>2026-04-18T17:18:09.002Z</time></trkpt><trkpt lat="43.5063321569915" lon="10.619293512336299"><ele>289.0</ele><time>2026-04-18T17:18:11.002Z</time></trkpt><trkpt lat="43.50622331864273" lon="10.619305366250437"><ele>289.0</ele><time>2026-04-18T17:18:13.003Z</time></trkpt><trkpt lat="43.50611419883968" lon="10.619338501181284"><ele>291.2</ele><time>2026-04-18T17:18:15.003Z</time></trkpt><trkpt lat="43.50601925379462" lon="10.619385097340713"><ele>293.4</ele><time>2026-04-18T17:18:17.003Z</time></trkpt><trkpt lat="43.50593761559504" lon="10.61941935066937"><ele>295.6</ele><time>2026-04-18T17:18:19.003Z</time></trkpt><trkpt lat="43.505834979469235" lon="10.619444647896978"><ele>297.8</ele><time>2026-04-18T17:18:21Z</time></trkpt><trkpt lat="43.50572637142799" lon="10.619468844329152"><ele>300.0</ele><time>2026-04-18T17:18:23Z</time></trkpt><trkpt lat="43.505616288334295" lon="10.619427881692754"><ele>300.0</ele><time>2026-04-18T17:18:25Z</time></trkpt><trkpt lat="43.50555212934077" lon="10.619421828260249"><ele>300.0</ele><time>2026-04-18T17:18:26Z</time></trkpt><trkpt lat="43.505471124848945" lon="10.619383196717859"><ele>300.0</ele><time>2026-04-18T17:18:27Z</time></trkpt><trkpt lat="43.50538511122318" lon="10.619353030459457"><ele>300.0</ele><time>2026-04-18T17:18:28Z</time></trkpt><trkpt lat="43.50531429370972" lon="10.619336602173508"><ele>300.0</ele><time>2026-04-18T17:18:29Z</time></trkpt><trkpt lat="43.5052306514433" lon="10.619323506799008"><ele>300.0</ele><time>2026-04-18T17:18:31Z</time></trkpt><trkpt lat="43.50517415952237" lon="10.619374084791277"><ele>301.8</ele><time>2026-04-18T17:18:33Z</time></trkpt><trkpt lat="43.5051159486678" lon="10.619510583806795"><ele>303.6</ele><time>2026-04-18T17:18:35Z</time></trkpt><trkpt lat="43.50507056839645" lon="10.619652296496263"><ele>305.4</ele><time>2026-04-18T17:18:37Z</time></trkpt><trkpt lat="43.505026889799545" lon="10.619755840645189"><ele>307.2</ele><time>2026-04-18T17:18:39Z</time></trkpt><trkpt lat="43.50498069869344" lon="10.619851701243366"><ele>309.0</ele><time>2026-04-18T17:18:41Z</time></trkpt><trkpt lat="43.50496864469505" lon="10.619968569485769"><ele>309.0</ele><time>2026-04-18T17:18:43Z</time></trkpt><trkpt lat="43.504925905840004" lon="10.62005721600313"><ele>309.0</ele><time>2026-04-18T17:18:45Z</time></trkpt><trkpt lat="43.50488174243011" lon="10.620136324770368"><ele>309.0</ele><time>2026-04-18T17:18:47Z</time></trkpt><trkpt lat="43.50482359400429" lon="10.620220317389505"><ele>309.0</ele><time>2026-04-18T17:18:50Z</time></trkpt><trkpt lat="43.50475303166299" lon="10.62026949526905"><ele>309.0</ele><time>2026-04-18T17:18:53Z</time></trkpt><trkpt lat="43.50468963027252" lon="10.620150123977698"><ele>309.0</ele><time>2026-04-18T17:18:55.001Z</time></trkpt><trkpt lat="43.5046038255809" lon="10.620144874605014"><ele>309.3333333333333</ele><time>2026-04-18T17:18:59.001Z</time></trkpt><trkpt lat="43.50452719861904" lon="10.62008758743675"><ele>309.6666666666667</ele><time>2026-04-18T17:19:01.001Z</time></trkpt><trkpt lat="43.504489782762676" lon="10.61995923080227"><ele>310.0</ele><time>2026-04-18T17:19:03.001Z</time></trkpt><trkpt lat="43.504449454216825" lon="10.619855921621491"><ele>310.33333333333337</ele><time>2026-04-18T17:19:05.001Z</time></trkpt><trkpt lat="43.50441539871277" lon="10.619755724737608"><ele>310.6666666666667</ele><time>2026-04-18T17:19:07.001Z</time></trkpt><trkpt lat="43.504386350102116" lon="10.619664723836712"><ele>311.0</ele><time>2026-04-18T17:19:09.001Z</time></trkpt><trkpt lat="43.50433917025231" lon="10.619552792178801"><ele>312.8</ele><time>2026-04-18T17:19:12.001Z</time></trkpt><trkpt lat="43.50431448973595" lon="10.619452052214656"><ele>314.6</ele><time>2026-04-18T17:19:15.001Z</time></trkpt><trkpt lat="43.504307020033536" lon="10.619357673617417"><ele>316.4</ele><time>2026-04-18T17:19:20.001Z</time></trkpt><trkpt lat="43.50446284490058" lon="10.619161032276182"><ele>318.2</ele><time>2026-04-18T17:19:27.001Z</time></trkpt><trkpt lat="43.50450271267918" lon="10.619093356638224"><ele>320.0</ele><time>2026-04-18T17:19:30.002Z</time></trkpt><trkpt lat="43.50455243507223" lon="10.61902121816784"><ele>319.7142857142857</ele><time>2026-04-18T17:19:35.002Z</time></trkpt><trkpt lat="43.50462021872557" lon="10.618963384396213"><ele>319.42857142857144</ele><time>2026-04-18T17:19:38.002Z</time></trkpt><trkpt lat="43.504683553370974" lon="10.61892152974774"><ele>319.1428571428571</ele><time>2026-04-18T17:19:40.002Z</time></trkpt><trkpt lat="43.50474843274359" lon="10.618867513086483"><ele>318.8571428571429</ele><time>2026-04-18T17:19:42.002Z</time></trkpt><trkpt lat="43.50480873597488" lon="10.618809854925136"><ele>318.5714285714286</ele><time>2026-04-18T17:19:44.002Z</time></trkpt><trkpt lat="43.50485834035896" lon="10.618733007644169"><ele>318.2857142857143</ele><time>2026-04-18T17:19:46.002Z</time></trkpt><trkpt lat="43.50489655175835" lon="10.618654011580272"><ele>318.0</ele><time>2026-04-18T17:19:48.002Z</time></trkpt><trkpt lat="43.504901910273546" lon="10.61853563776224"><ele>318.0</ele><time>2026-04-18T17:19:51.002Z</time></trkpt><trkpt lat="43.5048673001385" lon="10.61845244221237"><ele>318.0</ele><time>2026-04-18T17:19:55.002Z</time></trkpt><trkpt lat="43.50481238565953" lon="10.618368133687762"><ele>318.0</ele><time>2026-04-18T17:19:59.002Z</time></trkpt><trkpt lat="43.50473782238039" lon="10.618311935870379"><ele>318.0</ele><time>2026-04-18T17:20:02.002Z</time></trkpt><trkpt lat="43.50467630353481" lon="10.618339422526072"><ele>318.0</ele><time>2026-04-18T17:20:04.002Z</time></trkpt><trkpt lat="43.50458193831702" lon="10.618381455810779"><ele>318.0</ele><time>2026-04-18T17:20:07.003Z</time></trkpt><trkpt lat="43.50451659246586" lon="10.618408509300965"><ele>318.2857142857143</ele><time>2026-04-18T17:20:09.003Z</time></trkpt><trkpt lat="43.50445937256325" lon="10.618444803064193"><ele>318.5714285714286</ele><time>2026-04-18T17:20:11.003Z</time></trkpt><trkpt lat="43.50439008001106" lon="10.61852903113808"><ele>318.8571428571429</ele><time>2026-04-18T17:20:14.003Z</time></trkpt><trkpt lat="43.50433498384478" lon="10.618605350918921"><ele>319.1428571428571</ele><time>2026-04-18T17:20:17.003Z</time></trkpt><trkpt lat="43.504277780278805" lon="10.618665990353591"><ele>319.42857142857144</ele><time>2026-04-18T17:20:20.003Z</time></trkpt><trkpt lat="43.504219107545424" lon="10.618700943729236"><ele>319.7142857142857</ele><time>2026-04-18T17:20:25.003Z</time></trkpt><trkpt lat="43.504196396323394" lon="10.618782256473967"><ele>320.0</ele><time>2026-04-18T17:20:32Z</time></trkpt><trkpt lat="43.50427549111503" lon="10.618874514132694"><ele>320.0</ele><time>2026-04-18T17:22:06.002Z</time></trkpt><trkpt lat="43.504300414702975" lon="10.618783364806879"><ele>320.0</ele><time>2026-04-18T17:22:13.003Z</time></trkpt><trkpt lat="43.504271092741355" lon="10.61868955289622"><ele>320.0</ele><time>2026-04-18T17:22:18.003Z</time></trkpt><trkpt lat="43.50424085539088" lon="10.618600057047532"><ele>320.0</ele><time>2026-04-18T17:22:22.003Z</time></trkpt><trkpt lat="43.50420999720962" lon="10.618511234576435"><ele>320.0</ele><time>2026-04-18T17:22:26.003Z</time></trkpt><trkpt lat="43.50417691201771" lon="10.618425811281849"><ele>320.0</ele><time>2026-04-18T17:22:30.003Z</time></trkpt><trkpt lat="43.50412888614947" lon="10.618356017795477"><ele>320.0</ele><time>2026-04-18T17:22:33.002Z</time></trkpt><trkpt lat="43.50407065775231" lon="10.61828912086041"><ele>321.6666666666667</ele><time>2026-04-18T17:22:36.002Z</time></trkpt><trkpt lat="43.50401590456788" lon="10.618210255312492"><ele>323.33333333333337</ele><time>2026-04-18T17:22:40.002Z</time></trkpt><trkpt lat="43.50396881177915" lon="10.61814671685681"><ele>325.0</ele><time>2026-04-18T17:22:44.001Z</time></trkpt><trkpt lat="43.503923727808456" lon="10.618078471513744"><ele>326.6666666666667</ele><time>2026-04-18T17:22:48.001Z</time></trkpt><trkpt lat="43.50388720460097" lon="10.617989065294395"><ele>328.3333333333333</ele><time>2026-04-18T17:22:52.001Z</time></trkpt><trkpt lat="43.50388446444738" lon="10.617874842232634"><ele>330.0</ele><time>2026-04-18T17:24:12.003Z</time></trkpt><trkpt lat="43.50397687577641" lon="10.61792833180598"><ele>330.00000000000006</ele><time>2026-04-18T17:24:35.003Z</time></trkpt><trkpt lat="43.50397849589124" lon="10.618016340552279"><ele>330.0</ele><time>2026-04-18T17:24:40.002Z</time></trkpt><trkpt lat="43.503984680090305" lon="10.618115435485947"><ele>330.0</ele><time>2026-04-18T17:24:46.002Z</time></trkpt><trkpt lat="43.50402837799493" lon="10.618178239284223"><ele>330.0</ele><time>2026-04-18T17:24:50.002Z</time></trkpt><trkpt lat="43.504067106920054" lon="10.618250190302284"><ele>330.0</ele><time>2026-04-18T17:24:54.001Z</time></trkpt><trkpt lat="43.504119769638535" lon="10.618328978949235"><ele>330.00000000000006</ele><time>2026-04-18T17:24:58.001Z</time></trkpt><trkpt lat="43.50417806018333" lon="10.618400396158405"><ele>330.0</ele><time>2026-04-18T17:25:02.001Z</time></trkpt><trkpt lat="43.504222255896046" lon="10.618475381261417"><ele>330.0</ele><time>2026-04-18T17:25:06.001Z</time></trkpt><trkpt lat="43.50424201942695" lon="10.618566228913226"><ele>330.0</ele><time>2026-04-18T17:25:10.001Z</time></trkpt><trkpt lat="43.50425138651888" lon="10.618659433338628"><ele>320.0</ele><time>2026-04-18T17:25:14.001Z</time></trkpt><trkpt lat="43.504221665045506" lon="10.61873645010574"><ele>320.0</ele><time>2026-04-18T17:25:19.001Z</time></trkpt><trkpt lat="43.50423690130665" lon="10.618833426652197"><ele>320.0</ele><time>2026-04-18T17:25:27.001Z</time></trkpt></trkseg></trk></gpx>